<?xml version="1.0" encoding="UTF-8"?>
<gpx version="1.1" creator=" " xmlns="http://www.topografix.com/GPX/1/1" xmlns:xsi="http://www.w3.org/2001/XMLSchema-instance" xsi:schemaLocation="http://www.topografix.com/GPX/1/1 http://www.topografix.com/GPX/1/1/gpx.xsd">
<metadata>
<name>Trainingslager Starnberg und Andechs</name>
<desc></desc>
<link href="">
<text>  </text>
</link>
<time>2022-05-26T09:54:20Z</time>
</metadata>
<trk>
<trkseg>
<trkpt lat="47.983524" lon="11.092425">
<ele>511.548</ele>
</trkpt>
<trkpt lat="47.983524" lon="11.092425">
<ele>511.548</ele>
<time>2022-05-26T09:54:20Z</time>
</trkpt>
<trkpt lat="47.983479" lon="11.092453">
<ele>511.164</ele>
<time>2022-05-26T09:54:35Z</time>
</trkpt>
<trkpt lat="47.983475" lon="11.092466">
<ele>511.1</ele>
<time>2022-05-26T09:54:36Z</time>
</trkpt>
<trkpt lat="47.983471" lon="11.09248">
<ele>511.074</ele>
<time>2022-05-26T09:54:37Z</time>
</trkpt>
<trkpt lat="47.983467" lon="11.092495">
<ele>511.061</ele>
<time>2022-05-26T09:54:38Z</time>
</trkpt>
<trkpt lat="47.983467" lon="11.092515">
<ele>511.052</ele>
<time>2022-05-26T09:54:39Z</time>
</trkpt>
<trkpt lat="47.983463" lon="11.092536">
<ele>511.046</ele>
<time>2022-05-26T09:54:40Z</time>
</trkpt>
<trkpt lat="47.983459" lon="11.092557">
<ele>511.042</ele>
<time>2022-05-26T09:54:41Z</time>
</trkpt>
<trkpt lat="47.983452" lon="11.092578">
<ele>511.034</ele>
<time>2022-05-26T09:54:42Z</time>
</trkpt>
<trkpt lat="47.983448" lon="11.0926">
<ele>511.027</ele>
<time>2022-05-26T09:54:43Z</time>
</trkpt>
<trkpt lat="47.98344" lon="11.092624">
<ele>511.027</ele>
<time>2022-05-26T09:54:44Z</time>
</trkpt>
<trkpt lat="47.98344" lon="11.092647">
<ele>511.027</ele>
<time>2022-05-26T09:54:45Z</time>
</trkpt>
<trkpt lat="47.983448" lon="11.092673">
<ele>511.027</ele>
<time>2022-05-26T09:54:46Z</time>
</trkpt>
<trkpt lat="47.983452" lon="11.092702">
<ele>511.027</ele>
<time>2022-05-26T09:54:47Z</time>
</trkpt>
<trkpt lat="47.983456" lon="11.092723">
<ele>511.027</ele>
<time>2022-05-26T09:54:48Z</time>
</trkpt>
<trkpt lat="47.983467" lon="11.092742">
<ele>511.027</ele>
<time>2022-05-26T09:54:49Z</time>
</trkpt>
<trkpt lat="47.983479" lon="11.092765">
<ele>511.027</ele>
<time>2022-05-26T09:54:50Z</time>
</trkpt>
<trkpt lat="47.983498" lon="11.092788">
<ele>511.027</ele>
<time>2022-05-26T09:54:51Z</time>
</trkpt>
<trkpt lat="47.983505" lon="11.092809">
<ele>511.027</ele>
<time>2022-05-26T09:54:52Z</time>
</trkpt>
<trkpt lat="47.983509" lon="11.092834">
<ele>511.027</ele>
<time>2022-05-26T09:54:53Z</time>
</trkpt>
<trkpt lat="47.983513" lon="11.092863">
<ele>511.027</ele>
<time>2022-05-26T09:54:54Z</time>
</trkpt>
<trkpt lat="47.983517" lon="11.092901">
<ele>511.027</ele>
<time>2022-05-26T09:54:55Z</time>
</trkpt>
<trkpt lat="47.983517" lon="11.092943">
<ele>511.027</ele>
<time>2022-05-26T09:54:56Z</time>
</trkpt>
<trkpt lat="47.983509" lon="11.092985">
<ele>511.027</ele>
<time>2022-05-26T09:54:57Z</time>
</trkpt>
<trkpt lat="47.98349" lon="11.09302">
<ele>511.027</ele>
<time>2022-05-26T09:54:58Z</time>
</trkpt>
<trkpt lat="47.983463" lon="11.093057">
<ele>511.027</ele>
<time>2022-05-26T09:54:59Z</time>
</trkpt>
<trkpt lat="47.983437" lon="11.093093">
<ele>511.027</ele>
<time>2022-05-26T09:55:00Z</time>
</trkpt>
<trkpt lat="47.98341" lon="11.09313">
<ele>511.027</ele>
<time>2022-05-26T09:55:01Z</time>
</trkpt>
<trkpt lat="47.983387" lon="11.093163">
<ele>511.027</ele>
<time>2022-05-26T09:55:02Z</time>
</trkpt>
<trkpt lat="47.983364" lon="11.093204">
<ele>511.027</ele>
<time>2022-05-26T09:55:03Z</time>
</trkpt>
<trkpt lat="47.983337" lon="11.093245">
<ele>511.027</ele>
<time>2022-05-26T09:55:04Z</time>
</trkpt>
<trkpt lat="47.983315" lon="11.093287">
<ele>511.027</ele>
<time>2022-05-26T09:55:05Z</time>
</trkpt>
<trkpt lat="47.983292" lon="11.093332">
<ele>511.027</ele>
<time>2022-05-26T09:55:06Z</time>
</trkpt>
<trkpt lat="47.983261" lon="11.093382">
<ele>511.027</ele>
<time>2022-05-26T09:55:07Z</time>
</trkpt>
<trkpt lat="47.983234" lon="11.09344">
<ele>511.027</ele>
<time>2022-05-26T09:55:08Z</time>
</trkpt>
<trkpt lat="47.983208" lon="11.093504">
<ele>511.027</ele>
<time>2022-05-26T09:55:09Z</time>
</trkpt>
<trkpt lat="47.983173" lon="11.093575">
<ele>511.027</ele>
<time>2022-05-26T09:55:10Z</time>
</trkpt>
<trkpt lat="47.983143" lon="11.093643">
<ele>511.027</ele>
<time>2022-05-26T09:55:11Z</time>
</trkpt>
<trkpt lat="47.983109" lon="11.093717">
<ele>511.027</ele>
<time>2022-05-26T09:55:12Z</time>
</trkpt>
<trkpt lat="47.983082" lon="11.093795">
<ele>511.027</ele>
<time>2022-05-26T09:55:13Z</time>
</trkpt>
<trkpt lat="47.983059" lon="11.093875">
<ele>511.027</ele>
<time>2022-05-26T09:55:14Z</time>
</trkpt>
<trkpt lat="47.98304" lon="11.093959">
<ele>511.027</ele>
<time>2022-05-26T09:55:15Z</time>
</trkpt>
<trkpt lat="47.983021" lon="11.094043">
<ele>511.027</ele>
<time>2022-05-26T09:55:16Z</time>
</trkpt>
<trkpt lat="47.983006" lon="11.094133">
<ele>510.726</ele>
<time>2022-05-26T09:55:17Z</time>
</trkpt>
<trkpt lat="47.982983" lon="11.094225">
<ele>510.499</ele>
<time>2022-05-26T09:55:18Z</time>
</trkpt>
<trkpt lat="47.982964" lon="11.094316">
<ele>510.358</ele>
<time>2022-05-26T09:55:19Z</time>
</trkpt>
<trkpt lat="47.982944" lon="11.094409">
<ele>509.994</ele>
<time>2022-05-26T09:55:20Z</time>
</trkpt>
<trkpt lat="47.982918" lon="11.0945">
<ele>509.719</ele>
<time>2022-05-26T09:55:21Z</time>
</trkpt>
<trkpt lat="47.982895" lon="11.094591">
<ele>509.518</ele>
<time>2022-05-26T09:55:22Z</time>
</trkpt>
<trkpt lat="47.982872" lon="11.094678">
<ele>509.379</ele>
<time>2022-05-26T09:55:23Z</time>
</trkpt>
<trkpt lat="47.982849" lon="11.094763">
<ele>509.252</ele>
<time>2022-05-26T09:55:24Z</time>
</trkpt>
<trkpt lat="47.982819" lon="11.094843">
<ele>509.187</ele>
<time>2022-05-26T09:55:25Z</time>
</trkpt>
<trkpt lat="47.982792" lon="11.09492">
<ele>508.89</ele>
<time>2022-05-26T09:55:26Z</time>
</trkpt>
<trkpt lat="47.982761" lon="11.094995">
<ele>508.657</ele>
<time>2022-05-26T09:55:27Z</time>
</trkpt>
<trkpt lat="47.982731" lon="11.095072">
<ele>508.41</ele>
<time>2022-05-26T09:55:28Z</time>
</trkpt>
<trkpt lat="47.982704" lon="11.095146">
<ele>508.278</ele>
<time>2022-05-26T09:55:29Z</time>
</trkpt>
<trkpt lat="47.982674" lon="11.095226">
<ele>508.189</ele>
<time>2022-05-26T09:55:30Z</time>
</trkpt>
<trkpt lat="47.982643" lon="11.095308">
<ele>508.129</ele>
<time>2022-05-26T09:55:31Z</time>
</trkpt>
<trkpt lat="47.982616" lon="11.095389">
<ele>508.103</ele>
<time>2022-05-26T09:55:32Z</time>
</trkpt>
<trkpt lat="47.982586" lon="11.095467">
<ele>507.859</ele>
<time>2022-05-26T09:55:33Z</time>
</trkpt>
<trkpt lat="47.982555" lon="11.095549">
<ele>507.657</ele>
<time>2022-05-26T09:55:34Z</time>
</trkpt>
<trkpt lat="47.982521" lon="11.095625">
<ele>507.491</ele>
<time>2022-05-26T09:55:35Z</time>
</trkpt>
<trkpt lat="47.982491" lon="11.095706">
<ele>507.36</ele>
<time>2022-05-26T09:55:36Z</time>
</trkpt>
<trkpt lat="47.982464" lon="11.095783">
<ele>507.259</ele>
<time>2022-05-26T09:55:37Z</time>
</trkpt>
<trkpt lat="47.982433" lon="11.095863">
<ele>507.189</ele>
<time>2022-05-26T09:55:38Z</time>
</trkpt>
<trkpt lat="47.982426" lon="11.09593">
<ele>507.145</ele>
<time>2022-05-26T09:55:39Z</time>
</trkpt>
<trkpt lat="47.982399" lon="11.096004">
<ele>506.873</ele>
<time>2022-05-26T09:55:40Z</time>
</trkpt>
<trkpt lat="47.98238" lon="11.096077">
<ele>506.655</ele>
<time>2022-05-26T09:55:41Z</time>
</trkpt>
<trkpt lat="47.982365" lon="11.096153">
<ele>506.494</ele>
<time>2022-05-26T09:55:42Z</time>
</trkpt>
<trkpt lat="47.982353" lon="11.096235">
<ele>506.38</ele>
<time>2022-05-26T09:55:43Z</time>
</trkpt>
<trkpt lat="47.982334" lon="11.096316">
<ele>506.257</ele>
<time>2022-05-26T09:55:44Z</time>
</trkpt>
<trkpt lat="47.982323" lon="11.096394">
<ele>506.164</ele>
<time>2022-05-26T09:55:45Z</time>
</trkpt>
<trkpt lat="47.982307" lon="11.096465">
<ele>506.106</ele>
<time>2022-05-26T09:55:46Z</time>
</trkpt>
<trkpt lat="47.982292" lon="11.096527">
<ele>506.076</ele>
<time>2022-05-26T09:55:47Z</time>
</trkpt>
<trkpt lat="47.982273" lon="11.096585">
<ele>505.826</ele>
<time>2022-05-26T09:55:48Z</time>
</trkpt>
<trkpt lat="47.982254" lon="11.096644">
<ele>505.628</ele>
<time>2022-05-26T09:55:49Z</time>
</trkpt>
<trkpt lat="47.982235" lon="11.096697">
<ele>505.479</ele>
<time>2022-05-26T09:55:50Z</time>
</trkpt>
<trkpt lat="47.982224" lon="11.096739">
<ele>505.364</ele>
<time>2022-05-26T09:55:51Z</time>
</trkpt>
<trkpt lat="47.982201" lon="11.096781">
<ele>505.281</ele>
<time>2022-05-26T09:55:52Z</time>
</trkpt>
<trkpt lat="47.982185" lon="11.096815">
<ele>505.212</ele>
<time>2022-05-26T09:55:53Z</time>
</trkpt>
<trkpt lat="47.982174" lon="11.096848">
<ele>505.152</ele>
<time>2022-05-26T09:55:54Z</time>
</trkpt>
<trkpt lat="47.982166" lon="11.096884">
<ele>505.121</ele>
<time>2022-05-26T09:55:55Z</time>
</trkpt>
<trkpt lat="47.982159" lon="11.096915">
<ele>505.121</ele>
<time>2022-05-26T09:55:56Z</time>
</trkpt>
<trkpt lat="47.982151" lon="11.096947">
<ele>505.121</ele>
<time>2022-05-26T09:55:57Z</time>
</trkpt>
<trkpt lat="47.98214" lon="11.096978">
<ele>505.121</ele>
<time>2022-05-26T09:55:58Z</time>
</trkpt>
<trkpt lat="47.982136" lon="11.097009">
<ele>505.121</ele>
<time>2022-05-26T09:55:59Z</time>
</trkpt>
<trkpt lat="47.982132" lon="11.097042">
<ele>505.121</ele>
<time>2022-05-26T09:56:00Z</time>
</trkpt>
<trkpt lat="47.982124" lon="11.097083">
<ele>505.121</ele>
<time>2022-05-26T09:56:01Z</time>
</trkpt>
<trkpt lat="47.982113" lon="11.097125">
<ele>505.121</ele>
<time>2022-05-26T09:56:02Z</time>
</trkpt>
<trkpt lat="47.982105" lon="11.097162">
<ele>505.121</ele>
<time>2022-05-26T09:56:03Z</time>
</trkpt>
<trkpt lat="47.98209" lon="11.097194">
<ele>505.121</ele>
<time>2022-05-26T09:56:04Z</time>
</trkpt>
<trkpt lat="47.982071" lon="11.097223">
<ele>504.85</ele>
<time>2022-05-26T09:56:05Z</time>
</trkpt>
<trkpt lat="47.982056" lon="11.097252">
<ele>504.642</ele>
<time>2022-05-26T09:56:06Z</time>
</trkpt>
<trkpt lat="47.982033" lon="11.097277">
<ele>504.493</ele>
<time>2022-05-26T09:56:07Z</time>
</trkpt>
<trkpt lat="47.982014" lon="11.097303">
<ele>504.395</ele>
<time>2022-05-26T09:56:08Z</time>
</trkpt>
<trkpt lat="47.981995" lon="11.097323">
<ele>504.327</ele>
<time>2022-05-26T09:56:09Z</time>
</trkpt>
<trkpt lat="47.981968" lon="11.097343">
<ele>504.284</ele>
<time>2022-05-26T09:56:10Z</time>
</trkpt>
<trkpt lat="47.981941" lon="11.097367">
<ele>504.26</ele>
<time>2022-05-26T09:56:11Z</time>
</trkpt>
<trkpt lat="47.981918" lon="11.097392">
<ele>504.253</ele>
<time>2022-05-26T09:56:12Z</time>
</trkpt>
<trkpt lat="47.981895" lon="11.09742">
<ele>504.253</ele>
<time>2022-05-26T09:56:13Z</time>
</trkpt>
<trkpt lat="47.981869" lon="11.097453">
<ele>504.253</ele>
<time>2022-05-26T09:56:14Z</time>
</trkpt>
<trkpt lat="47.981842" lon="11.097486">
<ele>504.253</ele>
<time>2022-05-26T09:56:15Z</time>
</trkpt>
<trkpt lat="47.981827" lon="11.097522">
<ele>504.253</ele>
<time>2022-05-26T09:56:16Z</time>
</trkpt>
<trkpt lat="47.981819" lon="11.09756">
<ele>504.253</ele>
<time>2022-05-26T09:56:17Z</time>
</trkpt>
<trkpt lat="47.981808" lon="11.097598">
<ele>504.253</ele>
<time>2022-05-26T09:56:18Z</time>
</trkpt>
<trkpt lat="47.981804" lon="11.097633">
<ele>504.253</ele>
<time>2022-05-26T09:56:19Z</time>
</trkpt>
<trkpt lat="47.981804" lon="11.097672">
<ele>504.253</ele>
<time>2022-05-26T09:56:20Z</time>
</trkpt>
<trkpt lat="47.981796" lon="11.097712">
<ele>504.253</ele>
<time>2022-05-26T09:56:21Z</time>
</trkpt>
<trkpt lat="47.981785" lon="11.097752">
<ele>504.253</ele>
<time>2022-05-26T09:56:22Z</time>
</trkpt>
<trkpt lat="47.981785" lon="11.097791">
<ele>504.046</ele>
<time>2022-05-26T09:56:23Z</time>
</trkpt>
<trkpt lat="47.981777" lon="11.097832">
<ele>503.841</ele>
<time>2022-05-26T09:56:24Z</time>
</trkpt>
<trkpt lat="47.981773" lon="11.097872">
<ele>503.671</ele>
<time>2022-05-26T09:56:25Z</time>
</trkpt>
<trkpt lat="47.98177" lon="11.097906">
<ele>503.538</ele>
<time>2022-05-26T09:56:26Z</time>
</trkpt>
<trkpt lat="47.981758" lon="11.097939">
<ele>503.45</ele>
<time>2022-05-26T09:56:27Z</time>
</trkpt>
<trkpt lat="47.981743" lon="11.097981">
<ele>503.099</ele>
<time>2022-05-26T09:56:28Z</time>
</trkpt>
<trkpt lat="47.981724" lon="11.098025">
<ele>502.814</ele>
<time>2022-05-26T09:56:29Z</time>
</trkpt>
<trkpt lat="47.981709" lon="11.098065">
<ele>502.595</ele>
<time>2022-05-26T09:56:30Z</time>
</trkpt>
<trkpt lat="47.981693" lon="11.098104">
<ele>502.427</ele>
<time>2022-05-26T09:56:31Z</time>
</trkpt>
<trkpt lat="47.981686" lon="11.098142">
<ele>502.352</ele>
<time>2022-05-26T09:56:32Z</time>
</trkpt>
<trkpt lat="47.981682" lon="11.098183">
<ele>502.041</ele>
<time>2022-05-26T09:56:33Z</time>
</trkpt>
<trkpt lat="47.981686" lon="11.098222">
<ele>501.779</ele>
<time>2022-05-26T09:56:34Z</time>
</trkpt>
<trkpt lat="47.981693" lon="11.098262">
<ele>501.597</ele>
<time>2022-05-26T09:56:35Z</time>
</trkpt>
<trkpt lat="47.981709" lon="11.098302">
<ele>501.476</ele>
<time>2022-05-26T09:56:36Z</time>
</trkpt>
<trkpt lat="47.981735" lon="11.098331">
<ele>501.372</ele>
<time>2022-05-26T09:56:37Z</time>
</trkpt>
<trkpt lat="47.981762" lon="11.098353">
<ele>501.29</ele>
<time>2022-05-26T09:56:38Z</time>
</trkpt>
<trkpt lat="47.981785" lon="11.098367">
<ele>501.239</ele>
<time>2022-05-26T09:56:39Z</time>
</trkpt>
<trkpt lat="47.981815" lon="11.098375">
<ele>501.215</ele>
<time>2022-05-26T09:56:40Z</time>
</trkpt>
<trkpt lat="47.981846" lon="11.098382">
<ele>501.215</ele>
<time>2022-05-26T09:56:41Z</time>
</trkpt>
<trkpt lat="47.981869" lon="11.098388">
<ele>501.215</ele>
<time>2022-05-26T09:56:42Z</time>
</trkpt>
<trkpt lat="47.981903" lon="11.098396">
<ele>501.215</ele>
<time>2022-05-26T09:56:43Z</time>
</trkpt>
<trkpt lat="47.981926" lon="11.098407">
<ele>501.215</ele>
<time>2022-05-26T09:56:44Z</time>
</trkpt>
<trkpt lat="47.981949" lon="11.098418">
<ele>501.215</ele>
<time>2022-05-26T09:56:45Z</time>
</trkpt>
<trkpt lat="47.981968" lon="11.098428">
<ele>501.215</ele>
<time>2022-05-26T09:56:46Z</time>
</trkpt>
<trkpt lat="47.981991" lon="11.098438">
<ele>501.215</ele>
<time>2022-05-26T09:56:47Z</time>
</trkpt>
<trkpt lat="47.98201" lon="11.098452">
<ele>501.215</ele>
<time>2022-05-26T09:56:48Z</time>
</trkpt>
<trkpt lat="47.982021" lon="11.098478">
<ele>500.958</ele>
<time>2022-05-26T09:56:49Z</time>
</trkpt>
<trkpt lat="47.982025" lon="11.09851">
<ele>500.749</ele>
<time>2022-05-26T09:56:50Z</time>
</trkpt>
<trkpt lat="47.982029" lon="11.098538">
<ele>500.587</ele>
<time>2022-05-26T09:56:51Z</time>
</trkpt>
<trkpt lat="47.982025" lon="11.098568">
<ele>500.452</ele>
<time>2022-05-26T09:56:52Z</time>
</trkpt>
<trkpt lat="47.982025" lon="11.098595">
<ele>500.358</ele>
<time>2022-05-26T09:56:53Z</time>
</trkpt>
<trkpt lat="47.982025" lon="11.098615">
<ele>500.264</ele>
<time>2022-05-26T09:56:54Z</time>
</trkpt>
<trkpt lat="47.982029" lon="11.098635">
<ele>500.204</ele>
<time>2022-05-26T09:56:55Z</time>
</trkpt>
<trkpt lat="47.982029" lon="11.098656">
<ele>500.174</ele>
<time>2022-05-26T09:56:56Z</time>
</trkpt>
<trkpt lat="47.982021" lon="11.098675">
<ele>500.174</ele>
<time>2022-05-26T09:56:57Z</time>
</trkpt>
<trkpt lat="47.982025" lon="11.098688">
<ele>500.174</ele>
<time>2022-05-26T09:56:58Z</time>
</trkpt>
<trkpt lat="47.982025" lon="11.0987">
<ele>500.174</ele>
<time>2022-05-26T09:56:59Z</time>
</trkpt>
<trkpt lat="47.982021" lon="11.098717">
<ele>500.174</ele>
<time>2022-05-26T09:57:00Z</time>
</trkpt>
<trkpt lat="47.982014" lon="11.09874">
<ele>500.174</ele>
<time>2022-05-26T09:57:01Z</time>
</trkpt>
<trkpt lat="47.982014" lon="11.098765">
<ele>500.174</ele>
<time>2022-05-26T09:57:02Z</time>
</trkpt>
<trkpt lat="47.98201" lon="11.098795">
<ele>500.174</ele>
<time>2022-05-26T09:57:03Z</time>
</trkpt>
<trkpt lat="47.982006" lon="11.098825">
<ele>500.174</ele>
<time>2022-05-26T09:57:04Z</time>
</trkpt>
<trkpt lat="47.982002" lon="11.098857">
<ele>500.174</ele>
<time>2022-05-26T09:57:05Z</time>
</trkpt>
<trkpt lat="47.981991" lon="11.098886">
<ele>500.174</ele>
<time>2022-05-26T09:57:06Z</time>
</trkpt>
<trkpt lat="47.981987" lon="11.098908">
<ele>500.174</ele>
<time>2022-05-26T09:57:07Z</time>
</trkpt>
<trkpt lat="47.981983" lon="11.09892">
<ele>500.173</ele>
<time>2022-05-26T09:57:08Z</time>
</trkpt>
<trkpt lat="47.981983" lon="11.09893">
<ele>500.174</ele>
<time>2022-05-26T09:57:09Z</time>
</trkpt>
<trkpt lat="47.981979" lon="11.098937">
<ele>500.174</ele>
<time>2022-05-26T09:57:10Z</time>
</trkpt>
<trkpt lat="47.981976" lon="11.098947">
<ele>500.174</ele>
<time>2022-05-26T09:57:11Z</time>
</trkpt>
<trkpt lat="47.981972" lon="11.09896">
<ele>500.174</ele>
<time>2022-05-26T09:57:12Z</time>
</trkpt>
<trkpt lat="47.981968" lon="11.098973">
<ele>500.174</ele>
<time>2022-05-26T09:57:13Z</time>
</trkpt>
<trkpt lat="47.981968" lon="11.098985">
<ele>500.174</ele>
<time>2022-05-26T09:57:14Z</time>
</trkpt>
<trkpt lat="47.981964" lon="11.098998">
<ele>500.174</ele>
<time>2022-05-26T09:57:15Z</time>
</trkpt>
<trkpt lat="47.981964" lon="11.099009">
<ele>500.174</ele>
<time>2022-05-26T09:57:16Z</time>
</trkpt>
<trkpt lat="47.981964" lon="11.099014">
<ele>500.174</ele>
<time>2022-05-26T09:57:17Z</time>
</trkpt>
<trkpt lat="47.981964" lon="11.099022">
<ele>500.174</ele>
<time>2022-05-26T09:57:18Z</time>
</trkpt>
<trkpt lat="47.981964" lon="11.099029">
<ele>500.174</ele>
<time>2022-05-26T09:57:19Z</time>
</trkpt>
<trkpt lat="47.98196" lon="11.099072">
<ele>500.174</ele>
<time>2022-05-26T09:57:25Z</time>
</trkpt>
<trkpt lat="47.98196" lon="11.099081">
<ele>500.174</ele>
<time>2022-05-26T09:57:26Z</time>
</trkpt>
<trkpt lat="47.981964" lon="11.09909">
<ele>500.174</ele>
<time>2022-05-26T09:57:27Z</time>
</trkpt>
<trkpt lat="47.98196" lon="11.099098">
<ele>500.174</ele>
<time>2022-05-26T09:57:28Z</time>
</trkpt>
<trkpt lat="47.981964" lon="11.099105">
<ele>500.174</ele>
<time>2022-05-26T09:57:29Z</time>
</trkpt>
<trkpt lat="47.981964" lon="11.099113">
<ele>500.174</ele>
<time>2022-05-26T09:57:30Z</time>
</trkpt>
<trkpt lat="47.981964" lon="11.09912">
<ele>500.174</ele>
<time>2022-05-26T09:57:31Z</time>
</trkpt>
<trkpt lat="47.981964" lon="11.099127">
<ele>500.174</ele>
<time>2022-05-26T09:57:32Z</time>
</trkpt>
<trkpt lat="47.981964" lon="11.099133">
<ele>500.174</ele>
<time>2022-05-26T09:57:33Z</time>
</trkpt>
<trkpt lat="47.98196" lon="11.099136">
<ele>500.174</ele>
<time>2022-05-26T09:57:34Z</time>
</trkpt>
<trkpt lat="47.98196" lon="11.099142">
<ele>500.174</ele>
<time>2022-05-26T09:57:35Z</time>
</trkpt>
<trkpt lat="47.98196" lon="11.099153">
<ele>500.174</ele>
<time>2022-05-26T09:57:36Z</time>
</trkpt>
<trkpt lat="47.98196" lon="11.099161">
<ele>500.174</ele>
<time>2022-05-26T09:57:37Z</time>
</trkpt>
<trkpt lat="47.98196" lon="11.099172">
<ele>500.174</ele>
<time>2022-05-26T09:57:38Z</time>
</trkpt>
<trkpt lat="47.98196" lon="11.099182">
<ele>500.174</ele>
<time>2022-05-26T09:57:39Z</time>
</trkpt>
<trkpt lat="47.981956" lon="11.09919">
<ele>500.174</ele>
<time>2022-05-26T09:57:40Z</time>
</trkpt>
<trkpt lat="47.98196" lon="11.099195">
<ele>500.174</ele>
<time>2022-05-26T09:57:41Z</time>
</trkpt>
<trkpt lat="47.98196" lon="11.0992">
<ele>500.174</ele>
<time>2022-05-26T09:57:42Z</time>
</trkpt>
<trkpt lat="47.98196" lon="11.099205">
<ele>500.174</ele>
<time>2022-05-26T09:57:43Z</time>
</trkpt>
<trkpt lat="47.98196" lon="11.099209">
<ele>500.174</ele>
<time>2022-05-26T09:57:44Z</time>
</trkpt>
<trkpt lat="47.981956" lon="11.099228">
<ele>500.174</ele>
<time>2022-05-26T09:57:48Z</time>
</trkpt>
<trkpt lat="47.981956" lon="11.099235">
<ele>500.174</ele>
<time>2022-05-26T09:57:49Z</time>
</trkpt>
<trkpt lat="47.981956" lon="11.099243">
<ele>500.174</ele>
<time>2022-05-26T09:57:50Z</time>
</trkpt>
<trkpt lat="47.981956" lon="11.099253">
<ele>500.174</ele>
<time>2022-05-26T09:57:51Z</time>
</trkpt>
<trkpt lat="47.981956" lon="11.099259">
<ele>500.174</ele>
<time>2022-05-26T09:57:52Z</time>
</trkpt>
<trkpt lat="47.981953" lon="11.09927">
<ele>500.174</ele>
<time>2022-05-26T09:57:53Z</time>
</trkpt>
<trkpt lat="47.981953" lon="11.099276">
<ele>500.174</ele>
<time>2022-05-26T09:57:54Z</time>
</trkpt>
<trkpt lat="47.981953" lon="11.099285">
<ele>500.174</ele>
<time>2022-05-26T09:57:55Z</time>
</trkpt>
<trkpt lat="47.981953" lon="11.099292">
<ele>500.174</ele>
<time>2022-05-26T09:57:56Z</time>
</trkpt>
<trkpt lat="47.981953" lon="11.099303">
<ele>500.174</ele>
<time>2022-05-26T09:57:57Z</time>
</trkpt>
<trkpt lat="47.981953" lon="11.09931">
<ele>500.174</ele>
<time>2022-05-26T09:57:58Z</time>
</trkpt>
<trkpt lat="47.981953" lon="11.099319">
<ele>500.174</ele>
<time>2022-05-26T09:57:59Z</time>
</trkpt>
<trkpt lat="47.981953" lon="11.099322">
<ele>500.174</ele>
<time>2022-05-26T09:58:00Z</time>
</trkpt>
<trkpt lat="47.981953" lon="11.099326">
<ele>500.174</ele>
<time>2022-05-26T09:58:01Z</time>
</trkpt>
<trkpt lat="47.981953" lon="11.09933">
<ele>500.174</ele>
<time>2022-05-26T09:58:02Z</time>
</trkpt>
<trkpt lat="47.981953" lon="11.099343">
<ele>500.174</ele>
<time>2022-05-26T09:58:04Z</time>
</trkpt>
<trkpt lat="47.981953" lon="11.099348">
<ele>500.174</ele>
<time>2022-05-26T09:58:05Z</time>
</trkpt>
<trkpt lat="47.981953" lon="11.099354">
<ele>500.174</ele>
<time>2022-05-26T09:58:06Z</time>
</trkpt>
<trkpt lat="47.981953" lon="11.099358">
<ele>500.174</ele>
<time>2022-05-26T09:58:07Z</time>
</trkpt>
<trkpt lat="47.981934" lon="11.099403">
<ele>500.174</ele>
<time>2022-05-26T09:58:18Z</time>
</trkpt>
<trkpt lat="47.981934" lon="11.099412">
<ele>500.174</ele>
<time>2022-05-26T09:58:19Z</time>
</trkpt>
<trkpt lat="47.981934" lon="11.099421">
<ele>500.174</ele>
<time>2022-05-26T09:58:20Z</time>
</trkpt>
<trkpt lat="47.98193" lon="11.099428">
<ele>500.174</ele>
<time>2022-05-26T09:58:21Z</time>
</trkpt>
<trkpt lat="47.981934" lon="11.099433">
<ele>500.174</ele>
<time>2022-05-26T09:58:22Z</time>
</trkpt>
<trkpt lat="47.981934" lon="11.09944">
<ele>500.174</ele>
<time>2022-05-26T09:58:23Z</time>
</trkpt>
<trkpt lat="47.981934" lon="11.099446">
<ele>500.174</ele>
<time>2022-05-26T09:58:24Z</time>
</trkpt>
<trkpt lat="47.981934" lon="11.099452">
<ele>500.174</ele>
<time>2022-05-26T09:58:25Z</time>
</trkpt>
<trkpt lat="47.98193" lon="11.099455">
<ele>500.174</ele>
<time>2022-05-26T09:58:26Z</time>
</trkpt>
<trkpt lat="47.981934" lon="11.099463">
<ele>500.174</ele>
<time>2022-05-26T09:58:27Z</time>
</trkpt>
<trkpt lat="47.981922" lon="11.099502">
<ele>500.174</ele>
<time>2022-05-26T09:58:51Z</time>
</trkpt>
<trkpt lat="47.981922" lon="11.099511">
<ele>500.174</ele>
<time>2022-05-26T09:58:52Z</time>
</trkpt>
<trkpt lat="47.981922" lon="11.099524">
<ele>500.174</ele>
<time>2022-05-26T09:58:53Z</time>
</trkpt>
<trkpt lat="47.981918" lon="11.099535">
<ele>500.174</ele>
<time>2022-05-26T09:58:54Z</time>
</trkpt>
<trkpt lat="47.981918" lon="11.099545">
<ele>500.174</ele>
<time>2022-05-26T09:58:55Z</time>
</trkpt>
<trkpt lat="47.981915" lon="11.099548">
<ele>500.174</ele>
<time>2022-05-26T09:58:56Z</time>
</trkpt>
<trkpt lat="47.981915" lon="11.09955">
<ele>500.174</ele>
<time>2022-05-26T09:58:57Z</time>
</trkpt>
<trkpt lat="47.981915" lon="11.099552">
<ele>500.174</ele>
<time>2022-05-26T09:58:58Z</time>
</trkpt>
<trkpt lat="47.994801" lon="11.168268">
<ele>499.045</ele>
<time>2022-05-26T10:07:15Z</time>
</trkpt>
<trkpt lat="47.994804" lon="11.168276">
<ele>499.045</ele>
<time>2022-05-26T10:07:16Z</time>
</trkpt>
<trkpt lat="47.994812" lon="11.168292">
<ele>499.045</ele>
<time>2022-05-26T10:07:17Z</time>
</trkpt>
<trkpt lat="47.994812" lon="11.168297">
<ele>498.907</ele>
<time>2022-05-26T10:07:18Z</time>
</trkpt>
<trkpt lat="47.994812" lon="11.1683">
<ele>498.793</ele>
<time>2022-05-26T10:07:19Z</time>
</trkpt>
<trkpt lat="47.994816" lon="11.168308">
<ele>498.73</ele>
<time>2022-05-26T10:07:20Z</time>
</trkpt>
<trkpt lat="47.99482" lon="11.168322">
<ele>498.679</ele>
<time>2022-05-26T10:07:21Z</time>
</trkpt>
<trkpt lat="47.994823" lon="11.168332">
<ele>498.647</ele>
<time>2022-05-26T10:07:22Z</time>
</trkpt>
<trkpt lat="47.994827" lon="11.168344">
<ele>498.62</ele>
<time>2022-05-26T10:07:23Z</time>
</trkpt>
<trkpt lat="47.994827" lon="11.168355">
<ele>498.611</ele>
<time>2022-05-26T10:07:24Z</time>
</trkpt>
<trkpt lat="47.994827" lon="11.168362">
<ele>498.611</ele>
<time>2022-05-26T10:07:25Z</time>
</trkpt>
<trkpt lat="47.994823" lon="11.16837">
<ele>498.611</ele>
<time>2022-05-26T10:07:26Z</time>
</trkpt>
<trkpt lat="47.994823" lon="11.168377">
<ele>498.611</ele>
<time>2022-05-26T10:07:27Z</time>
</trkpt>
<trkpt lat="47.994823" lon="11.168385">
<ele>498.611</ele>
<time>2022-05-26T10:07:28Z</time>
</trkpt>
<trkpt lat="47.994823" lon="11.168391">
<ele>498.611</ele>
<time>2022-05-26T10:07:29Z</time>
</trkpt>
<trkpt lat="47.994823" lon="11.168397">
<ele>498.611</ele>
<time>2022-05-26T10:07:30Z</time>
</trkpt>
<trkpt lat="47.994823" lon="11.168404">
<ele>498.611</ele>
<time>2022-05-26T10:07:31Z</time>
</trkpt>
<trkpt lat="47.994827" lon="11.168412">
<ele>498.611</ele>
<time>2022-05-26T10:07:32Z</time>
</trkpt>
<trkpt lat="47.994831" lon="11.16842">
<ele>498.611</ele>
<time>2022-05-26T10:07:33Z</time>
</trkpt>
<trkpt lat="47.994831" lon="11.168431">
<ele>498.611</ele>
<time>2022-05-26T10:07:34Z</time>
</trkpt>
<trkpt lat="47.994835" lon="11.168442">
<ele>498.611</ele>
<time>2022-05-26T10:07:35Z</time>
</trkpt>
<trkpt lat="47.994839" lon="11.168451">
<ele>498.611</ele>
<time>2022-05-26T10:07:36Z</time>
</trkpt>
<trkpt lat="47.994843" lon="11.168463">
<ele>498.611</ele>
<time>2022-05-26T10:07:37Z</time>
</trkpt>
<trkpt lat="47.994846" lon="11.168475">
<ele>498.611</ele>
<time>2022-05-26T10:07:38Z</time>
</trkpt>
<trkpt lat="47.994846" lon="11.168488">
<ele>498.611</ele>
<time>2022-05-26T10:07:39Z</time>
</trkpt>
<trkpt lat="47.994854" lon="11.168504">
<ele>498.611</ele>
<time>2022-05-26T10:07:40Z</time>
</trkpt>
<trkpt lat="47.994858" lon="11.168519">
<ele>498.611</ele>
<time>2022-05-26T10:07:41Z</time>
</trkpt>
<trkpt lat="47.994862" lon="11.168531">
<ele>498.611</ele>
<time>2022-05-26T10:07:42Z</time>
</trkpt>
<trkpt lat="47.994865" lon="11.168547">
<ele>498.611</ele>
<time>2022-05-26T10:07:43Z</time>
</trkpt>
<trkpt lat="47.994873" lon="11.16856">
<ele>498.611</ele>
<time>2022-05-26T10:07:44Z</time>
</trkpt>
<trkpt lat="47.994877" lon="11.168577">
<ele>498.611</ele>
<time>2022-05-26T10:07:45Z</time>
</trkpt>
<trkpt lat="47.994877" lon="11.168591">
<ele>498.611</ele>
<time>2022-05-26T10:07:46Z</time>
</trkpt>
<trkpt lat="47.994881" lon="11.168605">
<ele>498.611</ele>
<time>2022-05-26T10:07:47Z</time>
</trkpt>
<trkpt lat="47.994881" lon="11.168622">
<ele>498.611</ele>
<time>2022-05-26T10:07:48Z</time>
</trkpt>
<trkpt lat="47.994884" lon="11.168638">
<ele>498.611</ele>
<time>2022-05-26T10:07:49Z</time>
</trkpt>
<trkpt lat="47.994892" lon="11.168652">
<ele>498.611</ele>
<time>2022-05-26T10:07:50Z</time>
</trkpt>
<trkpt lat="47.9949" lon="11.168668">
<ele>498.611</ele>
<time>2022-05-26T10:07:51Z</time>
</trkpt>
<trkpt lat="47.994904" lon="11.168691">
<ele>498.611</ele>
<time>2022-05-26T10:07:52Z</time>
</trkpt>
<trkpt lat="47.994911" lon="11.16871">
<ele>498.611</ele>
<time>2022-05-26T10:07:53Z</time>
</trkpt>
<trkpt lat="47.994915" lon="11.168727">
<ele>498.611</ele>
<time>2022-05-26T10:07:54Z</time>
</trkpt>
<trkpt lat="47.994923" lon="11.168745">
<ele>498.611</ele>
<time>2022-05-26T10:07:55Z</time>
</trkpt>
<trkpt lat="47.994926" lon="11.168758">
<ele>498.611</ele>
<time>2022-05-26T10:07:56Z</time>
</trkpt>
<trkpt lat="47.99493" lon="11.168766">
<ele>498.611</ele>
<time>2022-05-26T10:07:57Z</time>
</trkpt>
<trkpt lat="47.994934" lon="11.168772">
<ele>498.611</ele>
<time>2022-05-26T10:07:58Z</time>
</trkpt>
<trkpt lat="47.994934" lon="11.168777">
<ele>498.611</ele>
<time>2022-05-26T10:07:59Z</time>
</trkpt>
<trkpt lat="47.994942" lon="11.168781">
<ele>498.611</ele>
<time>2022-05-26T10:08:00Z</time>
</trkpt>
<trkpt lat="47.994946" lon="11.168785">
<ele>498.611</ele>
<time>2022-05-26T10:08:02Z</time>
</trkpt>
<trkpt lat="47.994949" lon="11.168787">
<ele>498.611</ele>
<time>2022-05-26T10:08:03Z</time>
</trkpt>
<trkpt lat="47.994949" lon="11.168792">
<ele>498.611</ele>
<time>2022-05-26T10:08:04Z</time>
</trkpt>
<trkpt lat="47.994953" lon="11.168797">
<ele>498.611</ele>
<time>2022-05-26T10:08:05Z</time>
</trkpt>
<trkpt lat="47.994953" lon="11.168835">
<ele>498.611</ele>
<time>2022-05-26T10:08:24Z</time>
</trkpt>
<trkpt lat="47.994957" lon="11.168841">
<ele>498.611</ele>
<time>2022-05-26T10:08:25Z</time>
</trkpt>
<trkpt lat="47.994957" lon="11.168846">
<ele>498.611</ele>
<time>2022-05-26T10:08:26Z</time>
</trkpt>
<trkpt lat="47.994961" lon="11.168846">
<ele>498.611</ele>
<time>2022-05-26T10:08:27Z</time>
</trkpt>
<trkpt lat="47.994965" lon="11.16885">
<ele>498.611</ele>
<time>2022-05-26T10:08:28Z</time>
</trkpt>
<trkpt lat="47.994968" lon="11.168867">
<ele>498.611</ele>
<time>2022-05-26T10:08:40Z</time>
</trkpt>
<trkpt lat="47.994972" lon="11.168875">
<ele>498.611</ele>
<time>2022-05-26T10:08:41Z</time>
</trkpt>
<trkpt lat="47.994972" lon="11.168881">
<ele>498.611</ele>
<time>2022-05-26T10:08:42Z</time>
</trkpt>
<trkpt lat="47.994972" lon="11.168887">
<ele>498.611</ele>
<time>2022-05-26T10:08:43Z</time>
</trkpt>
<trkpt lat="47.994968" lon="11.168894">
<ele>498.611</ele>
<time>2022-05-26T10:08:44Z</time>
</trkpt>
<trkpt lat="47.994968" lon="11.1689">
<ele>498.611</ele>
<time>2022-05-26T10:08:45Z</time>
</trkpt>
<trkpt lat="47.994972" lon="11.168908">
<ele>498.611</ele>
<time>2022-05-26T10:08:46Z</time>
</trkpt>
<trkpt lat="47.994976" lon="11.168919">
<ele>498.611</ele>
<time>2022-05-26T10:08:47Z</time>
</trkpt>
<trkpt lat="47.994972" lon="11.16893">
<ele>498.611</ele>
<time>2022-05-26T10:08:48Z</time>
</trkpt>
<trkpt lat="47.994972" lon="11.168936">
<ele>498.611</ele>
<time>2022-05-26T10:08:49Z</time>
</trkpt>
<trkpt lat="47.994968" lon="11.168943">
<ele>498.611</ele>
<time>2022-05-26T10:08:50Z</time>
</trkpt>
<trkpt lat="47.994965" lon="11.168952">
<ele>498.611</ele>
<time>2022-05-26T10:08:51Z</time>
</trkpt>
<trkpt lat="47.994961" lon="11.168962">
<ele>498.611</ele>
<time>2022-05-26T10:08:52Z</time>
</trkpt>
<trkpt lat="47.994953" lon="11.168978">
<ele>498.611</ele>
<time>2022-05-26T10:08:53Z</time>
</trkpt>
<trkpt lat="47.994949" lon="11.168988">
<ele>498.611</ele>
<time>2022-05-26T10:08:54Z</time>
</trkpt>
<trkpt lat="47.994946" lon="11.168997">
<ele>498.611</ele>
<time>2022-05-26T10:08:55Z</time>
</trkpt>
<trkpt lat="47.994946" lon="11.169002">
<ele>498.611</ele>
<time>2022-05-26T10:08:56Z</time>
</trkpt>
<trkpt lat="47.994946" lon="11.169013">
<ele>498.611</ele>
<time>2022-05-26T10:08:57Z</time>
</trkpt>
<trkpt lat="47.994949" lon="11.169022">
<ele>498.611</ele>
<time>2022-05-26T10:08:58Z</time>
</trkpt>
<trkpt lat="47.994949" lon="11.169034">
<ele>498.611</ele>
<time>2022-05-26T10:08:59Z</time>
</trkpt>
<trkpt lat="47.994953" lon="11.169042">
<ele>498.611</ele>
<time>2022-05-26T10:09:00Z</time>
</trkpt>
<trkpt lat="47.994957" lon="11.169051">
<ele>498.611</ele>
<time>2022-05-26T10:09:01Z</time>
</trkpt>
<trkpt lat="47.994965" lon="11.16906">
<ele>498.611</ele>
<time>2022-05-26T10:09:02Z</time>
</trkpt>
<trkpt lat="47.994972" lon="11.169068">
<ele>498.611</ele>
<time>2022-05-26T10:09:03Z</time>
</trkpt>
<trkpt lat="47.994976" lon="11.16908">
<ele>498.611</ele>
<time>2022-05-26T10:09:04Z</time>
</trkpt>
<trkpt lat="47.994976" lon="11.16909">
<ele>498.611</ele>
<time>2022-05-26T10:09:05Z</time>
</trkpt>
<trkpt lat="47.99498" lon="11.169104">
<ele>498.611</ele>
<time>2022-05-26T10:09:06Z</time>
</trkpt>
<trkpt lat="47.994984" lon="11.169116">
<ele>498.611</ele>
<time>2022-05-26T10:09:07Z</time>
</trkpt>
<trkpt lat="47.994987" lon="11.169137">
<ele>498.611</ele>
<time>2022-05-26T10:09:08Z</time>
</trkpt>
<trkpt lat="47.994991" lon="11.169155">
<ele>498.611</ele>
<time>2022-05-26T10:09:09Z</time>
</trkpt>
<trkpt lat="47.994999" lon="11.169177">
<ele>498.611</ele>
<time>2022-05-26T10:09:10Z</time>
</trkpt>
<trkpt lat="47.995007" lon="11.169195">
<ele>498.611</ele>
<time>2022-05-26T10:09:11Z</time>
</trkpt>
<trkpt lat="47.995018" lon="11.169213">
<ele>498.611</ele>
<time>2022-05-26T10:09:12Z</time>
</trkpt>
<trkpt lat="47.995033" lon="11.169237">
<ele>498.611</ele>
<time>2022-05-26T10:09:13Z</time>
</trkpt>
<trkpt lat="47.995041" lon="11.169258">
<ele>498.611</ele>
<time>2022-05-26T10:09:14Z</time>
</trkpt>
<trkpt lat="47.995049" lon="11.169277">
<ele>498.611</ele>
<time>2022-05-26T10:09:15Z</time>
</trkpt>
<trkpt lat="47.995064" lon="11.169291">
<ele>498.611</ele>
<time>2022-05-26T10:09:16Z</time>
</trkpt>
<trkpt lat="47.995071" lon="11.1693">
<ele>498.611</ele>
<time>2022-05-26T10:09:17Z</time>
</trkpt>
<trkpt lat="47.995075" lon="11.169311">
<ele>498.611</ele>
<time>2022-05-26T10:09:18Z</time>
</trkpt>
<trkpt lat="47.995079" lon="11.169321">
<ele>498.611</ele>
<time>2022-05-26T10:09:19Z</time>
</trkpt>
<trkpt lat="47.995087" lon="11.169333">
<ele>498.611</ele>
<time>2022-05-26T10:09:20Z</time>
</trkpt>
<trkpt lat="47.995094" lon="11.169345">
<ele>498.611</ele>
<time>2022-05-26T10:09:21Z</time>
</trkpt>
<trkpt lat="47.995102" lon="11.169358">
<ele>498.611</ele>
<time>2022-05-26T10:09:22Z</time>
</trkpt>
<trkpt lat="47.995106" lon="11.169375">
<ele>498.611</ele>
<time>2022-05-26T10:09:23Z</time>
</trkpt>
<trkpt lat="47.995113" lon="11.169392">
<ele>498.834</ele>
<time>2022-05-26T10:09:24Z</time>
</trkpt>
<trkpt lat="47.995121" lon="11.169407">
<ele>499.02</ele>
<time>2022-05-26T10:09:25Z</time>
</trkpt>
<trkpt lat="47.995129" lon="11.169426">
<ele>499.169</ele>
<time>2022-05-26T10:09:26Z</time>
</trkpt>
<trkpt lat="47.99514" lon="11.16944">
<ele>499.263</ele>
<time>2022-05-26T10:09:27Z</time>
</trkpt>
<trkpt lat="47.99514" lon="11.169449">
<ele>499.351</ele>
<time>2022-05-26T10:09:28Z</time>
</trkpt>
<trkpt lat="47.99514" lon="11.169457">
<ele>499.417</ele>
<time>2022-05-26T10:09:29Z</time>
</trkpt>
<trkpt lat="47.99514" lon="11.169459">
<ele>499.458</ele>
<time>2022-05-26T10:09:30Z</time>
</trkpt>
<trkpt lat="47.99514" lon="11.169465">
<ele>499.479</ele>
<time>2022-05-26T10:09:31Z</time>
</trkpt>
<trkpt lat="47.995178" lon="11.169478">
<ele>499.479</ele>
<time>2022-05-26T10:11:16Z</time>
</trkpt>
<trkpt lat="47.995178" lon="11.169499">
<ele>499.272</ele>
<time>2022-05-26T10:11:17Z</time>
</trkpt>
<trkpt lat="47.995182" lon="11.169525">
<ele>499.109</ele>
<time>2022-05-26T10:11:18Z</time>
</trkpt>
<trkpt lat="47.99519" lon="11.169557">
<ele>498.972</ele>
<time>2022-05-26T10:11:19Z</time>
</trkpt>
<trkpt lat="47.995201" lon="11.169597">
<ele>498.868</ele>
<time>2022-05-26T10:11:20Z</time>
</trkpt>
<trkpt lat="47.995213" lon="11.16964">
<ele>498.824</ele>
<time>2022-05-26T10:11:21Z</time>
</trkpt>
<trkpt lat="47.995235" lon="11.169682">
<ele>498.795</ele>
<time>2022-05-26T10:11:22Z</time>
</trkpt>
<trkpt lat="47.995243" lon="11.169726">
<ele>498.788</ele>
<time>2022-05-26T10:11:23Z</time>
</trkpt>
<trkpt lat="47.995255" lon="11.16976">
<ele>498.785</ele>
<time>2022-05-26T10:11:24Z</time>
</trkpt>
<trkpt lat="47.995266" lon="11.169795">
<ele>498.785</ele>
<time>2022-05-26T10:11:25Z</time>
</trkpt>
<trkpt lat="47.995274" lon="11.16983">
<ele>498.785</ele>
<time>2022-05-26T10:11:26Z</time>
</trkpt>
<trkpt lat="47.995285" lon="11.16987">
<ele>498.785</ele>
<time>2022-05-26T10:11:27Z</time>
</trkpt>
<trkpt lat="47.995296" lon="11.169909">
<ele>498.785</ele>
<time>2022-05-26T10:11:28Z</time>
</trkpt>
<trkpt lat="47.995308" lon="11.169956">
<ele>498.785</ele>
<time>2022-05-26T10:11:29Z</time>
</trkpt>
<trkpt lat="47.995319" lon="11.170004">
<ele>498.785</ele>
<time>2022-05-26T10:11:30Z</time>
</trkpt>
<trkpt lat="47.995327" lon="11.170052">
<ele>498.785</ele>
<time>2022-05-26T10:11:31Z</time>
</trkpt>
<trkpt lat="47.995335" lon="11.170103">
<ele>498.785</ele>
<time>2022-05-26T10:11:32Z</time>
</trkpt>
<trkpt lat="47.995346" lon="11.170154">
<ele>498.785</ele>
<time>2022-05-26T10:11:33Z</time>
</trkpt>
<trkpt lat="47.995354" lon="11.170198">
<ele>498.785</ele>
<time>2022-05-26T10:11:34Z</time>
</trkpt>
<trkpt lat="47.995361" lon="11.170239">
<ele>498.785</ele>
<time>2022-05-26T10:11:35Z</time>
</trkpt>
<trkpt lat="47.995369" lon="11.17028">
<ele>498.785</ele>
<time>2022-05-26T10:11:36Z</time>
</trkpt>
<trkpt lat="47.995377" lon="11.170319">
<ele>498.785</ele>
<time>2022-05-26T10:11:37Z</time>
</trkpt>
<trkpt lat="47.995384" lon="11.170355">
<ele>499.016</ele>
<time>2022-05-26T10:11:38Z</time>
</trkpt>
<trkpt lat="47.995399" lon="11.170397">
<ele>499.201</ele>
<time>2022-05-26T10:11:39Z</time>
</trkpt>
<trkpt lat="47.995411" lon="11.170444">
<ele>499.353</ele>
<time>2022-05-26T10:11:40Z</time>
</trkpt>
<trkpt lat="47.99543" lon="11.170502">
<ele>499.461</ele>
<time>2022-05-26T10:11:41Z</time>
</trkpt>
<trkpt lat="47.995445" lon="11.170553">
<ele>499.584</ele>
<time>2022-05-26T10:11:42Z</time>
</trkpt>
<trkpt lat="47.995461" lon="11.170602">
<ele>499.668</ele>
<time>2022-05-26T10:11:43Z</time>
</trkpt>
<trkpt lat="47.99548" lon="11.17065">
<ele>499.717</ele>
<time>2022-05-26T10:11:44Z</time>
</trkpt>
<trkpt lat="47.995495" lon="11.17069">
<ele>499.739</ele>
<time>2022-05-26T10:11:45Z</time>
</trkpt>
<trkpt lat="47.995502" lon="11.170729">
<ele>499.739</ele>
<time>2022-05-26T10:11:46Z</time>
</trkpt>
<trkpt lat="47.995522" lon="11.170761">
<ele>499.739</ele>
<time>2022-05-26T10:11:47Z</time>
</trkpt>
<trkpt lat="47.995529" lon="11.170788">
<ele>499.942</ele>
<time>2022-05-26T10:11:48Z</time>
</trkpt>
<trkpt lat="47.995541" lon="11.170818">
<ele>500.102</ele>
<time>2022-05-26T10:11:49Z</time>
</trkpt>
<trkpt lat="47.995548" lon="11.170845">
<ele>500.237</ele>
<time>2022-05-26T10:11:50Z</time>
</trkpt>
<trkpt lat="47.995552" lon="11.17087">
<ele>500.337</ele>
<time>2022-05-26T10:11:51Z</time>
</trkpt>
<trkpt lat="47.995556" lon="11.170893">
<ele>500.439</ele>
<time>2022-05-26T10:11:52Z</time>
</trkpt>
<trkpt lat="47.99556" lon="11.170922">
<ele>500.525</ele>
<time>2022-05-26T10:11:53Z</time>
</trkpt>
<trkpt lat="47.995567" lon="11.17094">
<ele>500.58</ele>
<time>2022-05-26T10:11:54Z</time>
</trkpt>
<trkpt lat="47.995583" lon="11.170952">
<ele>500.607</ele>
<time>2022-05-26T10:11:55Z</time>
</trkpt>
<trkpt lat="47.995598" lon="11.170954">
<ele>500.608</ele>
<time>2022-05-26T10:11:56Z</time>
</trkpt>
<trkpt lat="47.995621" lon="11.17094">
<ele>500.607</ele>
<time>2022-05-26T10:11:57Z</time>
</trkpt>
<trkpt lat="47.995632" lon="11.17093">
<ele>500.607</ele>
<time>2022-05-26T10:11:58Z</time>
</trkpt>
<trkpt lat="47.995659" lon="11.170918">
<ele>500.608</ele>
<time>2022-05-26T10:11:59Z</time>
</trkpt>
<trkpt lat="47.995678" lon="11.17091">
<ele>500.607</ele>
<time>2022-05-26T10:12:00Z</time>
</trkpt>
<trkpt lat="47.995697" lon="11.1709">
<ele>500.608</ele>
<time>2022-05-26T10:12:01Z</time>
</trkpt>
<trkpt lat="47.995728" lon="11.17089">
<ele>500.607</ele>
<time>2022-05-26T10:12:02Z</time>
</trkpt>
<trkpt lat="47.995758" lon="11.17088">
<ele>500.607</ele>
<time>2022-05-26T10:12:03Z</time>
</trkpt>
<trkpt lat="47.995792" lon="11.170868">
<ele>500.607</ele>
<time>2022-05-26T10:12:04Z</time>
</trkpt>
<trkpt lat="47.995831" lon="11.170855">
<ele>500.608</ele>
<time>2022-05-26T10:12:05Z</time>
</trkpt>
<trkpt lat="47.995869" lon="11.170843">
<ele>500.607</ele>
<time>2022-05-26T10:12:06Z</time>
</trkpt>
<trkpt lat="47.995903" lon="11.170832">
<ele>500.607</ele>
<time>2022-05-26T10:12:07Z</time>
</trkpt>
<trkpt lat="47.995937" lon="11.170815">
<ele>500.607</ele>
<time>2022-05-26T10:12:08Z</time>
</trkpt>
<trkpt lat="47.995968" lon="11.170811">
<ele>500.607</ele>
<time>2022-05-26T10:12:09Z</time>
</trkpt>
<trkpt lat="47.996002" lon="11.170803">
<ele>500.607</ele>
<time>2022-05-26T10:12:10Z</time>
</trkpt>
<trkpt lat="47.996037" lon="11.170796">
<ele>500.607</ele>
<time>2022-05-26T10:12:11Z</time>
</trkpt>
<trkpt lat="47.996071" lon="11.170786">
<ele>500.607</ele>
<time>2022-05-26T10:12:12Z</time>
</trkpt>
<trkpt lat="47.996113" lon="11.170785">
<ele>500.608</ele>
<time>2022-05-26T10:12:13Z</time>
</trkpt>
<trkpt lat="47.996151" lon="11.17078">
<ele>500.607</ele>
<time>2022-05-26T10:12:14Z</time>
</trkpt>
<trkpt lat="47.996181" lon="11.170769">
<ele>500.607</ele>
<time>2022-05-26T10:12:15Z</time>
</trkpt>
<trkpt lat="47.99622" lon="11.170761">
<ele>500.608</ele>
<time>2022-05-26T10:12:16Z</time>
</trkpt>
<trkpt lat="47.996262" lon="11.170756">
<ele>500.607</ele>
<time>2022-05-26T10:12:17Z</time>
</trkpt>
<trkpt lat="47.996296" lon="11.170752">
<ele>500.607</ele>
<time>2022-05-26T10:12:18Z</time>
</trkpt>
<trkpt lat="47.996326" lon="11.170748">
<ele>500.607</ele>
<time>2022-05-26T10:12:19Z</time>
</trkpt>
<trkpt lat="47.996365" lon="11.170742">
<ele>500.835</ele>
<time>2022-05-26T10:12:20Z</time>
</trkpt>
<trkpt lat="47.996395" lon="11.170738">
<ele>500.996</ele>
<time>2022-05-26T10:12:21Z</time>
</trkpt>
<trkpt lat="47.996429" lon="11.170732">
<ele>501.164</ele>
<time>2022-05-26T10:12:22Z</time>
</trkpt>
<trkpt lat="47.996464" lon="11.170725">
<ele>501.304</ele>
<time>2022-05-26T10:12:23Z</time>
</trkpt>
<trkpt lat="47.996502" lon="11.17072">
<ele>501.405</ele>
<time>2022-05-26T10:12:24Z</time>
</trkpt>
<trkpt lat="47.996532" lon="11.170712">
<ele>501.484</ele>
<time>2022-05-26T10:12:25Z</time>
</trkpt>
<trkpt lat="47.996567" lon="11.170709">
<ele>501.538</ele>
<time>2022-05-26T10:12:26Z</time>
</trkpt>
<trkpt lat="47.996605" lon="11.170704">
<ele>501.562</ele>
<time>2022-05-26T10:12:27Z</time>
</trkpt>
<trkpt lat="47.996639" lon="11.1707">
<ele>501.562</ele>
<time>2022-05-26T10:12:28Z</time>
</trkpt>
<trkpt lat="47.99667" lon="11.170696">
<ele>501.562</ele>
<time>2022-05-26T10:12:29Z</time>
</trkpt>
<trkpt lat="47.9967" lon="11.170693">
<ele>501.562</ele>
<time>2022-05-26T10:12:30Z</time>
</trkpt>
<trkpt lat="47.996738" lon="11.170693">
<ele>501.562</ele>
<time>2022-05-26T10:12:31Z</time>
</trkpt>
<trkpt lat="47.996777" lon="11.170696">
<ele>501.562</ele>
<time>2022-05-26T10:12:32Z</time>
</trkpt>
<trkpt lat="47.996811" lon="11.1707">
<ele>501.562</ele>
<time>2022-05-26T10:12:33Z</time>
</trkpt>
<trkpt lat="47.996849" lon="11.170704">
<ele>501.562</ele>
<time>2022-05-26T10:12:34Z</time>
</trkpt>
<trkpt lat="47.996887" lon="11.170705">
<ele>501.562</ele>
<time>2022-05-26T10:12:35Z</time>
</trkpt>
<trkpt lat="47.996929" lon="11.170707">
<ele>501.562</ele>
<time>2022-05-26T10:12:36Z</time>
</trkpt>
<trkpt lat="47.996964" lon="11.170712">
<ele>501.562</ele>
<time>2022-05-26T10:12:37Z</time>
</trkpt>
<trkpt lat="47.996998" lon="11.170716">
<ele>501.562</ele>
<time>2022-05-26T10:12:38Z</time>
</trkpt>
<trkpt lat="47.997032" lon="11.17072">
<ele>501.82</ele>
<time>2022-05-26T10:12:39Z</time>
</trkpt>
<trkpt lat="47.99707" lon="11.170721">
<ele>502.025</ele>
<time>2022-05-26T10:12:40Z</time>
</trkpt>
<trkpt lat="47.997097" lon="11.170725">
<ele>502.17</ele>
<time>2022-05-26T10:12:41Z</time>
</trkpt>
<trkpt lat="47.997131" lon="11.17073">
<ele>502.318</ele>
<time>2022-05-26T10:12:42Z</time>
</trkpt>
<trkpt lat="47.997162" lon="11.170737">
<ele>502.431</ele>
<time>2022-05-26T10:12:43Z</time>
</trkpt>
<trkpt lat="47.997192" lon="11.170744">
<ele>502.517</ele>
<time>2022-05-26T10:12:44Z</time>
</trkpt>
<trkpt lat="47.997223" lon="11.170752">
<ele>502.574</ele>
<time>2022-05-26T10:12:45Z</time>
</trkpt>
<trkpt lat="47.997257" lon="11.170767">
<ele>502.829</ele>
<time>2022-05-26T10:12:46Z</time>
</trkpt>
<trkpt lat="47.997292" lon="11.170783">
<ele>503.059</ele>
<time>2022-05-26T10:12:47Z</time>
</trkpt>
<trkpt lat="47.99733" lon="11.170792">
<ele>503.218</ele>
<time>2022-05-26T10:12:48Z</time>
</trkpt>
<trkpt lat="47.997372" lon="11.1708">
<ele>503.341</ele>
<time>2022-05-26T10:12:49Z</time>
</trkpt>
<trkpt lat="47.997414" lon="11.170805">
<ele>503.425</ele>
<time>2022-05-26T10:12:50Z</time>
</trkpt>
<trkpt lat="47.997448" lon="11.170811">
<ele>503.485</ele>
<time>2022-05-26T10:12:51Z</time>
</trkpt>
<trkpt lat="47.997486" lon="11.170817">
<ele>503.761</ele>
<time>2022-05-26T10:12:52Z</time>
</trkpt>
<trkpt lat="47.997532" lon="11.170823">
<ele>503.961</ele>
<time>2022-05-26T10:12:53Z</time>
</trkpt>
<trkpt lat="47.997578" lon="11.170828">
<ele>504.1</ele>
<time>2022-05-26T10:12:54Z</time>
</trkpt>
<trkpt lat="47.997623" lon="11.170836">
<ele>504.213</ele>
<time>2022-05-26T10:12:55Z</time>
</trkpt>
<trkpt lat="47.997669" lon="11.170849">
<ele>504.304</ele>
<time>2022-05-26T10:12:56Z</time>
</trkpt>
<trkpt lat="47.997715" lon="11.170865">
<ele>504.367</ele>
<time>2022-05-26T10:12:57Z</time>
</trkpt>
<trkpt lat="47.997753" lon="11.170877">
<ele>504.408</ele>
<time>2022-05-26T10:12:58Z</time>
</trkpt>
<trkpt lat="47.997799" lon="11.170895">
<ele>504.427</ele>
<time>2022-05-26T10:12:59Z</time>
</trkpt>
<trkpt lat="47.997849" lon="11.17091">
<ele>504.427</ele>
<time>2022-05-26T10:13:00Z</time>
</trkpt>
<trkpt lat="47.997894" lon="11.170924">
<ele>504.427</ele>
<time>2022-05-26T10:13:01Z</time>
</trkpt>
<trkpt lat="47.99794" lon="11.170937">
<ele>504.427</ele>
<time>2022-05-26T10:13:02Z</time>
</trkpt>
<trkpt lat="47.997986" lon="11.170941">
<ele>504.427</ele>
<time>2022-05-26T10:13:03Z</time>
</trkpt>
<trkpt lat="47.998039" lon="11.170947">
<ele>504.427</ele>
<time>2022-05-26T10:13:04Z</time>
</trkpt>
<trkpt lat="47.998077" lon="11.170949">
<ele>504.427</ele>
<time>2022-05-26T10:13:05Z</time>
</trkpt>
<trkpt lat="47.998123" lon="11.17095">
<ele>504.427</ele>
<time>2022-05-26T10:13:06Z</time>
</trkpt>
<trkpt lat="47.998169" lon="11.170954">
<ele>504.427</ele>
<time>2022-05-26T10:13:07Z</time>
</trkpt>
<trkpt lat="47.998207" lon="11.170957">
<ele>504.427</ele>
<time>2022-05-26T10:13:08Z</time>
</trkpt>
<trkpt lat="47.998249" lon="11.170957">
<ele>504.427</ele>
<time>2022-05-26T10:13:09Z</time>
</trkpt>
<trkpt lat="47.998287" lon="11.170954">
<ele>504.427</ele>
<time>2022-05-26T10:13:10Z</time>
</trkpt>
<trkpt lat="47.998329" lon="11.170952">
<ele>504.427</ele>
<time>2022-05-26T10:13:11Z</time>
</trkpt>
<trkpt lat="47.998363" lon="11.170956">
<ele>504.225</ele>
<time>2022-05-26T10:13:12Z</time>
</trkpt>
<trkpt lat="47.998398" lon="11.170963">
<ele>504.049</ele>
<time>2022-05-26T10:13:13Z</time>
</trkpt>
<trkpt lat="47.998428" lon="11.170975">
<ele>503.908</ele>
<time>2022-05-26T10:13:14Z</time>
</trkpt>
<trkpt lat="47.998463" lon="11.17098">
<ele>503.792</ele>
<time>2022-05-26T10:13:15Z</time>
</trkpt>
<trkpt lat="47.998493" lon="11.170979">
<ele>503.697</ele>
<time>2022-05-26T10:13:16Z</time>
</trkpt>
<trkpt lat="47.998528" lon="11.17097">
<ele>503.626</ele>
<time>2022-05-26T10:13:17Z</time>
</trkpt>
<trkpt lat="47.998562" lon="11.170957">
<ele>503.581</ele>
<time>2022-05-26T10:13:18Z</time>
</trkpt>
<trkpt lat="47.998596" lon="11.170945">
<ele>503.559</ele>
<time>2022-05-26T10:13:19Z</time>
</trkpt>
<trkpt lat="47.998638" lon="11.17093">
<ele>503.559</ele>
<time>2022-05-26T10:13:20Z</time>
</trkpt>
<trkpt lat="47.998684" lon="11.170922">
<ele>503.559</ele>
<time>2022-05-26T10:13:21Z</time>
</trkpt>
<trkpt lat="47.998726" lon="11.170923">
<ele>503.559</ele>
<time>2022-05-26T10:13:22Z</time>
</trkpt>
<trkpt lat="47.998768" lon="11.170926">
<ele>503.559</ele>
<time>2022-05-26T10:13:23Z</time>
</trkpt>
<trkpt lat="47.99881" lon="11.17094">
<ele>503.559</ele>
<time>2022-05-26T10:13:24Z</time>
</trkpt>
<trkpt lat="47.998848" lon="11.170963">
<ele>503.559</ele>
<time>2022-05-26T10:13:25Z</time>
</trkpt>
<trkpt lat="47.998878" lon="11.171">
<ele>503.559</ele>
<time>2022-05-26T10:13:26Z</time>
</trkpt>
<trkpt lat="47.998905" lon="11.17105">
<ele>503.559</ele>
<time>2022-05-26T10:13:27Z</time>
</trkpt>
<trkpt lat="47.99894" lon="11.171102">
<ele>503.559</ele>
<time>2022-05-26T10:13:28Z</time>
</trkpt>
<trkpt lat="47.998978" lon="11.171148">
<ele>503.559</ele>
<time>2022-05-26T10:13:29Z</time>
</trkpt>
<trkpt lat="47.999023" lon="11.171186">
<ele>503.558</ele>
<time>2022-05-26T10:13:30Z</time>
</trkpt>
<trkpt lat="47.999077" lon="11.171218">
<ele>503.559</ele>
<time>2022-05-26T10:13:31Z</time>
</trkpt>
<trkpt lat="47.999126" lon="11.171238">
<ele>503.559</ele>
<time>2022-05-26T10:13:32Z</time>
</trkpt>
<trkpt lat="47.99918" lon="11.171251">
<ele>503.559</ele>
<time>2022-05-26T10:13:33Z</time>
</trkpt>
<trkpt lat="47.999241" lon="11.171266">
<ele>503.558</ele>
<time>2022-05-26T10:13:34Z</time>
</trkpt>
<trkpt lat="47.999298" lon="11.17128">
<ele>503.559</ele>
<time>2022-05-26T10:13:35Z</time>
</trkpt>
<trkpt lat="47.999348" lon="11.171293">
<ele>503.559</ele>
<time>2022-05-26T10:13:36Z</time>
</trkpt>
<trkpt lat="47.999405" lon="11.171308">
<ele>503.559</ele>
<time>2022-05-26T10:13:37Z</time>
</trkpt>
<trkpt lat="47.999458" lon="11.17132">
<ele>503.559</ele>
<time>2022-05-26T10:13:38Z</time>
</trkpt>
<trkpt lat="47.999516" lon="11.17133">
<ele>503.559</ele>
<time>2022-05-26T10:13:39Z</time>
</trkpt>
<trkpt lat="47.999573" lon="11.171339">
<ele>503.559</ele>
<time>2022-05-26T10:13:40Z</time>
</trkpt>
<trkpt lat="47.999634" lon="11.171349">
<ele>503.307</ele>
<time>2022-05-26T10:13:41Z</time>
</trkpt>
<trkpt lat="47.999683" lon="11.171358">
<ele>503.07</ele>
<time>2022-05-26T10:13:42Z</time>
</trkpt>
<trkpt lat="47.999741" lon="11.171369">
<ele>503.08</ele>
<time>2022-05-26T10:13:43Z</time>
</trkpt>
<trkpt lat="47.99979" lon="11.17138">
<ele>503.094</ele>
<time>2022-05-26T10:13:44Z</time>
</trkpt>
<trkpt lat="47.999836" lon="11.171393">
<ele>503.117</ele>
<time>2022-05-26T10:13:45Z</time>
</trkpt>
<trkpt lat="47.999882" lon="11.171407">
<ele>503.144</ele>
<time>2022-05-26T10:13:46Z</time>
</trkpt>
<trkpt lat="47.999928" lon="11.171414">
<ele>503.175</ele>
<time>2022-05-26T10:13:47Z</time>
</trkpt>
<trkpt lat="47.999966" lon="11.171425">
<ele>503.212</ele>
<time>2022-05-26T10:13:48Z</time>
</trkpt>
<trkpt lat="48.000011" lon="11.171435">
<ele>503.253</ele>
<time>2022-05-26T10:13:49Z</time>
</trkpt>
<trkpt lat="48.000061" lon="11.171444">
<ele>503.277</ele>
<time>2022-05-26T10:13:50Z</time>
</trkpt>
<trkpt lat="48.000103" lon="11.171453">
<ele>503.298</ele>
<time>2022-05-26T10:13:51Z</time>
</trkpt>
<trkpt lat="48.000153" lon="11.171469">
<ele>503.298</ele>
<time>2022-05-26T10:13:52Z</time>
</trkpt>
<trkpt lat="48.000198" lon="11.171481">
<ele>503.298</ele>
<time>2022-05-26T10:13:53Z</time>
</trkpt>
<trkpt lat="48.000248" lon="11.171492">
<ele>503.298</ele>
<time>2022-05-26T10:13:54Z</time>
</trkpt>
<trkpt lat="48.00029" lon="11.171503">
<ele>503.298</ele>
<time>2022-05-26T10:13:55Z</time>
</trkpt>
<trkpt lat="48.000336" lon="11.171514">
<ele>503.298</ele>
<time>2022-05-26T10:13:56Z</time>
</trkpt>
<trkpt lat="48.000381" lon="11.171523">
<ele>503.298</ele>
<time>2022-05-26T10:13:57Z</time>
</trkpt>
<trkpt lat="48.000423" lon="11.171534">
<ele>503.298</ele>
<time>2022-05-26T10:13:58Z</time>
</trkpt>
<trkpt lat="48.000473" lon="11.171542">
<ele>503.298</ele>
<time>2022-05-26T10:13:59Z</time>
</trkpt>
<trkpt lat="48.000519" lon="11.17155">
<ele>503.299</ele>
<time>2022-05-26T10:14:00Z</time>
</trkpt>
<trkpt lat="48.000568" lon="11.17156">
<ele>503.298</ele>
<time>2022-05-26T10:14:01Z</time>
</trkpt>
<trkpt lat="48.000614" lon="11.171572">
<ele>503.298</ele>
<time>2022-05-26T10:14:02Z</time>
</trkpt>
<trkpt lat="48.000664" lon="11.171585">
<ele>503.298</ele>
<time>2022-05-26T10:14:03Z</time>
</trkpt>
<trkpt lat="48.000713" lon="11.171597">
<ele>503.299</ele>
<time>2022-05-26T10:14:04Z</time>
</trkpt>
<trkpt lat="48.000763" lon="11.171609">
<ele>503.298</ele>
<time>2022-05-26T10:14:05Z</time>
</trkpt>
<trkpt lat="48.000809" lon="11.171618">
<ele>503.298</ele>
<time>2022-05-26T10:14:06Z</time>
</trkpt>
<trkpt lat="48.000851" lon="11.171626">
<ele>503.298</ele>
<time>2022-05-26T10:14:07Z</time>
</trkpt>
<trkpt lat="48.000896" lon="11.171634">
<ele>503.298</ele>
<time>2022-05-26T10:14:08Z</time>
</trkpt>
<trkpt lat="48.000942" lon="11.17164">
<ele>503.298</ele>
<time>2022-05-26T10:14:09Z</time>
</trkpt>
<trkpt lat="48.00098" lon="11.17165">
<ele>503.298</ele>
<time>2022-05-26T10:14:10Z</time>
</trkpt>
<trkpt lat="48.001019" lon="11.171659">
<ele>503.298</ele>
<time>2022-05-26T10:14:11Z</time>
</trkpt>
<trkpt lat="48.001057" lon="11.17167">
<ele>503.298</ele>
<time>2022-05-26T10:14:12Z</time>
</trkpt>
<trkpt lat="48.001083" lon="11.171682">
<ele>503.298</ele>
<time>2022-05-26T10:14:13Z</time>
</trkpt>
<trkpt lat="48.001114" lon="11.171688">
<ele>503.298</ele>
<time>2022-05-26T10:14:14Z</time>
</trkpt>
<trkpt lat="48.001144" lon="11.171697">
<ele>503.298</ele>
<time>2022-05-26T10:14:15Z</time>
</trkpt>
<trkpt lat="48.001171" lon="11.171708">
<ele>503.082</ele>
<time>2022-05-26T10:14:16Z</time>
</trkpt>
<trkpt lat="48.001194" lon="11.171715">
<ele>502.905</ele>
<time>2022-05-26T10:14:17Z</time>
</trkpt>
<trkpt lat="48.001213" lon="11.171721">
<ele>502.764</ele>
<time>2022-05-26T10:14:18Z</time>
</trkpt>
<trkpt lat="48.001232" lon="11.171723">
<ele>502.66</ele>
<time>2022-05-26T10:14:19Z</time>
</trkpt>
<trkpt lat="48.001247" lon="11.171723">
<ele>502.579</ele>
<time>2022-05-26T10:14:20Z</time>
</trkpt>
<trkpt lat="48.001263" lon="11.171721">
<ele>502.511</ele>
<time>2022-05-26T10:14:21Z</time>
</trkpt>
<trkpt lat="48.00127" lon="11.171715">
<ele>502.458</ele>
<time>2022-05-26T10:14:22Z</time>
</trkpt>
<trkpt lat="48.001274" lon="11.171714">
<ele>502.43</ele>
<time>2022-05-26T10:14:23Z</time>
</trkpt>
<trkpt lat="48.001278" lon="11.17171">
<ele>502.43</ele>
<time>2022-05-26T10:14:24Z</time>
</trkpt>
<trkpt lat="48.001282" lon="11.171707">
<ele>502.43</ele>
<time>2022-05-26T10:14:25Z</time>
</trkpt>
<trkpt lat="48.001301" lon="11.171719">
<ele>502.43</ele>
<time>2022-05-26T10:14:34Z</time>
</trkpt>
<trkpt lat="48.001316" lon="11.171717">
<ele>502.43</ele>
<time>2022-05-26T10:14:35Z</time>
</trkpt>
<trkpt lat="48.001335" lon="11.171714">
<ele>502.43</ele>
<time>2022-05-26T10:14:36Z</time>
</trkpt>
<trkpt lat="48.001362" lon="11.171701">
<ele>502.43</ele>
<time>2022-05-26T10:14:37Z</time>
</trkpt>
<trkpt lat="48.001389" lon="11.171683">
<ele>502.43</ele>
<time>2022-05-26T10:14:38Z</time>
</trkpt>
<trkpt lat="48.001408" lon="11.171659">
<ele>502.43</ele>
<time>2022-05-26T10:14:39Z</time>
</trkpt>
<trkpt lat="48.001423" lon="11.171621">
<ele>502.43</ele>
<time>2022-05-26T10:14:40Z</time>
</trkpt>
<trkpt lat="48.001434" lon="11.171582">
<ele>502.43</ele>
<time>2022-05-26T10:14:41Z</time>
</trkpt>
<trkpt lat="48.001457" lon="11.171544">
<ele>502.43</ele>
<time>2022-05-26T10:14:42Z</time>
</trkpt>
<trkpt lat="48.001476" lon="11.171507">
<ele>502.43</ele>
<time>2022-05-26T10:14:43Z</time>
</trkpt>
<trkpt lat="48.001507" lon="11.171477">
<ele>502.43</ele>
<time>2022-05-26T10:14:44Z</time>
</trkpt>
<trkpt lat="48.001541" lon="11.171463">
<ele>502.43</ele>
<time>2022-05-26T10:14:45Z</time>
</trkpt>
<trkpt lat="48.001579" lon="11.171463">
<ele>502.43</ele>
<time>2022-05-26T10:14:46Z</time>
</trkpt>
<trkpt lat="48.001625" lon="11.171472">
<ele>502.43</ele>
<time>2022-05-26T10:14:47Z</time>
</trkpt>
<trkpt lat="48.001678" lon="11.171479">
<ele>502.17</ele>
<time>2022-05-26T10:14:48Z</time>
</trkpt>
<trkpt lat="48.001724" lon="11.171485">
<ele>502.003</ele>
<time>2022-05-26T10:14:49Z</time>
</trkpt>
<trkpt lat="48.001762" lon="11.171492">
<ele>501.83</ele>
<time>2022-05-26T10:14:50Z</time>
</trkpt>
<trkpt lat="48.001808" lon="11.171495">
<ele>501.7</ele>
<time>2022-05-26T10:14:51Z</time>
</trkpt>
<trkpt lat="48.001846" lon="11.171496">
<ele>501.605</ele>
<time>2022-05-26T10:14:52Z</time>
</trkpt>
<trkpt lat="48.001888" lon="11.171502">
<ele>501.537</ele>
<time>2022-05-26T10:14:53Z</time>
</trkpt>
<trkpt lat="48.001926" lon="11.171507">
<ele>501.495</ele>
<time>2022-05-26T10:14:54Z</time>
</trkpt>
<trkpt lat="48.001965" lon="11.171511">
<ele>501.475</ele>
<time>2022-05-26T10:14:55Z</time>
</trkpt>
<trkpt lat="48.001999" lon="11.171516">
<ele>501.475</ele>
<time>2022-05-26T10:14:56Z</time>
</trkpt>
<trkpt lat="48.002037" lon="11.171523">
<ele>501.475</ele>
<time>2022-05-26T10:14:57Z</time>
</trkpt>
<trkpt lat="48.002075" lon="11.171528">
<ele>501.475</ele>
<time>2022-05-26T10:14:58Z</time>
</trkpt>
<trkpt lat="48.002106" lon="11.171534">
<ele>501.475</ele>
<time>2022-05-26T10:14:59Z</time>
</trkpt>
<trkpt lat="48.002144" lon="11.171538">
<ele>501.475</ele>
<time>2022-05-26T10:15:00Z</time>
</trkpt>
<trkpt lat="48.002182" lon="11.171547">
<ele>501.475</ele>
<time>2022-05-26T10:15:01Z</time>
</trkpt>
<trkpt lat="48.00222" lon="11.171555">
<ele>501.475</ele>
<time>2022-05-26T10:15:02Z</time>
</trkpt>
<trkpt lat="48.002258" lon="11.171558">
<ele>501.475</ele>
<time>2022-05-26T10:15:03Z</time>
</trkpt>
<trkpt lat="48.002296" lon="11.171563">
<ele>501.475</ele>
<time>2022-05-26T10:15:04Z</time>
</trkpt>
<trkpt lat="48.002338" lon="11.171572">
<ele>501.475</ele>
<time>2022-05-26T10:15:05Z</time>
</trkpt>
<trkpt lat="48.00238" lon="11.17158">
<ele>501.475</ele>
<time>2022-05-26T10:15:06Z</time>
</trkpt>
<trkpt lat="48.002426" lon="11.171592">
<ele>501.475</ele>
<time>2022-05-26T10:15:07Z</time>
</trkpt>
<trkpt lat="48.002472" lon="11.171598">
<ele>501.475</ele>
<time>2022-05-26T10:15:08Z</time>
</trkpt>
<trkpt lat="48.002514" lon="11.171607">
<ele>501.475</ele>
<time>2022-05-26T10:15:09Z</time>
</trkpt>
<trkpt lat="48.00256" lon="11.171616">
<ele>501.475</ele>
<time>2022-05-26T10:15:10Z</time>
</trkpt>
<trkpt lat="48.002605" lon="11.171623">
<ele>501.475</ele>
<time>2022-05-26T10:15:11Z</time>
</trkpt>
<trkpt lat="48.002647" lon="11.171632">
<ele>501.475</ele>
<time>2022-05-26T10:15:12Z</time>
</trkpt>
<trkpt lat="48.002689" lon="11.171643">
<ele>501.475</ele>
<time>2022-05-26T10:15:13Z</time>
</trkpt>
<trkpt lat="48.002735" lon="11.171657">
<ele>501.475</ele>
<time>2022-05-26T10:15:14Z</time>
</trkpt>
<trkpt lat="48.002777" lon="11.171668">
<ele>501.475</ele>
<time>2022-05-26T10:15:15Z</time>
</trkpt>
<trkpt lat="48.002819" lon="11.171677">
<ele>501.475</ele>
<time>2022-05-26T10:15:16Z</time>
</trkpt>
<trkpt lat="48.002865" lon="11.171685">
<ele>501.475</ele>
<time>2022-05-26T10:15:17Z</time>
</trkpt>
<trkpt lat="48.002911" lon="11.171695">
<ele>501.475</ele>
<time>2022-05-26T10:15:18Z</time>
</trkpt>
<trkpt lat="48.002956" lon="11.171707">
<ele>501.475</ele>
<time>2022-05-26T10:15:19Z</time>
</trkpt>
<trkpt lat="48.002998" lon="11.171719">
<ele>501.475</ele>
<time>2022-05-26T10:15:20Z</time>
</trkpt>
<trkpt lat="48.003044" lon="11.171731">
<ele>501.475</ele>
<time>2022-05-26T10:15:21Z</time>
</trkpt>
<trkpt lat="48.00309" lon="11.171743">
<ele>501.475</ele>
<time>2022-05-26T10:15:22Z</time>
</trkpt>
<trkpt lat="48.003132" lon="11.171756">
<ele>501.475</ele>
<time>2022-05-26T10:15:23Z</time>
</trkpt>
<trkpt lat="48.003178" lon="11.171768">
<ele>501.475</ele>
<time>2022-05-26T10:15:24Z</time>
</trkpt>
<trkpt lat="48.00322" lon="11.171779">
<ele>501.475</ele>
<time>2022-05-26T10:15:25Z</time>
</trkpt>
<trkpt lat="48.003265" lon="11.17179">
<ele>501.475</ele>
<time>2022-05-26T10:15:26Z</time>
</trkpt>
<trkpt lat="48.003311" lon="11.171803">
<ele>501.475</ele>
<time>2022-05-26T10:15:27Z</time>
</trkpt>
<trkpt lat="48.003357" lon="11.171813">
<ele>501.475</ele>
<time>2022-05-26T10:15:28Z</time>
</trkpt>
<trkpt lat="48.003403" lon="11.171822">
<ele>501.475</ele>
<time>2022-05-26T10:15:29Z</time>
</trkpt>
<trkpt lat="48.003448" lon="11.171828">
<ele>501.475</ele>
<time>2022-05-26T10:15:30Z</time>
</trkpt>
<trkpt lat="48.00349" lon="11.171835">
<ele>501.475</ele>
<time>2022-05-26T10:15:31Z</time>
</trkpt>
<trkpt lat="48.003532" lon="11.171842">
<ele>501.475</ele>
<time>2022-05-26T10:15:32Z</time>
</trkpt>
<trkpt lat="48.003574" lon="11.171848">
<ele>501.475</ele>
<time>2022-05-26T10:15:33Z</time>
</trkpt>
<trkpt lat="48.00362" lon="11.171854">
<ele>501.475</ele>
<time>2022-05-26T10:15:34Z</time>
</trkpt>
<trkpt lat="48.00367" lon="11.171857">
<ele>501.475</ele>
<time>2022-05-26T10:15:35Z</time>
</trkpt>
<trkpt lat="48.003712" lon="11.171859">
<ele>501.475</ele>
<time>2022-05-26T10:15:36Z</time>
</trkpt>
<trkpt lat="48.003754" lon="11.171865">
<ele>501.475</ele>
<time>2022-05-26T10:15:37Z</time>
</trkpt>
<trkpt lat="48.003792" lon="11.171871">
<ele>501.475</ele>
<time>2022-05-26T10:15:38Z</time>
</trkpt>
<trkpt lat="48.003826" lon="11.171882">
<ele>501.475</ele>
<time>2022-05-26T10:15:39Z</time>
</trkpt>
<trkpt lat="48.003864" lon="11.171888">
<ele>501.475</ele>
<time>2022-05-26T10:15:40Z</time>
</trkpt>
<trkpt lat="48.003902" lon="11.171896">
<ele>501.475</ele>
<time>2022-05-26T10:15:41Z</time>
</trkpt>
<trkpt lat="48.003941" lon="11.171906">
<ele>501.475</ele>
<time>2022-05-26T10:15:42Z</time>
</trkpt>
<trkpt lat="48.003975" lon="11.171919">
<ele>501.475</ele>
<time>2022-05-26T10:15:43Z</time>
</trkpt>
<trkpt lat="48.004017" lon="11.171927">
<ele>501.475</ele>
<time>2022-05-26T10:15:44Z</time>
</trkpt>
<trkpt lat="48.004055" lon="11.171938">
<ele>501.475</ele>
<time>2022-05-26T10:15:45Z</time>
</trkpt>
<trkpt lat="48.004101" lon="11.171951">
<ele>501.475</ele>
<time>2022-05-26T10:15:46Z</time>
</trkpt>
<trkpt lat="48.004135" lon="11.171967">
<ele>501.475</ele>
<time>2022-05-26T10:15:47Z</time>
</trkpt>
<trkpt lat="48.004181" lon="11.171982">
<ele>501.475</ele>
<time>2022-05-26T10:15:48Z</time>
</trkpt>
<trkpt lat="48.00423" lon="11.172">
<ele>501.475</ele>
<time>2022-05-26T10:15:49Z</time>
</trkpt>
<trkpt lat="48.004276" lon="11.172018">
<ele>501.23</ele>
<time>2022-05-26T10:15:50Z</time>
</trkpt>
<trkpt lat="48.004333" lon="11.172038">
<ele>501.027</ele>
<time>2022-05-26T10:15:51Z</time>
</trkpt>
<trkpt lat="48.004383" lon="11.172053">
<ele>500.867</ele>
<time>2022-05-26T10:15:52Z</time>
</trkpt>
<trkpt lat="48.004436" lon="11.172067">
<ele>500.74</ele>
<time>2022-05-26T10:15:53Z</time>
</trkpt>
<trkpt lat="48.004494" lon="11.17208">
<ele>500.646</ele>
<time>2022-05-26T10:15:54Z</time>
</trkpt>
<trkpt lat="48.004551" lon="11.172091">
<ele>500.579</ele>
<time>2022-05-26T10:15:55Z</time>
</trkpt>
<trkpt lat="48.004608" lon="11.172106">
<ele>500.54</ele>
<time>2022-05-26T10:15:56Z</time>
</trkpt>
<trkpt lat="48.004658" lon="11.172114">
<ele>500.521</ele>
<time>2022-05-26T10:15:57Z</time>
</trkpt>
<trkpt lat="48.004715" lon="11.172127">
<ele>500.286</ele>
<time>2022-05-26T10:15:58Z</time>
</trkpt>
<trkpt lat="48.004765" lon="11.172141">
<ele>500.122</ele>
<time>2022-05-26T10:15:59Z</time>
</trkpt>
<trkpt lat="48.004818" lon="11.172155">
<ele>499.955</ele>
<time>2022-05-26T10:16:00Z</time>
</trkpt>
<trkpt lat="48.004864" lon="11.172169">
<ele>499.822</ele>
<time>2022-05-26T10:16:01Z</time>
</trkpt>
<trkpt lat="48.004913" lon="11.17218">
<ele>499.718</ele>
<time>2022-05-26T10:16:02Z</time>
</trkpt>
<trkpt lat="48.004963" lon="11.172194">
<ele>499.641</ele>
<time>2022-05-26T10:16:03Z</time>
</trkpt>
<trkpt lat="48.005016" lon="11.172209">
<ele>499.591</ele>
<time>2022-05-26T10:16:04Z</time>
</trkpt>
<trkpt lat="48.005062" lon="11.172221">
<ele>499.566</ele>
<time>2022-05-26T10:16:05Z</time>
</trkpt>
<trkpt lat="48.005116" lon="11.172235">
<ele>499.566</ele>
<time>2022-05-26T10:16:06Z</time>
</trkpt>
<trkpt lat="48.005157" lon="11.17225">
<ele>499.566</ele>
<time>2022-05-26T10:16:07Z</time>
</trkpt>
<trkpt lat="48.005199" lon="11.172265">
<ele>499.566</ele>
<time>2022-05-26T10:16:08Z</time>
</trkpt>
<trkpt lat="48.005241" lon="11.172276">
<ele>499.566</ele>
<time>2022-05-26T10:16:09Z</time>
</trkpt>
<trkpt lat="48.005283" lon="11.172288">
<ele>499.566</ele>
<time>2022-05-26T10:16:10Z</time>
</trkpt>
<trkpt lat="48.005329" lon="11.172298">
<ele>499.566</ele>
<time>2022-05-26T10:16:11Z</time>
</trkpt>
<trkpt lat="48.005379" lon="11.172309">
<ele>499.566</ele>
<time>2022-05-26T10:16:12Z</time>
</trkpt>
<trkpt lat="48.005436" lon="11.172309">
<ele>499.566</ele>
<time>2022-05-26T10:16:13Z</time>
</trkpt>
<trkpt lat="48.005489" lon="11.172305">
<ele>499.566</ele>
<time>2022-05-26T10:16:14Z</time>
</trkpt>
<trkpt lat="48.005547" lon="11.172295">
<ele>499.566</ele>
<time>2022-05-26T10:16:15Z</time>
</trkpt>
<trkpt lat="48.0056" lon="11.172283">
<ele>499.566</ele>
<time>2022-05-26T10:16:16Z</time>
</trkpt>
<trkpt lat="48.005653" lon="11.172274">
<ele>499.566</ele>
<time>2022-05-26T10:16:17Z</time>
</trkpt>
<trkpt lat="48.005703" lon="11.172272">
<ele>499.566</ele>
<time>2022-05-26T10:16:18Z</time>
</trkpt>
<trkpt lat="48.005741" lon="11.172274">
<ele>499.566</ele>
<time>2022-05-26T10:16:19Z</time>
</trkpt>
<trkpt lat="48.005791" lon="11.172278">
<ele>499.79</ele>
<time>2022-05-26T10:16:20Z</time>
</trkpt>
<trkpt lat="48.005833" lon="11.172288">
<ele>499.977</ele>
<time>2022-05-26T10:16:21Z</time>
</trkpt>
<trkpt lat="48.005871" lon="11.172303">
<ele>500.133</ele>
<time>2022-05-26T10:16:22Z</time>
</trkpt>
<trkpt lat="48.00592" lon="11.172318">
<ele>500.263</ele>
<time>2022-05-26T10:16:23Z</time>
</trkpt>
<trkpt lat="48.005978" lon="11.172335">
<ele>500.37</ele>
<time>2022-05-26T10:16:24Z</time>
</trkpt>
<trkpt lat="48.006027" lon="11.17235">
<ele>500.446</ele>
<time>2022-05-26T10:16:25Z</time>
</trkpt>
<trkpt lat="48.006077" lon="11.172359">
<ele>500.497</ele>
<time>2022-05-26T10:16:26Z</time>
</trkpt>
<trkpt lat="48.00613" lon="11.172363">
<ele>500.521</ele>
<time>2022-05-26T10:16:27Z</time>
</trkpt>
<trkpt lat="48.006184" lon="11.172365">
<ele>500.521</ele>
<time>2022-05-26T10:16:28Z</time>
</trkpt>
<trkpt lat="48.006233" lon="11.17237">
<ele>500.521</ele>
<time>2022-05-26T10:16:29Z</time>
</trkpt>
<trkpt lat="48.006287" lon="11.172379">
<ele>500.521</ele>
<time>2022-05-26T10:16:30Z</time>
</trkpt>
<trkpt lat="48.00634" lon="11.17239">
<ele>500.521</ele>
<time>2022-05-26T10:16:31Z</time>
</trkpt>
<trkpt lat="48.00639" lon="11.172407">
<ele>500.521</ele>
<time>2022-05-26T10:16:32Z</time>
</trkpt>
<trkpt lat="48.006447" lon="11.172421">
<ele>500.521</ele>
<time>2022-05-26T10:16:33Z</time>
</trkpt>
<trkpt lat="48.006496" lon="11.172432">
<ele>500.521</ele>
<time>2022-05-26T10:16:34Z</time>
</trkpt>
<trkpt lat="48.00655" lon="11.172439">
<ele>500.521</ele>
<time>2022-05-26T10:16:35Z</time>
</trkpt>
<trkpt lat="48.006603" lon="11.172443">
<ele>500.521</ele>
<time>2022-05-26T10:16:36Z</time>
</trkpt>
<trkpt lat="48.006653" lon="11.172449">
<ele>500.521</ele>
<time>2022-05-26T10:16:37Z</time>
</trkpt>
<trkpt lat="48.006706" lon="11.172455">
<ele>500.521</ele>
<time>2022-05-26T10:16:38Z</time>
</trkpt>
<trkpt lat="48.006756" lon="11.17246">
<ele>500.521</ele>
<time>2022-05-26T10:16:39Z</time>
</trkpt>
<trkpt lat="48.006809" lon="11.172465">
<ele>500.521</ele>
<time>2022-05-26T10:16:40Z</time>
</trkpt>
<trkpt lat="48.006859" lon="11.17247">
<ele>500.521</ele>
<time>2022-05-26T10:16:41Z</time>
</trkpt>
<trkpt lat="48.006908" lon="11.172477">
<ele>500.521</ele>
<time>2022-05-26T10:16:42Z</time>
</trkpt>
<trkpt lat="48.006962" lon="11.172482">
<ele>500.521</ele>
<time>2022-05-26T10:16:43Z</time>
</trkpt>
<trkpt lat="48.007011" lon="11.172487">
<ele>500.521</ele>
<time>2022-05-26T10:16:44Z</time>
</trkpt>
<trkpt lat="48.007061" lon="11.172489">
<ele>500.521</ele>
<time>2022-05-26T10:16:45Z</time>
</trkpt>
<trkpt lat="48.007107" lon="11.172495">
<ele>500.521</ele>
<time>2022-05-26T10:16:46Z</time>
</trkpt>
<trkpt lat="48.00716" lon="11.172498">
<ele>500.521</ele>
<time>2022-05-26T10:16:47Z</time>
</trkpt>
<trkpt lat="48.007206" lon="11.172502">
<ele>500.521</ele>
<time>2022-05-26T10:16:48Z</time>
</trkpt>
<trkpt lat="48.007259" lon="11.172503">
<ele>500.521</ele>
<time>2022-05-26T10:16:49Z</time>
</trkpt>
<trkpt lat="48.007309" lon="11.172506">
<ele>500.521</ele>
<time>2022-05-26T10:16:50Z</time>
</trkpt>
<trkpt lat="48.007359" lon="11.17251">
<ele>500.521</ele>
<time>2022-05-26T10:16:51Z</time>
</trkpt>
<trkpt lat="48.007404" lon="11.172515">
<ele>500.521</ele>
<time>2022-05-26T10:16:52Z</time>
</trkpt>
<trkpt lat="48.007458" lon="11.172522">
<ele>500.521</ele>
<time>2022-05-26T10:16:53Z</time>
</trkpt>
<trkpt lat="48.007504" lon="11.172526">
<ele>500.521</ele>
<time>2022-05-26T10:16:54Z</time>
</trkpt>
<trkpt lat="48.007553" lon="11.17253">
<ele>500.521</ele>
<time>2022-05-26T10:16:55Z</time>
</trkpt>
<trkpt lat="48.007603" lon="11.172531">
<ele>500.521</ele>
<time>2022-05-26T10:16:56Z</time>
</trkpt>
<trkpt lat="48.007656" lon="11.172531">
<ele>500.521</ele>
<time>2022-05-26T10:16:57Z</time>
</trkpt>
<trkpt lat="48.007702" lon="11.172531">
<ele>500.521</ele>
<time>2022-05-26T10:16:58Z</time>
</trkpt>
<trkpt lat="48.007755" lon="11.172533">
<ele>500.521</ele>
<time>2022-05-26T10:16:59Z</time>
</trkpt>
<trkpt lat="48.007805" lon="11.172535">
<ele>500.521</ele>
<time>2022-05-26T10:17:00Z</time>
</trkpt>
<trkpt lat="48.007854" lon="11.17254">
<ele>500.521</ele>
<time>2022-05-26T10:17:01Z</time>
</trkpt>
<trkpt lat="48.007904" lon="11.172546">
<ele>500.521</ele>
<time>2022-05-26T10:17:02Z</time>
</trkpt>
<trkpt lat="48.007954" lon="11.172554">
<ele>500.521</ele>
<time>2022-05-26T10:17:03Z</time>
</trkpt>
<trkpt lat="48.008003" lon="11.172557">
<ele>500.521</ele>
<time>2022-05-26T10:17:04Z</time>
</trkpt>
<trkpt lat="48.008053" lon="11.17256">
<ele>500.521</ele>
<time>2022-05-26T10:17:05Z</time>
</trkpt>
<trkpt lat="48.008106" lon="11.172562">
<ele>500.521</ele>
<time>2022-05-26T10:17:06Z</time>
</trkpt>
<trkpt lat="48.008156" lon="11.172563">
<ele>500.521</ele>
<time>2022-05-26T10:17:07Z</time>
</trkpt>
<trkpt lat="48.008209" lon="11.172563">
<ele>500.521</ele>
<time>2022-05-26T10:17:08Z</time>
</trkpt>
<trkpt lat="48.008263" lon="11.172563">
<ele>500.521</ele>
<time>2022-05-26T10:17:09Z</time>
</trkpt>
<trkpt lat="48.008312" lon="11.172563">
<ele>500.521</ele>
<time>2022-05-26T10:17:10Z</time>
</trkpt>
<trkpt lat="48.008369" lon="11.172563">
<ele>500.521</ele>
<time>2022-05-26T10:17:11Z</time>
</trkpt>
<trkpt lat="48.008423" lon="11.172565">
<ele>500.521</ele>
<time>2022-05-26T10:17:12Z</time>
</trkpt>
<trkpt lat="48.008472" lon="11.172568">
<ele>500.521</ele>
<time>2022-05-26T10:17:13Z</time>
</trkpt>
<trkpt lat="48.008522" lon="11.17257">
<ele>500.521</ele>
<time>2022-05-26T10:17:14Z</time>
</trkpt>
<trkpt lat="48.008572" lon="11.172571">
<ele>500.521</ele>
<time>2022-05-26T10:17:15Z</time>
</trkpt>
<trkpt lat="48.008621" lon="11.172573">
<ele>500.52</ele>
<time>2022-05-26T10:17:16Z</time>
</trkpt>
<trkpt lat="48.008671" lon="11.172571">
<ele>500.521</ele>
<time>2022-05-26T10:17:17Z</time>
</trkpt>
<trkpt lat="48.008724" lon="11.17257">
<ele>500.521</ele>
<time>2022-05-26T10:17:18Z</time>
</trkpt>
<trkpt lat="48.008778" lon="11.172571">
<ele>500.521</ele>
<time>2022-05-26T10:17:19Z</time>
</trkpt>
<trkpt lat="48.008831" lon="11.172575">
<ele>500.52</ele>
<time>2022-05-26T10:17:20Z</time>
</trkpt>
<trkpt lat="48.008877" lon="11.17258">
<ele>500.521</ele>
<time>2022-05-26T10:17:21Z</time>
</trkpt>
<trkpt lat="48.008926" lon="11.172582">
<ele>500.521</ele>
<time>2022-05-26T10:17:22Z</time>
</trkpt>
<trkpt lat="48.008972" lon="11.172584">
<ele>500.521</ele>
<time>2022-05-26T10:17:23Z</time>
</trkpt>
<trkpt lat="48.009022" lon="11.172584">
<ele>500.521</ele>
<time>2022-05-26T10:17:24Z</time>
</trkpt>
<trkpt lat="48.009071" lon="11.172585">
<ele>500.521</ele>
<time>2022-05-26T10:17:25Z</time>
</trkpt>
<trkpt lat="48.009121" lon="11.172588">
<ele>500.521</ele>
<time>2022-05-26T10:17:26Z</time>
</trkpt>
<trkpt lat="48.009167" lon="11.172592">
<ele>500.521</ele>
<time>2022-05-26T10:17:27Z</time>
</trkpt>
<trkpt lat="48.00922" lon="11.172595">
<ele>500.521</ele>
<time>2022-05-26T10:17:28Z</time>
</trkpt>
<trkpt lat="48.00927" lon="11.172595">
<ele>500.521</ele>
<time>2022-05-26T10:17:29Z</time>
</trkpt>
<trkpt lat="48.009319" lon="11.172595">
<ele>500.52</ele>
<time>2022-05-26T10:17:30Z</time>
</trkpt>
<trkpt lat="48.009369" lon="11.172595">
<ele>500.521</ele>
<time>2022-05-26T10:17:31Z</time>
</trkpt>
<trkpt lat="48.009418" lon="11.172596">
<ele>500.521</ele>
<time>2022-05-26T10:17:32Z</time>
</trkpt>
<trkpt lat="48.009468" lon="11.172596">
<ele>500.521</ele>
<time>2022-05-26T10:17:33Z</time>
</trkpt>
<trkpt lat="48.009518" lon="11.172598">
<ele>500.521</ele>
<time>2022-05-26T10:17:34Z</time>
</trkpt>
<trkpt lat="48.009567" lon="11.172602">
<ele>500.521</ele>
<time>2022-05-26T10:17:35Z</time>
</trkpt>
<trkpt lat="48.009617" lon="11.172604">
<ele>500.521</ele>
<time>2022-05-26T10:17:36Z</time>
</trkpt>
<trkpt lat="48.00967" lon="11.172602">
<ele>500.521</ele>
<time>2022-05-26T10:17:37Z</time>
</trkpt>
<trkpt lat="48.009716" lon="11.172604">
<ele>500.521</ele>
<time>2022-05-26T10:17:38Z</time>
</trkpt>
<trkpt lat="48.009769" lon="11.172604">
<ele>500.328</ele>
<time>2022-05-26T10:17:39Z</time>
</trkpt>
<trkpt lat="48.009819" lon="11.172605">
<ele>500.145</ele>
<time>2022-05-26T10:17:40Z</time>
</trkpt>
<trkpt lat="48.009869" lon="11.172606">
<ele>499.995</ele>
<time>2022-05-26T10:17:41Z</time>
</trkpt>
<trkpt lat="48.009914" lon="11.172606">
<ele>499.875</ele>
<time>2022-05-26T10:17:42Z</time>
</trkpt>
<trkpt lat="48.009968" lon="11.172606">
<ele>499.783</ele>
<time>2022-05-26T10:17:43Z</time>
</trkpt>
<trkpt lat="48.010014" lon="11.172608">
<ele>499.716</ele>
<time>2022-05-26T10:17:44Z</time>
</trkpt>
<trkpt lat="48.010059" lon="11.17261">
<ele>499.673</ele>
<time>2022-05-26T10:17:45Z</time>
</trkpt>
<trkpt lat="48.010109" lon="11.172608">
<ele>499.652</ele>
<time>2022-05-26T10:17:46Z</time>
</trkpt>
<trkpt lat="48.010155" lon="11.172608">
<ele>499.652</ele>
<time>2022-05-26T10:17:47Z</time>
</trkpt>
<trkpt lat="48.010201" lon="11.172605">
<ele>499.652</ele>
<time>2022-05-26T10:17:48Z</time>
</trkpt>
<trkpt lat="48.01025" lon="11.172605">
<ele>499.652</ele>
<time>2022-05-26T10:17:49Z</time>
</trkpt>
<trkpt lat="48.0103" lon="11.172606">
<ele>499.652</ele>
<time>2022-05-26T10:17:50Z</time>
</trkpt>
<trkpt lat="48.010349" lon="11.172608">
<ele>499.652</ele>
<time>2022-05-26T10:17:51Z</time>
</trkpt>
<trkpt lat="48.010395" lon="11.172611">
<ele>499.652</ele>
<time>2022-05-26T10:17:52Z</time>
</trkpt>
<trkpt lat="48.010445" lon="11.172615">
<ele>499.652</ele>
<time>2022-05-26T10:17:53Z</time>
</trkpt>
<trkpt lat="48.010494" lon="11.172617">
<ele>499.652</ele>
<time>2022-05-26T10:17:54Z</time>
</trkpt>
<trkpt lat="48.01054" lon="11.172617">
<ele>499.652</ele>
<time>2022-05-26T10:17:55Z</time>
</trkpt>
<trkpt lat="48.010593" lon="11.172617">
<ele>499.652</ele>
<time>2022-05-26T10:17:56Z</time>
</trkpt>
<trkpt lat="48.010639" lon="11.172619">
<ele>499.652</ele>
<time>2022-05-26T10:17:57Z</time>
</trkpt>
<trkpt lat="48.010689" lon="11.17262">
<ele>499.652</ele>
<time>2022-05-26T10:17:58Z</time>
</trkpt>
<trkpt lat="48.010735" lon="11.172622">
<ele>499.652</ele>
<time>2022-05-26T10:17:59Z</time>
</trkpt>
<trkpt lat="48.010788" lon="11.172622">
<ele>499.652</ele>
<time>2022-05-26T10:18:00Z</time>
</trkpt>
<trkpt lat="48.010834" lon="11.172624">
<ele>499.652</ele>
<time>2022-05-26T10:18:01Z</time>
</trkpt>
<trkpt lat="48.010887" lon="11.172626">
<ele>499.652</ele>
<time>2022-05-26T10:18:02Z</time>
</trkpt>
<trkpt lat="48.010933" lon="11.172627">
<ele>499.652</ele>
<time>2022-05-26T10:18:03Z</time>
</trkpt>
<trkpt lat="48.010983" lon="11.172627">
<ele>499.652</ele>
<time>2022-05-26T10:18:04Z</time>
</trkpt>
<trkpt lat="48.011028" lon="11.172627">
<ele>499.652</ele>
<time>2022-05-26T10:18:05Z</time>
</trkpt>
<trkpt lat="48.011078" lon="11.172628">
<ele>499.652</ele>
<time>2022-05-26T10:18:06Z</time>
</trkpt>
<trkpt lat="48.011124" lon="11.172629">
<ele>499.652</ele>
<time>2022-05-26T10:18:07Z</time>
</trkpt>
<trkpt lat="48.011169" lon="11.172633">
<ele>499.652</ele>
<time>2022-05-26T10:18:08Z</time>
</trkpt>
<trkpt lat="48.011215" lon="11.172635">
<ele>499.652</ele>
<time>2022-05-26T10:18:09Z</time>
</trkpt>
<trkpt lat="48.011265" lon="11.172638">
<ele>499.652</ele>
<time>2022-05-26T10:18:10Z</time>
</trkpt>
<trkpt lat="48.011311" lon="11.172638">
<ele>499.652</ele>
<time>2022-05-26T10:18:11Z</time>
</trkpt>
<trkpt lat="48.011364" lon="11.172638">
<ele>499.652</ele>
<time>2022-05-26T10:18:12Z</time>
</trkpt>
<trkpt lat="48.01141" lon="11.17264">
<ele>499.652</ele>
<time>2022-05-26T10:18:13Z</time>
</trkpt>
<trkpt lat="48.011459" lon="11.172644">
<ele>499.652</ele>
<time>2022-05-26T10:18:14Z</time>
</trkpt>
<trkpt lat="48.011505" lon="11.172645">
<ele>499.652</ele>
<time>2022-05-26T10:18:15Z</time>
</trkpt>
<trkpt lat="48.011559" lon="11.172645">
<ele>499.652</ele>
<time>2022-05-26T10:18:16Z</time>
</trkpt>
<trkpt lat="48.011608" lon="11.172645">
<ele>499.652</ele>
<time>2022-05-26T10:18:17Z</time>
</trkpt>
<trkpt lat="48.011665" lon="11.172647">
<ele>499.652</ele>
<time>2022-05-26T10:18:18Z</time>
</trkpt>
<trkpt lat="48.011715" lon="11.172648">
<ele>499.652</ele>
<time>2022-05-26T10:18:19Z</time>
</trkpt>
<trkpt lat="48.011768" lon="11.17265">
<ele>499.652</ele>
<time>2022-05-26T10:18:20Z</time>
</trkpt>
<trkpt lat="48.011826" lon="11.172652">
<ele>499.652</ele>
<time>2022-05-26T10:18:21Z</time>
</trkpt>
<trkpt lat="48.011875" lon="11.172653">
<ele>499.652</ele>
<time>2022-05-26T10:18:22Z</time>
</trkpt>
<trkpt lat="48.011929" lon="11.172653">
<ele>499.652</ele>
<time>2022-05-26T10:18:23Z</time>
</trkpt>
<trkpt lat="48.011982" lon="11.172653">
<ele>499.652</ele>
<time>2022-05-26T10:18:24Z</time>
</trkpt>
<trkpt lat="48.012032" lon="11.172653">
<ele>499.652</ele>
<time>2022-05-26T10:18:25Z</time>
</trkpt>
<trkpt lat="48.012089" lon="11.172655">
<ele>499.652</ele>
<time>2022-05-26T10:18:26Z</time>
</trkpt>
<trkpt lat="48.012138" lon="11.172657">
<ele>499.652</ele>
<time>2022-05-26T10:18:27Z</time>
</trkpt>
<trkpt lat="48.012192" lon="11.172659">
<ele>499.652</ele>
<time>2022-05-26T10:18:28Z</time>
</trkpt>
<trkpt lat="48.012245" lon="11.172661">
<ele>499.652</ele>
<time>2022-05-26T10:18:29Z</time>
</trkpt>
<trkpt lat="48.012299" lon="11.172662">
<ele>499.652</ele>
<time>2022-05-26T10:18:30Z</time>
</trkpt>
<trkpt lat="48.012352" lon="11.172661">
<ele>499.652</ele>
<time>2022-05-26T10:18:31Z</time>
</trkpt>
<trkpt lat="48.012405" lon="11.172661">
<ele>499.652</ele>
<time>2022-05-26T10:18:32Z</time>
</trkpt>
<trkpt lat="48.012455" lon="11.172661">
<ele>499.652</ele>
<time>2022-05-26T10:18:33Z</time>
</trkpt>
<trkpt lat="48.012505" lon="11.172662">
<ele>499.652</ele>
<time>2022-05-26T10:18:34Z</time>
</trkpt>
<trkpt lat="48.01255" lon="11.172667">
<ele>499.652</ele>
<time>2022-05-26T10:18:35Z</time>
</trkpt>
<trkpt lat="48.012596" lon="11.172671">
<ele>499.652</ele>
<time>2022-05-26T10:18:36Z</time>
</trkpt>
<trkpt lat="48.012638" lon="11.17268">
<ele>499.652</ele>
<time>2022-05-26T10:18:37Z</time>
</trkpt>
<trkpt lat="48.012684" lon="11.172688">
<ele>499.652</ele>
<time>2022-05-26T10:18:38Z</time>
</trkpt>
<trkpt lat="48.01273" lon="11.172693">
<ele>499.652</ele>
<time>2022-05-26T10:18:39Z</time>
</trkpt>
<trkpt lat="48.012775" lon="11.172693">
<ele>499.652</ele>
<time>2022-05-26T10:18:40Z</time>
</trkpt>
<trkpt lat="48.012817" lon="11.172693">
<ele>499.652</ele>
<time>2022-05-26T10:18:41Z</time>
</trkpt>
<trkpt lat="48.012863" lon="11.172692">
<ele>499.652</ele>
<time>2022-05-26T10:18:42Z</time>
</trkpt>
<trkpt lat="48.012909" lon="11.17269">
<ele>499.652</ele>
<time>2022-05-26T10:18:43Z</time>
</trkpt>
<trkpt lat="48.012959" lon="11.172688">
<ele>499.652</ele>
<time>2022-05-26T10:18:44Z</time>
</trkpt>
<trkpt lat="48.013004" lon="11.17269">
<ele>499.652</ele>
<time>2022-05-26T10:18:45Z</time>
</trkpt>
<trkpt lat="48.01305" lon="11.172692">
<ele>499.652</ele>
<time>2022-05-26T10:18:46Z</time>
</trkpt>
<trkpt lat="48.0131" lon="11.172692">
<ele>499.652</ele>
<time>2022-05-26T10:18:47Z</time>
</trkpt>
<trkpt lat="48.013145" lon="11.172693">
<ele>499.652</ele>
<time>2022-05-26T10:18:48Z</time>
</trkpt>
<trkpt lat="48.013191" lon="11.172695">
<ele>499.652</ele>
<time>2022-05-26T10:18:49Z</time>
</trkpt>
<trkpt lat="48.013241" lon="11.172695">
<ele>499.652</ele>
<time>2022-05-26T10:18:50Z</time>
</trkpt>
<trkpt lat="48.013287" lon="11.172692">
<ele>499.652</ele>
<time>2022-05-26T10:18:51Z</time>
</trkpt>
<trkpt lat="48.013332" lon="11.17269">
<ele>499.652</ele>
<time>2022-05-26T10:18:52Z</time>
</trkpt>
<trkpt lat="48.013378" lon="11.172688">
<ele>499.652</ele>
<time>2022-05-26T10:18:53Z</time>
</trkpt>
<trkpt lat="48.013428" lon="11.172688">
<ele>499.652</ele>
<time>2022-05-26T10:18:54Z</time>
</trkpt>
<trkpt lat="48.013474" lon="11.17269">
<ele>499.652</ele>
<time>2022-05-26T10:18:55Z</time>
</trkpt>
<trkpt lat="48.013519" lon="11.17269">
<ele>499.652</ele>
<time>2022-05-26T10:18:56Z</time>
</trkpt>
<trkpt lat="48.013561" lon="11.172693">
<ele>499.652</ele>
<time>2022-05-26T10:18:57Z</time>
</trkpt>
<trkpt lat="48.013599" lon="11.172695">
<ele>499.652</ele>
<time>2022-05-26T10:18:58Z</time>
</trkpt>
<trkpt lat="48.013645" lon="11.172693">
<ele>499.652</ele>
<time>2022-05-26T10:18:59Z</time>
</trkpt>
<trkpt lat="48.013691" lon="11.172693">
<ele>499.652</ele>
<time>2022-05-26T10:19:00Z</time>
</trkpt>
<trkpt lat="48.013737" lon="11.172692">
<ele>499.652</ele>
<time>2022-05-26T10:19:01Z</time>
</trkpt>
<trkpt lat="48.013786" lon="11.17269">
<ele>499.652</ele>
<time>2022-05-26T10:19:02Z</time>
</trkpt>
<trkpt lat="48.013828" lon="11.172687">
<ele>499.652</ele>
<time>2022-05-26T10:19:03Z</time>
</trkpt>
<trkpt lat="48.013874" lon="11.172685">
<ele>499.652</ele>
<time>2022-05-26T10:19:04Z</time>
</trkpt>
<trkpt lat="48.013916" lon="11.172684">
<ele>499.883</ele>
<time>2022-05-26T10:19:05Z</time>
</trkpt>
<trkpt lat="48.013962" lon="11.172685">
<ele>500.063</ele>
<time>2022-05-26T10:19:06Z</time>
</trkpt>
<trkpt lat="48.014008" lon="11.172687">
<ele>500.2</ele>
<time>2022-05-26T10:19:07Z</time>
</trkpt>
<trkpt lat="48.014053" lon="11.172687">
<ele>500.301</ele>
<time>2022-05-26T10:19:08Z</time>
</trkpt>
<trkpt lat="48.014103" lon="11.172688">
<ele>500.374</ele>
<time>2022-05-26T10:19:09Z</time>
</trkpt>
<trkpt lat="48.014145" lon="11.17269">
<ele>500.45</ele>
<time>2022-05-26T10:19:10Z</time>
</trkpt>
<trkpt lat="48.014191" lon="11.17269">
<ele>500.498</ele>
<time>2022-05-26T10:19:11Z</time>
</trkpt>
<trkpt lat="48.014236" lon="11.172692">
<ele>500.521</ele>
<time>2022-05-26T10:19:12Z</time>
</trkpt>
<trkpt lat="48.014278" lon="11.172693">
<ele>500.521</ele>
<time>2022-05-26T10:19:13Z</time>
</trkpt>
<trkpt lat="48.014324" lon="11.172695">
<ele>500.521</ele>
<time>2022-05-26T10:19:14Z</time>
</trkpt>
<trkpt lat="48.01437" lon="11.172695">
<ele>500.521</ele>
<time>2022-05-26T10:19:15Z</time>
</trkpt>
<trkpt lat="48.014412" lon="11.172697">
<ele>500.521</ele>
<time>2022-05-26T10:19:16Z</time>
</trkpt>
<trkpt lat="48.014458" lon="11.172698">
<ele>500.521</ele>
<time>2022-05-26T10:19:17Z</time>
</trkpt>
<trkpt lat="48.0145" lon="11.1727">
<ele>500.521</ele>
<time>2022-05-26T10:19:18Z</time>
</trkpt>
<trkpt lat="48.014538" lon="11.172701">
<ele>500.521</ele>
<time>2022-05-26T10:19:19Z</time>
</trkpt>
<trkpt lat="48.014584" lon="11.172703">
<ele>500.521</ele>
<time>2022-05-26T10:19:20Z</time>
</trkpt>
<trkpt lat="48.014622" lon="11.172705">
<ele>500.521</ele>
<time>2022-05-26T10:19:21Z</time>
</trkpt>
<trkpt lat="48.014664" lon="11.172709">
<ele>500.521</ele>
<time>2022-05-26T10:19:22Z</time>
</trkpt>
<trkpt lat="48.014702" lon="11.172715">
<ele>500.521</ele>
<time>2022-05-26T10:19:23Z</time>
</trkpt>
<trkpt lat="48.014744" lon="11.17272">
<ele>500.521</ele>
<time>2022-05-26T10:19:24Z</time>
</trkpt>
<trkpt lat="48.014786" lon="11.172724">
<ele>500.521</ele>
<time>2022-05-26T10:19:25Z</time>
</trkpt>
<trkpt lat="48.014832" lon="11.172727">
<ele>500.521</ele>
<time>2022-05-26T10:19:26Z</time>
</trkpt>
<trkpt lat="48.014877" lon="11.17273">
<ele>500.521</ele>
<time>2022-05-26T10:19:27Z</time>
</trkpt>
<trkpt lat="48.014919" lon="11.172734">
<ele>500.521</ele>
<time>2022-05-26T10:19:28Z</time>
</trkpt>
<trkpt lat="48.014965" lon="11.172738">
<ele>500.521</ele>
<time>2022-05-26T10:19:29Z</time>
</trkpt>
<trkpt lat="48.015011" lon="11.172742">
<ele>500.521</ele>
<time>2022-05-26T10:19:30Z</time>
</trkpt>
<trkpt lat="48.015057" lon="11.172745">
<ele>500.521</ele>
<time>2022-05-26T10:19:31Z</time>
</trkpt>
<trkpt lat="48.015099" lon="11.172747">
<ele>500.521</ele>
<time>2022-05-26T10:19:32Z</time>
</trkpt>
<trkpt lat="48.015144" lon="11.172749">
<ele>500.521</ele>
<time>2022-05-26T10:19:33Z</time>
</trkpt>
<trkpt lat="48.01519" lon="11.172751">
<ele>500.521</ele>
<time>2022-05-26T10:19:34Z</time>
</trkpt>
<trkpt lat="48.015228" lon="11.172751">
<ele>500.521</ele>
<time>2022-05-26T10:19:35Z</time>
</trkpt>
<trkpt lat="48.015274" lon="11.172751">
<ele>500.521</ele>
<time>2022-05-26T10:19:36Z</time>
</trkpt>
<trkpt lat="48.01532" lon="11.172751">
<ele>500.521</ele>
<time>2022-05-26T10:19:37Z</time>
</trkpt>
<trkpt lat="48.015358" lon="11.172751">
<ele>500.521</ele>
<time>2022-05-26T10:19:38Z</time>
</trkpt>
<trkpt lat="48.015404" lon="11.172753">
<ele>500.521</ele>
<time>2022-05-26T10:19:39Z</time>
</trkpt>
<trkpt lat="48.015446" lon="11.172755">
<ele>500.75</ele>
<time>2022-05-26T10:19:40Z</time>
</trkpt>
<trkpt lat="48.015484" lon="11.172757">
<ele>500.945</ele>
<time>2022-05-26T10:19:41Z</time>
</trkpt>
<trkpt lat="48.015526" lon="11.17276">
<ele>501.104</ele>
<time>2022-05-26T10:19:42Z</time>
</trkpt>
<trkpt lat="48.015568" lon="11.17276">
<ele>501.233</ele>
<time>2022-05-26T10:19:43Z</time>
</trkpt>
<trkpt lat="48.015614" lon="11.172762">
<ele>501.332</ele>
<time>2022-05-26T10:19:44Z</time>
</trkpt>
<trkpt lat="48.015656" lon="11.172762">
<ele>501.405</ele>
<time>2022-05-26T10:19:45Z</time>
</trkpt>
<trkpt lat="48.015697" lon="11.172762">
<ele>501.453</ele>
<time>2022-05-26T10:19:46Z</time>
</trkpt>
<trkpt lat="48.015743" lon="11.172762">
<ele>501.475</ele>
<time>2022-05-26T10:19:47Z</time>
</trkpt>
<trkpt lat="48.015781" lon="11.172762">
<ele>501.475</ele>
<time>2022-05-26T10:19:48Z</time>
</trkpt>
<trkpt lat="48.015827" lon="11.172758">
<ele>501.475</ele>
<time>2022-05-26T10:19:49Z</time>
</trkpt>
<trkpt lat="48.015873" lon="11.172757">
<ele>501.475</ele>
<time>2022-05-26T10:19:50Z</time>
</trkpt>
<trkpt lat="48.015915" lon="11.172755">
<ele>501.475</ele>
<time>2022-05-26T10:19:51Z</time>
</trkpt>
<trkpt lat="48.015957" lon="11.172753">
<ele>501.475</ele>
<time>2022-05-26T10:19:52Z</time>
</trkpt>
<trkpt lat="48.015999" lon="11.172757">
<ele>501.475</ele>
<time>2022-05-26T10:19:53Z</time>
</trkpt>
<trkpt lat="48.016037" lon="11.17276">
<ele>501.475</ele>
<time>2022-05-26T10:19:54Z</time>
</trkpt>
<trkpt lat="48.016079" lon="11.172764">
<ele>501.475</ele>
<time>2022-05-26T10:19:55Z</time>
</trkpt>
<trkpt lat="48.016121" lon="11.172767">
<ele>501.717</ele>
<time>2022-05-26T10:19:56Z</time>
</trkpt>
<trkpt lat="48.016159" lon="11.17277">
<ele>501.906</ele>
<time>2022-05-26T10:19:57Z</time>
</trkpt>
<trkpt lat="48.016197" lon="11.172776">
<ele>502.057</ele>
<time>2022-05-26T10:19:58Z</time>
</trkpt>
<trkpt lat="48.016232" lon="11.172778">
<ele>502.161</ele>
<time>2022-05-26T10:19:59Z</time>
</trkpt>
<trkpt lat="48.01627" lon="11.172776">
<ele>502.273</ele>
<time>2022-05-26T10:20:00Z</time>
</trkpt>
<trkpt lat="48.016315" lon="11.172774">
<ele>502.354</ele>
<time>2022-05-26T10:20:01Z</time>
</trkpt>
<trkpt lat="48.016361" lon="11.172774">
<ele>502.406</ele>
<time>2022-05-26T10:20:02Z</time>
</trkpt>
<trkpt lat="48.016403" lon="11.17277">
<ele>502.43</ele>
<time>2022-05-26T10:20:03Z</time>
</trkpt>
<trkpt lat="48.016445" lon="11.172768">
<ele>502.43</ele>
<time>2022-05-26T10:20:04Z</time>
</trkpt>
<trkpt lat="48.016487" lon="11.172768">
<ele>502.43</ele>
<time>2022-05-26T10:20:05Z</time>
</trkpt>
<trkpt lat="48.016521" lon="11.17277">
<ele>502.43</ele>
<time>2022-05-26T10:20:06Z</time>
</trkpt>
<trkpt lat="48.01656" lon="11.172771">
<ele>502.43</ele>
<time>2022-05-26T10:20:07Z</time>
</trkpt>
<trkpt lat="48.016602" lon="11.172768">
<ele>502.43</ele>
<time>2022-05-26T10:20:08Z</time>
</trkpt>
<trkpt lat="48.016644" lon="11.172767">
<ele>502.43</ele>
<time>2022-05-26T10:20:09Z</time>
</trkpt>
<trkpt lat="48.016689" lon="11.172767">
<ele>502.43</ele>
<time>2022-05-26T10:20:10Z</time>
</trkpt>
<trkpt lat="48.016735" lon="11.17276">
<ele>502.43</ele>
<time>2022-05-26T10:20:11Z</time>
</trkpt>
<trkpt lat="48.016781" lon="11.172757">
<ele>502.43</ele>
<time>2022-05-26T10:20:12Z</time>
</trkpt>
<trkpt lat="48.016827" lon="11.172753">
<ele>502.43</ele>
<time>2022-05-26T10:20:13Z</time>
</trkpt>
<trkpt lat="48.016872" lon="11.172749">
<ele>502.43</ele>
<time>2022-05-26T10:20:14Z</time>
</trkpt>
<trkpt lat="48.016918" lon="11.172742">
<ele>502.43</ele>
<time>2022-05-26T10:20:15Z</time>
</trkpt>
<trkpt lat="48.016953" lon="11.172736">
<ele>502.43</ele>
<time>2022-05-26T10:20:16Z</time>
</trkpt>
<trkpt lat="48.016994" lon="11.172733">
<ele>502.43</ele>
<time>2022-05-26T10:20:17Z</time>
</trkpt>
<trkpt lat="48.017021" lon="11.172729">
<ele>502.43</ele>
<time>2022-05-26T10:20:18Z</time>
</trkpt>
<trkpt lat="48.017052" lon="11.172724">
<ele>502.43</ele>
<time>2022-05-26T10:20:19Z</time>
</trkpt>
<trkpt lat="48.017094" lon="11.17272">
<ele>502.43</ele>
<time>2022-05-26T10:20:20Z</time>
</trkpt>
<trkpt lat="48.017132" lon="11.172722">
<ele>502.43</ele>
<time>2022-05-26T10:20:21Z</time>
</trkpt>
<trkpt lat="48.017174" lon="11.172718">
<ele>502.43</ele>
<time>2022-05-26T10:20:22Z</time>
</trkpt>
<trkpt lat="48.017212" lon="11.17272">
<ele>502.43</ele>
<time>2022-05-26T10:20:23Z</time>
</trkpt>
<trkpt lat="48.017258" lon="11.17272">
<ele>502.43</ele>
<time>2022-05-26T10:20:24Z</time>
</trkpt>
<trkpt lat="48.0173" lon="11.172726">
<ele>502.43</ele>
<time>2022-05-26T10:20:25Z</time>
</trkpt>
<trkpt lat="48.017345" lon="11.172729">
<ele>502.43</ele>
<time>2022-05-26T10:20:26Z</time>
</trkpt>
<trkpt lat="48.017391" lon="11.172729">
<ele>502.43</ele>
<time>2022-05-26T10:20:27Z</time>
</trkpt>
<trkpt lat="48.017441" lon="11.172734">
<ele>502.43</ele>
<time>2022-05-26T10:20:28Z</time>
</trkpt>
<trkpt lat="48.01749" lon="11.172742">
<ele>502.43</ele>
<time>2022-05-26T10:20:29Z</time>
</trkpt>
<trkpt lat="48.017536" lon="11.172747">
<ele>502.43</ele>
<time>2022-05-26T10:20:30Z</time>
</trkpt>
<trkpt lat="48.017586" lon="11.172745">
<ele>502.43</ele>
<time>2022-05-26T10:20:31Z</time>
</trkpt>
<trkpt lat="48.017635" lon="11.172747">
<ele>502.43</ele>
<time>2022-05-26T10:20:32Z</time>
</trkpt>
<trkpt lat="48.017677" lon="11.172751">
<ele>502.43</ele>
<time>2022-05-26T10:20:33Z</time>
</trkpt>
<trkpt lat="48.017727" lon="11.172753">
<ele>502.43</ele>
<time>2022-05-26T10:20:34Z</time>
</trkpt>
<trkpt lat="48.017773" lon="11.172758">
<ele>502.43</ele>
<time>2022-05-26T10:20:35Z</time>
</trkpt>
<trkpt lat="48.017822" lon="11.172764">
<ele>502.43</ele>
<time>2022-05-26T10:20:36Z</time>
</trkpt>
<trkpt lat="48.01786" lon="11.172766">
<ele>502.43</ele>
<time>2022-05-26T10:20:37Z</time>
</trkpt>
<trkpt lat="48.017902" lon="11.172771">
<ele>502.657</ele>
<time>2022-05-26T10:20:38Z</time>
</trkpt>
<trkpt lat="48.017944" lon="11.172778">
<ele>502.82</ele>
<time>2022-05-26T10:20:39Z</time>
</trkpt>
<trkpt lat="48.017982" lon="11.172782">
<ele>502.989</ele>
<time>2022-05-26T10:20:40Z</time>
</trkpt>
<trkpt lat="48.018021" lon="11.172785">
<ele>503.128</ele>
<time>2022-05-26T10:20:41Z</time>
</trkpt>
<trkpt lat="48.018063" lon="11.172791">
<ele>503.228</ele>
<time>2022-05-26T10:20:42Z</time>
</trkpt>
<trkpt lat="48.018112" lon="11.172795">
<ele>503.298</ele>
<time>2022-05-26T10:20:43Z</time>
</trkpt>
<trkpt lat="48.01815" lon="11.1728">
<ele>503.588</ele>
<time>2022-05-26T10:20:44Z</time>
</trkpt>
<trkpt lat="48.018192" lon="11.172805">
<ele>503.817</ele>
<time>2022-05-26T10:20:45Z</time>
</trkpt>
<trkpt lat="48.01823" lon="11.172812">
<ele>504.008</ele>
<time>2022-05-26T10:20:46Z</time>
</trkpt>
<trkpt lat="48.018269" lon="11.17282">
<ele>504.121</ele>
<time>2022-05-26T10:20:47Z</time>
</trkpt>
<trkpt lat="48.018314" lon="11.172827">
<ele>504.208</ele>
<time>2022-05-26T10:20:48Z</time>
</trkpt>
<trkpt lat="48.018353" lon="11.172835">
<ele>504.264</ele>
<time>2022-05-26T10:20:49Z</time>
</trkpt>
<trkpt lat="48.018383" lon="11.172853">
<ele>504.314</ele>
<time>2022-05-26T10:20:50Z</time>
</trkpt>
<trkpt lat="48.01841" lon="11.172873">
<ele>504.34</ele>
<time>2022-05-26T10:20:51Z</time>
</trkpt>
<trkpt lat="48.018444" lon="11.1729">
<ele>504.34</ele>
<time>2022-05-26T10:20:52Z</time>
</trkpt>
<trkpt lat="48.018482" lon="11.172925">
<ele>504.34</ele>
<time>2022-05-26T10:20:53Z</time>
</trkpt>
<trkpt lat="48.018524" lon="11.17295">
<ele>504.34</ele>
<time>2022-05-26T10:20:54Z</time>
</trkpt>
<trkpt lat="48.01857" lon="11.172972">
<ele>504.34</ele>
<time>2022-05-26T10:20:55Z</time>
</trkpt>
<trkpt lat="48.018604" lon="11.172987">
<ele>504.067</ele>
<time>2022-05-26T10:20:56Z</time>
</trkpt>
<trkpt lat="48.018631" lon="11.172995">
<ele>503.85</ele>
<time>2022-05-26T10:20:57Z</time>
</trkpt>
<trkpt lat="48.018673" lon="11.173002">
<ele>503.679</ele>
<time>2022-05-26T10:20:58Z</time>
</trkpt>
<trkpt lat="48.018711" lon="11.173002">
<ele>503.576</ele>
<time>2022-05-26T10:20:59Z</time>
</trkpt>
<trkpt lat="48.018745" lon="11.172995">
<ele>503.47</ele>
<time>2022-05-26T10:21:00Z</time>
</trkpt>
<trkpt lat="48.018784" lon="11.172987">
<ele>503.388</ele>
<time>2022-05-26T10:21:01Z</time>
</trkpt>
<trkpt lat="48.018829" lon="11.172985">
<ele>503.328</ele>
<time>2022-05-26T10:21:02Z</time>
</trkpt>
<trkpt lat="48.018871" lon="11.172992">
<ele>503.298</ele>
<time>2022-05-26T10:21:03Z</time>
</trkpt>
<trkpt lat="48.018921" lon="11.173009">
<ele>503.298</ele>
<time>2022-05-26T10:21:04Z</time>
</trkpt>
<trkpt lat="48.018963" lon="11.173028">
<ele>503.298</ele>
<time>2022-05-26T10:21:05Z</time>
</trkpt>
<trkpt lat="48.019009" lon="11.173046">
<ele>503.298</ele>
<time>2022-05-26T10:21:06Z</time>
</trkpt>
<trkpt lat="48.019047" lon="11.173059">
<ele>503.298</ele>
<time>2022-05-26T10:21:07Z</time>
</trkpt>
<trkpt lat="48.019085" lon="11.173068">
<ele>503.298</ele>
<time>2022-05-26T10:21:08Z</time>
</trkpt>
<trkpt lat="48.019119" lon="11.173081">
<ele>503.298</ele>
<time>2022-05-26T10:21:09Z</time>
</trkpt>
<trkpt lat="48.019154" lon="11.173093">
<ele>503.298</ele>
<time>2022-05-26T10:21:10Z</time>
</trkpt>
<trkpt lat="48.01918" lon="11.173109">
<ele>503.298</ele>
<time>2022-05-26T10:21:11Z</time>
</trkpt>
<trkpt lat="48.019215" lon="11.173125">
<ele>503.298</ele>
<time>2022-05-26T10:21:12Z</time>
</trkpt>
<trkpt lat="48.019241" lon="11.173141">
<ele>503.298</ele>
<time>2022-05-26T10:21:13Z</time>
</trkpt>
<trkpt lat="48.019276" lon="11.17316">
<ele>503.298</ele>
<time>2022-05-26T10:21:14Z</time>
</trkpt>
<trkpt lat="48.019302" lon="11.173177">
<ele>503.298</ele>
<time>2022-05-26T10:21:15Z</time>
</trkpt>
<trkpt lat="48.019329" lon="11.173191">
<ele>503.298</ele>
<time>2022-05-26T10:21:16Z</time>
</trkpt>
<trkpt lat="48.019363" lon="11.173206">
<ele>503.298</ele>
<time>2022-05-26T10:21:17Z</time>
</trkpt>
<trkpt lat="48.019409" lon="11.173237">
<ele>503.298</ele>
<time>2022-05-26T10:21:18Z</time>
</trkpt>
<trkpt lat="48.01944" lon="11.173258">
<ele>503.298</ele>
<time>2022-05-26T10:21:19Z</time>
</trkpt>
<trkpt lat="48.019478" lon="11.173285">
<ele>503.298</ele>
<time>2022-05-26T10:21:20Z</time>
</trkpt>
<trkpt lat="48.01952" lon="11.173315">
<ele>503.608</ele>
<time>2022-05-26T10:21:21Z</time>
</trkpt>
<trkpt lat="48.019558" lon="11.17334">
<ele>503.834</ele>
<time>2022-05-26T10:21:22Z</time>
</trkpt>
<trkpt lat="48.019585" lon="11.173362">
<ele>503.999</ele>
<time>2022-05-26T10:21:23Z</time>
</trkpt>
<trkpt lat="48.019615" lon="11.173388">
<ele>504.111</ele>
<time>2022-05-26T10:21:24Z</time>
</trkpt>
<trkpt lat="48.019642" lon="11.173417">
<ele>504.18</ele>
<time>2022-05-26T10:21:25Z</time>
</trkpt>
<trkpt lat="48.019676" lon="11.173443">
<ele>504.223</ele>
<time>2022-05-26T10:21:26Z</time>
</trkpt>
<trkpt lat="48.019711" lon="11.173468">
<ele>504.253</ele>
<time>2022-05-26T10:21:27Z</time>
</trkpt>
<trkpt lat="48.019749" lon="11.173497">
<ele>504.253</ele>
<time>2022-05-26T10:21:28Z</time>
</trkpt>
<trkpt lat="48.019779" lon="11.173529">
<ele>504.253</ele>
<time>2022-05-26T10:21:29Z</time>
</trkpt>
<trkpt lat="48.019806" lon="11.173553">
<ele>504.253</ele>
<time>2022-05-26T10:21:30Z</time>
</trkpt>
<trkpt lat="48.019836" lon="11.173578">
<ele>504.545</ele>
<time>2022-05-26T10:21:31Z</time>
</trkpt>
<trkpt lat="48.019867" lon="11.173606">
<ele>504.765</ele>
<time>2022-05-26T10:21:32Z</time>
</trkpt>
<trkpt lat="48.019897" lon="11.173638">
<ele>504.927</ele>
<time>2022-05-26T10:21:33Z</time>
</trkpt>
<trkpt lat="48.019932" lon="11.173673">
<ele>505.044</ele>
<time>2022-05-26T10:21:34Z</time>
</trkpt>
<trkpt lat="48.019974" lon="11.17371">
<ele>505.124</ele>
<time>2022-05-26T10:21:35Z</time>
</trkpt>
<trkpt lat="48.020012" lon="11.173744">
<ele>505.182</ele>
<time>2022-05-26T10:21:36Z</time>
</trkpt>
<trkpt lat="48.020073" lon="11.173783">
<ele>505.208</ele>
<time>2022-05-26T10:21:37Z</time>
</trkpt>
<trkpt lat="48.020126" lon="11.173823">
<ele>505.208</ele>
<time>2022-05-26T10:21:38Z</time>
</trkpt>
<trkpt lat="48.020164" lon="11.173862">
<ele>505.208</ele>
<time>2022-05-26T10:21:39Z</time>
</trkpt>
<trkpt lat="48.02021" lon="11.173899">
<ele>505.208</ele>
<time>2022-05-26T10:21:40Z</time>
</trkpt>
<trkpt lat="48.020229" lon="11.173933">
<ele>505.208</ele>
<time>2022-05-26T10:21:41Z</time>
</trkpt>
<trkpt lat="48.02026" lon="11.17397">
<ele>505.208</ele>
<time>2022-05-26T10:21:42Z</time>
</trkpt>
<trkpt lat="48.020287" lon="11.174">
<ele>505.208</ele>
<time>2022-05-26T10:21:43Z</time>
</trkpt>
<trkpt lat="48.020325" lon="11.174035">
<ele>505.208</ele>
<time>2022-05-26T10:21:44Z</time>
</trkpt>
<trkpt lat="48.020355" lon="11.174065">
<ele>505.208</ele>
<time>2022-05-26T10:21:45Z</time>
</trkpt>
<trkpt lat="48.020393" lon="11.174095">
<ele>505.208</ele>
<time>2022-05-26T10:21:46Z</time>
</trkpt>
<trkpt lat="48.020428" lon="11.174129">
<ele>505.208</ele>
<time>2022-05-26T10:21:47Z</time>
</trkpt>
<trkpt lat="48.020466" lon="11.174167">
<ele>505.208</ele>
<time>2022-05-26T10:21:48Z</time>
</trkpt>
<trkpt lat="48.0205" lon="11.174201">
<ele>505.208</ele>
<time>2022-05-26T10:21:49Z</time>
</trkpt>
<trkpt lat="48.02055" lon="11.17425">
<ele>505.208</ele>
<time>2022-05-26T10:21:50Z</time>
</trkpt>
<trkpt lat="48.020584" lon="11.174292">
<ele>505.208</ele>
<time>2022-05-26T10:21:51Z</time>
</trkpt>
<trkpt lat="48.02063" lon="11.174333">
<ele>505.208</ele>
<time>2022-05-26T10:21:52Z</time>
</trkpt>
<trkpt lat="48.020668" lon="11.17437">
<ele>505.489</ele>
<time>2022-05-26T10:21:53Z</time>
</trkpt>
<trkpt lat="48.020714" lon="11.174402">
<ele>505.695</ele>
<time>2022-05-26T10:21:54Z</time>
</trkpt>
<trkpt lat="48.020748" lon="11.174434">
<ele>505.848</ele>
<time>2022-05-26T10:21:55Z</time>
</trkpt>
<trkpt lat="48.020782" lon="11.174461">
<ele>505.958</ele>
<time>2022-05-26T10:21:56Z</time>
</trkpt>
<trkpt lat="48.020821" lon="11.174492">
<ele>506.035</ele>
<time>2022-05-26T10:21:57Z</time>
</trkpt>
<trkpt lat="48.020863" lon="11.174527">
<ele>506.087</ele>
<time>2022-05-26T10:21:58Z</time>
</trkpt>
<trkpt lat="48.020897" lon="11.174557">
<ele>506.138</ele>
<time>2022-05-26T10:21:59Z</time>
</trkpt>
<trkpt lat="48.020943" lon="11.174592">
<ele>506.163</ele>
<time>2022-05-26T10:22:00Z</time>
</trkpt>
<trkpt lat="48.020981" lon="11.174628">
<ele>506.163</ele>
<time>2022-05-26T10:22:01Z</time>
</trkpt>
<trkpt lat="48.021023" lon="11.174668">
<ele>506.163</ele>
<time>2022-05-26T10:22:02Z</time>
</trkpt>
<trkpt lat="48.021057" lon="11.174706">
<ele>506.413</ele>
<time>2022-05-26T10:22:03Z</time>
</trkpt>
<trkpt lat="48.021084" lon="11.17474">
<ele>506.6</ele>
<time>2022-05-26T10:22:04Z</time>
</trkpt>
<trkpt lat="48.021111" lon="11.174773">
<ele>506.734</ele>
<time>2022-05-26T10:22:05Z</time>
</trkpt>
<trkpt lat="48.021126" lon="11.174804">
<ele>506.839</ele>
<time>2022-05-26T10:22:06Z</time>
</trkpt>
<trkpt lat="48.021152" lon="11.17484">
<ele>506.913</ele>
<time>2022-05-26T10:22:07Z</time>
</trkpt>
<trkpt lat="48.021179" lon="11.174877">
<ele>506.962</ele>
<time>2022-05-26T10:22:08Z</time>
</trkpt>
<trkpt lat="48.021217" lon="11.174922">
<ele>507.005</ele>
<time>2022-05-26T10:22:09Z</time>
</trkpt>
<trkpt lat="48.021252" lon="11.174968">
<ele>507.032</ele>
<time>2022-05-26T10:22:10Z</time>
</trkpt>
<trkpt lat="48.021305" lon="11.17502">
<ele>507.032</ele>
<time>2022-05-26T10:22:11Z</time>
</trkpt>
<trkpt lat="48.021339" lon="11.17506">
<ele>507.032</ele>
<time>2022-05-26T10:22:12Z</time>
</trkpt>
<trkpt lat="48.021381" lon="11.175103">
<ele>507.032</ele>
<time>2022-05-26T10:22:13Z</time>
</trkpt>
<trkpt lat="48.02142" lon="11.175146">
<ele>507.032</ele>
<time>2022-05-26T10:22:14Z</time>
</trkpt>
<trkpt lat="48.021465" lon="11.175194">
<ele>507.032</ele>
<time>2022-05-26T10:22:15Z</time>
</trkpt>
<trkpt lat="48.021515" lon="11.175243">
<ele>507.032</ele>
<time>2022-05-26T10:22:16Z</time>
</trkpt>
<trkpt lat="48.021561" lon="11.175293">
<ele>507.032</ele>
<time>2022-05-26T10:22:17Z</time>
</trkpt>
<trkpt lat="48.02161" lon="11.17533">
<ele>507.032</ele>
<time>2022-05-26T10:22:18Z</time>
</trkpt>
<trkpt lat="48.021652" lon="11.175366">
<ele>507.032</ele>
<time>2022-05-26T10:22:19Z</time>
</trkpt>
<trkpt lat="48.021694" lon="11.175406">
<ele>507.032</ele>
<time>2022-05-26T10:22:20Z</time>
</trkpt>
<trkpt lat="48.021736" lon="11.175447">
<ele>507.032</ele>
<time>2022-05-26T10:22:21Z</time>
</trkpt>
<trkpt lat="48.021778" lon="11.175485">
<ele>507.032</ele>
<time>2022-05-26T10:22:22Z</time>
</trkpt>
<trkpt lat="48.021816" lon="11.175523">
<ele>507.032</ele>
<time>2022-05-26T10:22:23Z</time>
</trkpt>
<trkpt lat="48.021854" lon="11.17556">
<ele>507.032</ele>
<time>2022-05-26T10:22:24Z</time>
</trkpt>
<trkpt lat="48.021889" lon="11.175596">
<ele>507.032</ele>
<time>2022-05-26T10:22:25Z</time>
</trkpt>
<trkpt lat="48.021931" lon="11.175635">
<ele>507.269</ele>
<time>2022-05-26T10:22:26Z</time>
</trkpt>
<trkpt lat="48.021976" lon="11.17567">
<ele>507.466</ele>
<time>2022-05-26T10:22:27Z</time>
</trkpt>
<trkpt lat="48.022026" lon="11.175705">
<ele>507.616</ele>
<time>2022-05-26T10:22:28Z</time>
</trkpt>
<trkpt lat="48.022068" lon="11.175745">
<ele>507.718</ele>
<time>2022-05-26T10:22:29Z</time>
</trkpt>
<trkpt lat="48.022102" lon="11.17579">
<ele>507.83</ele>
<time>2022-05-26T10:22:30Z</time>
</trkpt>
<trkpt lat="48.022144" lon="11.175833">
<ele>507.915</ele>
<time>2022-05-26T10:22:31Z</time>
</trkpt>
<trkpt lat="48.022182" lon="11.175873">
<ele>507.965</ele>
<time>2022-05-26T10:22:32Z</time>
</trkpt>
<trkpt lat="48.022221" lon="11.175917">
<ele>507.987</ele>
<time>2022-05-26T10:22:33Z</time>
</trkpt>
<trkpt lat="48.022255" lon="11.175957">
<ele>507.987</ele>
<time>2022-05-26T10:22:34Z</time>
</trkpt>
<trkpt lat="48.022293" lon="11.175995">
<ele>507.987</ele>
<time>2022-05-26T10:22:35Z</time>
</trkpt>
<trkpt lat="48.022327" lon="11.176035">
<ele>507.987</ele>
<time>2022-05-26T10:22:36Z</time>
</trkpt>
<trkpt lat="48.022366" lon="11.176068">
<ele>507.987</ele>
<time>2022-05-26T10:22:37Z</time>
</trkpt>
<trkpt lat="48.022404" lon="11.176099">
<ele>507.987</ele>
<time>2022-05-26T10:22:38Z</time>
</trkpt>
<trkpt lat="48.022438" lon="11.176128">
<ele>507.988</ele>
<time>2022-05-26T10:22:39Z</time>
</trkpt>
<trkpt lat="48.022472" lon="11.176157">
<ele>507.987</ele>
<time>2022-05-26T10:22:40Z</time>
</trkpt>
<trkpt lat="48.022503" lon="11.176188">
<ele>507.987</ele>
<time>2022-05-26T10:22:41Z</time>
</trkpt>
<trkpt lat="48.022537" lon="11.176223">
<ele>507.987</ele>
<time>2022-05-26T10:22:42Z</time>
</trkpt>
<trkpt lat="48.022572" lon="11.176255">
<ele>507.987</ele>
<time>2022-05-26T10:22:43Z</time>
</trkpt>
<trkpt lat="48.022602" lon="11.176285">
<ele>507.987</ele>
<time>2022-05-26T10:22:44Z</time>
</trkpt>
<trkpt lat="48.022633" lon="11.176317">
<ele>507.987</ele>
<time>2022-05-26T10:22:45Z</time>
</trkpt>
<trkpt lat="48.022663" lon="11.176345">
<ele>507.987</ele>
<time>2022-05-26T10:22:46Z</time>
</trkpt>
<trkpt lat="48.022686" lon="11.176372">
<ele>507.987</ele>
<time>2022-05-26T10:22:47Z</time>
</trkpt>
<trkpt lat="48.022713" lon="11.176394">
<ele>507.987</ele>
<time>2022-05-26T10:22:48Z</time>
</trkpt>
<trkpt lat="48.022732" lon="11.176417">
<ele>507.987</ele>
<time>2022-05-26T10:22:49Z</time>
</trkpt>
<trkpt lat="48.022755" lon="11.176443">
<ele>507.987</ele>
<time>2022-05-26T10:22:50Z</time>
</trkpt>
<trkpt lat="48.022781" lon="11.176475">
<ele>507.987</ele>
<time>2022-05-26T10:22:51Z</time>
</trkpt>
<trkpt lat="48.0228" lon="11.176505">
<ele>507.987</ele>
<time>2022-05-26T10:22:52Z</time>
</trkpt>
<trkpt lat="48.022823" lon="11.176532">
<ele>507.987</ele>
<time>2022-05-26T10:22:53Z</time>
</trkpt>
<trkpt lat="48.02285" lon="11.176558">
<ele>507.987</ele>
<time>2022-05-26T10:22:54Z</time>
</trkpt>
<trkpt lat="48.022877" lon="11.176587">
<ele>508.22</ele>
<time>2022-05-26T10:22:55Z</time>
</trkpt>
<trkpt lat="48.022911" lon="11.176619">
<ele>508.407</ele>
<time>2022-05-26T10:22:56Z</time>
</trkpt>
<trkpt lat="48.022942" lon="11.176646">
<ele>508.547</ele>
<time>2022-05-26T10:22:57Z</time>
</trkpt>
<trkpt lat="48.022972" lon="11.176671">
<ele>508.65</ele>
<time>2022-05-26T10:22:58Z</time>
</trkpt>
<trkpt lat="48.023014" lon="11.176706">
<ele>508.717</ele>
<time>2022-05-26T10:22:59Z</time>
</trkpt>
<trkpt lat="48.023056" lon="11.176746">
<ele>508.794</ele>
<time>2022-05-26T10:23:00Z</time>
</trkpt>
<trkpt lat="48.023106" lon="11.17679">
<ele>508.838</ele>
<time>2022-05-26T10:23:01Z</time>
</trkpt>
<trkpt lat="48.023151" lon="11.176837">
<ele>508.856</ele>
<time>2022-05-26T10:23:02Z</time>
</trkpt>
<trkpt lat="48.023197" lon="11.176882">
<ele>508.856</ele>
<time>2022-05-26T10:23:03Z</time>
</trkpt>
<trkpt lat="48.023243" lon="11.176929">
<ele>508.856</ele>
<time>2022-05-26T10:23:04Z</time>
</trkpt>
<trkpt lat="48.023289" lon="11.17698">
<ele>508.856</ele>
<time>2022-05-26T10:23:05Z</time>
</trkpt>
<trkpt lat="48.023338" lon="11.17703">
<ele>508.856</ele>
<time>2022-05-26T10:23:06Z</time>
</trkpt>
<trkpt lat="48.023392" lon="11.177085">
<ele>508.856</ele>
<time>2022-05-26T10:23:07Z</time>
</trkpt>
<trkpt lat="48.023441" lon="11.177143">
<ele>508.856</ele>
<time>2022-05-26T10:23:08Z</time>
</trkpt>
<trkpt lat="48.023495" lon="11.177203">
<ele>508.658</ele>
<time>2022-05-26T10:23:09Z</time>
</trkpt>
<trkpt lat="48.023548" lon="11.177258">
<ele>508.469</ele>
<time>2022-05-26T10:23:10Z</time>
</trkpt>
<trkpt lat="48.023594" lon="11.177314">
<ele>508.316</ele>
<time>2022-05-26T10:23:11Z</time>
</trkpt>
<trkpt lat="48.02364" lon="11.177366">
<ele>508.201</ele>
<time>2022-05-26T10:23:12Z</time>
</trkpt>
<trkpt lat="48.023685" lon="11.177422">
<ele>508.114</ele>
<time>2022-05-26T10:23:13Z</time>
</trkpt>
<trkpt lat="48.023727" lon="11.177475">
<ele>508.051</ele>
<time>2022-05-26T10:23:14Z</time>
</trkpt>
<trkpt lat="48.023766" lon="11.177532">
<ele>508.009</ele>
<time>2022-05-26T10:23:15Z</time>
</trkpt>
<trkpt lat="48.023808" lon="11.177588">
<ele>507.987</ele>
<time>2022-05-26T10:23:16Z</time>
</trkpt>
<trkpt lat="48.023846" lon="11.177649">
<ele>507.987</ele>
<time>2022-05-26T10:23:17Z</time>
</trkpt>
<trkpt lat="48.023888" lon="11.177709">
<ele>507.987</ele>
<time>2022-05-26T10:23:18Z</time>
</trkpt>
<trkpt lat="48.023926" lon="11.177771">
<ele>507.987</ele>
<time>2022-05-26T10:23:19Z</time>
</trkpt>
<trkpt lat="48.023964" lon="11.17783">
<ele>507.987</ele>
<time>2022-05-26T10:23:20Z</time>
</trkpt>
<trkpt lat="48.024014" lon="11.177893">
<ele>507.987</ele>
<time>2022-05-26T10:23:21Z</time>
</trkpt>
<trkpt lat="48.024055" lon="11.177957">
<ele>507.678</ele>
<time>2022-05-26T10:23:22Z</time>
</trkpt>
<trkpt lat="48.024101" lon="11.178023">
<ele>507.44</ele>
<time>2022-05-26T10:23:23Z</time>
</trkpt>
<trkpt lat="48.024147" lon="11.178093">
<ele>507.263</ele>
<time>2022-05-26T10:23:24Z</time>
</trkpt>
<trkpt lat="48.024185" lon="11.178166">
<ele>507.133</ele>
<time>2022-05-26T10:23:25Z</time>
</trkpt>
<trkpt lat="48.024235" lon="11.178242">
<ele>507.047</ele>
<time>2022-05-26T10:23:26Z</time>
</trkpt>
<trkpt lat="48.024284" lon="11.17832">
<ele>507.002</ele>
<time>2022-05-26T10:23:27Z</time>
</trkpt>
<trkpt lat="48.02433" lon="11.178398">
<ele>506.73</ele>
<time>2022-05-26T10:23:28Z</time>
</trkpt>
<trkpt lat="48.024376" lon="11.178473">
<ele>506.538</ele>
<time>2022-05-26T10:23:29Z</time>
</trkpt>
<trkpt lat="48.024414" lon="11.178548">
<ele>506.368</ele>
<time>2022-05-26T10:23:30Z</time>
</trkpt>
<trkpt lat="48.02446" lon="11.178623">
<ele>506.235</ele>
<time>2022-05-26T10:23:31Z</time>
</trkpt>
<trkpt lat="48.024506" lon="11.178697">
<ele>506.133</ele>
<time>2022-05-26T10:23:32Z</time>
</trkpt>
<trkpt lat="48.024544" lon="11.178766">
<ele>506.06</ele>
<time>2022-05-26T10:23:33Z</time>
</trkpt>
<trkpt lat="48.02459" lon="11.178837">
<ele>506.014</ele>
<time>2022-05-26T10:23:34Z</time>
</trkpt>
<trkpt lat="48.024632" lon="11.178902">
<ele>505.99</ele>
<time>2022-05-26T10:23:35Z</time>
</trkpt>
<trkpt lat="48.02467" lon="11.178967">
<ele>505.99</ele>
<time>2022-05-26T10:23:36Z</time>
</trkpt>
<trkpt lat="48.024708" lon="11.179027">
<ele>505.99</ele>
<time>2022-05-26T10:23:37Z</time>
</trkpt>
<trkpt lat="48.024746" lon="11.179087">
<ele>505.99</ele>
<time>2022-05-26T10:23:38Z</time>
</trkpt>
<trkpt lat="48.024784" lon="11.179149">
<ele>505.99</ele>
<time>2022-05-26T10:23:39Z</time>
</trkpt>
<trkpt lat="48.024822" lon="11.179212">
<ele>505.99</ele>
<time>2022-05-26T10:23:40Z</time>
</trkpt>
<trkpt lat="48.02486" lon="11.179276">
<ele>505.99</ele>
<time>2022-05-26T10:23:41Z</time>
</trkpt>
<trkpt lat="48.024895" lon="11.17934">
<ele>505.99</ele>
<time>2022-05-26T10:23:42Z</time>
</trkpt>
<trkpt lat="48.024925" lon="11.179405">
<ele>505.99</ele>
<time>2022-05-26T10:23:43Z</time>
</trkpt>
<trkpt lat="48.02496" lon="11.179466">
<ele>505.99</ele>
<time>2022-05-26T10:23:44Z</time>
</trkpt>
<trkpt lat="48.024994" lon="11.179528">
<ele>505.99</ele>
<time>2022-05-26T10:23:45Z</time>
</trkpt>
<trkpt lat="48.025028" lon="11.179587">
<ele>505.99</ele>
<time>2022-05-26T10:23:46Z</time>
</trkpt>
<trkpt lat="48.025066" lon="11.179652">
<ele>505.99</ele>
<time>2022-05-26T10:23:47Z</time>
</trkpt>
<trkpt lat="48.025101" lon="11.179719">
<ele>505.99</ele>
<time>2022-05-26T10:23:48Z</time>
</trkpt>
<trkpt lat="48.025131" lon="11.179787">
<ele>505.99</ele>
<time>2022-05-26T10:23:49Z</time>
</trkpt>
<trkpt lat="48.025166" lon="11.17985">
<ele>505.99</ele>
<time>2022-05-26T10:23:50Z</time>
</trkpt>
<trkpt lat="48.0252" lon="11.17991">
<ele>505.99</ele>
<time>2022-05-26T10:23:51Z</time>
</trkpt>
<trkpt lat="48.02523" lon="11.179972">
<ele>505.99</ele>
<time>2022-05-26T10:23:52Z</time>
</trkpt>
<trkpt lat="48.025265" lon="11.180034">
<ele>505.99</ele>
<time>2022-05-26T10:23:53Z</time>
</trkpt>
<trkpt lat="48.025295" lon="11.180095">
<ele>505.99</ele>
<time>2022-05-26T10:23:54Z</time>
</trkpt>
<trkpt lat="48.025333" lon="11.180153">
<ele>505.99</ele>
<time>2022-05-26T10:23:55Z</time>
</trkpt>
<trkpt lat="48.025364" lon="11.180207">
<ele>506.252</ele>
<time>2022-05-26T10:23:56Z</time>
</trkpt>
<trkpt lat="48.025402" lon="11.180257">
<ele>506.46</ele>
<time>2022-05-26T10:23:57Z</time>
</trkpt>
<trkpt lat="48.025436" lon="11.180305">
<ele>506.625</ele>
<time>2022-05-26T10:23:58Z</time>
</trkpt>
<trkpt lat="48.025467" lon="11.180356">
<ele>506.74</ele>
<time>2022-05-26T10:23:59Z</time>
</trkpt>
<trkpt lat="48.025501" lon="11.180413">
<ele>506.86</ele>
<time>2022-05-26T10:24:00Z</time>
</trkpt>
<trkpt lat="48.025532" lon="11.180473">
<ele>506.947</ele>
<time>2022-05-26T10:24:01Z</time>
</trkpt>
<trkpt lat="48.025566" lon="11.180529">
<ele>507.004</ele>
<time>2022-05-26T10:24:02Z</time>
</trkpt>
<trkpt lat="48.025604" lon="11.180582">
<ele>507.032</ele>
<time>2022-05-26T10:24:03Z</time>
</trkpt>
<trkpt lat="48.025639" lon="11.180634">
<ele>507.032</ele>
<time>2022-05-26T10:24:04Z</time>
</trkpt>
<trkpt lat="48.025673" lon="11.18069">
<ele>507.032</ele>
<time>2022-05-26T10:24:05Z</time>
</trkpt>
<trkpt lat="48.025711" lon="11.180746">
<ele>507.032</ele>
<time>2022-05-26T10:24:06Z</time>
</trkpt>
<trkpt lat="48.025745" lon="11.180799">
<ele>507.032</ele>
<time>2022-05-26T10:24:07Z</time>
</trkpt>
<trkpt lat="48.025784" lon="11.18085">
<ele>507.032</ele>
<time>2022-05-26T10:24:08Z</time>
</trkpt>
<trkpt lat="48.025822" lon="11.180903">
<ele>507.032</ele>
<time>2022-05-26T10:24:09Z</time>
</trkpt>
<trkpt lat="48.025856" lon="11.180958">
<ele>507.032</ele>
<time>2022-05-26T10:24:10Z</time>
</trkpt>
<trkpt lat="48.025898" lon="11.181008">
<ele>507.032</ele>
<time>2022-05-26T10:24:11Z</time>
</trkpt>
<trkpt lat="48.025928" lon="11.181053">
<ele>507.032</ele>
<time>2022-05-26T10:24:12Z</time>
</trkpt>
<trkpt lat="48.025959" lon="11.181096">
<ele>507.032</ele>
<time>2022-05-26T10:24:13Z</time>
</trkpt>
<trkpt lat="48.025986" lon="11.18114">
<ele>507.032</ele>
<time>2022-05-26T10:24:14Z</time>
</trkpt>
<trkpt lat="48.02602" lon="11.181184">
<ele>507.032</ele>
<time>2022-05-26T10:24:15Z</time>
</trkpt>
<trkpt lat="48.026047" lon="11.18123">
<ele>507.032</ele>
<time>2022-05-26T10:24:16Z</time>
</trkpt>
<trkpt lat="48.026066" lon="11.181276">
<ele>507.032</ele>
<time>2022-05-26T10:24:17Z</time>
</trkpt>
<trkpt lat="48.026089" lon="11.181327">
<ele>507.032</ele>
<time>2022-05-26T10:24:18Z</time>
</trkpt>
<trkpt lat="48.026119" lon="11.181381">
<ele>507.032</ele>
<time>2022-05-26T10:24:19Z</time>
</trkpt>
<trkpt lat="48.026146" lon="11.181434">
<ele>507.032</ele>
<time>2022-05-26T10:24:20Z</time>
</trkpt>
<trkpt lat="48.026176" lon="11.181496">
<ele>507.326</ele>
<time>2022-05-26T10:24:21Z</time>
</trkpt>
<trkpt lat="48.026215" lon="11.18155">
<ele>507.551</ele>
<time>2022-05-26T10:24:22Z</time>
</trkpt>
<trkpt lat="48.026253" lon="11.181601">
<ele>507.719</ele>
<time>2022-05-26T10:24:23Z</time>
</trkpt>
<trkpt lat="48.026287" lon="11.181641">
<ele>507.845</ele>
<time>2022-05-26T10:24:24Z</time>
</trkpt>
<trkpt lat="48.026325" lon="11.18168">
<ele>507.689</ele>
<time>2022-05-26T10:24:25Z</time>
</trkpt>
<trkpt lat="48.026363" lon="11.181725">
<ele>507.557</ele>
<time>2022-05-26T10:24:26Z</time>
</trkpt>
<trkpt lat="48.026402" lon="11.181768">
<ele>507.442</ele>
<time>2022-05-26T10:24:27Z</time>
</trkpt>
<trkpt lat="48.026443" lon="11.181815">
<ele>507.338</ele>
<time>2022-05-26T10:24:28Z</time>
</trkpt>
<trkpt lat="48.026482" lon="11.181862">
<ele>507.304</ele>
<time>2022-05-26T10:24:29Z</time>
</trkpt>
<trkpt lat="48.026531" lon="11.181911">
<ele>507.192</ele>
<time>2022-05-26T10:24:30Z</time>
</trkpt>
<trkpt lat="48.026577" lon="11.18196">
<ele>507.107</ele>
<time>2022-05-26T10:24:31Z</time>
</trkpt>
<trkpt lat="48.026627" lon="11.182005">
<ele>507.054</ele>
<time>2022-05-26T10:24:32Z</time>
</trkpt>
<trkpt lat="48.026672" lon="11.182055">
<ele>507.032</ele>
<time>2022-05-26T10:24:33Z</time>
</trkpt>
<trkpt lat="48.026722" lon="11.182112">
<ele>507.032</ele>
<time>2022-05-26T10:24:34Z</time>
</trkpt>
<trkpt lat="48.026764" lon="11.182164">
<ele>507.032</ele>
<time>2022-05-26T10:24:35Z</time>
</trkpt>
<trkpt lat="48.026817" lon="11.182223">
<ele>506.803</ele>
<time>2022-05-26T10:24:36Z</time>
</trkpt>
<trkpt lat="48.026859" lon="11.182281">
<ele>506.627</ele>
<time>2022-05-26T10:24:37Z</time>
</trkpt>
<trkpt lat="48.026913" lon="11.182339">
<ele>506.493</ele>
<time>2022-05-26T10:24:38Z</time>
</trkpt>
<trkpt lat="48.026958" lon="11.18239">
<ele>506.401</ele>
<time>2022-05-26T10:24:39Z</time>
</trkpt>
<trkpt lat="48.027008" lon="11.182442">
<ele>506.3</ele>
<time>2022-05-26T10:24:40Z</time>
</trkpt>
<trkpt lat="48.027054" lon="11.182483">
<ele>506.231</ele>
<time>2022-05-26T10:24:41Z</time>
</trkpt>
<trkpt lat="48.027103" lon="11.18253">
<ele>506.186</ele>
<time>2022-05-26T10:24:42Z</time>
</trkpt>
<trkpt lat="48.027149" lon="11.182571">
<ele>506.163</ele>
<time>2022-05-26T10:24:43Z</time>
</trkpt>
<trkpt lat="48.027191" lon="11.182613">
<ele>506.163</ele>
<time>2022-05-26T10:24:44Z</time>
</trkpt>
<trkpt lat="48.027229" lon="11.182654">
<ele>506.163</ele>
<time>2022-05-26T10:24:45Z</time>
</trkpt>
<trkpt lat="48.027271" lon="11.182692">
<ele>506.163</ele>
<time>2022-05-26T10:24:46Z</time>
</trkpt>
<trkpt lat="48.027309" lon="11.182725">
<ele>506.369</ele>
<time>2022-05-26T10:24:47Z</time>
</trkpt>
<trkpt lat="48.027348" lon="11.182763">
<ele>506.535</ele>
<time>2022-05-26T10:24:48Z</time>
</trkpt>
<trkpt lat="48.027382" lon="11.18281">
<ele>506.657</ele>
<time>2022-05-26T10:24:49Z</time>
</trkpt>
<trkpt lat="48.02742" lon="11.182856">
<ele>506.785</ele>
<time>2022-05-26T10:24:50Z</time>
</trkpt>
<trkpt lat="48.027454" lon="11.182899">
<ele>506.879</ele>
<time>2022-05-26T10:24:51Z</time>
</trkpt>
<trkpt lat="48.027493" lon="11.182945">
<ele>507.188</ele>
<time>2022-05-26T10:24:52Z</time>
</trkpt>
<trkpt lat="48.027531" lon="11.182992">
<ele>507.44</ele>
<time>2022-05-26T10:24:53Z</time>
</trkpt>
<trkpt lat="48.027573" lon="11.183038">
<ele>507.623</ele>
<time>2022-05-26T10:24:54Z</time>
</trkpt>
<trkpt lat="48.027611" lon="11.183084">
<ele>507.812</ele>
<time>2022-05-26T10:24:55Z</time>
</trkpt>
<trkpt lat="48.027645" lon="11.183134">
<ele>507.892</ele>
<time>2022-05-26T10:24:56Z</time>
</trkpt>
<trkpt lat="48.027679" lon="11.183182">
<ele>507.941</ele>
<time>2022-05-26T10:24:57Z</time>
</trkpt>
<trkpt lat="48.027718" lon="11.183227">
<ele>507.966</ele>
<time>2022-05-26T10:24:58Z</time>
</trkpt>
<trkpt lat="48.027752" lon="11.18327">
<ele>507.987</ele>
<time>2022-05-26T10:24:59Z</time>
</trkpt>
<trkpt lat="48.02779" lon="11.183314">
<ele>507.987</ele>
<time>2022-05-26T10:25:00Z</time>
</trkpt>
<trkpt lat="48.027828" lon="11.183362">
<ele>507.987</ele>
<time>2022-05-26T10:25:01Z</time>
</trkpt>
<trkpt lat="48.027863" lon="11.183412">
<ele>507.987</ele>
<time>2022-05-26T10:25:02Z</time>
</trkpt>
<trkpt lat="48.027897" lon="11.183459">
<ele>508.229</ele>
<time>2022-05-26T10:25:03Z</time>
</trkpt>
<trkpt lat="48.027931" lon="11.18351">
<ele>508.418</ele>
<time>2022-05-26T10:25:04Z</time>
</trkpt>
<trkpt lat="48.027958" lon="11.183558">
<ele>508.562</ele>
<time>2022-05-26T10:25:05Z</time>
</trkpt>
<trkpt lat="48.027988" lon="11.183603">
<ele>508.669</ele>
<time>2022-05-26T10:25:06Z</time>
</trkpt>
<trkpt lat="48.028011" lon="11.18365">
<ele>508.743</ele>
<time>2022-05-26T10:25:07Z</time>
</trkpt>
<trkpt lat="48.028042" lon="11.183703">
<ele>508.793</ele>
<time>2022-05-26T10:25:08Z</time>
</trkpt>
<trkpt lat="48.028069" lon="11.183762">
<ele>508.83</ele>
<time>2022-05-26T10:25:09Z</time>
</trkpt>
<trkpt lat="48.028099" lon="11.183824">
<ele>508.613</ele>
<time>2022-05-26T10:25:10Z</time>
</trkpt>
<trkpt lat="48.028133" lon="11.183887">
<ele>508.422</ele>
<time>2022-05-26T10:25:11Z</time>
</trkpt>
<trkpt lat="48.028164" lon="11.183943">
<ele>508.256</ele>
<time>2022-05-26T10:25:12Z</time>
</trkpt>
<trkpt lat="48.028198" lon="11.183997">
<ele>508.124</ele>
<time>2022-05-26T10:25:13Z</time>
</trkpt>
<trkpt lat="48.028236" lon="11.184045">
<ele>508.028</ele>
<time>2022-05-26T10:25:14Z</time>
</trkpt>
<trkpt lat="48.028275" lon="11.184093">
<ele>507.961</ele>
<time>2022-05-26T10:25:15Z</time>
</trkpt>
<trkpt lat="48.028309" lon="11.184136">
<ele>507.921</ele>
<time>2022-05-26T10:25:16Z</time>
</trkpt>
<trkpt lat="48.028351" lon="11.184178">
<ele>507.901</ele>
<time>2022-05-26T10:25:17Z</time>
</trkpt>
<trkpt lat="48.028393" lon="11.184217">
<ele>507.9</ele>
<time>2022-05-26T10:25:18Z</time>
</trkpt>
<trkpt lat="48.028435" lon="11.184257">
<ele>507.9</ele>
<time>2022-05-26T10:25:19Z</time>
</trkpt>
<trkpt lat="48.028481" lon="11.184293">
<ele>507.9</ele>
<time>2022-05-26T10:25:20Z</time>
</trkpt>
<trkpt lat="48.028522" lon="11.184332">
<ele>507.9</ele>
<time>2022-05-26T10:25:21Z</time>
</trkpt>
<trkpt lat="48.028564" lon="11.184375">
<ele>507.9</ele>
<time>2022-05-26T10:25:22Z</time>
</trkpt>
<trkpt lat="48.028618" lon="11.184422">
<ele>507.9</ele>
<time>2022-05-26T10:25:23Z</time>
</trkpt>
<trkpt lat="48.028664" lon="11.184477">
<ele>507.9</ele>
<time>2022-05-26T10:25:24Z</time>
</trkpt>
<trkpt lat="48.028709" lon="11.184538">
<ele>507.901</ele>
<time>2022-05-26T10:25:25Z</time>
</trkpt>
<trkpt lat="48.028755" lon="11.184592">
<ele>507.9</ele>
<time>2022-05-26T10:25:26Z</time>
</trkpt>
<trkpt lat="48.028801" lon="11.184645">
<ele>507.9</ele>
<time>2022-05-26T10:25:27Z</time>
</trkpt>
<trkpt lat="48.028847" lon="11.184697">
<ele>507.9</ele>
<time>2022-05-26T10:25:28Z</time>
</trkpt>
<trkpt lat="48.028885" lon="11.184748">
<ele>507.901</ele>
<time>2022-05-26T10:25:29Z</time>
</trkpt>
<trkpt lat="48.028927" lon="11.184798">
<ele>507.9</ele>
<time>2022-05-26T10:25:30Z</time>
</trkpt>
<trkpt lat="48.028969" lon="11.18485">
<ele>507.901</ele>
<time>2022-05-26T10:25:31Z</time>
</trkpt>
<trkpt lat="48.029011" lon="11.184896">
<ele>507.901</ele>
<time>2022-05-26T10:25:32Z</time>
</trkpt>
<trkpt lat="48.029049" lon="11.184947">
<ele>507.9</ele>
<time>2022-05-26T10:25:33Z</time>
</trkpt>
<trkpt lat="48.029099" lon="11.184999">
<ele>507.9</ele>
<time>2022-05-26T10:25:34Z</time>
</trkpt>
<trkpt lat="48.02914" lon="11.185047">
<ele>507.9</ele>
<time>2022-05-26T10:25:35Z</time>
</trkpt>
<trkpt lat="48.029175" lon="11.185097">
<ele>507.901</ele>
<time>2022-05-26T10:25:36Z</time>
</trkpt>
<trkpt lat="48.029213" lon="11.185143">
<ele>507.901</ele>
<time>2022-05-26T10:25:37Z</time>
</trkpt>
<trkpt lat="48.029255" lon="11.185187">
<ele>507.9</ele>
<time>2022-05-26T10:25:38Z</time>
</trkpt>
<trkpt lat="48.029293" lon="11.185231">
<ele>507.901</ele>
<time>2022-05-26T10:25:39Z</time>
</trkpt>
<trkpt lat="48.029335" lon="11.185275">
<ele>507.9</ele>
<time>2022-05-26T10:25:40Z</time>
</trkpt>
<trkpt lat="48.029373" lon="11.185317">
<ele>507.901</ele>
<time>2022-05-26T10:25:41Z</time>
</trkpt>
<trkpt lat="48.029411" lon="11.185362">
<ele>507.901</ele>
<time>2022-05-26T10:25:42Z</time>
</trkpt>
<trkpt lat="48.029446" lon="11.185407">
<ele>508.139</ele>
<time>2022-05-26T10:25:43Z</time>
</trkpt>
<trkpt lat="48.02948" lon="11.185443">
<ele>508.328</ele>
<time>2022-05-26T10:25:44Z</time>
</trkpt>
<trkpt lat="48.029518" lon="11.185487">
<ele>508.471</ele>
<time>2022-05-26T10:25:45Z</time>
</trkpt>
<trkpt lat="48.029556" lon="11.185527">
<ele>508.579</ele>
<time>2022-05-26T10:25:46Z</time>
</trkpt>
<trkpt lat="48.029591" lon="11.18556">
<ele>508.652</ele>
<time>2022-05-26T10:25:47Z</time>
</trkpt>
<trkpt lat="48.029621" lon="11.185596">
<ele>508.703</ele>
<time>2022-05-26T10:25:48Z</time>
</trkpt>
<trkpt lat="48.029655" lon="11.18563">
<ele>508.743</ele>
<time>2022-05-26T10:25:49Z</time>
</trkpt>
<trkpt lat="48.029686" lon="11.185658">
<ele>508.769</ele>
<time>2022-05-26T10:25:50Z</time>
</trkpt>
<trkpt lat="48.029716" lon="11.185692">
<ele>508.769</ele>
<time>2022-05-26T10:25:51Z</time>
</trkpt>
<trkpt lat="48.029743" lon="11.185726">
<ele>508.769</ele>
<time>2022-05-26T10:25:52Z</time>
</trkpt>
<trkpt lat="48.02977" lon="11.18576">
<ele>508.769</ele>
<time>2022-05-26T10:25:53Z</time>
</trkpt>
<trkpt lat="48.0298" lon="11.185797">
<ele>509.019</ele>
<time>2022-05-26T10:25:54Z</time>
</trkpt>
<trkpt lat="48.029831" lon="11.185837">
<ele>509.226</ele>
<time>2022-05-26T10:25:55Z</time>
</trkpt>
<trkpt lat="48.029865" lon="11.185875">
<ele>509.383</ele>
<time>2022-05-26T10:25:56Z</time>
</trkpt>
<trkpt lat="48.029896" lon="11.185912">
<ele>509.506</ele>
<time>2022-05-26T10:25:57Z</time>
</trkpt>
<trkpt lat="48.02993" lon="11.185954">
<ele>509.59</ele>
<time>2022-05-26T10:25:58Z</time>
</trkpt>
<trkpt lat="48.029964" lon="11.185996">
<ele>509.647</ele>
<time>2022-05-26T10:25:59Z</time>
</trkpt>
<trkpt lat="48.029999" lon="11.18604">
<ele>509.945</ele>
<time>2022-05-26T10:26:00Z</time>
</trkpt>
<trkpt lat="48.030041" lon="11.18608">
<ele>510.168</ele>
<time>2022-05-26T10:26:01Z</time>
</trkpt>
<trkpt lat="48.030087" lon="11.186122">
<ele>510.328</ele>
<time>2022-05-26T10:26:02Z</time>
</trkpt>
<trkpt lat="48.030121" lon="11.186162">
<ele>510.453</ele>
<time>2022-05-26T10:26:03Z</time>
</trkpt>
<trkpt lat="48.030159" lon="11.186198">
<ele>510.55</ele>
<time>2022-05-26T10:26:04Z</time>
</trkpt>
<trkpt lat="48.030201" lon="11.186235">
<ele>510.607</ele>
<time>2022-05-26T10:26:05Z</time>
</trkpt>
<trkpt lat="48.030239" lon="11.186275">
<ele>510.933</ele>
<time>2022-05-26T10:26:06Z</time>
</trkpt>
<trkpt lat="48.030273" lon="11.186316">
<ele>511.185</ele>
<time>2022-05-26T10:26:07Z</time>
</trkpt>
<trkpt lat="48.030312" lon="11.18636">
<ele>511.373</ele>
<time>2022-05-26T10:26:08Z</time>
</trkpt>
<trkpt lat="48.030354" lon="11.186405">
<ele>511.49</ele>
<time>2022-05-26T10:26:09Z</time>
</trkpt>
<trkpt lat="48.030392" lon="11.186453">
<ele>511.622</ele>
<time>2022-05-26T10:26:10Z</time>
</trkpt>
<trkpt lat="48.03043" lon="11.186499">
<ele>511.722</ele>
<time>2022-05-26T10:26:11Z</time>
</trkpt>
<trkpt lat="48.030472" lon="11.186545">
<ele>511.782</ele>
<time>2022-05-26T10:26:12Z</time>
</trkpt>
<trkpt lat="48.03051" lon="11.186591">
<ele>511.81</ele>
<time>2022-05-26T10:26:13Z</time>
</trkpt>
<trkpt lat="48.030544" lon="11.186635">
<ele>511.81</ele>
<time>2022-05-26T10:26:14Z</time>
</trkpt>
<trkpt lat="48.030575" lon="11.186686">
<ele>511.81</ele>
<time>2022-05-26T10:26:15Z</time>
</trkpt>
<trkpt lat="48.030609" lon="11.186735">
<ele>511.81</ele>
<time>2022-05-26T10:26:16Z</time>
</trkpt>
<trkpt lat="48.03064" lon="11.18679">
<ele>511.81</ele>
<time>2022-05-26T10:26:17Z</time>
</trkpt>
<trkpt lat="48.03067" lon="11.186843">
<ele>511.81</ele>
<time>2022-05-26T10:26:18Z</time>
</trkpt>
<trkpt lat="48.030701" lon="11.186901">
<ele>511.81</ele>
<time>2022-05-26T10:26:19Z</time>
</trkpt>
<trkpt lat="48.030731" lon="11.186967">
<ele>511.81</ele>
<time>2022-05-26T10:26:20Z</time>
</trkpt>
<trkpt lat="48.030769" lon="11.187029">
<ele>511.81</ele>
<time>2022-05-26T10:26:21Z</time>
</trkpt>
<trkpt lat="48.030804" lon="11.187088">
<ele>511.81</ele>
<time>2022-05-26T10:26:22Z</time>
</trkpt>
<trkpt lat="48.030838" lon="11.187142">
<ele>511.81</ele>
<time>2022-05-26T10:26:23Z</time>
</trkpt>
<trkpt lat="48.030869" lon="11.187195">
<ele>511.81</ele>
<time>2022-05-26T10:26:24Z</time>
</trkpt>
<trkpt lat="48.030903" lon="11.187246">
<ele>511.81</ele>
<time>2022-05-26T10:26:25Z</time>
</trkpt>
<trkpt lat="48.030941" lon="11.1873">
<ele>511.81</ele>
<time>2022-05-26T10:26:26Z</time>
</trkpt>
<trkpt lat="48.030979" lon="11.18735">
<ele>511.81</ele>
<time>2022-05-26T10:26:27Z</time>
</trkpt>
<trkpt lat="48.031017" lon="11.187396">
<ele>511.81</ele>
<time>2022-05-26T10:26:28Z</time>
</trkpt>
<trkpt lat="48.031055" lon="11.187438">
<ele>511.81</ele>
<time>2022-05-26T10:26:29Z</time>
</trkpt>
<trkpt lat="48.031086" lon="11.187478">
<ele>511.81</ele>
<time>2022-05-26T10:26:30Z</time>
</trkpt>
<trkpt lat="48.031116" lon="11.187518">
<ele>511.532</ele>
<time>2022-05-26T10:26:31Z</time>
</trkpt>
<trkpt lat="48.031147" lon="11.187563">
<ele>511.316</ele>
<time>2022-05-26T10:26:32Z</time>
</trkpt>
<trkpt lat="48.031181" lon="11.187598">
<ele>511.151</ele>
<time>2022-05-26T10:26:33Z</time>
</trkpt>
<trkpt lat="48.031212" lon="11.187633">
<ele>511.033</ele>
<time>2022-05-26T10:26:34Z</time>
</trkpt>
<trkpt lat="48.03125" lon="11.187668">
<ele>510.942</ele>
<time>2022-05-26T10:26:35Z</time>
</trkpt>
<trkpt lat="48.031292" lon="11.187706">
<ele>510.887</ele>
<time>2022-05-26T10:26:36Z</time>
</trkpt>
<trkpt lat="48.03133" lon="11.187747">
<ele>510.89</ele>
<time>2022-05-26T10:26:37Z</time>
</trkpt>
<trkpt lat="48.031376" lon="11.18779">
<ele>511.132</ele>
<time>2022-05-26T10:26:38Z</time>
</trkpt>
<trkpt lat="48.031425" lon="11.187828">
<ele>511.304</ele>
<time>2022-05-26T10:26:39Z</time>
</trkpt>
<trkpt lat="48.031471" lon="11.187865">
<ele>511.493</ele>
<time>2022-05-26T10:26:40Z</time>
</trkpt>
<trkpt lat="48.031513" lon="11.187905">
<ele>511.646</ele>
<time>2022-05-26T10:26:41Z</time>
</trkpt>
<trkpt lat="48.031559" lon="11.187943">
<ele>511.753</ele>
<time>2022-05-26T10:26:42Z</time>
</trkpt>
<trkpt lat="48.031612" lon="11.187975">
<ele>511.825</ele>
<time>2022-05-26T10:26:43Z</time>
</trkpt>
<trkpt lat="48.031651" lon="11.188005">
<ele>511.872</ele>
<time>2022-05-26T10:26:44Z</time>
</trkpt>
<trkpt lat="48.031696" lon="11.188035">
<ele>511.897</ele>
<time>2022-05-26T10:26:45Z</time>
</trkpt>
<trkpt lat="48.031738" lon="11.18807">
<ele>511.897</ele>
<time>2022-05-26T10:26:46Z</time>
</trkpt>
<trkpt lat="48.031776" lon="11.188115">
<ele>511.897</ele>
<time>2022-05-26T10:26:47Z</time>
</trkpt>
<trkpt lat="48.031818" lon="11.188153">
<ele>512.125</ele>
<time>2022-05-26T10:26:48Z</time>
</trkpt>
<trkpt lat="48.031864" lon="11.188193">
<ele>512.29</ele>
<time>2022-05-26T10:26:49Z</time>
</trkpt>
<trkpt lat="48.03191" lon="11.188235">
<ele>512.46</ele>
<time>2022-05-26T10:26:50Z</time>
</trkpt>
<trkpt lat="48.031948" lon="11.188282">
<ele>512.601</ele>
<time>2022-05-26T10:26:51Z</time>
</trkpt>
<trkpt lat="48.031994" lon="11.188326">
<ele>512.71</ele>
<time>2022-05-26T10:26:52Z</time>
</trkpt>
<trkpt lat="48.03204" lon="11.188372">
<ele>512.781</ele>
<time>2022-05-26T10:26:53Z</time>
</trkpt>
<trkpt lat="48.032082" lon="11.18842">
<ele>512.831</ele>
<time>2022-05-26T10:26:54Z</time>
</trkpt>
<trkpt lat="48.032124" lon="11.188468">
<ele>512.853</ele>
<time>2022-05-26T10:26:55Z</time>
</trkpt>
<trkpt lat="48.032166" lon="11.188519">
<ele>512.853</ele>
<time>2022-05-26T10:26:56Z</time>
</trkpt>
<trkpt lat="48.032207" lon="11.18857">
<ele>512.853</ele>
<time>2022-05-26T10:26:57Z</time>
</trkpt>
<trkpt lat="48.032253" lon="11.188622">
<ele>512.853</ele>
<time>2022-05-26T10:26:58Z</time>
</trkpt>
<trkpt lat="48.032299" lon="11.18867">
<ele>512.853</ele>
<time>2022-05-26T10:26:59Z</time>
</trkpt>
<trkpt lat="48.032337" lon="11.18872">
<ele>512.853</ele>
<time>2022-05-26T10:27:00Z</time>
</trkpt>
<trkpt lat="48.032372" lon="11.188768">
<ele>512.853</ele>
<time>2022-05-26T10:27:01Z</time>
</trkpt>
<trkpt lat="48.032413" lon="11.188808">
<ele>512.853</ele>
<time>2022-05-26T10:27:02Z</time>
</trkpt>
<trkpt lat="48.032455" lon="11.188848">
<ele>512.853</ele>
<time>2022-05-26T10:27:03Z</time>
</trkpt>
<trkpt lat="48.032494" lon="11.188888">
<ele>512.853</ele>
<time>2022-05-26T10:27:04Z</time>
</trkpt>
<trkpt lat="48.032528" lon="11.188929">
<ele>512.853</ele>
<time>2022-05-26T10:27:05Z</time>
</trkpt>
<trkpt lat="48.032566" lon="11.188969">
<ele>513.089</ele>
<time>2022-05-26T10:27:06Z</time>
</trkpt>
<trkpt lat="48.032597" lon="11.18901">
<ele>513.281</ele>
<time>2022-05-26T10:27:07Z</time>
</trkpt>
<trkpt lat="48.032631" lon="11.189052">
<ele>513.43</ele>
<time>2022-05-26T10:27:08Z</time>
</trkpt>
<trkpt lat="48.032669" lon="11.189093">
<ele>513.535</ele>
<time>2022-05-26T10:27:09Z</time>
</trkpt>
<trkpt lat="48.0327" lon="11.189133">
<ele>513.647</ele>
<time>2022-05-26T10:27:10Z</time>
</trkpt>
<trkpt lat="48.03273" lon="11.189172">
<ele>513.73</ele>
<time>2022-05-26T10:27:11Z</time>
</trkpt>
<trkpt lat="48.032761" lon="11.189208">
<ele>513.783</ele>
<time>2022-05-26T10:27:12Z</time>
</trkpt>
<trkpt lat="48.032795" lon="11.189245">
<ele>513.808</ele>
<time>2022-05-26T10:27:13Z</time>
</trkpt>
<trkpt lat="48.032822" lon="11.18928">
<ele>513.808</ele>
<time>2022-05-26T10:27:14Z</time>
</trkpt>
<trkpt lat="48.032845" lon="11.189317">
<ele>513.808</ele>
<time>2022-05-26T10:27:15Z</time>
</trkpt>
<trkpt lat="48.032875" lon="11.189353">
<ele>513.808</ele>
<time>2022-05-26T10:27:16Z</time>
</trkpt>
<trkpt lat="48.032898" lon="11.18939">
<ele>513.975</ele>
<time>2022-05-26T10:27:17Z</time>
</trkpt>
<trkpt lat="48.032925" lon="11.18943">
<ele>514.093</ele>
<time>2022-05-26T10:27:18Z</time>
</trkpt>
<trkpt lat="48.032951" lon="11.189472">
<ele>514.126</ele>
<time>2022-05-26T10:27:19Z</time>
</trkpt>
<trkpt lat="48.032982" lon="11.189513">
<ele>514.338</ele>
<time>2022-05-26T10:27:20Z</time>
</trkpt>
<trkpt lat="48.033012" lon="11.189556">
<ele>514.587</ele>
<time>2022-05-26T10:27:21Z</time>
</trkpt>
<trkpt lat="48.033043" lon="11.189602">
<ele>514.495</ele>
<time>2022-05-26T10:27:22Z</time>
</trkpt>
<trkpt lat="48.033081" lon="11.18965">
<ele>514.404</ele>
<time>2022-05-26T10:27:23Z</time>
</trkpt>
<trkpt lat="48.033112" lon="11.189698">
<ele>514.523</ele>
<time>2022-05-26T10:27:24Z</time>
</trkpt>
<trkpt lat="48.033146" lon="11.18974">
<ele>513.92</ele>
<time>2022-05-26T10:27:25Z</time>
</trkpt>
<trkpt lat="48.03318" lon="11.189782">
<ele>514.029</ele>
<time>2022-05-26T10:27:26Z</time>
</trkpt>
<trkpt lat="48.033215" lon="11.189823">
<ele>514.127</ele>
<time>2022-05-26T10:27:27Z</time>
</trkpt>
<trkpt lat="48.033249" lon="11.18987">
<ele>514.213</ele>
<time>2022-05-26T10:27:28Z</time>
</trkpt>
<trkpt lat="48.033291" lon="11.189917">
<ele>514.563</ele>
<time>2022-05-26T10:27:29Z</time>
</trkpt>
<trkpt lat="48.033329" lon="11.18996">
<ele>514.572</ele>
<time>2022-05-26T10:27:30Z</time>
</trkpt>
<trkpt lat="48.033363" lon="11.190003">
<ele>514.575</ele>
<time>2022-05-26T10:27:31Z</time>
</trkpt>
<trkpt lat="48.033398" lon="11.19005">
<ele>514.588</ele>
<time>2022-05-26T10:27:32Z</time>
</trkpt>
<trkpt lat="48.033432" lon="11.190094">
<ele>514.591</ele>
<time>2022-05-26T10:27:33Z</time>
</trkpt>
<trkpt lat="48.033459" lon="11.190134">
<ele>514.591</ele>
<time>2022-05-26T10:27:34Z</time>
</trkpt>
<trkpt lat="48.033482" lon="11.19017">
<ele>514.591</ele>
<time>2022-05-26T10:27:35Z</time>
</trkpt>
<trkpt lat="48.033501" lon="11.190202">
<ele>514.591</ele>
<time>2022-05-26T10:27:36Z</time>
</trkpt>
<trkpt lat="48.033524" lon="11.19023">
<ele>514.591</ele>
<time>2022-05-26T10:27:37Z</time>
</trkpt>
<trkpt lat="48.033543" lon="11.190255">
<ele>514.591</ele>
<time>2022-05-26T10:27:38Z</time>
</trkpt>
<trkpt lat="48.033566" lon="11.190287">
<ele>514.801</ele>
<time>2022-05-26T10:27:39Z</time>
</trkpt>
<trkpt lat="48.033588" lon="11.190316">
<ele>515.005</ele>
<time>2022-05-26T10:27:40Z</time>
</trkpt>
<trkpt lat="48.033611" lon="11.190345">
<ele>515.188</ele>
<time>2022-05-26T10:27:41Z</time>
</trkpt>
<trkpt lat="48.033642" lon="11.190379">
<ele>515.351</ele>
<time>2022-05-26T10:27:42Z</time>
</trkpt>
<trkpt lat="48.033672" lon="11.190416">
<ele>515.474</ele>
<time>2022-05-26T10:27:43Z</time>
</trkpt>
<trkpt lat="48.033703" lon="11.190456">
<ele>515.561</ele>
<time>2022-05-26T10:27:44Z</time>
</trkpt>
<trkpt lat="48.033737" lon="11.190496">
<ele>515.611</ele>
<time>2022-05-26T10:27:45Z</time>
</trkpt>
<trkpt lat="48.033772" lon="11.19054">
<ele>515.634</ele>
<time>2022-05-26T10:27:46Z</time>
</trkpt>
<trkpt lat="48.03381" lon="11.190585">
<ele>515.634</ele>
<time>2022-05-26T10:27:47Z</time>
</trkpt>
<trkpt lat="48.033848" lon="11.190633">
<ele>515.634</ele>
<time>2022-05-26T10:27:48Z</time>
</trkpt>
<trkpt lat="48.033886" lon="11.190683">
<ele>515.634</ele>
<time>2022-05-26T10:27:49Z</time>
</trkpt>
<trkpt lat="48.033924" lon="11.190738">
<ele>515.634</ele>
<time>2022-05-26T10:27:50Z</time>
</trkpt>
<trkpt lat="48.033966" lon="11.190792">
<ele>515.634</ele>
<time>2022-05-26T10:27:51Z</time>
</trkpt>
<trkpt lat="48.034012" lon="11.190846">
<ele>515.284</ele>
<time>2022-05-26T10:27:52Z</time>
</trkpt>
<trkpt lat="48.034058" lon="11.190907">
<ele>515.029</ele>
<time>2022-05-26T10:27:53Z</time>
</trkpt>
<trkpt lat="48.0341" lon="11.190973">
<ele>514.837</ele>
<time>2022-05-26T10:27:54Z</time>
</trkpt>
<trkpt lat="48.034142" lon="11.191039">
<ele>514.707</ele>
<time>2022-05-26T10:27:55Z</time>
</trkpt>
<trkpt lat="48.034187" lon="11.191105">
<ele>514.632</ele>
<time>2022-05-26T10:27:56Z</time>
</trkpt>
<trkpt lat="48.034218" lon="11.191174">
<ele>514.322</ele>
<time>2022-05-26T10:27:57Z</time>
</trkpt>
<trkpt lat="48.03426" lon="11.191242">
<ele>514.096</ele>
<time>2022-05-26T10:27:58Z</time>
</trkpt>
<trkpt lat="48.034302" lon="11.191308">
<ele>513.942</ele>
<time>2022-05-26T10:27:59Z</time>
</trkpt>
<trkpt lat="48.034351" lon="11.19137">
<ele>513.811</ele>
<time>2022-05-26T10:28:00Z</time>
</trkpt>
<trkpt lat="48.034389" lon="11.191426">
<ele>513.491</ele>
<time>2022-05-26T10:28:01Z</time>
</trkpt>
<trkpt lat="48.034431" lon="11.191475">
<ele>513.239</ele>
<time>2022-05-26T10:28:02Z</time>
</trkpt>
<trkpt lat="48.03447" lon="11.191525">
<ele>513.042</ele>
<time>2022-05-26T10:28:03Z</time>
</trkpt>
<trkpt lat="48.034504" lon="11.191577">
<ele>512.902</ele>
<time>2022-05-26T10:28:04Z</time>
</trkpt>
<trkpt lat="48.034534" lon="11.191628">
<ele>512.752</ele>
<time>2022-05-26T10:28:05Z</time>
</trkpt>
<trkpt lat="48.034561" lon="11.191676">
<ele>512.706</ele>
<time>2022-05-26T10:28:06Z</time>
</trkpt>
<trkpt lat="48.034588" lon="11.191725">
<ele>512.682</ele>
<time>2022-05-26T10:28:07Z</time>
</trkpt>
<trkpt lat="48.034615" lon="11.191781">
<ele>512.679</ele>
<time>2022-05-26T10:28:08Z</time>
</trkpt>
<trkpt lat="48.034634" lon="11.191841">
<ele>512.679</ele>
<time>2022-05-26T10:28:09Z</time>
</trkpt>
<trkpt lat="48.034657" lon="11.191911">
<ele>512.679</ele>
<time>2022-05-26T10:28:10Z</time>
</trkpt>
<trkpt lat="48.034683" lon="11.191981">
<ele>512.679</ele>
<time>2022-05-26T10:28:11Z</time>
</trkpt>
<trkpt lat="48.034706" lon="11.192057">
<ele>512.368</ele>
<time>2022-05-26T10:28:12Z</time>
</trkpt>
<trkpt lat="48.034737" lon="11.192135">
<ele>512.163</ele>
<time>2022-05-26T10:28:13Z</time>
</trkpt>
<trkpt lat="48.034763" lon="11.192212">
<ele>511.659</ele>
<time>2022-05-26T10:28:14Z</time>
</trkpt>
<trkpt lat="48.03479" lon="11.192284">
<ele>511.293</ele>
<time>2022-05-26T10:28:15Z</time>
</trkpt>
<trkpt lat="48.034817" lon="11.192362">
<ele>511.084</ele>
<time>2022-05-26T10:28:16Z</time>
</trkpt>
<trkpt lat="48.034843" lon="11.192443">
<ele>510.621</ele>
<time>2022-05-26T10:28:17Z</time>
</trkpt>
<trkpt lat="48.034866" lon="11.192529">
<ele>510.297</ele>
<time>2022-05-26T10:28:18Z</time>
</trkpt>
<trkpt lat="48.034885" lon="11.192608">
<ele>510.063</ele>
<time>2022-05-26T10:28:19Z</time>
</trkpt>
<trkpt lat="48.034904" lon="11.192697">
<ele>509.858</ele>
<time>2022-05-26T10:28:20Z</time>
</trkpt>
<trkpt lat="48.034927" lon="11.192784">
<ele>509.714</ele>
<time>2022-05-26T10:28:21Z</time>
</trkpt>
<trkpt lat="48.03495" lon="11.192879">
<ele>509.636</ele>
<time>2022-05-26T10:28:22Z</time>
</trkpt>
<trkpt lat="48.034977" lon="11.192971">
<ele>509.336</ele>
<time>2022-05-26T10:28:23Z</time>
</trkpt>
<trkpt lat="48.035007" lon="11.193067">
<ele>509.113</ele>
<time>2022-05-26T10:28:24Z</time>
</trkpt>
<trkpt lat="48.035042" lon="11.193157">
<ele>508.938</ele>
<time>2022-05-26T10:28:25Z</time>
</trkpt>
<trkpt lat="48.03508" lon="11.193248">
<ele>508.503</ele>
<time>2022-05-26T10:28:26Z</time>
</trkpt>
<trkpt lat="48.035118" lon="11.193343">
<ele>508.18</ele>
<time>2022-05-26T10:28:27Z</time>
</trkpt>
<trkpt lat="48.035156" lon="11.19344">
<ele>508</ele>
<time>2022-05-26T10:28:28Z</time>
</trkpt>
<trkpt lat="48.035198" lon="11.193532">
<ele>507.576</ele>
<time>2022-05-26T10:28:29Z</time>
</trkpt>
<trkpt lat="48.03524" lon="11.193622">
<ele>507.244</ele>
<time>2022-05-26T10:28:30Z</time>
</trkpt>
<trkpt lat="48.03529" lon="11.193712">
<ele>506.765</ele>
<time>2022-05-26T10:28:31Z</time>
</trkpt>
<trkpt lat="48.035336" lon="11.193798">
<ele>506.392</ele>
<time>2022-05-26T10:28:32Z</time>
</trkpt>
<trkpt lat="48.035381" lon="11.193882">
<ele>506.116</ele>
<time>2022-05-26T10:28:33Z</time>
</trkpt>
<trkpt lat="48.035435" lon="11.193955">
<ele>505.93</ele>
<time>2022-05-26T10:28:34Z</time>
</trkpt>
<trkpt lat="48.035496" lon="11.194022">
<ele>505.793</ele>
<time>2022-05-26T10:28:35Z</time>
</trkpt>
<trkpt lat="48.035542" lon="11.194087">
<ele>505.705</ele>
<time>2022-05-26T10:28:36Z</time>
</trkpt>
<trkpt lat="48.035599" lon="11.194152">
<ele>505.645</ele>
<time>2022-05-26T10:28:37Z</time>
</trkpt>
<trkpt lat="48.035648" lon="11.194217">
<ele>505.642</ele>
<time>2022-05-26T10:28:38Z</time>
</trkpt>
<trkpt lat="48.035702" lon="11.19428">
<ele>505.435</ele>
<time>2022-05-26T10:28:39Z</time>
</trkpt>
<trkpt lat="48.035755" lon="11.194345">
<ele>505.236</ele>
<time>2022-05-26T10:28:40Z</time>
</trkpt>
<trkpt lat="48.035805" lon="11.194407">
<ele>505.07</ele>
<time>2022-05-26T10:28:41Z</time>
</trkpt>
<trkpt lat="48.035858" lon="11.194471">
<ele>504.937</ele>
<time>2022-05-26T10:28:42Z</time>
</trkpt>
<trkpt lat="48.035912" lon="11.194535">
<ele>504.833</ele>
<time>2022-05-26T10:28:43Z</time>
</trkpt>
<trkpt lat="48.035957" lon="11.194598">
<ele>504.766</ele>
<time>2022-05-26T10:28:44Z</time>
</trkpt>
<trkpt lat="48.036003" lon="11.19466">
<ele>504.485</ele>
<time>2022-05-26T10:28:45Z</time>
</trkpt>
<trkpt lat="48.036049" lon="11.194732">
<ele>504.265</ele>
<time>2022-05-26T10:28:46Z</time>
</trkpt>
<trkpt lat="48.036091" lon="11.19479">
<ele>504.091</ele>
<time>2022-05-26T10:28:47Z</time>
</trkpt>
<trkpt lat="48.036137" lon="11.194835">
<ele>503.979</ele>
<time>2022-05-26T10:28:48Z</time>
</trkpt>
<trkpt lat="48.036182" lon="11.194871">
<ele>503.896</ele>
<time>2022-05-26T10:28:49Z</time>
</trkpt>
<trkpt lat="48.036243" lon="11.194899">
<ele>503.591</ele>
<time>2022-05-26T10:28:50Z</time>
</trkpt>
<trkpt lat="48.036293" lon="11.19492">
<ele>503.345</ele>
<time>2022-05-26T10:28:51Z</time>
</trkpt>
<trkpt lat="48.036346" lon="11.194934">
<ele>503.389</ele>
<time>2022-05-26T10:28:52Z</time>
</trkpt>
<trkpt lat="48.036392" lon="11.194955">
<ele>503.373</ele>
<time>2022-05-26T10:28:53Z</time>
</trkpt>
<trkpt lat="48.036446" lon="11.194983">
<ele>503.444</ele>
<time>2022-05-26T10:28:54Z</time>
</trkpt>
<trkpt lat="48.036495" lon="11.195013">
<ele>503.781</ele>
<time>2022-05-26T10:28:55Z</time>
</trkpt>
<trkpt lat="48.036545" lon="11.195046">
<ele>504.06</ele>
<time>2022-05-26T10:28:56Z</time>
</trkpt>
<trkpt lat="48.036598" lon="11.195075">
<ele>504.279</ele>
<time>2022-05-26T10:28:57Z</time>
</trkpt>
<trkpt lat="48.036644" lon="11.1951">
<ele>504.45</ele>
<time>2022-05-26T10:28:58Z</time>
</trkpt>
<trkpt lat="48.036694" lon="11.195122">
<ele>504.588</ele>
<time>2022-05-26T10:28:59Z</time>
</trkpt>
<trkpt lat="48.036739" lon="11.195148">
<ele>504.699</ele>
<time>2022-05-26T10:29:00Z</time>
</trkpt>
<trkpt lat="48.036785" lon="11.195173">
<ele>504.75</ele>
<time>2022-05-26T10:29:01Z</time>
</trkpt>
<trkpt lat="48.036835" lon="11.195198">
<ele>504.774</ele>
<time>2022-05-26T10:29:02Z</time>
</trkpt>
<trkpt lat="48.036877" lon="11.19523">
<ele>504.774</ele>
<time>2022-05-26T10:29:03Z</time>
</trkpt>
<trkpt lat="48.036922" lon="11.195263">
<ele>504.774</ele>
<time>2022-05-26T10:29:04Z</time>
</trkpt>
<trkpt lat="48.036964" lon="11.195302">
<ele>505.024</ele>
<time>2022-05-26T10:29:05Z</time>
</trkpt>
<trkpt lat="48.036995" lon="11.195343">
<ele>505.22</ele>
<time>2022-05-26T10:29:06Z</time>
</trkpt>
<trkpt lat="48.037033" lon="11.195385">
<ele>505.374</ele>
<time>2022-05-26T10:29:07Z</time>
</trkpt>
<trkpt lat="48.037064" lon="11.195422">
<ele>505.486</ele>
<time>2022-05-26T10:29:08Z</time>
</trkpt>
<trkpt lat="48.037098" lon="11.19546">
<ele>505.566</ele>
<time>2022-05-26T10:29:09Z</time>
</trkpt>
<trkpt lat="48.037132" lon="11.195498">
<ele>505.649</ele>
<time>2022-05-26T10:29:10Z</time>
</trkpt>
<trkpt lat="48.03717" lon="11.195537">
<ele>505.702</ele>
<time>2022-05-26T10:29:11Z</time>
</trkpt>
<trkpt lat="48.037209" lon="11.195577">
<ele>505.729</ele>
<time>2022-05-26T10:29:12Z</time>
</trkpt>
<trkpt lat="48.037243" lon="11.195619">
<ele>505.729</ele>
<time>2022-05-26T10:29:13Z</time>
</trkpt>
<trkpt lat="48.037273" lon="11.195659">
<ele>505.967</ele>
<time>2022-05-26T10:29:14Z</time>
</trkpt>
<trkpt lat="48.037312" lon="11.195704">
<ele>506.15</ele>
<time>2022-05-26T10:29:15Z</time>
</trkpt>
<trkpt lat="48.03735" lon="11.195748">
<ele>506.296</ele>
<time>2022-05-26T10:29:16Z</time>
</trkpt>
<trkpt lat="48.037384" lon="11.19579">
<ele>506.398</ele>
<time>2022-05-26T10:29:17Z</time>
</trkpt>
<trkpt lat="48.037418" lon="11.19583">
<ele>506.472</ele>
<time>2022-05-26T10:29:18Z</time>
</trkpt>
<trkpt lat="48.037453" lon="11.195875">
<ele>506.526</ele>
<time>2022-05-26T10:29:19Z</time>
</trkpt>
<trkpt lat="48.037483" lon="11.195914">
<ele>506.574</ele>
<time>2022-05-26T10:29:20Z</time>
</trkpt>
<trkpt lat="48.037521" lon="11.195953">
<ele>506.598</ele>
<time>2022-05-26T10:29:21Z</time>
</trkpt>
<trkpt lat="48.037556" lon="11.195992">
<ele>506.598</ele>
<time>2022-05-26T10:29:22Z</time>
</trkpt>
<trkpt lat="48.037594" lon="11.196035">
<ele>506.598</ele>
<time>2022-05-26T10:29:23Z</time>
</trkpt>
<trkpt lat="48.037628" lon="11.19608">
<ele>506.598</ele>
<time>2022-05-26T10:29:24Z</time>
</trkpt>
<trkpt lat="48.037659" lon="11.19612">
<ele>506.873</ele>
<time>2022-05-26T10:29:25Z</time>
</trkpt>
<trkpt lat="48.037693" lon="11.196156">
<ele>507.088</ele>
<time>2022-05-26T10:29:26Z</time>
</trkpt>
<trkpt lat="48.037731" lon="11.196192">
<ele>507.252</ele>
<time>2022-05-26T10:29:27Z</time>
</trkpt>
<trkpt lat="48.037769" lon="11.196235">
<ele>507.38</ele>
<time>2022-05-26T10:29:28Z</time>
</trkpt>
<trkpt lat="48.037804" lon="11.196273">
<ele>507.465</ele>
<time>2022-05-26T10:29:29Z</time>
</trkpt>
<trkpt lat="48.037838" lon="11.196308">
<ele>507.552</ele>
<time>2022-05-26T10:29:30Z</time>
</trkpt>
<trkpt lat="48.037872" lon="11.196345">
<ele>507.609</ele>
<time>2022-05-26T10:29:31Z</time>
</trkpt>
<trkpt lat="48.037903" lon="11.196378">
<ele>507.891</ele>
<time>2022-05-26T10:29:32Z</time>
</trkpt>
<trkpt lat="48.037941" lon="11.196415">
<ele>508.172</ele>
<time>2022-05-26T10:29:33Z</time>
</trkpt>
<trkpt lat="48.037975" lon="11.196455">
<ele>508.346</ele>
<time>2022-05-26T10:29:34Z</time>
</trkpt>
<trkpt lat="48.038013" lon="11.196492">
<ele>508.476</ele>
<time>2022-05-26T10:29:35Z</time>
</trkpt>
<trkpt lat="48.038048" lon="11.19653">
<ele>508.566</ele>
<time>2022-05-26T10:29:36Z</time>
</trkpt>
<trkpt lat="48.038078" lon="11.196562">
<ele>508.616</ele>
<time>2022-05-26T10:29:37Z</time>
</trkpt>
<trkpt lat="48.038109" lon="11.196593">
<ele>508.905</ele>
<time>2022-05-26T10:29:38Z</time>
</trkpt>
<trkpt lat="48.038139" lon="11.196622">
<ele>509.115</ele>
<time>2022-05-26T10:29:39Z</time>
</trkpt>
<trkpt lat="48.038174" lon="11.196651">
<ele>509.296</ele>
<time>2022-05-26T10:29:40Z</time>
</trkpt>
<trkpt lat="48.038204" lon="11.196688">
<ele>509.437</ele>
<time>2022-05-26T10:29:41Z</time>
</trkpt>
<trkpt lat="48.038239" lon="11.196727">
<ele>509.537</ele>
<time>2022-05-26T10:29:42Z</time>
</trkpt>
<trkpt lat="48.038265" lon="11.196765">
<ele>509.86</ele>
<time>2022-05-26T10:29:43Z</time>
</trkpt>
<trkpt lat="48.038292" lon="11.196807">
<ele>510.119</ele>
<time>2022-05-26T10:29:44Z</time>
</trkpt>
<trkpt lat="48.038322" lon="11.196849">
<ele>510.317</ele>
<time>2022-05-26T10:29:45Z</time>
</trkpt>
<trkpt lat="48.038353" lon="11.196892">
<ele>510.483</ele>
<time>2022-05-26T10:29:46Z</time>
</trkpt>
<trkpt lat="48.038383" lon="11.196939">
<ele>510.563</ele>
<time>2022-05-26T10:29:47Z</time>
</trkpt>
<trkpt lat="48.03841" lon="11.196989">
<ele>510.613</ele>
<time>2022-05-26T10:29:48Z</time>
</trkpt>
<trkpt lat="48.038437" lon="11.197037">
<ele>510.654</ele>
<time>2022-05-26T10:29:49Z</time>
</trkpt>
<trkpt lat="48.038464" lon="11.19709">
<ele>510.68</ele>
<time>2022-05-26T10:29:50Z</time>
</trkpt>
<trkpt lat="48.038486" lon="11.197142">
<ele>510.68</ele>
<time>2022-05-26T10:29:51Z</time>
</trkpt>
<trkpt lat="48.038506" lon="11.197195">
<ele>510.68</ele>
<time>2022-05-26T10:29:52Z</time>
</trkpt>
<trkpt lat="48.038528" lon="11.197245">
<ele>510.68</ele>
<time>2022-05-26T10:29:53Z</time>
</trkpt>
<trkpt lat="48.038548" lon="11.197293">
<ele>510.68</ele>
<time>2022-05-26T10:29:54Z</time>
</trkpt>
<trkpt lat="48.038567" lon="11.19734">
<ele>510.68</ele>
<time>2022-05-26T10:29:55Z</time>
</trkpt>
<trkpt lat="48.038589" lon="11.197389">
<ele>510.68</ele>
<time>2022-05-26T10:29:56Z</time>
</trkpt>
<trkpt lat="48.038605" lon="11.197437">
<ele>510.68</ele>
<time>2022-05-26T10:29:57Z</time>
</trkpt>
<trkpt lat="48.038624" lon="11.197478">
<ele>510.458</ele>
<time>2022-05-26T10:29:58Z</time>
</trkpt>
<trkpt lat="48.038635" lon="11.197507">
<ele>510.291</ele>
<time>2022-05-26T10:29:59Z</time>
</trkpt>
<trkpt lat="48.038647" lon="11.197532">
<ele>510.131</ele>
<time>2022-05-26T10:30:00Z</time>
</trkpt>
<trkpt lat="48.038658" lon="11.197558">
<ele>509.997</ele>
<time>2022-05-26T10:30:01Z</time>
</trkpt>
<trkpt lat="48.038662" lon="11.197584">
<ele>509.892</ele>
<time>2022-05-26T10:30:02Z</time>
</trkpt>
<trkpt lat="48.038658" lon="11.197612">
<ele>509.813</ele>
<time>2022-05-26T10:30:03Z</time>
</trkpt>
<trkpt lat="48.038654" lon="11.197635">
<ele>509.756</ele>
<time>2022-05-26T10:30:04Z</time>
</trkpt>
<trkpt lat="48.038647" lon="11.197652">
<ele>509.725</ele>
<time>2022-05-26T10:30:05Z</time>
</trkpt>
<trkpt lat="48.038635" lon="11.197665">
<ele>509.725</ele>
<time>2022-05-26T10:30:06Z</time>
</trkpt>
<trkpt lat="48.038628" lon="11.197672">
<ele>509.725</ele>
<time>2022-05-26T10:30:07Z</time>
</trkpt>
<trkpt lat="48.03862" lon="11.197679">
<ele>509.725</ele>
<time>2022-05-26T10:30:08Z</time>
</trkpt>
<trkpt lat="48.03862" lon="11.197682">
<ele>509.725</ele>
<time>2022-05-26T10:30:09Z</time>
</trkpt>
<trkpt lat="48.038616" lon="11.197687">
<ele>509.725</ele>
<time>2022-05-26T10:30:10Z</time>
</trkpt>
<trkpt lat="48.038609" lon="11.197693">
<ele>509.725</ele>
<time>2022-05-26T10:30:11Z</time>
</trkpt>
<trkpt lat="48.038605" lon="11.197706">
<ele>509.725</ele>
<time>2022-05-26T10:30:12Z</time>
</trkpt>
<trkpt lat="48.038601" lon="11.197722">
<ele>509.725</ele>
<time>2022-05-26T10:30:13Z</time>
</trkpt>
<trkpt lat="48.038609" lon="11.197754">
<ele>509.391</ele>
<time>2022-05-26T10:30:14Z</time>
</trkpt>
<trkpt lat="48.038616" lon="11.197788">
<ele>509.087</ele>
<time>2022-05-26T10:30:15Z</time>
</trkpt>
<trkpt lat="48.038628" lon="11.197813">
<ele>508.845</ele>
<time>2022-05-26T10:30:16Z</time>
</trkpt>
<trkpt lat="48.038631" lon="11.19784">
<ele>508.725</ele>
<time>2022-05-26T10:30:17Z</time>
</trkpt>
<trkpt lat="48.038635" lon="11.197873">
<ele>508.677</ele>
<time>2022-05-26T10:30:18Z</time>
</trkpt>
<trkpt lat="48.038628" lon="11.197905">
<ele>508.648</ele>
<time>2022-05-26T10:30:19Z</time>
</trkpt>
<trkpt lat="48.038605" lon="11.197932">
<ele>508.614</ele>
<time>2022-05-26T10:30:20Z</time>
</trkpt>
<trkpt lat="48.038578" lon="11.19796">
<ele>508.596</ele>
<time>2022-05-26T10:30:21Z</time>
</trkpt>
<trkpt lat="48.038551" lon="11.197993">
<ele>508.596</ele>
<time>2022-05-26T10:30:22Z</time>
</trkpt>
<trkpt lat="48.038521" lon="11.198027">
<ele>508.596</ele>
<time>2022-05-26T10:30:23Z</time>
</trkpt>
<trkpt lat="48.038486" lon="11.198062">
<ele>508.595</ele>
<time>2022-05-26T10:30:24Z</time>
</trkpt>
<trkpt lat="48.038448" lon="11.198095">
<ele>508.196</ele>
<time>2022-05-26T10:30:25Z</time>
</trkpt>
<trkpt lat="48.038414" lon="11.198132">
<ele>507.915</ele>
<time>2022-05-26T10:30:26Z</time>
</trkpt>
<trkpt lat="48.038376" lon="11.198167">
<ele>507.764</ele>
<time>2022-05-26T10:30:27Z</time>
</trkpt>
<trkpt lat="48.038345" lon="11.1982">
<ele>507.357</ele>
<time>2022-05-26T10:30:28Z</time>
</trkpt>
<trkpt lat="48.038315" lon="11.198234">
<ele>507.078</ele>
<time>2022-05-26T10:30:29Z</time>
</trkpt>
<trkpt lat="48.03828" lon="11.198267">
<ele>506.813</ele>
<time>2022-05-26T10:30:30Z</time>
</trkpt>
<trkpt lat="48.03825" lon="11.198301">
<ele>506.617</ele>
<time>2022-05-26T10:30:31Z</time>
</trkpt>
<trkpt lat="48.038219" lon="11.198335">
<ele>506.499</ele>
<time>2022-05-26T10:30:32Z</time>
</trkpt>
<trkpt lat="48.038185" lon="11.198372">
<ele>506.19</ele>
<time>2022-05-26T10:30:33Z</time>
</trkpt>
<trkpt lat="48.038151" lon="11.198407">
<ele>505.973</ele>
<time>2022-05-26T10:30:34Z</time>
</trkpt>
<trkpt lat="48.038113" lon="11.198445">
<ele>505.513</ele>
<time>2022-05-26T10:30:35Z</time>
</trkpt>
<trkpt lat="48.038078" lon="11.198483">
<ele>505.147</ele>
<time>2022-05-26T10:30:36Z</time>
</trkpt>
<trkpt lat="48.038044" lon="11.198526">
<ele>504.653</ele>
<time>2022-05-26T10:30:37Z</time>
</trkpt>
<trkpt lat="48.038006" lon="11.198571">
<ele>504.279</ele>
<time>2022-05-26T10:30:38Z</time>
</trkpt>
<trkpt lat="48.037968" lon="11.198611">
<ele>504.014</ele>
<time>2022-05-26T10:30:39Z</time>
</trkpt>
<trkpt lat="48.03793" lon="11.198653">
<ele>503.775</ele>
<time>2022-05-26T10:30:40Z</time>
</trkpt>
<trkpt lat="48.037888" lon="11.198695">
<ele>503.628</ele>
<time>2022-05-26T10:30:41Z</time>
</trkpt>
<trkpt lat="48.037849" lon="11.198734">
<ele>503.541</ele>
<time>2022-05-26T10:30:42Z</time>
</trkpt>
<trkpt lat="48.037807" lon="11.198776">
<ele>503.234</ele>
<time>2022-05-26T10:30:43Z</time>
</trkpt>
<trkpt lat="48.037762" lon="11.19882">
<ele>502.997</ele>
<time>2022-05-26T10:30:44Z</time>
</trkpt>
<trkpt lat="48.037716" lon="11.198865">
<ele>502.77</ele>
<time>2022-05-26T10:30:45Z</time>
</trkpt>
<trkpt lat="48.037674" lon="11.198907">
<ele>502.675</ele>
<time>2022-05-26T10:30:46Z</time>
</trkpt>
<trkpt lat="48.037624" lon="11.198954">
<ele>502.326</ele>
<time>2022-05-26T10:30:47Z</time>
</trkpt>
<trkpt lat="48.037575" lon="11.199007">
<ele>502.065</ele>
<time>2022-05-26T10:30:48Z</time>
</trkpt>
<trkpt lat="48.037525" lon="11.199059">
<ele>501.89</ele>
<time>2022-05-26T10:30:49Z</time>
</trkpt>
<trkpt lat="48.037483" lon="11.199105">
<ele>501.723</ele>
<time>2022-05-26T10:30:50Z</time>
</trkpt>
<trkpt lat="48.037437" lon="11.199155">
<ele>501.621</ele>
<time>2022-05-26T10:30:51Z</time>
</trkpt>
<trkpt lat="48.037392" lon="11.199208">
<ele>501.552</ele>
<time>2022-05-26T10:30:52Z</time>
</trkpt>
<trkpt lat="48.037346" lon="11.199264">
<ele>501.265</ele>
<time>2022-05-26T10:30:53Z</time>
</trkpt>
<trkpt lat="48.0373" lon="11.199312">
<ele>501.047</ele>
<time>2022-05-26T10:30:54Z</time>
</trkpt>
<trkpt lat="48.037258" lon="11.199359">
<ele>500.84</ele>
<time>2022-05-26T10:30:55Z</time>
</trkpt>
<trkpt lat="48.037212" lon="11.199407">
<ele>500.727</ele>
<time>2022-05-26T10:30:56Z</time>
</trkpt>
<trkpt lat="48.037174" lon="11.199457">
<ele>500.643</ele>
<time>2022-05-26T10:30:57Z</time>
</trkpt>
<trkpt lat="48.037128" lon="11.199503">
<ele>500.587</ele>
<time>2022-05-26T10:30:58Z</time>
</trkpt>
<trkpt lat="48.037086" lon="11.199543">
<ele>500.547</ele>
<time>2022-05-26T10:30:59Z</time>
</trkpt>
<trkpt lat="48.037041" lon="11.199589">
<ele>500.521</ele>
<time>2022-05-26T10:31:00Z</time>
</trkpt>
<trkpt lat="48.036995" lon="11.199632">
<ele>500.521</ele>
<time>2022-05-26T10:31:01Z</time>
</trkpt>
<trkpt lat="48.036953" lon="11.199681">
<ele>500.521</ele>
<time>2022-05-26T10:31:02Z</time>
</trkpt>
<trkpt lat="48.036911" lon="11.199728">
<ele>500.521</ele>
<time>2022-05-26T10:31:03Z</time>
</trkpt>
<trkpt lat="48.036869" lon="11.19977">
<ele>500.52</ele>
<time>2022-05-26T10:31:04Z</time>
</trkpt>
<trkpt lat="48.036827" lon="11.199815">
<ele>500.521</ele>
<time>2022-05-26T10:31:05Z</time>
</trkpt>
<trkpt lat="48.036774" lon="11.199858">
<ele>500.521</ele>
<time>2022-05-26T10:31:06Z</time>
</trkpt>
<trkpt lat="48.036732" lon="11.199903">
<ele>500.521</ele>
<time>2022-05-26T10:31:07Z</time>
</trkpt>
<trkpt lat="48.036678" lon="11.199951">
<ele>500.521</ele>
<time>2022-05-26T10:31:08Z</time>
</trkpt>
<trkpt lat="48.036636" lon="11.200005">
<ele>500.521</ele>
<time>2022-05-26T10:31:09Z</time>
</trkpt>
<trkpt lat="48.036587" lon="11.200058">
<ele>500.521</ele>
<time>2022-05-26T10:31:10Z</time>
</trkpt>
<trkpt lat="48.036541" lon="11.200113">
<ele>500.521</ele>
<time>2022-05-26T10:31:11Z</time>
</trkpt>
<trkpt lat="48.036484" lon="11.200167">
<ele>500.521</ele>
<time>2022-05-26T10:31:12Z</time>
</trkpt>
<trkpt lat="48.03643" lon="11.200224">
<ele>500.521</ele>
<time>2022-05-26T10:31:13Z</time>
</trkpt>
<trkpt lat="48.036377" lon="11.200278">
<ele>500.521</ele>
<time>2022-05-26T10:31:14Z</time>
</trkpt>
<trkpt lat="48.03632" lon="11.200334">
<ele>500.521</ele>
<time>2022-05-26T10:31:15Z</time>
</trkpt>
<trkpt lat="48.03627" lon="11.200387">
<ele>500.521</ele>
<time>2022-05-26T10:31:16Z</time>
</trkpt>
<trkpt lat="48.036217" lon="11.200438">
<ele>500.521</ele>
<time>2022-05-26T10:31:17Z</time>
</trkpt>
<trkpt lat="48.036171" lon="11.200488">
<ele>500.521</ele>
<time>2022-05-26T10:31:18Z</time>
</trkpt>
<trkpt lat="48.036121" lon="11.200537">
<ele>500.521</ele>
<time>2022-05-26T10:31:19Z</time>
</trkpt>
<trkpt lat="48.036076" lon="11.200583">
<ele>500.521</ele>
<time>2022-05-26T10:31:20Z</time>
</trkpt>
<trkpt lat="48.036026" lon="11.200626">
<ele>500.521</ele>
<time>2022-05-26T10:31:21Z</time>
</trkpt>
<trkpt lat="48.035976" lon="11.200672">
<ele>500.521</ele>
<time>2022-05-26T10:31:22Z</time>
</trkpt>
<trkpt lat="48.035927" lon="11.200717">
<ele>500.521</ele>
<time>2022-05-26T10:31:23Z</time>
</trkpt>
<trkpt lat="48.035877" lon="11.20076">
<ele>500.288</ele>
<time>2022-05-26T10:31:24Z</time>
</trkpt>
<trkpt lat="48.035824" lon="11.2008">
<ele>500.101</ele>
<time>2022-05-26T10:31:25Z</time>
</trkpt>
<trkpt lat="48.035778" lon="11.200842">
<ele>499.958</ele>
<time>2022-05-26T10:31:26Z</time>
</trkpt>
<trkpt lat="48.035728" lon="11.200884">
<ele>499.853</ele>
<time>2022-05-26T10:31:27Z</time>
</trkpt>
<trkpt lat="48.035679" lon="11.200926">
<ele>499.779</ele>
<time>2022-05-26T10:31:28Z</time>
</trkpt>
<trkpt lat="48.035633" lon="11.20097">
<ele>499.724</ele>
<time>2022-05-26T10:31:29Z</time>
</trkpt>
<trkpt lat="48.035587" lon="11.201016">
<ele>499.676</ele>
<time>2022-05-26T10:31:30Z</time>
</trkpt>
<trkpt lat="48.035542" lon="11.201064">
<ele>499.652</ele>
<time>2022-05-26T10:31:31Z</time>
</trkpt>
<trkpt lat="48.0355" lon="11.20111">
<ele>499.652</ele>
<time>2022-05-26T10:31:32Z</time>
</trkpt>
<trkpt lat="48.035458" lon="11.201159">
<ele>499.652</ele>
<time>2022-05-26T10:31:33Z</time>
</trkpt>
<trkpt lat="48.035412" lon="11.201206">
<ele>499.652</ele>
<time>2022-05-26T10:31:34Z</time>
</trkpt>
<trkpt lat="48.035366" lon="11.201255">
<ele>499.652</ele>
<time>2022-05-26T10:31:35Z</time>
</trkpt>
<trkpt lat="48.03532" lon="11.201305">
<ele>499.652</ele>
<time>2022-05-26T10:31:36Z</time>
</trkpt>
<trkpt lat="48.035282" lon="11.201358">
<ele>499.652</ele>
<time>2022-05-26T10:31:37Z</time>
</trkpt>
<trkpt lat="48.03524" lon="11.201412">
<ele>499.652</ele>
<time>2022-05-26T10:31:38Z</time>
</trkpt>
<trkpt lat="48.035202" lon="11.201468">
<ele>499.652</ele>
<time>2022-05-26T10:31:39Z</time>
</trkpt>
<trkpt lat="48.035164" lon="11.20153">
<ele>499.652</ele>
<time>2022-05-26T10:31:40Z</time>
</trkpt>
<trkpt lat="48.03513" lon="11.201588">
<ele>499.652</ele>
<time>2022-05-26T10:31:41Z</time>
</trkpt>
<trkpt lat="48.035091" lon="11.201649">
<ele>499.652</ele>
<time>2022-05-26T10:31:42Z</time>
</trkpt>
<trkpt lat="48.035053" lon="11.201707">
<ele>499.652</ele>
<time>2022-05-26T10:31:43Z</time>
</trkpt>
<trkpt lat="48.035023" lon="11.201763">
<ele>499.652</ele>
<time>2022-05-26T10:31:44Z</time>
</trkpt>
<trkpt lat="48.034992" lon="11.201822">
<ele>499.652</ele>
<time>2022-05-26T10:31:45Z</time>
</trkpt>
<trkpt lat="48.034958" lon="11.20188">
<ele>499.652</ele>
<time>2022-05-26T10:31:46Z</time>
</trkpt>
<trkpt lat="48.034927" lon="11.201938">
<ele>499.652</ele>
<time>2022-05-26T10:31:47Z</time>
</trkpt>
<trkpt lat="48.034893" lon="11.202001">
<ele>499.652</ele>
<time>2022-05-26T10:31:48Z</time>
</trkpt>
<trkpt lat="48.034859" lon="11.20206">
<ele>499.652</ele>
<time>2022-05-26T10:31:49Z</time>
</trkpt>
<trkpt lat="48.034824" lon="11.202122">
<ele>499.652</ele>
<time>2022-05-26T10:31:50Z</time>
</trkpt>
<trkpt lat="48.03479" lon="11.20218">
<ele>499.652</ele>
<time>2022-05-26T10:31:51Z</time>
</trkpt>
<trkpt lat="48.034756" lon="11.202237">
<ele>499.652</ele>
<time>2022-05-26T10:31:52Z</time>
</trkpt>
<trkpt lat="48.034725" lon="11.202291">
<ele>499.652</ele>
<time>2022-05-26T10:31:53Z</time>
</trkpt>
<trkpt lat="48.034695" lon="11.202344">
<ele>499.652</ele>
<time>2022-05-26T10:31:54Z</time>
</trkpt>
<trkpt lat="48.034668" lon="11.202394">
<ele>499.652</ele>
<time>2022-05-26T10:31:55Z</time>
</trkpt>
<trkpt lat="48.034637" lon="11.202449">
<ele>499.652</ele>
<time>2022-05-26T10:31:56Z</time>
</trkpt>
<trkpt lat="48.034603" lon="11.202507">
<ele>499.652</ele>
<time>2022-05-26T10:31:57Z</time>
</trkpt>
<trkpt lat="48.034569" lon="11.202564">
<ele>499.652</ele>
<time>2022-05-26T10:31:58Z</time>
</trkpt>
<trkpt lat="48.034538" lon="11.202627">
<ele>499.652</ele>
<time>2022-05-26T10:31:59Z</time>
</trkpt>
<trkpt lat="48.034508" lon="11.202688">
<ele>499.652</ele>
<time>2022-05-26T10:32:00Z</time>
</trkpt>
<trkpt lat="48.034473" lon="11.202751">
<ele>499.652</ele>
<time>2022-05-26T10:32:01Z</time>
</trkpt>
<trkpt lat="48.034443" lon="11.202813">
<ele>499.652</ele>
<time>2022-05-26T10:32:02Z</time>
</trkpt>
<trkpt lat="48.034412" lon="11.202874">
<ele>499.652</ele>
<time>2022-05-26T10:32:03Z</time>
</trkpt>
<trkpt lat="48.034382" lon="11.20293">
<ele>499.652</ele>
<time>2022-05-26T10:32:04Z</time>
</trkpt>
<trkpt lat="48.034348" lon="11.202985">
<ele>499.652</ele>
<time>2022-05-26T10:32:05Z</time>
</trkpt>
<trkpt lat="48.034321" lon="11.203038">
<ele>499.652</ele>
<time>2022-05-26T10:32:06Z</time>
</trkpt>
<trkpt lat="48.03429" lon="11.203092">
<ele>499.652</ele>
<time>2022-05-26T10:32:07Z</time>
</trkpt>
<trkpt lat="48.034264" lon="11.203143">
<ele>499.652</ele>
<time>2022-05-26T10:32:08Z</time>
</trkpt>
<trkpt lat="48.034233" lon="11.203193">
<ele>499.652</ele>
<time>2022-05-26T10:32:09Z</time>
</trkpt>
<trkpt lat="48.034206" lon="11.20324">
<ele>499.652</ele>
<time>2022-05-26T10:32:10Z</time>
</trkpt>
<trkpt lat="48.03418" lon="11.203285">
<ele>499.652</ele>
<time>2022-05-26T10:32:11Z</time>
</trkpt>
<trkpt lat="48.034149" lon="11.203333">
<ele>499.652</ele>
<time>2022-05-26T10:32:12Z</time>
</trkpt>
<trkpt lat="48.034122" lon="11.20338">
<ele>499.652</ele>
<time>2022-05-26T10:32:13Z</time>
</trkpt>
<trkpt lat="48.034092" lon="11.203427">
<ele>499.652</ele>
<time>2022-05-26T10:32:14Z</time>
</trkpt>
<trkpt lat="48.034061" lon="11.203471">
<ele>499.652</ele>
<time>2022-05-26T10:32:15Z</time>
</trkpt>
<trkpt lat="48.034031" lon="11.203517">
<ele>499.652</ele>
<time>2022-05-26T10:32:16Z</time>
</trkpt>
<trkpt lat="48.034004" lon="11.203562">
<ele>499.652</ele>
<time>2022-05-26T10:32:17Z</time>
</trkpt>
<trkpt lat="48.033978" lon="11.203606">
<ele>499.652</ele>
<time>2022-05-26T10:32:18Z</time>
</trkpt>
<trkpt lat="48.033955" lon="11.203645">
<ele>499.652</ele>
<time>2022-05-26T10:32:19Z</time>
</trkpt>
<trkpt lat="48.033928" lon="11.203681">
<ele>499.856</ele>
<time>2022-05-26T10:32:20Z</time>
</trkpt>
<trkpt lat="48.033905" lon="11.203716">
<ele>500.028</ele>
<time>2022-05-26T10:32:21Z</time>
</trkpt>
<trkpt lat="48.033882" lon="11.20375">
<ele>500.171</ele>
<time>2022-05-26T10:32:22Z</time>
</trkpt>
<trkpt lat="48.033863" lon="11.203783">
<ele>500.289</ele>
<time>2022-05-26T10:32:23Z</time>
</trkpt>
<trkpt lat="48.03384" lon="11.203815">
<ele>500.381</ele>
<time>2022-05-26T10:32:24Z</time>
</trkpt>
<trkpt lat="48.033821" lon="11.203845">
<ele>500.45</ele>
<time>2022-05-26T10:32:25Z</time>
</trkpt>
<trkpt lat="48.033802" lon="11.203878">
<ele>500.497</ele>
<time>2022-05-26T10:32:26Z</time>
</trkpt>
<trkpt lat="48.033779" lon="11.20391">
<ele>500.521</ele>
<time>2022-05-26T10:32:27Z</time>
</trkpt>
<trkpt lat="48.03376" lon="11.203941">
<ele>500.521</ele>
<time>2022-05-26T10:32:28Z</time>
</trkpt>
<trkpt lat="48.033741" lon="11.203974">
<ele>500.521</ele>
<time>2022-05-26T10:32:29Z</time>
</trkpt>
<trkpt lat="48.03373" lon="11.203999">
<ele>500.521</ele>
<time>2022-05-26T10:32:30Z</time>
</trkpt>
<trkpt lat="48.033718" lon="11.204021">
<ele>500.521</ele>
<time>2022-05-26T10:32:31Z</time>
</trkpt>
<trkpt lat="48.033707" lon="11.204039">
<ele>500.521</ele>
<time>2022-05-26T10:32:32Z</time>
</trkpt>
<trkpt lat="48.033703" lon="11.204048">
<ele>500.521</ele>
<time>2022-05-26T10:32:33Z</time>
</trkpt>
<trkpt lat="48.033691" lon="11.204057">
<ele>500.738</ele>
<time>2022-05-26T10:32:34Z</time>
</trkpt>
<trkpt lat="48.033688" lon="11.204063">
<ele>500.915</ele>
<time>2022-05-26T10:32:35Z</time>
</trkpt>
<trkpt lat="48.033684" lon="11.204066">
<ele>501.064</ele>
<time>2022-05-26T10:32:36Z</time>
</trkpt>
<trkpt lat="48.03368" lon="11.204066">
<ele>501.181</ele>
<time>2022-05-26T10:32:38Z</time>
</trkpt>
<trkpt lat="48.033661" lon="11.20407">
<ele>501.276</ele>
<time>2022-05-26T10:33:14Z</time>
</trkpt>
<trkpt lat="48.033649" lon="11.204063">
<ele>501.359</ele>
<time>2022-05-26T10:33:15Z</time>
</trkpt>
<trkpt lat="48.033642" lon="11.204048">
<ele>501.436</ele>
<time>2022-05-26T10:33:16Z</time>
</trkpt>
<trkpt lat="48.033623" lon="11.204035">
<ele>501.475</ele>
<time>2022-05-26T10:33:17Z</time>
</trkpt>
<trkpt lat="48.033607" lon="11.204017">
<ele>501.475</ele>
<time>2022-05-26T10:33:18Z</time>
</trkpt>
<trkpt lat="48.033592" lon="11.203997">
<ele>501.475</ele>
<time>2022-05-26T10:33:19Z</time>
</trkpt>
<trkpt lat="48.033577" lon="11.203974">
<ele>501.475</ele>
<time>2022-05-26T10:33:20Z</time>
</trkpt>
<trkpt lat="48.033554" lon="11.203952">
<ele>501.475</ele>
<time>2022-05-26T10:33:21Z</time>
</trkpt>
<trkpt lat="48.033535" lon="11.20393">
<ele>501.475</ele>
<time>2022-05-26T10:33:22Z</time>
</trkpt>
<trkpt lat="48.033512" lon="11.203912">
<ele>501.475</ele>
<time>2022-05-26T10:33:23Z</time>
</trkpt>
<trkpt lat="48.033489" lon="11.203898">
<ele>501.475</ele>
<time>2022-05-26T10:33:24Z</time>
</trkpt>
<trkpt lat="48.033463" lon="11.20389">
<ele>501.475</ele>
<time>2022-05-26T10:33:25Z</time>
</trkpt>
<trkpt lat="48.033443" lon="11.203876">
<ele>501.475</ele>
<time>2022-05-26T10:33:26Z</time>
</trkpt>
<trkpt lat="48.033421" lon="11.203858">
<ele>501.475</ele>
<time>2022-05-26T10:33:27Z</time>
</trkpt>
<trkpt lat="48.033401" lon="11.20383">
<ele>501.475</ele>
<time>2022-05-26T10:33:28Z</time>
</trkpt>
<trkpt lat="48.033382" lon="11.203802">
<ele>501.475</ele>
<time>2022-05-26T10:33:29Z</time>
</trkpt>
<trkpt lat="48.033363" lon="11.203772">
<ele>501.475</ele>
<time>2022-05-26T10:33:30Z</time>
</trkpt>
<trkpt lat="48.033344" lon="11.203746">
<ele>501.708</ele>
<time>2022-05-26T10:33:31Z</time>
</trkpt>
<trkpt lat="48.033321" lon="11.203723">
<ele>501.892</ele>
<time>2022-05-26T10:33:32Z</time>
</trkpt>
<trkpt lat="48.033302" lon="11.2037">
<ele>502.025</ele>
<time>2022-05-26T10:33:33Z</time>
</trkpt>
<trkpt lat="48.033283" lon="11.203672">
<ele>502.134</ele>
<time>2022-05-26T10:33:34Z</time>
</trkpt>
<trkpt lat="48.033257" lon="11.203641">
<ele>502.202</ele>
<time>2022-05-26T10:33:35Z</time>
</trkpt>
<trkpt lat="48.033234" lon="11.203607">
<ele>502.275</ele>
<time>2022-05-26T10:33:36Z</time>
</trkpt>
<trkpt lat="48.033211" lon="11.203576">
<ele>502.322</ele>
<time>2022-05-26T10:33:37Z</time>
</trkpt>
<trkpt lat="48.033184" lon="11.203547">
<ele>502.344</ele>
<time>2022-05-26T10:33:38Z</time>
</trkpt>
<trkpt lat="48.033157" lon="11.203513">
<ele>502.344</ele>
<time>2022-05-26T10:33:39Z</time>
</trkpt>
<trkpt lat="48.033134" lon="11.20348">
<ele>502.344</ele>
<time>2022-05-26T10:33:40Z</time>
</trkpt>
<trkpt lat="48.033112" lon="11.203446">
<ele>502.344</ele>
<time>2022-05-26T10:33:41Z</time>
</trkpt>
<trkpt lat="48.033085" lon="11.203412">
<ele>502.344</ele>
<time>2022-05-26T10:33:42Z</time>
</trkpt>
<trkpt lat="48.033058" lon="11.203375">
<ele>502.344</ele>
<time>2022-05-26T10:33:43Z</time>
</trkpt>
<trkpt lat="48.033035" lon="11.20334">
<ele>502.344</ele>
<time>2022-05-26T10:33:44Z</time>
</trkpt>
<trkpt lat="48.033009" lon="11.203301">
<ele>502.56</ele>
<time>2022-05-26T10:33:45Z</time>
</trkpt>
<trkpt lat="48.032982" lon="11.203263">
<ele>502.763</ele>
<time>2022-05-26T10:33:46Z</time>
</trkpt>
<trkpt lat="48.032955" lon="11.20323">
<ele>502.928</ele>
<time>2022-05-26T10:33:47Z</time>
</trkpt>
<trkpt lat="48.032925" lon="11.203197">
<ele>503.06</ele>
<time>2022-05-26T10:33:48Z</time>
</trkpt>
<trkpt lat="48.032898" lon="11.203167">
<ele>503.16</ele>
<time>2022-05-26T10:33:49Z</time>
</trkpt>
<trkpt lat="48.032875" lon="11.20314">
<ele>503.231</ele>
<time>2022-05-26T10:33:50Z</time>
</trkpt>
<trkpt lat="48.032856" lon="11.203115">
<ele>503.275</ele>
<time>2022-05-26T10:33:51Z</time>
</trkpt>
<trkpt lat="48.032833" lon="11.203092">
<ele>503.298</ele>
<time>2022-05-26T10:33:52Z</time>
</trkpt>
<trkpt lat="48.032814" lon="11.203074">
<ele>503.298</ele>
<time>2022-05-26T10:33:53Z</time>
</trkpt>
<trkpt lat="48.032791" lon="11.203049">
<ele>503.298</ele>
<time>2022-05-26T10:33:54Z</time>
</trkpt>
<trkpt lat="48.032761" lon="11.203021">
<ele>503.298</ele>
<time>2022-05-26T10:33:55Z</time>
</trkpt>
<trkpt lat="48.03273" lon="11.202981">
<ele>503.298</ele>
<time>2022-05-26T10:33:56Z</time>
</trkpt>
<trkpt lat="48.032692" lon="11.202947">
<ele>503.298</ele>
<time>2022-05-26T10:33:57Z</time>
</trkpt>
<trkpt lat="48.03265" lon="11.202906">
<ele>503.298</ele>
<time>2022-05-26T10:33:58Z</time>
</trkpt>
<trkpt lat="48.032608" lon="11.202858">
<ele>503.298</ele>
<time>2022-05-26T10:33:59Z</time>
</trkpt>
<trkpt lat="48.032566" lon="11.202809">
<ele>503.298</ele>
<time>2022-05-26T10:34:00Z</time>
</trkpt>
<trkpt lat="48.032528" lon="11.202762">
<ele>503.298</ele>
<time>2022-05-26T10:34:01Z</time>
</trkpt>
<trkpt lat="48.032497" lon="11.202713">
<ele>503.298</ele>
<time>2022-05-26T10:34:02Z</time>
</trkpt>
<trkpt lat="48.032455" lon="11.202668">
<ele>503.298</ele>
<time>2022-05-26T10:34:03Z</time>
</trkpt>
<trkpt lat="48.03241" lon="11.202633">
<ele>503.298</ele>
<time>2022-05-26T10:34:04Z</time>
</trkpt>
<trkpt lat="48.032372" lon="11.202594">
<ele>503.298</ele>
<time>2022-05-26T10:34:05Z</time>
</trkpt>
<trkpt lat="48.03233" lon="11.202552">
<ele>503.298</ele>
<time>2022-05-26T10:34:06Z</time>
</trkpt>
<trkpt lat="48.032288" lon="11.202516">
<ele>503.298</ele>
<time>2022-05-26T10:34:07Z</time>
</trkpt>
<trkpt lat="48.032246" lon="11.202482">
<ele>503.298</ele>
<time>2022-05-26T10:34:08Z</time>
</trkpt>
<trkpt lat="48.032207" lon="11.202449">
<ele>503.298</ele>
<time>2022-05-26T10:34:09Z</time>
</trkpt>
<trkpt lat="48.032173" lon="11.20241">
<ele>503.298</ele>
<time>2022-05-26T10:34:10Z</time>
</trkpt>
<trkpt lat="48.032135" lon="11.202374">
<ele>503.298</ele>
<time>2022-05-26T10:34:11Z</time>
</trkpt>
<trkpt lat="48.032093" lon="11.202335">
<ele>503.298</ele>
<time>2022-05-26T10:34:12Z</time>
</trkpt>
<trkpt lat="48.032043" lon="11.202295">
<ele>503.537</ele>
<time>2022-05-26T10:34:13Z</time>
</trkpt>
<trkpt lat="48.032001" lon="11.20226">
<ele>503.727</ele>
<time>2022-05-26T10:34:14Z</time>
</trkpt>
<trkpt lat="48.03196" lon="11.202227">
<ele>503.861</ele>
<time>2022-05-26T10:34:15Z</time>
</trkpt>
<trkpt lat="48.031914" lon="11.202191">
<ele>504.005</ele>
<time>2022-05-26T10:34:16Z</time>
</trkpt>
<trkpt lat="48.031879" lon="11.202158">
<ele>504.109</ele>
<time>2022-05-26T10:34:17Z</time>
</trkpt>
<trkpt lat="48.031837" lon="11.202128">
<ele>504.183</ele>
<time>2022-05-26T10:34:18Z</time>
</trkpt>
<trkpt lat="48.031799" lon="11.202095">
<ele>504.231</ele>
<time>2022-05-26T10:34:19Z</time>
</trkpt>
<trkpt lat="48.031765" lon="11.202059">
<ele>504.253</ele>
<time>2022-05-26T10:34:20Z</time>
</trkpt>
<trkpt lat="48.031731" lon="11.202034">
<ele>504.253</ele>
<time>2022-05-26T10:34:21Z</time>
</trkpt>
<trkpt lat="48.0317" lon="11.20201">
<ele>504.253</ele>
<time>2022-05-26T10:34:22Z</time>
</trkpt>
<trkpt lat="48.03167" lon="11.201985">
<ele>504.253</ele>
<time>2022-05-26T10:34:23Z</time>
</trkpt>
<trkpt lat="48.031635" lon="11.201957">
<ele>504.472</ele>
<time>2022-05-26T10:34:24Z</time>
</trkpt>
<trkpt lat="48.031609" lon="11.20193">
<ele>504.635</ele>
<time>2022-05-26T10:34:25Z</time>
</trkpt>
<trkpt lat="48.031582" lon="11.201901">
<ele>504.802</ele>
<time>2022-05-26T10:34:26Z</time>
</trkpt>
<trkpt lat="48.031551" lon="11.201883">
<ele>504.941</ele>
<time>2022-05-26T10:34:27Z</time>
</trkpt>
<trkpt lat="48.031521" lon="11.201865">
<ele>505.053</ele>
<time>2022-05-26T10:34:28Z</time>
</trkpt>
<trkpt lat="48.03149" lon="11.201841">
<ele>505.127</ele>
<time>2022-05-26T10:34:29Z</time>
</trkpt>
<trkpt lat="48.031464" lon="11.201818">
<ele>505.389</ele>
<time>2022-05-26T10:34:30Z</time>
</trkpt>
<trkpt lat="48.031441" lon="11.201797">
<ele>505.585</ele>
<time>2022-05-26T10:34:31Z</time>
</trkpt>
<trkpt lat="48.031418" lon="11.201774">
<ele>505.755</ele>
<time>2022-05-26T10:34:32Z</time>
</trkpt>
<trkpt lat="48.031399" lon="11.201752">
<ele>505.863</ele>
<time>2022-05-26T10:34:33Z</time>
</trkpt>
<trkpt lat="48.031372" lon="11.201736">
<ele>505.943</ele>
<time>2022-05-26T10:34:34Z</time>
</trkpt>
<trkpt lat="48.031345" lon="11.201716">
<ele>506</ele>
<time>2022-05-26T10:34:35Z</time>
</trkpt>
<trkpt lat="48.031334" lon="11.201682">
<ele>506.053</ele>
<time>2022-05-26T10:34:36Z</time>
</trkpt>
<trkpt lat="48.031319" lon="11.201652">
<ele>506.077</ele>
<time>2022-05-26T10:34:37Z</time>
</trkpt>
<trkpt lat="48.031292" lon="11.201647">
<ele>506.077</ele>
<time>2022-05-26T10:34:38Z</time>
</trkpt>
<trkpt lat="48.031273" lon="11.201618">
<ele>506.346</ele>
<time>2022-05-26T10:34:39Z</time>
</trkpt>
<trkpt lat="48.03125" lon="11.201593">
<ele>506.55</ele>
<time>2022-05-26T10:34:40Z</time>
</trkpt>
<trkpt lat="48.031227" lon="11.201563">
<ele>506.717</ele>
<time>2022-05-26T10:34:41Z</time>
</trkpt>
<trkpt lat="48.031189" lon="11.201558">
<ele>506.832</ele>
<time>2022-05-26T10:34:42Z</time>
</trkpt>
<trkpt lat="48.031162" lon="11.201542">
<ele>506.916</ele>
<time>2022-05-26T10:34:43Z</time>
</trkpt>
<trkpt lat="48.03112" lon="11.20153">
<ele>506.969</ele>
<time>2022-05-26T10:34:44Z</time>
</trkpt>
<trkpt lat="48.031086" lon="11.201521">
<ele>507.007</ele>
<time>2022-05-26T10:34:45Z</time>
</trkpt>
<trkpt lat="48.031059" lon="11.20151">
<ele>507.032</ele>
<time>2022-05-26T10:34:46Z</time>
</trkpt>
<trkpt lat="48.031029" lon="11.201496">
<ele>507.032</ele>
<time>2022-05-26T10:34:47Z</time>
</trkpt>
<trkpt lat="48.030994" lon="11.201477">
<ele>507.032</ele>
<time>2022-05-26T10:34:48Z</time>
</trkpt>
<trkpt lat="48.030956" lon="11.201458">
<ele>507.032</ele>
<time>2022-05-26T10:34:49Z</time>
</trkpt>
<trkpt lat="48.030926" lon="11.201433">
<ele>507.032</ele>
<time>2022-05-26T10:34:50Z</time>
</trkpt>
<trkpt lat="48.030888" lon="11.201422">
<ele>507.032</ele>
<time>2022-05-26T10:34:51Z</time>
</trkpt>
<trkpt lat="48.030857" lon="11.201413">
<ele>507.032</ele>
<time>2022-05-26T10:34:52Z</time>
</trkpt>
<trkpt lat="48.030834" lon="11.201399">
<ele>507.269</ele>
<time>2022-05-26T10:34:53Z</time>
</trkpt>
<trkpt lat="48.030804" lon="11.201386">
<ele>507.456</ele>
<time>2022-05-26T10:34:54Z</time>
</trkpt>
<trkpt lat="48.030777" lon="11.201374">
<ele>507.581</ele>
<time>2022-05-26T10:34:55Z</time>
</trkpt>
<trkpt lat="48.030739" lon="11.201364">
<ele>507.713</ele>
<time>2022-05-26T10:34:56Z</time>
</trkpt>
<trkpt lat="48.030704" lon="11.201355">
<ele>507.824</ele>
<time>2022-05-26T10:34:57Z</time>
</trkpt>
<trkpt lat="48.030663" lon="11.201342">
<ele>507.907</ele>
<time>2022-05-26T10:34:58Z</time>
</trkpt>
<trkpt lat="48.030617" lon="11.201335">
<ele>507.957</ele>
<time>2022-05-26T10:34:59Z</time>
</trkpt>
<trkpt lat="48.030579" lon="11.201333">
<ele>508.219</ele>
<time>2022-05-26T10:35:00Z</time>
</trkpt>
<trkpt lat="48.03054" lon="11.201335">
<ele>508.436</ele>
<time>2022-05-26T10:35:01Z</time>
</trkpt>
<trkpt lat="48.030502" lon="11.201328">
<ele>508.572</ele>
<time>2022-05-26T10:35:02Z</time>
</trkpt>
<trkpt lat="48.030468" lon="11.201309">
<ele>508.662</ele>
<time>2022-05-26T10:35:03Z</time>
</trkpt>
<trkpt lat="48.030434" lon="11.201297">
<ele>508.733</ele>
<time>2022-05-26T10:35:04Z</time>
</trkpt>
<trkpt lat="48.030392" lon="11.201284">
<ele>508.786</ele>
<time>2022-05-26T10:35:05Z</time>
</trkpt>
<trkpt lat="48.030357" lon="11.201275">
<ele>508.832</ele>
<time>2022-05-26T10:35:06Z</time>
</trkpt>
<trkpt lat="48.030319" lon="11.201262">
<ele>508.856</ele>
<time>2022-05-26T10:35:07Z</time>
</trkpt>
<trkpt lat="48.030285" lon="11.20125">
<ele>508.856</ele>
<time>2022-05-26T10:35:08Z</time>
</trkpt>
<trkpt lat="48.030251" lon="11.201232">
<ele>508.856</ele>
<time>2022-05-26T10:35:09Z</time>
</trkpt>
<trkpt lat="48.030216" lon="11.201211">
<ele>508.856</ele>
<time>2022-05-26T10:35:10Z</time>
</trkpt>
<trkpt lat="48.030178" lon="11.20119">
<ele>508.856</ele>
<time>2022-05-26T10:35:11Z</time>
</trkpt>
<trkpt lat="48.030125" lon="11.201188">
<ele>508.856</ele>
<time>2022-05-26T10:35:12Z</time>
</trkpt>
<trkpt lat="48.030087" lon="11.201183">
<ele>508.856</ele>
<time>2022-05-26T10:35:13Z</time>
</trkpt>
<trkpt lat="48.030045" lon="11.201188">
<ele>508.856</ele>
<time>2022-05-26T10:35:14Z</time>
</trkpt>
<trkpt lat="48.03001" lon="11.201202">
<ele>508.656</ele>
<time>2022-05-26T10:35:15Z</time>
</trkpt>
<trkpt lat="48.029987" lon="11.20123">
<ele>508.476</ele>
<time>2022-05-26T10:35:16Z</time>
</trkpt>
<trkpt lat="48.029961" lon="11.201275">
<ele>508.332</ele>
<time>2022-05-26T10:35:17Z</time>
</trkpt>
<trkpt lat="48.029949" lon="11.201324">
<ele>508.22</ele>
<time>2022-05-26T10:35:18Z</time>
</trkpt>
<trkpt lat="48.029942" lon="11.201351">
<ele>508.13</ele>
<time>2022-05-26T10:35:19Z</time>
</trkpt>
<trkpt lat="48.02993" lon="11.20138">
<ele>508.064</ele>
<time>2022-05-26T10:35:20Z</time>
</trkpt>
<trkpt lat="48.02993" lon="11.201412">
<ele>508.011</ele>
<time>2022-05-26T10:35:21Z</time>
</trkpt>
<trkpt lat="48.029922" lon="11.201493">
<ele>507.987</ele>
<time>2022-05-26T10:35:22Z</time>
</trkpt>
<trkpt lat="48.029926" lon="11.201588">
<ele>507.987</ele>
<time>2022-05-26T10:35:23Z</time>
</trkpt>
<trkpt lat="48.029942" lon="11.201638">
<ele>507.987</ele>
<time>2022-05-26T10:35:24Z</time>
</trkpt>
<trkpt lat="48.029968" lon="11.201663">
<ele>507.987</ele>
<time>2022-05-26T10:35:25Z</time>
</trkpt>
<trkpt lat="48.029999" lon="11.201667">
<ele>507.988</ele>
<time>2022-05-26T10:35:26Z</time>
</trkpt>
<trkpt lat="48.030029" lon="11.20167">
<ele>507.987</ele>
<time>2022-05-26T10:35:27Z</time>
</trkpt>
<trkpt lat="48.030064" lon="11.201667">
<ele>507.987</ele>
<time>2022-05-26T10:35:28Z</time>
</trkpt>
<trkpt lat="48.030098" lon="11.201665">
<ele>508.244</ele>
<time>2022-05-26T10:35:29Z</time>
</trkpt>
<trkpt lat="48.030136" lon="11.201659">
<ele>508.424</ele>
<time>2022-05-26T10:35:30Z</time>
</trkpt>
<trkpt lat="48.030167" lon="11.201658">
<ele>508.586</ele>
<time>2022-05-26T10:35:31Z</time>
</trkpt>
<trkpt lat="48.030205" lon="11.201653">
<ele>508.741</ele>
<time>2022-05-26T10:35:32Z</time>
</trkpt>
<trkpt lat="48.030247" lon="11.201651">
<ele>508.805</ele>
<time>2022-05-26T10:35:33Z</time>
</trkpt>
<trkpt lat="48.030285" lon="11.201651">
<ele>509.09</ele>
<time>2022-05-26T10:35:34Z</time>
</trkpt>
<trkpt lat="48.030319" lon="11.201655">
<ele>509.29</ele>
<time>2022-05-26T10:35:35Z</time>
</trkpt>
<trkpt lat="48.030365" lon="11.201661">
<ele>509.471</ele>
<time>2022-05-26T10:35:36Z</time>
</trkpt>
<trkpt lat="48.030403" lon="11.201672">
<ele>509.593</ele>
<time>2022-05-26T10:35:37Z</time>
</trkpt>
<trkpt lat="48.030445" lon="11.201689">
<ele>509.687</ele>
<time>2022-05-26T10:35:38Z</time>
</trkpt>
<trkpt lat="48.030483" lon="11.201707">
<ele>509.753</ele>
<time>2022-05-26T10:35:39Z</time>
</trkpt>
<trkpt lat="48.030525" lon="11.201726">
<ele>509.792</ele>
<time>2022-05-26T10:35:40Z</time>
</trkpt>
<trkpt lat="48.030571" lon="11.20175">
<ele>509.812</ele>
<time>2022-05-26T10:35:41Z</time>
</trkpt>
<trkpt lat="48.030609" lon="11.201772">
<ele>509.812</ele>
<time>2022-05-26T10:35:42Z</time>
</trkpt>
<trkpt lat="48.030643" lon="11.201792">
<ele>509.812</ele>
<time>2022-05-26T10:35:43Z</time>
</trkpt>
<trkpt lat="48.030678" lon="11.201814">
<ele>509.812</ele>
<time>2022-05-26T10:35:44Z</time>
</trkpt>
<trkpt lat="48.030712" lon="11.201838">
<ele>509.812</ele>
<time>2022-05-26T10:35:45Z</time>
</trkpt>
<trkpt lat="48.03075" lon="11.201865">
<ele>509.812</ele>
<time>2022-05-26T10:35:46Z</time>
</trkpt>
<trkpt lat="48.030788" lon="11.201899">
<ele>509.812</ele>
<time>2022-05-26T10:35:47Z</time>
</trkpt>
<trkpt lat="48.030827" lon="11.201938">
<ele>509.812</ele>
<time>2022-05-26T10:35:48Z</time>
</trkpt>
<trkpt lat="48.030861" lon="11.201982">
<ele>509.812</ele>
<time>2022-05-26T10:35:49Z</time>
</trkpt>
<trkpt lat="48.030899" lon="11.202024">
<ele>509.812</ele>
<time>2022-05-26T10:35:50Z</time>
</trkpt>
<trkpt lat="48.030933" lon="11.202067">
<ele>509.812</ele>
<time>2022-05-26T10:35:51Z</time>
</trkpt>
<trkpt lat="48.030968" lon="11.202113">
<ele>509.812</ele>
<time>2022-05-26T10:35:52Z</time>
</trkpt>
<trkpt lat="48.030998" lon="11.202162">
<ele>509.812</ele>
<time>2022-05-26T10:35:53Z</time>
</trkpt>
<trkpt lat="48.031033" lon="11.202213">
<ele>509.812</ele>
<time>2022-05-26T10:35:54Z</time>
</trkpt>
<trkpt lat="48.031067" lon="11.202263">
<ele>509.812</ele>
<time>2022-05-26T10:35:55Z</time>
</trkpt>
<trkpt lat="48.031097" lon="11.202315">
<ele>509.812</ele>
<time>2022-05-26T10:35:56Z</time>
</trkpt>
<trkpt lat="48.031128" lon="11.202369">
<ele>509.812</ele>
<time>2022-05-26T10:35:57Z</time>
</trkpt>
<trkpt lat="48.031151" lon="11.202422">
<ele>509.812</ele>
<time>2022-05-26T10:35:58Z</time>
</trkpt>
<trkpt lat="48.031181" lon="11.202463">
<ele>509.812</ele>
<time>2022-05-26T10:35:59Z</time>
</trkpt>
<trkpt lat="48.031212" lon="11.202514">
<ele>509.812</ele>
<time>2022-05-26T10:36:00Z</time>
</trkpt>
<trkpt lat="48.031239" lon="11.202554">
<ele>509.812</ele>
<time>2022-05-26T10:36:01Z</time>
</trkpt>
<trkpt lat="48.031273" lon="11.202596">
<ele>509.597</ele>
<time>2022-05-26T10:36:02Z</time>
</trkpt>
<trkpt lat="48.031303" lon="11.202641">
<ele>509.421</ele>
<time>2022-05-26T10:36:03Z</time>
</trkpt>
<trkpt lat="48.031342" lon="11.20269">
<ele>509.282</ele>
<time>2022-05-26T10:36:04Z</time>
</trkpt>
<trkpt lat="48.03138" lon="11.202738">
<ele>509.187</ele>
<time>2022-05-26T10:36:05Z</time>
</trkpt>
<trkpt lat="48.031418" lon="11.202799">
<ele>509.083</ele>
<time>2022-05-26T10:36:06Z</time>
</trkpt>
<trkpt lat="48.031456" lon="11.20286">
<ele>509.008</ele>
<time>2022-05-26T10:36:07Z</time>
</trkpt>
<trkpt lat="48.031498" lon="11.202925">
<ele>508.965</ele>
<time>2022-05-26T10:36:08Z</time>
</trkpt>
<trkpt lat="48.031536" lon="11.202988">
<ele>508.943</ele>
<time>2022-05-26T10:36:09Z</time>
</trkpt>
<trkpt lat="48.03157" lon="11.203054">
<ele>508.943</ele>
<time>2022-05-26T10:36:10Z</time>
</trkpt>
<trkpt lat="48.031601" lon="11.203118">
<ele>508.943</ele>
<time>2022-05-26T10:36:11Z</time>
</trkpt>
<trkpt lat="48.031628" lon="11.20318">
<ele>508.943</ele>
<time>2022-05-26T10:36:12Z</time>
</trkpt>
<trkpt lat="48.031654" lon="11.20324">
<ele>508.943</ele>
<time>2022-05-26T10:36:13Z</time>
</trkpt>
<trkpt lat="48.031681" lon="11.203293">
<ele>508.943</ele>
<time>2022-05-26T10:36:14Z</time>
</trkpt>
<trkpt lat="48.031696" lon="11.203345">
<ele>508.943</ele>
<time>2022-05-26T10:36:15Z</time>
</trkpt>
<trkpt lat="48.031715" lon="11.203397">
<ele>508.943</ele>
<time>2022-05-26T10:36:16Z</time>
</trkpt>
<trkpt lat="48.031727" lon="11.203448">
<ele>508.943</ele>
<time>2022-05-26T10:36:17Z</time>
</trkpt>
<trkpt lat="48.031742" lon="11.203505">
<ele>508.943</ele>
<time>2022-05-26T10:36:18Z</time>
</trkpt>
<trkpt lat="48.031757" lon="11.20356">
<ele>508.943</ele>
<time>2022-05-26T10:36:19Z</time>
</trkpt>
<trkpt lat="48.031773" lon="11.203609">
<ele>508.943</ele>
<time>2022-05-26T10:36:20Z</time>
</trkpt>
<trkpt lat="48.031792" lon="11.203658">
<ele>508.943</ele>
<time>2022-05-26T10:36:21Z</time>
</trkpt>
<trkpt lat="48.031811" lon="11.203711">
<ele>508.943</ele>
<time>2022-05-26T10:36:22Z</time>
</trkpt>
<trkpt lat="48.031822" lon="11.203762">
<ele>508.943</ele>
<time>2022-05-26T10:36:23Z</time>
</trkpt>
<trkpt lat="48.03183" lon="11.203821">
<ele>508.943</ele>
<time>2022-05-26T10:36:24Z</time>
</trkpt>
<trkpt lat="48.031841" lon="11.203876">
<ele>508.943</ele>
<time>2022-05-26T10:36:25Z</time>
</trkpt>
<trkpt lat="48.031849" lon="11.203928">
<ele>508.943</ele>
<time>2022-05-26T10:36:26Z</time>
</trkpt>
<trkpt lat="48.031864" lon="11.203968">
<ele>508.943</ele>
<time>2022-05-26T10:36:27Z</time>
</trkpt>
<trkpt lat="48.031879" lon="11.204003">
<ele>508.943</ele>
<time>2022-05-26T10:36:28Z</time>
</trkpt>
<trkpt lat="48.031902" lon="11.204022">
<ele>508.943</ele>
<time>2022-05-26T10:36:29Z</time>
</trkpt>
<trkpt lat="48.031925" lon="11.204026">
<ele>508.943</ele>
<time>2022-05-26T10:36:30Z</time>
</trkpt>
<trkpt lat="48.031948" lon="11.204017">
<ele>508.943</ele>
<time>2022-05-26T10:36:31Z</time>
</trkpt>
<trkpt lat="48.031979" lon="11.203999">
<ele>508.943</ele>
<time>2022-05-26T10:36:32Z</time>
</trkpt>
<trkpt lat="48.032009" lon="11.203977">
<ele>508.943</ele>
<time>2022-05-26T10:36:33Z</time>
</trkpt>
<trkpt lat="48.032032" lon="11.203959">
<ele>508.943</ele>
<time>2022-05-26T10:36:34Z</time>
</trkpt>
<trkpt lat="48.032059" lon="11.203949">
<ele>508.943</ele>
<time>2022-05-26T10:36:35Z</time>
</trkpt>
<trkpt lat="48.032082" lon="11.203937">
<ele>508.943</ele>
<time>2022-05-26T10:36:36Z</time>
</trkpt>
<trkpt lat="48.032108" lon="11.203919">
<ele>508.943</ele>
<time>2022-05-26T10:36:37Z</time>
</trkpt>
<trkpt lat="48.032131" lon="11.203892">
<ele>508.943</ele>
<time>2022-05-26T10:36:38Z</time>
</trkpt>
<trkpt lat="48.032146" lon="11.203855">
<ele>508.672</ele>
<time>2022-05-26T10:36:39Z</time>
</trkpt>
<trkpt lat="48.032154" lon="11.203814">
<ele>508.47</ele>
<time>2022-05-26T10:36:40Z</time>
</trkpt>
<trkpt lat="48.032146" lon="11.203773">
<ele>508.31</ele>
<time>2022-05-26T10:36:41Z</time>
</trkpt>
<trkpt lat="48.032127" lon="11.203744">
<ele>508.181</ele>
<time>2022-05-26T10:36:42Z</time>
</trkpt>
<trkpt lat="48.032108" lon="11.203729">
<ele>508.103</ele>
<time>2022-05-26T10:36:43Z</time>
</trkpt>
<trkpt lat="48.032093" lon="11.203729">
<ele>508.052</ele>
<time>2022-05-26T10:36:44Z</time>
</trkpt>
<trkpt lat="48.032078" lon="11.203746">
<ele>508.012</ele>
<time>2022-05-26T10:36:45Z</time>
</trkpt>
<trkpt lat="48.032066" lon="11.203762">
<ele>507.987</ele>
<time>2022-05-26T10:36:46Z</time>
</trkpt>
<trkpt lat="48.032055" lon="11.203785">
<ele>507.987</ele>
<time>2022-05-26T10:36:47Z</time>
</trkpt>
<trkpt lat="48.032047" lon="11.203811">
<ele>507.987</ele>
<time>2022-05-26T10:36:48Z</time>
</trkpt>
<trkpt lat="48.032047" lon="11.20384">
<ele>507.987</ele>
<time>2022-05-26T10:36:49Z</time>
</trkpt>
<trkpt lat="48.032047" lon="11.20388">
<ele>507.987</ele>
<time>2022-05-26T10:36:50Z</time>
</trkpt>
<trkpt lat="48.032059" lon="11.203914">
<ele>507.987</ele>
<time>2022-05-26T10:36:51Z</time>
</trkpt>
<trkpt lat="48.03207" lon="11.20395">
<ele>507.987</ele>
<time>2022-05-26T10:36:52Z</time>
</trkpt>
<trkpt lat="48.032082" lon="11.203979">
<ele>507.987</ele>
<time>2022-05-26T10:36:53Z</time>
</trkpt>
<trkpt lat="48.032093" lon="11.203995">
<ele>507.987</ele>
<time>2022-05-26T10:36:54Z</time>
</trkpt>
<trkpt lat="48.032104" lon="11.204007">
<ele>507.987</ele>
<time>2022-05-26T10:36:55Z</time>
</trkpt>
<trkpt lat="48.032104" lon="11.204005">
<ele>507.987</ele>
<time>2022-05-26T10:36:56Z</time>
</trkpt>
<trkpt lat="48.032108" lon="11.204008">
<ele>507.987</ele>
<time>2022-05-26T10:36:57Z</time>
</trkpt>
<trkpt lat="48.032116" lon="11.204007">
<ele>507.987</ele>
<time>2022-05-26T10:36:58Z</time>
</trkpt>
<trkpt lat="48.032124" lon="11.203997">
<ele>507.987</ele>
<time>2022-05-26T10:39:43Z</time>
</trkpt>
<trkpt lat="48.032116" lon="11.203991">
<ele>507.987</ele>
<time>2022-05-26T10:39:44Z</time>
</trkpt>
<trkpt lat="48.032112" lon="11.203985">
<ele>507.987</ele>
<time>2022-05-26T10:39:45Z</time>
</trkpt>
<trkpt lat="48.032104" lon="11.203983">
<ele>507.987</ele>
<time>2022-05-26T10:39:46Z</time>
</trkpt>
<trkpt lat="48.032101" lon="11.203982">
<ele>507.987</ele>
<time>2022-05-26T10:39:47Z</time>
</trkpt>
<trkpt lat="48.032097" lon="11.20398">
<ele>507.987</ele>
<time>2022-05-26T10:39:48Z</time>
</trkpt>
<trkpt lat="48.032093" lon="11.203982">
<ele>507.987</ele>
<time>2022-05-26T10:39:49Z</time>
</trkpt>
<trkpt lat="48.032093" lon="11.20398">
<ele>508.166</ele>
<time>2022-05-26T10:39:50Z</time>
</trkpt>
<trkpt lat="48.03204" lon="11.203974">
<ele>508.406</ele>
<time>2022-05-26T10:41:29Z</time>
</trkpt>
<trkpt lat="48.032032" lon="11.203975">
<ele>508.588</ele>
<time>2022-05-26T10:41:30Z</time>
</trkpt>
<trkpt lat="48.032021" lon="11.20398">
<ele>508.696</ele>
<time>2022-05-26T10:41:31Z</time>
</trkpt>
<trkpt lat="48.032009" lon="11.203987">
<ele>508.769</ele>
<time>2022-05-26T10:41:32Z</time>
</trkpt>
<trkpt lat="48.031994" lon="11.204001">
<ele>508.831</ele>
<time>2022-05-26T10:41:33Z</time>
</trkpt>
<trkpt lat="48.031979" lon="11.204015">
<ele>508.851</ele>
<time>2022-05-26T10:41:34Z</time>
</trkpt>
<trkpt lat="48.031967" lon="11.204035">
<ele>508.856</ele>
<time>2022-05-26T10:41:35Z</time>
</trkpt>
<trkpt lat="48.031952" lon="11.204062">
<ele>508.856</ele>
<time>2022-05-26T10:41:36Z</time>
</trkpt>
<trkpt lat="48.031944" lon="11.204094">
<ele>508.856</ele>
<time>2022-05-26T10:41:37Z</time>
</trkpt>
<trkpt lat="48.03194" lon="11.204133">
<ele>508.856</ele>
<time>2022-05-26T10:41:38Z</time>
</trkpt>
<trkpt lat="48.03194" lon="11.204178">
<ele>508.856</ele>
<time>2022-05-26T10:41:39Z</time>
</trkpt>
<trkpt lat="48.03194" lon="11.204228">
<ele>508.856</ele>
<time>2022-05-26T10:41:40Z</time>
</trkpt>
<trkpt lat="48.031944" lon="11.204278">
<ele>508.856</ele>
<time>2022-05-26T10:41:41Z</time>
</trkpt>
<trkpt lat="48.031948" lon="11.20433">
<ele>508.856</ele>
<time>2022-05-26T10:41:42Z</time>
</trkpt>
<trkpt lat="48.031956" lon="11.20438">
<ele>508.856</ele>
<time>2022-05-26T10:41:43Z</time>
</trkpt>
<trkpt lat="48.031971" lon="11.204425">
<ele>508.856</ele>
<time>2022-05-26T10:41:44Z</time>
</trkpt>
<trkpt lat="48.031982" lon="11.204469">
<ele>508.856</ele>
<time>2022-05-26T10:41:45Z</time>
</trkpt>
<trkpt lat="48.032001" lon="11.204512">
<ele>508.856</ele>
<time>2022-05-26T10:41:46Z</time>
</trkpt>
<trkpt lat="48.032017" lon="11.204558">
<ele>508.856</ele>
<time>2022-05-26T10:41:47Z</time>
</trkpt>
<trkpt lat="48.032036" lon="11.204597">
<ele>508.856</ele>
<time>2022-05-26T10:41:48Z</time>
</trkpt>
<trkpt lat="48.032051" lon="11.204632">
<ele>508.856</ele>
<time>2022-05-26T10:41:49Z</time>
</trkpt>
<trkpt lat="48.032078" lon="11.204661">
<ele>508.856</ele>
<time>2022-05-26T10:41:50Z</time>
</trkpt>
<trkpt lat="48.032097" lon="11.204691">
<ele>508.856</ele>
<time>2022-05-26T10:41:51Z</time>
</trkpt>
<trkpt lat="48.032112" lon="11.204724">
<ele>508.856</ele>
<time>2022-05-26T10:41:52Z</time>
</trkpt>
<trkpt lat="48.032124" lon="11.204766">
<ele>508.856</ele>
<time>2022-05-26T10:41:53Z</time>
</trkpt>
<trkpt lat="48.032131" lon="11.204812">
<ele>508.856</ele>
<time>2022-05-26T10:41:54Z</time>
</trkpt>
<trkpt lat="48.032131" lon="11.20486">
<ele>508.856</ele>
<time>2022-05-26T10:41:55Z</time>
</trkpt>
<trkpt lat="48.032127" lon="11.20491">
<ele>508.856</ele>
<time>2022-05-26T10:41:56Z</time>
</trkpt>
<trkpt lat="48.032127" lon="11.204955">
<ele>509.092</ele>
<time>2022-05-26T10:41:57Z</time>
</trkpt>
<trkpt lat="48.032124" lon="11.204999">
<ele>509.312</ele>
<time>2022-05-26T10:41:58Z</time>
</trkpt>
<trkpt lat="48.032116" lon="11.205038">
<ele>509.493</ele>
<time>2022-05-26T10:41:59Z</time>
</trkpt>
<trkpt lat="48.032112" lon="11.205074">
<ele>509.615</ele>
<time>2022-05-26T10:42:00Z</time>
</trkpt>
<trkpt lat="48.032108" lon="11.205118">
<ele>509.958</ele>
<time>2022-05-26T10:42:01Z</time>
</trkpt>
<trkpt lat="48.032097" lon="11.205153">
<ele>510.197</ele>
<time>2022-05-26T10:42:02Z</time>
</trkpt>
<trkpt lat="48.032089" lon="11.205185">
<ele>510.658</ele>
<time>2022-05-26T10:42:03Z</time>
</trkpt>
<trkpt lat="48.032078" lon="11.205213">
<ele>511.028</ele>
<time>2022-05-26T10:42:04Z</time>
</trkpt>
<trkpt lat="48.032074" lon="11.205252">
<ele>511.36</ele>
<time>2022-05-26T10:42:05Z</time>
</trkpt>
<trkpt lat="48.032063" lon="11.205298">
<ele>511.509</ele>
<time>2022-05-26T10:42:06Z</time>
</trkpt>
<trkpt lat="48.032055" lon="11.205343">
<ele>511.903</ele>
<time>2022-05-26T10:42:07Z</time>
</trkpt>
<trkpt lat="48.032043" lon="11.205386">
<ele>512.234</ele>
<time>2022-05-26T10:42:08Z</time>
</trkpt>
<trkpt lat="48.032036" lon="11.20543">
<ele>512.432</ele>
<time>2022-05-26T10:42:09Z</time>
</trkpt>
<trkpt lat="48.032024" lon="11.20547">
<ele>512.866</ele>
<time>2022-05-26T10:42:10Z</time>
</trkpt>
<trkpt lat="48.032013" lon="11.205514">
<ele>513.136</ele>
<time>2022-05-26T10:42:11Z</time>
</trkpt>
<trkpt lat="48.032005" lon="11.205555">
<ele>513.618</ele>
<time>2022-05-26T10:42:12Z</time>
</trkpt>
<trkpt lat="48.031986" lon="11.205595">
<ele>513.922</ele>
<time>2022-05-26T10:42:13Z</time>
</trkpt>
<trkpt lat="48.031971" lon="11.205628">
<ele>514.407</ele>
<time>2022-05-26T10:42:14Z</time>
</trkpt>
<trkpt lat="48.031952" lon="11.205652">
<ele>515.121</ele>
<time>2022-05-26T10:42:15Z</time>
</trkpt>
<trkpt lat="48.031929" lon="11.205671">
<ele>515.523</ele>
<time>2022-05-26T10:42:16Z</time>
</trkpt>
<trkpt lat="48.03191" lon="11.205692">
<ele>516.144</ele>
<time>2022-05-26T10:42:17Z</time>
</trkpt>
<trkpt lat="48.031887" lon="11.2057">
<ele>516.64</ele>
<time>2022-05-26T10:42:18Z</time>
</trkpt>
<trkpt lat="48.031864" lon="11.205707">
<ele>517.244</ele>
<time>2022-05-26T10:42:19Z</time>
</trkpt>
<trkpt lat="48.031845" lon="11.205715">
<ele>517.678</ele>
<time>2022-05-26T10:42:20Z</time>
</trkpt>
<trkpt lat="48.031815" lon="11.205718">
<ele>518.28</ele>
<time>2022-05-26T10:42:21Z</time>
</trkpt>
<trkpt lat="48.031788" lon="11.205715">
<ele>518.748</ele>
<time>2022-05-26T10:42:22Z</time>
</trkpt>
<trkpt lat="48.031761" lon="11.205713">
<ele>519.042</ele>
<time>2022-05-26T10:42:23Z</time>
</trkpt>
<trkpt lat="48.031734" lon="11.205722">
<ele>519.598</ele>
<time>2022-05-26T10:42:24Z</time>
</trkpt>
<trkpt lat="48.031708" lon="11.205726">
<ele>520.035</ele>
<time>2022-05-26T10:42:25Z</time>
</trkpt>
<trkpt lat="48.031685" lon="11.205722">
<ele>520.564</ele>
<time>2022-05-26T10:42:26Z</time>
</trkpt>
<trkpt lat="48.031662" lon="11.205711">
<ele>520.947</ele>
<time>2022-05-26T10:42:27Z</time>
</trkpt>
<trkpt lat="48.031643" lon="11.205702">
<ele>521.263</ele>
<time>2022-05-26T10:42:28Z</time>
</trkpt>
<trkpt lat="48.03162" lon="11.205694">
<ele>521.738</ele>
<time>2022-05-26T10:42:29Z</time>
</trkpt>
<trkpt lat="48.031601" lon="11.20568">
<ele>522.139</ele>
<time>2022-05-26T10:42:30Z</time>
</trkpt>
<trkpt lat="48.031578" lon="11.205663">
<ele>522.396</ele>
<time>2022-05-26T10:42:31Z</time>
</trkpt>
<trkpt lat="48.031563" lon="11.205635">
<ele>522.832</ele>
<time>2022-05-26T10:42:32Z</time>
</trkpt>
<trkpt lat="48.031551" lon="11.205608">
<ele>523.191</ele>
<time>2022-05-26T10:42:33Z</time>
</trkpt>
<trkpt lat="48.031536" lon="11.20559">
<ele>523.518</ele>
<time>2022-05-26T10:42:34Z</time>
</trkpt>
<trkpt lat="48.031521" lon="11.205564">
<ele>523.632</ele>
<time>2022-05-26T10:42:35Z</time>
</trkpt>
<trkpt lat="48.031506" lon="11.205542">
<ele>523.974</ele>
<time>2022-05-26T10:42:36Z</time>
</trkpt>
<trkpt lat="48.03149" lon="11.205517">
<ele>524.208</ele>
<time>2022-05-26T10:42:37Z</time>
</trkpt>
<trkpt lat="48.031479" lon="11.205483">
<ele>524.414</ele>
<time>2022-05-26T10:42:38Z</time>
</trkpt>
<trkpt lat="48.03146" lon="11.20545">
<ele>524.825</ele>
<time>2022-05-26T10:42:39Z</time>
</trkpt>
<trkpt lat="48.031445" lon="11.20542">
<ele>525.142</ele>
<time>2022-05-26T10:42:40Z</time>
</trkpt>
<trkpt lat="48.031425" lon="11.20539">
<ele>525.352</ele>
<time>2022-05-26T10:42:41Z</time>
</trkpt>
<trkpt lat="48.03141" lon="11.205359">
<ele>525.777</ele>
<time>2022-05-26T10:42:42Z</time>
</trkpt>
<trkpt lat="48.031391" lon="11.205328">
<ele>526.04</ele>
<time>2022-05-26T10:42:43Z</time>
</trkpt>
<trkpt lat="48.031368" lon="11.205302">
<ele>526.601</ele>
<time>2022-05-26T10:42:44Z</time>
</trkpt>
<trkpt lat="48.031345" lon="11.205281">
<ele>526.919</ele>
<time>2022-05-26T10:42:45Z</time>
</trkpt>
<trkpt lat="48.031322" lon="11.205267">
<ele>527.132</ele>
<time>2022-05-26T10:42:46Z</time>
</trkpt>
<trkpt lat="48.031288" lon="11.205252">
<ele>527.299</ele>
<time>2022-05-26T10:42:47Z</time>
</trkpt>
<trkpt lat="48.031261" lon="11.20525">
<ele>527.458</ele>
<time>2022-05-26T10:42:48Z</time>
</trkpt>
<trkpt lat="48.031235" lon="11.205248">
<ele>527.795</ele>
<time>2022-05-26T10:42:49Z</time>
</trkpt>
<trkpt lat="48.031212" lon="11.205252">
<ele>528.037</ele>
<time>2022-05-26T10:42:50Z</time>
</trkpt>
<trkpt lat="48.031185" lon="11.20526">
<ele>528.221</ele>
<time>2022-05-26T10:42:51Z</time>
</trkpt>
<trkpt lat="48.031158" lon="11.205267">
<ele>528.436</ele>
<time>2022-05-26T10:42:52Z</time>
</trkpt>
<trkpt lat="48.031132" lon="11.205272">
<ele>528.499</ele>
<time>2022-05-26T10:42:53Z</time>
</trkpt>
<trkpt lat="48.031101" lon="11.205278">
<ele>528.8</ele>
<time>2022-05-26T10:42:54Z</time>
</trkpt>
<trkpt lat="48.031075" lon="11.205285">
<ele>529.029</ele>
<time>2022-05-26T10:42:55Z</time>
</trkpt>
<trkpt lat="48.031052" lon="11.205294">
<ele>529.187</ele>
<time>2022-05-26T10:42:56Z</time>
</trkpt>
<trkpt lat="48.031025" lon="11.205303">
<ele>529.29</ele>
<time>2022-05-26T10:42:57Z</time>
</trkpt>
<trkpt lat="48.030994" lon="11.205315">
<ele>529.399</ele>
<time>2022-05-26T10:42:58Z</time>
</trkpt>
<trkpt lat="48.030964" lon="11.205325">
<ele>529.475</ele>
<time>2022-05-26T10:42:59Z</time>
</trkpt>
<trkpt lat="48.030933" lon="11.205337">
<ele>529.523</ele>
<time>2022-05-26T10:43:00Z</time>
</trkpt>
<trkpt lat="48.030903" lon="11.205352">
<ele>529.769</ele>
<time>2022-05-26T10:43:01Z</time>
</trkpt>
<trkpt lat="48.030872" lon="11.205367">
<ele>529.995</ele>
<time>2022-05-26T10:43:02Z</time>
</trkpt>
<trkpt lat="48.030846" lon="11.20538">
<ele>530.139</ele>
<time>2022-05-26T10:43:03Z</time>
</trkpt>
<trkpt lat="48.030819" lon="11.205395">
<ele>530.242</ele>
<time>2022-05-26T10:43:04Z</time>
</trkpt>
<trkpt lat="48.030792" lon="11.205414">
<ele>530.291</ele>
<time>2022-05-26T10:43:05Z</time>
</trkpt>
<trkpt lat="48.030766" lon="11.205437">
<ele>530.598</ele>
<time>2022-05-26T10:43:06Z</time>
</trkpt>
<trkpt lat="48.030735" lon="11.205472">
<ele>530.827</ele>
<time>2022-05-26T10:43:07Z</time>
</trkpt>
<trkpt lat="48.030708" lon="11.205519">
<ele>531.029</ele>
<time>2022-05-26T10:43:08Z</time>
</trkpt>
<trkpt lat="48.030689" lon="11.205573">
<ele>531.464</ele>
<time>2022-05-26T10:43:09Z</time>
</trkpt>
<trkpt lat="48.030674" lon="11.205624">
<ele>531.805</ele>
<time>2022-05-26T10:43:10Z</time>
</trkpt>
<trkpt lat="48.030659" lon="11.205678">
<ele>532.072</ele>
<time>2022-05-26T10:43:11Z</time>
</trkpt>
<trkpt lat="48.030643" lon="11.205731">
<ele>532.226</ele>
<time>2022-05-26T10:43:12Z</time>
</trkpt>
<trkpt lat="48.030632" lon="11.205782">
<ele>532.604</ele>
<time>2022-05-26T10:43:13Z</time>
</trkpt>
<trkpt lat="48.030617" lon="11.205832">
<ele>532.939</ele>
<time>2022-05-26T10:43:14Z</time>
</trkpt>
<trkpt lat="48.030598" lon="11.205883">
<ele>533.099</ele>
<time>2022-05-26T10:43:15Z</time>
</trkpt>
<trkpt lat="48.030579" lon="11.205934">
<ele>533.221</ele>
<time>2022-05-26T10:43:16Z</time>
</trkpt>
<trkpt lat="48.030563" lon="11.205981">
<ele>533.304</ele>
<time>2022-05-26T10:43:17Z</time>
</trkpt>
<trkpt lat="48.030544" lon="11.206028">
<ele>533.388</ele>
<time>2022-05-26T10:43:18Z</time>
</trkpt>
<trkpt lat="48.030521" lon="11.206074">
<ele>533.65</ele>
<time>2022-05-26T10:43:19Z</time>
</trkpt>
<trkpt lat="48.030499" lon="11.206115">
<ele>533.857</ele>
<time>2022-05-26T10:43:20Z</time>
</trkpt>
<trkpt lat="48.030472" lon="11.206157">
<ele>534.079</ele>
<time>2022-05-26T10:43:21Z</time>
</trkpt>
<trkpt lat="48.030445" lon="11.206193">
<ele>534.188</ele>
<time>2022-05-26T10:43:22Z</time>
</trkpt>
<trkpt lat="48.030418" lon="11.206223">
<ele>534.263</ele>
<time>2022-05-26T10:43:23Z</time>
</trkpt>
<trkpt lat="48.030388" lon="11.206253">
<ele>534.311</ele>
<time>2022-05-26T10:43:24Z</time>
</trkpt>
<trkpt lat="48.030354" lon="11.206282">
<ele>534.334</ele>
<time>2022-05-26T10:43:25Z</time>
</trkpt>
<trkpt lat="48.030319" lon="11.20631">
<ele>534.339</ele>
<time>2022-05-26T10:43:26Z</time>
</trkpt>
<trkpt lat="48.030285" lon="11.206328">
<ele>534.553</ele>
<time>2022-05-26T10:43:27Z</time>
</trkpt>
<trkpt lat="48.030251" lon="11.206344">
<ele>534.754</ele>
<time>2022-05-26T10:43:28Z</time>
</trkpt>
<trkpt lat="48.03022" lon="11.206358">
<ele>534.919</ele>
<time>2022-05-26T10:43:29Z</time>
</trkpt>
<trkpt lat="48.030186" lon="11.206378">
<ele>535.036</ele>
<time>2022-05-26T10:43:30Z</time>
</trkpt>
<trkpt lat="48.030155" lon="11.206395">
<ele>535.398</ele>
<time>2022-05-26T10:43:31Z</time>
</trkpt>
<trkpt lat="48.030125" lon="11.206413">
<ele>535.68</ele>
<time>2022-05-26T10:43:32Z</time>
</trkpt>
<trkpt lat="48.03009" lon="11.206433">
<ele>535.899</ele>
<time>2022-05-26T10:43:33Z</time>
</trkpt>
<trkpt lat="48.03006" lon="11.206453">
<ele>536.071</ele>
<time>2022-05-26T10:43:34Z</time>
</trkpt>
<trkpt lat="48.030025" lon="11.206471">
<ele>536.192</ele>
<time>2022-05-26T10:43:35Z</time>
</trkpt>
<trkpt lat="48.029995" lon="11.206492">
<ele>536.515</ele>
<time>2022-05-26T10:43:36Z</time>
</trkpt>
<trkpt lat="48.029964" lon="11.206511">
<ele>536.75</ele>
<time>2022-05-26T10:43:37Z</time>
</trkpt>
<trkpt lat="48.029938" lon="11.206532">
<ele>536.961</ele>
<time>2022-05-26T10:43:38Z</time>
</trkpt>
<trkpt lat="48.029907" lon="11.206552">
<ele>537.112</ele>
<time>2022-05-26T10:43:39Z</time>
</trkpt>
<trkpt lat="48.029877" lon="11.206574">
<ele>537.225</ele>
<time>2022-05-26T10:43:40Z</time>
</trkpt>
<trkpt lat="48.029846" lon="11.206601">
<ele>537.307</ele>
<time>2022-05-26T10:43:41Z</time>
</trkpt>
<trkpt lat="48.029816" lon="11.206627">
<ele>537.36</ele>
<time>2022-05-26T10:43:42Z</time>
</trkpt>
<trkpt lat="48.029778" lon="11.206654">
<ele>537.387</ele>
<time>2022-05-26T10:43:43Z</time>
</trkpt>
<trkpt lat="48.029747" lon="11.206673">
<ele>537.387</ele>
<time>2022-05-26T10:43:44Z</time>
</trkpt>
<trkpt lat="48.029716" lon="11.20669">
<ele>537.651</ele>
<time>2022-05-26T10:43:45Z</time>
</trkpt>
<trkpt lat="48.029678" lon="11.206704">
<ele>537.862</ele>
<time>2022-05-26T10:43:46Z</time>
</trkpt>
<trkpt lat="48.029633" lon="11.206723">
<ele>538.003</ele>
<time>2022-05-26T10:43:47Z</time>
</trkpt>
<trkpt lat="48.029594" lon="11.206739">
<ele>538.156</ele>
<time>2022-05-26T10:43:48Z</time>
</trkpt>
<trkpt lat="48.029552" lon="11.206752">
<ele>538.27</ele>
<time>2022-05-26T10:43:49Z</time>
</trkpt>
<trkpt lat="48.029514" lon="11.206763">
<ele>538.354</ele>
<time>2022-05-26T10:43:50Z</time>
</trkpt>
<trkpt lat="48.029472" lon="11.206772">
<ele>538.401</ele>
<time>2022-05-26T10:43:51Z</time>
</trkpt>
<trkpt lat="48.029434" lon="11.206783">
<ele>538.672</ele>
<time>2022-05-26T10:43:52Z</time>
</trkpt>
<trkpt lat="48.029396" lon="11.206795">
<ele>538.903</ele>
<time>2022-05-26T10:43:53Z</time>
</trkpt>
<trkpt lat="48.029358" lon="11.206805">
<ele>539.022</ele>
<time>2022-05-26T10:43:54Z</time>
</trkpt>
<trkpt lat="48.02932" lon="11.206815">
<ele>539.357</ele>
<time>2022-05-26T10:43:55Z</time>
</trkpt>
<trkpt lat="48.029282" lon="11.206825">
<ele>539.62</ele>
<time>2022-05-26T10:43:56Z</time>
</trkpt>
<trkpt lat="48.029243" lon="11.206834">
<ele>539.816</ele>
<time>2022-05-26T10:43:57Z</time>
</trkpt>
<trkpt lat="48.029205" lon="11.206841">
<ele>540.228</ele>
<time>2022-05-26T10:43:58Z</time>
</trkpt>
<trkpt lat="48.029175" lon="11.20685">
<ele>540.543</ele>
<time>2022-05-26T10:43:59Z</time>
</trkpt>
<trkpt lat="48.029137" lon="11.20686">
<ele>540.741</ele>
<time>2022-05-26T10:44:00Z</time>
</trkpt>
<trkpt lat="48.029099" lon="11.20687">
<ele>541.165</ele>
<time>2022-05-26T10:44:01Z</time>
</trkpt>
<trkpt lat="48.029057" lon="11.206877">
<ele>541.454</ele>
<time>2022-05-26T10:44:02Z</time>
</trkpt>
<trkpt lat="48.029015" lon="11.206886">
<ele>541.923</ele>
<time>2022-05-26T10:44:03Z</time>
</trkpt>
<trkpt lat="48.028976" lon="11.206897">
<ele>542.298</ele>
<time>2022-05-26T10:44:04Z</time>
</trkpt>
<trkpt lat="48.028934" lon="11.206908">
<ele>542.58</ele>
<time>2022-05-26T10:44:05Z</time>
</trkpt>
<trkpt lat="48.028896" lon="11.206917">
<ele>542.775</ele>
<time>2022-05-26T10:44:06Z</time>
</trkpt>
<trkpt lat="48.028858" lon="11.206926">
<ele>542.885</ele>
<time>2022-05-26T10:44:07Z</time>
</trkpt>
<trkpt lat="48.02882" lon="11.206937">
<ele>543.216</ele>
<time>2022-05-26T10:44:08Z</time>
</trkpt>
<trkpt lat="48.028782" lon="11.206947">
<ele>543.453</ele>
<time>2022-05-26T10:44:09Z</time>
</trkpt>
<trkpt lat="48.028748" lon="11.20696">
<ele>543.634</ele>
<time>2022-05-26T10:44:10Z</time>
</trkpt>
<trkpt lat="48.028709" lon="11.206972">
<ele>543.762</ele>
<time>2022-05-26T10:44:11Z</time>
</trkpt>
<trkpt lat="48.028675" lon="11.206985">
<ele>543.842</ele>
<time>2022-05-26T10:44:12Z</time>
</trkpt>
<trkpt lat="48.028637" lon="11.206998">
<ele>544.159</ele>
<time>2022-05-26T10:44:13Z</time>
</trkpt>
<trkpt lat="48.028603" lon="11.20701">
<ele>544.411</ele>
<time>2022-05-26T10:44:14Z</time>
</trkpt>
<trkpt lat="48.028564" lon="11.207025">
<ele>544.595</ele>
<time>2022-05-26T10:44:15Z</time>
</trkpt>
<trkpt lat="48.02853" lon="11.207039">
<ele>544.726</ele>
<time>2022-05-26T10:44:16Z</time>
</trkpt>
<trkpt lat="48.028488" lon="11.207053">
<ele>544.807</ele>
<time>2022-05-26T10:44:17Z</time>
</trkpt>
<trkpt lat="48.028458" lon="11.20707">
<ele>545.102</ele>
<time>2022-05-26T10:44:18Z</time>
</trkpt>
<trkpt lat="48.028419" lon="11.207093">
<ele>545.334</ele>
<time>2022-05-26T10:44:19Z</time>
</trkpt>
<trkpt lat="48.028385" lon="11.207115">
<ele>545.507</ele>
<time>2022-05-26T10:44:20Z</time>
</trkpt>
<trkpt lat="48.028351" lon="11.207138">
<ele>545.625</ele>
<time>2022-05-26T10:44:21Z</time>
</trkpt>
<trkpt lat="48.02832" lon="11.207161">
<ele>545.696</ele>
<time>2022-05-26T10:44:22Z</time>
</trkpt>
<trkpt lat="48.028286" lon="11.207189">
<ele>546.024</ele>
<time>2022-05-26T10:44:23Z</time>
</trkpt>
<trkpt lat="48.028252" lon="11.207217">
<ele>546.285</ele>
<time>2022-05-26T10:44:24Z</time>
</trkpt>
<trkpt lat="48.028221" lon="11.207247">
<ele>546.48</ele>
<time>2022-05-26T10:44:25Z</time>
</trkpt>
<trkpt lat="48.028191" lon="11.207275">
<ele>546.623</ele>
<time>2022-05-26T10:44:26Z</time>
</trkpt>
<trkpt lat="48.028156" lon="11.207308">
<ele>546.708</ele>
<time>2022-05-26T10:44:27Z</time>
</trkpt>
<trkpt lat="48.02813" lon="11.207341">
<ele>547.055</ele>
<time>2022-05-26T10:44:28Z</time>
</trkpt>
<trkpt lat="48.028099" lon="11.207375">
<ele>547.327</ele>
<time>2022-05-26T10:44:29Z</time>
</trkpt>
<trkpt lat="48.028069" lon="11.207408">
<ele>547.529</ele>
<time>2022-05-26T10:44:30Z</time>
</trkpt>
<trkpt lat="48.028049" lon="11.207443">
<ele>547.667</ele>
<time>2022-05-26T10:44:31Z</time>
</trkpt>
<trkpt lat="48.028027" lon="11.207479">
<ele>547.755</ele>
<time>2022-05-26T10:44:32Z</time>
</trkpt>
<trkpt lat="48.028" lon="11.20752">
<ele>548.074</ele>
<time>2022-05-26T10:44:33Z</time>
</trkpt>
<trkpt lat="48.027981" lon="11.207557">
<ele>548.324</ele>
<time>2022-05-26T10:44:34Z</time>
</trkpt>
<trkpt lat="48.027962" lon="11.207592">
<ele>548.482</ele>
<time>2022-05-26T10:44:35Z</time>
</trkpt>
<trkpt lat="48.027943" lon="11.207632">
<ele>548.851</ele>
<time>2022-05-26T10:44:36Z</time>
</trkpt>
<trkpt lat="48.027927" lon="11.207672">
<ele>549.117</ele>
<time>2022-05-26T10:44:37Z</time>
</trkpt>
<trkpt lat="48.027905" lon="11.207706">
<ele>549.364</ele>
<time>2022-05-26T10:44:38Z</time>
</trkpt>
<trkpt lat="48.027889" lon="11.207746">
<ele>549.769</ele>
<time>2022-05-26T10:44:39Z</time>
</trkpt>
<trkpt lat="48.02787" lon="11.207785">
<ele>550.078</ele>
<time>2022-05-26T10:44:40Z</time>
</trkpt>
<trkpt lat="48.027851" lon="11.207823">
<ele>550.27</ele>
<time>2022-05-26T10:44:41Z</time>
</trkpt>
<trkpt lat="48.027836" lon="11.207862">
<ele>550.691</ele>
<time>2022-05-26T10:44:42Z</time>
</trkpt>
<trkpt lat="48.027817" lon="11.2079">
<ele>551.014</ele>
<time>2022-05-26T10:44:43Z</time>
</trkpt>
<trkpt lat="48.027798" lon="11.20794">
<ele>551.277</ele>
<time>2022-05-26T10:44:44Z</time>
</trkpt>
<trkpt lat="48.027782" lon="11.207978">
<ele>551.683</ele>
<time>2022-05-26T10:44:45Z</time>
</trkpt>
<trkpt lat="48.027763" lon="11.208015">
<ele>551.963</ele>
<time>2022-05-26T10:44:46Z</time>
</trkpt>
<trkpt lat="48.027744" lon="11.208052">
<ele>552.16</ele>
<time>2022-05-26T10:44:47Z</time>
</trkpt>
<trkpt lat="48.027729" lon="11.20809">
<ele>552.605</ele>
<time>2022-05-26T10:44:48Z</time>
</trkpt>
<trkpt lat="48.027714" lon="11.208129">
<ele>552.953</ele>
<time>2022-05-26T10:44:49Z</time>
</trkpt>
<trkpt lat="48.027699" lon="11.208163">
<ele>553.206</ele>
<time>2022-05-26T10:44:50Z</time>
</trkpt>
<trkpt lat="48.027679" lon="11.2082">
<ele>553.367</ele>
<time>2022-05-26T10:44:51Z</time>
</trkpt>
<trkpt lat="48.027664" lon="11.208236">
<ele>553.723</ele>
<time>2022-05-26T10:44:52Z</time>
</trkpt>
<trkpt lat="48.027649" lon="11.20827">
<ele>553.962</ele>
<time>2022-05-26T10:44:53Z</time>
</trkpt>
<trkpt lat="48.027634" lon="11.208303">
<ele>554.405</ele>
<time>2022-05-26T10:44:54Z</time>
</trkpt>
<trkpt lat="48.027615" lon="11.208335">
<ele>554.752</ele>
<time>2022-05-26T10:44:55Z</time>
</trkpt>
<trkpt lat="48.027599" lon="11.20837">
<ele>554.967</ele>
<time>2022-05-26T10:44:56Z</time>
</trkpt>
<trkpt lat="48.027584" lon="11.208405">
<ele>555.385</ele>
<time>2022-05-26T10:44:57Z</time>
</trkpt>
<trkpt lat="48.027573" lon="11.208439">
<ele>555.746</ele>
<time>2022-05-26T10:44:58Z</time>
</trkpt>
<trkpt lat="48.027557" lon="11.208473">
<ele>555.99</ele>
<time>2022-05-26T10:44:59Z</time>
</trkpt>
<trkpt lat="48.027542" lon="11.208508">
<ele>556.423</ele>
<time>2022-05-26T10:45:00Z</time>
</trkpt>
<trkpt lat="48.027531" lon="11.208546">
<ele>556.719</ele>
<time>2022-05-26T10:45:01Z</time>
</trkpt>
<trkpt lat="48.027515" lon="11.208582">
<ele>557.205</ele>
<time>2022-05-26T10:45:02Z</time>
</trkpt>
<trkpt lat="48.027512" lon="11.20862">
<ele>557.593</ele>
<time>2022-05-26T10:45:03Z</time>
</trkpt>
<trkpt lat="48.027496" lon="11.208658">
<ele>557.839</ele>
<time>2022-05-26T10:45:04Z</time>
</trkpt>
<trkpt lat="48.027485" lon="11.208694">
<ele>558.332</ele>
<time>2022-05-26T10:45:05Z</time>
</trkpt>
<trkpt lat="48.027477" lon="11.20873">
<ele>558.656</ele>
<time>2022-05-26T10:45:06Z</time>
</trkpt>
<trkpt lat="48.027466" lon="11.208765">
<ele>558.878</ele>
<time>2022-05-26T10:45:07Z</time>
</trkpt>
<trkpt lat="48.027454" lon="11.208798">
<ele>559.343</ele>
<time>2022-05-26T10:45:08Z</time>
</trkpt>
<trkpt lat="48.027447" lon="11.208835">
<ele>559.708</ele>
<time>2022-05-26T10:45:09Z</time>
</trkpt>
<trkpt lat="48.027443" lon="11.208872">
<ele>559.934</ele>
<time>2022-05-26T10:45:10Z</time>
</trkpt>
<trkpt lat="48.027435" lon="11.208906">
<ele>560.381</ele>
<time>2022-05-26T10:45:11Z</time>
</trkpt>
<trkpt lat="48.027428" lon="11.208943">
<ele>560.694</ele>
<time>2022-05-26T10:45:12Z</time>
</trkpt>
<trkpt lat="48.027424" lon="11.208975">
<ele>561.196</ele>
<time>2022-05-26T10:45:13Z</time>
</trkpt>
<trkpt lat="48.027416" lon="11.20901">
<ele>561.593</ele>
<time>2022-05-26T10:45:14Z</time>
</trkpt>
<trkpt lat="48.027412" lon="11.209042">
<ele>561.888</ele>
<time>2022-05-26T10:45:15Z</time>
</trkpt>
<trkpt lat="48.027412" lon="11.209075">
<ele>562.065</ele>
<time>2022-05-26T10:45:16Z</time>
</trkpt>
<trkpt lat="48.027409" lon="11.209106">
<ele>562.412</ele>
<time>2022-05-26T10:45:17Z</time>
</trkpt>
<trkpt lat="48.027405" lon="11.209139">
<ele>562.703</ele>
<time>2022-05-26T10:45:18Z</time>
</trkpt>
<trkpt lat="48.027397" lon="11.209174">
<ele>562.89</ele>
<time>2022-05-26T10:45:19Z</time>
</trkpt>
<trkpt lat="48.027397" lon="11.209208">
<ele>563.279</ele>
<time>2022-05-26T10:45:20Z</time>
</trkpt>
<trkpt lat="48.027393" lon="11.209242">
<ele>563.583</ele>
<time>2022-05-26T10:45:21Z</time>
</trkpt>
<trkpt lat="48.02739" lon="11.209275">
<ele>563.776</ele>
<time>2022-05-26T10:45:22Z</time>
</trkpt>
<trkpt lat="48.02739" lon="11.209311">
<ele>564.209</ele>
<time>2022-05-26T10:45:23Z</time>
</trkpt>
<trkpt lat="48.02739" lon="11.209345">
<ele>564.536</ele>
<time>2022-05-26T10:45:24Z</time>
</trkpt>
<trkpt lat="48.027386" lon="11.20938">
<ele>564.777</ele>
<time>2022-05-26T10:45:25Z</time>
</trkpt>
<trkpt lat="48.027386" lon="11.209419">
<ele>565.167</ele>
<time>2022-05-26T10:45:26Z</time>
</trkpt>
<trkpt lat="48.02739" lon="11.209461">
<ele>565.452</ele>
<time>2022-05-26T10:45:27Z</time>
</trkpt>
<trkpt lat="48.027393" lon="11.209505">
<ele>565.699</ele>
<time>2022-05-26T10:45:28Z</time>
</trkpt>
<trkpt lat="48.027393" lon="11.209547">
<ele>566.147</ele>
<time>2022-05-26T10:45:29Z</time>
</trkpt>
<trkpt lat="48.02739" lon="11.20959">
<ele>566.48</ele>
<time>2022-05-26T10:45:30Z</time>
</trkpt>
<trkpt lat="48.027386" lon="11.209628">
<ele>566.713</ele>
<time>2022-05-26T10:45:31Z</time>
</trkpt>
<trkpt lat="48.027382" lon="11.209668">
<ele>566.856</ele>
<time>2022-05-26T10:45:32Z</time>
</trkpt>
<trkpt lat="48.027382" lon="11.20971">
<ele>567.2</ele>
<time>2022-05-26T10:45:33Z</time>
</trkpt>
<trkpt lat="48.027378" lon="11.209748">
<ele>567.517</ele>
<time>2022-05-26T10:45:34Z</time>
</trkpt>
<trkpt lat="48.027374" lon="11.209786">
<ele>567.639</ele>
<time>2022-05-26T10:45:35Z</time>
</trkpt>
<trkpt lat="48.027374" lon="11.209828">
<ele>568.037</ele>
<time>2022-05-26T10:45:36Z</time>
</trkpt>
<trkpt lat="48.02737" lon="11.209871">
<ele>568.327</ele>
<time>2022-05-26T10:45:37Z</time>
</trkpt>
<trkpt lat="48.027363" lon="11.209913">
<ele>568.607</ele>
<time>2022-05-26T10:45:38Z</time>
</trkpt>
<trkpt lat="48.027359" lon="11.209956">
<ele>568.807</ele>
<time>2022-05-26T10:45:39Z</time>
</trkpt>
<trkpt lat="48.027351" lon="11.210006">
<ele>569.201</ele>
<time>2022-05-26T10:45:40Z</time>
</trkpt>
<trkpt lat="48.027348" lon="11.210052">
<ele>569.456</ele>
<time>2022-05-26T10:45:41Z</time>
</trkpt>
<trkpt lat="48.027344" lon="11.210098">
<ele>569.965</ele>
<time>2022-05-26T10:45:42Z</time>
</trkpt>
<trkpt lat="48.027336" lon="11.210145">
<ele>570.347</ele>
<time>2022-05-26T10:45:43Z</time>
</trkpt>
<trkpt lat="48.027325" lon="11.210188">
<ele>570.639</ele>
<time>2022-05-26T10:45:44Z</time>
</trkpt>
<trkpt lat="48.027317" lon="11.210234">
<ele>571.068</ele>
<time>2022-05-26T10:45:45Z</time>
</trkpt>
<trkpt lat="48.027309" lon="11.210283">
<ele>571.365</ele>
<time>2022-05-26T10:45:46Z</time>
</trkpt>
<trkpt lat="48.027302" lon="11.210337">
<ele>571.579</ele>
<time>2022-05-26T10:45:47Z</time>
</trkpt>
<trkpt lat="48.02729" lon="11.210388">
<ele>572.001</ele>
<time>2022-05-26T10:45:48Z</time>
</trkpt>
<trkpt lat="48.027283" lon="11.210437">
<ele>572.33</ele>
<time>2022-05-26T10:45:49Z</time>
</trkpt>
<trkpt lat="48.027271" lon="11.210485">
<ele>572.525</ele>
<time>2022-05-26T10:45:50Z</time>
</trkpt>
<trkpt lat="48.02726" lon="11.210532">
<ele>572.952</ele>
<time>2022-05-26T10:45:51Z</time>
</trkpt>
<trkpt lat="48.027252" lon="11.21058">
<ele>573.279</ele>
<time>2022-05-26T10:45:52Z</time>
</trkpt>
<trkpt lat="48.027237" lon="11.210627">
<ele>573.474</ele>
<time>2022-05-26T10:45:53Z</time>
</trkpt>
<trkpt lat="48.027229" lon="11.210672">
<ele>573.888</ele>
<time>2022-05-26T10:45:54Z</time>
</trkpt>
<trkpt lat="48.027222" lon="11.210722">
<ele>574.214</ele>
<time>2022-05-26T10:45:55Z</time>
</trkpt>
<trkpt lat="48.027214" lon="11.210767">
<ele>574.458</ele>
<time>2022-05-26T10:45:56Z</time>
</trkpt>
<trkpt lat="48.027206" lon="11.210814">
<ele>574.614</ele>
<time>2022-05-26T10:45:57Z</time>
</trkpt>
<trkpt lat="48.027195" lon="11.210867">
<ele>574.987</ele>
<time>2022-05-26T10:45:58Z</time>
</trkpt>
<trkpt lat="48.027184" lon="11.210919">
<ele>575.268</ele>
<time>2022-05-26T10:45:59Z</time>
</trkpt>
<trkpt lat="48.027168" lon="11.21097">
<ele>575.481</ele>
<time>2022-05-26T10:46:00Z</time>
</trkpt>
<trkpt lat="48.027153" lon="11.211021">
<ele>575.639</ele>
<time>2022-05-26T10:46:01Z</time>
</trkpt>
<trkpt lat="48.027142" lon="11.211075">
<ele>575.718</ele>
<time>2022-05-26T10:46:02Z</time>
</trkpt>
<trkpt lat="48.027126" lon="11.211128">
<ele>576.016</ele>
<time>2022-05-26T10:46:03Z</time>
</trkpt>
<trkpt lat="48.027119" lon="11.211185">
<ele>576.252</ele>
<time>2022-05-26T10:46:04Z</time>
</trkpt>
<trkpt lat="48.027103" lon="11.211242">
<ele>576.418</ele>
<time>2022-05-26T10:46:05Z</time>
</trkpt>
<trkpt lat="48.027088" lon="11.211299">
<ele>576.531</ele>
<time>2022-05-26T10:46:06Z</time>
</trkpt>
<trkpt lat="48.027077" lon="11.211358">
<ele>576.603</ele>
<time>2022-05-26T10:46:07Z</time>
</trkpt>
<trkpt lat="48.027069" lon="11.21142">
<ele>576.919</ele>
<time>2022-05-26T10:46:08Z</time>
</trkpt>
<trkpt lat="48.027058" lon="11.211481">
<ele>577.163</ele>
<time>2022-05-26T10:46:09Z</time>
</trkpt>
<trkpt lat="48.027046" lon="11.211538">
<ele>577.347</ele>
<time>2022-05-26T10:46:10Z</time>
</trkpt>
<trkpt lat="48.027031" lon="11.211598">
<ele>577.448</ele>
<time>2022-05-26T10:46:11Z</time>
</trkpt>
<trkpt lat="48.02702" lon="11.211658">
<ele>577.771</ele>
<time>2022-05-26T10:46:12Z</time>
</trkpt>
<trkpt lat="48.027004" lon="11.211718">
<ele>578.028</ele>
<time>2022-05-26T10:46:13Z</time>
</trkpt>
<trkpt lat="48.026989" lon="11.211781">
<ele>578.225</ele>
<time>2022-05-26T10:46:14Z</time>
</trkpt>
<trkpt lat="48.026974" lon="11.211843">
<ele>578.365</ele>
<time>2022-05-26T10:46:15Z</time>
</trkpt>
<trkpt lat="48.026958" lon="11.211905">
<ele>578.456</ele>
<time>2022-05-26T10:46:16Z</time>
</trkpt>
<trkpt lat="48.026951" lon="11.211965">
<ele>578.511</ele>
<time>2022-05-26T10:46:17Z</time>
</trkpt>
<trkpt lat="48.026932" lon="11.212026">
<ele>578.561</ele>
<time>2022-05-26T10:46:18Z</time>
</trkpt>
<trkpt lat="48.02692" lon="11.212085">
<ele>578.583</ele>
<time>2022-05-26T10:46:19Z</time>
</trkpt>
<trkpt lat="48.026905" lon="11.212143">
<ele>578.859</ele>
<time>2022-05-26T10:46:20Z</time>
</trkpt>
<trkpt lat="48.026894" lon="11.212204">
<ele>579.073</ele>
<time>2022-05-26T10:46:21Z</time>
</trkpt>
<trkpt lat="48.026882" lon="11.212265">
<ele>579.235</ele>
<time>2022-05-26T10:46:22Z</time>
</trkpt>
<trkpt lat="48.026863" lon="11.212327">
<ele>579.36</ele>
<time>2022-05-26T10:46:23Z</time>
</trkpt>
<trkpt lat="48.026852" lon="11.212388">
<ele>579.425</ele>
<time>2022-05-26T10:46:24Z</time>
</trkpt>
<trkpt lat="48.026836" lon="11.21245">
<ele>579.733</ele>
<time>2022-05-26T10:46:25Z</time>
</trkpt>
<trkpt lat="48.026829" lon="11.21251">
<ele>579.951</ele>
<time>2022-05-26T10:46:26Z</time>
</trkpt>
<trkpt lat="48.026817" lon="11.21257">
<ele>580.108</ele>
<time>2022-05-26T10:46:27Z</time>
</trkpt>
<trkpt lat="48.02681" lon="11.212631">
<ele>580.242</ele>
<time>2022-05-26T10:46:28Z</time>
</trkpt>
<trkpt lat="48.026802" lon="11.212695">
<ele>580.584</ele>
<time>2022-05-26T10:46:29Z</time>
</trkpt>
<trkpt lat="48.026794" lon="11.21276">
<ele>580.859</ele>
<time>2022-05-26T10:46:30Z</time>
</trkpt>
<trkpt lat="48.026791" lon="11.212824">
<ele>581.071</ele>
<time>2022-05-26T10:46:31Z</time>
</trkpt>
<trkpt lat="48.026787" lon="11.212887">
<ele>581.227</ele>
<time>2022-05-26T10:46:32Z</time>
</trkpt>
<trkpt lat="48.026787" lon="11.21295">
<ele>581.388</ele>
<time>2022-05-26T10:46:33Z</time>
</trkpt>
<trkpt lat="48.026791" lon="11.213017">
<ele>581.445</ele>
<time>2022-05-26T10:46:34Z</time>
</trkpt>
<trkpt lat="48.026794" lon="11.213086">
<ele>581.464</ele>
<time>2022-05-26T10:46:35Z</time>
</trkpt>
<trkpt lat="48.026798" lon="11.21316">
<ele>581.469</ele>
<time>2022-05-26T10:46:36Z</time>
</trkpt>
<trkpt lat="48.02681" lon="11.213237">
<ele>581.469</ele>
<time>2022-05-26T10:46:37Z</time>
</trkpt>
<trkpt lat="48.026825" lon="11.213314">
<ele>581.469</ele>
<time>2022-05-26T10:46:38Z</time>
</trkpt>
<trkpt lat="48.026836" lon="11.213391">
<ele>581.469</ele>
<time>2022-05-26T10:46:39Z</time>
</trkpt>
<trkpt lat="48.026855" lon="11.21347">
<ele>581.469</ele>
<time>2022-05-26T10:46:40Z</time>
</trkpt>
<trkpt lat="48.026871" lon="11.213549">
<ele>581.469</ele>
<time>2022-05-26T10:46:41Z</time>
</trkpt>
<trkpt lat="48.02689" lon="11.213627">
<ele>581.469</ele>
<time>2022-05-26T10:46:42Z</time>
</trkpt>
<trkpt lat="48.026905" lon="11.213701">
<ele>581.469</ele>
<time>2022-05-26T10:46:43Z</time>
</trkpt>
<trkpt lat="48.026924" lon="11.213775">
<ele>581.469</ele>
<time>2022-05-26T10:46:44Z</time>
</trkpt>
<trkpt lat="48.026936" lon="11.213848">
<ele>581.469</ele>
<time>2022-05-26T10:46:45Z</time>
</trkpt>
<trkpt lat="48.026947" lon="11.213922">
<ele>581.469</ele>
<time>2022-05-26T10:46:46Z</time>
</trkpt>
<trkpt lat="48.026958" lon="11.213997">
<ele>581.469</ele>
<time>2022-05-26T10:46:47Z</time>
</trkpt>
<trkpt lat="48.026958" lon="11.21407">
<ele>581.469</ele>
<time>2022-05-26T10:46:48Z</time>
</trkpt>
<trkpt lat="48.026962" lon="11.214144">
<ele>581.469</ele>
<time>2022-05-26T10:46:49Z</time>
</trkpt>
<trkpt lat="48.026962" lon="11.21422">
<ele>581.469</ele>
<time>2022-05-26T10:46:50Z</time>
</trkpt>
<trkpt lat="48.026958" lon="11.214294">
<ele>581.469</ele>
<time>2022-05-26T10:46:51Z</time>
</trkpt>
<trkpt lat="48.026955" lon="11.214372">
<ele>581.469</ele>
<time>2022-05-26T10:46:52Z</time>
</trkpt>
<trkpt lat="48.026951" lon="11.214447">
<ele>581.469</ele>
<time>2022-05-26T10:46:53Z</time>
</trkpt>
<trkpt lat="48.026939" lon="11.21452">
<ele>581.469</ele>
<time>2022-05-26T10:46:54Z</time>
</trkpt>
<trkpt lat="48.026928" lon="11.214588">
<ele>581.469</ele>
<time>2022-05-26T10:46:55Z</time>
</trkpt>
<trkpt lat="48.02692" lon="11.214655">
<ele>581.469</ele>
<time>2022-05-26T10:46:56Z</time>
</trkpt>
<trkpt lat="48.026901" lon="11.214718">
<ele>581.469</ele>
<time>2022-05-26T10:46:57Z</time>
</trkpt>
<trkpt lat="48.02689" lon="11.214779">
<ele>581.675</ele>
<time>2022-05-26T10:46:58Z</time>
</trkpt>
<trkpt lat="48.026871" lon="11.214842">
<ele>581.85</ele>
<time>2022-05-26T10:46:59Z</time>
</trkpt>
<trkpt lat="48.026852" lon="11.214904">
<ele>581.996</ele>
<time>2022-05-26T10:47:00Z</time>
</trkpt>
<trkpt lat="48.026829" lon="11.214963">
<ele>582.093</ele>
<time>2022-05-26T10:47:01Z</time>
</trkpt>
<trkpt lat="48.026814" lon="11.215025">
<ele>582.427</ele>
<time>2022-05-26T10:47:02Z</time>
</trkpt>
<trkpt lat="48.026794" lon="11.215085">
<ele>582.701</ele>
<time>2022-05-26T10:47:03Z</time>
</trkpt>
<trkpt lat="48.026775" lon="11.215143">
<ele>582.912</ele>
<time>2022-05-26T10:47:04Z</time>
</trkpt>
<trkpt lat="48.026756" lon="11.215198">
<ele>583.066</ele>
<time>2022-05-26T10:47:05Z</time>
</trkpt>
<trkpt lat="48.02673" lon="11.215255">
<ele>583.166</ele>
<time>2022-05-26T10:47:06Z</time>
</trkpt>
<trkpt lat="48.026711" lon="11.215311">
<ele>583.224</ele>
<time>2022-05-26T10:47:07Z</time>
</trkpt>
<trkpt lat="48.026688" lon="11.215368">
<ele>583.28</ele>
<time>2022-05-26T10:47:08Z</time>
</trkpt>
<trkpt lat="48.026669" lon="11.215422">
<ele>583.306</ele>
<time>2022-05-26T10:47:09Z</time>
</trkpt>
<trkpt lat="48.026653" lon="11.215475">
<ele>583.306</ele>
<time>2022-05-26T10:47:10Z</time>
</trkpt>
<trkpt lat="48.02663" lon="11.215531">
<ele>583.572</ele>
<time>2022-05-26T10:47:11Z</time>
</trkpt>
<trkpt lat="48.026611" lon="11.215585">
<ele>583.779</ele>
<time>2022-05-26T10:47:12Z</time>
</trkpt>
<trkpt lat="48.0266" lon="11.215637">
<ele>583.939</ele>
<time>2022-05-26T10:47:13Z</time>
</trkpt>
<trkpt lat="48.026581" lon="11.21568">
<ele>584.031</ele>
<time>2022-05-26T10:47:14Z</time>
</trkpt>
<trkpt lat="48.026569" lon="11.215725">
<ele>584.33</ele>
<time>2022-05-26T10:47:15Z</time>
</trkpt>
<trkpt lat="48.026558" lon="11.215768">
<ele>584.561</ele>
<time>2022-05-26T10:47:16Z</time>
</trkpt>
<trkpt lat="48.026539" lon="11.215816">
<ele>584.738</ele>
<time>2022-05-26T10:47:17Z</time>
</trkpt>
<trkpt lat="48.026524" lon="11.215866">
<ele>584.893</ele>
<time>2022-05-26T10:47:18Z</time>
</trkpt>
<trkpt lat="48.026501" lon="11.215915">
<ele>584.992</ele>
<time>2022-05-26T10:47:19Z</time>
</trkpt>
<trkpt lat="48.02647" lon="11.215963">
<ele>585.071</ele>
<time>2022-05-26T10:47:20Z</time>
</trkpt>
<trkpt lat="48.026443" lon="11.216012">
<ele>585.12</ele>
<time>2022-05-26T10:47:21Z</time>
</trkpt>
<trkpt lat="48.026409" lon="11.216065">
<ele>585.144</ele>
<time>2022-05-26T10:47:22Z</time>
</trkpt>
<trkpt lat="48.026379" lon="11.216117">
<ele>585.144</ele>
<time>2022-05-26T10:47:23Z</time>
</trkpt>
<trkpt lat="48.026348" lon="11.216171">
<ele>585.144</ele>
<time>2022-05-26T10:47:24Z</time>
</trkpt>
<trkpt lat="48.026318" lon="11.216227">
<ele>585.144</ele>
<time>2022-05-26T10:47:25Z</time>
</trkpt>
<trkpt lat="48.026287" lon="11.21628">
<ele>585.144</ele>
<time>2022-05-26T10:47:26Z</time>
</trkpt>
<trkpt lat="48.026257" lon="11.216337">
<ele>585.144</ele>
<time>2022-05-26T10:47:27Z</time>
</trkpt>
<trkpt lat="48.026226" lon="11.21639">
<ele>585.144</ele>
<time>2022-05-26T10:47:28Z</time>
</trkpt>
<trkpt lat="48.026192" lon="11.216438">
<ele>585.486</ele>
<time>2022-05-26T10:47:29Z</time>
</trkpt>
<trkpt lat="48.026157" lon="11.216495">
<ele>585.746</ele>
<time>2022-05-26T10:47:30Z</time>
</trkpt>
<trkpt lat="48.026127" lon="11.216554">
<ele>585.944</ele>
<time>2022-05-26T10:47:31Z</time>
</trkpt>
<trkpt lat="48.026093" lon="11.216616">
<ele>586.093</ele>
<time>2022-05-26T10:47:32Z</time>
</trkpt>
<trkpt lat="48.026058" lon="11.216677">
<ele>586.187</ele>
<time>2022-05-26T10:47:33Z</time>
</trkpt>
<trkpt lat="48.026031" lon="11.216737">
<ele>586.242</ele>
<time>2022-05-26T10:47:34Z</time>
</trkpt>
<trkpt lat="48.026001" lon="11.216797">
<ele>586.496</ele>
<time>2022-05-26T10:47:35Z</time>
</trkpt>
<trkpt lat="48.02597" lon="11.216855">
<ele>586.677</ele>
<time>2022-05-26T10:47:36Z</time>
</trkpt>
<trkpt lat="48.02594" lon="11.216911">
<ele>586.795</ele>
<time>2022-05-26T10:47:37Z</time>
</trkpt>
<trkpt lat="48.025913" lon="11.216966">
<ele>587.17</ele>
<time>2022-05-26T10:47:38Z</time>
</trkpt>
<trkpt lat="48.025883" lon="11.217014">
<ele>587.476</ele>
<time>2022-05-26T10:47:39Z</time>
</trkpt>
<trkpt lat="48.025856" lon="11.217071">
<ele>587.683</ele>
<time>2022-05-26T10:47:40Z</time>
</trkpt>
<trkpt lat="48.025829" lon="11.21712">
<ele>588.154</ele>
<time>2022-05-26T10:47:41Z</time>
</trkpt>
<trkpt lat="48.025803" lon="11.217167">
<ele>588.489</ele>
<time>2022-05-26T10:47:42Z</time>
</trkpt>
<trkpt lat="48.025776" lon="11.217207">
<ele>589.022</ele>
<time>2022-05-26T10:47:43Z</time>
</trkpt>
<trkpt lat="48.025753" lon="11.217243">
<ele>589.452</ele>
<time>2022-05-26T10:47:44Z</time>
</trkpt>
<trkpt lat="48.025726" lon="11.217282">
<ele>589.743</ele>
<time>2022-05-26T10:47:45Z</time>
</trkpt>
<trkpt lat="48.0257" lon="11.217324">
<ele>590.227</ele>
<time>2022-05-26T10:47:46Z</time>
</trkpt>
<trkpt lat="48.025673" lon="11.217368">
<ele>590.564</ele>
<time>2022-05-26T10:47:47Z</time>
</trkpt>
<trkpt lat="48.025642" lon="11.217412">
<ele>590.861</ele>
<time>2022-05-26T10:47:48Z</time>
</trkpt>
<trkpt lat="48.025616" lon="11.217454">
<ele>591.051</ele>
<time>2022-05-26T10:47:49Z</time>
</trkpt>
<trkpt lat="48.025589" lon="11.217495">
<ele>591.437</ele>
<time>2022-05-26T10:47:50Z</time>
</trkpt>
<trkpt lat="48.025558" lon="11.217542">
<ele>591.724</ele>
<time>2022-05-26T10:47:51Z</time>
</trkpt>
<trkpt lat="48.025532" lon="11.21759">
<ele>591.94</ele>
<time>2022-05-26T10:47:52Z</time>
</trkpt>
<trkpt lat="48.025505" lon="11.217636">
<ele>592.087</ele>
<time>2022-05-26T10:47:53Z</time>
</trkpt>
<trkpt lat="48.025486" lon="11.217689">
<ele>592.218</ele>
<time>2022-05-26T10:47:54Z</time>
</trkpt>
<trkpt lat="48.025459" lon="11.217752">
<ele>592.27</ele>
<time>2022-05-26T10:47:55Z</time>
</trkpt>
<trkpt lat="48.025436" lon="11.217818">
<ele>592.299</ele>
<time>2022-05-26T10:47:56Z</time>
</trkpt>
<trkpt lat="48.025421" lon="11.217887">
<ele>592.322</ele>
<time>2022-05-26T10:47:57Z</time>
</trkpt>
<trkpt lat="48.025402" lon="11.21796">
<ele>592.322</ele>
<time>2022-05-26T10:47:58Z</time>
</trkpt>
<trkpt lat="48.025391" lon="11.218039">
<ele>592.322</ele>
<time>2022-05-26T10:47:59Z</time>
</trkpt>
<trkpt lat="48.025375" lon="11.218121">
<ele>592.322</ele>
<time>2022-05-26T10:48:00Z</time>
</trkpt>
<trkpt lat="48.025364" lon="11.218206">
<ele>592.322</ele>
<time>2022-05-26T10:48:01Z</time>
</trkpt>
<trkpt lat="48.025356" lon="11.218294">
<ele>592.322</ele>
<time>2022-05-26T10:48:02Z</time>
</trkpt>
<trkpt lat="48.025352" lon="11.21838">
<ele>592.322</ele>
<time>2022-05-26T10:48:03Z</time>
</trkpt>
<trkpt lat="48.025345" lon="11.21847">
<ele>592.322</ele>
<time>2022-05-26T10:48:04Z</time>
</trkpt>
<trkpt lat="48.025337" lon="11.218558">
<ele>592.322</ele>
<time>2022-05-26T10:48:05Z</time>
</trkpt>
<trkpt lat="48.025333" lon="11.218648">
<ele>592.322</ele>
<time>2022-05-26T10:48:06Z</time>
</trkpt>
<trkpt lat="48.025326" lon="11.218737">
<ele>592.322</ele>
<time>2022-05-26T10:48:07Z</time>
</trkpt>
<trkpt lat="48.025322" lon="11.218823">
<ele>592.322</ele>
<time>2022-05-26T10:48:08Z</time>
</trkpt>
<trkpt lat="48.025318" lon="11.218906">
<ele>592.322</ele>
<time>2022-05-26T10:48:09Z</time>
</trkpt>
<trkpt lat="48.025314" lon="11.21899">
<ele>592.322</ele>
<time>2022-05-26T10:48:10Z</time>
</trkpt>
<trkpt lat="48.025307" lon="11.219073">
<ele>592.322</ele>
<time>2022-05-26T10:48:11Z</time>
</trkpt>
<trkpt lat="48.025299" lon="11.219155">
<ele>592.322</ele>
<time>2022-05-26T10:48:12Z</time>
</trkpt>
<trkpt lat="48.025295" lon="11.219238">
<ele>592.322</ele>
<time>2022-05-26T10:48:13Z</time>
</trkpt>
<trkpt lat="48.025291" lon="11.219318">
<ele>592.322</ele>
<time>2022-05-26T10:48:14Z</time>
</trkpt>
<trkpt lat="48.025288" lon="11.219398">
<ele>592.322</ele>
<time>2022-05-26T10:48:15Z</time>
</trkpt>
<trkpt lat="48.02528" lon="11.219477">
<ele>592.322</ele>
<time>2022-05-26T10:48:16Z</time>
</trkpt>
<trkpt lat="48.025276" lon="11.219555">
<ele>592.322</ele>
<time>2022-05-26T10:48:17Z</time>
</trkpt>
<trkpt lat="48.025269" lon="11.219631">
<ele>592.322</ele>
<time>2022-05-26T10:48:18Z</time>
</trkpt>
<trkpt lat="48.025261" lon="11.219705">
<ele>592.322</ele>
<time>2022-05-26T10:48:19Z</time>
</trkpt>
<trkpt lat="48.025261" lon="11.219777">
<ele>592.322</ele>
<time>2022-05-26T10:48:20Z</time>
</trkpt>
<trkpt lat="48.025257" lon="11.219847">
<ele>592.585</ele>
<time>2022-05-26T10:48:21Z</time>
</trkpt>
<trkpt lat="48.025253" lon="11.219913">
<ele>592.791</ele>
<time>2022-05-26T10:48:22Z</time>
</trkpt>
<trkpt lat="48.025249" lon="11.219978">
<ele>592.953</ele>
<time>2022-05-26T10:48:23Z</time>
</trkpt>
<trkpt lat="48.025242" lon="11.220043">
<ele>593.073</ele>
<time>2022-05-26T10:48:24Z</time>
</trkpt>
<trkpt lat="48.025238" lon="11.220108">
<ele>593.141</ele>
<time>2022-05-26T10:48:25Z</time>
</trkpt>
<trkpt lat="48.025234" lon="11.220172">
<ele>593.428</ele>
<time>2022-05-26T10:48:26Z</time>
</trkpt>
<trkpt lat="48.02523" lon="11.220234">
<ele>593.65</ele>
<time>2022-05-26T10:48:27Z</time>
</trkpt>
<trkpt lat="48.025227" lon="11.220299">
<ele>593.85</ele>
<time>2022-05-26T10:48:28Z</time>
</trkpt>
<trkpt lat="48.025223" lon="11.220362">
<ele>593.99</ele>
<time>2022-05-26T10:48:29Z</time>
</trkpt>
<trkpt lat="48.025219" lon="11.220427">
<ele>594.098</ele>
<time>2022-05-26T10:48:30Z</time>
</trkpt>
<trkpt lat="48.025215" lon="11.220493">
<ele>594.176</ele>
<time>2022-05-26T10:48:31Z</time>
</trkpt>
<trkpt lat="48.025211" lon="11.220561">
<ele>594.225</ele>
<time>2022-05-26T10:48:32Z</time>
</trkpt>
<trkpt lat="48.025208" lon="11.220632">
<ele>594.249</ele>
<time>2022-05-26T10:48:33Z</time>
</trkpt>
<trkpt lat="48.0252" lon="11.220701">
<ele>594.249</ele>
<time>2022-05-26T10:48:34Z</time>
</trkpt>
<trkpt lat="48.025192" lon="11.22077">
<ele>594.249</ele>
<time>2022-05-26T10:48:35Z</time>
</trkpt>
<trkpt lat="48.025177" lon="11.220838">
<ele>594.249</ele>
<time>2022-05-26T10:48:36Z</time>
</trkpt>
<trkpt lat="48.025158" lon="11.220905">
<ele>594.249</ele>
<time>2022-05-26T10:48:37Z</time>
</trkpt>
<trkpt lat="48.025131" lon="11.220972">
<ele>594.249</ele>
<time>2022-05-26T10:48:38Z</time>
</trkpt>
<trkpt lat="48.025105" lon="11.221032">
<ele>594.249</ele>
<time>2022-05-26T10:48:39Z</time>
</trkpt>
<trkpt lat="48.025074" lon="11.221088">
<ele>594.249</ele>
<time>2022-05-26T10:48:40Z</time>
</trkpt>
<trkpt lat="48.025043" lon="11.22114">
<ele>594.249</ele>
<time>2022-05-26T10:48:41Z</time>
</trkpt>
<trkpt lat="48.025005" lon="11.221189">
<ele>594.249</ele>
<time>2022-05-26T10:48:42Z</time>
</trkpt>
<trkpt lat="48.024967" lon="11.221236">
<ele>594.249</ele>
<time>2022-05-26T10:48:43Z</time>
</trkpt>
<trkpt lat="48.024937" lon="11.221286">
<ele>594.249</ele>
<time>2022-05-26T10:48:44Z</time>
</trkpt>
<trkpt lat="48.024895" lon="11.221332">
<ele>594.249</ele>
<time>2022-05-26T10:48:45Z</time>
</trkpt>
<trkpt lat="48.024853" lon="11.221376">
<ele>594.249</ele>
<time>2022-05-26T10:48:46Z</time>
</trkpt>
<trkpt lat="48.024807" lon="11.22142">
<ele>594.249</ele>
<time>2022-05-26T10:48:47Z</time>
</trkpt>
<trkpt lat="48.024761" lon="11.221463">
<ele>594.249</ele>
<time>2022-05-26T10:48:48Z</time>
</trkpt>
<trkpt lat="48.024712" lon="11.221499">
<ele>594.249</ele>
<time>2022-05-26T10:48:49Z</time>
</trkpt>
<trkpt lat="48.024666" lon="11.221537">
<ele>594.249</ele>
<time>2022-05-26T10:48:50Z</time>
</trkpt>
<trkpt lat="48.024612" lon="11.221571">
<ele>594.551</ele>
<time>2022-05-26T10:48:51Z</time>
</trkpt>
<trkpt lat="48.024563" lon="11.221604">
<ele>594.781</ele>
<time>2022-05-26T10:48:52Z</time>
</trkpt>
<trkpt lat="48.024513" lon="11.221636">
<ele>594.953</ele>
<time>2022-05-26T10:48:53Z</time>
</trkpt>
<trkpt lat="48.024464" lon="11.221667">
<ele>595.082</ele>
<time>2022-05-26T10:48:54Z</time>
</trkpt>
<trkpt lat="48.024418" lon="11.221693">
<ele>595.17</ele>
<time>2022-05-26T10:48:55Z</time>
</trkpt>
<trkpt lat="48.024376" lon="11.221717">
<ele>595.224</ele>
<time>2022-05-26T10:48:56Z</time>
</trkpt>
<trkpt lat="48.02433" lon="11.221741">
<ele>595.271</ele>
<time>2022-05-26T10:48:57Z</time>
</trkpt>
<trkpt lat="48.024288" lon="11.221762">
<ele>595.3</ele>
<time>2022-05-26T10:48:58Z</time>
</trkpt>
<trkpt lat="48.02425" lon="11.221788">
<ele>595.3</ele>
<time>2022-05-26T10:48:59Z</time>
</trkpt>
<trkpt lat="48.024212" lon="11.221813">
<ele>595.3</ele>
<time>2022-05-26T10:49:00Z</time>
</trkpt>
<trkpt lat="48.02417" lon="11.221839">
<ele>595.3</ele>
<time>2022-05-26T10:49:01Z</time>
</trkpt>
<trkpt lat="48.024132" lon="11.221867">
<ele>595.3</ele>
<time>2022-05-26T10:49:02Z</time>
</trkpt>
<trkpt lat="48.024097" lon="11.221905">
<ele>595.3</ele>
<time>2022-05-26T10:49:03Z</time>
</trkpt>
<trkpt lat="48.024059" lon="11.22195">
<ele>595.3</ele>
<time>2022-05-26T10:49:04Z</time>
</trkpt>
<trkpt lat="48.024021" lon="11.222">
<ele>595.3</ele>
<time>2022-05-26T10:49:05Z</time>
</trkpt>
<trkpt lat="48.023983" lon="11.222058">
<ele>595.3</ele>
<time>2022-05-26T10:49:06Z</time>
</trkpt>
<trkpt lat="48.023945" lon="11.222138">
<ele>595.076</ele>
<time>2022-05-26T10:49:07Z</time>
</trkpt>
<trkpt lat="48.023918" lon="11.222228">
<ele>594.878</ele>
<time>2022-05-26T10:49:08Z</time>
</trkpt>
<trkpt lat="48.023891" lon="11.222327">
<ele>594.456</ele>
<time>2022-05-26T10:49:09Z</time>
</trkpt>
<trkpt lat="48.023869" lon="11.222432">
<ele>593.831</ele>
<time>2022-05-26T10:49:10Z</time>
</trkpt>
<trkpt lat="48.023849" lon="11.222535">
<ele>593.359</ele>
<time>2022-05-26T10:49:11Z</time>
</trkpt>
<trkpt lat="48.023827" lon="11.222647">
<ele>593.014</ele>
<time>2022-05-26T10:49:12Z</time>
</trkpt>
<trkpt lat="48.023815" lon="11.22276">
<ele>592.761</ele>
<time>2022-05-26T10:49:13Z</time>
</trkpt>
<trkpt lat="48.023796" lon="11.222883">
<ele>592.589</ele>
<time>2022-05-26T10:49:14Z</time>
</trkpt>
<trkpt lat="48.023773" lon="11.223013">
<ele>592.454</ele>
<time>2022-05-26T10:49:15Z</time>
</trkpt>
<trkpt lat="48.023758" lon="11.223133">
<ele>592.428</ele>
<time>2022-05-26T10:49:16Z</time>
</trkpt>
<trkpt lat="48.023731" lon="11.223262">
<ele>592.409</ele>
<time>2022-05-26T10:49:17Z</time>
</trkpt>
<trkpt lat="48.023712" lon="11.223388">
<ele>592.409</ele>
<time>2022-05-26T10:49:18Z</time>
</trkpt>
<trkpt lat="48.023693" lon="11.223516">
<ele>592.409</ele>
<time>2022-05-26T10:49:19Z</time>
</trkpt>
<trkpt lat="48.02367" lon="11.223637">
<ele>592.669</ele>
<time>2022-05-26T10:49:20Z</time>
</trkpt>
<trkpt lat="48.023643" lon="11.223754">
<ele>592.865</ele>
<time>2022-05-26T10:49:21Z</time>
</trkpt>
<trkpt lat="48.023624" lon="11.223862">
<ele>593.009</ele>
<time>2022-05-26T10:49:22Z</time>
</trkpt>
<trkpt lat="48.023602" lon="11.223959">
<ele>593.098</ele>
<time>2022-05-26T10:49:23Z</time>
</trkpt>
<trkpt lat="48.023586" lon="11.224043">
<ele>593.415</ele>
<time>2022-05-26T10:49:24Z</time>
</trkpt>
<trkpt lat="48.023567" lon="11.224118">
<ele>593.648</ele>
<time>2022-05-26T10:49:25Z</time>
</trkpt>
<trkpt lat="48.023556" lon="11.224195">
<ele>593.822</ele>
<time>2022-05-26T10:49:26Z</time>
</trkpt>
<trkpt lat="48.023544" lon="11.224274">
<ele>593.956</ele>
<time>2022-05-26T10:49:27Z</time>
</trkpt>
<trkpt lat="48.023537" lon="11.224349">
<ele>594.28</ele>
<time>2022-05-26T10:49:28Z</time>
</trkpt>
<trkpt lat="48.023529" lon="11.224419">
<ele>594.554</ele>
<time>2022-05-26T10:49:29Z</time>
</trkpt>
<trkpt lat="48.023514" lon="11.224493">
<ele>594.781</ele>
<time>2022-05-26T10:49:30Z</time>
</trkpt>
<trkpt lat="48.023502" lon="11.224566">
<ele>594.927</ele>
<time>2022-05-26T10:49:31Z</time>
</trkpt>
<trkpt lat="48.023495" lon="11.224631">
<ele>595.274</ele>
<time>2022-05-26T10:49:32Z</time>
</trkpt>
<trkpt lat="48.023483" lon="11.224699">
<ele>595.556</ele>
<time>2022-05-26T10:49:33Z</time>
</trkpt>
<trkpt lat="48.023468" lon="11.224762">
<ele>595.768</ele>
<time>2022-05-26T10:49:34Z</time>
</trkpt>
<trkpt lat="48.02346" lon="11.224825">
<ele>595.926</ele>
<time>2022-05-26T10:49:35Z</time>
</trkpt>
<trkpt lat="48.023445" lon="11.224885">
<ele>596.011</ele>
<time>2022-05-26T10:49:36Z</time>
</trkpt>
<trkpt lat="48.023434" lon="11.224943">
<ele>596.282</ele>
<time>2022-05-26T10:49:37Z</time>
</trkpt>
<trkpt lat="48.023422" lon="11.225">
<ele>596.513</ele>
<time>2022-05-26T10:49:38Z</time>
</trkpt>
<trkpt lat="48.023415" lon="11.225053">
<ele>596.693</ele>
<time>2022-05-26T10:49:39Z</time>
</trkpt>
<trkpt lat="48.023403" lon="11.225103">
<ele>596.802</ele>
<time>2022-05-26T10:49:40Z</time>
</trkpt>
<trkpt lat="48.023388" lon="11.225158">
<ele>597.168</ele>
<time>2022-05-26T10:49:41Z</time>
</trkpt>
<trkpt lat="48.023365" lon="11.225206">
<ele>597.473</ele>
<time>2022-05-26T10:49:42Z</time>
</trkpt>
<trkpt lat="48.023335" lon="11.225254">
<ele>597.718</ele>
<time>2022-05-26T10:49:43Z</time>
</trkpt>
<trkpt lat="48.0233" lon="11.225298">
<ele>597.902</ele>
<time>2022-05-26T10:49:44Z</time>
</trkpt>
<trkpt lat="48.023266" lon="11.225333">
<ele>598.028</ele>
<time>2022-05-26T10:49:45Z</time>
</trkpt>
<trkpt lat="48.023239" lon="11.225368">
<ele>598.362</ele>
<time>2022-05-26T10:49:46Z</time>
</trkpt>
<trkpt lat="48.023205" lon="11.225398">
<ele>598.609</ele>
<time>2022-05-26T10:49:47Z</time>
</trkpt>
<trkpt lat="48.023174" lon="11.225434">
<ele>598.821</ele>
<time>2022-05-26T10:49:48Z</time>
</trkpt>
<trkpt lat="48.023144" lon="11.225471">
<ele>598.961</ele>
<time>2022-05-26T10:49:49Z</time>
</trkpt>
<trkpt lat="48.023109" lon="11.225507">
<ele>599.061</ele>
<time>2022-05-26T10:49:50Z</time>
</trkpt>
<trkpt lat="48.023079" lon="11.225536">
<ele>599.398</ele>
<time>2022-05-26T10:49:51Z</time>
</trkpt>
<trkpt lat="48.023052" lon="11.225565">
<ele>599.672</ele>
<time>2022-05-26T10:49:52Z</time>
</trkpt>
<trkpt lat="48.023026" lon="11.225595">
<ele>599.884</ele>
<time>2022-05-26T10:49:53Z</time>
</trkpt>
<trkpt lat="48.022999" lon="11.22563">
<ele>600.063</ele>
<time>2022-05-26T10:49:54Z</time>
</trkpt>
<trkpt lat="48.022972" lon="11.225655">
<ele>600.134</ele>
<time>2022-05-26T10:49:55Z</time>
</trkpt>
<trkpt lat="48.022942" lon="11.225685">
<ele>600.431</ele>
<time>2022-05-26T10:49:56Z</time>
</trkpt>
<trkpt lat="48.022915" lon="11.225723">
<ele>600.653</ele>
<time>2022-05-26T10:49:57Z</time>
</trkpt>
<trkpt lat="48.022884" lon="11.225772">
<ele>600.865</ele>
<time>2022-05-26T10:49:58Z</time>
</trkpt>
<trkpt lat="48.022858" lon="11.22582">
<ele>601.008</ele>
<time>2022-05-26T10:49:59Z</time>
</trkpt>
<trkpt lat="48.022835" lon="11.22587">
<ele>601.102</ele>
<time>2022-05-26T10:50:00Z</time>
</trkpt>
<trkpt lat="48.022816" lon="11.225926">
<ele>601.499</ele>
<time>2022-05-26T10:50:01Z</time>
</trkpt>
<trkpt lat="48.022797" lon="11.225986">
<ele>601.804</ele>
<time>2022-05-26T10:50:02Z</time>
</trkpt>
<trkpt lat="48.022785" lon="11.22604">
<ele>602.037</ele>
<time>2022-05-26T10:50:03Z</time>
</trkpt>
<trkpt lat="48.022778" lon="11.226096">
<ele>602.23</ele>
<time>2022-05-26T10:50:04Z</time>
</trkpt>
<trkpt lat="48.02277" lon="11.226155">
<ele>602.329</ele>
<time>2022-05-26T10:50:05Z</time>
</trkpt>
<trkpt lat="48.022758" lon="11.226212">
<ele>602.396</ele>
<time>2022-05-26T10:50:06Z</time>
</trkpt>
<trkpt lat="48.022755" lon="11.226274">
<ele>602.45</ele>
<time>2022-05-26T10:50:07Z</time>
</trkpt>
<trkpt lat="48.022751" lon="11.226336">
<ele>602.485</ele>
<time>2022-05-26T10:50:08Z</time>
</trkpt>
<trkpt lat="48.022751" lon="11.226387">
<ele>602.767</ele>
<time>2022-05-26T10:50:09Z</time>
</trkpt>
<trkpt lat="48.022739" lon="11.226439">
<ele>602.989</ele>
<time>2022-05-26T10:50:10Z</time>
</trkpt>
<trkpt lat="48.022732" lon="11.226486">
<ele>603.135</ele>
<time>2022-05-26T10:50:11Z</time>
</trkpt>
<trkpt lat="48.02272" lon="11.226539">
<ele>603.528</ele>
<time>2022-05-26T10:50:12Z</time>
</trkpt>
<trkpt lat="48.022717" lon="11.226583">
<ele>603.779</ele>
<time>2022-05-26T10:50:13Z</time>
</trkpt>
<trkpt lat="48.022701" lon="11.22663">
<ele>604.23</ele>
<time>2022-05-26T10:50:14Z</time>
</trkpt>
<trkpt lat="48.022686" lon="11.22667">
<ele>604.538</ele>
<time>2022-05-26T10:50:15Z</time>
</trkpt>
<trkpt lat="48.022678" lon="11.226707">
<ele>604.78</ele>
<time>2022-05-26T10:50:16Z</time>
</trkpt>
<trkpt lat="48.022659" lon="11.226747">
<ele>604.957</ele>
<time>2022-05-26T10:50:17Z</time>
</trkpt>
<trkpt lat="48.022648" lon="11.226787">
<ele>605.109</ele>
<time>2022-05-26T10:50:18Z</time>
</trkpt>
<trkpt lat="48.022625" lon="11.226825">
<ele>605.507</ele>
<time>2022-05-26T10:50:19Z</time>
</trkpt>
<trkpt lat="48.022606" lon="11.226865">
<ele>605.807</ele>
<time>2022-05-26T10:50:20Z</time>
</trkpt>
<trkpt lat="48.022587" lon="11.226901">
<ele>606.047</ele>
<time>2022-05-26T10:50:21Z</time>
</trkpt>
<trkpt lat="48.022564" lon="11.226938">
<ele>606.312</ele>
<time>2022-05-26T10:50:22Z</time>
</trkpt>
<trkpt lat="48.022537" lon="11.226978">
<ele>606.427</ele>
<time>2022-05-26T10:50:23Z</time>
</trkpt>
<trkpt lat="48.022511" lon="11.227018">
<ele>606.491</ele>
<time>2022-05-26T10:50:24Z</time>
</trkpt>
<trkpt lat="48.022491" lon="11.227065">
<ele>606.304</ele>
<time>2022-05-26T10:50:25Z</time>
</trkpt>
<trkpt lat="48.022457" lon="11.227117">
<ele>606.13</ele>
<time>2022-05-26T10:50:26Z</time>
</trkpt>
<trkpt lat="48.02243" lon="11.227167">
<ele>606.102</ele>
<time>2022-05-26T10:50:27Z</time>
</trkpt>
<trkpt lat="48.022411" lon="11.227221">
<ele>605.924</ele>
<time>2022-05-26T10:50:28Z</time>
</trkpt>
<trkpt lat="48.022392" lon="11.227278">
<ele>605.8</ele>
<time>2022-05-26T10:50:29Z</time>
</trkpt>
<trkpt lat="48.022385" lon="11.227345">
<ele>605.448</ele>
<time>2022-05-26T10:50:30Z</time>
</trkpt>
<trkpt lat="48.022385" lon="11.227422">
<ele>605.216</ele>
<time>2022-05-26T10:50:31Z</time>
</trkpt>
<trkpt lat="48.022388" lon="11.2275">
<ele>604.743</ele>
<time>2022-05-26T10:50:32Z</time>
</trkpt>
<trkpt lat="48.022392" lon="11.227575">
<ele>604.384</ele>
<time>2022-05-26T10:50:33Z</time>
</trkpt>
<trkpt lat="48.022396" lon="11.227652">
<ele>604.093</ele>
<time>2022-05-26T10:50:34Z</time>
</trkpt>
<trkpt lat="48.0224" lon="11.227733">
<ele>603.671</ele>
<time>2022-05-26T10:50:35Z</time>
</trkpt>
<trkpt lat="48.0224" lon="11.227817">
<ele>603.377</ele>
<time>2022-05-26T10:50:36Z</time>
</trkpt>
<trkpt lat="48.022392" lon="11.227902">
<ele>603.171</ele>
<time>2022-05-26T10:50:37Z</time>
</trkpt>
<trkpt lat="48.022381" lon="11.227988">
<ele>602.755</ele>
<time>2022-05-26T10:50:38Z</time>
</trkpt>
<trkpt lat="48.022362" lon="11.228068">
<ele>602.481</ele>
<time>2022-05-26T10:50:39Z</time>
</trkpt>
<trkpt lat="48.022335" lon="11.228146">
<ele>601.971</ele>
<time>2022-05-26T10:50:40Z</time>
</trkpt>
<trkpt lat="48.022308" lon="11.228218">
<ele>601.617</ele>
<time>2022-05-26T10:50:41Z</time>
</trkpt>
<trkpt lat="48.022285" lon="11.228287">
<ele>601.067</ele>
<time>2022-05-26T10:50:42Z</time>
</trkpt>
<trkpt lat="48.022263" lon="11.228352">
<ele>600.656</ele>
<time>2022-05-26T10:50:43Z</time>
</trkpt>
<trkpt lat="48.022243" lon="11.228412">
<ele>600.336</ele>
<time>2022-05-26T10:50:44Z</time>
</trkpt>
<trkpt lat="48.022224" lon="11.22847">
<ele>600.135</ele>
<time>2022-05-26T10:50:45Z</time>
</trkpt>
<trkpt lat="48.022205" lon="11.228525">
<ele>599.767</ele>
<time>2022-05-26T10:50:46Z</time>
</trkpt>
<trkpt lat="48.02219" lon="11.228573">
<ele>599.506</ele>
<time>2022-05-26T10:50:47Z</time>
</trkpt>
<trkpt lat="48.022171" lon="11.228617">
<ele>599.3</ele>
<time>2022-05-26T10:50:48Z</time>
</trkpt>
<trkpt lat="48.022152" lon="11.228659">
<ele>599.145</ele>
<time>2022-05-26T10:50:49Z</time>
</trkpt>
<trkpt lat="48.022137" lon="11.228699">
<ele>599.044</ele>
<time>2022-05-26T10:50:50Z</time>
</trkpt>
<trkpt lat="48.022118" lon="11.228743">
<ele>598.967</ele>
<time>2022-05-26T10:50:51Z</time>
</trkpt>
<trkpt lat="48.022106" lon="11.228786">
<ele>598.916</ele>
<time>2022-05-26T10:50:52Z</time>
</trkpt>
<trkpt lat="48.022099" lon="11.228835">
<ele>598.892</ele>
<time>2022-05-26T10:50:53Z</time>
</trkpt>
<trkpt lat="48.022099" lon="11.228876">
<ele>598.892</ele>
<time>2022-05-26T10:50:54Z</time>
</trkpt>
<trkpt lat="48.022118" lon="11.22892">
<ele>598.892</ele>
<time>2022-05-26T10:50:55Z</time>
</trkpt>
<trkpt lat="48.022144" lon="11.22896">
<ele>598.892</ele>
<time>2022-05-26T10:50:56Z</time>
</trkpt>
<trkpt lat="48.022182" lon="11.228998">
<ele>598.892</ele>
<time>2022-05-26T10:50:57Z</time>
</trkpt>
<trkpt lat="48.022221" lon="11.229035">
<ele>598.891</ele>
<time>2022-05-26T10:50:58Z</time>
</trkpt>
<trkpt lat="48.022259" lon="11.22907">
<ele>598.891</ele>
<time>2022-05-26T10:50:59Z</time>
</trkpt>
<trkpt lat="48.022297" lon="11.229101">
<ele>598.892</ele>
<time>2022-05-26T10:51:00Z</time>
</trkpt>
<trkpt lat="48.022327" lon="11.229128">
<ele>598.891</ele>
<time>2022-05-26T10:51:01Z</time>
</trkpt>
<trkpt lat="48.022362" lon="11.229156">
<ele>598.891</ele>
<time>2022-05-26T10:51:02Z</time>
</trkpt>
<trkpt lat="48.022392" lon="11.229178">
<ele>598.641</ele>
<time>2022-05-26T10:51:03Z</time>
</trkpt>
<trkpt lat="48.022427" lon="11.229203">
<ele>598.453</ele>
<time>2022-05-26T10:51:04Z</time>
</trkpt>
<trkpt lat="48.022457" lon="11.229232">
<ele>598.306</ele>
<time>2022-05-26T10:51:05Z</time>
</trkpt>
<trkpt lat="48.022491" lon="11.229259">
<ele>598.188</ele>
<time>2022-05-26T10:51:06Z</time>
</trkpt>
<trkpt lat="48.022526" lon="11.229294">
<ele>598.101</ele>
<time>2022-05-26T10:51:07Z</time>
</trkpt>
<trkpt lat="48.022564" lon="11.229327">
<ele>598.011</ele>
<time>2022-05-26T10:51:08Z</time>
</trkpt>
<trkpt lat="48.022602" lon="11.229362">
<ele>597.953</ele>
<time>2022-05-26T10:51:09Z</time>
</trkpt>
<trkpt lat="48.022636" lon="11.229404">
<ele>597.928</ele>
<time>2022-05-26T10:51:10Z</time>
</trkpt>
<trkpt lat="48.022667" lon="11.229457">
<ele>597.928</ele>
<time>2022-05-26T10:51:11Z</time>
</trkpt>
<trkpt lat="48.022701" lon="11.229511">
<ele>597.928</ele>
<time>2022-05-26T10:51:12Z</time>
</trkpt>
<trkpt lat="48.022728" lon="11.229572">
<ele>597.928</ele>
<time>2022-05-26T10:51:13Z</time>
</trkpt>
<trkpt lat="48.022755" lon="11.229637">
<ele>597.928</ele>
<time>2022-05-26T10:51:14Z</time>
</trkpt>
<trkpt lat="48.022785" lon="11.229704">
<ele>597.928</ele>
<time>2022-05-26T10:51:15Z</time>
</trkpt>
<trkpt lat="48.022808" lon="11.229774">
<ele>597.928</ele>
<time>2022-05-26T10:51:16Z</time>
</trkpt>
<trkpt lat="48.022831" lon="11.229843">
<ele>597.928</ele>
<time>2022-05-26T10:51:17Z</time>
</trkpt>
<trkpt lat="48.02285" lon="11.229917">
<ele>597.928</ele>
<time>2022-05-26T10:51:18Z</time>
</trkpt>
<trkpt lat="48.022865" lon="11.229987">
<ele>597.928</ele>
<time>2022-05-26T10:51:19Z</time>
</trkpt>
<trkpt lat="48.022881" lon="11.23006">
<ele>597.928</ele>
<time>2022-05-26T10:51:20Z</time>
</trkpt>
<trkpt lat="48.022892" lon="11.230138">
<ele>597.928</ele>
<time>2022-05-26T10:51:21Z</time>
</trkpt>
<trkpt lat="48.022911" lon="11.230213">
<ele>597.928</ele>
<time>2022-05-26T10:51:22Z</time>
</trkpt>
<trkpt lat="48.022923" lon="11.230287">
<ele>597.928</ele>
<time>2022-05-26T10:51:23Z</time>
</trkpt>
<trkpt lat="48.02293" lon="11.230365">
<ele>597.928</ele>
<time>2022-05-26T10:51:24Z</time>
</trkpt>
<trkpt lat="48.022942" lon="11.230446">
<ele>597.598</ele>
<time>2022-05-26T10:51:25Z</time>
</trkpt>
<trkpt lat="48.022949" lon="11.230532">
<ele>597.334</ele>
<time>2022-05-26T10:51:26Z</time>
</trkpt>
<trkpt lat="48.022961" lon="11.230619">
<ele>597.154</ele>
<time>2022-05-26T10:51:27Z</time>
</trkpt>
<trkpt lat="48.022968" lon="11.230707">
<ele>596.963</ele>
<time>2022-05-26T10:51:28Z</time>
</trkpt>
<trkpt lat="48.02298" lon="11.230797">
<ele>596.817</ele>
<time>2022-05-26T10:51:29Z</time>
</trkpt>
<trkpt lat="48.022984" lon="11.230886">
<ele>596.71</ele>
<time>2022-05-26T10:51:30Z</time>
</trkpt>
<trkpt lat="48.022987" lon="11.230975">
<ele>596.644</ele>
<time>2022-05-26T10:51:31Z</time>
</trkpt>
<trkpt lat="48.022991" lon="11.231062">
<ele>596.614</ele>
<time>2022-05-26T10:51:32Z</time>
</trkpt>
<trkpt lat="48.022995" lon="11.231147">
<ele>596.614</ele>
<time>2022-05-26T10:51:33Z</time>
</trkpt>
<trkpt lat="48.022995" lon="11.231227">
<ele>596.614</ele>
<time>2022-05-26T10:51:34Z</time>
</trkpt>
<trkpt lat="48.022999" lon="11.231309">
<ele>596.614</ele>
<time>2022-05-26T10:51:35Z</time>
</trkpt>
<trkpt lat="48.023003" lon="11.23139">
<ele>596.614</ele>
<time>2022-05-26T10:51:36Z</time>
</trkpt>
<trkpt lat="48.023006" lon="11.231468">
<ele>596.614</ele>
<time>2022-05-26T10:51:37Z</time>
</trkpt>
<trkpt lat="48.023006" lon="11.23155">
<ele>596.614</ele>
<time>2022-05-26T10:51:38Z</time>
</trkpt>
<trkpt lat="48.02301" lon="11.231631">
<ele>596.614</ele>
<time>2022-05-26T10:51:39Z</time>
</trkpt>
<trkpt lat="48.023014" lon="11.231713">
<ele>596.614</ele>
<time>2022-05-26T10:51:40Z</time>
</trkpt>
<trkpt lat="48.023014" lon="11.231791">
<ele>596.881</ele>
<time>2022-05-26T10:51:41Z</time>
</trkpt>
<trkpt lat="48.023014" lon="11.23187">
<ele>597.095</ele>
<time>2022-05-26T10:51:42Z</time>
</trkpt>
<trkpt lat="48.023014" lon="11.231946">
<ele>597.254</ele>
<time>2022-05-26T10:51:43Z</time>
</trkpt>
<trkpt lat="48.023018" lon="11.232025">
<ele>597.373</ele>
<time>2022-05-26T10:51:44Z</time>
</trkpt>
<trkpt lat="48.023022" lon="11.232101">
<ele>597.456</ele>
<time>2022-05-26T10:51:45Z</time>
</trkpt>
<trkpt lat="48.023026" lon="11.232179">
<ele>597.507</ele>
<time>2022-05-26T10:51:46Z</time>
</trkpt>
<trkpt lat="48.023033" lon="11.232256">
<ele>597.55</ele>
<time>2022-05-26T10:51:47Z</time>
</trkpt>
<trkpt lat="48.023037" lon="11.232335">
<ele>597.578</ele>
<time>2022-05-26T10:51:48Z</time>
</trkpt>
<trkpt lat="48.023041" lon="11.232415">
<ele>597.578</ele>
<time>2022-05-26T10:51:49Z</time>
</trkpt>
<trkpt lat="48.023045" lon="11.232493">
<ele>597.578</ele>
<time>2022-05-26T10:51:50Z</time>
</trkpt>
<trkpt lat="48.023045" lon="11.232574">
<ele>597.849</ele>
<time>2022-05-26T10:51:51Z</time>
</trkpt>
<trkpt lat="48.023045" lon="11.232652">
<ele>598.061</ele>
<time>2022-05-26T10:51:52Z</time>
</trkpt>
<trkpt lat="48.023048" lon="11.23273">
<ele>598.222</ele>
<time>2022-05-26T10:51:53Z</time>
</trkpt>
<trkpt lat="48.023052" lon="11.232809">
<ele>598.336</ele>
<time>2022-05-26T10:51:54Z</time>
</trkpt>
<trkpt lat="48.02306" lon="11.232884">
<ele>598.421</ele>
<time>2022-05-26T10:51:55Z</time>
</trkpt>
<trkpt lat="48.023064" lon="11.23296">
<ele>598.472</ele>
<time>2022-05-26T10:51:56Z</time>
</trkpt>
<trkpt lat="48.023071" lon="11.233033">
<ele>598.514</ele>
<time>2022-05-26T10:51:57Z</time>
</trkpt>
<trkpt lat="48.023075" lon="11.233109">
<ele>598.541</ele>
<time>2022-05-26T10:51:58Z</time>
</trkpt>
<trkpt lat="48.023079" lon="11.233182">
<ele>598.541</ele>
<time>2022-05-26T10:51:59Z</time>
</trkpt>
<trkpt lat="48.02309" lon="11.233255">
<ele>598.541</ele>
<time>2022-05-26T10:52:00Z</time>
</trkpt>
<trkpt lat="48.023106" lon="11.233329">
<ele>598.541</ele>
<time>2022-05-26T10:52:01Z</time>
</trkpt>
<trkpt lat="48.023113" lon="11.233401">
<ele>598.541</ele>
<time>2022-05-26T10:52:02Z</time>
</trkpt>
<trkpt lat="48.023129" lon="11.233473">
<ele>598.541</ele>
<time>2022-05-26T10:52:03Z</time>
</trkpt>
<trkpt lat="48.02314" lon="11.233544">
<ele>598.541</ele>
<time>2022-05-26T10:52:04Z</time>
</trkpt>
<trkpt lat="48.023155" lon="11.233618">
<ele>598.541</ele>
<time>2022-05-26T10:52:05Z</time>
</trkpt>
<trkpt lat="48.023174" lon="11.233693">
<ele>598.541</ele>
<time>2022-05-26T10:52:06Z</time>
</trkpt>
<trkpt lat="48.023197" lon="11.233768">
<ele>598.541</ele>
<time>2022-05-26T10:52:07Z</time>
</trkpt>
<trkpt lat="48.023212" lon="11.23384">
<ele>598.541</ele>
<time>2022-05-26T10:52:08Z</time>
</trkpt>
<trkpt lat="48.023239" lon="11.233913">
<ele>598.541</ele>
<time>2022-05-26T10:52:09Z</time>
</trkpt>
<trkpt lat="48.023262" lon="11.233987">
<ele>598.541</ele>
<time>2022-05-26T10:52:10Z</time>
</trkpt>
<trkpt lat="48.023285" lon="11.234056">
<ele>598.541</ele>
<time>2022-05-26T10:52:11Z</time>
</trkpt>
<trkpt lat="48.023312" lon="11.23413">
<ele>598.541</ele>
<time>2022-05-26T10:52:12Z</time>
</trkpt>
<trkpt lat="48.023338" lon="11.234199">
<ele>598.541</ele>
<time>2022-05-26T10:52:13Z</time>
</trkpt>
<trkpt lat="48.023369" lon="11.234265">
<ele>598.541</ele>
<time>2022-05-26T10:52:14Z</time>
</trkpt>
<trkpt lat="48.023399" lon="11.234332">
<ele>598.541</ele>
<time>2022-05-26T10:52:15Z</time>
</trkpt>
<trkpt lat="48.02343" lon="11.234395">
<ele>598.541</ele>
<time>2022-05-26T10:52:16Z</time>
</trkpt>
<trkpt lat="48.023464" lon="11.234456">
<ele>598.541</ele>
<time>2022-05-26T10:52:17Z</time>
</trkpt>
<trkpt lat="48.023491" lon="11.234518">
<ele>598.541</ele>
<time>2022-05-26T10:52:18Z</time>
</trkpt>
<trkpt lat="48.023525" lon="11.23458">
<ele>598.541</ele>
<time>2022-05-26T10:52:19Z</time>
</trkpt>
<trkpt lat="48.023556" lon="11.234642">
<ele>598.541</ele>
<time>2022-05-26T10:52:20Z</time>
</trkpt>
<trkpt lat="48.023586" lon="11.234705">
<ele>598.541</ele>
<time>2022-05-26T10:52:21Z</time>
</trkpt>
<trkpt lat="48.023613" lon="11.234766">
<ele>598.541</ele>
<time>2022-05-26T10:52:22Z</time>
</trkpt>
<trkpt lat="48.023643" lon="11.234829">
<ele>598.816</ele>
<time>2022-05-26T10:52:23Z</time>
</trkpt>
<trkpt lat="48.023674" lon="11.234894">
<ele>599.034</ele>
<time>2022-05-26T10:52:24Z</time>
</trkpt>
<trkpt lat="48.023701" lon="11.234959">
<ele>599.202</ele>
<time>2022-05-26T10:52:25Z</time>
</trkpt>
<trkpt lat="48.023731" lon="11.235023">
<ele>599.33</ele>
<time>2022-05-26T10:52:26Z</time>
</trkpt>
<trkpt lat="48.023758" lon="11.235086">
<ele>599.417</ele>
<time>2022-05-26T10:52:27Z</time>
</trkpt>
<trkpt lat="48.023785" lon="11.235151">
<ele>599.507</ele>
<time>2022-05-26T10:52:28Z</time>
</trkpt>
<trkpt lat="48.023808" lon="11.23522">
<ele>599.563</ele>
<time>2022-05-26T10:52:29Z</time>
</trkpt>
<trkpt lat="48.023827" lon="11.235287">
<ele>599.805</ele>
<time>2022-05-26T10:52:30Z</time>
</trkpt>
<trkpt lat="48.023842" lon="11.235353">
<ele>600.039</ele>
<time>2022-05-26T10:52:31Z</time>
</trkpt>
<trkpt lat="48.023861" lon="11.235418">
<ele>600.186</ele>
<time>2022-05-26T10:52:32Z</time>
</trkpt>
<trkpt lat="48.023876" lon="11.235485">
<ele>600.296</ele>
<time>2022-05-26T10:52:33Z</time>
</trkpt>
<trkpt lat="48.023891" lon="11.235554">
<ele>600.373</ele>
<time>2022-05-26T10:52:34Z</time>
</trkpt>
<trkpt lat="48.023903" lon="11.235621">
<ele>600.422</ele>
<time>2022-05-26T10:52:35Z</time>
</trkpt>
<trkpt lat="48.023918" lon="11.23569">
<ele>600.448</ele>
<time>2022-05-26T10:52:36Z</time>
</trkpt>
<trkpt lat="48.02393" lon="11.235759">
<ele>600.469</ele>
<time>2022-05-26T10:52:37Z</time>
</trkpt>
<trkpt lat="48.023941" lon="11.235826">
<ele>600.724</ele>
<time>2022-05-26T10:52:38Z</time>
</trkpt>
<trkpt lat="48.023952" lon="11.235893">
<ele>600.939</ele>
<time>2022-05-26T10:52:39Z</time>
</trkpt>
<trkpt lat="48.02396" lon="11.23596">
<ele>601.082</ele>
<time>2022-05-26T10:52:40Z</time>
</trkpt>
<trkpt lat="48.023968" lon="11.236027">
<ele>601.489</ele>
<time>2022-05-26T10:52:41Z</time>
</trkpt>
<trkpt lat="48.023975" lon="11.236092">
<ele>601.818</ele>
<time>2022-05-26T10:52:42Z</time>
</trkpt>
<trkpt lat="48.023983" lon="11.236156">
<ele>602.08</ele>
<time>2022-05-26T10:52:43Z</time>
</trkpt>
<trkpt lat="48.023987" lon="11.23622">
<ele>602.247</ele>
<time>2022-05-26T10:52:44Z</time>
</trkpt>
<trkpt lat="48.023991" lon="11.236282">
<ele>602.628</ele>
<time>2022-05-26T10:52:45Z</time>
</trkpt>
<trkpt lat="48.023994" lon="11.236341">
<ele>602.911</ele>
<time>2022-05-26T10:52:46Z</time>
</trkpt>
<trkpt lat="48.024002" lon="11.236402">
<ele>603.097</ele>
<time>2022-05-26T10:52:47Z</time>
</trkpt>
<trkpt lat="48.02401" lon="11.236464">
<ele>603.52</ele>
<time>2022-05-26T10:52:48Z</time>
</trkpt>
<trkpt lat="48.024014" lon="11.236526">
<ele>603.803</ele>
<time>2022-05-26T10:52:49Z</time>
</trkpt>
<trkpt lat="48.024017" lon="11.236588">
<ele>604.308</ele>
<time>2022-05-26T10:52:50Z</time>
</trkpt>
<trkpt lat="48.024021" lon="11.236651">
<ele>604.663</ele>
<time>2022-05-26T10:52:51Z</time>
</trkpt>
<trkpt lat="48.024025" lon="11.23671">
<ele>605.244</ele>
<time>2022-05-26T10:52:52Z</time>
</trkpt>
<trkpt lat="48.024025" lon="11.236769">
<ele>605.687</ele>
<time>2022-05-26T10:52:53Z</time>
</trkpt>
<trkpt lat="48.024025" lon="11.236827">
<ele>605.98</ele>
<time>2022-05-26T10:52:54Z</time>
</trkpt>
<trkpt lat="48.024029" lon="11.236883">
<ele>606.473</ele>
<time>2022-05-26T10:52:55Z</time>
</trkpt>
<trkpt lat="48.024029" lon="11.23694">
<ele>606.835</ele>
<time>2022-05-26T10:52:56Z</time>
</trkpt>
<trkpt lat="48.024033" lon="11.236999">
<ele>607.072</ele>
<time>2022-05-26T10:52:57Z</time>
</trkpt>
<trkpt lat="48.024033" lon="11.237054">
<ele>607.564</ele>
<time>2022-05-26T10:52:58Z</time>
</trkpt>
<trkpt lat="48.024036" lon="11.237106">
<ele>607.953</ele>
<time>2022-05-26T10:52:59Z</time>
</trkpt>
<trkpt lat="48.02404" lon="11.237161">
<ele>608.245</ele>
<time>2022-05-26T10:53:00Z</time>
</trkpt>
<trkpt lat="48.024044" lon="11.237211">
<ele>608.426</ele>
<time>2022-05-26T10:53:01Z</time>
</trkpt>
<trkpt lat="48.024044" lon="11.237264">
<ele>608.824</ele>
<time>2022-05-26T10:53:02Z</time>
</trkpt>
<trkpt lat="48.024048" lon="11.237313">
<ele>609.123</ele>
<time>2022-05-26T10:53:03Z</time>
</trkpt>
<trkpt lat="48.024048" lon="11.237364">
<ele>609.318</ele>
<time>2022-05-26T10:53:04Z</time>
</trkpt>
<trkpt lat="48.024048" lon="11.237413">
<ele>609.743</ele>
<time>2022-05-26T10:53:05Z</time>
</trkpt>
<trkpt lat="48.024052" lon="11.237464">
<ele>610.03</ele>
<time>2022-05-26T10:53:06Z</time>
</trkpt>
<trkpt lat="48.024055" lon="11.237512">
<ele>610.501</ele>
<time>2022-05-26T10:53:07Z</time>
</trkpt>
<trkpt lat="48.024055" lon="11.237561">
<ele>610.912</ele>
<time>2022-05-26T10:53:08Z</time>
</trkpt>
<trkpt lat="48.024059" lon="11.237615">
<ele>611.197</ele>
<time>2022-05-26T10:53:09Z</time>
</trkpt>
<trkpt lat="48.024063" lon="11.237667">
<ele>611.668</ele>
<time>2022-05-26T10:53:10Z</time>
</trkpt>
<trkpt lat="48.024063" lon="11.23772">
<ele>612.037</ele>
<time>2022-05-26T10:53:11Z</time>
</trkpt>
<trkpt lat="48.024067" lon="11.23777">
<ele>612.268</ele>
<time>2022-05-26T10:53:12Z</time>
</trkpt>
<trkpt lat="48.024067" lon="11.237823">
<ele>612.7</ele>
<time>2022-05-26T10:53:13Z</time>
</trkpt>
<trkpt lat="48.024071" lon="11.237871">
<ele>613.031</ele>
<time>2022-05-26T10:53:14Z</time>
</trkpt>
<trkpt lat="48.024075" lon="11.23792">
<ele>613.273</ele>
<time>2022-05-26T10:53:15Z</time>
</trkpt>
<trkpt lat="48.024078" lon="11.237971">
<ele>613.635</ele>
<time>2022-05-26T10:53:16Z</time>
</trkpt>
<trkpt lat="48.024082" lon="11.238022">
<ele>613.909</ele>
<time>2022-05-26T10:53:17Z</time>
</trkpt>
<trkpt lat="48.024086" lon="11.238073">
<ele>614.405</ele>
<time>2022-05-26T10:53:18Z</time>
</trkpt>
<trkpt lat="48.02409" lon="11.238125">
<ele>614.799</ele>
<time>2022-05-26T10:53:19Z</time>
</trkpt>
<trkpt lat="48.02409" lon="11.23818">
<ele>615.058</ele>
<time>2022-05-26T10:53:20Z</time>
</trkpt>
<trkpt lat="48.024094" lon="11.238237">
<ele>615.528</ele>
<time>2022-05-26T10:53:21Z</time>
</trkpt>
<trkpt lat="48.024097" lon="11.238292">
<ele>615.898</ele>
<time>2022-05-26T10:53:22Z</time>
</trkpt>
<trkpt lat="48.024101" lon="11.238346">
<ele>616.129</ele>
<time>2022-05-26T10:53:23Z</time>
</trkpt>
<trkpt lat="48.024101" lon="11.2384">
<ele>616.585</ele>
<time>2022-05-26T10:53:24Z</time>
</trkpt>
<trkpt lat="48.024105" lon="11.238453">
<ele>616.938</ele>
<time>2022-05-26T10:53:25Z</time>
</trkpt>
<trkpt lat="48.024113" lon="11.238507">
<ele>617.187</ele>
<time>2022-05-26T10:53:26Z</time>
</trkpt>
<trkpt lat="48.02412" lon="11.238558">
<ele>617.344</ele>
<time>2022-05-26T10:53:27Z</time>
</trkpt>
<trkpt lat="48.024124" lon="11.238613">
<ele>617.483</ele>
<time>2022-05-26T10:53:28Z</time>
</trkpt>
<trkpt lat="48.024132" lon="11.238671">
<ele>617.787</ele>
<time>2022-05-26T10:53:29Z</time>
</trkpt>
<trkpt lat="48.024136" lon="11.238727">
<ele>618.028</ele>
<time>2022-05-26T10:53:30Z</time>
</trkpt>
<trkpt lat="48.024143" lon="11.238784">
<ele>618.205</ele>
<time>2022-05-26T10:53:31Z</time>
</trkpt>
<trkpt lat="48.024155" lon="11.23884">
<ele>618.377</ele>
<time>2022-05-26T10:53:32Z</time>
</trkpt>
<trkpt lat="48.024158" lon="11.238901">
<ele>618.725</ele>
<time>2022-05-26T10:53:33Z</time>
</trkpt>
<trkpt lat="48.024162" lon="11.238971">
<ele>618.973</ele>
<time>2022-05-26T10:53:34Z</time>
</trkpt>
<trkpt lat="48.02417" lon="11.239032">
<ele>619.15</ele>
<time>2022-05-26T10:53:35Z</time>
</trkpt>
<trkpt lat="48.024174" lon="11.239099">
<ele>619.272</ele>
<time>2022-05-26T10:53:36Z</time>
</trkpt>
<trkpt lat="48.024181" lon="11.239161">
<ele>619.349</ele>
<time>2022-05-26T10:53:37Z</time>
</trkpt>
<trkpt lat="48.024189" lon="11.239226">
<ele>619.432</ele>
<time>2022-05-26T10:53:38Z</time>
</trkpt>
<trkpt lat="48.0242" lon="11.239293">
<ele>619.48</ele>
<time>2022-05-26T10:53:39Z</time>
</trkpt>
<trkpt lat="48.024212" lon="11.23936">
<ele>619.745</ele>
<time>2022-05-26T10:53:40Z</time>
</trkpt>
<trkpt lat="48.02422" lon="11.239428">
<ele>620.007</ele>
<time>2022-05-26T10:53:41Z</time>
</trkpt>
<trkpt lat="48.024231" lon="11.239498">
<ele>620.166</ele>
<time>2022-05-26T10:53:42Z</time>
</trkpt>
<trkpt lat="48.024242" lon="11.23957">
<ele>620.289</ele>
<time>2022-05-26T10:53:43Z</time>
</trkpt>
<trkpt lat="48.02425" lon="11.239641">
<ele>620.369</ele>
<time>2022-05-26T10:53:44Z</time>
</trkpt>
<trkpt lat="48.024265" lon="11.239718">
<ele>620.421</ele>
<time>2022-05-26T10:53:45Z</time>
</trkpt>
<trkpt lat="48.024277" lon="11.239794">
<ele>620.449</ele>
<time>2022-05-26T10:53:46Z</time>
</trkpt>
<trkpt lat="48.024284" lon="11.23987">
<ele>620.47</ele>
<time>2022-05-26T10:53:47Z</time>
</trkpt>
<trkpt lat="48.024292" lon="11.239946">
<ele>620.47</ele>
<time>2022-05-26T10:53:48Z</time>
</trkpt>
<trkpt lat="48.024307" lon="11.240026">
<ele>620.47</ele>
<time>2022-05-26T10:53:49Z</time>
</trkpt>
<trkpt lat="48.024319" lon="11.240108">
<ele>620.47</ele>
<time>2022-05-26T10:53:50Z</time>
</trkpt>
<trkpt lat="48.02433" lon="11.240193">
<ele>620.47</ele>
<time>2022-05-26T10:53:51Z</time>
</trkpt>
<trkpt lat="48.024345" lon="11.240278">
<ele>620.47</ele>
<time>2022-05-26T10:53:52Z</time>
</trkpt>
<trkpt lat="48.024357" lon="11.240363">
<ele>620.47</ele>
<time>2022-05-26T10:53:53Z</time>
</trkpt>
<trkpt lat="48.024368" lon="11.240448">
<ele>620.47</ele>
<time>2022-05-26T10:53:54Z</time>
</trkpt>
<trkpt lat="48.024384" lon="11.240532">
<ele>620.47</ele>
<time>2022-05-26T10:53:55Z</time>
</trkpt>
<trkpt lat="48.024395" lon="11.240615">
<ele>620.47</ele>
<time>2022-05-26T10:53:56Z</time>
</trkpt>
<trkpt lat="48.02441" lon="11.240699">
<ele>620.47</ele>
<time>2022-05-26T10:53:57Z</time>
</trkpt>
<trkpt lat="48.024426" lon="11.240783">
<ele>620.47</ele>
<time>2022-05-26T10:53:58Z</time>
</trkpt>
<trkpt lat="48.024445" lon="11.240869">
<ele>620.47</ele>
<time>2022-05-26T10:53:59Z</time>
</trkpt>
<trkpt lat="48.024456" lon="11.240956">
<ele>620.47</ele>
<time>2022-05-26T10:54:00Z</time>
</trkpt>
<trkpt lat="48.024471" lon="11.241045">
<ele>620.173</ele>
<time>2022-05-26T10:54:01Z</time>
</trkpt>
<trkpt lat="48.024487" lon="11.241133">
<ele>619.941</ele>
<time>2022-05-26T10:54:02Z</time>
</trkpt>
<trkpt lat="48.024506" lon="11.241223">
<ele>619.762</ele>
<time>2022-05-26T10:54:03Z</time>
</trkpt>
<trkpt lat="48.024521" lon="11.241313">
<ele>619.637</ele>
<time>2022-05-26T10:54:04Z</time>
</trkpt>
<trkpt lat="48.024544" lon="11.241405">
<ele>619.549</ele>
<time>2022-05-26T10:54:05Z</time>
</trkpt>
<trkpt lat="48.024563" lon="11.241498">
<ele>619.49</ele>
<time>2022-05-26T10:54:06Z</time>
</trkpt>
<trkpt lat="48.024582" lon="11.241593">
<ele>619.445</ele>
<time>2022-05-26T10:54:07Z</time>
</trkpt>
<trkpt lat="48.024605" lon="11.24169">
<ele>619.417</ele>
<time>2022-05-26T10:54:08Z</time>
</trkpt>
<trkpt lat="48.024624" lon="11.241789">
<ele>619.121</ele>
<time>2022-05-26T10:54:09Z</time>
</trkpt>
<trkpt lat="48.024647" lon="11.241887">
<ele>618.896</ele>
<time>2022-05-26T10:54:10Z</time>
</trkpt>
<trkpt lat="48.024673" lon="11.241987">
<ele>618.729</ele>
<time>2022-05-26T10:54:11Z</time>
</trkpt>
<trkpt lat="48.024696" lon="11.242088">
<ele>618.608</ele>
<time>2022-05-26T10:54:12Z</time>
</trkpt>
<trkpt lat="48.024723" lon="11.24219">
<ele>618.524</ele>
<time>2022-05-26T10:54:13Z</time>
</trkpt>
<trkpt lat="48.024746" lon="11.242295">
<ele>618.477</ele>
<time>2022-05-26T10:54:14Z</time>
</trkpt>
<trkpt lat="48.024773" lon="11.242398">
<ele>618.455</ele>
<time>2022-05-26T10:54:15Z</time>
</trkpt>
<trkpt lat="48.024799" lon="11.242501">
<ele>618.234</ele>
<time>2022-05-26T10:54:16Z</time>
</trkpt>
<trkpt lat="48.024826" lon="11.242605">
<ele>618.081</ele>
<time>2022-05-26T10:54:17Z</time>
</trkpt>
<trkpt lat="48.024857" lon="11.24271">
<ele>617.935</ele>
<time>2022-05-26T10:54:18Z</time>
</trkpt>
<trkpt lat="48.024883" lon="11.242815">
<ele>617.569</ele>
<time>2022-05-26T10:54:19Z</time>
</trkpt>
<trkpt lat="48.024918" lon="11.24292">
<ele>617.274</ele>
<time>2022-05-26T10:54:20Z</time>
</trkpt>
<trkpt lat="48.024952" lon="11.243027">
<ele>617.042</ele>
<time>2022-05-26T10:54:21Z</time>
</trkpt>
<trkpt lat="48.02499" lon="11.243134">
<ele>616.897</ele>
<time>2022-05-26T10:54:22Z</time>
</trkpt>
<trkpt lat="48.025028" lon="11.243237">
<ele>616.478</ele>
<time>2022-05-26T10:54:23Z</time>
</trkpt>
<trkpt lat="48.02507" lon="11.243341">
<ele>616.093</ele>
<time>2022-05-26T10:54:24Z</time>
</trkpt>
<trkpt lat="48.025112" lon="11.243446">
<ele>615.885</ele>
<time>2022-05-26T10:54:25Z</time>
</trkpt>
<trkpt lat="48.025162" lon="11.24355">
<ele>615.779</ele>
<time>2022-05-26T10:54:26Z</time>
</trkpt>
<trkpt lat="48.025211" lon="11.243653">
<ele>615.435</ele>
<time>2022-05-26T10:54:27Z</time>
</trkpt>
<trkpt lat="48.025261" lon="11.243756">
<ele>615.133</ele>
<time>2022-05-26T10:54:28Z</time>
</trkpt>
<trkpt lat="48.025314" lon="11.243855">
<ele>614.906</ele>
<time>2022-05-26T10:54:29Z</time>
</trkpt>
<trkpt lat="48.025372" lon="11.24395">
<ele>614.743</ele>
<time>2022-05-26T10:54:30Z</time>
</trkpt>
<trkpt lat="48.025425" lon="11.244041">
<ele>614.642</ele>
<time>2022-05-26T10:54:31Z</time>
</trkpt>
<trkpt lat="48.02549" lon="11.244133">
<ele>614.57</ele>
<time>2022-05-26T10:54:32Z</time>
</trkpt>
<trkpt lat="48.025543" lon="11.244221">
<ele>614.524</ele>
<time>2022-05-26T10:54:33Z</time>
</trkpt>
<trkpt lat="48.025597" lon="11.244305">
<ele>614.501</ele>
<time>2022-05-26T10:54:34Z</time>
</trkpt>
<trkpt lat="48.025654" lon="11.244387">
<ele>614.501</ele>
<time>2022-05-26T10:54:35Z</time>
</trkpt>
<trkpt lat="48.025711" lon="11.244465">
<ele>614.501</ele>
<time>2022-05-26T10:54:36Z</time>
</trkpt>
<trkpt lat="48.025764" lon="11.244539">
<ele>614.501</ele>
<time>2022-05-26T10:54:37Z</time>
</trkpt>
<trkpt lat="48.025818" lon="11.244613">
<ele>614.501</ele>
<time>2022-05-26T10:54:38Z</time>
</trkpt>
<trkpt lat="48.025864" lon="11.244685">
<ele>614.501</ele>
<time>2022-05-26T10:54:39Z</time>
</trkpt>
<trkpt lat="48.025913" lon="11.244751">
<ele>614.501</ele>
<time>2022-05-26T10:54:40Z</time>
</trkpt>
<trkpt lat="48.025963" lon="11.244817">
<ele>614.501</ele>
<time>2022-05-26T10:54:41Z</time>
</trkpt>
<trkpt lat="48.026009" lon="11.244882">
<ele>614.501</ele>
<time>2022-05-26T10:54:42Z</time>
</trkpt>
<trkpt lat="48.026051" lon="11.244946">
<ele>614.501</ele>
<time>2022-05-26T10:54:43Z</time>
</trkpt>
<trkpt lat="48.026096" lon="11.24501">
<ele>614.76</ele>
<time>2022-05-26T10:54:44Z</time>
</trkpt>
<trkpt lat="48.026138" lon="11.245071">
<ele>614.971</ele>
<time>2022-05-26T10:54:45Z</time>
</trkpt>
<trkpt lat="48.026176" lon="11.245131">
<ele>615.135</ele>
<time>2022-05-26T10:54:46Z</time>
</trkpt>
<trkpt lat="48.026215" lon="11.245193">
<ele>615.252</ele>
<time>2022-05-26T10:54:47Z</time>
</trkpt>
<trkpt lat="48.026253" lon="11.245256">
<ele>615.376</ele>
<time>2022-05-26T10:54:48Z</time>
</trkpt>
<trkpt lat="48.026291" lon="11.24532">
<ele>615.468</ele>
<time>2022-05-26T10:54:49Z</time>
</trkpt>
<trkpt lat="48.026329" lon="11.245383">
<ele>615.526</ele>
<time>2022-05-26T10:54:50Z</time>
</trkpt>
<trkpt lat="48.026367" lon="11.245446">
<ele>615.554</ele>
<time>2022-05-26T10:54:51Z</time>
</trkpt>
<trkpt lat="48.026402" lon="11.245512">
<ele>615.554</ele>
<time>2022-05-26T10:54:52Z</time>
</trkpt>
<trkpt lat="48.026436" lon="11.245577">
<ele>615.554</ele>
<time>2022-05-26T10:54:53Z</time>
</trkpt>
<trkpt lat="48.02647" lon="11.245644">
<ele>615.554</ele>
<time>2022-05-26T10:54:54Z</time>
</trkpt>
<trkpt lat="48.026505" lon="11.24571">
<ele>615.554</ele>
<time>2022-05-26T10:54:55Z</time>
</trkpt>
<trkpt lat="48.026539" lon="11.245778">
<ele>615.554</ele>
<time>2022-05-26T10:54:56Z</time>
</trkpt>
<trkpt lat="48.026577" lon="11.245851">
<ele>615.554</ele>
<time>2022-05-26T10:54:57Z</time>
</trkpt>
<trkpt lat="48.026611" lon="11.245922">
<ele>615.554</ele>
<time>2022-05-26T10:54:58Z</time>
</trkpt>
<trkpt lat="48.026646" lon="11.245996">
<ele>615.554</ele>
<time>2022-05-26T10:54:59Z</time>
</trkpt>
<trkpt lat="48.02668" lon="11.246071">
<ele>615.554</ele>
<time>2022-05-26T10:55:00Z</time>
</trkpt>
<trkpt lat="48.026718" lon="11.246146">
<ele>615.554</ele>
<time>2022-05-26T10:55:01Z</time>
</trkpt>
<trkpt lat="48.026756" lon="11.246222">
<ele>615.554</ele>
<time>2022-05-26T10:55:02Z</time>
</trkpt>
<trkpt lat="48.026794" lon="11.246297">
<ele>615.554</ele>
<time>2022-05-26T10:55:03Z</time>
</trkpt>
<trkpt lat="48.026829" lon="11.246373">
<ele>615.554</ele>
<time>2022-05-26T10:55:04Z</time>
</trkpt>
<trkpt lat="48.026859" lon="11.246454">
<ele>615.554</ele>
<time>2022-05-26T10:55:05Z</time>
</trkpt>
<trkpt lat="48.026897" lon="11.246538">
<ele>615.554</ele>
<time>2022-05-26T10:55:06Z</time>
</trkpt>
<trkpt lat="48.026932" lon="11.246624">
<ele>615.554</ele>
<time>2022-05-26T10:55:07Z</time>
</trkpt>
<trkpt lat="48.026966" lon="11.24671">
<ele>615.554</ele>
<time>2022-05-26T10:55:08Z</time>
</trkpt>
<trkpt lat="48.027004" lon="11.246797">
<ele>615.259</ele>
<time>2022-05-26T10:55:09Z</time>
</trkpt>
<trkpt lat="48.027035" lon="11.246885">
<ele>615.033</ele>
<time>2022-05-26T10:55:10Z</time>
</trkpt>
<trkpt lat="48.027065" lon="11.246976">
<ele>614.865</ele>
<time>2022-05-26T10:55:11Z</time>
</trkpt>
<trkpt lat="48.027092" lon="11.247068">
<ele>614.745</ele>
<time>2022-05-26T10:55:12Z</time>
</trkpt>
<trkpt lat="48.027122" lon="11.247163">
<ele>614.663</ele>
<time>2022-05-26T10:55:13Z</time>
</trkpt>
<trkpt lat="48.027149" lon="11.247258">
<ele>614.613</ele>
<time>2022-05-26T10:55:14Z</time>
</trkpt>
<trkpt lat="48.027168" lon="11.247355">
<ele>614.589</ele>
<time>2022-05-26T10:55:15Z</time>
</trkpt>
<trkpt lat="48.027191" lon="11.247454">
<ele>614.374</ele>
<time>2022-05-26T10:55:16Z</time>
</trkpt>
<trkpt lat="48.02721" lon="11.24755">
<ele>614.222</ele>
<time>2022-05-26T10:55:17Z</time>
</trkpt>
<trkpt lat="48.027225" lon="11.24765">
<ele>614.066</ele>
<time>2022-05-26T10:55:18Z</time>
</trkpt>
<trkpt lat="48.027241" lon="11.247748">
<ele>613.941</ele>
<time>2022-05-26T10:55:19Z</time>
</trkpt>
<trkpt lat="48.027256" lon="11.247846">
<ele>613.845</ele>
<time>2022-05-26T10:55:20Z</time>
</trkpt>
<trkpt lat="48.027271" lon="11.247942">
<ele>613.777</ele>
<time>2022-05-26T10:55:21Z</time>
</trkpt>
<trkpt lat="48.027283" lon="11.248036">
<ele>613.733</ele>
<time>2022-05-26T10:55:22Z</time>
</trkpt>
<trkpt lat="48.027298" lon="11.248132">
<ele>613.711</ele>
<time>2022-05-26T10:55:23Z</time>
</trkpt>
<trkpt lat="48.027309" lon="11.248225">
<ele>613.711</ele>
<time>2022-05-26T10:55:24Z</time>
</trkpt>
<trkpt lat="48.027321" lon="11.248317">
<ele>613.711</ele>
<time>2022-05-26T10:55:25Z</time>
</trkpt>
<trkpt lat="48.02734" lon="11.248408">
<ele>613.711</ele>
<time>2022-05-26T10:55:26Z</time>
</trkpt>
<trkpt lat="48.027359" lon="11.248495">
<ele>613.711</ele>
<time>2022-05-26T10:55:27Z</time>
</trkpt>
<trkpt lat="48.027378" lon="11.248581">
<ele>613.711</ele>
<time>2022-05-26T10:55:28Z</time>
</trkpt>
<trkpt lat="48.027401" lon="11.248669">
<ele>613.711</ele>
<time>2022-05-26T10:55:29Z</time>
</trkpt>
<trkpt lat="48.027424" lon="11.248753">
<ele>613.711</ele>
<time>2022-05-26T10:55:30Z</time>
</trkpt>
<trkpt lat="48.027447" lon="11.248835">
<ele>613.711</ele>
<time>2022-05-26T10:55:31Z</time>
</trkpt>
<trkpt lat="48.027477" lon="11.248914">
<ele>613.711</ele>
<time>2022-05-26T10:55:32Z</time>
</trkpt>
<trkpt lat="48.027504" lon="11.24899">
<ele>613.711</ele>
<time>2022-05-26T10:55:33Z</time>
</trkpt>
<trkpt lat="48.027531" lon="11.249062">
<ele>613.932</ele>
<time>2022-05-26T10:55:34Z</time>
</trkpt>
<trkpt lat="48.027565" lon="11.24913">
<ele>614.107</ele>
<time>2022-05-26T10:55:35Z</time>
</trkpt>
<trkpt lat="48.027592" lon="11.249197">
<ele>614.244</ele>
<time>2022-05-26T10:55:36Z</time>
</trkpt>
<trkpt lat="48.027622" lon="11.249262">
<ele>614.339</ele>
<time>2022-05-26T10:55:37Z</time>
</trkpt>
<trkpt lat="48.027653" lon="11.249323">
<ele>614.441</ele>
<time>2022-05-26T10:55:38Z</time>
</trkpt>
<trkpt lat="48.027679" lon="11.249379">
<ele>614.516</ele>
<time>2022-05-26T10:55:39Z</time>
</trkpt>
<trkpt lat="48.02771" lon="11.249438">
<ele>614.565</ele>
<time>2022-05-26T10:55:40Z</time>
</trkpt>
<trkpt lat="48.02774" lon="11.249495">
<ele>614.589</ele>
<time>2022-05-26T10:55:41Z</time>
</trkpt>
<trkpt lat="48.027771" lon="11.249549">
<ele>614.589</ele>
<time>2022-05-26T10:55:42Z</time>
</trkpt>
<trkpt lat="48.027798" lon="11.249605">
<ele>614.589</ele>
<time>2022-05-26T10:55:43Z</time>
</trkpt>
<trkpt lat="48.027832" lon="11.249661">
<ele>614.589</ele>
<time>2022-05-26T10:55:44Z</time>
</trkpt>
<trkpt lat="48.027866" lon="11.249717">
<ele>614.829</ele>
<time>2022-05-26T10:55:45Z</time>
</trkpt>
<trkpt lat="48.027901" lon="11.24977">
<ele>615.02</ele>
<time>2022-05-26T10:55:46Z</time>
</trkpt>
<trkpt lat="48.027931" lon="11.249825">
<ele>615.154</ele>
<time>2022-05-26T10:55:47Z</time>
</trkpt>
<trkpt lat="48.027962" lon="11.249885">
<ele>615.296</ele>
<time>2022-05-26T10:55:48Z</time>
</trkpt>
<trkpt lat="48.027992" lon="11.249942">
<ele>615.406</ele>
<time>2022-05-26T10:55:49Z</time>
</trkpt>
<trkpt lat="48.028023" lon="11.249999">
<ele>615.484</ele>
<time>2022-05-26T10:55:50Z</time>
</trkpt>
<trkpt lat="48.028057" lon="11.250055">
<ele>615.531</ele>
<time>2022-05-26T10:55:51Z</time>
</trkpt>
<trkpt lat="48.028084" lon="11.250114">
<ele>615.554</ele>
<time>2022-05-26T10:55:52Z</time>
</trkpt>
<trkpt lat="48.028118" lon="11.250177">
<ele>615.554</ele>
<time>2022-05-26T10:55:53Z</time>
</trkpt>
<trkpt lat="48.028149" lon="11.250237">
<ele>615.554</ele>
<time>2022-05-26T10:55:54Z</time>
</trkpt>
<trkpt lat="48.028183" lon="11.250293">
<ele>615.554</ele>
<time>2022-05-26T10:55:55Z</time>
</trkpt>
<trkpt lat="48.028214" lon="11.25035">
<ele>615.554</ele>
<time>2022-05-26T10:55:56Z</time>
</trkpt>
<trkpt lat="48.028248" lon="11.250406">
<ele>615.554</ele>
<time>2022-05-26T10:55:57Z</time>
</trkpt>
<trkpt lat="48.028278" lon="11.250464">
<ele>615.554</ele>
<time>2022-05-26T10:55:58Z</time>
</trkpt>
<trkpt lat="48.028309" lon="11.250525">
<ele>615.554</ele>
<time>2022-05-26T10:55:59Z</time>
</trkpt>
<trkpt lat="48.028343" lon="11.250587">
<ele>615.554</ele>
<time>2022-05-26T10:56:00Z</time>
</trkpt>
<trkpt lat="48.028362" lon="11.250651">
<ele>615.554</ele>
<time>2022-05-26T10:56:01Z</time>
</trkpt>
<trkpt lat="48.028389" lon="11.250732">
<ele>615.554</ele>
<time>2022-05-26T10:56:02Z</time>
</trkpt>
<trkpt lat="48.028412" lon="11.25082">
<ele>615.29</ele>
<time>2022-05-26T10:56:03Z</time>
</trkpt>
<trkpt lat="48.028435" lon="11.250915">
<ele>615.081</ele>
<time>2022-05-26T10:56:04Z</time>
</trkpt>
<trkpt lat="48.028465" lon="11.25101">
<ele>614.96</ele>
<time>2022-05-26T10:56:05Z</time>
</trkpt>
<trkpt lat="48.028496" lon="11.251117">
<ele>614.573</ele>
<time>2022-05-26T10:56:06Z</time>
</trkpt>
<trkpt lat="48.028526" lon="11.251219">
<ele>614.306</ele>
<time>2022-05-26T10:56:07Z</time>
</trkpt>
<trkpt lat="48.028557" lon="11.25132">
<ele>614.065</ele>
<time>2022-05-26T10:56:08Z</time>
</trkpt>
<trkpt lat="48.028587" lon="11.25142">
<ele>613.626</ele>
<time>2022-05-26T10:56:09Z</time>
</trkpt>
<trkpt lat="48.028618" lon="11.251516">
<ele>613.316</ele>
<time>2022-05-26T10:56:10Z</time>
</trkpt>
<trkpt lat="48.028645" lon="11.25161">
<ele>613.127</ele>
<time>2022-05-26T10:56:11Z</time>
</trkpt>
<trkpt lat="48.028671" lon="11.251702">
<ele>612.687</ele>
<time>2022-05-26T10:56:12Z</time>
</trkpt>
<trkpt lat="48.028698" lon="11.251801">
<ele>612.346</ele>
<time>2022-05-26T10:56:13Z</time>
</trkpt>
<trkpt lat="48.028721" lon="11.251886">
<ele>612.013</ele>
<time>2022-05-26T10:56:14Z</time>
</trkpt>
<trkpt lat="48.028748" lon="11.251962">
<ele>611.862</ele>
<time>2022-05-26T10:56:15Z</time>
</trkpt>
<trkpt lat="48.028767" lon="11.252035">
<ele>611.767</ele>
<time>2022-05-26T10:56:16Z</time>
</trkpt>
<trkpt lat="48.028782" lon="11.252102">
<ele>611.698</ele>
<time>2022-05-26T10:56:17Z</time>
</trkpt>
<trkpt lat="48.028797" lon="11.252162">
<ele>611.636</ele>
<time>2022-05-26T10:56:18Z</time>
</trkpt>
<trkpt lat="48.028809" lon="11.252222">
<ele>611.605</ele>
<time>2022-05-26T10:56:19Z</time>
</trkpt>
<trkpt lat="48.028816" lon="11.252275">
<ele>611.605</ele>
<time>2022-05-26T10:56:20Z</time>
</trkpt>
<trkpt lat="48.02882" lon="11.252327">
<ele>611.605</ele>
<time>2022-05-26T10:56:21Z</time>
</trkpt>
<trkpt lat="48.028816" lon="11.252378">
<ele>611.605</ele>
<time>2022-05-26T10:56:22Z</time>
</trkpt>
<trkpt lat="48.028816" lon="11.252428">
<ele>611.605</ele>
<time>2022-05-26T10:56:23Z</time>
</trkpt>
<trkpt lat="48.028805" lon="11.252476">
<ele>611.605</ele>
<time>2022-05-26T10:56:24Z</time>
</trkpt>
<trkpt lat="48.028786" lon="11.25252">
<ele>611.605</ele>
<time>2022-05-26T10:56:25Z</time>
</trkpt>
<trkpt lat="48.028767" lon="11.252568">
<ele>611.605</ele>
<time>2022-05-26T10:56:26Z</time>
</trkpt>
<trkpt lat="48.028736" lon="11.252624">
<ele>611.605</ele>
<time>2022-05-26T10:56:27Z</time>
</trkpt>
<trkpt lat="48.028713" lon="11.252679">
<ele>611.605</ele>
<time>2022-05-26T10:56:28Z</time>
</trkpt>
<trkpt lat="48.02869" lon="11.252735">
<ele>611.605</ele>
<time>2022-05-26T10:56:29Z</time>
</trkpt>
<trkpt lat="48.028664" lon="11.252802">
<ele>611.605</ele>
<time>2022-05-26T10:56:30Z</time>
</trkpt>
<trkpt lat="48.028641" lon="11.252885">
<ele>611.605</ele>
<time>2022-05-26T10:56:31Z</time>
</trkpt>
<trkpt lat="48.028622" lon="11.252963">
<ele>611.605</ele>
<time>2022-05-26T10:56:32Z</time>
</trkpt>
<trkpt lat="48.028614" lon="11.253036">
<ele>611.605</ele>
<time>2022-05-26T10:56:33Z</time>
</trkpt>
<trkpt lat="48.028603" lon="11.253117">
<ele>611.605</ele>
<time>2022-05-26T10:56:34Z</time>
</trkpt>
<trkpt lat="48.028599" lon="11.253202">
<ele>611.605</ele>
<time>2022-05-26T10:56:35Z</time>
</trkpt>
<trkpt lat="48.028595" lon="11.253286">
<ele>611.605</ele>
<time>2022-05-26T10:56:36Z</time>
</trkpt>
<trkpt lat="48.028587" lon="11.253372">
<ele>611.385</ele>
<time>2022-05-26T10:56:37Z</time>
</trkpt>
<trkpt lat="48.028591" lon="11.253462">
<ele>611.184</ele>
<time>2022-05-26T10:56:38Z</time>
</trkpt>
<trkpt lat="48.028603" lon="11.25354">
<ele>611.021</ele>
<time>2022-05-26T10:56:39Z</time>
</trkpt>
<trkpt lat="48.028622" lon="11.253625">
<ele>610.881</ele>
<time>2022-05-26T10:56:40Z</time>
</trkpt>
<trkpt lat="48.028645" lon="11.253703">
<ele>610.794</ele>
<time>2022-05-26T10:56:41Z</time>
</trkpt>
<trkpt lat="48.028671" lon="11.253781">
<ele>610.479</ele>
<time>2022-05-26T10:56:42Z</time>
</trkpt>
<trkpt lat="48.028694" lon="11.25386">
<ele>610.232</ele>
<time>2022-05-26T10:56:43Z</time>
</trkpt>
<trkpt lat="48.028721" lon="11.253937">
<ele>610.045</ele>
<time>2022-05-26T10:56:44Z</time>
</trkpt>
<trkpt lat="48.028748" lon="11.254015">
<ele>609.926</ele>
<time>2022-05-26T10:56:45Z</time>
</trkpt>
<trkpt lat="48.02877" lon="11.254091">
<ele>609.619</ele>
<time>2022-05-26T10:56:46Z</time>
</trkpt>
<trkpt lat="48.028793" lon="11.254175">
<ele>609.386</ele>
<time>2022-05-26T10:56:47Z</time>
</trkpt>
<trkpt lat="48.028816" lon="11.254262">
<ele>609.182</ele>
<time>2022-05-26T10:56:48Z</time>
</trkpt>
<trkpt lat="48.028835" lon="11.254343">
<ele>609.028</ele>
<time>2022-05-26T10:56:49Z</time>
</trkpt>
<trkpt lat="48.028866" lon="11.254425">
<ele>608.933</ele>
<time>2022-05-26T10:56:50Z</time>
</trkpt>
<trkpt lat="48.028893" lon="11.254514">
<ele>608.87</ele>
<time>2022-05-26T10:56:51Z</time>
</trkpt>
<trkpt lat="48.028919" lon="11.254608">
<ele>608.535</ele>
<time>2022-05-26T10:56:52Z</time>
</trkpt>
<trkpt lat="48.028946" lon="11.254713">
<ele>608.314</ele>
<time>2022-05-26T10:56:53Z</time>
</trkpt>
<trkpt lat="48.028976" lon="11.25482">
<ele>607.756</ele>
<time>2022-05-26T10:56:54Z</time>
</trkpt>
<trkpt lat="48.029007" lon="11.25493">
<ele>607.438</ele>
<time>2022-05-26T10:56:55Z</time>
</trkpt>
<trkpt lat="48.029041" lon="11.255049">
<ele>606.873</ele>
<time>2022-05-26T10:56:56Z</time>
</trkpt>
<trkpt lat="48.029072" lon="11.255174">
<ele>606.473</ele>
<time>2022-05-26T10:56:57Z</time>
</trkpt>
<trkpt lat="48.029102" lon="11.255304">
<ele>605.788</ele>
<time>2022-05-26T10:56:58Z</time>
</trkpt>
<trkpt lat="48.029137" lon="11.25544">
<ele>605.351</ele>
<time>2022-05-26T10:56:59Z</time>
</trkpt>
<trkpt lat="48.029171" lon="11.25558">
<ele>604.742</ele>
<time>2022-05-26T10:57:00Z</time>
</trkpt>
<trkpt lat="48.029205" lon="11.255718">
<ele>603.915</ele>
<time>2022-05-26T10:57:01Z</time>
</trkpt>
<trkpt lat="48.02924" lon="11.255858">
<ele>603.293</ele>
<time>2022-05-26T10:57:02Z</time>
</trkpt>
<trkpt lat="48.029274" lon="11.255998">
<ele>602.909</ele>
<time>2022-05-26T10:57:03Z</time>
</trkpt>
<trkpt lat="48.029312" lon="11.256136">
<ele>602.338</ele>
<time>2022-05-26T10:57:04Z</time>
</trkpt>
<trkpt lat="48.029339" lon="11.256271">
<ele>601.914</ele>
<time>2022-05-26T10:57:05Z</time>
</trkpt>
<trkpt lat="48.029369" lon="11.256405">
<ele>601.622</ele>
<time>2022-05-26T10:57:06Z</time>
</trkpt>
<trkpt lat="48.029392" lon="11.256536">
<ele>601.447</ele>
<time>2022-05-26T10:57:07Z</time>
</trkpt>
<trkpt lat="48.029411" lon="11.25666">
<ele>601.314</ele>
<time>2022-05-26T10:57:08Z</time>
</trkpt>
<trkpt lat="48.02943" lon="11.256782">
<ele>601.241</ele>
<time>2022-05-26T10:57:09Z</time>
</trkpt>
<trkpt lat="48.029446" lon="11.2569">
<ele>601.194</ele>
<time>2022-05-26T10:57:10Z</time>
</trkpt>
<trkpt lat="48.029461" lon="11.257011">
<ele>601.17</ele>
<time>2022-05-26T10:57:11Z</time>
</trkpt>
<trkpt lat="48.029469" lon="11.25712">
<ele>601.398</ele>
<time>2022-05-26T10:57:12Z</time>
</trkpt>
<trkpt lat="48.029476" lon="11.25723">
<ele>601.58</ele>
<time>2022-05-26T10:57:13Z</time>
</trkpt>
<trkpt lat="48.029476" lon="11.257339">
<ele>601.724</ele>
<time>2022-05-26T10:57:14Z</time>
</trkpt>
<trkpt lat="48.029472" lon="11.257448">
<ele>601.833</ele>
<time>2022-05-26T10:57:15Z</time>
</trkpt>
<trkpt lat="48.029472" lon="11.257558">
<ele>601.911</ele>
<time>2022-05-26T10:57:16Z</time>
</trkpt>
<trkpt lat="48.029469" lon="11.257668">
<ele>601.969</ele>
<time>2022-05-26T10:57:17Z</time>
</trkpt>
<trkpt lat="48.029465" lon="11.25778">
<ele>602.022</ele>
<time>2022-05-26T10:57:18Z</time>
</trkpt>
<trkpt lat="48.029453" lon="11.257892">
<ele>602.047</ele>
<time>2022-05-26T10:57:19Z</time>
</trkpt>
<trkpt lat="48.029442" lon="11.258005">
<ele>602.047</ele>
<time>2022-05-26T10:57:20Z</time>
</trkpt>
<trkpt lat="48.029427" lon="11.25812">
<ele>602.047</ele>
<time>2022-05-26T10:57:21Z</time>
</trkpt>
<trkpt lat="48.029408" lon="11.258235">
<ele>602.047</ele>
<time>2022-05-26T10:57:22Z</time>
</trkpt>
<trkpt lat="48.029392" lon="11.258353">
<ele>602.047</ele>
<time>2022-05-26T10:57:23Z</time>
</trkpt>
<trkpt lat="48.029366" lon="11.258473">
<ele>601.838</ele>
<time>2022-05-26T10:57:24Z</time>
</trkpt>
<trkpt lat="48.029339" lon="11.258594">
<ele>601.358</ele>
<time>2022-05-26T10:57:25Z</time>
</trkpt>
<trkpt lat="48.029305" lon="11.258715">
<ele>600.986</ele>
<time>2022-05-26T10:57:26Z</time>
</trkpt>
<trkpt lat="48.02927" lon="11.258835">
<ele>600.732</ele>
<time>2022-05-26T10:57:27Z</time>
</trkpt>
<trkpt lat="48.029228" lon="11.258953">
<ele>600.479</ele>
<time>2022-05-26T10:57:28Z</time>
</trkpt>
<trkpt lat="48.029182" lon="11.259068">
<ele>600.035</ele>
<time>2022-05-26T10:57:29Z</time>
</trkpt>
<trkpt lat="48.02914" lon="11.259182">
<ele>599.699</ele>
<time>2022-05-26T10:57:30Z</time>
</trkpt>
<trkpt lat="48.029099" lon="11.259294">
<ele>599.46</ele>
<time>2022-05-26T10:57:31Z</time>
</trkpt>
<trkpt lat="48.029049" lon="11.259398">
<ele>599.305</ele>
<time>2022-05-26T10:57:32Z</time>
</trkpt>
<trkpt lat="48.029007" lon="11.259501">
<ele>599.142</ele>
<time>2022-05-26T10:57:33Z</time>
</trkpt>
<trkpt lat="48.028961" lon="11.259593">
<ele>599.091</ele>
<time>2022-05-26T10:57:34Z</time>
</trkpt>
<trkpt lat="48.028915" lon="11.259679">
<ele>599.07</ele>
<time>2022-05-26T10:57:35Z</time>
</trkpt>
<trkpt lat="48.028881" lon="11.259753">
<ele>598.845</ele>
<time>2022-05-26T10:57:36Z</time>
</trkpt>
<trkpt lat="48.028839" lon="11.259825">
<ele>598.679</ele>
<time>2022-05-26T10:57:37Z</time>
</trkpt>
<trkpt lat="48.028801" lon="11.259892">
<ele>598.515</ele>
<time>2022-05-26T10:57:38Z</time>
</trkpt>
<trkpt lat="48.028763" lon="11.259957">
<ele>598.379</ele>
<time>2022-05-26T10:57:39Z</time>
</trkpt>
<trkpt lat="48.028725" lon="11.260022">
<ele>598.27</ele>
<time>2022-05-26T10:57:40Z</time>
</trkpt>
<trkpt lat="48.02869" lon="11.260077">
<ele>598.188</ele>
<time>2022-05-26T10:57:41Z</time>
</trkpt>
<trkpt lat="48.028656" lon="11.260121">
<ele>598.131</ele>
<time>2022-05-26T10:57:42Z</time>
</trkpt>
<trkpt lat="48.028625" lon="11.26016">
<ele>598.103</ele>
<time>2022-05-26T10:57:43Z</time>
</trkpt>
<trkpt lat="48.028599" lon="11.260194">
<ele>598.103</ele>
<time>2022-05-26T10:57:44Z</time>
</trkpt>
<trkpt lat="48.02858" lon="11.260221">
<ele>598.103</ele>
<time>2022-05-26T10:57:45Z</time>
</trkpt>
<trkpt lat="48.028557" lon="11.260243">
<ele>598.103</ele>
<time>2022-05-26T10:57:46Z</time>
</trkpt>
<trkpt lat="48.028545" lon="11.260265">
<ele>598.103</ele>
<time>2022-05-26T10:57:47Z</time>
</trkpt>
<trkpt lat="48.028534" lon="11.260284">
<ele>598.103</ele>
<time>2022-05-26T10:57:48Z</time>
</trkpt>
<trkpt lat="48.028534" lon="11.260308">
<ele>598.103</ele>
<time>2022-05-26T10:57:49Z</time>
</trkpt>
<trkpt lat="48.028542" lon="11.260324">
<ele>598.103</ele>
<time>2022-05-26T10:57:50Z</time>
</trkpt>
<trkpt lat="48.028557" lon="11.260322">
<ele>598.103</ele>
<time>2022-05-26T10:57:51Z</time>
</trkpt>
<trkpt lat="48.028568" lon="11.260308">
<ele>598.103</ele>
<time>2022-05-26T10:57:52Z</time>
</trkpt>
<trkpt lat="48.028587" lon="11.260288">
<ele>598.103</ele>
<time>2022-05-26T10:57:53Z</time>
</trkpt>
<trkpt lat="48.028599" lon="11.260263">
<ele>598.103</ele>
<time>2022-05-26T10:57:54Z</time>
</trkpt>
<trkpt lat="48.028622" lon="11.260234">
<ele>598.103</ele>
<time>2022-05-26T10:57:55Z</time>
</trkpt>
<trkpt lat="48.028637" lon="11.260197">
<ele>598.103</ele>
<time>2022-05-26T10:57:56Z</time>
</trkpt>
<trkpt lat="48.02866" lon="11.260157">
<ele>598.103</ele>
<time>2022-05-26T10:57:57Z</time>
</trkpt>
<trkpt lat="48.028683" lon="11.260115">
<ele>598.103</ele>
<time>2022-05-26T10:57:58Z</time>
</trkpt>
<trkpt lat="48.028709" lon="11.260075">
<ele>598.103</ele>
<time>2022-05-26T10:57:59Z</time>
</trkpt>
<trkpt lat="48.028744" lon="11.26003">
<ele>598.103</ele>
<time>2022-05-26T10:58:00Z</time>
</trkpt>
<trkpt lat="48.028774" lon="11.259982">
<ele>598.103</ele>
<time>2022-05-26T10:58:01Z</time>
</trkpt>
<trkpt lat="48.028809" lon="11.25993">
<ele>598.103</ele>
<time>2022-05-26T10:58:02Z</time>
</trkpt>
<trkpt lat="48.028835" lon="11.259873">
<ele>598.103</ele>
<time>2022-05-26T10:58:03Z</time>
</trkpt>
<trkpt lat="48.02887" lon="11.259813">
<ele>598.103</ele>
<time>2022-05-26T10:58:04Z</time>
</trkpt>
<trkpt lat="48.028904" lon="11.259753">
<ele>598.103</ele>
<time>2022-05-26T10:58:05Z</time>
</trkpt>
<trkpt lat="48.028938" lon="11.259689">
<ele>598.103</ele>
<time>2022-05-26T10:58:06Z</time>
</trkpt>
<trkpt lat="48.028976" lon="11.259624">
<ele>598.103</ele>
<time>2022-05-26T10:58:07Z</time>
</trkpt>
<trkpt lat="48.029011" lon="11.259555">
<ele>598.103</ele>
<time>2022-05-26T10:58:08Z</time>
</trkpt>
<trkpt lat="48.029045" lon="11.259486">
<ele>598.103</ele>
<time>2022-05-26T10:58:09Z</time>
</trkpt>
<trkpt lat="48.029076" lon="11.259415">
<ele>598.103</ele>
<time>2022-05-26T10:58:10Z</time>
</trkpt>
<trkpt lat="48.029106" lon="11.259345">
<ele>598.103</ele>
<time>2022-05-26T10:58:11Z</time>
</trkpt>
<trkpt lat="48.029133" lon="11.259276">
<ele>598.103</ele>
<time>2022-05-26T10:58:12Z</time>
</trkpt>
<trkpt lat="48.02916" lon="11.25921">
<ele>598.103</ele>
<time>2022-05-26T10:58:13Z</time>
</trkpt>
<trkpt lat="48.029182" lon="11.259145">
<ele>598.103</ele>
<time>2022-05-26T10:58:14Z</time>
</trkpt>
<trkpt lat="48.029205" lon="11.259084">
<ele>598.103</ele>
<time>2022-05-26T10:58:15Z</time>
</trkpt>
<trkpt lat="48.029228" lon="11.259025">
<ele>598.103</ele>
<time>2022-05-26T10:58:16Z</time>
</trkpt>
<trkpt lat="48.029243" lon="11.258973">
<ele>598.103</ele>
<time>2022-05-26T10:58:17Z</time>
</trkpt>
<trkpt lat="48.029263" lon="11.25893">
<ele>598.103</ele>
<time>2022-05-26T10:58:18Z</time>
</trkpt>
<trkpt lat="48.029274" lon="11.258899">
<ele>598.103</ele>
<time>2022-05-26T10:58:19Z</time>
</trkpt>
<trkpt lat="48.029297" lon="11.258877">
<ele>598.103</ele>
<time>2022-05-26T10:58:20Z</time>
</trkpt>
<trkpt lat="48.029316" lon="11.25887">
<ele>598.103</ele>
<time>2022-05-26T10:58:21Z</time>
</trkpt>
<trkpt lat="48.029343" lon="11.258875">
<ele>598.103</ele>
<time>2022-05-26T10:58:22Z</time>
</trkpt>
<trkpt lat="48.029369" lon="11.258902">
<ele>598.103</ele>
<time>2022-05-26T10:58:23Z</time>
</trkpt>
<trkpt lat="48.029388" lon="11.258945">
<ele>598.103</ele>
<time>2022-05-26T10:58:24Z</time>
</trkpt>
<trkpt lat="48.029392" lon="11.258995">
<ele>598.103</ele>
<time>2022-05-26T10:58:25Z</time>
</trkpt>
<trkpt lat="48.0294" lon="11.25905">
<ele>598.323</ele>
<time>2022-05-26T10:58:27Z</time>
</trkpt>
<trkpt lat="48.029404" lon="11.25916">
<ele>598.624</ele>
<time>2022-05-26T10:58:28Z</time>
</trkpt>
<trkpt lat="48.029404" lon="11.259217">
<ele>598.452</ele>
<time>2022-05-26T10:58:29Z</time>
</trkpt>
<trkpt lat="48.029404" lon="11.259272">
<ele>598.694</ele>
<time>2022-05-26T10:58:30Z</time>
</trkpt>
<trkpt lat="48.029404" lon="11.259325">
<ele>598.639</ele>
<time>2022-05-26T10:58:31Z</time>
</trkpt>
<trkpt lat="48.0294" lon="11.259378">
<ele>598.727</ele>
<time>2022-05-26T10:58:32Z</time>
</trkpt>
<trkpt lat="48.029396" lon="11.25943">
<ele>598.638</ele>
<time>2022-05-26T10:58:33Z</time>
</trkpt>
<trkpt lat="48.029392" lon="11.259481">
<ele>599.178</ele>
<time>2022-05-26T10:58:34Z</time>
</trkpt>
<trkpt lat="48.029388" lon="11.259532">
<ele>598.896</ele>
<time>2022-05-26T10:58:35Z</time>
</trkpt>
<trkpt lat="48.029388" lon="11.25958">
<ele>598.955</ele>
<time>2022-05-26T10:58:36Z</time>
</trkpt>
<trkpt lat="48.029388" lon="11.259632">
<ele>598.922</ele>
<time>2022-05-26T10:58:37Z</time>
</trkpt>
<trkpt lat="48.029388" lon="11.259686">
<ele>598.75</ele>
<time>2022-05-26T10:58:38Z</time>
</trkpt>
<trkpt lat="48.029385" lon="11.259744">
<ele>599.035</ele>
<time>2022-05-26T10:58:39Z</time>
</trkpt>
<trkpt lat="48.029385" lon="11.259802">
<ele>597.355</ele>
<time>2022-05-26T10:58:40Z</time>
</trkpt>
<trkpt lat="48.029385" lon="11.259858">
<ele>598.62</ele>
<time>2022-05-26T10:58:41Z</time>
</trkpt>
<trkpt lat="48.029385" lon="11.259913">
<ele>599.734</ele>
<time>2022-05-26T10:58:42Z</time>
</trkpt>
<trkpt lat="48.029388" lon="11.25997">
<ele>599.682</ele>
<time>2022-05-26T10:58:43Z</time>
</trkpt>
<trkpt lat="48.029388" lon="11.260029">
<ele>599.37</ele>
<time>2022-05-26T10:58:44Z</time>
</trkpt>
<trkpt lat="48.029388" lon="11.260085">
<ele>599.122</ele>
<time>2022-05-26T10:58:45Z</time>
</trkpt>
<trkpt lat="48.029388" lon="11.260141">
<ele>598.931</ele>
<time>2022-05-26T10:58:46Z</time>
</trkpt>
<trkpt lat="48.029385" lon="11.260201">
<ele>598.602</ele>
<time>2022-05-26T10:58:47Z</time>
</trkpt>
<trkpt lat="48.029388" lon="11.260259">
<ele>598.099</ele>
<time>2022-05-26T10:58:48Z</time>
</trkpt>
<trkpt lat="48.029392" lon="11.260311">
<ele>597.796</ele>
<time>2022-05-26T10:58:49Z</time>
</trkpt>
<trkpt lat="48.029392" lon="11.260357">
<ele>597.627</ele>
<time>2022-05-26T10:58:50Z</time>
</trkpt>
<trkpt lat="48.029392" lon="11.260388">
<ele>597.457</ele>
<time>2022-05-26T10:58:51Z</time>
</trkpt>
<trkpt lat="48.029392" lon="11.2604">
<ele>597.309</ele>
<time>2022-05-26T10:58:52Z</time>
</trkpt>
<trkpt lat="48.029392" lon="11.260404">
<ele>597.139</ele>
<time>2022-05-26T10:58:53Z</time>
</trkpt>
<trkpt lat="48.029392" lon="11.260402">
<ele>597.223</ele>
<time>2022-05-26T10:58:55Z</time>
</trkpt>
<trkpt lat="48.0294" lon="11.260425">
<ele>597.226</ele>
<time>2022-05-26T10:59:26Z</time>
</trkpt>
<trkpt lat="48.029408" lon="11.260444">
<ele>597.267</ele>
<time>2022-05-26T10:59:27Z</time>
</trkpt>
<trkpt lat="48.029415" lon="11.26047">
<ele>597.316</ele>
<time>2022-05-26T10:59:28Z</time>
</trkpt>
<trkpt lat="48.029419" lon="11.260498">
<ele>597.363</ele>
<time>2022-05-26T10:59:29Z</time>
</trkpt>
<trkpt lat="48.029427" lon="11.260533">
<ele>597.397</ele>
<time>2022-05-26T10:59:30Z</time>
</trkpt>
<trkpt lat="48.02943" lon="11.260571">
<ele>597.404</ele>
<time>2022-05-26T10:59:31Z</time>
</trkpt>
<trkpt lat="48.029434" lon="11.26062">
<ele>597.404</ele>
<time>2022-05-26T10:59:32Z</time>
</trkpt>
<trkpt lat="48.029446" lon="11.260675">
<ele>597.403</ele>
<time>2022-05-26T10:59:33Z</time>
</trkpt>
<trkpt lat="48.029457" lon="11.26074">
<ele>597.402</ele>
<time>2022-05-26T10:59:34Z</time>
</trkpt>
<trkpt lat="48.029469" lon="11.260808">
<ele>597.402</ele>
<time>2022-05-26T10:59:35Z</time>
</trkpt>
<trkpt lat="48.029488" lon="11.260885">
<ele>597.402</ele>
<time>2022-05-26T10:59:36Z</time>
</trkpt>
<trkpt lat="48.029507" lon="11.260967">
<ele>597.402</ele>
<time>2022-05-26T10:59:37Z</time>
</trkpt>
<trkpt lat="48.02953" lon="11.261051">
<ele>597.402</ele>
<time>2022-05-26T10:59:38Z</time>
</trkpt>
<trkpt lat="48.029545" lon="11.261139">
<ele>597.402</ele>
<time>2022-05-26T10:59:39Z</time>
</trkpt>
<trkpt lat="48.029564" lon="11.261225">
<ele>597.402</ele>
<time>2022-05-26T10:59:40Z</time>
</trkpt>
<trkpt lat="48.029579" lon="11.261307">
<ele>597.402</ele>
<time>2022-05-26T10:59:41Z</time>
</trkpt>
<trkpt lat="48.029598" lon="11.261395">
<ele>597.402</ele>
<time>2022-05-26T10:59:42Z</time>
</trkpt>
<trkpt lat="48.02961" lon="11.261485">
<ele>597.402</ele>
<time>2022-05-26T10:59:43Z</time>
</trkpt>
<trkpt lat="48.029629" lon="11.26158">
<ele>597.402</ele>
<time>2022-05-26T10:59:44Z</time>
</trkpt>
<trkpt lat="48.029644" lon="11.26168">
<ele>597.402</ele>
<time>2022-05-26T10:59:45Z</time>
</trkpt>
<trkpt lat="48.029655" lon="11.261782">
<ele>597.402</ele>
<time>2022-05-26T10:59:46Z</time>
</trkpt>
<trkpt lat="48.029671" lon="11.261889">
<ele>597.402</ele>
<time>2022-05-26T10:59:47Z</time>
</trkpt>
<trkpt lat="48.029682" lon="11.261996">
<ele>597.402</ele>
<time>2022-05-26T10:59:48Z</time>
</trkpt>
<trkpt lat="48.029694" lon="11.262107">
<ele>597.402</ele>
<time>2022-05-26T10:59:49Z</time>
</trkpt>
<trkpt lat="48.029697" lon="11.262218">
<ele>597.402</ele>
<time>2022-05-26T10:59:50Z</time>
</trkpt>
<trkpt lat="48.029701" lon="11.262333">
<ele>597.402</ele>
<time>2022-05-26T10:59:51Z</time>
</trkpt>
<trkpt lat="48.029701" lon="11.26245">
<ele>597.402</ele>
<time>2022-05-26T10:59:52Z</time>
</trkpt>
<trkpt lat="48.029705" lon="11.262568">
<ele>597.402</ele>
<time>2022-05-26T10:59:53Z</time>
</trkpt>
<trkpt lat="48.029705" lon="11.262687">
<ele>597.402</ele>
<time>2022-05-26T10:59:54Z</time>
</trkpt>
<trkpt lat="48.029705" lon="11.262807">
<ele>597.402</ele>
<time>2022-05-26T10:59:55Z</time>
</trkpt>
<trkpt lat="48.029705" lon="11.26293">
<ele>597.141</ele>
<time>2022-05-26T10:59:56Z</time>
</trkpt>
<trkpt lat="48.029705" lon="11.26305">
<ele>596.958</ele>
<time>2022-05-26T10:59:57Z</time>
</trkpt>
<trkpt lat="48.029709" lon="11.263171">
<ele>596.771</ele>
<time>2022-05-26T10:59:58Z</time>
</trkpt>
<trkpt lat="48.029716" lon="11.263295">
<ele>596.623</ele>
<time>2022-05-26T10:59:59Z</time>
</trkpt>
<trkpt lat="48.029728" lon="11.263422">
<ele>596.51</ele>
<time>2022-05-26T11:00:00Z</time>
</trkpt>
<trkpt lat="48.029732" lon="11.263546">
<ele>596.428</ele>
<time>2022-05-26T11:00:01Z</time>
</trkpt>
<trkpt lat="48.029743" lon="11.263672">
<ele>596.376</ele>
<time>2022-05-26T11:00:02Z</time>
</trkpt>
<trkpt lat="48.029755" lon="11.263798">
<ele>596.351</ele>
<time>2022-05-26T11:00:03Z</time>
</trkpt>
<trkpt lat="48.029766" lon="11.263926">
<ele>596.351</ele>
<time>2022-05-26T11:00:04Z</time>
</trkpt>
<trkpt lat="48.029781" lon="11.264051">
<ele>596.351</ele>
<time>2022-05-26T11:00:05Z</time>
</trkpt>
<trkpt lat="48.029793" lon="11.26418">
<ele>596.351</ele>
<time>2022-05-26T11:00:06Z</time>
</trkpt>
<trkpt lat="48.029808" lon="11.264307">
<ele>596.351</ele>
<time>2022-05-26T11:00:07Z</time>
</trkpt>
<trkpt lat="48.029827" lon="11.26443">
<ele>596.351</ele>
<time>2022-05-26T11:00:08Z</time>
</trkpt>
<trkpt lat="48.029842" lon="11.264554">
<ele>596.351</ele>
<time>2022-05-26T11:00:09Z</time>
</trkpt>
<trkpt lat="48.029858" lon="11.264677">
<ele>596.351</ele>
<time>2022-05-26T11:00:10Z</time>
</trkpt>
<trkpt lat="48.029865" lon="11.264798">
<ele>596.351</ele>
<time>2022-05-26T11:00:11Z</time>
</trkpt>
<trkpt lat="48.029869" lon="11.264916">
<ele>596.351</ele>
<time>2022-05-26T11:00:12Z</time>
</trkpt>
<trkpt lat="48.029865" lon="11.265028">
<ele>596.351</ele>
<time>2022-05-26T11:00:13Z</time>
</trkpt>
<trkpt lat="48.029861" lon="11.265137">
<ele>596.351</ele>
<time>2022-05-26T11:00:14Z</time>
</trkpt>
<trkpt lat="48.029858" lon="11.265247">
<ele>596.075</ele>
<time>2022-05-26T11:00:15Z</time>
</trkpt>
<trkpt lat="48.029854" lon="11.265362">
<ele>595.854</ele>
<time>2022-05-26T11:00:16Z</time>
</trkpt>
<trkpt lat="48.029846" lon="11.265476">
<ele>595.699</ele>
<time>2022-05-26T11:00:17Z</time>
</trkpt>
<trkpt lat="48.029842" lon="11.265594">
<ele>595.53</ele>
<time>2022-05-26T11:00:18Z</time>
</trkpt>
<trkpt lat="48.029839" lon="11.26571">
<ele>595.398</ele>
<time>2022-05-26T11:00:19Z</time>
</trkpt>
<trkpt lat="48.029839" lon="11.265823">
<ele>595.302</ele>
<time>2022-05-26T11:00:20Z</time>
</trkpt>
<trkpt lat="48.029846" lon="11.265933">
<ele>595.24</ele>
<time>2022-05-26T11:00:21Z</time>
</trkpt>
<trkpt lat="48.029858" lon="11.26604">
<ele>595.212</ele>
<time>2022-05-26T11:00:22Z</time>
</trkpt>
<trkpt lat="48.029877" lon="11.266142">
<ele>595.212</ele>
<time>2022-05-26T11:00:23Z</time>
</trkpt>
<trkpt lat="48.029892" lon="11.266238">
<ele>595.212</ele>
<time>2022-05-26T11:00:24Z</time>
</trkpt>
<trkpt lat="48.029915" lon="11.266333">
<ele>595.212</ele>
<time>2022-05-26T11:00:25Z</time>
</trkpt>
<trkpt lat="48.029934" lon="11.266425">
<ele>595.212</ele>
<time>2022-05-26T11:00:26Z</time>
</trkpt>
<trkpt lat="48.029949" lon="11.26652">
<ele>595.212</ele>
<time>2022-05-26T11:00:27Z</time>
</trkpt>
<trkpt lat="48.029964" lon="11.266615">
<ele>595.212</ele>
<time>2022-05-26T11:00:28Z</time>
</trkpt>
<trkpt lat="48.029984" lon="11.26671">
<ele>594.881</ele>
<time>2022-05-26T11:00:29Z</time>
</trkpt>
<trkpt lat="48.029999" lon="11.266812">
<ele>594.618</ele>
<time>2022-05-26T11:00:30Z</time>
</trkpt>
<trkpt lat="48.030014" lon="11.266912">
<ele>594.449</ele>
<time>2022-05-26T11:00:31Z</time>
</trkpt>
<trkpt lat="48.030022" lon="11.267014">
<ele>593.969</ele>
<time>2022-05-26T11:00:32Z</time>
</trkpt>
<trkpt lat="48.030022" lon="11.267112">
<ele>593.62</ele>
<time>2022-05-26T11:00:33Z</time>
</trkpt>
<trkpt lat="48.030022" lon="11.267204">
<ele>593.367</ele>
<time>2022-05-26T11:00:34Z</time>
</trkpt>
<trkpt lat="48.030018" lon="11.26729">
<ele>593.233</ele>
<time>2022-05-26T11:00:35Z</time>
</trkpt>
<trkpt lat="48.03001" lon="11.267374">
<ele>592.851</ele>
<time>2022-05-26T11:00:36Z</time>
</trkpt>
<trkpt lat="48.030003" lon="11.267451">
<ele>592.567</ele>
<time>2022-05-26T11:00:37Z</time>
</trkpt>
<trkpt lat="48.029991" lon="11.267523">
<ele>592.312</ele>
<time>2022-05-26T11:00:38Z</time>
</trkpt>
<trkpt lat="48.029987" lon="11.267595">
<ele>592.118</ele>
<time>2022-05-26T11:00:39Z</time>
</trkpt>
<trkpt lat="48.029976" lon="11.267667">
<ele>591.99</ele>
<time>2022-05-26T11:00:40Z</time>
</trkpt>
<trkpt lat="48.029968" lon="11.267736">
<ele>592.08</ele>
<time>2022-05-26T11:00:41Z</time>
</trkpt>
<trkpt lat="48.029957" lon="11.267805">
<ele>592.179</ele>
<time>2022-05-26T11:00:42Z</time>
</trkpt>
<trkpt lat="48.029953" lon="11.267868">
<ele>592.286</ele>
<time>2022-05-26T11:00:43Z</time>
</trkpt>
<trkpt lat="48.029945" lon="11.267927">
<ele>592.352</ele>
<time>2022-05-26T11:00:44Z</time>
</trkpt>
<trkpt lat="48.029942" lon="11.267988">
<ele>592.458</ele>
<time>2022-05-26T11:00:45Z</time>
</trkpt>
<trkpt lat="48.02993" lon="11.268044">
<ele>592.538</ele>
<time>2022-05-26T11:00:46Z</time>
</trkpt>
<trkpt lat="48.029926" lon="11.268099">
<ele>592.595</ele>
<time>2022-05-26T11:00:47Z</time>
</trkpt>
<trkpt lat="48.029915" lon="11.268151">
<ele>592.646</ele>
<time>2022-05-26T11:00:48Z</time>
</trkpt>
<trkpt lat="48.029907" lon="11.268204">
<ele>592.672</ele>
<time>2022-05-26T11:00:49Z</time>
</trkpt>
<trkpt lat="48.0299" lon="11.26826">
<ele>592.672</ele>
<time>2022-05-26T11:00:50Z</time>
</trkpt>
<trkpt lat="48.029896" lon="11.268318">
<ele>592.672</ele>
<time>2022-05-26T11:00:51Z</time>
</trkpt>
<trkpt lat="48.029892" lon="11.268377">
<ele>592.672</ele>
<time>2022-05-26T11:00:52Z</time>
</trkpt>
<trkpt lat="48.029892" lon="11.268435">
<ele>592.927</ele>
<time>2022-05-26T11:00:53Z</time>
</trkpt>
<trkpt lat="48.029884" lon="11.268492">
<ele>593.128</ele>
<time>2022-05-26T11:00:54Z</time>
</trkpt>
<trkpt lat="48.029877" lon="11.268547">
<ele>593.282</ele>
<time>2022-05-26T11:00:55Z</time>
</trkpt>
<trkpt lat="48.029869" lon="11.268598">
<ele>593.374</ele>
<time>2022-05-26T11:00:56Z</time>
</trkpt>
<trkpt lat="48.029865" lon="11.268652">
<ele>593.692</ele>
<time>2022-05-26T11:00:57Z</time>
</trkpt>
<trkpt lat="48.029858" lon="11.268706">
<ele>593.969</ele>
<time>2022-05-26T11:00:58Z</time>
</trkpt>
<trkpt lat="48.029858" lon="11.268764">
<ele>594.186</ele>
<time>2022-05-26T11:00:59Z</time>
</trkpt>
<trkpt lat="48.02985" lon="11.268817">
<ele>594.346</ele>
<time>2022-05-26T11:01:00Z</time>
</trkpt>
<trkpt lat="48.029846" lon="11.268871">
<ele>594.45</ele>
<time>2022-05-26T11:01:01Z</time>
</trkpt>
<trkpt lat="48.029842" lon="11.268925">
<ele>594.516</ele>
<time>2022-05-26T11:01:02Z</time>
</trkpt>
<trkpt lat="48.029835" lon="11.268974">
<ele>594.784</ele>
<time>2022-05-26T11:01:03Z</time>
</trkpt>
<trkpt lat="48.029831" lon="11.269023">
<ele>594.989</ele>
<time>2022-05-26T11:01:04Z</time>
</trkpt>
<trkpt lat="48.029831" lon="11.269073">
<ele>595.143</ele>
<time>2022-05-26T11:01:05Z</time>
</trkpt>
<trkpt lat="48.029831" lon="11.269123">
<ele>595.226</ele>
<time>2022-05-26T11:01:06Z</time>
</trkpt>
<trkpt lat="48.029831" lon="11.269174">
<ele>595.552</ele>
<time>2022-05-26T11:01:07Z</time>
</trkpt>
<trkpt lat="48.029835" lon="11.269223">
<ele>595.849</ele>
<time>2022-05-26T11:01:08Z</time>
</trkpt>
<trkpt lat="48.029835" lon="11.26927">
<ele>596.078</ele>
<time>2022-05-26T11:01:09Z</time>
</trkpt>
<trkpt lat="48.029839" lon="11.269319">
<ele>596.252</ele>
<time>2022-05-26T11:01:10Z</time>
</trkpt>
<trkpt lat="48.029846" lon="11.269366">
<ele>596.35</ele>
<time>2022-05-26T11:01:11Z</time>
</trkpt>
<trkpt lat="48.02985" lon="11.269413">
<ele>596.695</ele>
<time>2022-05-26T11:01:12Z</time>
</trkpt>
<trkpt lat="48.029858" lon="11.269457">
<ele>596.963</ele>
<time>2022-05-26T11:01:13Z</time>
</trkpt>
<trkpt lat="48.029861" lon="11.269502">
<ele>597.167</ele>
<time>2022-05-26T11:01:14Z</time>
</trkpt>
<trkpt lat="48.029869" lon="11.269548">
<ele>597.303</ele>
<time>2022-05-26T11:01:15Z</time>
</trkpt>
<trkpt lat="48.029877" lon="11.269595">
<ele>597.636</ele>
<time>2022-05-26T11:01:16Z</time>
</trkpt>
<trkpt lat="48.029881" lon="11.269643">
<ele>597.89</ele>
<time>2022-05-26T11:01:17Z</time>
</trkpt>
<trkpt lat="48.029888" lon="11.269689">
<ele>598.119</ele>
<time>2022-05-26T11:01:18Z</time>
</trkpt>
<trkpt lat="48.029892" lon="11.26974">
<ele>598.273</ele>
<time>2022-05-26T11:01:19Z</time>
</trkpt>
<trkpt lat="48.029896" lon="11.269792">
<ele>598.672</ele>
<time>2022-05-26T11:01:20Z</time>
</trkpt>
<trkpt lat="48.029903" lon="11.269842">
<ele>598.991</ele>
<time>2022-05-26T11:01:21Z</time>
</trkpt>
<trkpt lat="48.029907" lon="11.269894">
<ele>599.229</ele>
<time>2022-05-26T11:01:22Z</time>
</trkpt>
<trkpt lat="48.029915" lon="11.269943">
<ele>599.403</ele>
<time>2022-05-26T11:01:23Z</time>
</trkpt>
<trkpt lat="48.029926" lon="11.269995">
<ele>599.562</ele>
<time>2022-05-26T11:01:24Z</time>
</trkpt>
<trkpt lat="48.029926" lon="11.270043">
<ele>599.61</ele>
<time>2022-05-26T11:01:25Z</time>
</trkpt>
<trkpt lat="48.029934" lon="11.270095">
<ele>599.889</ele>
<time>2022-05-26T11:01:26Z</time>
</trkpt>
<trkpt lat="48.029938" lon="11.270145">
<ele>600.081</ele>
<time>2022-05-26T11:01:27Z</time>
</trkpt>
<trkpt lat="48.029942" lon="11.270198">
<ele>600.253</ele>
<time>2022-05-26T11:01:28Z</time>
</trkpt>
<trkpt lat="48.029945" lon="11.270252">
<ele>600.391</ele>
<time>2022-05-26T11:01:29Z</time>
</trkpt>
<trkpt lat="48.029949" lon="11.270308">
<ele>600.496</ele>
<time>2022-05-26T11:01:30Z</time>
</trkpt>
<trkpt lat="48.029953" lon="11.270371">
<ele>600.573</ele>
<time>2022-05-26T11:01:31Z</time>
</trkpt>
<trkpt lat="48.029957" lon="11.270431">
<ele>600.621</ele>
<time>2022-05-26T11:01:32Z</time>
</trkpt>
<trkpt lat="48.029957" lon="11.270489">
<ele>600.644</ele>
<time>2022-05-26T11:01:33Z</time>
</trkpt>
<trkpt lat="48.029961" lon="11.270545">
<ele>600.644</ele>
<time>2022-05-26T11:01:34Z</time>
</trkpt>
<trkpt lat="48.029968" lon="11.2706">
<ele>600.866</ele>
<time>2022-05-26T11:01:35Z</time>
</trkpt>
<trkpt lat="48.029972" lon="11.27066">
<ele>601.04</ele>
<time>2022-05-26T11:01:36Z</time>
</trkpt>
<trkpt lat="48.029987" lon="11.270717">
<ele>601.157</ele>
<time>2022-05-26T11:01:37Z</time>
</trkpt>
<trkpt lat="48.029995" lon="11.270775">
<ele>601.282</ele>
<time>2022-05-26T11:01:38Z</time>
</trkpt>
<trkpt lat="48.029999" lon="11.270835">
<ele>601.379</ele>
<time>2022-05-26T11:01:39Z</time>
</trkpt>
<trkpt lat="48.030003" lon="11.270895">
<ele>601.448</ele>
<time>2022-05-26T11:01:40Z</time>
</trkpt>
<trkpt lat="48.030003" lon="11.270957">
<ele>601.778</ele>
<time>2022-05-26T11:01:41Z</time>
</trkpt>
<trkpt lat="48.030006" lon="11.271017">
<ele>602.037</ele>
<time>2022-05-26T11:01:42Z</time>
</trkpt>
<trkpt lat="48.03001" lon="11.271075">
<ele>602.285</ele>
<time>2022-05-26T11:01:43Z</time>
</trkpt>
<trkpt lat="48.030018" lon="11.271134">
<ele>602.421</ele>
<time>2022-05-26T11:01:44Z</time>
</trkpt>
<trkpt lat="48.030022" lon="11.271194">
<ele>602.513</ele>
<time>2022-05-26T11:01:45Z</time>
</trkpt>
<trkpt lat="48.030022" lon="11.271256">
<ele>602.58</ele>
<time>2022-05-26T11:01:46Z</time>
</trkpt>
<trkpt lat="48.030022" lon="11.27132">
<ele>602.629</ele>
<time>2022-05-26T11:01:47Z</time>
</trkpt>
<trkpt lat="48.030029" lon="11.271383">
<ele>602.661</ele>
<time>2022-05-26T11:01:48Z</time>
</trkpt>
<trkpt lat="48.030033" lon="11.271448">
<ele>602.661</ele>
<time>2022-05-26T11:01:49Z</time>
</trkpt>
<trkpt lat="48.030041" lon="11.271516">
<ele>602.661</ele>
<time>2022-05-26T11:01:50Z</time>
</trkpt>
<trkpt lat="48.030045" lon="11.271582">
<ele>602.661</ele>
<time>2022-05-26T11:01:51Z</time>
</trkpt>
<trkpt lat="48.030052" lon="11.271652">
<ele>602.661</ele>
<time>2022-05-26T11:01:52Z</time>
</trkpt>
<trkpt lat="48.030056" lon="11.271722">
<ele>602.661</ele>
<time>2022-05-26T11:01:53Z</time>
</trkpt>
<trkpt lat="48.030064" lon="11.271784">
<ele>602.661</ele>
<time>2022-05-26T11:01:54Z</time>
</trkpt>
<trkpt lat="48.030071" lon="11.271845">
<ele>602.661</ele>
<time>2022-05-26T11:01:55Z</time>
</trkpt>
<trkpt lat="48.030083" lon="11.271907">
<ele>602.661</ele>
<time>2022-05-26T11:01:56Z</time>
</trkpt>
<trkpt lat="48.030087" lon="11.27197">
<ele>602.661</ele>
<time>2022-05-26T11:01:57Z</time>
</trkpt>
<trkpt lat="48.030102" lon="11.272038">
<ele>602.661</ele>
<time>2022-05-26T11:01:58Z</time>
</trkpt>
<trkpt lat="48.030113" lon="11.272105">
<ele>602.661</ele>
<time>2022-05-26T11:01:59Z</time>
</trkpt>
<trkpt lat="48.030121" lon="11.272174">
<ele>602.661</ele>
<time>2022-05-26T11:02:00Z</time>
</trkpt>
<trkpt lat="48.030132" lon="11.272242">
<ele>602.661</ele>
<time>2022-05-26T11:02:01Z</time>
</trkpt>
<trkpt lat="48.030144" lon="11.272314">
<ele>602.661</ele>
<time>2022-05-26T11:02:02Z</time>
</trkpt>
<trkpt lat="48.030151" lon="11.272388">
<ele>602.661</ele>
<time>2022-05-26T11:02:03Z</time>
</trkpt>
<trkpt lat="48.030159" lon="11.272463">
<ele>602.661</ele>
<time>2022-05-26T11:02:04Z</time>
</trkpt>
<trkpt lat="48.030174" lon="11.272542">
<ele>602.661</ele>
<time>2022-05-26T11:02:05Z</time>
</trkpt>
<trkpt lat="48.030186" lon="11.27262">
<ele>602.44</ele>
<time>2022-05-26T11:02:06Z</time>
</trkpt>
<trkpt lat="48.030201" lon="11.272701">
<ele>602.287</ele>
<time>2022-05-26T11:02:07Z</time>
</trkpt>
<trkpt lat="48.030212" lon="11.272785">
<ele>602.128</ele>
<time>2022-05-26T11:02:08Z</time>
</trkpt>
<trkpt lat="48.030224" lon="11.272872">
<ele>602.004</ele>
<time>2022-05-26T11:02:09Z</time>
</trkpt>
<trkpt lat="48.030235" lon="11.272957">
<ele>601.912</ele>
<time>2022-05-26T11:02:10Z</time>
</trkpt>
<trkpt lat="48.030251" lon="11.27304">
<ele>601.853</ele>
<time>2022-05-26T11:02:11Z</time>
</trkpt>
<trkpt lat="48.030266" lon="11.273127">
<ele>601.565</ele>
<time>2022-05-26T11:02:12Z</time>
</trkpt>
<trkpt lat="48.030281" lon="11.273215">
<ele>601.345</ele>
<time>2022-05-26T11:02:13Z</time>
</trkpt>
<trkpt lat="48.030296" lon="11.273305">
<ele>601.152</ele>
<time>2022-05-26T11:02:14Z</time>
</trkpt>
<trkpt lat="48.030312" lon="11.273396">
<ele>601.065</ele>
<time>2022-05-26T11:02:15Z</time>
</trkpt>
<trkpt lat="48.030327" lon="11.273487">
<ele>600.735</ele>
<time>2022-05-26T11:02:16Z</time>
</trkpt>
<trkpt lat="48.030342" lon="11.273577">
<ele>600.493</ele>
<time>2022-05-26T11:02:17Z</time>
</trkpt>
<trkpt lat="48.030361" lon="11.273665">
<ele>600.266</ele>
<time>2022-05-26T11:02:18Z</time>
</trkpt>
<trkpt lat="48.030376" lon="11.273755">
<ele>600.104</ele>
<time>2022-05-26T11:02:19Z</time>
</trkpt>
<trkpt lat="48.030392" lon="11.273848">
<ele>600.014</ele>
<time>2022-05-26T11:02:20Z</time>
</trkpt>
<trkpt lat="48.030411" lon="11.273944">
<ele>599.718</ele>
<time>2022-05-26T11:02:21Z</time>
</trkpt>
<trkpt lat="48.030415" lon="11.274038">
<ele>599.486</ele>
<time>2022-05-26T11:02:22Z</time>
</trkpt>
<trkpt lat="48.030434" lon="11.274135">
<ele>599.313</ele>
<time>2022-05-26T11:02:23Z</time>
</trkpt>
<trkpt lat="48.030445" lon="11.274227">
<ele>599.164</ele>
<time>2022-05-26T11:02:24Z</time>
</trkpt>
<trkpt lat="48.03046" lon="11.274322">
<ele>599.089</ele>
<time>2022-05-26T11:02:25Z</time>
</trkpt>
<trkpt lat="48.030472" lon="11.274415">
<ele>599.05</ele>
<time>2022-05-26T11:02:26Z</time>
</trkpt>
<trkpt lat="48.030483" lon="11.274511">
<ele>598.769</ele>
<time>2022-05-26T11:02:27Z</time>
</trkpt>
<trkpt lat="48.030495" lon="11.274609">
<ele>598.525</ele>
<time>2022-05-26T11:02:28Z</time>
</trkpt>
<trkpt lat="48.030506" lon="11.274705">
<ele>598.343</ele>
<time>2022-05-26T11:02:29Z</time>
</trkpt>
<trkpt lat="48.030514" lon="11.274801">
<ele>598.197</ele>
<time>2022-05-26T11:02:30Z</time>
</trkpt>
<trkpt lat="48.030521" lon="11.274899">
<ele>598.103</ele>
<time>2022-05-26T11:02:31Z</time>
</trkpt>
<trkpt lat="48.030533" lon="11.274996">
<ele>597.69</ele>
<time>2022-05-26T11:02:32Z</time>
</trkpt>
<trkpt lat="48.030533" lon="11.275086">
<ele>597.367</ele>
<time>2022-05-26T11:02:33Z</time>
</trkpt>
<trkpt lat="48.030533" lon="11.275176">
<ele>597.12</ele>
<time>2022-05-26T11:02:34Z</time>
</trkpt>
<trkpt lat="48.030537" lon="11.275276">
<ele>596.924</ele>
<time>2022-05-26T11:02:35Z</time>
</trkpt>
<trkpt lat="48.03054" lon="11.275383">
<ele>596.835</ele>
<time>2022-05-26T11:02:36Z</time>
</trkpt>
<trkpt lat="48.030544" lon="11.275495">
<ele>596.529</ele>
<time>2022-05-26T11:02:37Z</time>
</trkpt>
<trkpt lat="48.030552" lon="11.27561">
<ele>596.264</ele>
<time>2022-05-26T11:02:38Z</time>
</trkpt>
<trkpt lat="48.030548" lon="11.275727">
<ele>596.094</ele>
<time>2022-05-26T11:02:39Z</time>
</trkpt>
<trkpt lat="48.030548" lon="11.275844">
<ele>595.715</ele>
<time>2022-05-26T11:02:40Z</time>
</trkpt>
<trkpt lat="48.030552" lon="11.275958">
<ele>595.411</ele>
<time>2022-05-26T11:02:41Z</time>
</trkpt>
<trkpt lat="48.030552" lon="11.276073">
<ele>595.186</ele>
<time>2022-05-26T11:02:42Z</time>
</trkpt>
<trkpt lat="48.030556" lon="11.276185">
<ele>595.025</ele>
<time>2022-05-26T11:02:43Z</time>
</trkpt>
<trkpt lat="48.03056" lon="11.276292">
<ele>594.911</ele>
<time>2022-05-26T11:02:44Z</time>
</trkpt>
<trkpt lat="48.03056" lon="11.276398">
<ele>594.821</ele>
<time>2022-05-26T11:02:45Z</time>
</trkpt>
<trkpt lat="48.030563" lon="11.2765">
<ele>594.797</ele>
<time>2022-05-26T11:02:46Z</time>
</trkpt>
<trkpt lat="48.030563" lon="11.276595">
<ele>594.774</ele>
<time>2022-05-26T11:02:47Z</time>
</trkpt>
<trkpt lat="48.030567" lon="11.276689">
<ele>594.774</ele>
<time>2022-05-26T11:02:48Z</time>
</trkpt>
<trkpt lat="48.030567" lon="11.276781">
<ele>594.774</ele>
<time>2022-05-26T11:02:49Z</time>
</trkpt>
<trkpt lat="48.030567" lon="11.276874">
<ele>594.774</ele>
<time>2022-05-26T11:02:50Z</time>
</trkpt>
<trkpt lat="48.030567" lon="11.276961">
<ele>594.774</ele>
<time>2022-05-26T11:02:51Z</time>
</trkpt>
<trkpt lat="48.030567" lon="11.277047">
<ele>594.774</ele>
<time>2022-05-26T11:02:52Z</time>
</trkpt>
<trkpt lat="48.030567" lon="11.277131">
<ele>594.774</ele>
<time>2022-05-26T11:02:53Z</time>
</trkpt>
<trkpt lat="48.030571" lon="11.277215">
<ele>594.774</ele>
<time>2022-05-26T11:02:54Z</time>
</trkpt>
<trkpt lat="48.030571" lon="11.277298">
<ele>594.774</ele>
<time>2022-05-26T11:02:55Z</time>
</trkpt>
<trkpt lat="48.030571" lon="11.277378">
<ele>594.774</ele>
<time>2022-05-26T11:02:56Z</time>
</trkpt>
<trkpt lat="48.030571" lon="11.277457">
<ele>594.774</ele>
<time>2022-05-26T11:02:57Z</time>
</trkpt>
<trkpt lat="48.030571" lon="11.277532">
<ele>594.774</ele>
<time>2022-05-26T11:02:58Z</time>
</trkpt>
<trkpt lat="48.030567" lon="11.277605">
<ele>594.774</ele>
<time>2022-05-26T11:02:59Z</time>
</trkpt>
<trkpt lat="48.030563" lon="11.277678">
<ele>594.774</ele>
<time>2022-05-26T11:03:00Z</time>
</trkpt>
<trkpt lat="48.030563" lon="11.277746">
<ele>594.774</ele>
<time>2022-05-26T11:03:01Z</time>
</trkpt>
<trkpt lat="48.030563" lon="11.277816">
<ele>594.774</ele>
<time>2022-05-26T11:03:02Z</time>
</trkpt>
<trkpt lat="48.030563" lon="11.277885">
<ele>594.774</ele>
<time>2022-05-26T11:03:03Z</time>
</trkpt>
<trkpt lat="48.030563" lon="11.277952">
<ele>594.774</ele>
<time>2022-05-26T11:03:04Z</time>
</trkpt>
<trkpt lat="48.030563" lon="11.278019">
<ele>594.774</ele>
<time>2022-05-26T11:03:05Z</time>
</trkpt>
<trkpt lat="48.030563" lon="11.278084">
<ele>594.774</ele>
<time>2022-05-26T11:03:06Z</time>
</trkpt>
<trkpt lat="48.030567" lon="11.278151">
<ele>594.774</ele>
<time>2022-05-26T11:03:07Z</time>
</trkpt>
<trkpt lat="48.030567" lon="11.278215">
<ele>594.774</ele>
<time>2022-05-26T11:03:08Z</time>
</trkpt>
<trkpt lat="48.030563" lon="11.278276">
<ele>594.774</ele>
<time>2022-05-26T11:03:09Z</time>
</trkpt>
<trkpt lat="48.03056" lon="11.278337">
<ele>594.774</ele>
<time>2022-05-26T11:03:10Z</time>
</trkpt>
<trkpt lat="48.030552" lon="11.278392">
<ele>594.774</ele>
<time>2022-05-26T11:03:11Z</time>
</trkpt>
<trkpt lat="48.030537" lon="11.278444">
<ele>594.774</ele>
<time>2022-05-26T11:03:12Z</time>
</trkpt>
<trkpt lat="48.03051" lon="11.278476">
<ele>594.774</ele>
<time>2022-05-26T11:03:13Z</time>
</trkpt>
<trkpt lat="48.030476" lon="11.27849">
<ele>594.774</ele>
<time>2022-05-26T11:03:14Z</time>
</trkpt>
<trkpt lat="48.030437" lon="11.27849">
<ele>594.774</ele>
<time>2022-05-26T11:03:15Z</time>
</trkpt>
<trkpt lat="48.030403" lon="11.278488">
<ele>594.774</ele>
<time>2022-05-26T11:03:16Z</time>
</trkpt>
<trkpt lat="48.030369" lon="11.278493">
<ele>594.774</ele>
<time>2022-05-26T11:03:17Z</time>
</trkpt>
<trkpt lat="48.030334" lon="11.278502">
<ele>594.774</ele>
<time>2022-05-26T11:03:18Z</time>
</trkpt>
<trkpt lat="48.0303" lon="11.278505">
<ele>594.774</ele>
<time>2022-05-26T11:03:19Z</time>
</trkpt>
<trkpt lat="48.03027" lon="11.278509">
<ele>595.046</ele>
<time>2022-05-26T11:03:20Z</time>
</trkpt>
<trkpt lat="48.030239" lon="11.278512">
<ele>595.262</ele>
<time>2022-05-26T11:03:21Z</time>
</trkpt>
<trkpt lat="48.030209" lon="11.278515">
<ele>595.419</ele>
<time>2022-05-26T11:03:22Z</time>
</trkpt>
<trkpt lat="48.030178" lon="11.27852">
<ele>595.54</ele>
<time>2022-05-26T11:03:23Z</time>
</trkpt>
<trkpt lat="48.030151" lon="11.278525">
<ele>595.627</ele>
<time>2022-05-26T11:03:24Z</time>
</trkpt>
<trkpt lat="48.030121" lon="11.278532">
<ele>595.687</ele>
<time>2022-05-26T11:03:25Z</time>
</trkpt>
<trkpt lat="48.030087" lon="11.278537">
<ele>595.714</ele>
<time>2022-05-26T11:03:26Z</time>
</trkpt>
<trkpt lat="48.03006" lon="11.278542">
<ele>595.738</ele>
<time>2022-05-26T11:03:27Z</time>
</trkpt>
<trkpt lat="48.030029" lon="11.278549">
<ele>595.738</ele>
<time>2022-05-26T11:03:28Z</time>
</trkpt>
<trkpt lat="48.029999" lon="11.27856">
<ele>595.738</ele>
<time>2022-05-26T11:03:29Z</time>
</trkpt>
<trkpt lat="48.029968" lon="11.278568">
<ele>595.738</ele>
<time>2022-05-26T11:03:30Z</time>
</trkpt>
<trkpt lat="48.029938" lon="11.278574">
<ele>595.738</ele>
<time>2022-05-26T11:03:31Z</time>
</trkpt>
<trkpt lat="48.029903" lon="11.278577">
<ele>595.738</ele>
<time>2022-05-26T11:03:32Z</time>
</trkpt>
<trkpt lat="48.029869" lon="11.278582">
<ele>595.738</ele>
<time>2022-05-26T11:03:33Z</time>
</trkpt>
<trkpt lat="48.029839" lon="11.278588">
<ele>595.738</ele>
<time>2022-05-26T11:03:34Z</time>
</trkpt>
<trkpt lat="48.029812" lon="11.278599">
<ele>595.738</ele>
<time>2022-05-26T11:03:35Z</time>
</trkpt>
<trkpt lat="48.029781" lon="11.278605">
<ele>595.738</ele>
<time>2022-05-26T11:03:36Z</time>
</trkpt>
<trkpt lat="48.029751" lon="11.278614">
<ele>595.738</ele>
<time>2022-05-26T11:03:37Z</time>
</trkpt>
<trkpt lat="48.029716" lon="11.278623">
<ele>595.738</ele>
<time>2022-05-26T11:03:38Z</time>
</trkpt>
<trkpt lat="48.029682" lon="11.278635">
<ele>595.737</ele>
<time>2022-05-26T11:03:39Z</time>
</trkpt>
<trkpt lat="48.029648" lon="11.278647">
<ele>595.738</ele>
<time>2022-05-26T11:03:40Z</time>
</trkpt>
<trkpt lat="48.029613" lon="11.278655">
<ele>595.738</ele>
<time>2022-05-26T11:03:41Z</time>
</trkpt>
<trkpt lat="48.029575" lon="11.278668">
<ele>595.738</ele>
<time>2022-05-26T11:03:42Z</time>
</trkpt>
<trkpt lat="48.029533" lon="11.278682">
<ele>595.738</ele>
<time>2022-05-26T11:03:43Z</time>
</trkpt>
<trkpt lat="48.029495" lon="11.278696">
<ele>595.738</ele>
<time>2022-05-26T11:03:44Z</time>
</trkpt>
<trkpt lat="48.029453" lon="11.278713">
<ele>595.738</ele>
<time>2022-05-26T11:03:45Z</time>
</trkpt>
<trkpt lat="48.029415" lon="11.278729">
<ele>595.738</ele>
<time>2022-05-26T11:03:46Z</time>
</trkpt>
<trkpt lat="48.029373" lon="11.27875">
<ele>595.738</ele>
<time>2022-05-26T11:03:47Z</time>
</trkpt>
<trkpt lat="48.029339" lon="11.278765">
<ele>595.738</ele>
<time>2022-05-26T11:03:48Z</time>
</trkpt>
<trkpt lat="48.029297" lon="11.278784">
<ele>595.738</ele>
<time>2022-05-26T11:03:49Z</time>
</trkpt>
<trkpt lat="48.029255" lon="11.278803">
<ele>595.994</ele>
<time>2022-05-26T11:03:50Z</time>
</trkpt>
<trkpt lat="48.029213" lon="11.278822">
<ele>596.19</ele>
<time>2022-05-26T11:03:51Z</time>
</trkpt>
<trkpt lat="48.029175" lon="11.27884">
<ele>596.34</ele>
<time>2022-05-26T11:03:52Z</time>
</trkpt>
<trkpt lat="48.029129" lon="11.278855">
<ele>596.449</ele>
<time>2022-05-26T11:03:53Z</time>
</trkpt>
<trkpt lat="48.029087" lon="11.27887">
<ele>596.527</ele>
<time>2022-05-26T11:03:54Z</time>
</trkpt>
<trkpt lat="48.029045" lon="11.278885">
<ele>596.573</ele>
<time>2022-05-26T11:03:55Z</time>
</trkpt>
<trkpt lat="48.028996" lon="11.278896">
<ele>596.595</ele>
<time>2022-05-26T11:03:56Z</time>
</trkpt>
<trkpt lat="48.028946" lon="11.27891">
<ele>596.614</ele>
<time>2022-05-26T11:03:57Z</time>
</trkpt>
<trkpt lat="48.028904" lon="11.278916">
<ele>596.614</ele>
<time>2022-05-26T11:03:58Z</time>
</trkpt>
<trkpt lat="48.028854" lon="11.278924">
<ele>596.614</ele>
<time>2022-05-26T11:03:59Z</time>
</trkpt>
<trkpt lat="48.028812" lon="11.278927">
<ele>596.614</ele>
<time>2022-05-26T11:04:00Z</time>
</trkpt>
<trkpt lat="48.028763" lon="11.278929">
<ele>596.614</ele>
<time>2022-05-26T11:04:01Z</time>
</trkpt>
<trkpt lat="48.028717" lon="11.278927">
<ele>596.614</ele>
<time>2022-05-26T11:04:02Z</time>
</trkpt>
<trkpt lat="48.028671" lon="11.278927">
<ele>596.867</ele>
<time>2022-05-26T11:04:03Z</time>
</trkpt>
<trkpt lat="48.028625" lon="11.278924">
<ele>597.065</ele>
<time>2022-05-26T11:04:04Z</time>
</trkpt>
<trkpt lat="48.02858" lon="11.27892">
<ele>597.216</ele>
<time>2022-05-26T11:04:05Z</time>
</trkpt>
<trkpt lat="48.028534" lon="11.278916">
<ele>597.335</ele>
<time>2022-05-26T11:04:06Z</time>
</trkpt>
<trkpt lat="48.028488" lon="11.278915">
<ele>597.416</ele>
<time>2022-05-26T11:04:07Z</time>
</trkpt>
<trkpt lat="48.028446" lon="11.278912">
<ele>597.5</ele>
<time>2022-05-26T11:04:08Z</time>
</trkpt>
<trkpt lat="48.0284" lon="11.278912">
<ele>597.552</ele>
<time>2022-05-26T11:04:09Z</time>
</trkpt>
<trkpt lat="48.028355" lon="11.278915">
<ele>597.578</ele>
<time>2022-05-26T11:04:10Z</time>
</trkpt>
<trkpt lat="48.028309" lon="11.278915">
<ele>597.578</ele>
<time>2022-05-26T11:04:11Z</time>
</trkpt>
<trkpt lat="48.028263" lon="11.278918">
<ele>597.578</ele>
<time>2022-05-26T11:04:12Z</time>
</trkpt>
<trkpt lat="48.028214" lon="11.27892">
<ele>597.578</ele>
<time>2022-05-26T11:04:13Z</time>
</trkpt>
<trkpt lat="48.028168" lon="11.278922">
<ele>597.577</ele>
<time>2022-05-26T11:04:14Z</time>
</trkpt>
<trkpt lat="48.028126" lon="11.278924">
<ele>597.578</ele>
<time>2022-05-26T11:04:15Z</time>
</trkpt>
<trkpt lat="48.02808" lon="11.278924">
<ele>597.813</ele>
<time>2022-05-26T11:04:16Z</time>
</trkpt>
<trkpt lat="48.028034" lon="11.278925">
<ele>597.98</ele>
<time>2022-05-26T11:04:17Z</time>
</trkpt>
<trkpt lat="48.027992" lon="11.278927">
<ele>598.148</ele>
<time>2022-05-26T11:04:18Z</time>
</trkpt>
<trkpt lat="48.027943" lon="11.278929">
<ele>598.285</ele>
<time>2022-05-26T11:04:19Z</time>
</trkpt>
<trkpt lat="48.027901" lon="11.278932">
<ele>598.389</ele>
<time>2022-05-26T11:04:20Z</time>
</trkpt>
<trkpt lat="48.027851" lon="11.278934">
<ele>598.468</ele>
<time>2022-05-26T11:04:21Z</time>
</trkpt>
<trkpt lat="48.027805" lon="11.278938">
<ele>598.518</ele>
<time>2022-05-26T11:04:22Z</time>
</trkpt>
<trkpt lat="48.02776" lon="11.278943">
<ele>598.541</ele>
<time>2022-05-26T11:04:23Z</time>
</trkpt>
<trkpt lat="48.027714" lon="11.27895">
<ele>598.541</ele>
<time>2022-05-26T11:04:24Z</time>
</trkpt>
<trkpt lat="48.027664" lon="11.278958">
<ele>598.541</ele>
<time>2022-05-26T11:04:25Z</time>
</trkpt>
<trkpt lat="48.027618" lon="11.278966">
<ele>598.541</ele>
<time>2022-05-26T11:04:26Z</time>
</trkpt>
<trkpt lat="48.027576" lon="11.278974">
<ele>598.756</ele>
<time>2022-05-26T11:04:27Z</time>
</trkpt>
<trkpt lat="48.027527" lon="11.278983">
<ele>598.958</ele>
<time>2022-05-26T11:04:28Z</time>
</trkpt>
<trkpt lat="48.027481" lon="11.278994">
<ele>599.125</ele>
<time>2022-05-26T11:04:29Z</time>
</trkpt>
<trkpt lat="48.027439" lon="11.279005">
<ele>599.258</ele>
<time>2022-05-26T11:04:30Z</time>
</trkpt>
<trkpt lat="48.027393" lon="11.279016">
<ele>599.359</ele>
<time>2022-05-26T11:04:31Z</time>
</trkpt>
<trkpt lat="48.027348" lon="11.279029">
<ele>599.433</ele>
<time>2022-05-26T11:04:32Z</time>
</trkpt>
<trkpt lat="48.027306" lon="11.279041">
<ele>599.481</ele>
<time>2022-05-26T11:04:33Z</time>
</trkpt>
<trkpt lat="48.02726" lon="11.279055">
<ele>599.505</ele>
<time>2022-05-26T11:04:34Z</time>
</trkpt>
<trkpt lat="48.027218" lon="11.279069">
<ele>599.505</ele>
<time>2022-05-26T11:04:35Z</time>
</trkpt>
<trkpt lat="48.027172" lon="11.279083">
<ele>599.505</ele>
<time>2022-05-26T11:04:36Z</time>
</trkpt>
<trkpt lat="48.02713" lon="11.279099">
<ele>599.505</ele>
<time>2022-05-26T11:04:37Z</time>
</trkpt>
<trkpt lat="48.027088" lon="11.279115">
<ele>599.717</ele>
<time>2022-05-26T11:04:38Z</time>
</trkpt>
<trkpt lat="48.027042" lon="11.279128">
<ele>599.895</ele>
<time>2022-05-26T11:04:39Z</time>
</trkpt>
<trkpt lat="48.027" lon="11.279143">
<ele>600.043</ele>
<time>2022-05-26T11:04:40Z</time>
</trkpt>
<trkpt lat="48.026958" lon="11.27916">
<ele>600.161</ele>
<time>2022-05-26T11:04:41Z</time>
</trkpt>
<trkpt lat="48.02692" lon="11.279178">
<ele>600.252</ele>
<time>2022-05-26T11:04:42Z</time>
</trkpt>
<trkpt lat="48.026878" lon="11.279195">
<ele>600.319</ele>
<time>2022-05-26T11:04:43Z</time>
</trkpt>
<trkpt lat="48.026833" lon="11.279213">
<ele>600.361</ele>
<time>2022-05-26T11:04:44Z</time>
</trkpt>
<trkpt lat="48.026794" lon="11.279232">
<ele>600.382</ele>
<time>2022-05-26T11:04:45Z</time>
</trkpt>
<trkpt lat="48.026752" lon="11.27925">
<ele>600.382</ele>
<time>2022-05-26T11:04:46Z</time>
</trkpt>
<trkpt lat="48.026711" lon="11.279268">
<ele>600.382</ele>
<time>2022-05-26T11:04:47Z</time>
</trkpt>
<trkpt lat="48.026665" lon="11.279288">
<ele>600.382</ele>
<time>2022-05-26T11:04:48Z</time>
</trkpt>
<trkpt lat="48.026627" lon="11.27931">
<ele>600.382</ele>
<time>2022-05-26T11:04:49Z</time>
</trkpt>
<trkpt lat="48.026585" lon="11.279332">
<ele>600.382</ele>
<time>2022-05-26T11:04:50Z</time>
</trkpt>
<trkpt lat="48.026539" lon="11.279353">
<ele>600.382</ele>
<time>2022-05-26T11:04:51Z</time>
</trkpt>
<trkpt lat="48.026501" lon="11.279375">
<ele>600.382</ele>
<time>2022-05-26T11:04:52Z</time>
</trkpt>
<trkpt lat="48.026455" lon="11.2794">
<ele>600.382</ele>
<time>2022-05-26T11:04:53Z</time>
</trkpt>
<trkpt lat="48.026413" lon="11.279423">
<ele>600.382</ele>
<time>2022-05-26T11:04:54Z</time>
</trkpt>
<trkpt lat="48.026371" lon="11.279447">
<ele>600.382</ele>
<time>2022-05-26T11:04:55Z</time>
</trkpt>
<trkpt lat="48.026333" lon="11.27947">
<ele>600.382</ele>
<time>2022-05-26T11:04:56Z</time>
</trkpt>
<trkpt lat="48.026287" lon="11.279495">
<ele>600.382</ele>
<time>2022-05-26T11:04:57Z</time>
</trkpt>
<trkpt lat="48.026245" lon="11.27952">
<ele>600.382</ele>
<time>2022-05-26T11:04:58Z</time>
</trkpt>
<trkpt lat="48.026207" lon="11.279545">
<ele>600.382</ele>
<time>2022-05-26T11:04:59Z</time>
</trkpt>
<trkpt lat="48.026165" lon="11.27957">
<ele>600.66</ele>
<time>2022-05-26T11:05:00Z</time>
</trkpt>
<trkpt lat="48.026123" lon="11.279596">
<ele>600.875</ele>
<time>2022-05-26T11:05:01Z</time>
</trkpt>
<trkpt lat="48.026081" lon="11.279626">
<ele>601.041</ele>
<time>2022-05-26T11:05:02Z</time>
</trkpt>
<trkpt lat="48.026047" lon="11.279658">
<ele>601.161</ele>
<time>2022-05-26T11:05:03Z</time>
</trkpt>
<trkpt lat="48.026001" lon="11.279687">
<ele>601.242</ele>
<time>2022-05-26T11:05:04Z</time>
</trkpt>
<trkpt lat="48.025959" lon="11.279715">
<ele>601.298</ele>
<time>2022-05-26T11:05:05Z</time>
</trkpt>
<trkpt lat="48.025917" lon="11.279741">
<ele>601.323</ele>
<time>2022-05-26T11:05:06Z</time>
</trkpt>
<trkpt lat="48.025879" lon="11.279768">
<ele>601.346</ele>
<time>2022-05-26T11:05:07Z</time>
</trkpt>
<trkpt lat="48.025833" lon="11.279797">
<ele>601.346</ele>
<time>2022-05-26T11:05:08Z</time>
</trkpt>
<trkpt lat="48.025787" lon="11.279825">
<ele>601.346</ele>
<time>2022-05-26T11:05:09Z</time>
</trkpt>
<trkpt lat="48.025745" lon="11.279854">
<ele>601.346</ele>
<time>2022-05-26T11:05:10Z</time>
</trkpt>
<trkpt lat="48.025703" lon="11.27988">
<ele>601.618</ele>
<time>2022-05-26T11:05:11Z</time>
</trkpt>
<trkpt lat="48.025658" lon="11.279904">
<ele>601.828</ele>
<time>2022-05-26T11:05:12Z</time>
</trkpt>
<trkpt lat="48.02562" lon="11.279927">
<ele>601.99</ele>
<time>2022-05-26T11:05:13Z</time>
</trkpt>
<trkpt lat="48.025574" lon="11.279948">
<ele>602.106</ele>
<time>2022-05-26T11:05:14Z</time>
</trkpt>
<trkpt lat="48.025528" lon="11.27997">
<ele>602.19</ele>
<time>2022-05-26T11:05:15Z</time>
</trkpt>
<trkpt lat="48.025486" lon="11.279995">
<ele>602.24</ele>
<time>2022-05-26T11:05:16Z</time>
</trkpt>
<trkpt lat="48.02544" lon="11.28002">
<ele>602.283</ele>
<time>2022-05-26T11:05:17Z</time>
</trkpt>
<trkpt lat="48.025394" lon="11.280045">
<ele>602.31</ele>
<time>2022-05-26T11:05:18Z</time>
</trkpt>
<trkpt lat="48.025352" lon="11.280068">
<ele>602.31</ele>
<time>2022-05-26T11:05:19Z</time>
</trkpt>
<trkpt lat="48.025307" lon="11.28009">
<ele>602.31</ele>
<time>2022-05-26T11:05:20Z</time>
</trkpt>
<trkpt lat="48.025261" lon="11.280113">
<ele>602.31</ele>
<time>2022-05-26T11:05:21Z</time>
</trkpt>
<trkpt lat="48.025215" lon="11.280135">
<ele>602.31</ele>
<time>2022-05-26T11:05:22Z</time>
</trkpt>
<trkpt lat="48.025169" lon="11.280156">
<ele>602.31</ele>
<time>2022-05-26T11:05:23Z</time>
</trkpt>
<trkpt lat="48.025127" lon="11.28018">
<ele>602.31</ele>
<time>2022-05-26T11:05:24Z</time>
</trkpt>
<trkpt lat="48.025082" lon="11.280207">
<ele>602.31</ele>
<time>2022-05-26T11:05:25Z</time>
</trkpt>
<trkpt lat="48.025036" lon="11.280235">
<ele>602.31</ele>
<time>2022-05-26T11:05:26Z</time>
</trkpt>
<trkpt lat="48.024994" lon="11.280267">
<ele>602.31</ele>
<time>2022-05-26T11:05:27Z</time>
</trkpt>
<trkpt lat="48.024948" lon="11.280296">
<ele>602.31</ele>
<time>2022-05-26T11:05:28Z</time>
</trkpt>
<trkpt lat="48.024902" lon="11.280325">
<ele>602.572</ele>
<time>2022-05-26T11:05:29Z</time>
</trkpt>
<trkpt lat="48.02486" lon="11.280354">
<ele>602.775</ele>
<time>2022-05-26T11:05:30Z</time>
</trkpt>
<trkpt lat="48.024811" lon="11.280383">
<ele>602.927</ele>
<time>2022-05-26T11:05:31Z</time>
</trkpt>
<trkpt lat="48.024769" lon="11.280412">
<ele>603.038</ele>
<time>2022-05-26T11:05:32Z</time>
</trkpt>
<trkpt lat="48.024723" lon="11.280438">
<ele>603.114</ele>
<time>2022-05-26T11:05:33Z</time>
</trkpt>
<trkpt lat="48.024677" lon="11.280465">
<ele>603.161</ele>
<time>2022-05-26T11:05:34Z</time>
</trkpt>
<trkpt lat="48.024628" lon="11.280492">
<ele>603.183</ele>
<time>2022-05-26T11:05:35Z</time>
</trkpt>
<trkpt lat="48.024582" lon="11.28052">
<ele>603.187</ele>
<time>2022-05-26T11:05:36Z</time>
</trkpt>
<trkpt lat="48.02454" lon="11.280548">
<ele>603.187</ele>
<time>2022-05-26T11:05:37Z</time>
</trkpt>
<trkpt lat="48.024498" lon="11.280573">
<ele>603.187</ele>
<time>2022-05-26T11:05:38Z</time>
</trkpt>
<trkpt lat="48.024452" lon="11.280601">
<ele>603.187</ele>
<time>2022-05-26T11:05:39Z</time>
</trkpt>
<trkpt lat="48.024414" lon="11.280627">
<ele>603.187</ele>
<time>2022-05-26T11:05:40Z</time>
</trkpt>
<trkpt lat="48.024372" lon="11.280655">
<ele>603.187</ele>
<time>2022-05-26T11:05:41Z</time>
</trkpt>
<trkpt lat="48.02433" lon="11.280682">
<ele>603.187</ele>
<time>2022-05-26T11:05:42Z</time>
</trkpt>
<trkpt lat="48.024284" lon="11.280706">
<ele>603.187</ele>
<time>2022-05-26T11:05:43Z</time>
</trkpt>
<trkpt lat="48.024242" lon="11.28073">
<ele>603.187</ele>
<time>2022-05-26T11:05:44Z</time>
</trkpt>
<trkpt lat="48.024197" lon="11.280751">
<ele>603.187</ele>
<time>2022-05-26T11:05:45Z</time>
</trkpt>
<trkpt lat="48.024155" lon="11.280774">
<ele>603.187</ele>
<time>2022-05-26T11:05:46Z</time>
</trkpt>
<trkpt lat="48.024109" lon="11.280793">
<ele>603.187</ele>
<time>2022-05-26T11:05:47Z</time>
</trkpt>
<trkpt lat="48.024067" lon="11.280816">
<ele>603.187</ele>
<time>2022-05-26T11:05:48Z</time>
</trkpt>
<trkpt lat="48.024025" lon="11.280839">
<ele>603.499</ele>
<time>2022-05-26T11:05:49Z</time>
</trkpt>
<trkpt lat="48.023983" lon="11.280856">
<ele>603.739</ele>
<time>2022-05-26T11:05:50Z</time>
</trkpt>
<trkpt lat="48.023937" lon="11.280873">
<ele>603.92</ele>
<time>2022-05-26T11:05:51Z</time>
</trkpt>
<trkpt lat="48.023891" lon="11.280891">
<ele>604.056</ele>
<time>2022-05-26T11:05:52Z</time>
</trkpt>
<trkpt lat="48.023849" lon="11.280909">
<ele>604.153</ele>
<time>2022-05-26T11:05:53Z</time>
</trkpt>
<trkpt lat="48.023804" lon="11.280923">
<ele>604.207</ele>
<time>2022-05-26T11:05:54Z</time>
</trkpt>
<trkpt lat="48.023758" lon="11.280937">
<ele>604.234</ele>
<time>2022-05-26T11:05:55Z</time>
</trkpt>
<trkpt lat="48.023712" lon="11.280951">
<ele>604.239</ele>
<time>2022-05-26T11:05:56Z</time>
</trkpt>
<trkpt lat="48.023666" lon="11.280967">
<ele>604.239</ele>
<time>2022-05-26T11:05:57Z</time>
</trkpt>
<trkpt lat="48.023621" lon="11.28098">
<ele>604.239</ele>
<time>2022-05-26T11:05:58Z</time>
</trkpt>
<trkpt lat="48.023571" lon="11.280992">
<ele>604.239</ele>
<time>2022-05-26T11:05:59Z</time>
</trkpt>
<trkpt lat="48.023521" lon="11.281003">
<ele>604.239</ele>
<time>2022-05-26T11:06:00Z</time>
</trkpt>
<trkpt lat="48.023472" lon="11.281013">
<ele>604.513</ele>
<time>2022-05-26T11:06:01Z</time>
</trkpt>
<trkpt lat="48.023418" lon="11.281023">
<ele>604.725</ele>
<time>2022-05-26T11:06:02Z</time>
</trkpt>
<trkpt lat="48.023373" lon="11.281034">
<ele>604.884</ele>
<time>2022-05-26T11:06:03Z</time>
</trkpt>
<trkpt lat="48.023323" lon="11.28104">
<ele>605.002</ele>
<time>2022-05-26T11:06:04Z</time>
</trkpt>
<trkpt lat="48.023273" lon="11.281049">
<ele>605.082</ele>
<time>2022-05-26T11:06:05Z</time>
</trkpt>
<trkpt lat="48.023224" lon="11.281054">
<ele>605.135</ele>
<time>2022-05-26T11:06:06Z</time>
</trkpt>
<trkpt lat="48.023174" lon="11.281063">
<ele>605.177</ele>
<time>2022-05-26T11:06:07Z</time>
</trkpt>
<trkpt lat="48.023125" lon="11.281068">
<ele>605.203</ele>
<time>2022-05-26T11:06:08Z</time>
</trkpt>
<trkpt lat="48.023075" lon="11.281075">
<ele>605.203</ele>
<time>2022-05-26T11:06:09Z</time>
</trkpt>
<trkpt lat="48.023026" lon="11.28108">
<ele>605.203</ele>
<time>2022-05-26T11:06:10Z</time>
</trkpt>
<trkpt lat="48.02298" lon="11.281082">
<ele>605.203</ele>
<time>2022-05-26T11:06:11Z</time>
</trkpt>
<trkpt lat="48.022926" lon="11.281085">
<ele>605.203</ele>
<time>2022-05-26T11:06:12Z</time>
</trkpt>
<trkpt lat="48.022881" lon="11.281087">
<ele>605.203</ele>
<time>2022-05-26T11:06:13Z</time>
</trkpt>
<trkpt lat="48.022831" lon="11.281085">
<ele>605.203</ele>
<time>2022-05-26T11:06:14Z</time>
</trkpt>
<trkpt lat="48.022781" lon="11.281084">
<ele>605.203</ele>
<time>2022-05-26T11:06:15Z</time>
</trkpt>
<trkpt lat="48.022728" lon="11.281082">
<ele>605.203</ele>
<time>2022-05-26T11:06:16Z</time>
</trkpt>
<trkpt lat="48.022682" lon="11.28108">
<ele>605.203</ele>
<time>2022-05-26T11:06:17Z</time>
</trkpt>
<trkpt lat="48.022633" lon="11.281076">
<ele>605.203</ele>
<time>2022-05-26T11:06:18Z</time>
</trkpt>
<trkpt lat="48.022583" lon="11.281075">
<ele>605.203</ele>
<time>2022-05-26T11:06:19Z</time>
</trkpt>
<trkpt lat="48.02253" lon="11.281075">
<ele>605.484</ele>
<time>2022-05-26T11:06:20Z</time>
</trkpt>
<trkpt lat="48.022484" lon="11.281075">
<ele>605.7</ele>
<time>2022-05-26T11:06:21Z</time>
</trkpt>
<trkpt lat="48.022427" lon="11.281075">
<ele>605.867</ele>
<time>2022-05-26T11:06:22Z</time>
</trkpt>
<trkpt lat="48.022377" lon="11.281075">
<ele>605.986</ele>
<time>2022-05-26T11:06:23Z</time>
</trkpt>
<trkpt lat="48.022327" lon="11.281075">
<ele>606.07</ele>
<time>2022-05-26T11:06:24Z</time>
</trkpt>
<trkpt lat="48.022274" lon="11.281076">
<ele>606.122</ele>
<time>2022-05-26T11:06:25Z</time>
</trkpt>
<trkpt lat="48.022224" lon="11.281076">
<ele>606.146</ele>
<time>2022-05-26T11:06:26Z</time>
</trkpt>
<trkpt lat="48.022171" lon="11.281076">
<ele>606.167</ele>
<time>2022-05-26T11:06:27Z</time>
</trkpt>
<trkpt lat="48.022125" lon="11.281078">
<ele>606.167</ele>
<time>2022-05-26T11:06:28Z</time>
</trkpt>
<trkpt lat="48.022072" lon="11.28108">
<ele>606.167</ele>
<time>2022-05-26T11:06:29Z</time>
</trkpt>
<trkpt lat="48.022022" lon="11.281082">
<ele>606.167</ele>
<time>2022-05-26T11:06:30Z</time>
</trkpt>
<trkpt lat="48.021969" lon="11.281087">
<ele>606.167</ele>
<time>2022-05-26T11:06:31Z</time>
</trkpt>
<trkpt lat="48.021919" lon="11.28109">
<ele>606.167</ele>
<time>2022-05-26T11:06:32Z</time>
</trkpt>
<trkpt lat="48.02187" lon="11.28109">
<ele>606.167</ele>
<time>2022-05-26T11:06:33Z</time>
</trkpt>
<trkpt lat="48.021816" lon="11.28109">
<ele>606.167</ele>
<time>2022-05-26T11:06:34Z</time>
</trkpt>
<trkpt lat="48.021767" lon="11.281092">
<ele>606.167</ele>
<time>2022-05-26T11:06:35Z</time>
</trkpt>
<trkpt lat="48.021713" lon="11.28109">
<ele>606.167</ele>
<time>2022-05-26T11:06:36Z</time>
</trkpt>
<trkpt lat="48.021664" lon="11.28109">
<ele>606.167</ele>
<time>2022-05-26T11:06:37Z</time>
</trkpt>
<trkpt lat="48.02161" lon="11.28109">
<ele>606.382</ele>
<time>2022-05-26T11:06:38Z</time>
</trkpt>
<trkpt lat="48.021561" lon="11.281088">
<ele>606.561</ele>
<time>2022-05-26T11:06:39Z</time>
</trkpt>
<trkpt lat="48.021511" lon="11.281088">
<ele>606.709</ele>
<time>2022-05-26T11:06:40Z</time>
</trkpt>
<trkpt lat="48.021458" lon="11.281088">
<ele>606.825</ele>
<time>2022-05-26T11:06:41Z</time>
</trkpt>
<trkpt lat="48.021408" lon="11.281088">
<ele>606.917</ele>
<time>2022-05-26T11:06:42Z</time>
</trkpt>
<trkpt lat="48.021355" lon="11.281085">
<ele>606.981</ele>
<time>2022-05-26T11:06:43Z</time>
</trkpt>
<trkpt lat="48.021305" lon="11.281085">
<ele>607.023</ele>
<time>2022-05-26T11:06:44Z</time>
</trkpt>
<trkpt lat="48.021252" lon="11.281087">
<ele>607.045</ele>
<time>2022-05-26T11:06:45Z</time>
</trkpt>
<trkpt lat="48.021198" lon="11.281085">
<ele>607.044</ele>
<time>2022-05-26T11:06:46Z</time>
</trkpt>
<trkpt lat="48.021149" lon="11.28108">
<ele>607.044</ele>
<time>2022-05-26T11:06:47Z</time>
</trkpt>
<trkpt lat="48.021099" lon="11.28107">
<ele>607.044</ele>
<time>2022-05-26T11:06:48Z</time>
</trkpt>
<trkpt lat="48.021049" lon="11.281056">
<ele>607.044</ele>
<time>2022-05-26T11:06:49Z</time>
</trkpt>
<trkpt lat="48.021004" lon="11.28104">
<ele>607.045</ele>
<time>2022-05-26T11:06:50Z</time>
</trkpt>
<trkpt lat="48.020958" lon="11.281021">
<ele>607.311</ele>
<time>2022-05-26T11:06:51Z</time>
</trkpt>
<trkpt lat="48.020908" lon="11.281002">
<ele>607.519</ele>
<time>2022-05-26T11:06:52Z</time>
</trkpt>
<trkpt lat="48.020863" lon="11.280978">
<ele>607.677</ele>
<time>2022-05-26T11:06:53Z</time>
</trkpt>
<trkpt lat="48.020821" lon="11.280954">
<ele>607.798</ele>
<time>2022-05-26T11:06:54Z</time>
</trkpt>
<trkpt lat="48.020771" lon="11.28093">
<ele>607.882</ele>
<time>2022-05-26T11:06:55Z</time>
</trkpt>
<trkpt lat="48.020725" lon="11.280905">
<ele>607.939</ele>
<time>2022-05-26T11:06:56Z</time>
</trkpt>
<trkpt lat="48.020679" lon="11.28088">
<ele>607.982</ele>
<time>2022-05-26T11:06:57Z</time>
</trkpt>
<trkpt lat="48.02063" lon="11.280856">
<ele>608.009</ele>
<time>2022-05-26T11:06:58Z</time>
</trkpt>
<trkpt lat="48.020584" lon="11.280839">
<ele>608.009</ele>
<time>2022-05-26T11:06:59Z</time>
</trkpt>
<trkpt lat="48.020538" lon="11.28082">
<ele>608.009</ele>
<time>2022-05-26T11:07:00Z</time>
</trkpt>
<trkpt lat="48.020496" lon="11.280806">
<ele>608.009</ele>
<time>2022-05-26T11:07:01Z</time>
</trkpt>
<trkpt lat="48.020451" lon="11.280788">
<ele>608.009</ele>
<time>2022-05-26T11:07:02Z</time>
</trkpt>
<trkpt lat="48.020405" lon="11.280774">
<ele>608.009</ele>
<time>2022-05-26T11:07:03Z</time>
</trkpt>
<trkpt lat="48.020367" lon="11.280764">
<ele>608.009</ele>
<time>2022-05-26T11:07:04Z</time>
</trkpt>
<trkpt lat="48.020321" lon="11.280755">
<ele>608.009</ele>
<time>2022-05-26T11:07:05Z</time>
</trkpt>
<trkpt lat="48.020275" lon="11.28075">
<ele>608.009</ele>
<time>2022-05-26T11:07:06Z</time>
</trkpt>
<trkpt lat="48.020237" lon="11.28075">
<ele>608.009</ele>
<time>2022-05-26T11:07:07Z</time>
</trkpt>
<trkpt lat="48.020195" lon="11.280751">
<ele>608.24</ele>
<time>2022-05-26T11:07:08Z</time>
</trkpt>
<trkpt lat="48.020149" lon="11.280751">
<ele>608.436</ele>
<time>2022-05-26T11:07:09Z</time>
</trkpt>
<trkpt lat="48.020107" lon="11.280751">
<ele>608.598</ele>
<time>2022-05-26T11:07:10Z</time>
</trkpt>
<trkpt lat="48.020065" lon="11.280753">
<ele>608.731</ele>
<time>2022-05-26T11:07:11Z</time>
</trkpt>
<trkpt lat="48.020023" lon="11.280755">
<ele>608.832</ele>
<time>2022-05-26T11:07:12Z</time>
</trkpt>
<trkpt lat="48.019981" lon="11.28076">
<ele>608.904</ele>
<time>2022-05-26T11:07:13Z</time>
</trkpt>
<trkpt lat="48.019939" lon="11.280766">
<ele>608.951</ele>
<time>2022-05-26T11:07:14Z</time>
</trkpt>
<trkpt lat="48.019897" lon="11.280776">
<ele>608.974</ele>
<time>2022-05-26T11:07:15Z</time>
</trkpt>
<trkpt lat="48.019852" lon="11.280787">
<ele>608.974</ele>
<time>2022-05-26T11:07:16Z</time>
</trkpt>
<trkpt lat="48.01981" lon="11.280799">
<ele>608.974</ele>
<time>2022-05-26T11:07:17Z</time>
</trkpt>
<trkpt lat="48.019768" lon="11.280809">
<ele>608.974</ele>
<time>2022-05-26T11:07:18Z</time>
</trkpt>
<trkpt lat="48.019726" lon="11.280824">
<ele>608.974</ele>
<time>2022-05-26T11:07:19Z</time>
</trkpt>
<trkpt lat="48.019688" lon="11.280837">
<ele>608.974</ele>
<time>2022-05-26T11:07:20Z</time>
</trkpt>
<trkpt lat="48.019646" lon="11.280853">
<ele>608.974</ele>
<time>2022-05-26T11:07:21Z</time>
</trkpt>
<trkpt lat="48.019608" lon="11.280867">
<ele>608.974</ele>
<time>2022-05-26T11:07:22Z</time>
</trkpt>
<trkpt lat="48.019569" lon="11.28088">
<ele>608.974</ele>
<time>2022-05-26T11:07:23Z</time>
</trkpt>
<trkpt lat="48.019531" lon="11.280897">
<ele>608.974</ele>
<time>2022-05-26T11:07:24Z</time>
</trkpt>
<trkpt lat="48.019493" lon="11.280912">
<ele>608.974</ele>
<time>2022-05-26T11:07:25Z</time>
</trkpt>
<trkpt lat="48.019459" lon="11.280927">
<ele>608.974</ele>
<time>2022-05-26T11:07:26Z</time>
</trkpt>
<trkpt lat="48.019428" lon="11.280942">
<ele>608.974</ele>
<time>2022-05-26T11:07:27Z</time>
</trkpt>
<trkpt lat="48.01939" lon="11.280958">
<ele>608.974</ele>
<time>2022-05-26T11:07:28Z</time>
</trkpt>
<trkpt lat="48.019356" lon="11.280978">
<ele>608.974</ele>
<time>2022-05-26T11:07:29Z</time>
</trkpt>
<trkpt lat="48.019321" lon="11.280996">
<ele>608.974</ele>
<time>2022-05-26T11:07:30Z</time>
</trkpt>
<trkpt lat="48.019287" lon="11.281013">
<ele>608.974</ele>
<time>2022-05-26T11:07:31Z</time>
</trkpt>
<trkpt lat="48.019253" lon="11.281035">
<ele>608.974</ele>
<time>2022-05-26T11:07:32Z</time>
</trkpt>
<trkpt lat="48.019222" lon="11.281056">
<ele>608.974</ele>
<time>2022-05-26T11:07:33Z</time>
</trkpt>
<trkpt lat="48.019192" lon="11.281076">
<ele>608.974</ele>
<time>2022-05-26T11:07:34Z</time>
</trkpt>
<trkpt lat="48.019161" lon="11.281095">
<ele>608.974</ele>
<time>2022-05-26T11:07:35Z</time>
</trkpt>
<trkpt lat="48.019131" lon="11.281112">
<ele>608.974</ele>
<time>2022-05-26T11:07:36Z</time>
</trkpt>
<trkpt lat="48.0191" lon="11.281128">
<ele>608.974</ele>
<time>2022-05-26T11:07:37Z</time>
</trkpt>
<trkpt lat="48.01907" lon="11.281147">
<ele>608.974</ele>
<time>2022-05-26T11:07:38Z</time>
</trkpt>
<trkpt lat="48.019035" lon="11.281165">
<ele>608.974</ele>
<time>2022-05-26T11:07:39Z</time>
</trkpt>
<trkpt lat="48.019009" lon="11.28118">
<ele>608.974</ele>
<time>2022-05-26T11:07:40Z</time>
</trkpt>
<trkpt lat="48.018982" lon="11.281197">
<ele>608.974</ele>
<time>2022-05-26T11:07:41Z</time>
</trkpt>
<trkpt lat="48.018955" lon="11.281214">
<ele>608.974</ele>
<time>2022-05-26T11:07:42Z</time>
</trkpt>
<trkpt lat="48.018929" lon="11.281231">
<ele>608.974</ele>
<time>2022-05-26T11:07:43Z</time>
</trkpt>
<trkpt lat="48.018902" lon="11.281245">
<ele>608.974</ele>
<time>2022-05-26T11:07:44Z</time>
</trkpt>
<trkpt lat="48.018871" lon="11.28126">
<ele>608.974</ele>
<time>2022-05-26T11:07:45Z</time>
</trkpt>
<trkpt lat="48.018845" lon="11.281275">
<ele>608.974</ele>
<time>2022-05-26T11:07:46Z</time>
</trkpt>
<trkpt lat="48.018818" lon="11.281292">
<ele>608.974</ele>
<time>2022-05-26T11:07:47Z</time>
</trkpt>
<trkpt lat="48.018791" lon="11.281308">
<ele>608.974</ele>
<time>2022-05-26T11:07:48Z</time>
</trkpt>
<trkpt lat="48.018764" lon="11.28133">
<ele>609.261</ele>
<time>2022-05-26T11:07:49Z</time>
</trkpt>
<trkpt lat="48.018738" lon="11.281346">
<ele>609.484</ele>
<time>2022-05-26T11:07:50Z</time>
</trkpt>
<trkpt lat="48.018711" lon="11.281369">
<ele>609.651</ele>
<time>2022-05-26T11:07:51Z</time>
</trkpt>
<trkpt lat="48.018684" lon="11.281394">
<ele>609.774</ele>
<time>2022-05-26T11:07:52Z</time>
</trkpt>
<trkpt lat="48.018661" lon="11.281417">
<ele>609.855</ele>
<time>2022-05-26T11:07:53Z</time>
</trkpt>
<trkpt lat="48.018631" lon="11.281442">
<ele>609.907</ele>
<time>2022-05-26T11:07:54Z</time>
</trkpt>
<trkpt lat="48.018604" lon="11.281464">
<ele>609.932</ele>
<time>2022-05-26T11:07:55Z</time>
</trkpt>
<trkpt lat="48.01857" lon="11.281478">
<ele>609.938</ele>
<time>2022-05-26T11:07:56Z</time>
</trkpt>
<trkpt lat="48.018532" lon="11.281499">
<ele>609.939</ele>
<time>2022-05-26T11:07:57Z</time>
</trkpt>
<trkpt lat="48.01849" lon="11.281525">
<ele>609.939</ele>
<time>2022-05-26T11:07:58Z</time>
</trkpt>
<trkpt lat="48.018448" lon="11.281549">
<ele>609.938</ele>
<time>2022-05-26T11:07:59Z</time>
</trkpt>
<trkpt lat="48.018402" lon="11.281576">
<ele>609.939</ele>
<time>2022-05-26T11:08:00Z</time>
</trkpt>
<trkpt lat="48.018364" lon="11.281602">
<ele>609.938</ele>
<time>2022-05-26T11:08:01Z</time>
</trkpt>
<trkpt lat="48.01833" lon="11.281625">
<ele>609.938</ele>
<time>2022-05-26T11:08:02Z</time>
</trkpt>
<trkpt lat="48.018291" lon="11.281645">
<ele>609.938</ele>
<time>2022-05-26T11:08:03Z</time>
</trkpt>
<trkpt lat="48.018257" lon="11.281654">
<ele>609.938</ele>
<time>2022-05-26T11:08:04Z</time>
</trkpt>
<trkpt lat="48.018227" lon="11.28166">
<ele>609.939</ele>
<time>2022-05-26T11:08:05Z</time>
</trkpt>
<trkpt lat="48.018196" lon="11.281663">
<ele>609.938</ele>
<time>2022-05-26T11:08:06Z</time>
</trkpt>
<trkpt lat="48.018162" lon="11.281672">
<ele>609.938</ele>
<time>2022-05-26T11:08:07Z</time>
</trkpt>
<trkpt lat="48.018127" lon="11.281681">
<ele>609.938</ele>
<time>2022-05-26T11:08:08Z</time>
</trkpt>
<trkpt lat="48.018093" lon="11.281688">
<ele>609.938</ele>
<time>2022-05-26T11:08:09Z</time>
</trkpt>
<trkpt lat="48.018059" lon="11.281702">
<ele>609.938</ele>
<time>2022-05-26T11:08:10Z</time>
</trkpt>
<trkpt lat="48.018024" lon="11.28172">
<ele>609.939</ele>
<time>2022-05-26T11:08:11Z</time>
</trkpt>
<trkpt lat="48.017986" lon="11.281738">
<ele>609.938</ele>
<time>2022-05-26T11:08:12Z</time>
</trkpt>
<trkpt lat="48.017952" lon="11.281753">
<ele>609.938</ele>
<time>2022-05-26T11:08:13Z</time>
</trkpt>
<trkpt lat="48.017925" lon="11.281761">
<ele>609.939</ele>
<time>2022-05-26T11:08:14Z</time>
</trkpt>
<trkpt lat="48.017895" lon="11.28177">
<ele>609.938</ele>
<time>2022-05-26T11:08:15Z</time>
</trkpt>
<trkpt lat="48.017864" lon="11.281778">
<ele>609.939</ele>
<time>2022-05-26T11:08:16Z</time>
</trkpt>
<trkpt lat="48.01783" lon="11.281792">
<ele>609.938</ele>
<time>2022-05-26T11:08:17Z</time>
</trkpt>
<trkpt lat="48.017803" lon="11.281795">
<ele>609.939</ele>
<time>2022-05-26T11:08:18Z</time>
</trkpt>
<trkpt lat="48.017773" lon="11.281801">
<ele>609.938</ele>
<time>2022-05-26T11:08:19Z</time>
</trkpt>
<trkpt lat="48.017738" lon="11.281807">
<ele>609.939</ele>
<time>2022-05-26T11:08:20Z</time>
</trkpt>
<trkpt lat="48.0177" lon="11.281818">
<ele>609.939</ele>
<time>2022-05-26T11:08:21Z</time>
</trkpt>
<trkpt lat="48.017654" lon="11.281828">
<ele>609.938</ele>
<time>2022-05-26T11:08:22Z</time>
</trkpt>
<trkpt lat="48.017609" lon="11.281838">
<ele>610.189</ele>
<time>2022-05-26T11:08:23Z</time>
</trkpt>
<trkpt lat="48.017563" lon="11.281842">
<ele>610.381</ele>
<time>2022-05-26T11:08:24Z</time>
</trkpt>
<trkpt lat="48.017513" lon="11.281852">
<ele>610.522</ele>
<time>2022-05-26T11:08:25Z</time>
</trkpt>
<trkpt lat="48.017464" lon="11.281874">
<ele>610.634</ele>
<time>2022-05-26T11:08:26Z</time>
</trkpt>
<trkpt lat="48.017414" lon="11.28189">
<ele>610.691</ele>
<time>2022-05-26T11:08:27Z</time>
</trkpt>
<trkpt lat="48.017361" lon="11.281897">
<ele>610.755</ele>
<time>2022-05-26T11:08:28Z</time>
</trkpt>
<trkpt lat="48.017303" lon="11.281905">
<ele>610.795</ele>
<time>2022-05-26T11:08:29Z</time>
</trkpt>
<trkpt lat="48.017242" lon="11.28192">
<ele>610.816</ele>
<time>2022-05-26T11:08:30Z</time>
</trkpt>
<trkpt lat="48.017178" lon="11.281939">
<ele>610.816</ele>
<time>2022-05-26T11:08:31Z</time>
</trkpt>
<trkpt lat="48.017113" lon="11.281948">
<ele>610.563</ele>
<time>2022-05-26T11:08:32Z</time>
</trkpt>
<trkpt lat="48.017048" lon="11.281948">
<ele>610.372</ele>
<time>2022-05-26T11:08:33Z</time>
</trkpt>
<trkpt lat="48.016987" lon="11.281948">
<ele>610.232</ele>
<time>2022-05-26T11:08:34Z</time>
</trkpt>
<trkpt lat="48.01693" lon="11.28195">
<ele>610.13</ele>
<time>2022-05-26T11:08:35Z</time>
</trkpt>
<trkpt lat="48.016869" lon="11.281957">
<ele>610.06</ele>
<time>2022-05-26T11:08:36Z</time>
</trkpt>
<trkpt lat="48.016811" lon="11.281964">
<ele>610.008</ele>
<time>2022-05-26T11:08:37Z</time>
</trkpt>
<trkpt lat="48.016754" lon="11.281973">
<ele>609.962</ele>
<time>2022-05-26T11:08:38Z</time>
</trkpt>
<trkpt lat="48.016689" lon="11.281981">
<ele>609.939</ele>
<time>2022-05-26T11:08:39Z</time>
</trkpt>
<trkpt lat="48.016624" lon="11.281981">
<ele>609.938</ele>
<time>2022-05-26T11:08:40Z</time>
</trkpt>
<trkpt lat="48.016563" lon="11.281987">
<ele>609.938</ele>
<time>2022-05-26T11:08:41Z</time>
</trkpt>
<trkpt lat="48.016502" lon="11.281992">
<ele>609.674</ele>
<time>2022-05-26T11:08:42Z</time>
</trkpt>
<trkpt lat="48.016445" lon="11.282005">
<ele>609.467</ele>
<time>2022-05-26T11:08:43Z</time>
</trkpt>
<trkpt lat="48.016384" lon="11.28203">
<ele>609.311</ele>
<time>2022-05-26T11:08:44Z</time>
</trkpt>
<trkpt lat="48.016331" lon="11.28208">
<ele>609.198</ele>
<time>2022-05-26T11:08:45Z</time>
</trkpt>
<trkpt lat="48.016285" lon="11.282144">
<ele>609.114</ele>
<time>2022-05-26T11:08:46Z</time>
</trkpt>
<trkpt lat="48.016243" lon="11.282227">
<ele>609.056</ele>
<time>2022-05-26T11:08:47Z</time>
</trkpt>
<trkpt lat="48.01622" lon="11.282308">
<ele>609</ele>
<time>2022-05-26T11:08:48Z</time>
</trkpt>
<trkpt lat="48.016201" lon="11.282398">
<ele>608.974</ele>
<time>2022-05-26T11:08:49Z</time>
</trkpt>
<trkpt lat="48.01619" lon="11.282486">
<ele>608.974</ele>
<time>2022-05-26T11:08:50Z</time>
</trkpt>
<trkpt lat="48.016178" lon="11.282576">
<ele>608.974</ele>
<time>2022-05-26T11:08:51Z</time>
</trkpt>
<trkpt lat="48.016167" lon="11.282658">
<ele>608.974</ele>
<time>2022-05-26T11:08:52Z</time>
</trkpt>
<trkpt lat="48.016155" lon="11.282739">
<ele>608.974</ele>
<time>2022-05-26T11:08:53Z</time>
</trkpt>
<trkpt lat="48.016144" lon="11.282815">
<ele>608.974</ele>
<time>2022-05-26T11:08:54Z</time>
</trkpt>
<trkpt lat="48.016136" lon="11.282882">
<ele>608.974</ele>
<time>2022-05-26T11:08:55Z</time>
</trkpt>
<trkpt lat="48.016132" lon="11.282953">
<ele>608.974</ele>
<time>2022-05-26T11:08:56Z</time>
</trkpt>
<trkpt lat="48.016129" lon="11.283027">
<ele>608.974</ele>
<time>2022-05-26T11:08:57Z</time>
</trkpt>
<trkpt lat="48.016121" lon="11.283102">
<ele>608.974</ele>
<time>2022-05-26T11:08:58Z</time>
</trkpt>
<trkpt lat="48.016117" lon="11.283171">
<ele>608.974</ele>
<time>2022-05-26T11:08:59Z</time>
</trkpt>
<trkpt lat="48.016113" lon="11.283245">
<ele>608.974</ele>
<time>2022-05-26T11:09:00Z</time>
</trkpt>
<trkpt lat="48.016109" lon="11.283321">
<ele>608.974</ele>
<time>2022-05-26T11:09:01Z</time>
</trkpt>
<trkpt lat="48.016109" lon="11.283395">
<ele>608.974</ele>
<time>2022-05-26T11:09:02Z</time>
</trkpt>
<trkpt lat="48.016117" lon="11.283464">
<ele>608.974</ele>
<time>2022-05-26T11:09:03Z</time>
</trkpt>
<trkpt lat="48.016125" lon="11.283538">
<ele>608.974</ele>
<time>2022-05-26T11:09:04Z</time>
</trkpt>
<trkpt lat="48.016129" lon="11.28361">
<ele>608.974</ele>
<time>2022-05-26T11:09:05Z</time>
</trkpt>
<trkpt lat="48.016132" lon="11.283684">
<ele>608.974</ele>
<time>2022-05-26T11:09:06Z</time>
</trkpt>
<trkpt lat="48.01614" lon="11.283751">
<ele>608.974</ele>
<time>2022-05-26T11:09:07Z</time>
</trkpt>
<trkpt lat="48.016151" lon="11.28382">
<ele>609.205</ele>
<time>2022-05-26T11:09:08Z</time>
</trkpt>
<trkpt lat="48.016159" lon="11.283883">
<ele>609.399</ele>
<time>2022-05-26T11:09:09Z</time>
</trkpt>
<trkpt lat="48.016167" lon="11.283943">
<ele>609.562</ele>
<time>2022-05-26T11:09:10Z</time>
</trkpt>
<trkpt lat="48.016167" lon="11.283995">
<ele>609.69</ele>
<time>2022-05-26T11:09:11Z</time>
</trkpt>
<trkpt lat="48.016155" lon="11.284032">
<ele>609.771</ele>
<time>2022-05-26T11:09:12Z</time>
</trkpt>
<trkpt lat="48.016132" lon="11.284048">
<ele>610.044</ele>
<time>2022-05-26T11:09:13Z</time>
</trkpt>
<trkpt lat="48.016109" lon="11.284048">
<ele>610.261</ele>
<time>2022-05-26T11:09:14Z</time>
</trkpt>
<trkpt lat="48.016098" lon="11.284042">
<ele>610.43</ele>
<time>2022-05-26T11:09:15Z</time>
</trkpt>
<trkpt lat="48.016079" lon="11.284035">
<ele>610.548</ele>
<time>2022-05-26T11:09:16Z</time>
</trkpt>
<trkpt lat="48.01606" lon="11.284026">
<ele>610.634</ele>
<time>2022-05-26T11:09:17Z</time>
</trkpt>
<trkpt lat="48.016041" lon="11.284021">
<ele>610.72</ele>
<time>2022-05-26T11:09:18Z</time>
</trkpt>
<trkpt lat="48.016026" lon="11.284015">
<ele>610.783</ele>
<time>2022-05-26T11:09:19Z</time>
</trkpt>
<trkpt lat="48.016006" lon="11.284007">
<ele>610.816</ele>
<time>2022-05-26T11:09:20Z</time>
</trkpt>
<trkpt lat="48.015991" lon="11.284">
<ele>610.816</ele>
<time>2022-05-26T11:09:21Z</time>
</trkpt>
<trkpt lat="48.015995" lon="11.283998">
<ele>610.816</ele>
<time>2022-05-26T11:09:22Z</time>
</trkpt>
<trkpt lat="48.015991" lon="11.283997">
<ele>610.816</ele>
<time>2022-05-26T11:09:23Z</time>
</trkpt>
<trkpt lat="48.015991" lon="11.283995">
<ele>610.816</ele>
<time>2022-05-26T11:09:24Z</time>
</trkpt>
<trkpt lat="48.015965" lon="11.283978">
<ele>610.816</ele>
<time>2022-05-26T11:10:33Z</time>
</trkpt>
<trkpt lat="48.015957" lon="11.283978">
<ele>610.702</ele>
<time>2022-05-26T11:10:34Z</time>
</trkpt>
<trkpt lat="48.015953" lon="11.283978">
<ele>610.607</ele>
<time>2022-05-26T11:10:35Z</time>
</trkpt>
<trkpt lat="48.015949" lon="11.283979">
<ele>610.509</ele>
<time>2022-05-26T11:10:36Z</time>
</trkpt>
<trkpt lat="48.015938" lon="11.283979">
<ele>610.409</ele>
<time>2022-05-26T11:10:37Z</time>
</trkpt>
<trkpt lat="48.015926" lon="11.283978">
<ele>610.311</ele>
<time>2022-05-26T11:10:38Z</time>
</trkpt>
<trkpt lat="48.015911" lon="11.283974">
<ele>610.297</ele>
<time>2022-05-26T11:10:39Z</time>
</trkpt>
<trkpt lat="48.0159" lon="11.283969">
<ele>610.291</ele>
<time>2022-05-26T11:10:40Z</time>
</trkpt>
<trkpt lat="48.015881" lon="11.283963">
<ele>610.29</ele>
<time>2022-05-26T11:10:41Z</time>
</trkpt>
<trkpt lat="48.015865" lon="11.283955">
<ele>610.29</ele>
<time>2022-05-26T11:10:42Z</time>
</trkpt>
<trkpt lat="48.015846" lon="11.283948">
<ele>610.29</ele>
<time>2022-05-26T11:10:43Z</time>
</trkpt>
<trkpt lat="48.015827" lon="11.28394">
<ele>610.29</ele>
<time>2022-05-26T11:10:44Z</time>
</trkpt>
<trkpt lat="48.015808" lon="11.28393">
<ele>610.29</ele>
<time>2022-05-26T11:10:45Z</time>
</trkpt>
<trkpt lat="48.015778" lon="11.283921">
<ele>610.29</ele>
<time>2022-05-26T11:10:46Z</time>
</trkpt>
<trkpt lat="48.015747" lon="11.283913">
<ele>610.29</ele>
<time>2022-05-26T11:10:47Z</time>
</trkpt>
<trkpt lat="48.01572" lon="11.283907">
<ele>610.29</ele>
<time>2022-05-26T11:10:48Z</time>
</trkpt>
<trkpt lat="48.01569" lon="11.2839">
<ele>610.29</ele>
<time>2022-05-26T11:10:49Z</time>
</trkpt>
<trkpt lat="48.015659" lon="11.28389">
<ele>610.29</ele>
<time>2022-05-26T11:10:50Z</time>
</trkpt>
<trkpt lat="48.015629" lon="11.283876">
<ele>610.29</ele>
<time>2022-05-26T11:10:51Z</time>
</trkpt>
<trkpt lat="48.015598" lon="11.283865">
<ele>610.29</ele>
<time>2022-05-26T11:10:52Z</time>
</trkpt>
<trkpt lat="48.01556" lon="11.283855">
<ele>610.29</ele>
<time>2022-05-26T11:10:53Z</time>
</trkpt>
<trkpt lat="48.015526" lon="11.283845">
<ele>610.29</ele>
<time>2022-05-26T11:10:54Z</time>
</trkpt>
<trkpt lat="48.015488" lon="11.283835">
<ele>610.29</ele>
<time>2022-05-26T11:10:55Z</time>
</trkpt>
<trkpt lat="48.015461" lon="11.283823">
<ele>610.29</ele>
<time>2022-05-26T11:10:56Z</time>
</trkpt>
<trkpt lat="48.01543" lon="11.283814">
<ele>610.29</ele>
<time>2022-05-26T11:10:57Z</time>
</trkpt>
<trkpt lat="48.0154" lon="11.283808">
<ele>610.29</ele>
<time>2022-05-26T11:10:58Z</time>
</trkpt>
<trkpt lat="48.015358" lon="11.283793">
<ele>610.29</ele>
<time>2022-05-26T11:10:59Z</time>
</trkpt>
<trkpt lat="48.015324" lon="11.283774">
<ele>610.29</ele>
<time>2022-05-26T11:11:00Z</time>
</trkpt>
<trkpt lat="48.015285" lon="11.28376">
<ele>610.29</ele>
<time>2022-05-26T11:11:01Z</time>
</trkpt>
<trkpt lat="48.015247" lon="11.283747">
<ele>610.29</ele>
<time>2022-05-26T11:11:02Z</time>
</trkpt>
<trkpt lat="48.015205" lon="11.283729">
<ele>610.29</ele>
<time>2022-05-26T11:11:03Z</time>
</trkpt>
<trkpt lat="48.015163" lon="11.283711">
<ele>610.29</ele>
<time>2022-05-26T11:11:04Z</time>
</trkpt>
<trkpt lat="48.015121" lon="11.283695">
<ele>610.29</ele>
<time>2022-05-26T11:11:05Z</time>
</trkpt>
<trkpt lat="48.015079" lon="11.283678">
<ele>610.29</ele>
<time>2022-05-26T11:11:06Z</time>
</trkpt>
<trkpt lat="48.015034" lon="11.283664">
<ele>610.29</ele>
<time>2022-05-26T11:11:07Z</time>
</trkpt>
<trkpt lat="48.014992" lon="11.283648">
<ele>610.29</ele>
<time>2022-05-26T11:11:08Z</time>
</trkpt>
<trkpt lat="48.01495" lon="11.283629">
<ele>610.29</ele>
<time>2022-05-26T11:11:09Z</time>
</trkpt>
<trkpt lat="48.014904" lon="11.283613">
<ele>610.29</ele>
<time>2022-05-26T11:11:10Z</time>
</trkpt>
<trkpt lat="48.014858" lon="11.283594">
<ele>610.29</ele>
<time>2022-05-26T11:11:11Z</time>
</trkpt>
<trkpt lat="48.014809" lon="11.283575">
<ele>610.29</ele>
<time>2022-05-26T11:11:12Z</time>
</trkpt>
<trkpt lat="48.014767" lon="11.283555">
<ele>610.29</ele>
<time>2022-05-26T11:11:13Z</time>
</trkpt>
<trkpt lat="48.014717" lon="11.283538">
<ele>610.29</ele>
<time>2022-05-26T11:11:14Z</time>
</trkpt>
<trkpt lat="48.014671" lon="11.283522">
<ele>610.29</ele>
<time>2022-05-26T11:11:15Z</time>
</trkpt>
<trkpt lat="48.014629" lon="11.2835">
<ele>610.29</ele>
<time>2022-05-26T11:11:16Z</time>
</trkpt>
<trkpt lat="48.01458" lon="11.283482">
<ele>610.29</ele>
<time>2022-05-26T11:11:17Z</time>
</trkpt>
<trkpt lat="48.014538" lon="11.283463">
<ele>610.29</ele>
<time>2022-05-26T11:11:18Z</time>
</trkpt>
<trkpt lat="48.014492" lon="11.283456">
<ele>610.047</ele>
<time>2022-05-26T11:11:19Z</time>
</trkpt>
<trkpt lat="48.014439" lon="11.283462">
<ele>609.853</ele>
<time>2022-05-26T11:11:20Z</time>
</trkpt>
<trkpt lat="48.014397" lon="11.283479">
<ele>609.706</ele>
<time>2022-05-26T11:11:21Z</time>
</trkpt>
<trkpt lat="48.014351" lon="11.283504">
<ele>609.597</ele>
<time>2022-05-26T11:11:22Z</time>
</trkpt>
<trkpt lat="48.014309" lon="11.283537">
<ele>609.521</ele>
<time>2022-05-26T11:11:23Z</time>
</trkpt>
<trkpt lat="48.014263" lon="11.283566">
<ele>609.474</ele>
<time>2022-05-26T11:11:24Z</time>
</trkpt>
<trkpt lat="48.014217" lon="11.283611">
<ele>609.436</ele>
<time>2022-05-26T11:11:25Z</time>
</trkpt>
<trkpt lat="48.014175" lon="11.283644">
<ele>609.412</ele>
<time>2022-05-26T11:11:26Z</time>
</trkpt>
<trkpt lat="48.01413" lon="11.283678">
<ele>609.412</ele>
<time>2022-05-26T11:11:27Z</time>
</trkpt>
<trkpt lat="48.014084" lon="11.283713">
<ele>609.412</ele>
<time>2022-05-26T11:11:28Z</time>
</trkpt>
<trkpt lat="48.014046" lon="11.283749">
<ele>609.412</ele>
<time>2022-05-26T11:11:29Z</time>
</trkpt>
<trkpt lat="48.014004" lon="11.283782">
<ele>609.412</ele>
<time>2022-05-26T11:11:30Z</time>
</trkpt>
<trkpt lat="48.013958" lon="11.283814">
<ele>609.412</ele>
<time>2022-05-26T11:11:31Z</time>
</trkpt>
<trkpt lat="48.013916" lon="11.28385">
<ele>609.412</ele>
<time>2022-05-26T11:11:32Z</time>
</trkpt>
<trkpt lat="48.013878" lon="11.283883">
<ele>609.412</ele>
<time>2022-05-26T11:11:33Z</time>
</trkpt>
<trkpt lat="48.013836" lon="11.283918">
<ele>609.412</ele>
<time>2022-05-26T11:11:34Z</time>
</trkpt>
<trkpt lat="48.013794" lon="11.283952">
<ele>609.412</ele>
<time>2022-05-26T11:11:35Z</time>
</trkpt>
<trkpt lat="48.013752" lon="11.283983">
<ele>609.412</ele>
<time>2022-05-26T11:11:36Z</time>
</trkpt>
<trkpt lat="48.01371" lon="11.284017">
<ele>609.412</ele>
<time>2022-05-26T11:11:37Z</time>
</trkpt>
<trkpt lat="48.01366" lon="11.284046">
<ele>609.412</ele>
<time>2022-05-26T11:11:38Z</time>
</trkpt>
<trkpt lat="48.013622" lon="11.284081">
<ele>609.412</ele>
<time>2022-05-26T11:11:39Z</time>
</trkpt>
<trkpt lat="48.013577" lon="11.284116">
<ele>609.412</ele>
<time>2022-05-26T11:11:40Z</time>
</trkpt>
<trkpt lat="48.013531" lon="11.284149">
<ele>609.412</ele>
<time>2022-05-26T11:11:41Z</time>
</trkpt>
<trkpt lat="48.013489" lon="11.284186">
<ele>609.412</ele>
<time>2022-05-26T11:11:42Z</time>
</trkpt>
<trkpt lat="48.013447" lon="11.284225">
<ele>609.412</ele>
<time>2022-05-26T11:11:43Z</time>
</trkpt>
<trkpt lat="48.013405" lon="11.284263">
<ele>609.412</ele>
<time>2022-05-26T11:11:44Z</time>
</trkpt>
<trkpt lat="48.013363" lon="11.284305">
<ele>609.412</ele>
<time>2022-05-26T11:11:45Z</time>
</trkpt>
<trkpt lat="48.013321" lon="11.28435">
<ele>609.648</ele>
<time>2022-05-26T11:11:46Z</time>
</trkpt>
<trkpt lat="48.013283" lon="11.284396">
<ele>609.845</ele>
<time>2022-05-26T11:11:47Z</time>
</trkpt>
<trkpt lat="48.013245" lon="11.284443">
<ele>610.006</ele>
<time>2022-05-26T11:11:48Z</time>
</trkpt>
<trkpt lat="48.013206" lon="11.284487">
<ele>610.137</ele>
<time>2022-05-26T11:11:49Z</time>
</trkpt>
<trkpt lat="48.013168" lon="11.284532">
<ele>610.236</ele>
<time>2022-05-26T11:11:50Z</time>
</trkpt>
<trkpt lat="48.013134" lon="11.284576">
<ele>610.309</ele>
<time>2022-05-26T11:11:51Z</time>
</trkpt>
<trkpt lat="48.0131" lon="11.284623">
<ele>610.355</ele>
<time>2022-05-26T11:11:52Z</time>
</trkpt>
<trkpt lat="48.013062" lon="11.284669">
<ele>610.377</ele>
<time>2022-05-26T11:11:53Z</time>
</trkpt>
<trkpt lat="48.013027" lon="11.284717">
<ele>610.609</ele>
<time>2022-05-26T11:11:54Z</time>
</trkpt>
<trkpt lat="48.012993" lon="11.284767">
<ele>610.776</ele>
<time>2022-05-26T11:11:55Z</time>
</trkpt>
<trkpt lat="48.012962" lon="11.284815">
<ele>610.949</ele>
<time>2022-05-26T11:11:56Z</time>
</trkpt>
<trkpt lat="48.012932" lon="11.284865">
<ele>611.087</ele>
<time>2022-05-26T11:11:57Z</time>
</trkpt>
<trkpt lat="48.012901" lon="11.284916">
<ele>611.191</ele>
<time>2022-05-26T11:11:58Z</time>
</trkpt>
<trkpt lat="48.012871" lon="11.284966">
<ele>611.269</ele>
<time>2022-05-26T11:11:59Z</time>
</trkpt>
<trkpt lat="48.01284" lon="11.285021">
<ele>611.315</ele>
<time>2022-05-26T11:12:00Z</time>
</trkpt>
<trkpt lat="48.01281" lon="11.285075">
<ele>611.577</ele>
<time>2022-05-26T11:12:01Z</time>
</trkpt>
<trkpt lat="48.012779" lon="11.285128">
<ele>611.795</ele>
<time>2022-05-26T11:12:02Z</time>
</trkpt>
<trkpt lat="48.012753" lon="11.285184">
<ele>611.95</ele>
<time>2022-05-26T11:12:03Z</time>
</trkpt>
<trkpt lat="48.012726" lon="11.28524">
<ele>612.041</ele>
<time>2022-05-26T11:12:04Z</time>
</trkpt>
<trkpt lat="48.012695" lon="11.285299">
<ele>612.382</ele>
<time>2022-05-26T11:12:05Z</time>
</trkpt>
<trkpt lat="48.012669" lon="11.285362">
<ele>612.67</ele>
<time>2022-05-26T11:12:06Z</time>
</trkpt>
<trkpt lat="48.012646" lon="11.285423">
<ele>613.173</ele>
<time>2022-05-26T11:12:07Z</time>
</trkpt>
<trkpt lat="48.012615" lon="11.285486">
<ele>613.563</ele>
<time>2022-05-26T11:12:08Z</time>
</trkpt>
<trkpt lat="48.012585" lon="11.28555">
<ele>613.855</ele>
<time>2022-05-26T11:12:09Z</time>
</trkpt>
<trkpt lat="48.012558" lon="11.285615">
<ele>614.042</ele>
<time>2022-05-26T11:12:10Z</time>
</trkpt>
<trkpt lat="48.012535" lon="11.285679">
<ele>614.456</ele>
<time>2022-05-26T11:12:11Z</time>
</trkpt>
<trkpt lat="48.012512" lon="11.28574">
<ele>614.768</ele>
<time>2022-05-26T11:12:12Z</time>
</trkpt>
<trkpt lat="48.012486" lon="11.285805">
<ele>615.016</ele>
<time>2022-05-26T11:12:13Z</time>
</trkpt>
<trkpt lat="48.012466" lon="11.285869">
<ele>615.112</ele>
<time>2022-05-26T11:12:14Z</time>
</trkpt>
<trkpt lat="48.012444" lon="11.285932">
<ele>615.412</ele>
<time>2022-05-26T11:12:15Z</time>
</trkpt>
<trkpt lat="48.012421" lon="11.285994">
<ele>615.674</ele>
<time>2022-05-26T11:12:16Z</time>
</trkpt>
<trkpt lat="48.012405" lon="11.286054">
<ele>615.878</ele>
<time>2022-05-26T11:12:17Z</time>
</trkpt>
<trkpt lat="48.012386" lon="11.286115">
<ele>616.026</ele>
<time>2022-05-26T11:12:18Z</time>
</trkpt>
<trkpt lat="48.012367" lon="11.286177">
<ele>616.122</ele>
<time>2022-05-26T11:12:19Z</time>
</trkpt>
<trkpt lat="48.012352" lon="11.28624">
<ele>616.182</ele>
<time>2022-05-26T11:12:20Z</time>
</trkpt>
<trkpt lat="48.012333" lon="11.286302">
<ele>616.462</ele>
<time>2022-05-26T11:12:21Z</time>
</trkpt>
<trkpt lat="48.012314" lon="11.286364">
<ele>616.685</ele>
<time>2022-05-26T11:12:22Z</time>
</trkpt>
<trkpt lat="48.012295" lon="11.286422">
<ele>616.861</ele>
<time>2022-05-26T11:12:23Z</time>
</trkpt>
<trkpt lat="48.012276" lon="11.286479">
<ele>616.98</ele>
<time>2022-05-26T11:12:24Z</time>
</trkpt>
<trkpt lat="48.01226" lon="11.286537">
<ele>617.062</ele>
<time>2022-05-26T11:12:25Z</time>
</trkpt>
<trkpt lat="48.012241" lon="11.2866">
<ele>617.143</ele>
<time>2022-05-26T11:12:26Z</time>
</trkpt>
<trkpt lat="48.012226" lon="11.286663">
<ele>617.195</ele>
<time>2022-05-26T11:12:27Z</time>
</trkpt>
<trkpt lat="48.012215" lon="11.286726">
<ele>617.456</ele>
<time>2022-05-26T11:12:28Z</time>
</trkpt>
<trkpt lat="48.012199" lon="11.286792">
<ele>617.716</ele>
<time>2022-05-26T11:12:29Z</time>
</trkpt>
<trkpt lat="48.012188" lon="11.286857">
<ele>617.881</ele>
<time>2022-05-26T11:12:30Z</time>
</trkpt>
<trkpt lat="48.012177" lon="11.28692">
<ele>617.981</ele>
<time>2022-05-26T11:12:31Z</time>
</trkpt>
<trkpt lat="48.012165" lon="11.28698">
<ele>618.299</ele>
<time>2022-05-26T11:12:32Z</time>
</trkpt>
<trkpt lat="48.012154" lon="11.28704">
<ele>618.529</ele>
<time>2022-05-26T11:12:33Z</time>
</trkpt>
<trkpt lat="48.012142" lon="11.287106">
<ele>618.698</ele>
<time>2022-05-26T11:12:34Z</time>
</trkpt>
<trkpt lat="48.012131" lon="11.28717">
<ele>618.819</ele>
<time>2022-05-26T11:12:35Z</time>
</trkpt>
<trkpt lat="48.012123" lon="11.287233">
<ele>618.921</ele>
<time>2022-05-26T11:12:36Z</time>
</trkpt>
<trkpt lat="48.012112" lon="11.287298">
<ele>618.99</ele>
<time>2022-05-26T11:12:37Z</time>
</trkpt>
<trkpt lat="48.0121" lon="11.287363">
<ele>619.277</ele>
<time>2022-05-26T11:12:38Z</time>
</trkpt>
<trkpt lat="48.012093" lon="11.28743">
<ele>619.501</ele>
<time>2022-05-26T11:12:39Z</time>
</trkpt>
<trkpt lat="48.012085" lon="11.287493">
<ele>619.729</ele>
<time>2022-05-26T11:12:40Z</time>
</trkpt>
<trkpt lat="48.012074" lon="11.287557">
<ele>619.851</ele>
<time>2022-05-26T11:12:41Z</time>
</trkpt>
<trkpt lat="48.01207" lon="11.287621">
<ele>619.928</ele>
<time>2022-05-26T11:12:42Z</time>
</trkpt>
<trkpt lat="48.012062" lon="11.287678">
<ele>619.98</ele>
<time>2022-05-26T11:12:43Z</time>
</trkpt>
<trkpt lat="48.012058" lon="11.287736">
<ele>620.009</ele>
<time>2022-05-26T11:12:44Z</time>
</trkpt>
<trkpt lat="48.012054" lon="11.287793">
<ele>620.031</ele>
<time>2022-05-26T11:12:45Z</time>
</trkpt>
<trkpt lat="48.012051" lon="11.287851">
<ele>620.031</ele>
<time>2022-05-26T11:12:46Z</time>
</trkpt>
<trkpt lat="48.012043" lon="11.28791">
<ele>620.31</ele>
<time>2022-05-26T11:12:47Z</time>
</trkpt>
<trkpt lat="48.012035" lon="11.287967">
<ele>620.531</ele>
<time>2022-05-26T11:12:48Z</time>
</trkpt>
<trkpt lat="48.012028" lon="11.288021">
<ele>620.7</ele>
<time>2022-05-26T11:12:49Z</time>
</trkpt>
<trkpt lat="48.012028" lon="11.288078">
<ele>620.826</ele>
<time>2022-05-26T11:12:50Z</time>
</trkpt>
<trkpt lat="48.012024" lon="11.288138">
<ele>620.92</ele>
<time>2022-05-26T11:12:51Z</time>
</trkpt>
<trkpt lat="48.01202" lon="11.288201">
<ele>620.973</ele>
<time>2022-05-26T11:12:52Z</time>
</trkpt>
<trkpt lat="48.012016" lon="11.288261">
<ele>620.997</ele>
<time>2022-05-26T11:12:53Z</time>
</trkpt>
<trkpt lat="48.012009" lon="11.288321">
<ele>621.278</ele>
<time>2022-05-26T11:12:54Z</time>
</trkpt>
<trkpt lat="48.012005" lon="11.288379">
<ele>621.477</ele>
<time>2022-05-26T11:12:55Z</time>
</trkpt>
<trkpt lat="48.011993" lon="11.288438">
<ele>621.683</ele>
<time>2022-05-26T11:12:56Z</time>
</trkpt>
<trkpt lat="48.01199" lon="11.288499">
<ele>621.845</ele>
<time>2022-05-26T11:12:57Z</time>
</trkpt>
<trkpt lat="48.011986" lon="11.288562">
<ele>621.966</ele>
<time>2022-05-26T11:12:58Z</time>
</trkpt>
<trkpt lat="48.011978" lon="11.288627">
<ele>622.053</ele>
<time>2022-05-26T11:12:59Z</time>
</trkpt>
<trkpt lat="48.011971" lon="11.28869">
<ele>622.11</ele>
<time>2022-05-26T11:13:00Z</time>
</trkpt>
<trkpt lat="48.011967" lon="11.288754">
<ele>622.139</ele>
<time>2022-05-26T11:13:01Z</time>
</trkpt>
<trkpt lat="48.011963" lon="11.288816">
<ele>622.139</ele>
<time>2022-05-26T11:13:02Z</time>
</trkpt>
<trkpt lat="48.011955" lon="11.28888">
<ele>622.384</ele>
<time>2022-05-26T11:13:03Z</time>
</trkpt>
<trkpt lat="48.011948" lon="11.288943">
<ele>622.574</ele>
<time>2022-05-26T11:13:04Z</time>
</trkpt>
<trkpt lat="48.01194" lon="11.289008">
<ele>622.704</ele>
<time>2022-05-26T11:13:05Z</time>
</trkpt>
<trkpt lat="48.011932" lon="11.289075">
<ele>622.844</ele>
<time>2022-05-26T11:13:06Z</time>
</trkpt>
<trkpt lat="48.011929" lon="11.289142">
<ele>622.952</ele>
<time>2022-05-26T11:13:07Z</time>
</trkpt>
<trkpt lat="48.011925" lon="11.289207">
<ele>623.031</ele>
<time>2022-05-26T11:13:08Z</time>
</trkpt>
<trkpt lat="48.011917" lon="11.289269">
<ele>623.081</ele>
<time>2022-05-26T11:13:09Z</time>
</trkpt>
<trkpt lat="48.011906" lon="11.289335">
<ele>623.105</ele>
<time>2022-05-26T11:13:10Z</time>
</trkpt>
<trkpt lat="48.011898" lon="11.289402">
<ele>623.337</ele>
<time>2022-05-26T11:13:11Z</time>
</trkpt>
<trkpt lat="48.01189" lon="11.289467">
<ele>623.518</ele>
<time>2022-05-26T11:13:12Z</time>
</trkpt>
<trkpt lat="48.011883" lon="11.289534">
<ele>623.657</ele>
<time>2022-05-26T11:13:13Z</time>
</trkpt>
<trkpt lat="48.011871" lon="11.289598">
<ele>623.764</ele>
<time>2022-05-26T11:13:14Z</time>
</trkpt>
<trkpt lat="48.011864" lon="11.289666">
<ele>623.837</ele>
<time>2022-05-26T11:13:15Z</time>
</trkpt>
<trkpt lat="48.011852" lon="11.289735">
<ele>623.914</ele>
<time>2022-05-26T11:13:16Z</time>
</trkpt>
<trkpt lat="48.011845" lon="11.2898">
<ele>623.961</ele>
<time>2022-05-26T11:13:17Z</time>
</trkpt>
<trkpt lat="48.011837" lon="11.289868">
<ele>623.984</ele>
<time>2022-05-26T11:13:18Z</time>
</trkpt>
<trkpt lat="48.011829" lon="11.289936">
<ele>623.984</ele>
<time>2022-05-26T11:13:19Z</time>
</trkpt>
<trkpt lat="48.011818" lon="11.290007">
<ele>623.984</ele>
<time>2022-05-26T11:13:20Z</time>
</trkpt>
<trkpt lat="48.011806" lon="11.290074">
<ele>623.984</ele>
<time>2022-05-26T11:13:21Z</time>
</trkpt>
<trkpt lat="48.011795" lon="11.290143">
<ele>623.984</ele>
<time>2022-05-26T11:13:22Z</time>
</trkpt>
<trkpt lat="48.011784" lon="11.290212">
<ele>623.984</ele>
<time>2022-05-26T11:13:23Z</time>
</trkpt>
<trkpt lat="48.011772" lon="11.290279">
<ele>623.984</ele>
<time>2022-05-26T11:13:24Z</time>
</trkpt>
<trkpt lat="48.011765" lon="11.290348">
<ele>623.984</ele>
<time>2022-05-26T11:13:25Z</time>
</trkpt>
<trkpt lat="48.011749" lon="11.290417">
<ele>623.984</ele>
<time>2022-05-26T11:13:26Z</time>
</trkpt>
<trkpt lat="48.011734" lon="11.290486">
<ele>623.984</ele>
<time>2022-05-26T11:13:27Z</time>
</trkpt>
<trkpt lat="48.011723" lon="11.290556">
<ele>623.984</ele>
<time>2022-05-26T11:13:28Z</time>
</trkpt>
<trkpt lat="48.011707" lon="11.290626">
<ele>623.984</ele>
<time>2022-05-26T11:13:29Z</time>
</trkpt>
<trkpt lat="48.011692" lon="11.290692">
<ele>623.984</ele>
<time>2022-05-26T11:13:30Z</time>
</trkpt>
<trkpt lat="48.011669" lon="11.290757">
<ele>623.984</ele>
<time>2022-05-26T11:13:31Z</time>
</trkpt>
<trkpt lat="48.011654" lon="11.29082">
<ele>623.984</ele>
<time>2022-05-26T11:13:32Z</time>
</trkpt>
<trkpt lat="48.011635" lon="11.290883">
<ele>623.984</ele>
<time>2022-05-26T11:13:33Z</time>
</trkpt>
<trkpt lat="48.011616" lon="11.290945">
<ele>623.984</ele>
<time>2022-05-26T11:13:34Z</time>
</trkpt>
<trkpt lat="48.011597" lon="11.291007">
<ele>624.196</ele>
<time>2022-05-26T11:13:35Z</time>
</trkpt>
<trkpt lat="48.01157" lon="11.291067">
<ele>624.397</ele>
<time>2022-05-26T11:13:36Z</time>
</trkpt>
<trkpt lat="48.011551" lon="11.291128">
<ele>624.565</ele>
<time>2022-05-26T11:13:37Z</time>
</trkpt>
<trkpt lat="48.011524" lon="11.29119">
<ele>624.7</ele>
<time>2022-05-26T11:13:38Z</time>
</trkpt>
<trkpt lat="48.011501" lon="11.291251">
<ele>624.804</ele>
<time>2022-05-26T11:13:39Z</time>
</trkpt>
<trkpt lat="48.011471" lon="11.291312">
<ele>624.88</ele>
<time>2022-05-26T11:13:40Z</time>
</trkpt>
<trkpt lat="48.01144" lon="11.291368">
<ele>624.927</ele>
<time>2022-05-26T11:13:41Z</time>
</trkpt>
<trkpt lat="48.011414" lon="11.291427">
<ele>624.95</ele>
<time>2022-05-26T11:13:42Z</time>
</trkpt>
<trkpt lat="48.011383" lon="11.291487">
<ele>624.95</ele>
<time>2022-05-26T11:13:43Z</time>
</trkpt>
<trkpt lat="48.011356" lon="11.291545">
<ele>624.95</ele>
<time>2022-05-26T11:13:44Z</time>
</trkpt>
<trkpt lat="48.011326" lon="11.291603">
<ele>624.95</ele>
<time>2022-05-26T11:13:45Z</time>
</trkpt>
<trkpt lat="48.011295" lon="11.29166">
<ele>624.95</ele>
<time>2022-05-26T11:13:46Z</time>
</trkpt>
<trkpt lat="48.011269" lon="11.291718">
<ele>624.95</ele>
<time>2022-05-26T11:13:47Z</time>
</trkpt>
<trkpt lat="48.011242" lon="11.291777">
<ele>624.95</ele>
<time>2022-05-26T11:13:48Z</time>
</trkpt>
<trkpt lat="48.011211" lon="11.291832">
<ele>624.95</ele>
<time>2022-05-26T11:13:49Z</time>
</trkpt>
<trkpt lat="48.011185" lon="11.291888">
<ele>625.211</ele>
<time>2022-05-26T11:13:50Z</time>
</trkpt>
<trkpt lat="48.011154" lon="11.291945">
<ele>625.415</ele>
<time>2022-05-26T11:13:51Z</time>
</trkpt>
<trkpt lat="48.011127" lon="11.292002">
<ele>625.573</ele>
<time>2022-05-26T11:13:52Z</time>
</trkpt>
<trkpt lat="48.011101" lon="11.292058">
<ele>625.687</ele>
<time>2022-05-26T11:13:53Z</time>
</trkpt>
<trkpt lat="48.011074" lon="11.292115">
<ele>625.773</ele>
<time>2022-05-26T11:13:54Z</time>
</trkpt>
<trkpt lat="48.011047" lon="11.292171">
<ele>625.834</ele>
<time>2022-05-26T11:13:55Z</time>
</trkpt>
<trkpt lat="48.011017" lon="11.29223">
<ele>625.889</ele>
<time>2022-05-26T11:13:56Z</time>
</trkpt>
<trkpt lat="48.01099" lon="11.292285">
<ele>626.13</ele>
<time>2022-05-26T11:13:57Z</time>
</trkpt>
<trkpt lat="48.010967" lon="11.292341">
<ele>626.381</ele>
<time>2022-05-26T11:13:58Z</time>
</trkpt>
<trkpt lat="48.010941" lon="11.292397">
<ele>626.534</ele>
<time>2022-05-26T11:13:59Z</time>
</trkpt>
<trkpt lat="48.010914" lon="11.292452">
<ele>626.643</ele>
<time>2022-05-26T11:14:00Z</time>
</trkpt>
<trkpt lat="48.010883" lon="11.292508">
<ele>626.724</ele>
<time>2022-05-26T11:14:01Z</time>
</trkpt>
<trkpt lat="48.010857" lon="11.292567">
<ele>626.773</ele>
<time>2022-05-26T11:14:02Z</time>
</trkpt>
<trkpt lat="48.010826" lon="11.292624">
<ele>626.791</ele>
<time>2022-05-26T11:14:03Z</time>
</trkpt>
<trkpt lat="48.010799" lon="11.292682">
<ele>626.795</ele>
<time>2022-05-26T11:14:04Z</time>
</trkpt>
<trkpt lat="48.010773" lon="11.292739">
<ele>626.795</ele>
<time>2022-05-26T11:14:05Z</time>
</trkpt>
<trkpt lat="48.010742" lon="11.292796">
<ele>626.795</ele>
<time>2022-05-26T11:14:06Z</time>
</trkpt>
<trkpt lat="48.010715" lon="11.292853">
<ele>626.795</ele>
<time>2022-05-26T11:14:07Z</time>
</trkpt>
<trkpt lat="48.010685" lon="11.292912">
<ele>626.795</ele>
<time>2022-05-26T11:14:08Z</time>
</trkpt>
<trkpt lat="48.010658" lon="11.292968">
<ele>626.795</ele>
<time>2022-05-26T11:14:09Z</time>
</trkpt>
<trkpt lat="48.010628" lon="11.293025">
<ele>627.058</ele>
<time>2022-05-26T11:14:10Z</time>
</trkpt>
<trkpt lat="48.010601" lon="11.293081">
<ele>627.263</ele>
<time>2022-05-26T11:14:11Z</time>
</trkpt>
<trkpt lat="48.010574" lon="11.293139">
<ele>627.421</ele>
<time>2022-05-26T11:14:12Z</time>
</trkpt>
<trkpt lat="48.010548" lon="11.293196">
<ele>627.534</ele>
<time>2022-05-26T11:14:13Z</time>
</trkpt>
<trkpt lat="48.010521" lon="11.293255">
<ele>627.619</ele>
<time>2022-05-26T11:14:14Z</time>
</trkpt>
<trkpt lat="48.010494" lon="11.29331">
<ele>627.68</ele>
<time>2022-05-26T11:14:15Z</time>
</trkpt>
<trkpt lat="48.010464" lon="11.293365">
<ele>627.734</ele>
<time>2022-05-26T11:14:16Z</time>
</trkpt>
<trkpt lat="48.010441" lon="11.293416">
<ele>627.761</ele>
<time>2022-05-26T11:14:17Z</time>
</trkpt>
<trkpt lat="48.010414" lon="11.293473">
<ele>627.761</ele>
<time>2022-05-26T11:14:18Z</time>
</trkpt>
<trkpt lat="48.010387" lon="11.293529">
<ele>628.03</ele>
<time>2022-05-26T11:14:19Z</time>
</trkpt>
<trkpt lat="48.010361" lon="11.293587">
<ele>628.243</ele>
<time>2022-05-26T11:14:20Z</time>
</trkpt>
<trkpt lat="48.01033" lon="11.293645">
<ele>628.402</ele>
<time>2022-05-26T11:14:21Z</time>
</trkpt>
<trkpt lat="48.010303" lon="11.293703">
<ele>628.525</ele>
<time>2022-05-26T11:14:22Z</time>
</trkpt>
<trkpt lat="48.010277" lon="11.293759">
<ele>628.606</ele>
<time>2022-05-26T11:14:23Z</time>
</trkpt>
<trkpt lat="48.01025" lon="11.29382">
<ele>628.661</ele>
<time>2022-05-26T11:14:24Z</time>
</trkpt>
<trkpt lat="48.010223" lon="11.293881">
<ele>628.703</ele>
<time>2022-05-26T11:14:25Z</time>
</trkpt>
<trkpt lat="48.010197" lon="11.29394">
<ele>628.728</ele>
<time>2022-05-26T11:14:26Z</time>
</trkpt>
<trkpt lat="48.010166" lon="11.294002">
<ele>628.728</ele>
<time>2022-05-26T11:14:27Z</time>
</trkpt>
<trkpt lat="48.010136" lon="11.29406">
<ele>628.728</ele>
<time>2022-05-26T11:14:28Z</time>
</trkpt>
<trkpt lat="48.010109" lon="11.294118">
<ele>628.728</ele>
<time>2022-05-26T11:14:29Z</time>
</trkpt>
<trkpt lat="48.01009" lon="11.294173">
<ele>628.989</ele>
<time>2022-05-26T11:14:30Z</time>
</trkpt>
<trkpt lat="48.010063" lon="11.294229">
<ele>629.192</ele>
<time>2022-05-26T11:14:31Z</time>
</trkpt>
<trkpt lat="48.010036" lon="11.294285">
<ele>629.345</ele>
<time>2022-05-26T11:14:32Z</time>
</trkpt>
<trkpt lat="48.010017" lon="11.294344">
<ele>629.461</ele>
<time>2022-05-26T11:14:33Z</time>
</trkpt>
<trkpt lat="48.009995" lon="11.294405">
<ele>629.547</ele>
<time>2022-05-26T11:14:34Z</time>
</trkpt>
<trkpt lat="48.009972" lon="11.29447">
<ele>629.609</ele>
<time>2022-05-26T11:14:35Z</time>
</trkpt>
<trkpt lat="48.009949" lon="11.294532">
<ele>629.668</ele>
<time>2022-05-26T11:14:36Z</time>
</trkpt>
<trkpt lat="48.009926" lon="11.294595">
<ele>629.695</ele>
<time>2022-05-26T11:14:37Z</time>
</trkpt>
<trkpt lat="48.009903" lon="11.294661">
<ele>629.695</ele>
<time>2022-05-26T11:14:38Z</time>
</trkpt>
<trkpt lat="48.009876" lon="11.294725">
<ele>629.694</ele>
<time>2022-05-26T11:14:39Z</time>
</trkpt>
<trkpt lat="48.009853" lon="11.29479">
<ele>629.694</ele>
<time>2022-05-26T11:14:40Z</time>
</trkpt>
<trkpt lat="48.00983" lon="11.294855">
<ele>629.695</ele>
<time>2022-05-26T11:14:41Z</time>
</trkpt>
<trkpt lat="48.009808" lon="11.294918">
<ele>629.695</ele>
<time>2022-05-26T11:14:42Z</time>
</trkpt>
<trkpt lat="48.009785" lon="11.294981">
<ele>629.695</ele>
<time>2022-05-26T11:14:43Z</time>
</trkpt>
<trkpt lat="48.009762" lon="11.295046">
<ele>629.695</ele>
<time>2022-05-26T11:14:44Z</time>
</trkpt>
<trkpt lat="48.009739" lon="11.295109">
<ele>629.908</ele>
<time>2022-05-26T11:14:45Z</time>
</trkpt>
<trkpt lat="48.009712" lon="11.295172">
<ele>630.111</ele>
<time>2022-05-26T11:14:46Z</time>
</trkpt>
<trkpt lat="48.009686" lon="11.295233">
<ele>630.278</ele>
<time>2022-05-26T11:14:47Z</time>
</trkpt>
<trkpt lat="48.009655" lon="11.295293">
<ele>630.413</ele>
<time>2022-05-26T11:14:48Z</time>
</trkpt>
<trkpt lat="48.009624" lon="11.295356">
<ele>630.517</ele>
<time>2022-05-26T11:14:49Z</time>
</trkpt>
<trkpt lat="48.009598" lon="11.295417">
<ele>630.592</ele>
<time>2022-05-26T11:14:50Z</time>
</trkpt>
<trkpt lat="48.009563" lon="11.29548">
<ele>630.639</ele>
<time>2022-05-26T11:14:51Z</time>
</trkpt>
<trkpt lat="48.009533" lon="11.295538">
<ele>630.661</ele>
<time>2022-05-26T11:14:52Z</time>
</trkpt>
<trkpt lat="48.009499" lon="11.295597">
<ele>630.661</ele>
<time>2022-05-26T11:14:53Z</time>
</trkpt>
<trkpt lat="48.009468" lon="11.295653">
<ele>630.661</ele>
<time>2022-05-26T11:14:54Z</time>
</trkpt>
<trkpt lat="48.00943" lon="11.295708">
<ele>630.661</ele>
<time>2022-05-26T11:14:55Z</time>
</trkpt>
<trkpt lat="48.009399" lon="11.295756">
<ele>630.661</ele>
<time>2022-05-26T11:14:56Z</time>
</trkpt>
<trkpt lat="48.009365" lon="11.295807">
<ele>630.661</ele>
<time>2022-05-26T11:14:57Z</time>
</trkpt>
<trkpt lat="48.009327" lon="11.295858">
<ele>630.661</ele>
<time>2022-05-26T11:14:58Z</time>
</trkpt>
<trkpt lat="48.009289" lon="11.29591">
<ele>630.661</ele>
<time>2022-05-26T11:14:59Z</time>
</trkpt>
<trkpt lat="48.009254" lon="11.295963">
<ele>630.9</ele>
<time>2022-05-26T11:15:00Z</time>
</trkpt>
<trkpt lat="48.00922" lon="11.296014">
<ele>631.062</ele>
<time>2022-05-26T11:15:01Z</time>
</trkpt>
<trkpt lat="48.009182" lon="11.296066">
<ele>631.464</ele>
<time>2022-05-26T11:15:02Z</time>
</trkpt>
<trkpt lat="48.009148" lon="11.296113">
<ele>631.773</ele>
<time>2022-05-26T11:15:03Z</time>
</trkpt>
<trkpt lat="48.009113" lon="11.296162">
<ele>632.01</ele>
<time>2022-05-26T11:15:04Z</time>
</trkpt>
<trkpt lat="48.009071" lon="11.29621">
<ele>632.168</ele>
<time>2022-05-26T11:15:05Z</time>
</trkpt>
<trkpt lat="48.009037" lon="11.296255">
<ele>632.534</ele>
<time>2022-05-26T11:15:06Z</time>
</trkpt>
<trkpt lat="48.008999" lon="11.2963">
<ele>632.819</ele>
<time>2022-05-26T11:15:07Z</time>
</trkpt>
<trkpt lat="48.008972" lon="11.296336">
<ele>633.017</ele>
<time>2022-05-26T11:15:08Z</time>
</trkpt>
<trkpt lat="48.008942" lon="11.296376">
<ele>633.161</ele>
<time>2022-05-26T11:15:09Z</time>
</trkpt>
<trkpt lat="48.008915" lon="11.296422">
<ele>633.252</ele>
<time>2022-05-26T11:15:10Z</time>
</trkpt>
<trkpt lat="48.008884" lon="11.29646">
<ele>633.312</ele>
<time>2022-05-26T11:15:11Z</time>
</trkpt>
<trkpt lat="48.008858" lon="11.296502">
<ele>633.586</ele>
<time>2022-05-26T11:15:12Z</time>
</trkpt>
<trkpt lat="48.008823" lon="11.296548">
<ele>633.805</ele>
<time>2022-05-26T11:15:13Z</time>
</trkpt>
<trkpt lat="48.008793" lon="11.296592">
<ele>633.973</ele>
<time>2022-05-26T11:15:14Z</time>
</trkpt>
<trkpt lat="48.008766" lon="11.296637">
<ele>634.079</ele>
<time>2022-05-26T11:15:15Z</time>
</trkpt>
<trkpt lat="48.008736" lon="11.29668">
<ele>634.44</ele>
<time>2022-05-26T11:15:16Z</time>
</trkpt>
<trkpt lat="48.008713" lon="11.296728">
<ele>634.713</ele>
<time>2022-05-26T11:15:17Z</time>
</trkpt>
<trkpt lat="48.008694" lon="11.29677">
<ele>634.921</ele>
<time>2022-05-26T11:15:18Z</time>
</trkpt>
<trkpt lat="48.008663" lon="11.29681">
<ele>635.078</ele>
<time>2022-05-26T11:15:19Z</time>
</trkpt>
<trkpt lat="48.008633" lon="11.296856">
<ele>635.175</ele>
<time>2022-05-26T11:15:20Z</time>
</trkpt>
<trkpt lat="48.008602" lon="11.296904">
<ele>635.235</ele>
<time>2022-05-26T11:15:21Z</time>
</trkpt>
<trkpt lat="48.008579" lon="11.296947">
<ele>635.55</ele>
<time>2022-05-26T11:15:22Z</time>
</trkpt>
<trkpt lat="48.008556" lon="11.296993">
<ele>635.794</ele>
<time>2022-05-26T11:15:23Z</time>
</trkpt>
<trkpt lat="48.00853" lon="11.297047">
<ele>635.976</ele>
<time>2022-05-26T11:15:24Z</time>
</trkpt>
<trkpt lat="48.008507" lon="11.297107">
<ele>636.087</ele>
<time>2022-05-26T11:15:25Z</time>
</trkpt>
<trkpt lat="48.008484" lon="11.297158">
<ele>636.213</ele>
<time>2022-05-26T11:15:26Z</time>
</trkpt>
<trkpt lat="48.008457" lon="11.297216">
<ele>636.23</ele>
<time>2022-05-26T11:15:27Z</time>
</trkpt>
<trkpt lat="48.008434" lon="11.297278">
<ele>636.287</ele>
<time>2022-05-26T11:15:28Z</time>
</trkpt>
<trkpt lat="48.008415" lon="11.29734">
<ele>636.547</ele>
<time>2022-05-26T11:15:29Z</time>
</trkpt>
<trkpt lat="48.008385" lon="11.297395">
<ele>636.856</ele>
<time>2022-05-26T11:15:30Z</time>
</trkpt>
<trkpt lat="48.008373" lon="11.297441">
<ele>637</ele>
<time>2022-05-26T11:15:31Z</time>
</trkpt>
<trkpt lat="48.008369" lon="11.297482">
<ele>637.088</ele>
<time>2022-05-26T11:15:32Z</time>
</trkpt>
<trkpt lat="48.00835" lon="11.297533">
<ele>637.434</ele>
<time>2022-05-26T11:15:33Z</time>
</trkpt>
<trkpt lat="48.008324" lon="11.297581">
<ele>637.7</ele>
<time>2022-05-26T11:15:34Z</time>
</trkpt>
<trkpt lat="48.008301" lon="11.297637">
<ele>637.853</ele>
<time>2022-05-26T11:15:35Z</time>
</trkpt>
<trkpt lat="48.008282" lon="11.297698">
<ele>638.001</ele>
<time>2022-05-26T11:15:36Z</time>
</trkpt>
<trkpt lat="48.008266" lon="11.297765">
<ele>638.131</ele>
<time>2022-05-26T11:15:37Z</time>
</trkpt>
<trkpt lat="48.008244" lon="11.297838">
<ele>638.225</ele>
<time>2022-05-26T11:15:38Z</time>
</trkpt>
<trkpt lat="48.008221" lon="11.29791">
<ele>638.289</ele>
<time>2022-05-26T11:15:39Z</time>
</trkpt>
<trkpt lat="48.008205" lon="11.297976">
<ele>638.312</ele>
<time>2022-05-26T11:15:40Z</time>
</trkpt>
<trkpt lat="48.008183" lon="11.298041">
<ele>638.578</ele>
<time>2022-05-26T11:15:41Z</time>
</trkpt>
<trkpt lat="48.008167" lon="11.298103">
<ele>638.775</ele>
<time>2022-05-26T11:15:42Z</time>
</trkpt>
<trkpt lat="48.008152" lon="11.298167">
<ele>638.926</ele>
<time>2022-05-26T11:15:43Z</time>
</trkpt>
<trkpt lat="48.008141" lon="11.298228">
<ele>639.036</ele>
<time>2022-05-26T11:15:44Z</time>
</trkpt>
<trkpt lat="48.008121" lon="11.298289">
<ele>639.112</ele>
<time>2022-05-26T11:15:45Z</time>
</trkpt>
<trkpt lat="48.00811" lon="11.298346">
<ele>639.193</ele>
<time>2022-05-26T11:15:46Z</time>
</trkpt>
<trkpt lat="48.008099" lon="11.298398">
<ele>639.25</ele>
<time>2022-05-26T11:15:47Z</time>
</trkpt>
<trkpt lat="48.008087" lon="11.298445">
<ele>639.279</ele>
<time>2022-05-26T11:15:48Z</time>
</trkpt>
<trkpt lat="48.008076" lon="11.298491">
<ele>639.279</ele>
<time>2022-05-26T11:15:49Z</time>
</trkpt>
<trkpt lat="48.008064" lon="11.298545">
<ele>639.279</ele>
<time>2022-05-26T11:15:50Z</time>
</trkpt>
<trkpt lat="48.008057" lon="11.298599">
<ele>639.279</ele>
<time>2022-05-26T11:15:51Z</time>
</trkpt>
<trkpt lat="48.008049" lon="11.298656">
<ele>639.279</ele>
<time>2022-05-26T11:15:52Z</time>
</trkpt>
<trkpt lat="48.008038" lon="11.298705">
<ele>639.279</ele>
<time>2022-05-26T11:15:53Z</time>
</trkpt>
<trkpt lat="48.008015" lon="11.298769">
<ele>639.279</ele>
<time>2022-05-26T11:15:54Z</time>
</trkpt>
<trkpt lat="48.007992" lon="11.298836">
<ele>639.279</ele>
<time>2022-05-26T11:15:55Z</time>
</trkpt>
<trkpt lat="48.007969" lon="11.298903">
<ele>639.279</ele>
<time>2022-05-26T11:15:56Z</time>
</trkpt>
<trkpt lat="48.007954" lon="11.29898">
<ele>639.279</ele>
<time>2022-05-26T11:15:57Z</time>
</trkpt>
<trkpt lat="48.00795" lon="11.299047">
<ele>639.279</ele>
<time>2022-05-26T11:15:58Z</time>
</trkpt>
<trkpt lat="48.007938" lon="11.299104">
<ele>639.279</ele>
<time>2022-05-26T11:15:59Z</time>
</trkpt>
<trkpt lat="48.007915" lon="11.29917">
<ele>639.279</ele>
<time>2022-05-26T11:16:00Z</time>
</trkpt>
<trkpt lat="48.0079" lon="11.299249">
<ele>639.564</ele>
<time>2022-05-26T11:16:01Z</time>
</trkpt>
<trkpt lat="48.007889" lon="11.29932">
<ele>639.774</ele>
<time>2022-05-26T11:16:02Z</time>
</trkpt>
<trkpt lat="48.007885" lon="11.299398">
<ele>639.941</ele>
<time>2022-05-26T11:16:03Z</time>
</trkpt>
<trkpt lat="48.007866" lon="11.299473">
<ele>640.071</ele>
<time>2022-05-26T11:16:04Z</time>
</trkpt>
<trkpt lat="48.007851" lon="11.299552">
<ele>640.161</ele>
<time>2022-05-26T11:16:05Z</time>
</trkpt>
<trkpt lat="48.007832" lon="11.299632">
<ele>640.258</ele>
<time>2022-05-26T11:16:06Z</time>
</trkpt>
<trkpt lat="48.007816" lon="11.299709">
<ele>640.312</ele>
<time>2022-05-26T11:16:07Z</time>
</trkpt>
<trkpt lat="48.007805" lon="11.299789">
<ele>640.335</ele>
<time>2022-05-26T11:16:08Z</time>
</trkpt>
<trkpt lat="48.00779" lon="11.29987">
<ele>640.335</ele>
<time>2022-05-26T11:16:09Z</time>
</trkpt>
<trkpt lat="48.00779" lon="11.299944">
<ele>640.673</ele>
<time>2022-05-26T11:16:10Z</time>
</trkpt>
<trkpt lat="48.007782" lon="11.30001">
<ele>640.928</ele>
<time>2022-05-26T11:16:11Z</time>
</trkpt>
<trkpt lat="48.007778" lon="11.300072">
<ele>641.12</ele>
<time>2022-05-26T11:16:12Z</time>
</trkpt>
<trkpt lat="48.007774" lon="11.300125">
<ele>641.267</ele>
<time>2022-05-26T11:16:13Z</time>
</trkpt>
<trkpt lat="48.007778" lon="11.300175">
<ele>641.371</ele>
<time>2022-05-26T11:16:14Z</time>
</trkpt>
<trkpt lat="48.007771" lon="11.300232">
<ele>641.454</ele>
<time>2022-05-26T11:16:15Z</time>
</trkpt>
<trkpt lat="48.007767" lon="11.300304">
<ele>641.748</ele>
<time>2022-05-26T11:16:16Z</time>
</trkpt>
<trkpt lat="48.007763" lon="11.300375">
<ele>641.983</ele>
<time>2022-05-26T11:16:17Z</time>
</trkpt>
<trkpt lat="48.007767" lon="11.300441">
<ele>642.155</ele>
<time>2022-05-26T11:16:18Z</time>
</trkpt>
<trkpt lat="48.007771" lon="11.300491">
<ele>642.265</ele>
<time>2022-05-26T11:16:19Z</time>
</trkpt>
<trkpt lat="48.007759" lon="11.300553">
<ele>642.624</ele>
<time>2022-05-26T11:16:20Z</time>
</trkpt>
<trkpt lat="48.007748" lon="11.300618">
<ele>642.911</ele>
<time>2022-05-26T11:16:21Z</time>
</trkpt>
<trkpt lat="48.00774" lon="11.300677">
<ele>643.116</ele>
<time>2022-05-26T11:16:22Z</time>
</trkpt>
<trkpt lat="48.007732" lon="11.300732">
<ele>643.228</ele>
<time>2022-05-26T11:16:23Z</time>
</trkpt>
<trkpt lat="48.007732" lon="11.300783">
<ele>643.535</ele>
<time>2022-05-26T11:16:24Z</time>
</trkpt>
<trkpt lat="48.007732" lon="11.300843">
<ele>643.773</ele>
<time>2022-05-26T11:16:25Z</time>
</trkpt>
<trkpt lat="48.007725" lon="11.300894">
<ele>643.991</ele>
<time>2022-05-26T11:16:26Z</time>
</trkpt>
<trkpt lat="48.007706" lon="11.300939">
<ele>644.147</ele>
<time>2022-05-26T11:16:27Z</time>
</trkpt>
<trkpt lat="48.007675" lon="11.301032">
<ele>644.226</ele>
<time>2022-05-26T11:16:28Z</time>
</trkpt>
<trkpt lat="48.007656" lon="11.301106">
<ele>644.558</ele>
<time>2022-05-26T11:16:29Z</time>
</trkpt>
<trkpt lat="48.007648" lon="11.301187">
<ele>644.828</ele>
<time>2022-05-26T11:16:30Z</time>
</trkpt>
<trkpt lat="48.007637" lon="11.301255">
<ele>645.022</ele>
<time>2022-05-26T11:16:31Z</time>
</trkpt>
<trkpt lat="48.007626" lon="11.301321">
<ele>645.183</ele>
<time>2022-05-26T11:16:32Z</time>
</trkpt>
<trkpt lat="48.007622" lon="11.301372">
<ele>645.253</ele>
<time>2022-05-26T11:16:33Z</time>
</trkpt>
<trkpt lat="48.007614" lon="11.301423">
<ele>645.291</ele>
<time>2022-05-26T11:16:34Z</time>
</trkpt>
<trkpt lat="48.007626" lon="11.301532">
<ele>645.554</ele>
<time>2022-05-26T11:16:35Z</time>
</trkpt>
<trkpt lat="48.007626" lon="11.301633">
<ele>645.787</ele>
<time>2022-05-26T11:16:36Z</time>
</trkpt>
<trkpt lat="48.007629" lon="11.301712">
<ele>645.989</ele>
<time>2022-05-26T11:16:37Z</time>
</trkpt>
<trkpt lat="48.007626" lon="11.301805">
<ele>646.144</ele>
<time>2022-05-26T11:16:38Z</time>
</trkpt>
<trkpt lat="48.007618" lon="11.301882">
<ele>646.265</ele>
<time>2022-05-26T11:16:39Z</time>
</trkpt>
<trkpt lat="48.007591" lon="11.301962">
<ele>646.343</ele>
<time>2022-05-26T11:16:40Z</time>
</trkpt>
<trkpt lat="48.007572" lon="11.302037">
<ele>646.391</ele>
<time>2022-05-26T11:16:41Z</time>
</trkpt>
<trkpt lat="48.007561" lon="11.302107">
<ele>646.407</ele>
<time>2022-05-26T11:16:42Z</time>
</trkpt>
<trkpt lat="48.007534" lon="11.302177">
<ele>646.407</ele>
<time>2022-05-26T11:16:43Z</time>
</trkpt>
<trkpt lat="48.007511" lon="11.30224">
<ele>646.407</ele>
<time>2022-05-26T11:16:44Z</time>
</trkpt>
<trkpt lat="48.007488" lon="11.302312">
<ele>646.617</ele>
<time>2022-05-26T11:16:45Z</time>
</trkpt>
<trkpt lat="48.007462" lon="11.30239">
<ele>646.817</ele>
<time>2022-05-26T11:16:46Z</time>
</trkpt>
<trkpt lat="48.007442" lon="11.302468">
<ele>646.99</ele>
<time>2022-05-26T11:16:47Z</time>
</trkpt>
<trkpt lat="48.007427" lon="11.302548">
<ele>647.123</ele>
<time>2022-05-26T11:16:48Z</time>
</trkpt>
<trkpt lat="48.007412" lon="11.302627">
<ele>647.232</ele>
<time>2022-05-26T11:16:49Z</time>
</trkpt>
<trkpt lat="48.007397" lon="11.302695">
<ele>647.308</ele>
<time>2022-05-26T11:16:50Z</time>
</trkpt>
<trkpt lat="48.007385" lon="11.302773">
<ele>647.353</ele>
<time>2022-05-26T11:16:51Z</time>
</trkpt>
<trkpt lat="48.007366" lon="11.302855">
<ele>647.375</ele>
<time>2022-05-26T11:16:52Z</time>
</trkpt>
<trkpt lat="48.007351" lon="11.302942">
<ele>647.375</ele>
<time>2022-05-26T11:16:53Z</time>
</trkpt>
<trkpt lat="48.007332" lon="11.303032">
<ele>647.376</ele>
<time>2022-05-26T11:16:54Z</time>
</trkpt>
<trkpt lat="48.007328" lon="11.303123">
<ele>647.375</ele>
<time>2022-05-26T11:16:55Z</time>
</trkpt>
<trkpt lat="48.007324" lon="11.303205">
<ele>647.134</ele>
<time>2022-05-26T11:16:56Z</time>
</trkpt>
<trkpt lat="48.00732" lon="11.30329">
<ele>646.931</ele>
<time>2022-05-26T11:16:57Z</time>
</trkpt>
<trkpt lat="48.00732" lon="11.30337">
<ele>646.768</ele>
<time>2022-05-26T11:16:58Z</time>
</trkpt>
<trkpt lat="48.007317" lon="11.303467">
<ele>646.671</ele>
<time>2022-05-26T11:16:59Z</time>
</trkpt>
<trkpt lat="48.007309" lon="11.303574">
<ele>646.325</ele>
<time>2022-05-26T11:17:00Z</time>
</trkpt>
<trkpt lat="48.007301" lon="11.303679">
<ele>646.044</ele>
<time>2022-05-26T11:17:01Z</time>
</trkpt>
<trkpt lat="48.007294" lon="11.303788">
<ele>645.826</ele>
<time>2022-05-26T11:17:02Z</time>
</trkpt>
<trkpt lat="48.007282" lon="11.303905">
<ele>645.666</ele>
<time>2022-05-26T11:17:03Z</time>
</trkpt>
<trkpt lat="48.007267" lon="11.304024">
<ele>645.584</ele>
<time>2022-05-26T11:17:04Z</time>
</trkpt>
<trkpt lat="48.007256" lon="11.304136">
<ele>645.279</ele>
<time>2022-05-26T11:17:05Z</time>
</trkpt>
<trkpt lat="48.00724" lon="11.304254">
<ele>645.019</ele>
<time>2022-05-26T11:17:06Z</time>
</trkpt>
<trkpt lat="48.007221" lon="11.304365">
<ele>644.861</ele>
<time>2022-05-26T11:17:07Z</time>
</trkpt>
<trkpt lat="48.007202" lon="11.304484">
<ele>644.461</ele>
<time>2022-05-26T11:17:08Z</time>
</trkpt>
<trkpt lat="48.007187" lon="11.304606">
<ele>644.137</ele>
<time>2022-05-26T11:17:09Z</time>
</trkpt>
<trkpt lat="48.007172" lon="11.304731">
<ele>643.928</ele>
<time>2022-05-26T11:17:10Z</time>
</trkpt>
<trkpt lat="48.007153" lon="11.304859">
<ele>643.484</ele>
<time>2022-05-26T11:17:11Z</time>
</trkpt>
<trkpt lat="48.007133" lon="11.304985">
<ele>643.138</ele>
<time>2022-05-26T11:17:12Z</time>
</trkpt>
<trkpt lat="48.007111" lon="11.30511">
<ele>642.889</ele>
<time>2022-05-26T11:17:13Z</time>
</trkpt>
<trkpt lat="48.007084" lon="11.305237">
<ele>642.487</ele>
<time>2022-05-26T11:17:14Z</time>
</trkpt>
<trkpt lat="48.007053" lon="11.305367">
<ele>642.192</ele>
<time>2022-05-26T11:17:15Z</time>
</trkpt>
<trkpt lat="48.007023" lon="11.305498">
<ele>641.955</ele>
<time>2022-05-26T11:17:16Z</time>
</trkpt>
<trkpt lat="48.006989" lon="11.305627">
<ele>641.541</ele>
<time>2022-05-26T11:17:17Z</time>
</trkpt>
<trkpt lat="48.006947" lon="11.30575">
<ele>641.265</ele>
<time>2022-05-26T11:17:18Z</time>
</trkpt>
<trkpt lat="48.006908" lon="11.305867">
<ele>640.767</ele>
<time>2022-05-26T11:17:19Z</time>
</trkpt>
<trkpt lat="48.006859" lon="11.305984">
<ele>640.374</ele>
<time>2022-05-26T11:17:20Z</time>
</trkpt>
<trkpt lat="48.006813" lon="11.306102">
<ele>640.123</ele>
<time>2022-05-26T11:17:21Z</time>
</trkpt>
<trkpt lat="48.006767" lon="11.306221">
<ele>639.56</ele>
<time>2022-05-26T11:17:22Z</time>
</trkpt>
<trkpt lat="48.006721" lon="11.30634">
<ele>639.244</ele>
<time>2022-05-26T11:17:23Z</time>
</trkpt>
<trkpt lat="48.006676" lon="11.306462">
<ele>639.069</ele>
<time>2022-05-26T11:17:24Z</time>
</trkpt>
<trkpt lat="48.006626" lon="11.30658">
<ele>638.658</ele>
<time>2022-05-26T11:17:25Z</time>
</trkpt>
<trkpt lat="48.006577" lon="11.306697">
<ele>638.33</ele>
<time>2022-05-26T11:17:26Z</time>
</trkpt>
<trkpt lat="48.006523" lon="11.306813">
<ele>637.859</ele>
<time>2022-05-26T11:17:27Z</time>
</trkpt>
<trkpt lat="48.006474" lon="11.306929">
<ele>637.49</ele>
<time>2022-05-26T11:17:28Z</time>
</trkpt>
<trkpt lat="48.00642" lon="11.307034">
<ele>637.213</ele>
<time>2022-05-26T11:17:29Z</time>
</trkpt>
<trkpt lat="48.006367" lon="11.307147">
<ele>637.02</ele>
<time>2022-05-26T11:17:30Z</time>
</trkpt>
<trkpt lat="48.006313" lon="11.307254">
<ele>636.902</ele>
<time>2022-05-26T11:17:31Z</time>
</trkpt>
<trkpt lat="48.00626" lon="11.307361">
<ele>636.546</ele>
<time>2022-05-26T11:17:32Z</time>
</trkpt>
<trkpt lat="48.006203" lon="11.307462">
<ele>636.246</ele>
<time>2022-05-26T11:17:33Z</time>
</trkpt>
<trkpt lat="48.006145" lon="11.307564">
<ele>636.115</ele>
<time>2022-05-26T11:17:34Z</time>
</trkpt>
<trkpt lat="48.006084" lon="11.307665">
<ele>635.736</ele>
<time>2022-05-26T11:17:35Z</time>
</trkpt>
<trkpt lat="48.006027" lon="11.307763">
<ele>635.391</ele>
<time>2022-05-26T11:17:36Z</time>
</trkpt>
<trkpt lat="48.005962" lon="11.307857">
<ele>635.119</ele>
<time>2022-05-26T11:17:37Z</time>
</trkpt>
<trkpt lat="48.005901" lon="11.307948">
<ele>634.942</ele>
<time>2022-05-26T11:17:38Z</time>
</trkpt>
<trkpt lat="48.00584" lon="11.30804">
<ele>634.555</ele>
<time>2022-05-26T11:17:39Z</time>
</trkpt>
<trkpt lat="48.005783" lon="11.308132">
<ele>634.271</ele>
<time>2022-05-26T11:17:40Z</time>
</trkpt>
<trkpt lat="48.005726" lon="11.308224">
<ele>634.053</ele>
<time>2022-05-26T11:17:41Z</time>
</trkpt>
<trkpt lat="48.005669" lon="11.308313">
<ele>633.896</ele>
<time>2022-05-26T11:17:42Z</time>
</trkpt>
<trkpt lat="48.005615" lon="11.308402">
<ele>633.777</ele>
<time>2022-05-26T11:17:43Z</time>
</trkpt>
<trkpt lat="48.005566" lon="11.30849">
<ele>633.733</ele>
<time>2022-05-26T11:17:44Z</time>
</trkpt>
<trkpt lat="48.005512" lon="11.30858">
<ele>633.448</ele>
<time>2022-05-26T11:17:45Z</time>
</trkpt>
<trkpt lat="48.00547" lon="11.308666">
<ele>633.203</ele>
<time>2022-05-26T11:17:46Z</time>
</trkpt>
<trkpt lat="48.005428" lon="11.308755">
<ele>633.023</ele>
<time>2022-05-26T11:17:47Z</time>
</trkpt>
<trkpt lat="48.005383" lon="11.308846">
<ele>632.875</ele>
<time>2022-05-26T11:17:48Z</time>
</trkpt>
<trkpt lat="48.005344" lon="11.308934">
<ele>632.761</ele>
<time>2022-05-26T11:17:49Z</time>
</trkpt>
<trkpt lat="48.00531" lon="11.309024">
<ele>632.677</ele>
<time>2022-05-26T11:17:50Z</time>
</trkpt>
<trkpt lat="48.00528" lon="11.309116">
<ele>632.622</ele>
<time>2022-05-26T11:17:51Z</time>
</trkpt>
<trkpt lat="48.005253" lon="11.309211">
<ele>632.595</ele>
<time>2022-05-26T11:17:52Z</time>
</trkpt>
<trkpt lat="48.00523" lon="11.309303">
<ele>632.595</ele>
<time>2022-05-26T11:17:53Z</time>
</trkpt>
<trkpt lat="48.005207" lon="11.309395">
<ele>632.826</ele>
<time>2022-05-26T11:17:54Z</time>
</trkpt>
<trkpt lat="48.00518" lon="11.30949">
<ele>632.993</ele>
<time>2022-05-26T11:17:55Z</time>
</trkpt>
<trkpt lat="48.005165" lon="11.309586">
<ele>633.164</ele>
<time>2022-05-26T11:17:56Z</time>
</trkpt>
<trkpt lat="48.00515" lon="11.309682">
<ele>633.29</ele>
<time>2022-05-26T11:17:57Z</time>
</trkpt>
<trkpt lat="48.005138" lon="11.309776">
<ele>633.678</ele>
<time>2022-05-26T11:17:58Z</time>
</trkpt>
<trkpt lat="48.005131" lon="11.309869">
<ele>633.99</ele>
<time>2022-05-26T11:17:59Z</time>
</trkpt>
<trkpt lat="48.005123" lon="11.309961">
<ele>634.199</ele>
<time>2022-05-26T11:18:00Z</time>
</trkpt>
<trkpt lat="48.005116" lon="11.310051">
<ele>634.602</ele>
<time>2022-05-26T11:18:01Z</time>
</trkpt>
<trkpt lat="48.005116" lon="11.310137">
<ele>634.985</ele>
<time>2022-05-26T11:18:02Z</time>
</trkpt>
<trkpt lat="48.005112" lon="11.310221">
<ele>635.159</ele>
<time>2022-05-26T11:18:03Z</time>
</trkpt>
<trkpt lat="48.005108" lon="11.310303">
<ele>635.535</ele>
<time>2022-05-26T11:18:04Z</time>
</trkpt>
<trkpt lat="48.005096" lon="11.310384">
<ele>635.826</ele>
<time>2022-05-26T11:18:05Z</time>
</trkpt>
<trkpt lat="48.005089" lon="11.310462">
<ele>636.3</ele>
<time>2022-05-26T11:18:06Z</time>
</trkpt>
<trkpt lat="48.005081" lon="11.310535">
<ele>636.642</ele>
<time>2022-05-26T11:18:07Z</time>
</trkpt>
<trkpt lat="48.00507" lon="11.310604">
<ele>637.173</ele>
<time>2022-05-26T11:18:08Z</time>
</trkpt>
<trkpt lat="48.005062" lon="11.31067">
<ele>637.59</ele>
<time>2022-05-26T11:18:09Z</time>
</trkpt>
<trkpt lat="48.005054" lon="11.310735">
<ele>637.877</ele>
<time>2022-05-26T11:18:10Z</time>
</trkpt>
<trkpt lat="48.005051" lon="11.310802">
<ele>638.353</ele>
<time>2022-05-26T11:18:11Z</time>
</trkpt>
<trkpt lat="48.005051" lon="11.310865">
<ele>638.674</ele>
<time>2022-05-26T11:18:12Z</time>
</trkpt>
<trkpt lat="48.005066" lon="11.31093">
<ele>639.167</ele>
<time>2022-05-26T11:18:13Z</time>
</trkpt>
<trkpt lat="48.005089" lon="11.310991">
<ele>639.544</ele>
<time>2022-05-26T11:18:14Z</time>
</trkpt>
<trkpt lat="48.005096" lon="11.311053">
<ele>639.794</ele>
<time>2022-05-26T11:18:15Z</time>
</trkpt>
<trkpt lat="48.005089" lon="11.311118">
<ele>640.006</ele>
<time>2022-05-26T11:18:16Z</time>
</trkpt>
<trkpt lat="48.005066" lon="11.31118">
<ele>640.423</ele>
<time>2022-05-26T11:18:17Z</time>
</trkpt>
<trkpt lat="48.005051" lon="11.311241">
<ele>640.739</ele>
<time>2022-05-26T11:18:18Z</time>
</trkpt>
<trkpt lat="48.005039" lon="11.311301">
<ele>640.926</ele>
<time>2022-05-26T11:18:19Z</time>
</trkpt>
<trkpt lat="48.005016" lon="11.311352">
<ele>641.337</ele>
<time>2022-05-26T11:18:20Z</time>
</trkpt>
<trkpt lat="48.004986" lon="11.3114">
<ele>641.751</ele>
<time>2022-05-26T11:18:21Z</time>
</trkpt>
<trkpt lat="48.004955" lon="11.31144">
<ele>641.973</ele>
<time>2022-05-26T11:18:22Z</time>
</trkpt>
<trkpt lat="48.004925" lon="11.311485">
<ele>642.122</ele>
<time>2022-05-26T11:18:23Z</time>
</trkpt>
<trkpt lat="48.004898" lon="11.311526">
<ele>642.211</ele>
<time>2022-05-26T11:18:24Z</time>
</trkpt>
<trkpt lat="48.004868" lon="11.311566">
<ele>642.272</ele>
<time>2022-05-26T11:18:25Z</time>
</trkpt>
<trkpt lat="48.004837" lon="11.311604">
<ele>642.331</ele>
<time>2022-05-26T11:18:26Z</time>
</trkpt>
<trkpt lat="48.004807" lon="11.31164">
<ele>642.358</ele>
<time>2022-05-26T11:18:27Z</time>
</trkpt>
<trkpt lat="48.004772" lon="11.311681">
<ele>642.358</ele>
<time>2022-05-26T11:18:28Z</time>
</trkpt>
<trkpt lat="48.004742" lon="11.311719">
<ele>642.358</ele>
<time>2022-05-26T11:18:29Z</time>
</trkpt>
<trkpt lat="48.004707" lon="11.311756">
<ele>642.358</ele>
<time>2022-05-26T11:18:30Z</time>
</trkpt>
<trkpt lat="48.004673" lon="11.311798">
<ele>642.358</ele>
<time>2022-05-26T11:18:31Z</time>
</trkpt>
<trkpt lat="48.004635" lon="11.31184">
<ele>642.358</ele>
<time>2022-05-26T11:18:32Z</time>
</trkpt>
<trkpt lat="48.004604" lon="11.311885">
<ele>642.358</ele>
<time>2022-05-26T11:18:33Z</time>
</trkpt>
<trkpt lat="48.00457" lon="11.311927">
<ele>642.358</ele>
<time>2022-05-26T11:18:34Z</time>
</trkpt>
<trkpt lat="48.004536" lon="11.311963">
<ele>642.358</ele>
<time>2022-05-26T11:18:35Z</time>
</trkpt>
<trkpt lat="48.004498" lon="11.312001">
<ele>642.358</ele>
<time>2022-05-26T11:18:36Z</time>
</trkpt>
<trkpt lat="48.004467" lon="11.312039">
<ele>642.358</ele>
<time>2022-05-26T11:18:37Z</time>
</trkpt>
<trkpt lat="48.004429" lon="11.312083">
<ele>642.358</ele>
<time>2022-05-26T11:18:38Z</time>
</trkpt>
<trkpt lat="48.004398" lon="11.312125">
<ele>642.358</ele>
<time>2022-05-26T11:18:39Z</time>
</trkpt>
<trkpt lat="48.004364" lon="11.312167">
<ele>642.358</ele>
<time>2022-05-26T11:18:40Z</time>
</trkpt>
<trkpt lat="48.004337" lon="11.312205">
<ele>642.358</ele>
<time>2022-05-26T11:18:41Z</time>
</trkpt>
<trkpt lat="48.004311" lon="11.312248">
<ele>642.358</ele>
<time>2022-05-26T11:18:42Z</time>
</trkpt>
<trkpt lat="48.00428" lon="11.312295">
<ele>642.358</ele>
<time>2022-05-26T11:18:43Z</time>
</trkpt>
<trkpt lat="48.004253" lon="11.312337">
<ele>642.358</ele>
<time>2022-05-26T11:18:44Z</time>
</trkpt>
<trkpt lat="48.004223" lon="11.312385">
<ele>642.358</ele>
<time>2022-05-26T11:18:45Z</time>
</trkpt>
<trkpt lat="48.004196" lon="11.312433">
<ele>642.358</ele>
<time>2022-05-26T11:18:46Z</time>
</trkpt>
<trkpt lat="48.004166" lon="11.312488">
<ele>642.358</ele>
<time>2022-05-26T11:18:47Z</time>
</trkpt>
<trkpt lat="48.004135" lon="11.312545">
<ele>642.358</ele>
<time>2022-05-26T11:18:48Z</time>
</trkpt>
<trkpt lat="48.004108" lon="11.312609">
<ele>642.358</ele>
<time>2022-05-26T11:18:49Z</time>
</trkpt>
<trkpt lat="48.004086" lon="11.312674">
<ele>642.358</ele>
<time>2022-05-26T11:18:50Z</time>
</trkpt>
<trkpt lat="48.004063" lon="11.312738">
<ele>642.358</ele>
<time>2022-05-26T11:18:51Z</time>
</trkpt>
<trkpt lat="48.004036" lon="11.312805">
<ele>642.1</ele>
<time>2022-05-26T11:18:52Z</time>
</trkpt>
<trkpt lat="48.004005" lon="11.312871">
<ele>641.903</ele>
<time>2022-05-26T11:18:53Z</time>
</trkpt>
<trkpt lat="48.003983" lon="11.312943">
<ele>641.75</ele>
<time>2022-05-26T11:18:54Z</time>
</trkpt>
<trkpt lat="48.00396" lon="11.313015">
<ele>641.653</ele>
<time>2022-05-26T11:18:55Z</time>
</trkpt>
<trkpt lat="48.003941" lon="11.31309">
<ele>641.542</ele>
<time>2022-05-26T11:18:56Z</time>
</trkpt>
<trkpt lat="48.003918" lon="11.313167">
<ele>641.465</ele>
<time>2022-05-26T11:18:57Z</time>
</trkpt>
<trkpt lat="48.003899" lon="11.313244">
<ele>641.414</ele>
<time>2022-05-26T11:18:58Z</time>
</trkpt>
<trkpt lat="48.003876" lon="11.313321">
<ele>641.39</ele>
<time>2022-05-26T11:18:59Z</time>
</trkpt>
<trkpt lat="48.00386" lon="11.3134">
<ele>641.39</ele>
<time>2022-05-26T11:19:00Z</time>
</trkpt>
<trkpt lat="48.003845" lon="11.313481">
<ele>641.39</ele>
<time>2022-05-26T11:19:01Z</time>
</trkpt>
<trkpt lat="48.003834" lon="11.313563">
<ele>641.117</ele>
<time>2022-05-26T11:19:02Z</time>
</trkpt>
<trkpt lat="48.003819" lon="11.313646">
<ele>640.901</ele>
<time>2022-05-26T11:19:03Z</time>
</trkpt>
<trkpt lat="48.003807" lon="11.313732">
<ele>640.737</ele>
<time>2022-05-26T11:19:04Z</time>
</trkpt>
<trkpt lat="48.003792" lon="11.313818">
<ele>640.625</ele>
<time>2022-05-26T11:19:05Z</time>
</trkpt>
<trkpt lat="48.003777" lon="11.313906">
<ele>640.503</ele>
<time>2022-05-26T11:19:06Z</time>
</trkpt>
<trkpt lat="48.003773" lon="11.313995">
<ele>640.416</ele>
<time>2022-05-26T11:19:07Z</time>
</trkpt>
<trkpt lat="48.003761" lon="11.314085">
<ele>640.363</ele>
<time>2022-05-26T11:19:08Z</time>
</trkpt>
<trkpt lat="48.003754" lon="11.314175">
<ele>640.073</ele>
<time>2022-05-26T11:19:09Z</time>
</trkpt>
<trkpt lat="48.00375" lon="11.314268">
<ele>639.8</ele>
<time>2022-05-26T11:19:10Z</time>
</trkpt>
<trkpt lat="48.003746" lon="11.314362">
<ele>639.625</ele>
<time>2022-05-26T11:19:11Z</time>
</trkpt>
<trkpt lat="48.003746" lon="11.314453">
<ele>639.497</ele>
<time>2022-05-26T11:19:12Z</time>
</trkpt>
<trkpt lat="48.00375" lon="11.314545">
<ele>639.408</ele>
<time>2022-05-26T11:19:13Z</time>
</trkpt>
<trkpt lat="48.003757" lon="11.314635">
<ele>639.352</ele>
<time>2022-05-26T11:19:14Z</time>
</trkpt>
<trkpt lat="48.003765" lon="11.314725">
<ele>639.307</ele>
<time>2022-05-26T11:19:15Z</time>
</trkpt>
<trkpt lat="48.003769" lon="11.314812">
<ele>639.278</ele>
<time>2022-05-26T11:19:16Z</time>
</trkpt>
<trkpt lat="48.003773" lon="11.314895">
<ele>639.278</ele>
<time>2022-05-26T11:19:17Z</time>
</trkpt>
<trkpt lat="48.003777" lon="11.314975">
<ele>639.278</ele>
<time>2022-05-26T11:19:18Z</time>
</trkpt>
<trkpt lat="48.003777" lon="11.315052">
<ele>639.278</ele>
<time>2022-05-26T11:19:19Z</time>
</trkpt>
<trkpt lat="48.003777" lon="11.315124">
<ele>639.278</ele>
<time>2022-05-26T11:19:20Z</time>
</trkpt>
<trkpt lat="48.00378" lon="11.315193">
<ele>639.278</ele>
<time>2022-05-26T11:19:21Z</time>
</trkpt>
<trkpt lat="48.003788" lon="11.31526">
<ele>639.278</ele>
<time>2022-05-26T11:19:22Z</time>
</trkpt>
<trkpt lat="48.003796" lon="11.315331">
<ele>639.278</ele>
<time>2022-05-26T11:19:23Z</time>
</trkpt>
<trkpt lat="48.003803" lon="11.315395">
<ele>639.278</ele>
<time>2022-05-26T11:19:24Z</time>
</trkpt>
<trkpt lat="48.003807" lon="11.315462">
<ele>639.523</ele>
<time>2022-05-26T11:19:25Z</time>
</trkpt>
<trkpt lat="48.003811" lon="11.31553">
<ele>639.76</ele>
<time>2022-05-26T11:19:26Z</time>
</trkpt>
<trkpt lat="48.003807" lon="11.315595">
<ele>639.96</ele>
<time>2022-05-26T11:19:27Z</time>
</trkpt>
<trkpt lat="48.003811" lon="11.315658">
<ele>640.123</ele>
<time>2022-05-26T11:19:28Z</time>
</trkpt>
<trkpt lat="48.003811" lon="11.315722">
<ele>640.246</ele>
<time>2022-05-26T11:19:29Z</time>
</trkpt>
<trkpt lat="48.003815" lon="11.315785">
<ele>640.336</ele>
<time>2022-05-26T11:19:30Z</time>
</trkpt>
<trkpt lat="48.003819" lon="11.315846">
<ele>640.393</ele>
<time>2022-05-26T11:19:31Z</time>
</trkpt>
<trkpt lat="48.003822" lon="11.315905">
<ele>640.422</ele>
<time>2022-05-26T11:19:32Z</time>
</trkpt>
<trkpt lat="48.003826" lon="11.315957">
<ele>640.422</ele>
<time>2022-05-26T11:19:33Z</time>
</trkpt>
<trkpt lat="48.003826" lon="11.316">
<ele>640.422</ele>
<time>2022-05-26T11:19:34Z</time>
</trkpt>
<trkpt lat="48.00383" lon="11.316043">
<ele>640.422</ele>
<time>2022-05-26T11:19:35Z</time>
</trkpt>
<trkpt lat="48.003834" lon="11.316082">
<ele>640.422</ele>
<time>2022-05-26T11:19:36Z</time>
</trkpt>
<trkpt lat="48.003834" lon="11.316125">
<ele>640.422</ele>
<time>2022-05-26T11:19:37Z</time>
</trkpt>
<trkpt lat="48.003834" lon="11.316179">
<ele>640.422</ele>
<time>2022-05-26T11:19:38Z</time>
</trkpt>
<trkpt lat="48.003834" lon="11.316236">
<ele>640.659</ele>
<time>2022-05-26T11:19:39Z</time>
</trkpt>
<trkpt lat="48.00383" lon="11.316294">
<ele>640.858</ele>
<time>2022-05-26T11:19:40Z</time>
</trkpt>
<trkpt lat="48.003834" lon="11.316353">
<ele>641.018</ele>
<time>2022-05-26T11:19:41Z</time>
</trkpt>
<trkpt lat="48.003841" lon="11.316418">
<ele>641.133</ele>
<time>2022-05-26T11:19:42Z</time>
</trkpt>
<trkpt lat="48.003845" lon="11.316482">
<ele>641.205</ele>
<time>2022-05-26T11:19:43Z</time>
</trkpt>
<trkpt lat="48.003849" lon="11.316545">
<ele>641.254</ele>
<time>2022-05-26T11:19:44Z</time>
</trkpt>
<trkpt lat="48.003857" lon="11.316611">
<ele>641.283</ele>
<time>2022-05-26T11:19:45Z</time>
</trkpt>
<trkpt lat="48.00386" lon="11.316678">
<ele>641.302</ele>
<time>2022-05-26T11:19:46Z</time>
</trkpt>
<trkpt lat="48.003864" lon="11.316742">
<ele>641.302</ele>
<time>2022-05-26T11:19:47Z</time>
</trkpt>
<trkpt lat="48.003872" lon="11.316815">
<ele>641.302</ele>
<time>2022-05-26T11:19:48Z</time>
</trkpt>
<trkpt lat="48.003876" lon="11.316878">
<ele>641.302</ele>
<time>2022-05-26T11:19:49Z</time>
</trkpt>
<trkpt lat="48.003876" lon="11.31695">
<ele>641.302</ele>
<time>2022-05-26T11:19:50Z</time>
</trkpt>
<trkpt lat="48.003876" lon="11.317019">
<ele>641.302</ele>
<time>2022-05-26T11:19:51Z</time>
</trkpt>
<trkpt lat="48.003876" lon="11.31709">
<ele>641.302</ele>
<time>2022-05-26T11:19:52Z</time>
</trkpt>
<trkpt lat="48.00388" lon="11.317162">
<ele>641.302</ele>
<time>2022-05-26T11:19:53Z</time>
</trkpt>
<trkpt lat="48.003883" lon="11.317226">
<ele>641.302</ele>
<time>2022-05-26T11:19:54Z</time>
</trkpt>
<trkpt lat="48.003887" lon="11.317298">
<ele>641.302</ele>
<time>2022-05-26T11:19:55Z</time>
</trkpt>
<trkpt lat="48.00388" lon="11.317367">
<ele>641.302</ele>
<time>2022-05-26T11:19:56Z</time>
</trkpt>
<trkpt lat="48.00388" lon="11.317431">
<ele>641.011</ele>
<time>2022-05-26T11:19:57Z</time>
</trkpt>
<trkpt lat="48.00388" lon="11.317498">
<ele>640.792</ele>
<time>2022-05-26T11:19:58Z</time>
</trkpt>
<trkpt lat="48.003876" lon="11.317564">
<ele>640.626</ele>
<time>2022-05-26T11:19:59Z</time>
</trkpt>
<trkpt lat="48.003872" lon="11.317623">
<ele>640.504</ele>
<time>2022-05-26T11:20:00Z</time>
</trkpt>
<trkpt lat="48.00386" lon="11.317687">
<ele>640.418</ele>
<time>2022-05-26T11:20:01Z</time>
</trkpt>
<trkpt lat="48.003845" lon="11.317748">
<ele>640.368</ele>
<time>2022-05-26T11:20:02Z</time>
</trkpt>
<trkpt lat="48.003838" lon="11.317801">
<ele>640.127</ele>
<time>2022-05-26T11:20:03Z</time>
</trkpt>
<trkpt lat="48.003826" lon="11.317839">
<ele>639.952</ele>
<time>2022-05-26T11:20:04Z</time>
</trkpt>
<trkpt lat="48.003815" lon="11.317862">
<ele>639.829</ele>
<time>2022-05-26T11:20:05Z</time>
</trkpt>
<trkpt lat="48.003807" lon="11.31788">
<ele>639.712</ele>
<time>2022-05-26T11:20:06Z</time>
</trkpt>
<trkpt lat="48.003799" lon="11.317884">
<ele>639.424</ele>
<time>2022-05-26T11:20:07Z</time>
</trkpt>
<trkpt lat="48.003799" lon="11.317893">
<ele>639.185</ele>
<time>2022-05-26T11:20:08Z</time>
</trkpt>
<trkpt lat="48.003799" lon="11.317899">
<ele>638.996</ele>
<time>2022-05-26T11:20:09Z</time>
</trkpt>
<trkpt lat="48.003788" lon="11.317902">
<ele>638.837</ele>
<time>2022-05-26T11:20:10Z</time>
</trkpt>
<trkpt lat="48.003777" lon="11.31791">
<ele>638.627</ele>
<time>2022-05-26T11:20:11Z</time>
</trkpt>
<trkpt lat="48.00375" lon="11.317916">
<ele>638.547</ele>
<time>2022-05-26T11:20:12Z</time>
</trkpt>
<trkpt lat="48.003719" lon="11.317924">
<ele>638.503</ele>
<time>2022-05-26T11:20:13Z</time>
</trkpt>
<trkpt lat="48.003681" lon="11.317933">
<ele>638.486</ele>
<time>2022-05-26T11:20:14Z</time>
</trkpt>
<trkpt lat="48.003639" lon="11.317935">
<ele>638.486</ele>
<time>2022-05-26T11:20:15Z</time>
</trkpt>
<trkpt lat="48.003593" lon="11.317935">
<ele>638.149</ele>
<time>2022-05-26T11:20:16Z</time>
</trkpt>
<trkpt lat="48.003548" lon="11.317933">
<ele>637.953</ele>
<time>2022-05-26T11:20:17Z</time>
</trkpt>
<trkpt lat="48.00349" lon="11.317937">
<ele>637.882</ele>
<time>2022-05-26T11:20:18Z</time>
</trkpt>
<trkpt lat="48.003433" lon="11.31794">
<ele>637.495</ele>
<time>2022-05-26T11:20:19Z</time>
</trkpt>
<trkpt lat="48.003384" lon="11.317939">
<ele>637.268</ele>
<time>2022-05-26T11:20:20Z</time>
</trkpt>
<trkpt lat="48.003323" lon="11.317939">
<ele>636.72</ele>
<time>2022-05-26T11:20:21Z</time>
</trkpt>
<trkpt lat="48.003269" lon="11.317933">
<ele>636.302</ele>
<time>2022-05-26T11:20:22Z</time>
</trkpt>
<trkpt lat="48.003216" lon="11.317926">
<ele>636.037</ele>
<time>2022-05-26T11:20:23Z</time>
</trkpt>
<trkpt lat="48.003159" lon="11.31793">
<ele>635.552</ele>
<time>2022-05-26T11:20:24Z</time>
</trkpt>
<trkpt lat="48.003105" lon="11.317935">
<ele>635.224</ele>
<time>2022-05-26T11:20:25Z</time>
</trkpt>
<trkpt lat="48.003052" lon="11.31794">
<ele>634.943</ele>
<time>2022-05-26T11:20:26Z</time>
</trkpt>
<trkpt lat="48.002995" lon="11.317942">
<ele>634.502</ele>
<time>2022-05-26T11:20:27Z</time>
</trkpt>
<trkpt lat="48.002941" lon="11.317939">
<ele>634.16</ele>
<time>2022-05-26T11:20:28Z</time>
</trkpt>
<trkpt lat="48.002892" lon="11.317937">
<ele>633.964</ele>
<time>2022-05-26T11:20:29Z</time>
</trkpt>
<trkpt lat="48.002842" lon="11.317937">
<ele>633.513</ele>
<time>2022-05-26T11:20:30Z</time>
</trkpt>
<trkpt lat="48.0028" lon="11.317939">
<ele>633.164</ele>
<time>2022-05-26T11:20:31Z</time>
</trkpt>
<trkpt lat="48.002766" lon="11.317939">
<ele>632.831</ele>
<time>2022-05-26T11:20:32Z</time>
</trkpt>
<trkpt lat="48.002739" lon="11.31794">
<ele>632.678</ele>
<time>2022-05-26T11:20:33Z</time>
</trkpt>
<trkpt lat="48.002716" lon="11.317945">
<ele>632.59</ele>
<time>2022-05-26T11:20:34Z</time>
</trkpt>
<trkpt lat="48.002693" lon="11.317949">
<ele>632.519</ele>
<time>2022-05-26T11:20:35Z</time>
</trkpt>
<trkpt lat="48.002674" lon="11.317956">
<ele>632.454</ele>
<time>2022-05-26T11:20:36Z</time>
</trkpt>
<trkpt lat="48.002663" lon="11.31796">
<ele>632.418</ele>
<time>2022-05-26T11:20:37Z</time>
</trkpt>
<trkpt lat="48.002651" lon="11.317965">
<ele>632.418</ele>
<time>2022-05-26T11:20:38Z</time>
</trkpt>
<trkpt lat="48.002644" lon="11.317965">
<ele>632.418</ele>
<time>2022-05-26T11:20:39Z</time>
</trkpt>
<trkpt lat="48.00264" lon="11.317965">
<ele>632.418</ele>
<time>2022-05-26T11:20:40Z</time>
</trkpt>
<trkpt lat="48.002636" lon="11.317966">
<ele>632.418</ele>
<time>2022-05-26T11:20:41Z</time>
</trkpt>
<trkpt lat="48.002621" lon="11.317972">
<ele>632.418</ele>
<time>2022-05-26T11:20:42Z</time>
</trkpt>
<trkpt lat="48.002605" lon="11.317975">
<ele>632.418</ele>
<time>2022-05-26T11:20:43Z</time>
</trkpt>
<trkpt lat="48.002594" lon="11.317981">
<ele>632.418</ele>
<time>2022-05-26T11:20:44Z</time>
</trkpt>
<trkpt lat="48.002583" lon="11.317989">
<ele>632.418</ele>
<time>2022-05-26T11:20:45Z</time>
</trkpt>
<trkpt lat="48.002571" lon="11.318004">
<ele>632.148</ele>
<time>2022-05-26T11:20:46Z</time>
</trkpt>
<trkpt lat="48.002563" lon="11.318013">
<ele>631.901</ele>
<time>2022-05-26T11:20:47Z</time>
</trkpt>
<trkpt lat="48.002556" lon="11.318031">
<ele>631.756</ele>
<time>2022-05-26T11:20:48Z</time>
</trkpt>
<trkpt lat="48.002548" lon="11.318054">
<ele>631.667</ele>
<time>2022-05-26T11:20:49Z</time>
</trkpt>
<trkpt lat="48.002544" lon="11.318075">
<ele>631.594</ele>
<time>2022-05-26T11:20:50Z</time>
</trkpt>
<trkpt lat="48.002544" lon="11.318086">
<ele>631.522</ele>
<time>2022-05-26T11:20:51Z</time>
</trkpt>
<trkpt lat="48.002541" lon="11.318088">
<ele>631.471</ele>
<time>2022-05-26T11:20:52Z</time>
</trkpt>
<trkpt lat="48.002544" lon="11.318089">
<ele>631.451</ele>
<time>2022-05-26T11:20:53Z</time>
</trkpt>
<trkpt lat="48.002567" lon="11.318107">
<ele>631.451</ele>
<time>2022-05-26T11:21:07Z</time>
</trkpt>
<trkpt lat="48.002567" lon="11.318128">
<ele>631.658</ele>
<time>2022-05-26T11:21:08Z</time>
</trkpt>
<trkpt lat="48.002571" lon="11.318149">
<ele>631.864</ele>
<time>2022-05-26T11:21:09Z</time>
</trkpt>
<trkpt lat="48.002571" lon="11.31818">
<ele>632.052</ele>
<time>2022-05-26T11:21:10Z</time>
</trkpt>
<trkpt lat="48.002579" lon="11.318218">
<ele>632.229</ele>
<time>2022-05-26T11:21:11Z</time>
</trkpt>
<trkpt lat="48.002586" lon="11.31826">
<ele>632.355</ele>
<time>2022-05-26T11:21:12Z</time>
</trkpt>
<trkpt lat="48.002586" lon="11.318318">
<ele>632.401</ele>
<time>2022-05-26T11:21:13Z</time>
</trkpt>
<trkpt lat="48.002583" lon="11.318394">
<ele>632.415</ele>
<time>2022-05-26T11:21:14Z</time>
</trkpt>
<trkpt lat="48.002583" lon="11.318477">
<ele>632.418</ele>
<time>2022-05-26T11:21:15Z</time>
</trkpt>
<trkpt lat="48.002571" lon="11.318565">
<ele>632.418</ele>
<time>2022-05-26T11:21:16Z</time>
</trkpt>
<trkpt lat="48.002567" lon="11.318653">
<ele>632.418</ele>
<time>2022-05-26T11:21:17Z</time>
</trkpt>
<trkpt lat="48.00256" lon="11.318733">
<ele>632.418</ele>
<time>2022-05-26T11:21:18Z</time>
</trkpt>
<trkpt lat="48.002548" lon="11.318815">
<ele>632.418</ele>
<time>2022-05-26T11:21:19Z</time>
</trkpt>
<trkpt lat="48.002541" lon="11.318903">
<ele>632.418</ele>
<time>2022-05-26T11:21:20Z</time>
</trkpt>
<trkpt lat="48.002529" lon="11.318995">
<ele>632.418</ele>
<time>2022-05-26T11:21:21Z</time>
</trkpt>
<trkpt lat="48.002514" lon="11.319092">
<ele>632.418</ele>
<time>2022-05-26T11:21:22Z</time>
</trkpt>
<trkpt lat="48.002499" lon="11.31919">
<ele>632.418</ele>
<time>2022-05-26T11:21:23Z</time>
</trkpt>
<trkpt lat="48.002476" lon="11.31929">
<ele>632.418</ele>
<time>2022-05-26T11:21:24Z</time>
</trkpt>
<trkpt lat="48.002445" lon="11.319395">
<ele>632.156</ele>
<time>2022-05-26T11:21:25Z</time>
</trkpt>
<trkpt lat="48.002411" lon="11.319504">
<ele>631.987</ele>
<time>2022-05-26T11:21:26Z</time>
</trkpt>
<trkpt lat="48.002377" lon="11.319607">
<ele>631.592</ele>
<time>2022-05-26T11:21:27Z</time>
</trkpt>
<trkpt lat="48.002342" lon="11.319698">
<ele>631.321</ele>
<time>2022-05-26T11:21:28Z</time>
</trkpt>
<trkpt lat="48.002304" lon="11.319778">
<ele>631.061</ele>
<time>2022-05-26T11:21:29Z</time>
</trkpt>
<trkpt lat="48.002258" lon="11.319857">
<ele>630.867</ele>
<time>2022-05-26T11:21:30Z</time>
</trkpt>
<trkpt lat="48.002224" lon="11.319935">
<ele>630.726</ele>
<time>2022-05-26T11:21:31Z</time>
</trkpt>
<trkpt lat="48.002186" lon="11.320017">
<ele>630.637</ele>
<time>2022-05-26T11:21:32Z</time>
</trkpt>
<trkpt lat="48.002151" lon="11.320095">
<ele>630.593</ele>
<time>2022-05-26T11:21:33Z</time>
</trkpt>
<trkpt lat="48.002117" lon="11.320167">
<ele>630.571</ele>
<time>2022-05-26T11:21:34Z</time>
</trkpt>
<trkpt lat="48.002083" lon="11.320235">
<ele>630.333</ele>
<time>2022-05-26T11:21:35Z</time>
</trkpt>
<trkpt lat="48.002052" lon="11.320298">
<ele>630.143</ele>
<time>2022-05-26T11:21:36Z</time>
</trkpt>
<trkpt lat="48.002029" lon="11.320361">
<ele>630.018</ele>
<time>2022-05-26T11:21:37Z</time>
</trkpt>
<trkpt lat="48.001999" lon="11.320432">
<ele>629.681</ele>
<time>2022-05-26T11:21:38Z</time>
</trkpt>
<trkpt lat="48.001968" lon="11.320497">
<ele>629.37</ele>
<time>2022-05-26T11:21:39Z</time>
</trkpt>
<trkpt lat="48.001938" lon="11.320566">
<ele>629.146</ele>
<time>2022-05-26T11:21:40Z</time>
</trkpt>
<trkpt lat="48.001907" lon="11.320642">
<ele>628.708</ele>
<time>2022-05-26T11:21:41Z</time>
</trkpt>
<trkpt lat="48.001877" lon="11.32072">
<ele>628.36</ele>
<time>2022-05-26T11:21:42Z</time>
</trkpt>
<trkpt lat="48.001846" lon="11.320799">
<ele>628.15</ele>
<time>2022-05-26T11:21:43Z</time>
</trkpt>
<trkpt lat="48.001823" lon="11.320885">
<ele>627.7</ele>
<time>2022-05-26T11:21:44Z</time>
</trkpt>
<trkpt lat="48.001789" lon="11.320977">
<ele>627.408</ele>
<time>2022-05-26T11:21:45Z</time>
</trkpt>
<trkpt lat="48.001759" lon="11.321072">
<ele>626.869</ele>
<time>2022-05-26T11:21:46Z</time>
</trkpt>
<trkpt lat="48.001736" lon="11.321163">
<ele>626.516</ele>
<time>2022-05-26T11:21:47Z</time>
</trkpt>
<trkpt lat="48.001709" lon="11.321259">
<ele>626.28</ele>
<time>2022-05-26T11:21:48Z</time>
</trkpt>
<trkpt lat="48.001686" lon="11.321366">
<ele>625.816</ele>
<time>2022-05-26T11:21:49Z</time>
</trkpt>
<trkpt lat="48.001659" lon="11.321484">
<ele>625.502</ele>
<time>2022-05-26T11:21:50Z</time>
</trkpt>
<trkpt lat="48.001644" lon="11.321608">
<ele>624.97</ele>
<time>2022-05-26T11:21:51Z</time>
</trkpt>
<trkpt lat="48.001633" lon="11.32173">
<ele>624.637</ele>
<time>2022-05-26T11:21:52Z</time>
</trkpt>
<trkpt lat="48.001625" lon="11.321858">
<ele>624.104</ele>
<time>2022-05-26T11:21:53Z</time>
</trkpt>
<trkpt lat="48.001625" lon="11.321991">
<ele>623.703</ele>
<time>2022-05-26T11:21:54Z</time>
</trkpt>
<trkpt lat="48.001625" lon="11.322128">
<ele>623.444</ele>
<time>2022-05-26T11:21:55Z</time>
</trkpt>
<trkpt lat="48.001625" lon="11.322257">
<ele>622.932</ele>
<time>2022-05-26T11:21:56Z</time>
</trkpt>
<trkpt lat="48.001625" lon="11.322382">
<ele>622.604</ele>
<time>2022-05-26T11:21:57Z</time>
</trkpt>
<trkpt lat="48.001617" lon="11.322509">
<ele>622.088</ele>
<time>2022-05-26T11:21:58Z</time>
</trkpt>
<trkpt lat="48.00161" lon="11.32263">
<ele>621.657</ele>
<time>2022-05-26T11:21:59Z</time>
</trkpt>
<trkpt lat="48.001598" lon="11.322757">
<ele>621.356</ele>
<time>2022-05-26T11:22:00Z</time>
</trkpt>
<trkpt lat="48.001595" lon="11.322884">
<ele>620.879</ele>
<time>2022-05-26T11:22:01Z</time>
</trkpt>
<trkpt lat="48.001591" lon="11.323011">
<ele>620.504</ele>
<time>2022-05-26T11:22:02Z</time>
</trkpt>
<trkpt lat="48.001591" lon="11.323138">
<ele>620.224</ele>
<time>2022-05-26T11:22:03Z</time>
</trkpt>
<trkpt lat="48.001583" lon="11.323262">
<ele>620.062</ele>
<time>2022-05-26T11:22:04Z</time>
</trkpt>
<trkpt lat="48.001572" lon="11.323372">
<ele>619.666</ele>
<time>2022-05-26T11:22:05Z</time>
</trkpt>
<trkpt lat="48.001564" lon="11.323472">
<ele>619.343</ele>
<time>2022-05-26T11:22:06Z</time>
</trkpt>
<trkpt lat="48.001564" lon="11.323586">
<ele>619.148</ele>
<time>2022-05-26T11:22:07Z</time>
</trkpt>
<trkpt lat="48.00156" lon="11.323707">
<ele>619.011</ele>
<time>2022-05-26T11:22:08Z</time>
</trkpt>
<trkpt lat="48.001564" lon="11.323822">
<ele>618.889</ele>
<time>2022-05-26T11:22:09Z</time>
</trkpt>
<trkpt lat="48.001568" lon="11.323931">
<ele>618.799</ele>
<time>2022-05-26T11:22:10Z</time>
</trkpt>
<trkpt lat="48.001575" lon="11.324044">
<ele>618.742</ele>
<time>2022-05-26T11:22:11Z</time>
</trkpt>
<trkpt lat="48.001583" lon="11.324153">
<ele>618.498</ele>
<time>2022-05-26T11:22:12Z</time>
</trkpt>
<trkpt lat="48.001595" lon="11.324265">
<ele>618.297</ele>
<time>2022-05-26T11:22:13Z</time>
</trkpt>
<trkpt lat="48.001602" lon="11.324384">
<ele>617.859</ele>
<time>2022-05-26T11:22:14Z</time>
</trkpt>
<trkpt lat="48.00161" lon="11.32451">
<ele>617.58</ele>
<time>2022-05-26T11:22:15Z</time>
</trkpt>
<trkpt lat="48.001617" lon="11.324643">
<ele>617.068</ele>
<time>2022-05-26T11:22:16Z</time>
</trkpt>
<trkpt lat="48.001625" lon="11.32476">
<ele>616.676</ele>
<time>2022-05-26T11:22:17Z</time>
</trkpt>
<trkpt lat="48.001629" lon="11.32488">
<ele>616.396</ele>
<time>2022-05-26T11:22:18Z</time>
</trkpt>
<trkpt lat="48.001633" lon="11.324998">
<ele>615.908</ele>
<time>2022-05-26T11:22:19Z</time>
</trkpt>
<trkpt lat="48.001648" lon="11.325121">
<ele>615.544</ele>
<time>2022-05-26T11:22:20Z</time>
</trkpt>
<trkpt lat="48.001659" lon="11.325249">
<ele>615.323</ele>
<time>2022-05-26T11:22:21Z</time>
</trkpt>
<trkpt lat="48.001675" lon="11.325363">
<ele>614.88</ele>
<time>2022-05-26T11:22:22Z</time>
</trkpt>
<trkpt lat="48.001686" lon="11.325481">
<ele>614.536</ele>
<time>2022-05-26T11:22:23Z</time>
</trkpt>
<trkpt lat="48.00169" lon="11.325599">
<ele>614.318</ele>
<time>2022-05-26T11:22:24Z</time>
</trkpt>
<trkpt lat="48.001698" lon="11.325722">
<ele>613.887</ele>
<time>2022-05-26T11:22:25Z</time>
</trkpt>
<trkpt lat="48.001705" lon="11.325856">
<ele>613.603</ele>
<time>2022-05-26T11:22:26Z</time>
</trkpt>
<trkpt lat="48.001717" lon="11.325993">
<ele>613.116</ele>
<time>2022-05-26T11:22:27Z</time>
</trkpt>
<trkpt lat="48.001724" lon="11.326131">
<ele>612.784</ele>
<time>2022-05-26T11:22:28Z</time>
</trkpt>
<trkpt lat="48.001728" lon="11.326269">
<ele>612.232</ele>
<time>2022-05-26T11:22:29Z</time>
</trkpt>
<trkpt lat="48.001736" lon="11.326402">
<ele>611.863</ele>
<time>2022-05-26T11:22:30Z</time>
</trkpt>
<trkpt lat="48.00174" lon="11.326538">
<ele>611.291</ele>
<time>2022-05-26T11:22:31Z</time>
</trkpt>
<trkpt lat="48.00174" lon="11.326667">
<ele>610.908</ele>
<time>2022-05-26T11:22:32Z</time>
</trkpt>
<trkpt lat="48.001743" lon="11.326793">
<ele>610.373</ele>
<time>2022-05-26T11:22:33Z</time>
</trkpt>
<trkpt lat="48.001747" lon="11.326921">
<ele>610.009</ele>
<time>2022-05-26T11:22:34Z</time>
</trkpt>
<trkpt lat="48.001747" lon="11.327053">
<ele>609.459</ele>
<time>2022-05-26T11:22:35Z</time>
</trkpt>
<trkpt lat="48.001751" lon="11.327183">
<ele>609.031</ele>
<time>2022-05-26T11:22:36Z</time>
</trkpt>
<trkpt lat="48.001755" lon="11.327304">
<ele>608.762</ele>
<time>2022-05-26T11:22:37Z</time>
</trkpt>
<trkpt lat="48.001759" lon="11.327423">
<ele>608.312</ele>
<time>2022-05-26T11:22:38Z</time>
</trkpt>
<trkpt lat="48.001755" lon="11.327545">
<ele>607.951</ele>
<time>2022-05-26T11:22:39Z</time>
</trkpt>
<trkpt lat="48.001759" lon="11.32767">
<ele>607.699</ele>
<time>2022-05-26T11:22:40Z</time>
</trkpt>
<trkpt lat="48.001755" lon="11.327794">
<ele>607.293</ele>
<time>2022-05-26T11:22:41Z</time>
</trkpt>
<trkpt lat="48.001755" lon="11.327905">
<ele>607.016</ele>
<time>2022-05-26T11:22:42Z</time>
</trkpt>
<trkpt lat="48.001759" lon="11.328022">
<ele>606.549</ele>
<time>2022-05-26T11:22:43Z</time>
</trkpt>
<trkpt lat="48.001759" lon="11.328152">
<ele>606.169</ele>
<time>2022-05-26T11:22:44Z</time>
</trkpt>
<trkpt lat="48.001762" lon="11.328283">
<ele>605.921</ele>
<time>2022-05-26T11:22:45Z</time>
</trkpt>
<trkpt lat="48.001762" lon="11.328408">
<ele>605.424</ele>
<time>2022-05-26T11:22:46Z</time>
</trkpt>
<trkpt lat="48.001759" lon="11.328536">
<ele>605.112</ele>
<time>2022-05-26T11:22:47Z</time>
</trkpt>
<trkpt lat="48.001755" lon="11.328653">
<ele>604.886</ele>
<time>2022-05-26T11:22:48Z</time>
</trkpt>
<trkpt lat="48.001736" lon="11.328774">
<ele>604.687</ele>
<time>2022-05-26T11:22:49Z</time>
</trkpt>
<trkpt lat="48.001713" lon="11.328892">
<ele>604.552</ele>
<time>2022-05-26T11:22:50Z</time>
</trkpt>
<trkpt lat="48.00169" lon="11.329001">
<ele>604.479</ele>
<time>2022-05-26T11:22:51Z</time>
</trkpt>
<trkpt lat="48.001671" lon="11.329105">
<ele>604.434</ele>
<time>2022-05-26T11:22:52Z</time>
</trkpt>
<trkpt lat="48.001656" lon="11.32921">
<ele>604.18</ele>
<time>2022-05-26T11:22:53Z</time>
</trkpt>
<trkpt lat="48.001633" lon="11.329322">
<ele>603.979</ele>
<time>2022-05-26T11:22:54Z</time>
</trkpt>
<trkpt lat="48.001617" lon="11.32944">
<ele>603.566</ele>
<time>2022-05-26T11:22:55Z</time>
</trkpt>
<trkpt lat="48.001595" lon="11.329567">
<ele>603.241</ele>
<time>2022-05-26T11:22:56Z</time>
</trkpt>
<trkpt lat="48.001572" lon="11.329688">
<ele>603.05</ele>
<time>2022-05-26T11:22:57Z</time>
</trkpt>
<trkpt lat="48.001545" lon="11.329828">
<ele>602.588</ele>
<time>2022-05-26T11:22:58Z</time>
</trkpt>
<trkpt lat="48.001526" lon="11.329963">
<ele>602.181</ele>
<time>2022-05-26T11:22:59Z</time>
</trkpt>
<trkpt lat="48.001499" lon="11.330093">
<ele>601.917</ele>
<time>2022-05-26T11:23:00Z</time>
</trkpt>
<trkpt lat="48.001476" lon="11.330208">
<ele>601.43</ele>
<time>2022-05-26T11:23:01Z</time>
</trkpt>
<trkpt lat="48.001453" lon="11.330325">
<ele>601.065</ele>
<time>2022-05-26T11:23:02Z</time>
</trkpt>
<trkpt lat="48.001431" lon="11.330432">
<ele>600.84</ele>
<time>2022-05-26T11:23:03Z</time>
</trkpt>
<trkpt lat="48.001415" lon="11.330544">
<ele>600.379</ele>
<time>2022-05-26T11:23:04Z</time>
</trkpt>
<trkpt lat="48.001396" lon="11.330667">
<ele>600.014</ele>
<time>2022-05-26T11:23:05Z</time>
</trkpt>
<trkpt lat="48.001366" lon="11.330787">
<ele>599.742</ele>
<time>2022-05-26T11:23:06Z</time>
</trkpt>
<trkpt lat="48.001335" lon="11.330907">
<ele>599.333</ele>
<time>2022-05-26T11:23:07Z</time>
</trkpt>
<trkpt lat="48.001301" lon="11.33102">
<ele>599.016</ele>
<time>2022-05-26T11:23:08Z</time>
</trkpt>
<trkpt lat="48.001259" lon="11.331123">
<ele>598.755</ele>
<time>2022-05-26T11:23:09Z</time>
</trkpt>
<trkpt lat="48.001209" lon="11.331225">
<ele>598.272</ele>
<time>2022-05-26T11:23:10Z</time>
</trkpt>
<trkpt lat="48.00116" lon="11.331323">
<ele>597.898</ele>
<time>2022-05-26T11:23:11Z</time>
</trkpt>
<trkpt lat="48.001106" lon="11.331409">
<ele>597.681</ele>
<time>2022-05-26T11:23:12Z</time>
</trkpt>
<trkpt lat="48.001053" lon="11.331482">
<ele>597.24</ele>
<time>2022-05-26T11:23:13Z</time>
</trkpt>
<trkpt lat="48.000996" lon="11.331524">
<ele>596.928</ele>
<time>2022-05-26T11:23:14Z</time>
</trkpt>
<trkpt lat="48.000942" lon="11.331549">
<ele>596.302</ele>
<time>2022-05-26T11:23:15Z</time>
</trkpt>
<trkpt lat="48.000874" lon="11.331561">
<ele>595.669</ele>
<time>2022-05-26T11:23:16Z</time>
</trkpt>
<trkpt lat="48.00079" lon="11.331572">
<ele>595.264</ele>
<time>2022-05-26T11:23:17Z</time>
</trkpt>
<trkpt lat="48.00071" lon="11.331568">
<ele>594.607</ele>
<time>2022-05-26T11:23:18Z</time>
</trkpt>
<trkpt lat="48.000622" lon="11.331542">
<ele>594.04</ele>
<time>2022-05-26T11:23:19Z</time>
</trkpt>
<trkpt lat="48.000549" lon="11.331478">
<ele>593.306</ele>
<time>2022-05-26T11:23:20Z</time>
</trkpt>
<trkpt lat="48.000473" lon="11.331402">
<ele>592.831</ele>
<time>2022-05-26T11:23:21Z</time>
</trkpt>
<trkpt lat="48.000401" lon="11.331314">
<ele>592.134</ele>
<time>2022-05-26T11:23:22Z</time>
</trkpt>
<trkpt lat="48.000332" lon="11.331217">
<ele>591.731</ele>
<time>2022-05-26T11:23:23Z</time>
</trkpt>
<trkpt lat="48.000275" lon="11.331103">
<ele>591.199</ele>
<time>2022-05-26T11:23:24Z</time>
</trkpt>
<trkpt lat="48.000233" lon="11.33098">
<ele>590.526</ele>
<time>2022-05-26T11:23:25Z</time>
</trkpt>
<trkpt lat="48.000202" lon="11.330849">
<ele>590.01</ele>
<time>2022-05-26T11:23:26Z</time>
</trkpt>
<trkpt lat="48.000183" lon="11.330725">
<ele>589.472</ele>
<time>2022-05-26T11:23:27Z</time>
</trkpt>
<trkpt lat="48.000168" lon="11.3306">
<ele>588.77</ele>
<time>2022-05-26T11:23:28Z</time>
</trkpt>
<trkpt lat="48.000164" lon="11.330457">
<ele>588.214</ele>
<time>2022-05-26T11:23:29Z</time>
</trkpt>
<trkpt lat="48.000168" lon="11.330328">
<ele>587.594</ele>
<time>2022-05-26T11:23:30Z</time>
</trkpt>
<trkpt lat="48.000172" lon="11.330212">
<ele>586.784</ele>
<time>2022-05-26T11:23:31Z</time>
</trkpt>
<trkpt lat="48.000172" lon="11.330089">
<ele>586.228</ele>
<time>2022-05-26T11:23:32Z</time>
</trkpt>
<trkpt lat="48.000164" lon="11.329958">
<ele>585.52</ele>
<time>2022-05-26T11:23:33Z</time>
</trkpt>
<trkpt lat="48.000149" lon="11.329833">
<ele>585.037</ele>
<time>2022-05-26T11:23:34Z</time>
</trkpt>
<trkpt lat="48.00013" lon="11.329712">
<ele>584.428</ele>
<time>2022-05-26T11:23:35Z</time>
</trkpt>
<trkpt lat="48.000099" lon="11.329592">
<ele>583.637</ele>
<time>2022-05-26T11:23:36Z</time>
</trkpt>
<trkpt lat="48.000069" lon="11.329473">
<ele>583.231</ele>
<time>2022-05-26T11:23:37Z</time>
</trkpt>
<trkpt lat="48.000031" lon="11.329362">
<ele>582.592</ele>
<time>2022-05-26T11:23:38Z</time>
</trkpt>
<trkpt lat="47.999973" lon="11.329259">
<ele>581.912</ele>
<time>2022-05-26T11:23:39Z</time>
</trkpt>
<trkpt lat="47.999924" lon="11.329142">
<ele>581.167</ele>
<time>2022-05-26T11:23:40Z</time>
</trkpt>
<trkpt lat="47.999863" lon="11.329052">
<ele>580.299</ele>
<time>2022-05-26T11:23:41Z</time>
</trkpt>
<trkpt lat="47.999802" lon="11.328976">
<ele>579.689</ele>
<time>2022-05-26T11:23:42Z</time>
</trkpt>
<trkpt lat="47.999725" lon="11.328921">
<ele>578.933</ele>
<time>2022-05-26T11:23:43Z</time>
</trkpt>
<trkpt lat="47.99963" lon="11.328878">
<ele>578.431</ele>
<time>2022-05-26T11:23:44Z</time>
</trkpt>
<trkpt lat="47.999535" lon="11.328858">
<ele>577.794</ele>
<time>2022-05-26T11:23:45Z</time>
</trkpt>
<trkpt lat="47.999454" lon="11.328863">
<ele>577.013</ele>
<time>2022-05-26T11:23:46Z</time>
</trkpt>
<trkpt lat="47.999374" lon="11.328883">
<ele>576.497</ele>
<time>2022-05-26T11:23:47Z</time>
</trkpt>
<trkpt lat="47.999294" lon="11.328925">
<ele>575.836</ele>
<time>2022-05-26T11:23:48Z</time>
</trkpt>
<trkpt lat="47.999214" lon="11.328986">
<ele>575.302</ele>
<time>2022-05-26T11:23:49Z</time>
</trkpt>
<trkpt lat="47.999138" lon="11.329072">
<ele>574.665</ele>
<time>2022-05-26T11:23:50Z</time>
</trkpt>
<trkpt lat="47.99905" lon="11.32917">
<ele>573.908</ele>
<time>2022-05-26T11:23:51Z</time>
</trkpt>
<trkpt lat="47.998974" lon="11.329268">
<ele>573.405</ele>
<time>2022-05-26T11:23:52Z</time>
</trkpt>
<trkpt lat="47.998901" lon="11.32937">
<ele>572.707</ele>
<time>2022-05-26T11:23:53Z</time>
</trkpt>
<trkpt lat="47.998833" lon="11.329474">
<ele>572.246</ele>
<time>2022-05-26T11:23:54Z</time>
</trkpt>
<trkpt lat="47.998772" lon="11.329579">
<ele>571.648</ele>
<time>2022-05-26T11:23:55Z</time>
</trkpt>
<trkpt lat="47.998711" lon="11.329676">
<ele>570.897</ele>
<time>2022-05-26T11:23:56Z</time>
</trkpt>
<trkpt lat="47.99865" lon="11.329755">
<ele>570.21</ele>
<time>2022-05-26T11:23:57Z</time>
</trkpt>
<trkpt lat="47.998596" lon="11.329835">
<ele>569.693</ele>
<time>2022-05-26T11:23:58Z</time>
</trkpt>
<trkpt lat="47.998543" lon="11.329922">
<ele>569.01</ele>
<time>2022-05-26T11:23:59Z</time>
</trkpt>
<trkpt lat="47.998493" lon="11.330013">
<ele>568.504</ele>
<time>2022-05-26T11:24:00Z</time>
</trkpt>
<trkpt lat="47.99844" lon="11.3301">
<ele>567.853</ele>
<time>2022-05-26T11:24:01Z</time>
</trkpt>
<trkpt lat="47.998394" lon="11.330182">
<ele>567.353</ele>
<time>2022-05-26T11:24:02Z</time>
</trkpt>
<trkpt lat="47.998344" lon="11.33026">
<ele>567.036</ele>
<time>2022-05-26T11:24:03Z</time>
</trkpt>
<trkpt lat="47.998302" lon="11.330336">
<ele>566.554</ele>
<time>2022-05-26T11:24:04Z</time>
</trkpt>
<trkpt lat="47.998257" lon="11.330409">
<ele>565.937</ele>
<time>2022-05-26T11:24:05Z</time>
</trkpt>
<trkpt lat="47.998207" lon="11.330484">
<ele>565.456</ele>
<time>2022-05-26T11:24:06Z</time>
</trkpt>
<trkpt lat="47.998165" lon="11.330562">
<ele>565.153</ele>
<time>2022-05-26T11:24:07Z</time>
</trkpt>
<trkpt lat="47.998116" lon="11.330637">
<ele>564.667</ele>
<time>2022-05-26T11:24:08Z</time>
</trkpt>
<trkpt lat="47.998074" lon="11.330709">
<ele>564.277</ele>
<time>2022-05-26T11:24:09Z</time>
</trkpt>
<trkpt lat="47.998028" lon="11.330782">
<ele>563.726</ele>
<time>2022-05-26T11:24:10Z</time>
</trkpt>
<trkpt lat="47.997978" lon="11.330862">
<ele>563.348</ele>
<time>2022-05-26T11:24:11Z</time>
</trkpt>
<trkpt lat="47.997929" lon="11.330948">
<ele>562.817</ele>
<time>2022-05-26T11:24:12Z</time>
</trkpt>
<trkpt lat="47.997879" lon="11.331038">
<ele>562.468</ele>
<time>2022-05-26T11:24:13Z</time>
</trkpt>
<trkpt lat="47.997829" lon="11.331125">
<ele>561.905</ele>
<time>2022-05-26T11:24:14Z</time>
</trkpt>
<trkpt lat="47.99778" lon="11.33122">
<ele>561.468</ele>
<time>2022-05-26T11:24:15Z</time>
</trkpt>
<trkpt lat="47.997726" lon="11.33132">
<ele>561.108</ele>
<time>2022-05-26T11:24:16Z</time>
</trkpt>
<trkpt lat="47.997681" lon="11.331427">
<ele>560.938</ele>
<time>2022-05-26T11:24:17Z</time>
</trkpt>
<trkpt lat="47.997643" lon="11.331528">
<ele>560.827</ele>
<time>2022-05-26T11:24:18Z</time>
</trkpt>
<trkpt lat="47.997597" lon="11.331635">
<ele>560.731</ele>
<time>2022-05-26T11:24:19Z</time>
</trkpt>
<trkpt lat="47.997559" lon="11.331739">
<ele>560.444</ele>
<time>2022-05-26T11:24:20Z</time>
</trkpt>
<trkpt lat="47.99752" lon="11.331852">
<ele>560.223</ele>
<time>2022-05-26T11:24:21Z</time>
</trkpt>
<trkpt lat="47.99749" lon="11.331962">
<ele>559.975</ele>
<time>2022-05-26T11:24:22Z</time>
</trkpt>
<trkpt lat="47.997467" lon="11.332065">
<ele>559.858</ele>
<time>2022-05-26T11:24:23Z</time>
</trkpt>
<trkpt lat="47.997437" lon="11.33217">
<ele>559.787</ele>
<time>2022-05-26T11:24:24Z</time>
</trkpt>
<trkpt lat="47.997406" lon="11.332275">
<ele>559.485</ele>
<time>2022-05-26T11:24:25Z</time>
</trkpt>
<trkpt lat="47.997375" lon="11.332378">
<ele>559.264</ele>
<time>2022-05-26T11:24:26Z</time>
</trkpt>
<trkpt lat="47.997349" lon="11.332479">
<ele>559.112</ele>
<time>2022-05-26T11:24:27Z</time>
</trkpt>
<trkpt lat="47.997322" lon="11.332573">
<ele>559.007</ele>
<time>2022-05-26T11:24:28Z</time>
</trkpt>
<trkpt lat="47.997299" lon="11.332668">
<ele>558.896</ele>
<time>2022-05-26T11:24:29Z</time>
</trkpt>
<trkpt lat="47.99728" lon="11.33276">
<ele>558.813</ele>
<time>2022-05-26T11:24:30Z</time>
</trkpt>
<trkpt lat="47.997257" lon="11.332844">
<ele>558.759</ele>
<time>2022-05-26T11:24:31Z</time>
</trkpt>
<trkpt lat="47.997238" lon="11.332921">
<ele>558.734</ele>
<time>2022-05-26T11:24:32Z</time>
</trkpt>
<trkpt lat="47.997227" lon="11.333003">
<ele>558.734</ele>
<time>2022-05-26T11:24:33Z</time>
</trkpt>
<trkpt lat="47.997208" lon="11.333082">
<ele>558.734</ele>
<time>2022-05-26T11:24:34Z</time>
</trkpt>
<trkpt lat="47.997192" lon="11.333159">
<ele>558.989</ele>
<time>2022-05-26T11:24:35Z</time>
</trkpt>
<trkpt lat="47.997173" lon="11.333231">
<ele>559.197</ele>
<time>2022-05-26T11:24:36Z</time>
</trkpt>
<trkpt lat="47.997162" lon="11.33331">
<ele>559.36</ele>
<time>2022-05-26T11:24:37Z</time>
</trkpt>
<trkpt lat="47.997139" lon="11.333388">
<ele>559.479</ele>
<time>2022-05-26T11:24:38Z</time>
</trkpt>
<trkpt lat="47.997116" lon="11.333467">
<ele>559.607</ele>
<time>2022-05-26T11:24:39Z</time>
</trkpt>
<trkpt lat="47.997097" lon="11.333545">
<ele>559.698</ele>
<time>2022-05-26T11:24:40Z</time>
</trkpt>
<trkpt lat="47.997082" lon="11.33362">
<ele>559.755</ele>
<time>2022-05-26T11:24:41Z</time>
</trkpt>
<trkpt lat="47.997063" lon="11.33369">
<ele>559.782</ele>
<time>2022-05-26T11:24:42Z</time>
</trkpt>
<trkpt lat="47.997047" lon="11.333761">
<ele>559.782</ele>
<time>2022-05-26T11:24:43Z</time>
</trkpt>
<trkpt lat="47.997032" lon="11.333833">
<ele>559.782</ele>
<time>2022-05-26T11:24:44Z</time>
</trkpt>
<trkpt lat="47.997017" lon="11.333905">
<ele>559.782</ele>
<time>2022-05-26T11:24:45Z</time>
</trkpt>
<trkpt lat="47.996998" lon="11.333973">
<ele>559.782</ele>
<time>2022-05-26T11:24:46Z</time>
</trkpt>
<trkpt lat="47.996979" lon="11.334044">
<ele>559.782</ele>
<time>2022-05-26T11:24:47Z</time>
</trkpt>
<trkpt lat="47.996964" lon="11.334117">
<ele>559.782</ele>
<time>2022-05-26T11:24:48Z</time>
</trkpt>
<trkpt lat="47.996948" lon="11.334191">
<ele>559.782</ele>
<time>2022-05-26T11:24:49Z</time>
</trkpt>
<trkpt lat="47.996933" lon="11.334264">
<ele>560.098</ele>
<time>2022-05-26T11:24:50Z</time>
</trkpt>
<trkpt lat="47.996914" lon="11.334335">
<ele>560.339</ele>
<time>2022-05-26T11:24:51Z</time>
</trkpt>
<trkpt lat="47.996899" lon="11.334402">
<ele>560.52</ele>
<time>2022-05-26T11:24:52Z</time>
</trkpt>
<trkpt lat="47.996887" lon="11.334469">
<ele>560.631</ele>
<time>2022-05-26T11:24:53Z</time>
</trkpt>
<trkpt lat="47.996876" lon="11.334535">
<ele>561.029</ele>
<time>2022-05-26T11:24:54Z</time>
</trkpt>
<trkpt lat="47.996861" lon="11.334605">
<ele>561.32</ele>
<time>2022-05-26T11:24:55Z</time>
</trkpt>
<trkpt lat="47.996849" lon="11.334675">
<ele>561.528</ele>
<time>2022-05-26T11:24:56Z</time>
</trkpt>
<trkpt lat="47.996841" lon="11.334748">
<ele>561.672</ele>
<time>2022-05-26T11:24:57Z</time>
</trkpt>
<trkpt lat="47.996834" lon="11.334817">
<ele>561.77</ele>
<time>2022-05-26T11:24:58Z</time>
</trkpt>
<trkpt lat="47.99683" lon="11.334888">
<ele>562.104</ele>
<time>2022-05-26T11:24:59Z</time>
</trkpt>
<trkpt lat="47.99683" lon="11.334958">
<ele>562.368</ele>
<time>2022-05-26T11:25:00Z</time>
</trkpt>
<trkpt lat="47.996826" lon="11.335031">
<ele>562.558</ele>
<time>2022-05-26T11:25:01Z</time>
</trkpt>
<trkpt lat="47.996822" lon="11.335104">
<ele>562.686</ele>
<time>2022-05-26T11:25:02Z</time>
</trkpt>
<trkpt lat="47.996811" lon="11.335174">
<ele>562.784</ele>
<time>2022-05-26T11:25:03Z</time>
</trkpt>
<trkpt lat="47.996807" lon="11.335245">
<ele>562.857</ele>
<time>2022-05-26T11:25:04Z</time>
</trkpt>
<trkpt lat="47.996803" lon="11.335318">
<ele>562.903</ele>
<time>2022-05-26T11:25:05Z</time>
</trkpt>
<trkpt lat="47.996796" lon="11.335391">
<ele>562.926</ele>
<time>2022-05-26T11:25:06Z</time>
</trkpt>
<trkpt lat="47.996777" lon="11.335464">
<ele>562.926</ele>
<time>2022-05-26T11:25:07Z</time>
</trkpt>
<trkpt lat="47.996769" lon="11.335535">
<ele>562.926</ele>
<time>2022-05-26T11:25:08Z</time>
</trkpt>
<trkpt lat="47.996758" lon="11.335609">
<ele>562.926</ele>
<time>2022-05-26T11:25:09Z</time>
</trkpt>
<trkpt lat="47.996746" lon="11.335683">
<ele>562.926</ele>
<time>2022-05-26T11:25:10Z</time>
</trkpt>
<trkpt lat="47.996735" lon="11.335758">
<ele>562.926</ele>
<time>2022-05-26T11:25:11Z</time>
</trkpt>
<trkpt lat="47.996723" lon="11.335832">
<ele>562.926</ele>
<time>2022-05-26T11:25:12Z</time>
</trkpt>
<trkpt lat="47.996712" lon="11.335903">
<ele>562.926</ele>
<time>2022-05-26T11:25:13Z</time>
</trkpt>
<trkpt lat="47.996708" lon="11.335977">
<ele>562.926</ele>
<time>2022-05-26T11:25:14Z</time>
</trkpt>
<trkpt lat="47.9967" lon="11.33605">
<ele>562.926</ele>
<time>2022-05-26T11:25:15Z</time>
</trkpt>
<trkpt lat="47.9967" lon="11.336124">
<ele>563.165</ele>
<time>2022-05-26T11:25:16Z</time>
</trkpt>
<trkpt lat="47.996708" lon="11.336198">
<ele>563.354</ele>
<time>2022-05-26T11:25:17Z</time>
</trkpt>
<trkpt lat="47.996727" lon="11.336267">
<ele>563.484</ele>
<time>2022-05-26T11:25:18Z</time>
</trkpt>
<trkpt lat="47.996742" lon="11.336331">
<ele>563.624</ele>
<time>2022-05-26T11:25:19Z</time>
</trkpt>
<trkpt lat="47.996761" lon="11.336397">
<ele>563.734</ele>
<time>2022-05-26T11:25:20Z</time>
</trkpt>
<trkpt lat="47.996777" lon="11.33646">
<ele>563.813</ele>
<time>2022-05-26T11:25:21Z</time>
</trkpt>
<trkpt lat="47.996803" lon="11.336522">
<ele>563.862</ele>
<time>2022-05-26T11:25:22Z</time>
</trkpt>
<trkpt lat="47.996819" lon="11.336585">
<ele>563.886</ele>
<time>2022-05-26T11:25:23Z</time>
</trkpt>
<trkpt lat="47.996834" lon="11.336646">
<ele>563.886</ele>
<time>2022-05-26T11:25:24Z</time>
</trkpt>
<trkpt lat="47.996849" lon="11.336709">
<ele>563.887</ele>
<time>2022-05-26T11:25:25Z</time>
</trkpt>
<trkpt lat="47.996861" lon="11.336767">
<ele>564.142</ele>
<time>2022-05-26T11:25:26Z</time>
</trkpt>
<trkpt lat="47.996864" lon="11.336818">
<ele>564.344</ele>
<time>2022-05-26T11:25:27Z</time>
</trkpt>
<trkpt lat="47.996861" lon="11.33687">
<ele>564.488</ele>
<time>2022-05-26T11:25:28Z</time>
</trkpt>
<trkpt lat="47.996864" lon="11.33692">
<ele>564.638</ele>
<time>2022-05-26T11:25:29Z</time>
</trkpt>
<trkpt lat="47.996857" lon="11.336968">
<ele>564.755</ele>
<time>2022-05-26T11:25:30Z</time>
</trkpt>
<trkpt lat="47.996849" lon="11.337022">
<ele>564.844</ele>
<time>2022-05-26T11:25:31Z</time>
</trkpt>
<trkpt lat="47.996838" lon="11.337075">
<ele>564.905</ele>
<time>2022-05-26T11:25:32Z</time>
</trkpt>
<trkpt lat="47.99683" lon="11.33713">
<ele>564.935</ele>
<time>2022-05-26T11:25:33Z</time>
</trkpt>
<trkpt lat="47.996815" lon="11.337185">
<ele>564.935</ele>
<time>2022-05-26T11:25:34Z</time>
</trkpt>
<trkpt lat="47.996803" lon="11.337238">
<ele>564.935</ele>
<time>2022-05-26T11:25:35Z</time>
</trkpt>
<trkpt lat="47.996792" lon="11.337289">
<ele>564.935</ele>
<time>2022-05-26T11:25:36Z</time>
</trkpt>
<trkpt lat="47.99678" lon="11.337332">
<ele>564.935</ele>
<time>2022-05-26T11:25:37Z</time>
</trkpt>
<trkpt lat="47.996769" lon="11.337373">
<ele>564.935</ele>
<time>2022-05-26T11:25:38Z</time>
</trkpt>
<trkpt lat="47.996765" lon="11.337419">
<ele>564.935</ele>
<time>2022-05-26T11:25:39Z</time>
</trkpt>
<trkpt lat="47.996758" lon="11.337461">
<ele>564.935</ele>
<time>2022-05-26T11:25:40Z</time>
</trkpt>
<trkpt lat="47.996754" lon="11.337497">
<ele>564.935</ele>
<time>2022-05-26T11:25:41Z</time>
</trkpt>
<trkpt lat="47.99675" lon="11.337526">
<ele>564.69</ele>
<time>2022-05-26T11:25:42Z</time>
</trkpt>
<trkpt lat="47.99675" lon="11.337553">
<ele>564.491</ele>
<time>2022-05-26T11:25:43Z</time>
</trkpt>
<trkpt lat="47.996746" lon="11.337579">
<ele>564.33</ele>
<time>2022-05-26T11:25:44Z</time>
</trkpt>
<trkpt lat="47.996742" lon="11.337604">
<ele>564.205</ele>
<time>2022-05-26T11:25:45Z</time>
</trkpt>
<trkpt lat="47.996738" lon="11.337631">
<ele>564.134</ele>
<time>2022-05-26T11:25:46Z</time>
</trkpt>
<trkpt lat="47.996731" lon="11.337665">
<ele>563.878</ele>
<time>2022-05-26T11:25:47Z</time>
</trkpt>
<trkpt lat="47.996735" lon="11.337696">
<ele>563.665</ele>
<time>2022-05-26T11:25:48Z</time>
</trkpt>
<trkpt lat="47.996727" lon="11.337729">
<ele>563.458</ele>
<time>2022-05-26T11:25:49Z</time>
</trkpt>
<trkpt lat="47.996723" lon="11.337767">
<ele>563.32</ele>
<time>2022-05-26T11:25:50Z</time>
</trkpt>
<trkpt lat="47.996708" lon="11.337803">
<ele>563.22</ele>
<time>2022-05-26T11:25:51Z</time>
</trkpt>
<trkpt lat="47.996696" lon="11.33784">
<ele>563.155</ele>
<time>2022-05-26T11:25:52Z</time>
</trkpt>
<trkpt lat="47.996674" lon="11.337865">
<ele>563.117</ele>
<time>2022-05-26T11:25:53Z</time>
</trkpt>
<trkpt lat="47.996639" lon="11.337873">
<ele>563.1</ele>
<time>2022-05-26T11:25:54Z</time>
</trkpt>
<trkpt lat="47.996605" lon="11.337859">
<ele>562.806</ele>
<time>2022-05-26T11:25:55Z</time>
</trkpt>
<trkpt lat="47.996574" lon="11.337831">
<ele>562.576</ele>
<time>2022-05-26T11:25:56Z</time>
</trkpt>
<trkpt lat="47.996555" lon="11.3378">
<ele>562.418</ele>
<time>2022-05-26T11:25:57Z</time>
</trkpt>
<trkpt lat="47.996544" lon="11.33776">
<ele>562.51</ele>
<time>2022-05-26T11:25:58Z</time>
</trkpt>
<trkpt lat="47.996529" lon="11.337717">
<ele>562.593</ele>
<time>2022-05-26T11:25:59Z</time>
</trkpt>
<trkpt lat="47.99651" lon="11.33767">
<ele>562.669</ele>
<time>2022-05-26T11:26:00Z</time>
</trkpt>
<trkpt lat="47.99649" lon="11.33762">
<ele>562.671</ele>
<time>2022-05-26T11:26:01Z</time>
</trkpt>
<trkpt lat="47.996471" lon="11.337566">
<ele>563.031</ele>
<time>2022-05-26T11:26:02Z</time>
</trkpt>
<trkpt lat="47.996445" lon="11.33751">
<ele>563.343</ele>
<time>2022-05-26T11:26:03Z</time>
</trkpt>
<trkpt lat="47.996422" lon="11.337461">
<ele>563.616</ele>
<time>2022-05-26T11:26:04Z</time>
</trkpt>
<trkpt lat="47.996403" lon="11.337419">
<ele>563.816</ele>
<time>2022-05-26T11:26:05Z</time>
</trkpt>
<trkpt lat="47.996376" lon="11.337375">
<ele>563.927</ele>
<time>2022-05-26T11:26:06Z</time>
</trkpt>
<trkpt lat="47.996342" lon="11.337339">
<ele>563.981</ele>
<time>2022-05-26T11:26:07Z</time>
</trkpt>
<trkpt lat="47.996311" lon="11.3373">
<ele>564.249</ele>
<time>2022-05-26T11:26:08Z</time>
</trkpt>
<trkpt lat="47.996284" lon="11.337258">
<ele>564.477</ele>
<time>2022-05-26T11:26:09Z</time>
</trkpt>
<trkpt lat="47.996246" lon="11.337222">
<ele>564.641</ele>
<time>2022-05-26T11:26:10Z</time>
</trkpt>
<trkpt lat="47.996208" lon="11.33718">
<ele>564.776</ele>
<time>2022-05-26T11:26:11Z</time>
</trkpt>
<trkpt lat="47.99617" lon="11.337145">
<ele>564.869</ele>
<time>2022-05-26T11:26:12Z</time>
</trkpt>
<trkpt lat="47.996132" lon="11.337098">
<ele>565.219</ele>
<time>2022-05-26T11:26:13Z</time>
</trkpt>
<trkpt lat="47.996098" lon="11.337057">
<ele>565.481</ele>
<time>2022-05-26T11:26:14Z</time>
</trkpt>
<trkpt lat="47.996063" lon="11.337019">
<ele>565.679</ele>
<time>2022-05-26T11:26:15Z</time>
</trkpt>
<trkpt lat="47.996029" lon="11.336982">
<ele>565.835</ele>
<time>2022-05-26T11:26:16Z</time>
</trkpt>
<trkpt lat="47.995998" lon="11.336948">
<ele>565.921</ele>
<time>2022-05-26T11:26:17Z</time>
</trkpt>
<trkpt lat="47.995964" lon="11.336926">
<ele>565.98</ele>
<time>2022-05-26T11:26:18Z</time>
</trkpt>
<trkpt lat="47.995941" lon="11.336891">
<ele>566.261</ele>
<time>2022-05-26T11:26:19Z</time>
</trkpt>
<trkpt lat="47.995918" lon="11.336858">
<ele>566.479</ele>
<time>2022-05-26T11:26:20Z</time>
</trkpt>
<trkpt lat="47.995892" lon="11.33682">
<ele>566.636</ele>
<time>2022-05-26T11:26:21Z</time>
</trkpt>
<trkpt lat="47.995869" lon="11.336784">
<ele>566.745</ele>
<time>2022-05-26T11:26:22Z</time>
</trkpt>
<trkpt lat="47.995842" lon="11.336751">
<ele>567.106</ele>
<time>2022-05-26T11:26:23Z</time>
</trkpt>
<trkpt lat="47.995815" lon="11.336719">
<ele>567.403</ele>
<time>2022-05-26T11:26:24Z</time>
</trkpt>
<trkpt lat="47.995792" lon="11.336683">
<ele>567.645</ele>
<time>2022-05-26T11:26:25Z</time>
</trkpt>
<trkpt lat="47.995766" lon="11.336652">
<ele>567.816</ele>
<time>2022-05-26T11:26:26Z</time>
</trkpt>
<trkpt lat="47.995739" lon="11.336618">
<ele>567.928</ele>
<time>2022-05-26T11:26:27Z</time>
</trkpt>
<trkpt lat="47.99572" lon="11.336583">
<ele>567.995</ele>
<time>2022-05-26T11:26:28Z</time>
</trkpt>
<trkpt lat="47.995693" lon="11.336562">
<ele>568.259</ele>
<time>2022-05-26T11:26:29Z</time>
</trkpt>
<trkpt lat="47.995659" lon="11.33656">
<ele>568.463</ele>
<time>2022-05-26T11:26:30Z</time>
</trkpt>
<trkpt lat="47.995632" lon="11.33656">
<ele>568.608</ele>
<time>2022-05-26T11:26:31Z</time>
</trkpt>
<trkpt lat="47.995609" lon="11.336556">
<ele>568.725</ele>
<time>2022-05-26T11:26:32Z</time>
</trkpt>
<trkpt lat="47.995594" lon="11.33656">
<ele>568.817</ele>
<time>2022-05-26T11:26:33Z</time>
</trkpt>
<trkpt lat="47.995575" lon="11.336575">
<ele>568.885</ele>
<time>2022-05-26T11:26:34Z</time>
</trkpt>
<trkpt lat="47.995564" lon="11.336592">
<ele>568.93</ele>
<time>2022-05-26T11:26:35Z</time>
</trkpt>
<trkpt lat="47.99556" lon="11.336615">
<ele>568.954</ele>
<time>2022-05-26T11:26:36Z</time>
</trkpt>
<trkpt lat="47.995552" lon="11.336641">
<ele>568.954</ele>
<time>2022-05-26T11:26:37Z</time>
</trkpt>
<trkpt lat="47.995544" lon="11.336672">
<ele>568.954</ele>
<time>2022-05-26T11:26:38Z</time>
</trkpt>
<trkpt lat="47.995533" lon="11.336705">
<ele>568.954</ele>
<time>2022-05-26T11:26:39Z</time>
</trkpt>
<trkpt lat="47.995522" lon="11.33675">
<ele>568.954</ele>
<time>2022-05-26T11:26:40Z</time>
</trkpt>
<trkpt lat="47.995502" lon="11.336805">
<ele>568.628</ele>
<time>2022-05-26T11:26:41Z</time>
</trkpt>
<trkpt lat="47.995491" lon="11.336866">
<ele>568.446</ele>
<time>2022-05-26T11:26:42Z</time>
</trkpt>
<trkpt lat="47.995476" lon="11.336931">
<ele>568.007</ele>
<time>2022-05-26T11:26:43Z</time>
</trkpt>
<trkpt lat="47.995464" lon="11.337005">
<ele>567.345</ele>
<time>2022-05-26T11:26:44Z</time>
</trkpt>
<trkpt lat="47.995457" lon="11.33707">
<ele>567.012</ele>
<time>2022-05-26T11:26:45Z</time>
</trkpt>
<trkpt lat="47.995441" lon="11.337138">
<ele>566.406</ele>
<time>2022-05-26T11:26:46Z</time>
</trkpt>
<trkpt lat="47.995426" lon="11.337214">
<ele>566.049</ele>
<time>2022-05-26T11:26:47Z</time>
</trkpt>
<trkpt lat="47.995411" lon="11.337281">
<ele>565.519</ele>
<time>2022-05-26T11:26:48Z</time>
</trkpt>
<trkpt lat="47.995399" lon="11.33735">
<ele>565.112</ele>
<time>2022-05-26T11:26:49Z</time>
</trkpt>
<trkpt lat="47.995388" lon="11.337413">
<ele>564.495</ele>
<time>2022-05-26T11:26:50Z</time>
</trkpt>
<trkpt lat="47.995373" lon="11.337481">
<ele>564.087</ele>
<time>2022-05-26T11:26:51Z</time>
</trkpt>
<trkpt lat="47.995358" lon="11.337545">
<ele>563.442</ele>
<time>2022-05-26T11:26:52Z</time>
</trkpt>
<trkpt lat="47.995342" lon="11.337595">
<ele>562.927</ele>
<time>2022-05-26T11:26:53Z</time>
</trkpt>
<trkpt lat="47.995331" lon="11.337648">
<ele>562.617</ele>
<time>2022-05-26T11:26:54Z</time>
</trkpt>
<trkpt lat="47.995319" lon="11.337698">
<ele>562.114</ele>
<time>2022-05-26T11:26:55Z</time>
</trkpt>
<trkpt lat="47.995312" lon="11.337738">
<ele>561.429</ele>
<time>2022-05-26T11:26:56Z</time>
</trkpt>
<trkpt lat="47.995308" lon="11.337769">
<ele>561.022</ele>
<time>2022-05-26T11:26:57Z</time>
</trkpt>
<trkpt lat="47.995296" lon="11.337807">
<ele>560.701</ele>
<time>2022-05-26T11:26:58Z</time>
</trkpt>
<trkpt lat="47.995285" lon="11.337842">
<ele>560.433</ele>
<time>2022-05-26T11:26:59Z</time>
</trkpt>
<trkpt lat="47.995274" lon="11.337875">
<ele>560.018</ele>
<time>2022-05-26T11:27:00Z</time>
</trkpt>
<trkpt lat="47.99527" lon="11.337894">
<ele>559.677</ele>
<time>2022-05-26T11:27:01Z</time>
</trkpt>
<trkpt lat="47.99527" lon="11.33792">
<ele>559.435</ele>
<time>2022-05-26T11:27:02Z</time>
</trkpt>
<trkpt lat="47.995266" lon="11.337938">
<ele>559.269</ele>
<time>2022-05-26T11:27:03Z</time>
</trkpt>
<trkpt lat="47.995262" lon="11.337952">
<ele>559.09</ele>
<time>2022-05-26T11:27:04Z</time>
</trkpt>
<trkpt lat="47.995243" lon="11.338017">
<ele>559.029</ele>
<time>2022-05-26T11:27:13Z</time>
</trkpt>
<trkpt lat="47.99522" lon="11.338039">
<ele>559.007</ele>
<time>2022-05-26T11:27:14Z</time>
</trkpt>
<trkpt lat="47.99519" lon="11.338052">
<ele>558.738</ele>
<time>2022-05-26T11:27:15Z</time>
</trkpt>
<trkpt lat="47.995148" lon="11.338067">
<ele>558.55</ele>
<time>2022-05-26T11:27:16Z</time>
</trkpt>
<trkpt lat="47.99511" lon="11.33807">
<ele>558.337</ele>
<time>2022-05-26T11:27:17Z</time>
</trkpt>
<trkpt lat="47.995071" lon="11.338075">
<ele>558.214</ele>
<time>2022-05-26T11:27:18Z</time>
</trkpt>
<trkpt lat="47.995026" lon="11.338085">
<ele>558.127</ele>
<time>2022-05-26T11:27:19Z</time>
</trkpt>
<trkpt lat="47.994984" lon="11.3381">
<ele>558.084</ele>
<time>2022-05-26T11:27:20Z</time>
</trkpt>
<trkpt lat="47.994942" lon="11.338119">
<ele>558.064</ele>
<time>2022-05-26T11:27:21Z</time>
</trkpt>
<trkpt lat="47.9949" lon="11.338137">
<ele>558.036</ele>
<time>2022-05-26T11:27:22Z</time>
</trkpt>
<trkpt lat="47.994854" lon="11.338159">
<ele>558.036</ele>
<time>2022-05-26T11:27:23Z</time>
</trkpt>
<trkpt lat="47.994812" lon="11.33818">
<ele>557.813</ele>
<time>2022-05-26T11:27:24Z</time>
</trkpt>
<trkpt lat="47.994778" lon="11.338199">
<ele>557.639</ele>
<time>2022-05-26T11:27:25Z</time>
</trkpt>
<trkpt lat="47.994747" lon="11.338217">
<ele>557.521</ele>
<time>2022-05-26T11:27:26Z</time>
</trkpt>
<trkpt lat="47.994717" lon="11.338237">
<ele>557.4</ele>
<time>2022-05-26T11:27:27Z</time>
</trkpt>
<trkpt lat="47.99469" lon="11.338257">
<ele>557.306</ele>
<time>2022-05-26T11:27:28Z</time>
</trkpt>
<trkpt lat="47.994656" lon="11.338278">
<ele>557.236</ele>
<time>2022-05-26T11:27:29Z</time>
</trkpt>
<trkpt lat="47.994625" lon="11.3383">
<ele>557.19</ele>
<time>2022-05-26T11:27:30Z</time>
</trkpt>
<trkpt lat="47.994595" lon="11.338315">
<ele>556.944</ele>
<time>2022-05-26T11:27:31Z</time>
</trkpt>
<trkpt lat="47.994564" lon="11.338332">
<ele>556.713</ele>
<time>2022-05-26T11:27:32Z</time>
</trkpt>
<trkpt lat="47.994537" lon="11.338346">
<ele>556.546</ele>
<time>2022-05-26T11:27:33Z</time>
</trkpt>
<trkpt lat="47.994507" lon="11.33836">
<ele>556.449</ele>
<time>2022-05-26T11:27:34Z</time>
</trkpt>
<trkpt lat="47.994476" lon="11.338377">
<ele>556.123</ele>
<time>2022-05-26T11:27:35Z</time>
</trkpt>
<trkpt lat="47.99445" lon="11.338389">
<ele>555.886</ele>
<time>2022-05-26T11:27:36Z</time>
</trkpt>
<trkpt lat="47.994431" lon="11.338402">
<ele>555.674</ele>
<time>2022-05-26T11:27:37Z</time>
</trkpt>
<trkpt lat="47.994411" lon="11.338413">
<ele>555.512</ele>
<time>2022-05-26T11:27:38Z</time>
</trkpt>
<trkpt lat="47.994389" lon="11.33842">
<ele>555.41</ele>
<time>2022-05-26T11:27:39Z</time>
</trkpt>
<trkpt lat="47.994373" lon="11.338428">
<ele>555.138</ele>
<time>2022-05-26T11:27:40Z</time>
</trkpt>
<trkpt lat="47.994358" lon="11.338437">
<ele>554.914</ele>
<time>2022-05-26T11:27:41Z</time>
</trkpt>
<trkpt lat="47.994347" lon="11.338454">
<ele>554.75</ele>
<time>2022-05-26T11:27:42Z</time>
</trkpt>
<trkpt lat="47.994324" lon="11.338471">
<ele>554.588</ele>
<time>2022-05-26T11:27:43Z</time>
</trkpt>
<trkpt lat="47.994305" lon="11.338484">
<ele>554.499</ele>
<time>2022-05-26T11:27:44Z</time>
</trkpt>
<trkpt lat="47.994267" lon="11.338496">
<ele>554.435</ele>
<time>2022-05-26T11:27:45Z</time>
</trkpt>
<trkpt lat="47.994232" lon="11.338495">
<ele>554.394</ele>
<time>2022-05-26T11:27:46Z</time>
</trkpt>
<trkpt lat="47.994194" lon="11.338488">
<ele>554.37</ele>
<time>2022-05-26T11:27:47Z</time>
</trkpt>
<trkpt lat="47.994152" lon="11.33848">
<ele>554.37</ele>
<time>2022-05-26T11:27:48Z</time>
</trkpt>
<trkpt lat="47.994106" lon="11.338471">
<ele>554.37</ele>
<time>2022-05-26T11:27:49Z</time>
</trkpt>
<trkpt lat="47.994061" lon="11.338465">
<ele>554.053</ele>
<time>2022-05-26T11:27:50Z</time>
</trkpt>
<trkpt lat="47.994019" lon="11.338454">
<ele>553.84</ele>
<time>2022-05-26T11:27:51Z</time>
</trkpt>
<trkpt lat="47.993973" lon="11.338446">
<ele>553.73</ele>
<time>2022-05-26T11:27:52Z</time>
</trkpt>
<trkpt lat="47.993927" lon="11.338437">
<ele>553.361</ele>
<time>2022-05-26T11:27:53Z</time>
</trkpt>
<trkpt lat="47.993877" lon="11.338427">
<ele>553.079</ele>
<time>2022-05-26T11:27:54Z</time>
</trkpt>
<trkpt lat="47.993828" lon="11.338413">
<ele>552.875</ele>
<time>2022-05-26T11:27:55Z</time>
</trkpt>
<trkpt lat="47.993774" lon="11.338398">
<ele>552.739</ele>
<time>2022-05-26T11:27:56Z</time>
</trkpt>
<trkpt lat="47.993721" lon="11.338381">
<ele>552.337</ele>
<time>2022-05-26T11:27:57Z</time>
</trkpt>
<trkpt lat="47.993671" lon="11.338362">
<ele>552.038</ele>
<time>2022-05-26T11:27:58Z</time>
</trkpt>
<trkpt lat="47.993614" lon="11.338342">
<ele>551.846</ele>
<time>2022-05-26T11:27:59Z</time>
</trkpt>
<trkpt lat="47.993561" lon="11.33832">
<ele>551.431</ele>
<time>2022-05-26T11:28:00Z</time>
</trkpt>
<trkpt lat="47.993507" lon="11.338293">
<ele>551.162</ele>
<time>2022-05-26T11:28:01Z</time>
</trkpt>
<trkpt lat="47.99345" lon="11.338264">
<ele>550.682</ele>
<time>2022-05-26T11:28:02Z</time>
</trkpt>
<trkpt lat="47.993397" lon="11.338237">
<ele>550.32</ele>
<time>2022-05-26T11:28:03Z</time>
</trkpt>
<trkpt lat="47.993343" lon="11.338208">
<ele>550.044</ele>
<time>2022-05-26T11:28:04Z</time>
</trkpt>
<trkpt lat="47.993294" lon="11.33818">
<ele>549.856</ele>
<time>2022-05-26T11:28:05Z</time>
</trkpt>
<trkpt lat="47.993244" lon="11.338152">
<ele>549.739</ele>
<time>2022-05-26T11:28:06Z</time>
</trkpt>
<trkpt lat="47.993191" lon="11.338123">
<ele>549.64</ele>
<time>2022-05-26T11:28:07Z</time>
</trkpt>
<trkpt lat="47.993149" lon="11.338097">
<ele>549.595</ele>
<time>2022-05-26T11:28:08Z</time>
</trkpt>
<trkpt lat="47.993103" lon="11.338071">
<ele>549.572</ele>
<time>2022-05-26T11:28:09Z</time>
</trkpt>
<trkpt lat="47.993061" lon="11.338045">
<ele>549.572</ele>
<time>2022-05-26T11:28:10Z</time>
</trkpt>
<trkpt lat="47.993019" lon="11.338018">
<ele>549.572</ele>
<time>2022-05-26T11:28:11Z</time>
</trkpt>
<trkpt lat="47.992985" lon="11.337992">
<ele>549.572</ele>
<time>2022-05-26T11:28:12Z</time>
</trkpt>
<trkpt lat="47.992947" lon="11.337964">
<ele>549.572</ele>
<time>2022-05-26T11:28:13Z</time>
</trkpt>
<trkpt lat="47.992908" lon="11.337934">
<ele>549.572</ele>
<time>2022-05-26T11:28:14Z</time>
</trkpt>
<trkpt lat="47.992867" lon="11.337908">
<ele>549.572</ele>
<time>2022-05-26T11:28:15Z</time>
</trkpt>
<trkpt lat="47.992828" lon="11.337885">
<ele>549.572</ele>
<time>2022-05-26T11:28:16Z</time>
</trkpt>
<trkpt lat="47.99279" lon="11.337855">
<ele>549.572</ele>
<time>2022-05-26T11:28:17Z</time>
</trkpt>
<trkpt lat="47.992752" lon="11.337824">
<ele>549.572</ele>
<time>2022-05-26T11:28:18Z</time>
</trkpt>
<trkpt lat="47.992706" lon="11.337794">
<ele>549.572</ele>
<time>2022-05-26T11:28:19Z</time>
</trkpt>
<trkpt lat="47.992668" lon="11.337767">
<ele>549.572</ele>
<time>2022-05-26T11:28:20Z</time>
</trkpt>
<trkpt lat="47.992634" lon="11.337744">
<ele>549.572</ele>
<time>2022-05-26T11:28:21Z</time>
</trkpt>
<trkpt lat="47.992599" lon="11.33772">
<ele>549.572</ele>
<time>2022-05-26T11:28:22Z</time>
</trkpt>
<trkpt lat="47.992565" lon="11.3377">
<ele>549.572</ele>
<time>2022-05-26T11:28:23Z</time>
</trkpt>
<trkpt lat="47.992519" lon="11.337677">
<ele>549.572</ele>
<time>2022-05-26T11:28:24Z</time>
</trkpt>
<trkpt lat="47.992477" lon="11.337655">
<ele>549.572</ele>
<time>2022-05-26T11:28:25Z</time>
</trkpt>
<trkpt lat="47.992439" lon="11.337628">
<ele>549.572</ele>
<time>2022-05-26T11:28:26Z</time>
</trkpt>
<trkpt lat="47.992401" lon="11.337606">
<ele>549.572</ele>
<time>2022-05-26T11:28:27Z</time>
</trkpt>
<trkpt lat="47.992363" lon="11.337582">
<ele>549.572</ele>
<time>2022-05-26T11:28:28Z</time>
</trkpt>
<trkpt lat="47.992321" lon="11.337557">
<ele>549.572</ele>
<time>2022-05-26T11:28:29Z</time>
</trkpt>
<trkpt lat="47.992275" lon="11.337537">
<ele>549.572</ele>
<time>2022-05-26T11:28:30Z</time>
</trkpt>
<trkpt lat="47.992233" lon="11.33752">
<ele>549.572</ele>
<time>2022-05-26T11:28:31Z</time>
</trkpt>
<trkpt lat="47.992191" lon="11.337497">
<ele>549.572</ele>
<time>2022-05-26T11:28:32Z</time>
</trkpt>
<trkpt lat="47.992146" lon="11.337468">
<ele>549.572</ele>
<time>2022-05-26T11:28:33Z</time>
</trkpt>
<trkpt lat="47.992104" lon="11.337444">
<ele>549.572</ele>
<time>2022-05-26T11:28:34Z</time>
</trkpt>
<trkpt lat="47.992058" lon="11.33742">
<ele>549.572</ele>
<time>2022-05-26T11:28:35Z</time>
</trkpt>
<trkpt lat="47.99202" lon="11.337386">
<ele>549.572</ele>
<time>2022-05-26T11:28:36Z</time>
</trkpt>
<trkpt lat="47.991982" lon="11.337357">
<ele>549.572</ele>
<time>2022-05-26T11:28:37Z</time>
</trkpt>
<trkpt lat="47.99194" lon="11.33733">
<ele>549.572</ele>
<time>2022-05-26T11:28:38Z</time>
</trkpt>
<trkpt lat="47.991901" lon="11.337298">
<ele>549.572</ele>
<time>2022-05-26T11:28:39Z</time>
</trkpt>
<trkpt lat="47.991863" lon="11.337273">
<ele>549.572</ele>
<time>2022-05-26T11:28:40Z</time>
</trkpt>
<trkpt lat="47.991829" lon="11.337248">
<ele>549.572</ele>
<time>2022-05-26T11:28:41Z</time>
</trkpt>
<trkpt lat="47.991795" lon="11.337229">
<ele>549.572</ele>
<time>2022-05-26T11:28:42Z</time>
</trkpt>
<trkpt lat="47.99176" lon="11.337208">
<ele>549.572</ele>
<time>2022-05-26T11:28:43Z</time>
</trkpt>
<trkpt lat="47.99173" lon="11.337191">
<ele>549.572</ele>
<time>2022-05-26T11:28:44Z</time>
</trkpt>
<trkpt lat="47.991699" lon="11.337174">
<ele>549.572</ele>
<time>2022-05-26T11:28:45Z</time>
</trkpt>
<trkpt lat="47.991673" lon="11.337172">
<ele>549.572</ele>
<time>2022-05-26T11:28:46Z</time>
</trkpt>
<trkpt lat="47.99165" lon="11.337176">
<ele>549.572</ele>
<time>2022-05-26T11:28:47Z</time>
</trkpt>
<trkpt lat="47.991627" lon="11.337189">
<ele>549.572</ele>
<time>2022-05-26T11:28:48Z</time>
</trkpt>
<trkpt lat="47.991604" lon="11.337205">
<ele>549.572</ele>
<time>2022-05-26T11:28:49Z</time>
</trkpt>
<trkpt lat="47.991585" lon="11.33722">
<ele>549.572</ele>
<time>2022-05-26T11:28:50Z</time>
</trkpt>
<trkpt lat="47.991566" lon="11.337243">
<ele>549.572</ele>
<time>2022-05-26T11:28:51Z</time>
</trkpt>
<trkpt lat="47.99155" lon="11.337276">
<ele>549.572</ele>
<time>2022-05-26T11:28:52Z</time>
</trkpt>
<trkpt lat="47.991528" lon="11.337318">
<ele>549.351</ele>
<time>2022-05-26T11:28:53Z</time>
</trkpt>
<trkpt lat="47.991516" lon="11.337348">
<ele>548.863</ele>
<time>2022-05-26T11:28:54Z</time>
</trkpt>
<trkpt lat="47.991497" lon="11.337379">
<ele>548.485</ele>
<time>2022-05-26T11:28:55Z</time>
</trkpt>
<trkpt lat="47.991486" lon="11.337417">
<ele>548.237</ele>
<time>2022-05-26T11:28:56Z</time>
</trkpt>
<trkpt lat="47.991486" lon="11.337397">
<ele>547.981</ele>
<time>2022-05-26T11:28:57Z</time>
</trkpt>
<trkpt lat="47.991482" lon="11.337408">
<ele>547.788</ele>
<time>2022-05-26T11:28:58Z</time>
</trkpt>
<trkpt lat="47.991467" lon="11.337423">
<ele>547.673</ele>
<time>2022-05-26T11:28:59Z</time>
</trkpt>
<trkpt lat="47.991459" lon="11.337436">
<ele>547.596</ele>
<time>2022-05-26T11:29:00Z</time>
</trkpt>
<trkpt lat="47.991436" lon="11.337478">
<ele>547.566</ele>
<time>2022-05-26T11:29:01Z</time>
</trkpt>
<trkpt lat="47.991436" lon="11.33749">
<ele>547.566</ele>
<time>2022-05-26T11:29:02Z</time>
</trkpt>
<trkpt lat="47.991432" lon="11.337486">
<ele>547.566</ele>
<time>2022-05-26T11:29:03Z</time>
</trkpt>
<trkpt lat="47.991428" lon="11.337492">
<ele>547.566</ele>
<time>2022-05-26T11:29:04Z</time>
</trkpt>
<trkpt lat="47.991428" lon="11.337497">
<ele>547.566</ele>
<time>2022-05-26T11:29:05Z</time>
</trkpt>
<trkpt lat="47.991421" lon="11.337542">
<ele>547.566</ele>
<time>2022-05-26T11:29:09Z</time>
</trkpt>
<trkpt lat="47.991417" lon="11.337574">
<ele>547.566</ele>
<time>2022-05-26T11:29:10Z</time>
</trkpt>
<trkpt lat="47.991421" lon="11.337597">
<ele>547.566</ele>
<time>2022-05-26T11:29:11Z</time>
</trkpt>
<trkpt lat="47.991432" lon="11.33762">
<ele>547.566</ele>
<time>2022-05-26T11:29:12Z</time>
</trkpt>
<trkpt lat="47.991447" lon="11.337644">
<ele>547.566</ele>
<time>2022-05-26T11:29:13Z</time>
</trkpt>
<trkpt lat="47.991459" lon="11.337667">
<ele>547.566</ele>
<time>2022-05-26T11:29:14Z</time>
</trkpt>
<trkpt lat="47.991474" lon="11.337687">
<ele>547.566</ele>
<time>2022-05-26T11:29:15Z</time>
</trkpt>
<trkpt lat="47.991489" lon="11.337705">
<ele>547.566</ele>
<time>2022-05-26T11:29:16Z</time>
</trkpt>
<trkpt lat="47.991512" lon="11.33772">
<ele>547.566</ele>
<time>2022-05-26T11:29:17Z</time>
</trkpt>
<trkpt lat="47.991535" lon="11.337742">
<ele>547.566</ele>
<time>2022-05-26T11:29:18Z</time>
</trkpt>
<trkpt lat="47.991562" lon="11.337765">
<ele>547.566</ele>
<time>2022-05-26T11:29:19Z</time>
</trkpt>
<trkpt lat="47.991589" lon="11.337796">
<ele>547.566</ele>
<time>2022-05-26T11:29:20Z</time>
</trkpt>
<trkpt lat="47.991619" lon="11.337831">
<ele>547.566</ele>
<time>2022-05-26T11:29:21Z</time>
</trkpt>
<trkpt lat="47.991661" lon="11.337865">
<ele>547.566</ele>
<time>2022-05-26T11:29:22Z</time>
</trkpt>
<trkpt lat="47.991699" lon="11.337894">
<ele>547.566</ele>
<time>2022-05-26T11:29:23Z</time>
</trkpt>
<trkpt lat="47.991737" lon="11.337927">
<ele>547.24</ele>
<time>2022-05-26T11:29:24Z</time>
</trkpt>
<trkpt lat="47.991776" lon="11.337962">
<ele>547.014</ele>
<time>2022-05-26T11:29:25Z</time>
</trkpt>
<trkpt lat="47.99181" lon="11.337996">
<ele>546.853</ele>
<time>2022-05-26T11:29:26Z</time>
</trkpt>
<trkpt lat="47.991848" lon="11.338032">
<ele>546.738</ele>
<time>2022-05-26T11:29:27Z</time>
</trkpt>
<trkpt lat="47.991879" lon="11.338067">
<ele>546.66</ele>
<time>2022-05-26T11:29:28Z</time>
</trkpt>
<trkpt lat="47.991913" lon="11.338103">
<ele>546.603</ele>
<time>2022-05-26T11:29:29Z</time>
</trkpt>
<trkpt lat="47.991943" lon="11.338143">
<ele>546.549</ele>
<time>2022-05-26T11:29:30Z</time>
</trkpt>
<trkpt lat="47.991978" lon="11.338181">
<ele>546.52</ele>
<time>2022-05-26T11:29:31Z</time>
</trkpt>
<trkpt lat="47.992012" lon="11.338218">
<ele>546.52</ele>
<time>2022-05-26T11:29:32Z</time>
</trkpt>
<trkpt lat="47.992046" lon="11.338251">
<ele>546.52</ele>
<time>2022-05-26T11:29:33Z</time>
</trkpt>
<trkpt lat="47.992081" lon="11.338284">
<ele>546.52</ele>
<time>2022-05-26T11:29:34Z</time>
</trkpt>
<trkpt lat="47.992123" lon="11.338305">
<ele>546.52</ele>
<time>2022-05-26T11:29:35Z</time>
</trkpt>
<trkpt lat="47.992157" lon="11.33833">
<ele>546.52</ele>
<time>2022-05-26T11:29:36Z</time>
</trkpt>
<trkpt lat="47.992188" lon="11.33836">
<ele>546.52</ele>
<time>2022-05-26T11:29:37Z</time>
</trkpt>
<trkpt lat="47.992218" lon="11.338395">
<ele>546.52</ele>
<time>2022-05-26T11:29:38Z</time>
</trkpt>
<trkpt lat="47.992252" lon="11.338427">
<ele>546.52</ele>
<time>2022-05-26T11:29:39Z</time>
</trkpt>
<trkpt lat="47.99229" lon="11.338467">
<ele>546.52</ele>
<time>2022-05-26T11:29:40Z</time>
</trkpt>
<trkpt lat="47.992329" lon="11.338507">
<ele>546.52</ele>
<time>2022-05-26T11:29:41Z</time>
</trkpt>
<trkpt lat="47.992363" lon="11.338538">
<ele>546.52</ele>
<time>2022-05-26T11:29:42Z</time>
</trkpt>
<trkpt lat="47.992401" lon="11.33857">
<ele>546.52</ele>
<time>2022-05-26T11:29:43Z</time>
</trkpt>
<trkpt lat="47.992428" lon="11.338598">
<ele>546.52</ele>
<time>2022-05-26T11:29:44Z</time>
</trkpt>
<trkpt lat="47.992462" lon="11.338625">
<ele>546.52</ele>
<time>2022-05-26T11:29:45Z</time>
</trkpt>
<trkpt lat="47.992496" lon="11.338655">
<ele>546.52</ele>
<time>2022-05-26T11:29:46Z</time>
</trkpt>
<trkpt lat="47.992527" lon="11.338687">
<ele>546.52</ele>
<time>2022-05-26T11:29:47Z</time>
</trkpt>
<trkpt lat="47.992561" lon="11.338722">
<ele>546.52</ele>
<time>2022-05-26T11:29:48Z</time>
</trkpt>
<trkpt lat="47.992588" lon="11.338752">
<ele>546.52</ele>
<time>2022-05-26T11:29:49Z</time>
</trkpt>
<trkpt lat="47.992615" lon="11.338785">
<ele>546.52</ele>
<time>2022-05-26T11:29:50Z</time>
</trkpt>
<trkpt lat="47.992649" lon="11.33882">
<ele>546.52</ele>
<time>2022-05-26T11:29:51Z</time>
</trkpt>
<trkpt lat="47.99268" lon="11.338855">
<ele>546.52</ele>
<time>2022-05-26T11:29:52Z</time>
</trkpt>
<trkpt lat="47.992714" lon="11.33889">
<ele>546.52</ele>
<time>2022-05-26T11:29:53Z</time>
</trkpt>
<trkpt lat="47.992744" lon="11.338927">
<ele>546.52</ele>
<time>2022-05-26T11:29:54Z</time>
</trkpt>
<trkpt lat="47.992775" lon="11.338964">
<ele>546.52</ele>
<time>2022-05-26T11:29:55Z</time>
</trkpt>
<trkpt lat="47.992809" lon="11.339002">
<ele>546.52</ele>
<time>2022-05-26T11:29:56Z</time>
</trkpt>
<trkpt lat="47.992844" lon="11.339042">
<ele>546.52</ele>
<time>2022-05-26T11:29:57Z</time>
</trkpt>
<trkpt lat="47.992878" lon="11.33908">
<ele>546.52</ele>
<time>2022-05-26T11:29:58Z</time>
</trkpt>
<trkpt lat="47.992916" lon="11.339118">
<ele>546.52</ele>
<time>2022-05-26T11:29:59Z</time>
</trkpt>
<trkpt lat="47.992954" lon="11.339153">
<ele>546.52</ele>
<time>2022-05-26T11:30:00Z</time>
</trkpt>
<trkpt lat="47.992985" lon="11.339188">
<ele>546.52</ele>
<time>2022-05-26T11:30:01Z</time>
</trkpt>
<trkpt lat="47.993019" lon="11.339227">
<ele>546.52</ele>
<time>2022-05-26T11:30:02Z</time>
</trkpt>
<trkpt lat="47.99305" lon="11.339269">
<ele>546.52</ele>
<time>2022-05-26T11:30:03Z</time>
</trkpt>
<trkpt lat="47.993076" lon="11.339307">
<ele>546.52</ele>
<time>2022-05-26T11:30:04Z</time>
</trkpt>
<trkpt lat="47.993103" lon="11.339345">
<ele>546.52</ele>
<time>2022-05-26T11:30:05Z</time>
</trkpt>
<trkpt lat="47.99313" lon="11.339382">
<ele>546.52</ele>
<time>2022-05-26T11:30:06Z</time>
</trkpt>
<trkpt lat="47.993156" lon="11.33941">
<ele>546.52</ele>
<time>2022-05-26T11:30:07Z</time>
</trkpt>
<trkpt lat="47.993191" lon="11.339435">
<ele>546.52</ele>
<time>2022-05-26T11:30:08Z</time>
</trkpt>
<trkpt lat="47.993221" lon="11.339458">
<ele>546.52</ele>
<time>2022-05-26T11:30:09Z</time>
</trkpt>
<trkpt lat="47.993252" lon="11.33948">
<ele>546.52</ele>
<time>2022-05-26T11:30:10Z</time>
</trkpt>
<trkpt lat="47.993282" lon="11.339499">
<ele>546.269</ele>
<time>2022-05-26T11:30:11Z</time>
</trkpt>
<trkpt lat="47.993313" lon="11.339522">
<ele>546.07</ele>
<time>2022-05-26T11:30:12Z</time>
</trkpt>
<trkpt lat="47.993336" lon="11.339546">
<ele>545.911</ele>
<time>2022-05-26T11:30:13Z</time>
</trkpt>
<trkpt lat="47.993359" lon="11.339566">
<ele>545.798</ele>
<time>2022-05-26T11:30:14Z</time>
</trkpt>
<trkpt lat="47.993385" lon="11.339581">
<ele>545.723</ele>
<time>2022-05-26T11:30:15Z</time>
</trkpt>
<trkpt lat="47.993412" lon="11.339599">
<ele>545.677</ele>
<time>2022-05-26T11:30:16Z</time>
</trkpt>
<trkpt lat="47.993439" lon="11.339613">
<ele>545.653</ele>
<time>2022-05-26T11:30:17Z</time>
</trkpt>
<trkpt lat="47.993465" lon="11.339627">
<ele>545.647</ele>
<time>2022-05-26T11:30:18Z</time>
</trkpt>
<trkpt lat="47.993484" lon="11.339635">
<ele>545.647</ele>
<time>2022-05-26T11:30:19Z</time>
</trkpt>
<trkpt lat="47.993507" lon="11.33965">
<ele>545.647</ele>
<time>2022-05-26T11:30:20Z</time>
</trkpt>
<trkpt lat="47.99353" lon="11.339665">
<ele>545.648</ele>
<time>2022-05-26T11:30:21Z</time>
</trkpt>
<trkpt lat="47.993549" lon="11.33968">
<ele>545.647</ele>
<time>2022-05-26T11:30:22Z</time>
</trkpt>
<trkpt lat="47.993572" lon="11.339697">
<ele>545.647</ele>
<time>2022-05-26T11:30:23Z</time>
</trkpt>
<trkpt lat="47.993587" lon="11.339708">
<ele>545.647</ele>
<time>2022-05-26T11:30:24Z</time>
</trkpt>
<trkpt lat="47.993607" lon="11.339718">
<ele>545.647</ele>
<time>2022-05-26T11:30:25Z</time>
</trkpt>
<trkpt lat="47.993614" lon="11.339728">
<ele>545.647</ele>
<time>2022-05-26T11:30:26Z</time>
</trkpt>
<trkpt lat="47.993637" lon="11.339737">
<ele>545.647</ele>
<time>2022-05-26T11:30:27Z</time>
</trkpt>
<trkpt lat="47.993656" lon="11.339743">
<ele>545.647</ele>
<time>2022-05-26T11:30:28Z</time>
</trkpt>
<trkpt lat="47.993675" lon="11.339753">
<ele>545.647</ele>
<time>2022-05-26T11:30:29Z</time>
</trkpt>
<trkpt lat="47.99369" lon="11.339758">
<ele>545.647</ele>
<time>2022-05-26T11:30:30Z</time>
</trkpt>
<trkpt lat="47.993702" lon="11.33976">
<ele>545.647</ele>
<time>2022-05-26T11:30:31Z</time>
</trkpt>
<trkpt lat="47.993706" lon="11.339758">
<ele>545.647</ele>
<time>2022-05-26T11:30:32Z</time>
</trkpt>
<trkpt lat="47.99371" lon="11.339755">
<ele>545.647</ele>
<time>2022-05-26T11:30:33Z</time>
</trkpt>
<trkpt lat="47.99371" lon="11.339753">
<ele>545.647</ele>
<time>2022-05-26T11:30:34Z</time>
</trkpt>
<trkpt lat="47.993725" lon="11.339767">
<ele>545.647</ele>
<time>2022-05-26T11:30:36Z</time>
</trkpt>
<trkpt lat="47.993736" lon="11.339776">
<ele>545.648</ele>
<time>2022-05-26T11:30:37Z</time>
</trkpt>
<trkpt lat="47.99374" lon="11.33978">
<ele>545.647</ele>
<time>2022-05-26T11:30:38Z</time>
</trkpt>
<trkpt lat="47.993748" lon="11.339782">
<ele>545.648</ele>
<time>2022-05-26T11:30:39Z</time>
</trkpt>
<trkpt lat="47.993759" lon="11.339785">
<ele>545.647</ele>
<time>2022-05-26T11:30:40Z</time>
</trkpt>
<trkpt lat="47.993763" lon="11.339788">
<ele>545.647</ele>
<time>2022-05-26T11:30:41Z</time>
</trkpt>
<trkpt lat="47.993767" lon="11.339788">
<ele>545.648</ele>
<time>2022-05-26T11:30:42Z</time>
</trkpt>
<trkpt lat="47.993767" lon="11.33979">
<ele>545.647</ele>
<time>2022-05-26T11:30:43Z</time>
</trkpt>
<trkpt lat="47.993771" lon="11.33979">
<ele>545.647</ele>
<time>2022-05-26T11:30:44Z</time>
</trkpt>
<trkpt lat="47.993782" lon="11.3398">
<ele>545.647</ele>
<time>2022-05-26T11:30:51Z</time>
</trkpt>
<trkpt lat="47.993786" lon="11.339802">
<ele>545.648</ele>
<time>2022-05-26T11:30:52Z</time>
</trkpt>
<trkpt lat="47.993786" lon="11.339804">
<ele>545.647</ele>
<time>2022-05-26T11:30:53Z</time>
</trkpt>
<trkpt lat="47.993786" lon="11.339799">
<ele>545.648</ele>
<time>2022-05-26T11:31:16Z</time>
</trkpt>
<trkpt lat="47.993782" lon="11.3398">
<ele>545.647</ele>
<time>2022-05-26T11:31:17Z</time>
</trkpt>
<trkpt lat="47.993774" lon="11.3398">
<ele>545.647</ele>
<time>2022-05-26T11:31:18Z</time>
</trkpt>
<trkpt lat="47.993771" lon="11.339804">
<ele>545.647</ele>
<time>2022-05-26T11:31:19Z</time>
</trkpt>
<trkpt lat="47.993767" lon="11.339802">
<ele>545.647</ele>
<time>2022-05-26T11:31:21Z</time>
</trkpt>
<trkpt lat="47.993729" lon="11.339783">
<ele>545.647</ele>
<time>2022-05-26T11:31:43Z</time>
</trkpt>
<trkpt lat="47.993721" lon="11.339776">
<ele>545.648</ele>
<time>2022-05-26T11:31:44Z</time>
</trkpt>
<trkpt lat="47.993713" lon="11.339775">
<ele>545.648</ele>
<time>2022-05-26T11:31:45Z</time>
</trkpt>
<trkpt lat="47.993706" lon="11.339772">
<ele>545.647</ele>
<time>2022-05-26T11:31:46Z</time>
</trkpt>
<trkpt lat="47.993702" lon="11.339772">
<ele>545.648</ele>
<time>2022-05-26T11:31:47Z</time>
</trkpt>
<trkpt lat="47.993694" lon="11.33977">
<ele>545.647</ele>
<time>2022-05-26T11:31:48Z</time>
</trkpt>
<trkpt lat="47.993687" lon="11.33977">
<ele>545.647</ele>
<time>2022-05-26T11:31:49Z</time>
</trkpt>
<trkpt lat="47.993683" lon="11.33977">
<ele>545.647</ele>
<time>2022-05-26T11:31:50Z</time>
</trkpt>
<trkpt lat="47.993679" lon="11.339768">
<ele>545.647</ele>
<time>2022-05-26T11:31:51Z</time>
</trkpt>
<trkpt lat="47.993671" lon="11.339768">
<ele>545.647</ele>
<time>2022-05-26T11:31:52Z</time>
</trkpt>
<trkpt lat="47.993671" lon="11.339767">
<ele>545.647</ele>
<time>2022-05-26T11:31:53Z</time>
</trkpt>
<trkpt lat="47.993671" lon="11.339766">
<ele>545.647</ele>
<time>2022-05-26T11:31:54Z</time>
</trkpt>
<trkpt lat="47.993671" lon="11.339767">
<ele>545.648</ele>
<time>2022-05-26T11:31:55Z</time>
</trkpt>
<trkpt lat="47.993656" lon="11.33976">
<ele>545.647</ele>
<time>2022-05-26T11:32:01Z</time>
</trkpt>
<trkpt lat="47.993652" lon="11.339762">
<ele>545.647</ele>
<time>2022-05-26T11:32:02Z</time>
</trkpt>
<trkpt lat="47.993645" lon="11.339762">
<ele>545.647</ele>
<time>2022-05-26T11:32:03Z</time>
</trkpt>
<trkpt lat="47.993641" lon="11.339762">
<ele>545.647</ele>
<time>2022-05-26T11:32:04Z</time>
</trkpt>
<trkpt lat="47.993629" lon="11.339762">
<ele>545.647</ele>
<time>2022-05-26T11:32:05Z</time>
</trkpt>
<trkpt lat="47.993618" lon="11.33976">
<ele>545.647</ele>
<time>2022-05-26T11:32:06Z</time>
</trkpt>
<trkpt lat="47.99361" lon="11.339764">
<ele>545.647</ele>
<time>2022-05-26T11:32:07Z</time>
</trkpt>
<trkpt lat="47.993607" lon="11.33976">
<ele>545.647</ele>
<time>2022-05-26T11:32:08Z</time>
</trkpt>
<trkpt lat="47.993599" lon="11.339755">
<ele>545.647</ele>
<time>2022-05-26T11:32:09Z</time>
</trkpt>
<trkpt lat="47.993587" lon="11.339753">
<ele>545.648</ele>
<time>2022-05-26T11:32:10Z</time>
</trkpt>
<trkpt lat="47.99358" lon="11.33975">
<ele>545.648</ele>
<time>2022-05-26T11:32:11Z</time>
</trkpt>
<trkpt lat="47.993572" lon="11.339746">
<ele>545.647</ele>
<time>2022-05-26T11:32:12Z</time>
</trkpt>
<trkpt lat="47.993572" lon="11.339743">
<ele>545.647</ele>
<time>2022-05-26T11:32:13Z</time>
</trkpt>
<trkpt lat="47.993565" lon="11.339742">
<ele>545.647</ele>
<time>2022-05-26T11:32:14Z</time>
</trkpt>
<trkpt lat="47.993561" lon="11.339743">
<ele>545.647</ele>
<time>2022-05-26T11:32:15Z</time>
</trkpt>
<trkpt lat="47.993553" lon="11.339735">
<ele>545.647</ele>
<time>2022-05-26T11:32:18Z</time>
</trkpt>
<trkpt lat="47.993542" lon="11.339732">
<ele>545.647</ele>
<time>2022-05-26T11:32:19Z</time>
</trkpt>
<trkpt lat="47.993542" lon="11.33973">
<ele>545.648</ele>
<time>2022-05-26T11:32:20Z</time>
</trkpt>
<trkpt lat="47.993538" lon="11.339728">
<ele>545.647</ele>
<time>2022-05-26T11:32:21Z</time>
</trkpt>
<trkpt lat="47.993515" lon="11.339724">
<ele>545.647</ele>
<time>2022-05-26T11:33:25Z</time>
</trkpt>
<trkpt lat="47.993511" lon="11.339722">
<ele>545.648</ele>
<time>2022-05-26T11:33:26Z</time>
</trkpt>
<trkpt lat="47.993504" lon="11.33972">
<ele>545.648</ele>
<time>2022-05-26T11:33:27Z</time>
</trkpt>
<trkpt lat="47.993496" lon="11.339717">
<ele>545.648</ele>
<time>2022-05-26T11:33:28Z</time>
</trkpt>
<trkpt lat="47.993488" lon="11.339715">
<ele>545.647</ele>
<time>2022-05-26T11:33:29Z</time>
</trkpt>
<trkpt lat="47.993481" lon="11.339708">
<ele>545.648</ele>
<time>2022-05-26T11:33:30Z</time>
</trkpt>
<trkpt lat="47.993477" lon="11.339705">
<ele>545.647</ele>
<time>2022-05-26T11:33:31Z</time>
</trkpt>
<trkpt lat="47.993477" lon="11.339704">
<ele>545.648</ele>
<time>2022-05-26T11:33:32Z</time>
</trkpt>
<trkpt lat="47.993565" lon="11.339775">
<ele>545.647</ele>
<time>2022-05-26T11:33:33Z</time>
</trkpt>
<trkpt lat="47.993572" lon="11.339766">
<ele>545.648</ele>
<time>2022-05-26T11:34:12Z</time>
</trkpt>
<trkpt lat="47.993576" lon="11.339762">
<ele>545.648</ele>
<time>2022-05-26T11:34:13Z</time>
</trkpt>
<trkpt lat="47.99358" lon="11.33976">
<ele>545.647</ele>
<time>2022-05-26T11:34:14Z</time>
</trkpt>
<trkpt lat="47.99358" lon="11.339757">
<ele>545.648</ele>
<time>2022-05-26T11:34:15Z</time>
</trkpt>
<trkpt lat="47.993584" lon="11.339757">
<ele>545.647</ele>
<time>2022-05-26T11:34:16Z</time>
</trkpt>
<trkpt lat="47.993595" lon="11.339762">
<ele>545.647</ele>
<time>2022-05-26T11:36:35Z</time>
</trkpt>
<trkpt lat="47.993603" lon="11.339766">
<ele>545.647</ele>
<time>2022-05-26T11:36:36Z</time>
</trkpt>
<trkpt lat="47.993607" lon="11.339766">
<ele>545.647</ele>
<time>2022-05-26T11:36:37Z</time>
</trkpt>
<trkpt lat="47.993607" lon="11.339762">
<ele>545.647</ele>
<time>2022-05-26T11:36:38Z</time>
</trkpt>
<trkpt lat="47.993607" lon="11.339753">
<ele>545.648</ele>
<time>2022-05-26T11:36:39Z</time>
</trkpt>
<trkpt lat="47.993607" lon="11.339745">
<ele>545.647</ele>
<time>2022-05-26T11:36:40Z</time>
</trkpt>
<trkpt lat="47.993607" lon="11.339742">
<ele>545.647</ele>
<time>2022-05-26T11:36:41Z</time>
</trkpt>
<trkpt lat="47.993603" lon="11.339737">
<ele>545.647</ele>
<time>2022-05-26T11:36:42Z</time>
</trkpt>
<trkpt lat="47.993599" lon="11.339734">
<ele>545.648</ele>
<time>2022-05-26T11:36:43Z</time>
</trkpt>
<trkpt lat="47.993595" lon="11.339728">
<ele>545.647</ele>
<time>2022-05-26T11:36:44Z</time>
</trkpt>
<trkpt lat="47.993587" lon="11.339724">
<ele>545.647</ele>
<time>2022-05-26T11:36:45Z</time>
</trkpt>
<trkpt lat="47.993587" lon="11.33972">
<ele>545.648</ele>
<time>2022-05-26T11:36:46Z</time>
</trkpt>
<trkpt lat="47.993584" lon="11.33972">
<ele>545.647</ele>
<time>2022-05-26T11:36:48Z</time>
</trkpt>
<trkpt lat="47.993584" lon="11.339646">
<ele>545.647</ele>
<time>2022-05-26T11:42:04Z</time>
</trkpt>
<trkpt lat="47.99358" lon="11.339636">
<ele>545.647</ele>
<time>2022-05-26T11:42:05Z</time>
</trkpt>
<trkpt lat="47.993572" lon="11.339632">
<ele>545.647</ele>
<time>2022-05-26T11:42:06Z</time>
</trkpt>
<trkpt lat="47.993568" lon="11.339625">
<ele>545.647</ele>
<time>2022-05-26T11:42:07Z</time>
</trkpt>
<trkpt lat="47.993549" lon="11.339615">
<ele>545.647</ele>
<time>2022-05-26T11:42:08Z</time>
</trkpt>
<trkpt lat="47.993542" lon="11.339603">
<ele>545.648</ele>
<time>2022-05-26T11:42:09Z</time>
</trkpt>
<trkpt lat="47.993523" lon="11.339592">
<ele>545.647</ele>
<time>2022-05-26T11:42:10Z</time>
</trkpt>
<trkpt lat="47.993507" lon="11.339581">
<ele>545.647</ele>
<time>2022-05-26T11:42:11Z</time>
</trkpt>
<trkpt lat="47.993488" lon="11.339573">
<ele>545.648</ele>
<time>2022-05-26T11:42:12Z</time>
</trkpt>
<trkpt lat="47.993473" lon="11.339564">
<ele>545.647</ele>
<time>2022-05-26T11:42:13Z</time>
</trkpt>
<trkpt lat="47.99345" lon="11.339552">
<ele>545.648</ele>
<time>2022-05-26T11:42:14Z</time>
</trkpt>
<trkpt lat="47.993423" lon="11.339531">
<ele>545.647</ele>
<time>2022-05-26T11:42:15Z</time>
</trkpt>
<trkpt lat="47.993393" lon="11.33951">
<ele>545.647</ele>
<time>2022-05-26T11:42:16Z</time>
</trkpt>
<trkpt lat="47.993362" lon="11.339489">
<ele>545.647</ele>
<time>2022-05-26T11:42:17Z</time>
</trkpt>
<trkpt lat="47.993336" lon="11.339463">
<ele>545.647</ele>
<time>2022-05-26T11:42:18Z</time>
</trkpt>
<trkpt lat="47.993305" lon="11.339437">
<ele>545.648</ele>
<time>2022-05-26T11:42:19Z</time>
</trkpt>
<trkpt lat="47.993279" lon="11.339405">
<ele>545.648</ele>
<time>2022-05-26T11:42:20Z</time>
</trkpt>
<trkpt lat="47.993248" lon="11.33937">
<ele>545.648</ele>
<time>2022-05-26T11:42:21Z</time>
</trkpt>
<trkpt lat="47.993221" lon="11.339332">
<ele>545.648</ele>
<time>2022-05-26T11:42:22Z</time>
</trkpt>
<trkpt lat="47.993195" lon="11.339296">
<ele>545.647</ele>
<time>2022-05-26T11:42:23Z</time>
</trkpt>
<trkpt lat="47.993176" lon="11.339267">
<ele>545.648</ele>
<time>2022-05-26T11:42:24Z</time>
</trkpt>
<trkpt lat="47.993149" lon="11.339238">
<ele>545.648</ele>
<time>2022-05-26T11:42:25Z</time>
</trkpt>
<trkpt lat="47.993118" lon="11.339212">
<ele>545.648</ele>
<time>2022-05-26T11:42:26Z</time>
</trkpt>
<trkpt lat="47.99308" lon="11.339183">
<ele>545.648</ele>
<time>2022-05-26T11:42:27Z</time>
</trkpt>
<trkpt lat="47.99305" lon="11.339153">
<ele>545.647</ele>
<time>2022-05-26T11:42:28Z</time>
</trkpt>
<trkpt lat="47.993015" lon="11.33912">
<ele>545.648</ele>
<time>2022-05-26T11:42:29Z</time>
</trkpt>
<trkpt lat="47.992981" lon="11.339087">
<ele>545.647</ele>
<time>2022-05-26T11:42:30Z</time>
</trkpt>
<trkpt lat="47.99295" lon="11.339055">
<ele>545.648</ele>
<time>2022-05-26T11:42:31Z</time>
</trkpt>
<trkpt lat="47.992916" lon="11.33902">
<ele>545.647</ele>
<time>2022-05-26T11:42:32Z</time>
</trkpt>
<trkpt lat="47.992886" lon="11.338984">
<ele>545.647</ele>
<time>2022-05-26T11:42:33Z</time>
</trkpt>
<trkpt lat="47.992851" lon="11.33895">
<ele>545.647</ele>
<time>2022-05-26T11:42:34Z</time>
</trkpt>
<trkpt lat="47.992817" lon="11.338919">
<ele>545.648</ele>
<time>2022-05-26T11:42:35Z</time>
</trkpt>
<trkpt lat="47.992786" lon="11.338885">
<ele>545.647</ele>
<time>2022-05-26T11:42:36Z</time>
</trkpt>
<trkpt lat="47.992756" lon="11.338855">
<ele>545.647</ele>
<time>2022-05-26T11:42:37Z</time>
</trkpt>
<trkpt lat="47.992725" lon="11.338823">
<ele>545.647</ele>
<time>2022-05-26T11:42:38Z</time>
</trkpt>
<trkpt lat="47.992695" lon="11.338797">
<ele>545.648</ele>
<time>2022-05-26T11:42:39Z</time>
</trkpt>
<trkpt lat="47.992661" lon="11.338772">
<ele>545.647</ele>
<time>2022-05-26T11:42:40Z</time>
</trkpt>
<trkpt lat="47.99263" lon="11.338743">
<ele>545.647</ele>
<time>2022-05-26T11:42:41Z</time>
</trkpt>
<trkpt lat="47.992596" lon="11.338718">
<ele>545.647</ele>
<time>2022-05-26T11:42:42Z</time>
</trkpt>
<trkpt lat="47.992565" lon="11.338692">
<ele>545.647</ele>
<time>2022-05-26T11:42:43Z</time>
</trkpt>
<trkpt lat="47.992531" lon="11.338663">
<ele>545.647</ele>
<time>2022-05-26T11:42:44Z</time>
</trkpt>
<trkpt lat="47.992504" lon="11.33864">
<ele>545.647</ele>
<time>2022-05-26T11:42:45Z</time>
</trkpt>
<trkpt lat="47.992477" lon="11.338617">
<ele>545.647</ele>
<time>2022-05-26T11:42:46Z</time>
</trkpt>
<trkpt lat="47.992443" lon="11.338592">
<ele>545.647</ele>
<time>2022-05-26T11:42:47Z</time>
</trkpt>
<trkpt lat="47.992405" lon="11.338565">
<ele>545.647</ele>
<time>2022-05-26T11:42:48Z</time>
</trkpt>
<trkpt lat="47.992367" lon="11.338528">
<ele>545.647</ele>
<time>2022-05-26T11:42:49Z</time>
</trkpt>
<trkpt lat="47.992336" lon="11.338493">
<ele>545.647</ele>
<time>2022-05-26T11:42:50Z</time>
</trkpt>
<trkpt lat="47.992298" lon="11.338458">
<ele>545.647</ele>
<time>2022-05-26T11:42:51Z</time>
</trkpt>
<trkpt lat="47.992264" lon="11.338422">
<ele>545.647</ele>
<time>2022-05-26T11:42:52Z</time>
</trkpt>
<trkpt lat="47.992229" lon="11.338381">
<ele>545.647</ele>
<time>2022-05-26T11:42:53Z</time>
</trkpt>
<trkpt lat="47.992203" lon="11.338339">
<ele>545.648</ele>
<time>2022-05-26T11:42:54Z</time>
</trkpt>
<trkpt lat="47.992172" lon="11.338302">
<ele>545.647</ele>
<time>2022-05-26T11:42:55Z</time>
</trkpt>
<trkpt lat="47.992146" lon="11.338266">
<ele>545.647</ele>
<time>2022-05-26T11:42:56Z</time>
</trkpt>
<trkpt lat="47.992119" lon="11.338234">
<ele>545.648</ele>
<time>2022-05-26T11:42:57Z</time>
</trkpt>
<trkpt lat="47.992077" lon="11.338199">
<ele>545.647</ele>
<time>2022-05-26T11:42:58Z</time>
</trkpt>
<trkpt lat="47.992043" lon="11.338167">
<ele>545.647</ele>
<time>2022-05-26T11:42:59Z</time>
</trkpt>
<trkpt lat="47.992001" lon="11.338136">
<ele>545.648</ele>
<time>2022-05-26T11:43:00Z</time>
</trkpt>
<trkpt lat="47.991966" lon="11.338102">
<ele>545.647</ele>
<time>2022-05-26T11:43:01Z</time>
</trkpt>
<trkpt lat="47.991936" lon="11.338071">
<ele>545.647</ele>
<time>2022-05-26T11:43:02Z</time>
</trkpt>
<trkpt lat="47.991905" lon="11.338048">
<ele>545.647</ele>
<time>2022-05-26T11:43:03Z</time>
</trkpt>
<trkpt lat="47.991879" lon="11.338029">
<ele>545.647</ele>
<time>2022-05-26T11:43:04Z</time>
</trkpt>
<trkpt lat="47.991852" lon="11.338006">
<ele>545.647</ele>
<time>2022-05-26T11:43:05Z</time>
</trkpt>
<trkpt lat="47.991825" lon="11.33798">
<ele>545.647</ele>
<time>2022-05-26T11:43:06Z</time>
</trkpt>
<trkpt lat="47.991802" lon="11.337957">
<ele>545.647</ele>
<time>2022-05-26T11:43:07Z</time>
</trkpt>
<trkpt lat="47.991779" lon="11.337941">
<ele>545.647</ele>
<time>2022-05-26T11:43:08Z</time>
</trkpt>
<trkpt lat="47.991756" lon="11.337922">
<ele>545.647</ele>
<time>2022-05-26T11:43:09Z</time>
</trkpt>
<trkpt lat="47.991734" lon="11.337905">
<ele>545.647</ele>
<time>2022-05-26T11:43:10Z</time>
</trkpt>
<trkpt lat="47.991714" lon="11.337884">
<ele>545.647</ele>
<time>2022-05-26T11:43:11Z</time>
</trkpt>
<trkpt lat="47.991688" lon="11.337859">
<ele>545.883</ele>
<time>2022-05-26T11:43:12Z</time>
</trkpt>
<trkpt lat="47.991669" lon="11.337836">
<ele>546.068</ele>
<time>2022-05-26T11:43:13Z</time>
</trkpt>
<trkpt lat="47.991646" lon="11.337813">
<ele>546.219</ele>
<time>2022-05-26T11:43:14Z</time>
</trkpt>
<trkpt lat="47.991619" lon="11.337789">
<ele>546.338</ele>
<time>2022-05-26T11:43:15Z</time>
</trkpt>
<trkpt lat="47.991592" lon="11.337763">
<ele>546.413</ele>
<time>2022-05-26T11:43:16Z</time>
</trkpt>
<trkpt lat="47.991573" lon="11.337735">
<ele>546.459</ele>
<time>2022-05-26T11:43:17Z</time>
</trkpt>
<trkpt lat="47.991547" lon="11.337712">
<ele>546.497</ele>
<time>2022-05-26T11:43:18Z</time>
</trkpt>
<trkpt lat="47.99152" lon="11.337687">
<ele>546.52</ele>
<time>2022-05-26T11:43:19Z</time>
</trkpt>
<trkpt lat="47.991486" lon="11.337665">
<ele>546.52</ele>
<time>2022-05-26T11:43:20Z</time>
</trkpt>
<trkpt lat="47.991455" lon="11.33764">
<ele>546.52</ele>
<time>2022-05-26T11:43:21Z</time>
</trkpt>
<trkpt lat="47.991421" lon="11.337612">
<ele>546.52</ele>
<time>2022-05-26T11:43:22Z</time>
</trkpt>
<trkpt lat="47.99139" lon="11.337581">
<ele>546.52</ele>
<time>2022-05-26T11:43:23Z</time>
</trkpt>
<trkpt lat="47.991356" lon="11.337549">
<ele>546.52</ele>
<time>2022-05-26T11:43:24Z</time>
</trkpt>
<trkpt lat="47.991325" lon="11.337523">
<ele>546.52</ele>
<time>2022-05-26T11:43:25Z</time>
</trkpt>
<trkpt lat="47.991287" lon="11.337499">
<ele>546.771</ele>
<time>2022-05-26T11:43:26Z</time>
</trkpt>
<trkpt lat="47.991253" lon="11.33747">
<ele>546.962</ele>
<time>2022-05-26T11:43:27Z</time>
</trkpt>
<trkpt lat="47.991222" lon="11.337443">
<ele>547.089</ele>
<time>2022-05-26T11:43:28Z</time>
</trkpt>
<trkpt lat="47.991188" lon="11.337411">
<ele>547.227</ele>
<time>2022-05-26T11:43:29Z</time>
</trkpt>
<trkpt lat="47.991154" lon="11.337379">
<ele>547.332</ele>
<time>2022-05-26T11:43:30Z</time>
</trkpt>
<trkpt lat="47.991119" lon="11.33735">
<ele>547.406</ele>
<time>2022-05-26T11:43:31Z</time>
</trkpt>
<trkpt lat="47.991081" lon="11.337317">
<ele>547.455</ele>
<time>2022-05-26T11:43:32Z</time>
</trkpt>
<trkpt lat="47.991039" lon="11.337292">
<ele>547.479</ele>
<time>2022-05-26T11:43:33Z</time>
</trkpt>
<trkpt lat="47.991001" lon="11.337268">
<ele>547.479</ele>
<time>2022-05-26T11:43:34Z</time>
</trkpt>
<trkpt lat="47.990967" lon="11.337243">
<ele>547.479</ele>
<time>2022-05-26T11:43:35Z</time>
</trkpt>
<trkpt lat="47.990932" lon="11.337218">
<ele>547.479</ele>
<time>2022-05-26T11:43:36Z</time>
</trkpt>
<trkpt lat="47.990902" lon="11.337191">
<ele>547.479</ele>
<time>2022-05-26T11:43:37Z</time>
</trkpt>
<trkpt lat="47.990868" lon="11.337158">
<ele>547.479</ele>
<time>2022-05-26T11:43:38Z</time>
</trkpt>
<trkpt lat="47.990829" lon="11.337127">
<ele>547.479</ele>
<time>2022-05-26T11:43:39Z</time>
</trkpt>
<trkpt lat="47.990791" lon="11.3371">
<ele>547.479</ele>
<time>2022-05-26T11:43:40Z</time>
</trkpt>
<trkpt lat="47.990753" lon="11.337073">
<ele>547.479</ele>
<time>2022-05-26T11:43:41Z</time>
</trkpt>
<trkpt lat="47.990711" lon="11.337036">
<ele>547.479</ele>
<time>2022-05-26T11:43:42Z</time>
</trkpt>
<trkpt lat="47.990673" lon="11.337007">
<ele>547.479</ele>
<time>2022-05-26T11:43:43Z</time>
</trkpt>
<trkpt lat="47.990631" lon="11.336975">
<ele>547.479</ele>
<time>2022-05-26T11:43:44Z</time>
</trkpt>
<trkpt lat="47.990589" lon="11.336942">
<ele>547.479</ele>
<time>2022-05-26T11:43:45Z</time>
</trkpt>
<trkpt lat="47.990555" lon="11.336906">
<ele>547.479</ele>
<time>2022-05-26T11:43:46Z</time>
</trkpt>
<trkpt lat="47.990517" lon="11.336877">
<ele>547.479</ele>
<time>2022-05-26T11:43:47Z</time>
</trkpt>
<trkpt lat="47.990479" lon="11.336853">
<ele>547.479</ele>
<time>2022-05-26T11:43:48Z</time>
</trkpt>
<trkpt lat="47.99044" lon="11.336832">
<ele>547.729</ele>
<time>2022-05-26T11:43:49Z</time>
</trkpt>
<trkpt lat="47.990406" lon="11.336814">
<ele>547.935</ele>
<time>2022-05-26T11:43:50Z</time>
</trkpt>
<trkpt lat="47.990372" lon="11.336792">
<ele>548.109</ele>
<time>2022-05-26T11:43:51Z</time>
</trkpt>
<trkpt lat="47.990337" lon="11.336767">
<ele>548.249</ele>
<time>2022-05-26T11:43:52Z</time>
</trkpt>
<trkpt lat="47.990303" lon="11.336743">
<ele>548.363</ele>
<time>2022-05-26T11:43:53Z</time>
</trkpt>
<trkpt lat="47.990273" lon="11.336721">
<ele>548.435</ele>
<time>2022-05-26T11:43:54Z</time>
</trkpt>
<trkpt lat="47.990246" lon="11.336699">
<ele>548.718</ele>
<time>2022-05-26T11:43:55Z</time>
</trkpt>
<trkpt lat="47.990208" lon="11.336669">
<ele>548.944</ele>
<time>2022-05-26T11:43:56Z</time>
</trkpt>
<trkpt lat="47.990177" lon="11.336638">
<ele>549.074</ele>
<time>2022-05-26T11:43:57Z</time>
</trkpt>
<trkpt lat="47.990143" lon="11.336613">
<ele>549.409</ele>
<time>2022-05-26T11:43:58Z</time>
</trkpt>
<trkpt lat="47.990101" lon="11.336592">
<ele>549.708</ele>
<time>2022-05-26T11:43:59Z</time>
</trkpt>
<trkpt lat="47.990067" lon="11.336571">
<ele>549.944</ele>
<time>2022-05-26T11:44:00Z</time>
</trkpt>
<trkpt lat="47.990036" lon="11.336545">
<ele>550.118</ele>
<time>2022-05-26T11:44:01Z</time>
</trkpt>
<trkpt lat="47.990002" lon="11.336525">
<ele>550.221</ele>
<time>2022-05-26T11:44:02Z</time>
</trkpt>
<trkpt lat="47.989967" lon="11.336501">
<ele>550.524</ele>
<time>2022-05-26T11:44:03Z</time>
</trkpt>
<trkpt lat="47.989933" lon="11.336474">
<ele>550.758</ele>
<time>2022-05-26T11:44:04Z</time>
</trkpt>
<trkpt lat="47.989902" lon="11.336452">
<ele>550.944</ele>
<time>2022-05-26T11:44:05Z</time>
</trkpt>
<trkpt lat="47.989872" lon="11.336429">
<ele>551.061</ele>
<time>2022-05-26T11:44:06Z</time>
</trkpt>
<trkpt lat="47.989841" lon="11.3364">
<ele>551.383</ele>
<time>2022-05-26T11:44:07Z</time>
</trkpt>
<trkpt lat="47.989807" lon="11.336367">
<ele>551.634</ele>
<time>2022-05-26T11:44:08Z</time>
</trkpt>
<trkpt lat="47.989777" lon="11.336338">
<ele>551.859</ele>
<time>2022-05-26T11:44:09Z</time>
</trkpt>
<trkpt lat="47.989742" lon="11.336311">
<ele>552.023</ele>
<time>2022-05-26T11:44:10Z</time>
</trkpt>
<trkpt lat="47.989708" lon="11.336284">
<ele>552.114</ele>
<time>2022-05-26T11:44:11Z</time>
</trkpt>
<trkpt lat="47.989681" lon="11.336257">
<ele>552.412</ele>
<time>2022-05-26T11:44:12Z</time>
</trkpt>
<trkpt lat="47.989651" lon="11.336233">
<ele>552.645</ele>
<time>2022-05-26T11:44:13Z</time>
</trkpt>
<trkpt lat="47.989624" lon="11.336212">
<ele>552.813</ele>
<time>2022-05-26T11:44:14Z</time>
</trkpt>
<trkpt lat="47.98959" lon="11.336187">
<ele>552.957</ele>
<time>2022-05-26T11:44:15Z</time>
</trkpt>
<trkpt lat="47.989555" lon="11.336164">
<ele>553.035</ele>
<time>2022-05-26T11:44:16Z</time>
</trkpt>
<trkpt lat="47.989525" lon="11.336139">
<ele>553.084</ele>
<time>2022-05-26T11:44:17Z</time>
</trkpt>
<trkpt lat="47.989494" lon="11.336108">
<ele>553.125</ele>
<time>2022-05-26T11:44:18Z</time>
</trkpt>
<trkpt lat="47.989456" lon="11.336082">
<ele>553.15</ele>
<time>2022-05-26T11:44:19Z</time>
</trkpt>
<trkpt lat="47.989418" lon="11.336053">
<ele>553.15</ele>
<time>2022-05-26T11:44:20Z</time>
</trkpt>
<trkpt lat="47.98938" lon="11.336021">
<ele>553.15</ele>
<time>2022-05-26T11:44:21Z</time>
</trkpt>
<trkpt lat="47.989346" lon="11.33599">
<ele>553.15</ele>
<time>2022-05-26T11:44:22Z</time>
</trkpt>
<trkpt lat="47.989311" lon="11.335958">
<ele>553.15</ele>
<time>2022-05-26T11:44:23Z</time>
</trkpt>
<trkpt lat="47.989277" lon="11.335928">
<ele>553.15</ele>
<time>2022-05-26T11:44:24Z</time>
</trkpt>
<trkpt lat="47.989239" lon="11.335898">
<ele>553.15</ele>
<time>2022-05-26T11:44:25Z</time>
</trkpt>
<trkpt lat="47.989201" lon="11.335865">
<ele>553.15</ele>
<time>2022-05-26T11:44:26Z</time>
</trkpt>
<trkpt lat="47.989162" lon="11.335832">
<ele>553.15</ele>
<time>2022-05-26T11:44:27Z</time>
</trkpt>
<trkpt lat="47.989124" lon="11.3358">
<ele>553.15</ele>
<time>2022-05-26T11:44:28Z</time>
</trkpt>
<trkpt lat="47.989086" lon="11.335771">
<ele>553.15</ele>
<time>2022-05-26T11:44:29Z</time>
</trkpt>
<trkpt lat="47.989044" lon="11.335738">
<ele>553.15</ele>
<time>2022-05-26T11:44:30Z</time>
</trkpt>
<trkpt lat="47.989006" lon="11.335705">
<ele>553.15</ele>
<time>2022-05-26T11:44:31Z</time>
</trkpt>
<trkpt lat="47.988964" lon="11.335673">
<ele>553.424</ele>
<time>2022-05-26T11:44:32Z</time>
</trkpt>
<trkpt lat="47.988922" lon="11.335643">
<ele>553.632</ele>
<time>2022-05-26T11:44:33Z</time>
</trkpt>
<trkpt lat="47.98888" lon="11.335613">
<ele>553.792</ele>
<time>2022-05-26T11:44:34Z</time>
</trkpt>
<trkpt lat="47.988838" lon="11.335586">
<ele>553.909</ele>
<time>2022-05-26T11:44:35Z</time>
</trkpt>
<trkpt lat="47.988789" lon="11.335555">
<ele>553.989</ele>
<time>2022-05-26T11:44:36Z</time>
</trkpt>
<trkpt lat="47.988743" lon="11.335527">
<ele>554.044</ele>
<time>2022-05-26T11:44:37Z</time>
</trkpt>
<trkpt lat="47.988697" lon="11.335496">
<ele>554.084</ele>
<time>2022-05-26T11:44:38Z</time>
</trkpt>
<trkpt lat="47.988659" lon="11.335466">
<ele>554.11</ele>
<time>2022-05-26T11:44:39Z</time>
</trkpt>
<trkpt lat="47.988617" lon="11.335439">
<ele>554.11</ele>
<time>2022-05-26T11:44:40Z</time>
</trkpt>
<trkpt lat="47.988579" lon="11.335412">
<ele>554.11</ele>
<time>2022-05-26T11:44:41Z</time>
</trkpt>
<trkpt lat="47.988537" lon="11.335382">
<ele>554.11</ele>
<time>2022-05-26T11:44:42Z</time>
</trkpt>
<trkpt lat="47.988495" lon="11.335353">
<ele>554.11</ele>
<time>2022-05-26T11:44:43Z</time>
</trkpt>
<trkpt lat="47.988457" lon="11.33532">
<ele>554.11</ele>
<time>2022-05-26T11:44:44Z</time>
</trkpt>
<trkpt lat="47.988411" lon="11.335284">
<ele>554.11</ele>
<time>2022-05-26T11:44:45Z</time>
</trkpt>
<trkpt lat="47.988369" lon="11.335253">
<ele>553.892</ele>
<time>2022-05-26T11:44:46Z</time>
</trkpt>
<trkpt lat="47.988331" lon="11.335223">
<ele>553.715</ele>
<time>2022-05-26T11:44:47Z</time>
</trkpt>
<trkpt lat="47.988293" lon="11.335194">
<ele>553.596</ele>
<time>2022-05-26T11:44:48Z</time>
</trkpt>
<trkpt lat="47.988251" lon="11.335163">
<ele>553.47</ele>
<time>2022-05-26T11:44:49Z</time>
</trkpt>
<trkpt lat="47.988205" lon="11.335135">
<ele>553.373</ele>
<time>2022-05-26T11:44:50Z</time>
</trkpt>
<trkpt lat="47.988163" lon="11.335105">
<ele>553.303</ele>
<time>2022-05-26T11:44:51Z</time>
</trkpt>
<trkpt lat="47.988117" lon="11.33508">
<ele>553.26</ele>
<time>2022-05-26T11:44:52Z</time>
</trkpt>
<trkpt lat="47.988071" lon="11.335055">
<ele>553.237</ele>
<time>2022-05-26T11:44:53Z</time>
</trkpt>
<trkpt lat="47.988033" lon="11.335032">
<ele>553.237</ele>
<time>2022-05-26T11:44:54Z</time>
</trkpt>
<trkpt lat="47.987991" lon="11.334998">
<ele>553.237</ele>
<time>2022-05-26T11:44:55Z</time>
</trkpt>
<trkpt lat="47.987949" lon="11.334969">
<ele>553.237</ele>
<time>2022-05-26T11:44:56Z</time>
</trkpt>
<trkpt lat="47.987904" lon="11.334942">
<ele>553.237</ele>
<time>2022-05-26T11:44:57Z</time>
</trkpt>
<trkpt lat="47.987858" lon="11.334922">
<ele>553.237</ele>
<time>2022-05-26T11:44:58Z</time>
</trkpt>
<trkpt lat="47.987816" lon="11.334901">
<ele>553.237</ele>
<time>2022-05-26T11:44:59Z</time>
</trkpt>
<trkpt lat="47.987785" lon="11.33488">
<ele>553.237</ele>
<time>2022-05-26T11:45:00Z</time>
</trkpt>
<trkpt lat="47.987766" lon="11.334866">
<ele>553.237</ele>
<time>2022-05-26T11:45:01Z</time>
</trkpt>
<trkpt lat="47.987751" lon="11.334853">
<ele>553.237</ele>
<time>2022-05-26T11:45:02Z</time>
</trkpt>
<trkpt lat="47.98774" lon="11.334842">
<ele>553.237</ele>
<time>2022-05-26T11:45:03Z</time>
</trkpt>
<trkpt lat="47.987728" lon="11.334836">
<ele>553.237</ele>
<time>2022-05-26T11:45:04Z</time>
</trkpt>
<trkpt lat="47.987724" lon="11.334833">
<ele>553.237</ele>
<time>2022-05-26T11:45:05Z</time>
</trkpt>
<trkpt lat="47.987713" lon="11.334828">
<ele>553.237</ele>
<time>2022-05-26T11:45:06Z</time>
</trkpt>
<trkpt lat="47.987698" lon="11.334826">
<ele>553.237</ele>
<time>2022-05-26T11:45:07Z</time>
</trkpt>
<trkpt lat="47.987682" lon="11.33482">
<ele>553.237</ele>
<time>2022-05-26T11:45:08Z</time>
</trkpt>
<trkpt lat="47.987671" lon="11.334808">
<ele>553.237</ele>
<time>2022-05-26T11:45:09Z</time>
</trkpt>
<trkpt lat="47.987648" lon="11.334796">
<ele>553.237</ele>
<time>2022-05-26T11:45:10Z</time>
</trkpt>
<trkpt lat="47.987625" lon="11.334784">
<ele>553.237</ele>
<time>2022-05-26T11:45:11Z</time>
</trkpt>
<trkpt lat="47.987598" lon="11.334768">
<ele>553.237</ele>
<time>2022-05-26T11:45:12Z</time>
</trkpt>
<trkpt lat="47.987572" lon="11.334746">
<ele>553.237</ele>
<time>2022-05-26T11:45:13Z</time>
</trkpt>
<trkpt lat="47.987537" lon="11.334723">
<ele>553.237</ele>
<time>2022-05-26T11:45:14Z</time>
</trkpt>
<trkpt lat="47.987507" lon="11.3347">
<ele>553.237</ele>
<time>2022-05-26T11:45:15Z</time>
</trkpt>
<trkpt lat="47.987476" lon="11.33467">
<ele>553.237</ele>
<time>2022-05-26T11:45:16Z</time>
</trkpt>
<trkpt lat="47.987442" lon="11.334637">
<ele>553.237</ele>
<time>2022-05-26T11:45:17Z</time>
</trkpt>
<trkpt lat="47.987404" lon="11.334607">
<ele>553.237</ele>
<time>2022-05-26T11:45:18Z</time>
</trkpt>
<trkpt lat="47.98737" lon="11.334583">
<ele>553.237</ele>
<time>2022-05-26T11:45:19Z</time>
</trkpt>
<trkpt lat="47.987343" lon="11.334561">
<ele>553.237</ele>
<time>2022-05-26T11:45:20Z</time>
</trkpt>
<trkpt lat="47.987316" lon="11.334535">
<ele>553.237</ele>
<time>2022-05-26T11:45:21Z</time>
</trkpt>
<trkpt lat="47.987282" lon="11.334507">
<ele>553.237</ele>
<time>2022-05-26T11:45:22Z</time>
</trkpt>
<trkpt lat="47.987255" lon="11.334476">
<ele>552.98</ele>
<time>2022-05-26T11:45:23Z</time>
</trkpt>
<trkpt lat="47.987232" lon="11.334448">
<ele>552.783</ele>
<time>2022-05-26T11:45:24Z</time>
</trkpt>
<trkpt lat="47.987213" lon="11.334427">
<ele>552.635</ele>
<time>2022-05-26T11:45:25Z</time>
</trkpt>
<trkpt lat="47.987194" lon="11.334412">
<ele>552.541</ele>
<time>2022-05-26T11:45:26Z</time>
</trkpt>
<trkpt lat="47.987175" lon="11.334398">
<ele>552.228</ele>
<time>2022-05-26T11:45:27Z</time>
</trkpt>
<trkpt lat="47.987156" lon="11.334385">
<ele>551.983</ele>
<time>2022-05-26T11:45:28Z</time>
</trkpt>
<trkpt lat="47.987141" lon="11.334377">
<ele>551.773</ele>
<time>2022-05-26T11:45:29Z</time>
</trkpt>
<trkpt lat="47.987122" lon="11.334365">
<ele>551.611</ele>
<time>2022-05-26T11:45:30Z</time>
</trkpt>
<trkpt lat="47.987106" lon="11.334353">
<ele>551.499</ele>
<time>2022-05-26T11:45:31Z</time>
</trkpt>
<trkpt lat="47.987083" lon="11.334338">
<ele>551.415</ele>
<time>2022-05-26T11:45:32Z</time>
</trkpt>
<trkpt lat="47.987057" lon="11.334331">
<ele>551.135</ele>
<time>2022-05-26T11:45:33Z</time>
</trkpt>
<trkpt lat="47.987034" lon="11.334323">
<ele>550.916</ele>
<time>2022-05-26T11:45:34Z</time>
</trkpt>
<trkpt lat="47.987007" lon="11.334311">
<ele>550.74</ele>
<time>2022-05-26T11:45:35Z</time>
</trkpt>
<trkpt lat="47.986984" lon="11.334302">
<ele>550.628</ele>
<time>2022-05-26T11:45:36Z</time>
</trkpt>
<trkpt lat="47.986954" lon="11.334297">
<ele>550.549</ele>
<time>2022-05-26T11:45:37Z</time>
</trkpt>
<trkpt lat="47.986923" lon="11.334298">
<ele>550.518</ele>
<time>2022-05-26T11:45:38Z</time>
</trkpt>
<trkpt lat="47.986893" lon="11.334302">
<ele>550.73</ele>
<time>2022-05-26T11:45:39Z</time>
</trkpt>
<trkpt lat="47.986862" lon="11.334306">
<ele>550.902</ele>
<time>2022-05-26T11:45:40Z</time>
</trkpt>
<trkpt lat="47.986824" lon="11.33431">
<ele>551.017</ele>
<time>2022-05-26T11:45:41Z</time>
</trkpt>
<trkpt lat="47.986778" lon="11.33432">
<ele>551.421</ele>
<time>2022-05-26T11:45:42Z</time>
</trkpt>
<trkpt lat="47.986736" lon="11.334323">
<ele>551.733</ele>
<time>2022-05-26T11:45:43Z</time>
</trkpt>
<trkpt lat="47.986698" lon="11.334323">
<ele>551.972</ele>
<time>2022-05-26T11:45:44Z</time>
</trkpt>
<trkpt lat="47.986664" lon="11.334318">
<ele>552.135</ele>
<time>2022-05-26T11:45:45Z</time>
</trkpt>
<trkpt lat="47.986626" lon="11.334313">
<ele>552.245</ele>
<time>2022-05-26T11:45:46Z</time>
</trkpt>
<trkpt lat="47.986591" lon="11.334306">
<ele>552.301</ele>
<time>2022-05-26T11:45:47Z</time>
</trkpt>
<trkpt lat="47.986553" lon="11.334297">
<ele>552.555</ele>
<time>2022-05-26T11:45:48Z</time>
</trkpt>
<trkpt lat="47.986515" lon="11.33429">
<ele>552.77</ele>
<time>2022-05-26T11:45:49Z</time>
</trkpt>
<trkpt lat="47.986477" lon="11.334272">
<ele>552.931</ele>
<time>2022-05-26T11:45:50Z</time>
</trkpt>
<trkpt lat="47.986439" lon="11.334255">
<ele>553.074</ele>
<time>2022-05-26T11:45:51Z</time>
</trkpt>
<trkpt lat="47.986401" lon="11.334235">
<ele>553.163</ele>
<time>2022-05-26T11:45:52Z</time>
</trkpt>
<trkpt lat="47.986359" lon="11.334209">
<ele>553.465</ele>
<time>2022-05-26T11:45:53Z</time>
</trkpt>
<trkpt lat="47.986317" lon="11.334188">
<ele>553.702</ele>
<time>2022-05-26T11:45:54Z</time>
</trkpt>
<trkpt lat="47.986279" lon="11.334167">
<ele>553.874</ele>
<time>2022-05-26T11:45:55Z</time>
</trkpt>
<trkpt lat="47.986237" lon="11.334146">
<ele>554.004</ele>
<time>2022-05-26T11:45:56Z</time>
</trkpt>
<trkpt lat="47.986198" lon="11.334126">
<ele>554.077</ele>
<time>2022-05-26T11:45:57Z</time>
</trkpt>
<trkpt lat="47.986156" lon="11.334099">
<ele>554.127</ele>
<time>2022-05-26T11:45:58Z</time>
</trkpt>
<trkpt lat="47.986115" lon="11.334073">
<ele>554.175</ele>
<time>2022-05-26T11:45:59Z</time>
</trkpt>
<trkpt lat="47.986069" lon="11.33405">
<ele>554.197</ele>
<time>2022-05-26T11:46:00Z</time>
</trkpt>
<trkpt lat="47.986023" lon="11.334025">
<ele>554.197</ele>
<time>2022-05-26T11:46:01Z</time>
</trkpt>
<trkpt lat="47.985977" lon="11.333998">
<ele>554.197</ele>
<time>2022-05-26T11:46:02Z</time>
</trkpt>
<trkpt lat="47.985928" lon="11.333968">
<ele>554.197</ele>
<time>2022-05-26T11:46:03Z</time>
</trkpt>
<trkpt lat="47.985882" lon="11.333939">
<ele>554.197</ele>
<time>2022-05-26T11:46:04Z</time>
</trkpt>
<trkpt lat="47.985844" lon="11.333914">
<ele>554.197</ele>
<time>2022-05-26T11:46:05Z</time>
</trkpt>
<trkpt lat="47.985794" lon="11.333893">
<ele>554.44</ele>
<time>2022-05-26T11:46:06Z</time>
</trkpt>
<trkpt lat="47.985748" lon="11.333874">
<ele>554.627</ele>
<time>2022-05-26T11:46:07Z</time>
</trkpt>
<trkpt lat="47.98571" lon="11.333852">
<ele>554.753</ele>
<time>2022-05-26T11:46:08Z</time>
</trkpt>
<trkpt lat="47.985668" lon="11.333832">
<ele>554.892</ele>
<time>2022-05-26T11:46:09Z</time>
</trkpt>
<trkpt lat="47.985619" lon="11.333809">
<ele>555</ele>
<time>2022-05-26T11:46:10Z</time>
</trkpt>
<trkpt lat="47.98558" lon="11.333788">
<ele>555.08</ele>
<time>2022-05-26T11:46:11Z</time>
</trkpt>
<trkpt lat="47.985535" lon="11.33377">
<ele>555.13</ele>
<time>2022-05-26T11:46:12Z</time>
</trkpt>
<trkpt lat="47.985489" lon="11.333749">
<ele>555.391</ele>
<time>2022-05-26T11:46:13Z</time>
</trkpt>
<trkpt lat="47.985443" lon="11.333721">
<ele>555.622</ele>
<time>2022-05-26T11:46:14Z</time>
</trkpt>
<trkpt lat="47.985394" lon="11.333696">
<ele>555.781</ele>
<time>2022-05-26T11:46:15Z</time>
</trkpt>
<trkpt lat="47.985348" lon="11.33367">
<ele>555.897</ele>
<time>2022-05-26T11:46:16Z</time>
</trkpt>
<trkpt lat="47.985298" lon="11.33364">
<ele>555.982</ele>
<time>2022-05-26T11:46:17Z</time>
</trkpt>
<trkpt lat="47.985249" lon="11.333611">
<ele>556.039</ele>
<time>2022-05-26T11:46:18Z</time>
</trkpt>
<trkpt lat="47.985199" lon="11.333583">
<ele>556.093</ele>
<time>2022-05-26T11:46:19Z</time>
</trkpt>
<trkpt lat="47.985153" lon="11.333555">
<ele>556.118</ele>
<time>2022-05-26T11:46:20Z</time>
</trkpt>
<trkpt lat="47.985111" lon="11.333527">
<ele>556.118</ele>
<time>2022-05-26T11:46:21Z</time>
</trkpt>
<trkpt lat="47.985065" lon="11.333499">
<ele>556.117</ele>
<time>2022-05-26T11:46:22Z</time>
</trkpt>
<trkpt lat="47.98502" lon="11.333468">
<ele>556.117</ele>
<time>2022-05-26T11:46:23Z</time>
</trkpt>
<trkpt lat="47.984978" lon="11.333435">
<ele>556.117</ele>
<time>2022-05-26T11:46:24Z</time>
</trkpt>
<trkpt lat="47.984932" lon="11.333406">
<ele>556.117</ele>
<time>2022-05-26T11:46:25Z</time>
</trkpt>
<trkpt lat="47.984886" lon="11.33338">
<ele>556.117</ele>
<time>2022-05-26T11:46:26Z</time>
</trkpt>
<trkpt lat="47.98484" lon="11.33335">
<ele>556.117</ele>
<time>2022-05-26T11:46:27Z</time>
</trkpt>
<trkpt lat="47.984802" lon="11.333325">
<ele>556.117</ele>
<time>2022-05-26T11:46:28Z</time>
</trkpt>
<trkpt lat="47.984756" lon="11.333294">
<ele>556.117</ele>
<time>2022-05-26T11:46:29Z</time>
</trkpt>
<trkpt lat="47.984715" lon="11.333263">
<ele>556.117</ele>
<time>2022-05-26T11:46:30Z</time>
</trkpt>
<trkpt lat="47.984676" lon="11.333235">
<ele>556.118</ele>
<time>2022-05-26T11:46:31Z</time>
</trkpt>
<trkpt lat="47.984638" lon="11.333203">
<ele>556.117</ele>
<time>2022-05-26T11:46:32Z</time>
</trkpt>
<trkpt lat="47.984596" lon="11.333175">
<ele>556.117</ele>
<time>2022-05-26T11:46:33Z</time>
</trkpt>
<trkpt lat="47.984562" lon="11.33315">
<ele>556.117</ele>
<time>2022-05-26T11:46:34Z</time>
</trkpt>
<trkpt lat="47.984531" lon="11.333125">
<ele>556.117</ele>
<time>2022-05-26T11:46:35Z</time>
</trkpt>
<trkpt lat="47.984493" lon="11.333091">
<ele>556.117</ele>
<time>2022-05-26T11:46:36Z</time>
</trkpt>
<trkpt lat="47.984451" lon="11.333063">
<ele>556.117</ele>
<time>2022-05-26T11:46:37Z</time>
</trkpt>
<trkpt lat="47.984409" lon="11.333036">
<ele>556.118</ele>
<time>2022-05-26T11:46:38Z</time>
</trkpt>
<trkpt lat="47.984364" lon="11.333015">
<ele>556.117</ele>
<time>2022-05-26T11:46:39Z</time>
</trkpt>
<trkpt lat="47.984322" lon="11.332994">
<ele>556.118</ele>
<time>2022-05-26T11:46:40Z</time>
</trkpt>
<trkpt lat="47.984283" lon="11.33297">
<ele>556.118</ele>
<time>2022-05-26T11:46:41Z</time>
</trkpt>
<trkpt lat="47.984238" lon="11.332942">
<ele>556.118</ele>
<time>2022-05-26T11:46:42Z</time>
</trkpt>
<trkpt lat="47.984192" lon="11.332913">
<ele>556.118</ele>
<time>2022-05-26T11:46:43Z</time>
</trkpt>
<trkpt lat="47.984146" lon="11.332898">
<ele>556.118</ele>
<time>2022-05-26T11:46:44Z</time>
</trkpt>
<trkpt lat="47.984097" lon="11.332877">
<ele>556.117</ele>
<time>2022-05-26T11:46:45Z</time>
</trkpt>
<trkpt lat="47.984051" lon="11.332858">
<ele>556.117</ele>
<time>2022-05-26T11:46:46Z</time>
</trkpt>
<trkpt lat="47.984001" lon="11.332837">
<ele>556.117</ele>
<time>2022-05-26T11:46:47Z</time>
</trkpt>
<trkpt lat="47.983955" lon="11.332816">
<ele>556.118</ele>
<time>2022-05-26T11:46:48Z</time>
</trkpt>
<trkpt lat="47.98391" lon="11.332785">
<ele>556.117</ele>
<time>2022-05-26T11:46:49Z</time>
</trkpt>
<trkpt lat="47.983864" lon="11.332755">
<ele>556.118</ele>
<time>2022-05-26T11:46:50Z</time>
</trkpt>
<trkpt lat="47.983822" lon="11.332732">
<ele>556.117</ele>
<time>2022-05-26T11:46:51Z</time>
</trkpt>
<trkpt lat="47.983772" lon="11.332709">
<ele>556.117</ele>
<time>2022-05-26T11:46:52Z</time>
</trkpt>
<trkpt lat="47.98373" lon="11.332688">
<ele>556.117</ele>
<time>2022-05-26T11:46:53Z</time>
</trkpt>
<trkpt lat="47.983685" lon="11.332667">
<ele>556.117</ele>
<time>2022-05-26T11:46:54Z</time>
</trkpt>
<trkpt lat="47.983643" lon="11.332648">
<ele>556.117</ele>
<time>2022-05-26T11:46:55Z</time>
</trkpt>
<trkpt lat="47.983601" lon="11.332635">
<ele>556.117</ele>
<time>2022-05-26T11:46:56Z</time>
</trkpt>
<trkpt lat="47.983562" lon="11.332623">
<ele>556.118</ele>
<time>2022-05-26T11:46:57Z</time>
</trkpt>
<trkpt lat="47.983521" lon="11.332608">
<ele>556.117</ele>
<time>2022-05-26T11:46:58Z</time>
</trkpt>
<trkpt lat="47.983482" lon="11.33259">
<ele>556.118</ele>
<time>2022-05-26T11:46:59Z</time>
</trkpt>
<trkpt lat="47.98344" lon="11.332573">
<ele>556.118</ele>
<time>2022-05-26T11:47:00Z</time>
</trkpt>
<trkpt lat="47.983395" lon="11.332555">
<ele>556.117</ele>
<time>2022-05-26T11:47:01Z</time>
</trkpt>
<trkpt lat="47.983345" lon="11.332543">
<ele>556.117</ele>
<time>2022-05-26T11:47:02Z</time>
</trkpt>
<trkpt lat="47.983303" lon="11.332535">
<ele>556.117</ele>
<time>2022-05-26T11:47:03Z</time>
</trkpt>
<trkpt lat="47.983257" lon="11.33252">
<ele>556.117</ele>
<time>2022-05-26T11:47:04Z</time>
</trkpt>
<trkpt lat="47.983215" lon="11.332504">
<ele>556.118</ele>
<time>2022-05-26T11:47:05Z</time>
</trkpt>
<trkpt lat="47.98317" lon="11.33249">
<ele>556.117</ele>
<time>2022-05-26T11:47:06Z</time>
</trkpt>
<trkpt lat="47.98312" lon="11.332473">
<ele>556.117</ele>
<time>2022-05-26T11:47:07Z</time>
</trkpt>
<trkpt lat="47.983074" lon="11.33246">
<ele>556.117</ele>
<time>2022-05-26T11:47:08Z</time>
</trkpt>
<trkpt lat="47.983028" lon="11.332448">
<ele>556.117</ele>
<time>2022-05-26T11:47:09Z</time>
</trkpt>
<trkpt lat="47.982983" lon="11.332433">
<ele>556.118</ele>
<time>2022-05-26T11:47:10Z</time>
</trkpt>
<trkpt lat="47.982937" lon="11.332417">
<ele>556.117</ele>
<time>2022-05-26T11:47:11Z</time>
</trkpt>
<trkpt lat="47.982891" lon="11.332407">
<ele>556.118</ele>
<time>2022-05-26T11:47:12Z</time>
</trkpt>
<trkpt lat="47.982853" lon="11.332395">
<ele>556.118</ele>
<time>2022-05-26T11:47:13Z</time>
</trkpt>
<trkpt lat="47.982815" lon="11.332385">
<ele>556.118</ele>
<time>2022-05-26T11:47:14Z</time>
</trkpt>
<trkpt lat="47.982761" lon="11.332374">
<ele>556.117</ele>
<time>2022-05-26T11:47:15Z</time>
</trkpt>
<trkpt lat="47.9827" lon="11.332361">
<ele>555.741</ele>
<time>2022-05-26T11:47:16Z</time>
</trkpt>
<trkpt lat="47.982639" lon="11.332343">
<ele>555.433</ele>
<time>2022-05-26T11:47:17Z</time>
</trkpt>
<trkpt lat="47.982578" lon="11.332312">
<ele>555.232</ele>
<time>2022-05-26T11:47:18Z</time>
</trkpt>
<trkpt lat="47.982513" lon="11.332284">
<ele>555.006</ele>
<time>2022-05-26T11:47:19Z</time>
</trkpt>
<trkpt lat="47.982452" lon="11.332272">
<ele>554.831</ele>
<time>2022-05-26T11:47:20Z</time>
</trkpt>
<trkpt lat="47.982399" lon="11.332254">
<ele>554.958</ele>
<time>2022-05-26T11:47:21Z</time>
</trkpt>
<trkpt lat="47.982353" lon="11.33223">
<ele>555.08</ele>
<time>2022-05-26T11:47:22Z</time>
</trkpt>
<trkpt lat="47.982304" lon="11.332205">
<ele>555.194</ele>
<time>2022-05-26T11:47:23Z</time>
</trkpt>
<trkpt lat="47.982258" lon="11.332186">
<ele>555.258</ele>
<time>2022-05-26T11:47:24Z</time>
</trkpt>
<trkpt lat="47.982212" lon="11.332165">
<ele>555.375</ele>
<time>2022-05-26T11:47:25Z</time>
</trkpt>
<trkpt lat="47.982182" lon="11.332144">
<ele>555.457</ele>
<time>2022-05-26T11:47:26Z</time>
</trkpt>
<trkpt lat="47.982136" lon="11.332122">
<ele>555.512</ele>
<time>2022-05-26T11:47:27Z</time>
</trkpt>
<trkpt lat="47.982094" lon="11.332093">
<ele>555.562</ele>
<time>2022-05-26T11:47:28Z</time>
</trkpt>
<trkpt lat="47.982056" lon="11.332062">
<ele>555.594</ele>
<time>2022-05-26T11:47:29Z</time>
</trkpt>
<trkpt lat="47.982002" lon="11.332042">
<ele>555.594</ele>
<time>2022-05-26T11:47:30Z</time>
</trkpt>
<trkpt lat="47.981956" lon="11.332016">
<ele>555.594</ele>
<time>2022-05-26T11:47:31Z</time>
</trkpt>
<trkpt lat="47.981911" lon="11.331995">
<ele>555.594</ele>
<time>2022-05-26T11:47:32Z</time>
</trkpt>
<trkpt lat="47.981865" lon="11.331968">
<ele>555.594</ele>
<time>2022-05-26T11:47:33Z</time>
</trkpt>
<trkpt lat="47.981812" lon="11.331948">
<ele>555.594</ele>
<time>2022-05-26T11:47:34Z</time>
</trkpt>
<trkpt lat="47.98177" lon="11.331928">
<ele>555.594</ele>
<time>2022-05-26T11:47:35Z</time>
</trkpt>
<trkpt lat="47.981724" lon="11.331913">
<ele>555.594</ele>
<time>2022-05-26T11:47:36Z</time>
</trkpt>
<trkpt lat="47.981674" lon="11.331895">
<ele>555.594</ele>
<time>2022-05-26T11:47:37Z</time>
</trkpt>
<trkpt lat="47.981636" lon="11.331869">
<ele>555.594</ele>
<time>2022-05-26T11:47:38Z</time>
</trkpt>
<trkpt lat="47.981583" lon="11.331841">
<ele>555.594</ele>
<time>2022-05-26T11:47:39Z</time>
</trkpt>
<trkpt lat="47.981537" lon="11.331819">
<ele>555.594</ele>
<time>2022-05-26T11:47:40Z</time>
</trkpt>
<trkpt lat="47.981499" lon="11.331797">
<ele>555.594</ele>
<time>2022-05-26T11:47:41Z</time>
</trkpt>
<trkpt lat="47.981449" lon="11.331775">
<ele>555.594</ele>
<time>2022-05-26T11:47:42Z</time>
</trkpt>
<trkpt lat="47.981407" lon="11.331754">
<ele>555.594</ele>
<time>2022-05-26T11:47:43Z</time>
</trkpt>
<trkpt lat="47.981358" lon="11.331729">
<ele>555.594</ele>
<time>2022-05-26T11:47:44Z</time>
</trkpt>
<trkpt lat="47.981316" lon="11.331705">
<ele>555.594</ele>
<time>2022-05-26T11:47:45Z</time>
</trkpt>
<trkpt lat="47.981277" lon="11.331687">
<ele>555.594</ele>
<time>2022-05-26T11:47:46Z</time>
</trkpt>
<trkpt lat="47.981236" lon="11.331672">
<ele>555.594</ele>
<time>2022-05-26T11:47:47Z</time>
</trkpt>
<trkpt lat="47.981186" lon="11.331647">
<ele>555.594</ele>
<time>2022-05-26T11:47:48Z</time>
</trkpt>
<trkpt lat="47.981144" lon="11.331618">
<ele>555.594</ele>
<time>2022-05-26T11:47:49Z</time>
</trkpt>
<trkpt lat="47.981094" lon="11.331592">
<ele>555.594</ele>
<time>2022-05-26T11:47:50Z</time>
</trkpt>
<trkpt lat="47.981056" lon="11.331572">
<ele>555.594</ele>
<time>2022-05-26T11:47:51Z</time>
</trkpt>
<trkpt lat="47.981022" lon="11.331543">
<ele>555.594</ele>
<time>2022-05-26T11:47:52Z</time>
</trkpt>
<trkpt lat="47.98098" lon="11.33152">
<ele>555.594</ele>
<time>2022-05-26T11:47:53Z</time>
</trkpt>
<trkpt lat="47.980938" lon="11.331482">
<ele>555.594</ele>
<time>2022-05-26T11:47:54Z</time>
</trkpt>
<trkpt lat="47.980892" lon="11.33144">
<ele>555.84</ele>
<time>2022-05-26T11:47:55Z</time>
</trkpt>
<trkpt lat="47.980835" lon="11.331395">
<ele>556.037</ele>
<time>2022-05-26T11:47:56Z</time>
</trkpt>
<trkpt lat="47.980793" lon="11.331368">
<ele>556.199</ele>
<time>2022-05-26T11:47:57Z</time>
</trkpt>
<trkpt lat="47.980755" lon="11.331339">
<ele>556.298</ele>
<time>2022-05-26T11:47:58Z</time>
</trkpt>
<trkpt lat="47.980694" lon="11.33129">
<ele>556.416</ele>
<time>2022-05-26T11:47:59Z</time>
</trkpt>
<trkpt lat="47.980637" lon="11.331253">
<ele>556.489</ele>
<time>2022-05-26T11:48:00Z</time>
</trkpt>
<trkpt lat="47.980572" lon="11.331215">
<ele>556.532</ele>
<time>2022-05-26T11:48:01Z</time>
</trkpt>
<trkpt lat="47.980511" lon="11.331178">
<ele>556.554</ele>
<time>2022-05-26T11:48:02Z</time>
</trkpt>
<trkpt lat="47.980453" lon="11.331127">
<ele>556.554</ele>
<time>2022-05-26T11:48:03Z</time>
</trkpt>
<trkpt lat="47.980404" lon="11.331085">
<ele>556.295</ele>
<time>2022-05-26T11:48:04Z</time>
</trkpt>
<trkpt lat="47.980343" lon="11.331038">
<ele>556.086</ele>
<time>2022-05-26T11:48:05Z</time>
</trkpt>
<trkpt lat="47.980293" lon="11.330987">
<ele>555.941</ele>
<time>2022-05-26T11:48:06Z</time>
</trkpt>
<trkpt lat="47.980236" lon="11.330941">
<ele>555.865</ele>
<time>2022-05-26T11:48:07Z</time>
</trkpt>
<trkpt lat="47.980198" lon="11.330899">
<ele>555.521</ele>
<time>2022-05-26T11:48:08Z</time>
</trkpt>
<trkpt lat="47.980156" lon="11.330876">
<ele>555.237</ele>
<time>2022-05-26T11:48:09Z</time>
</trkpt>
<trkpt lat="47.980122" lon="11.33085">
<ele>555.008</ele>
<time>2022-05-26T11:48:10Z</time>
</trkpt>
<trkpt lat="47.980095" lon="11.330824">
<ele>554.836</ele>
<time>2022-05-26T11:48:11Z</time>
</trkpt>
<trkpt lat="47.980057" lon="11.330794">
<ele>554.72</ele>
<time>2022-05-26T11:48:12Z</time>
</trkpt>
<trkpt lat="47.980011" lon="11.330765">
<ele>554.639</ele>
<time>2022-05-26T11:48:13Z</time>
</trkpt>
<trkpt lat="47.979973" lon="11.330735">
<ele>554.577</ele>
<time>2022-05-26T11:48:14Z</time>
</trkpt>
<trkpt lat="47.979935" lon="11.330705">
<ele>554.546</ele>
<time>2022-05-26T11:48:15Z</time>
</trkpt>
<trkpt lat="47.979897" lon="11.330667">
<ele>554.546</ele>
<time>2022-05-26T11:48:16Z</time>
</trkpt>
<trkpt lat="47.979851" lon="11.330608">
<ele>554.546</ele>
<time>2022-05-26T11:48:17Z</time>
</trkpt>
<trkpt lat="47.979816" lon="11.330564">
<ele>554.546</ele>
<time>2022-05-26T11:48:18Z</time>
</trkpt>
<trkpt lat="47.979778" lon="11.330516">
<ele>554.546</ele>
<time>2022-05-26T11:48:19Z</time>
</trkpt>
<trkpt lat="47.979729" lon="11.330484">
<ele>554.845</ele>
<time>2022-05-26T11:48:20Z</time>
</trkpt>
<trkpt lat="47.979687" lon="11.330455">
<ele>555.063</ele>
<time>2022-05-26T11:48:21Z</time>
</trkpt>
<trkpt lat="47.979652" lon="11.330423">
<ele>555.229</ele>
<time>2022-05-26T11:48:22Z</time>
</trkpt>
<trkpt lat="47.97961" lon="11.330397">
<ele>555.347</ele>
<time>2022-05-26T11:48:23Z</time>
</trkpt>
<trkpt lat="47.979561" lon="11.330372">
<ele>555.426</ele>
<time>2022-05-26T11:48:24Z</time>
</trkpt>
<trkpt lat="47.979523" lon="11.330341">
<ele>555.474</ele>
<time>2022-05-26T11:48:25Z</time>
</trkpt>
<trkpt lat="47.979488" lon="11.330308">
<ele>555.761</ele>
<time>2022-05-26T11:48:26Z</time>
</trkpt>
<trkpt lat="47.979458" lon="11.330273">
<ele>555.962</ele>
<time>2022-05-26T11:48:27Z</time>
</trkpt>
<trkpt lat="47.97942" lon="11.330238">
<ele>556.108</ele>
<time>2022-05-26T11:48:28Z</time>
</trkpt>
<trkpt lat="47.979385" lon="11.330192">
<ele>556.27</ele>
<time>2022-05-26T11:48:29Z</time>
</trkpt>
<trkpt lat="47.979347" lon="11.330136">
<ele>556.388</ele>
<time>2022-05-26T11:48:30Z</time>
</trkpt>
<trkpt lat="47.979305" lon="11.330068">
<ele>556.467</ele>
<time>2022-05-26T11:48:31Z</time>
</trkpt>
<trkpt lat="47.979263" lon="11.330009">
<ele>556.526</ele>
<time>2022-05-26T11:48:32Z</time>
</trkpt>
<trkpt lat="47.979225" lon="11.329965">
<ele>556.554</ele>
<time>2022-05-26T11:48:33Z</time>
</trkpt>
<trkpt lat="47.979191" lon="11.329926">
<ele>556.554</ele>
<time>2022-05-26T11:48:34Z</time>
</trkpt>
<trkpt lat="47.979145" lon="11.329891">
<ele>556.554</ele>
<time>2022-05-26T11:48:35Z</time>
</trkpt>
<trkpt lat="47.979107" lon="11.329865">
<ele>556.554</ele>
<time>2022-05-26T11:48:36Z</time>
</trkpt>
<trkpt lat="47.979057" lon="11.329828">
<ele>556.554</ele>
<time>2022-05-26T11:48:37Z</time>
</trkpt>
<trkpt lat="47.979004" lon="11.329781">
<ele>556.554</ele>
<time>2022-05-26T11:48:38Z</time>
</trkpt>
<trkpt lat="47.978954" lon="11.329737">
<ele>556.554</ele>
<time>2022-05-26T11:48:39Z</time>
</trkpt>
<trkpt lat="47.978905" lon="11.329683">
<ele>556.554</ele>
<time>2022-05-26T11:48:40Z</time>
</trkpt>
<trkpt lat="47.978859" lon="11.329638">
<ele>556.554</ele>
<time>2022-05-26T11:48:41Z</time>
</trkpt>
<trkpt lat="47.978806" lon="11.329597">
<ele>556.554</ele>
<time>2022-05-26T11:48:42Z</time>
</trkpt>
<trkpt lat="47.978764" lon="11.329555">
<ele>556.554</ele>
<time>2022-05-26T11:48:43Z</time>
</trkpt>
<trkpt lat="47.978722" lon="11.329514">
<ele>556.554</ele>
<time>2022-05-26T11:48:44Z</time>
</trkpt>
<trkpt lat="47.978683" lon="11.329476">
<ele>556.554</ele>
<time>2022-05-26T11:48:45Z</time>
</trkpt>
<trkpt lat="47.978649" lon="11.329448">
<ele>556.554</ele>
<time>2022-05-26T11:48:46Z</time>
</trkpt>
<trkpt lat="47.978615" lon="11.329416">
<ele>556.554</ele>
<time>2022-05-26T11:48:47Z</time>
</trkpt>
<trkpt lat="47.978577" lon="11.329393">
<ele>556.554</ele>
<time>2022-05-26T11:48:48Z</time>
</trkpt>
<trkpt lat="47.978542" lon="11.329368">
<ele>556.554</ele>
<time>2022-05-26T11:48:49Z</time>
</trkpt>
<trkpt lat="47.978504" lon="11.32934">
<ele>556.554</ele>
<time>2022-05-26T11:48:50Z</time>
</trkpt>
<trkpt lat="47.978474" lon="11.329324">
<ele>556.554</ele>
<time>2022-05-26T11:48:51Z</time>
</trkpt>
<trkpt lat="47.978443" lon="11.329295">
<ele>556.554</ele>
<time>2022-05-26T11:48:52Z</time>
</trkpt>
<trkpt lat="47.978409" lon="11.329273">
<ele>556.554</ele>
<time>2022-05-26T11:48:53Z</time>
</trkpt>
<trkpt lat="47.978374" lon="11.329247">
<ele>556.554</ele>
<time>2022-05-26T11:48:54Z</time>
</trkpt>
<trkpt lat="47.978344" lon="11.329219">
<ele>556.554</ele>
<time>2022-05-26T11:48:55Z</time>
</trkpt>
<trkpt lat="47.978302" lon="11.329192">
<ele>556.554</ele>
<time>2022-05-26T11:48:56Z</time>
</trkpt>
<trkpt lat="47.978264" lon="11.32917">
<ele>556.554</ele>
<time>2022-05-26T11:48:57Z</time>
</trkpt>
<trkpt lat="47.978222" lon="11.329145">
<ele>556.554</ele>
<time>2022-05-26T11:48:58Z</time>
</trkpt>
<trkpt lat="47.978188" lon="11.329112">
<ele>556.554</ele>
<time>2022-05-26T11:48:59Z</time>
</trkpt>
<trkpt lat="47.978146" lon="11.329081">
<ele>556.554</ele>
<time>2022-05-26T11:49:00Z</time>
</trkpt>
<trkpt lat="47.9781" lon="11.329039">
<ele>556.554</ele>
<time>2022-05-26T11:49:01Z</time>
</trkpt>
<trkpt lat="47.978054" lon="11.32899">
<ele>556.554</ele>
<time>2022-05-26T11:49:02Z</time>
</trkpt>
<trkpt lat="47.978001" lon="11.328955">
<ele>556.554</ele>
<time>2022-05-26T11:49:03Z</time>
</trkpt>
<trkpt lat="47.97794" lon="11.328919">
<ele>556.554</ele>
<time>2022-05-26T11:49:04Z</time>
</trkpt>
<trkpt lat="47.977886" lon="11.328878">
<ele>556.554</ele>
<time>2022-05-26T11:49:05Z</time>
</trkpt>
<trkpt lat="47.977825" lon="11.328844">
<ele>556.554</ele>
<time>2022-05-26T11:49:06Z</time>
</trkpt>
<trkpt lat="47.977764" lon="11.32879">
<ele>556.554</ele>
<time>2022-05-26T11:49:07Z</time>
</trkpt>
<trkpt lat="47.977707" lon="11.328737">
<ele>556.554</ele>
<time>2022-05-26T11:49:08Z</time>
</trkpt>
<trkpt lat="47.977661" lon="11.328697">
<ele>556.554</ele>
<time>2022-05-26T11:49:09Z</time>
</trkpt>
<trkpt lat="47.977615" lon="11.328658">
<ele>556.554</ele>
<time>2022-05-26T11:49:10Z</time>
</trkpt>
<trkpt lat="47.977558" lon="11.32862">
<ele>556.554</ele>
<time>2022-05-26T11:49:11Z</time>
</trkpt>
<trkpt lat="47.977501" lon="11.328569">
<ele>556.554</ele>
<time>2022-05-26T11:49:12Z</time>
</trkpt>
<trkpt lat="47.977448" lon="11.32853">
<ele>556.554</ele>
<time>2022-05-26T11:49:13Z</time>
</trkpt>
<trkpt lat="47.977398" lon="11.328492">
<ele>556.554</ele>
<time>2022-05-26T11:49:14Z</time>
</trkpt>
<trkpt lat="47.977348" lon="11.32844">
<ele>556.554</ele>
<time>2022-05-26T11:49:15Z</time>
</trkpt>
<trkpt lat="47.977299" lon="11.32839">
<ele>556.554</ele>
<time>2022-05-26T11:49:16Z</time>
</trkpt>
<trkpt lat="47.977242" lon="11.328356">
<ele>556.554</ele>
<time>2022-05-26T11:49:17Z</time>
</trkpt>
<trkpt lat="47.977196" lon="11.328321">
<ele>556.554</ele>
<time>2022-05-26T11:49:18Z</time>
</trkpt>
<trkpt lat="47.97715" lon="11.328282">
<ele>556.554</ele>
<time>2022-05-26T11:49:19Z</time>
</trkpt>
<trkpt lat="47.977104" lon="11.328249">
<ele>556.554</ele>
<time>2022-05-26T11:49:20Z</time>
</trkpt>
<trkpt lat="47.977055" lon="11.328218">
<ele>556.554</ele>
<time>2022-05-26T11:49:21Z</time>
</trkpt>
<trkpt lat="47.977016" lon="11.328188">
<ele>556.554</ele>
<time>2022-05-26T11:49:22Z</time>
</trkpt>
<trkpt lat="47.976978" lon="11.328163">
<ele>556.554</ele>
<time>2022-05-26T11:49:23Z</time>
</trkpt>
<trkpt lat="47.976944" lon="11.328142">
<ele>556.554</ele>
<time>2022-05-26T11:49:24Z</time>
</trkpt>
<trkpt lat="47.976894" lon="11.328115">
<ele>556.554</ele>
<time>2022-05-26T11:49:25Z</time>
</trkpt>
<trkpt lat="47.976845" lon="11.328095">
<ele>556.79</ele>
<time>2022-05-26T11:49:26Z</time>
</trkpt>
<trkpt lat="47.976795" lon="11.328077">
<ele>556.98</ele>
<time>2022-05-26T11:49:27Z</time>
</trkpt>
<trkpt lat="47.976753" lon="11.328063">
<ele>557.113</ele>
<time>2022-05-26T11:49:28Z</time>
</trkpt>
<trkpt lat="47.976707" lon="11.328052">
<ele>557.259</ele>
<time>2022-05-26T11:49:29Z</time>
</trkpt>
<trkpt lat="47.976662" lon="11.328043">
<ele>557.374</ele>
<time>2022-05-26T11:49:30Z</time>
</trkpt>
<trkpt lat="47.97662" lon="11.328033">
<ele>557.449</ele>
<time>2022-05-26T11:49:31Z</time>
</trkpt>
<trkpt lat="47.976574" lon="11.328023">
<ele>557.494</ele>
<time>2022-05-26T11:49:32Z</time>
</trkpt>
<trkpt lat="47.976524" lon="11.32801">
<ele>557.515</ele>
<time>2022-05-26T11:49:33Z</time>
</trkpt>
<trkpt lat="47.976479" lon="11.328">
<ele>557.515</ele>
<time>2022-05-26T11:49:34Z</time>
</trkpt>
<trkpt lat="47.976437" lon="11.327989">
<ele>557.515</ele>
<time>2022-05-26T11:49:35Z</time>
</trkpt>
<trkpt lat="47.976398" lon="11.327978">
<ele>557.515</ele>
<time>2022-05-26T11:49:36Z</time>
</trkpt>
<trkpt lat="47.97636" lon="11.327964">
<ele>557.515</ele>
<time>2022-05-26T11:49:37Z</time>
</trkpt>
<trkpt lat="47.976322" lon="11.327943">
<ele>557.515</ele>
<time>2022-05-26T11:49:38Z</time>
</trkpt>
<trkpt lat="47.976276" lon="11.327927">
<ele>557.515</ele>
<time>2022-05-26T11:49:39Z</time>
</trkpt>
<trkpt lat="47.976215" lon="11.327909">
<ele>557.515</ele>
<time>2022-05-26T11:49:40Z</time>
</trkpt>
<trkpt lat="47.976162" lon="11.327885">
<ele>557.515</ele>
<time>2022-05-26T11:49:41Z</time>
</trkpt>
<trkpt lat="47.976105" lon="11.327862">
<ele>557.515</ele>
<time>2022-05-26T11:49:42Z</time>
</trkpt>
<trkpt lat="47.976055" lon="11.327838">
<ele>557.515</ele>
<time>2022-05-26T11:49:43Z</time>
</trkpt>
<trkpt lat="47.976006" lon="11.327808">
<ele>557.515</ele>
<time>2022-05-26T11:49:44Z</time>
</trkpt>
<trkpt lat="47.975952" lon="11.327775">
<ele>557.515</ele>
<time>2022-05-26T11:49:45Z</time>
</trkpt>
<trkpt lat="47.975899" lon="11.327752">
<ele>557.515</ele>
<time>2022-05-26T11:49:46Z</time>
</trkpt>
<trkpt lat="47.975842" lon="11.327724">
<ele>557.515</ele>
<time>2022-05-26T11:49:47Z</time>
</trkpt>
<trkpt lat="47.975788" lon="11.327688">
<ele>557.515</ele>
<time>2022-05-26T11:49:48Z</time>
</trkpt>
<trkpt lat="47.975735" lon="11.327643">
<ele>557.515</ele>
<time>2022-05-26T11:49:49Z</time>
</trkpt>
<trkpt lat="47.975674" lon="11.327597">
<ele>557.515</ele>
<time>2022-05-26T11:49:50Z</time>
</trkpt>
<trkpt lat="47.975613" lon="11.327549">
<ele>557.515</ele>
<time>2022-05-26T11:49:51Z</time>
</trkpt>
<trkpt lat="47.975559" lon="11.327497">
<ele>557.515</ele>
<time>2022-05-26T11:49:52Z</time>
</trkpt>
<trkpt lat="47.97551" lon="11.327449">
<ele>557.515</ele>
<time>2022-05-26T11:49:53Z</time>
</trkpt>
<trkpt lat="47.975464" lon="11.327403">
<ele>557.515</ele>
<time>2022-05-26T11:49:54Z</time>
</trkpt>
<trkpt lat="47.975418" lon="11.327356">
<ele>557.515</ele>
<time>2022-05-26T11:49:55Z</time>
</trkpt>
<trkpt lat="47.975376" lon="11.327305">
<ele>557.515</ele>
<time>2022-05-26T11:49:56Z</time>
</trkpt>
<trkpt lat="47.975338" lon="11.327253">
<ele>557.515</ele>
<time>2022-05-26T11:49:57Z</time>
</trkpt>
<trkpt lat="47.975292" lon="11.3272">
<ele>557.33</ele>
<time>2022-05-26T11:49:58Z</time>
</trkpt>
<trkpt lat="47.975243" lon="11.327147">
<ele>557.148</ele>
<time>2022-05-26T11:49:59Z</time>
</trkpt>
<trkpt lat="47.975197" lon="11.327097">
<ele>556.993</ele>
<time>2022-05-26T11:50:00Z</time>
</trkpt>
<trkpt lat="47.975155" lon="11.327042">
<ele>556.867</ele>
<time>2022-05-26T11:50:01Z</time>
</trkpt>
<trkpt lat="47.975113" lon="11.326979">
<ele>556.769</ele>
<time>2022-05-26T11:50:02Z</time>
</trkpt>
<trkpt lat="47.975075" lon="11.326914">
<ele>556.704</ele>
<time>2022-05-26T11:50:03Z</time>
</trkpt>
<trkpt lat="47.975048" lon="11.326847">
<ele>556.662</ele>
<time>2022-05-26T11:50:04Z</time>
</trkpt>
<trkpt lat="47.975014" lon="11.326782">
<ele>556.641</ele>
<time>2022-05-26T11:50:05Z</time>
</trkpt>
<trkpt lat="47.974976" lon="11.326721">
<ele>556.641</ele>
<time>2022-05-26T11:50:06Z</time>
</trkpt>
<trkpt lat="47.974934" lon="11.326661">
<ele>556.641</ele>
<time>2022-05-26T11:50:07Z</time>
</trkpt>
<trkpt lat="47.974892" lon="11.326607">
<ele>556.641</ele>
<time>2022-05-26T11:50:08Z</time>
</trkpt>
<trkpt lat="47.974854" lon="11.326556">
<ele>556.641</ele>
<time>2022-05-26T11:50:09Z</time>
</trkpt>
<trkpt lat="47.974812" lon="11.326513">
<ele>556.641</ele>
<time>2022-05-26T11:50:10Z</time>
</trkpt>
<trkpt lat="47.974766" lon="11.326472">
<ele>556.641</ele>
<time>2022-05-26T11:50:11Z</time>
</trkpt>
<trkpt lat="47.974728" lon="11.32643">
<ele>556.641</ele>
<time>2022-05-26T11:50:12Z</time>
</trkpt>
<trkpt lat="47.974682" lon="11.326392">
<ele>556.641</ele>
<time>2022-05-26T11:50:13Z</time>
</trkpt>
<trkpt lat="47.97464" lon="11.326359">
<ele>556.641</ele>
<time>2022-05-26T11:50:14Z</time>
</trkpt>
<trkpt lat="47.974602" lon="11.326324">
<ele>556.641</ele>
<time>2022-05-26T11:50:15Z</time>
</trkpt>
<trkpt lat="47.974556" lon="11.32629">
<ele>556.641</ele>
<time>2022-05-26T11:50:16Z</time>
</trkpt>
<trkpt lat="47.974506" lon="11.326261">
<ele>556.641</ele>
<time>2022-05-26T11:50:17Z</time>
</trkpt>
<trkpt lat="47.974461" lon="11.326232">
<ele>556.641</ele>
<time>2022-05-26T11:50:18Z</time>
</trkpt>
<trkpt lat="47.974411" lon="11.326203">
<ele>556.641</ele>
<time>2022-05-26T11:50:19Z</time>
</trkpt>
<trkpt lat="47.974365" lon="11.326179">
<ele>556.641</ele>
<time>2022-05-26T11:50:20Z</time>
</trkpt>
<trkpt lat="47.974316" lon="11.326154">
<ele>556.641</ele>
<time>2022-05-26T11:50:21Z</time>
</trkpt>
<trkpt lat="47.97427" lon="11.32613">
<ele>556.641</ele>
<time>2022-05-26T11:50:22Z</time>
</trkpt>
<trkpt lat="47.974216" lon="11.326108">
<ele>556.641</ele>
<time>2022-05-26T11:50:23Z</time>
</trkpt>
<trkpt lat="47.974159" lon="11.326083">
<ele>556.641</ele>
<time>2022-05-26T11:50:24Z</time>
</trkpt>
<trkpt lat="47.974106" lon="11.326059">
<ele>556.641</ele>
<time>2022-05-26T11:50:25Z</time>
</trkpt>
<trkpt lat="47.974049" lon="11.326038">
<ele>556.641</ele>
<time>2022-05-26T11:50:26Z</time>
</trkpt>
<trkpt lat="47.973991" lon="11.326015">
<ele>556.641</ele>
<time>2022-05-26T11:50:27Z</time>
</trkpt>
<trkpt lat="47.973934" lon="11.325993">
<ele>556.641</ele>
<time>2022-05-26T11:50:28Z</time>
</trkpt>
<trkpt lat="47.973869" lon="11.32597">
<ele>556.641</ele>
<time>2022-05-26T11:50:29Z</time>
</trkpt>
<trkpt lat="47.973804" lon="11.325947">
<ele>556.641</ele>
<time>2022-05-26T11:50:30Z</time>
</trkpt>
<trkpt lat="47.973747" lon="11.325925">
<ele>556.353</ele>
<time>2022-05-26T11:50:31Z</time>
</trkpt>
<trkpt lat="47.973682" lon="11.325896">
<ele>556.136</ele>
<time>2022-05-26T11:50:32Z</time>
</trkpt>
<trkpt lat="47.973614" lon="11.32588">
<ele>555.974</ele>
<time>2022-05-26T11:50:33Z</time>
</trkpt>
<trkpt lat="47.973549" lon="11.325863">
<ele>555.857</ele>
<time>2022-05-26T11:50:34Z</time>
</trkpt>
<trkpt lat="47.97348" lon="11.325844">
<ele>555.778</ele>
<time>2022-05-26T11:50:35Z</time>
</trkpt>
<trkpt lat="47.973415" lon="11.325829">
<ele>555.73</ele>
<time>2022-05-26T11:50:36Z</time>
</trkpt>
<trkpt lat="47.973351" lon="11.325809">
<ele>555.707</ele>
<time>2022-05-26T11:50:37Z</time>
</trkpt>
<trkpt lat="47.973282" lon="11.325795">
<ele>555.486</ele>
<time>2022-05-26T11:50:38Z</time>
</trkpt>
<trkpt lat="47.973213" lon="11.325783">
<ele>555.301</ele>
<time>2022-05-26T11:50:39Z</time>
</trkpt>
<trkpt lat="47.973145" lon="11.325767">
<ele>555.152</ele>
<time>2022-05-26T11:50:40Z</time>
</trkpt>
<trkpt lat="47.973072" lon="11.325753">
<ele>555.031</ele>
<time>2022-05-26T11:50:41Z</time>
</trkpt>
<trkpt lat="47.973011" lon="11.325742">
<ele>554.938</ele>
<time>2022-05-26T11:50:42Z</time>
</trkpt>
<trkpt lat="47.972942" lon="11.325722">
<ele>554.871</ele>
<time>2022-05-26T11:50:43Z</time>
</trkpt>
<trkpt lat="47.972881" lon="11.325699">
<ele>554.828</ele>
<time>2022-05-26T11:50:44Z</time>
</trkpt>
<trkpt lat="47.97282" lon="11.325678">
<ele>554.808</ele>
<time>2022-05-26T11:50:45Z</time>
</trkpt>
<trkpt lat="47.972767" lon="11.325653">
<ele>554.554</ele>
<time>2022-05-26T11:50:46Z</time>
</trkpt>
<trkpt lat="47.972721" lon="11.325625">
<ele>554.353</ele>
<time>2022-05-26T11:50:47Z</time>
</trkpt>
<trkpt lat="47.972672" lon="11.325588">
<ele>554.21</ele>
<time>2022-05-26T11:50:48Z</time>
</trkpt>
<trkpt lat="47.972622" lon="11.325555">
<ele>554.057</ele>
<time>2022-05-26T11:50:49Z</time>
</trkpt>
<trkpt lat="47.972561" lon="11.32552">
<ele>553.945</ele>
<time>2022-05-26T11:50:50Z</time>
</trkpt>
<trkpt lat="47.972507" lon="11.325483">
<ele>553.626</ele>
<time>2022-05-26T11:50:51Z</time>
</trkpt>
<trkpt lat="47.972454" lon="11.325445">
<ele>553.365</ele>
<time>2022-05-26T11:50:52Z</time>
</trkpt>
<trkpt lat="47.972389" lon="11.32541">
<ele>553.166</ele>
<time>2022-05-26T11:50:53Z</time>
</trkpt>
<trkpt lat="47.97234" lon="11.325375">
<ele>552.977</ele>
<time>2022-05-26T11:50:54Z</time>
</trkpt>
<trkpt lat="47.972282" lon="11.325347">
<ele>552.894</ele>
<time>2022-05-26T11:50:55Z</time>
</trkpt>
<trkpt lat="47.972221" lon="11.325312">
<ele>552.844</ele>
<time>2022-05-26T11:50:56Z</time>
</trkpt>
<trkpt lat="47.972157" lon="11.32528">
<ele>552.821</ele>
<time>2022-05-26T11:50:57Z</time>
</trkpt>
<trkpt lat="47.972103" lon="11.325252">
<ele>552.801</ele>
<time>2022-05-26T11:50:58Z</time>
</trkpt>
<trkpt lat="47.972054" lon="11.325212">
<ele>552.801</ele>
<time>2022-05-26T11:50:59Z</time>
</trkpt>
<trkpt lat="47.971992" lon="11.325165">
<ele>552.801</ele>
<time>2022-05-26T11:51:00Z</time>
</trkpt>
<trkpt lat="47.971931" lon="11.325119">
<ele>552.801</ele>
<time>2022-05-26T11:51:01Z</time>
</trkpt>
<trkpt lat="47.971867" lon="11.32507">
<ele>552.499</ele>
<time>2022-05-26T11:51:02Z</time>
</trkpt>
<trkpt lat="47.971798" lon="11.325027">
<ele>552.267</ele>
<time>2022-05-26T11:51:03Z</time>
</trkpt>
<trkpt lat="47.971729" lon="11.324986">
<ele>552.09</ele>
<time>2022-05-26T11:51:04Z</time>
</trkpt>
<trkpt lat="47.971645" lon="11.324955">
<ele>551.958</ele>
<time>2022-05-26T11:51:05Z</time>
</trkpt>
<trkpt lat="47.971569" lon="11.324924">
<ele>551.869</ele>
<time>2022-05-26T11:51:06Z</time>
</trkpt>
<trkpt lat="47.971497" lon="11.324895">
<ele>551.819</ele>
<time>2022-05-26T11:51:07Z</time>
</trkpt>
<trkpt lat="47.971413" lon="11.324865">
<ele>551.78</ele>
<time>2022-05-26T11:51:08Z</time>
</trkpt>
<trkpt lat="47.971325" lon="11.324837">
<ele>551.488</ele>
<time>2022-05-26T11:51:09Z</time>
</trkpt>
<trkpt lat="47.971237" lon="11.32482">
<ele>551.272</ele>
<time>2022-05-26T11:51:10Z</time>
</trkpt>
<trkpt lat="47.971161" lon="11.3248">
<ele>551.133</ele>
<time>2022-05-26T11:51:11Z</time>
</trkpt>
<trkpt lat="47.971088" lon="11.324777">
<ele>550.729</ele>
<time>2022-05-26T11:51:12Z</time>
</trkpt>
<trkpt lat="47.97102" lon="11.324746">
<ele>550.443</ele>
<time>2022-05-26T11:51:13Z</time>
</trkpt>
<trkpt lat="47.970947" lon="11.32473">
<ele>549.923</ele>
<time>2022-05-26T11:51:14Z</time>
</trkpt>
<trkpt lat="47.970867" lon="11.324712">
<ele>549.505</ele>
<time>2022-05-26T11:51:15Z</time>
</trkpt>
<trkpt lat="47.970791" lon="11.324696">
<ele>549.206</ele>
<time>2022-05-26T11:51:16Z</time>
</trkpt>
<trkpt lat="47.970722" lon="11.324677">
<ele>549.021</ele>
<time>2022-05-26T11:51:17Z</time>
</trkpt>
<trkpt lat="47.970661" lon="11.324667">
<ele>548.64</ele>
<time>2022-05-26T11:51:18Z</time>
</trkpt>
<trkpt lat="47.970596" lon="11.32465">
<ele>548.325</ele>
<time>2022-05-26T11:51:19Z</time>
</trkpt>
<trkpt lat="47.970531" lon="11.324629">
<ele>548.117</ele>
<time>2022-05-26T11:51:20Z</time>
</trkpt>
<trkpt lat="47.970474" lon="11.324612">
<ele>547.971</ele>
<time>2022-05-26T11:51:21Z</time>
</trkpt>
<trkpt lat="47.970406" lon="11.324595">
<ele>547.88</ele>
<time>2022-05-26T11:51:22Z</time>
</trkpt>
<trkpt lat="47.970337" lon="11.324582">
<ele>547.813</ele>
<time>2022-05-26T11:51:23Z</time>
</trkpt>
<trkpt lat="47.970264" lon="11.324574">
<ele>547.764</ele>
<time>2022-05-26T11:51:24Z</time>
</trkpt>
<trkpt lat="47.970196" lon="11.324566">
<ele>547.74</ele>
<time>2022-05-26T11:51:25Z</time>
</trkpt>
<trkpt lat="47.970131" lon="11.324547">
<ele>547.741</ele>
<time>2022-05-26T11:51:26Z</time>
</trkpt>
<trkpt lat="47.970062" lon="11.324536">
<ele>547.74</ele>
<time>2022-05-26T11:51:27Z</time>
</trkpt>
<trkpt lat="47.969994" lon="11.324527">
<ele>547.74</ele>
<time>2022-05-26T11:51:28Z</time>
</trkpt>
<trkpt lat="47.96991" lon="11.324517">
<ele>547.74</ele>
<time>2022-05-26T11:51:29Z</time>
</trkpt>
<trkpt lat="47.969841" lon="11.324517">
<ele>547.422</ele>
<time>2022-05-26T11:51:30Z</time>
</trkpt>
<trkpt lat="47.969772" lon="11.3245">
<ele>547.182</ele>
<time>2022-05-26T11:51:31Z</time>
</trkpt>
<trkpt lat="47.9697" lon="11.324476">
<ele>547.002</ele>
<time>2022-05-26T11:51:32Z</time>
</trkpt>
<trkpt lat="47.969624" lon="11.32446">
<ele>546.863</ele>
<time>2022-05-26T11:51:33Z</time>
</trkpt>
<trkpt lat="47.969547" lon="11.324438">
<ele>546.771</ele>
<time>2022-05-26T11:51:34Z</time>
</trkpt>
<trkpt lat="47.969463" lon="11.324428">
<ele>546.722</ele>
<time>2022-05-26T11:51:35Z</time>
</trkpt>
<trkpt lat="47.969383" lon="11.324405">
<ele>546.697</ele>
<time>2022-05-26T11:51:36Z</time>
</trkpt>
<trkpt lat="47.969303" lon="11.324387">
<ele>546.694</ele>
<time>2022-05-26T11:51:37Z</time>
</trkpt>
<trkpt lat="47.969227" lon="11.324375">
<ele>546.694</ele>
<time>2022-05-26T11:51:38Z</time>
</trkpt>
<trkpt lat="47.969154" lon="11.324365">
<ele>546.694</ele>
<time>2022-05-26T11:51:39Z</time>
</trkpt>
<trkpt lat="47.969086" lon="11.324354">
<ele>546.694</ele>
<time>2022-05-26T11:51:40Z</time>
</trkpt>
<trkpt lat="47.969021" lon="11.324344">
<ele>546.694</ele>
<time>2022-05-26T11:51:41Z</time>
</trkpt>
<trkpt lat="47.968956" lon="11.324335">
<ele>546.694</ele>
<time>2022-05-26T11:51:42Z</time>
</trkpt>
<trkpt lat="47.968887" lon="11.324317">
<ele>546.694</ele>
<time>2022-05-26T11:51:43Z</time>
</trkpt>
<trkpt lat="47.968822" lon="11.324295">
<ele>546.694</ele>
<time>2022-05-26T11:51:44Z</time>
</trkpt>
<trkpt lat="47.968761" lon="11.324281">
<ele>546.694</ele>
<time>2022-05-26T11:51:45Z</time>
</trkpt>
<trkpt lat="47.9687" lon="11.32427">
<ele>546.694</ele>
<time>2022-05-26T11:51:46Z</time>
</trkpt>
<trkpt lat="47.968636" lon="11.32426">
<ele>546.694</ele>
<time>2022-05-26T11:51:47Z</time>
</trkpt>
<trkpt lat="47.968571" lon="11.324253">
<ele>546.694</ele>
<time>2022-05-26T11:51:48Z</time>
</trkpt>
<trkpt lat="47.968513" lon="11.324248">
<ele>546.694</ele>
<time>2022-05-26T11:51:49Z</time>
</trkpt>
<trkpt lat="47.968468" lon="11.324239">
<ele>546.694</ele>
<time>2022-05-26T11:51:50Z</time>
</trkpt>
<trkpt lat="47.968407" lon="11.324228">
<ele>546.694</ele>
<time>2022-05-26T11:51:51Z</time>
</trkpt>
<trkpt lat="47.968342" lon="11.324212">
<ele>546.694</ele>
<time>2022-05-26T11:51:52Z</time>
</trkpt>
<trkpt lat="47.968277" lon="11.324193">
<ele>546.694</ele>
<time>2022-05-26T11:51:53Z</time>
</trkpt>
<trkpt lat="47.968224" lon="11.324172">
<ele>546.694</ele>
<time>2022-05-26T11:51:54Z</time>
</trkpt>
<trkpt lat="47.968178" lon="11.324144">
<ele>546.694</ele>
<time>2022-05-26T11:51:55Z</time>
</trkpt>
<trkpt lat="47.968132" lon="11.324126">
<ele>546.694</ele>
<time>2022-05-26T11:51:56Z</time>
</trkpt>
<trkpt lat="47.968086" lon="11.324113">
<ele>546.694</ele>
<time>2022-05-26T11:51:57Z</time>
</trkpt>
<trkpt lat="47.968044" lon="11.324099">
<ele>546.694</ele>
<time>2022-05-26T11:51:58Z</time>
</trkpt>
<trkpt lat="47.967991" lon="11.324081">
<ele>546.694</ele>
<time>2022-05-26T11:51:59Z</time>
</trkpt>
<trkpt lat="47.967945" lon="11.324069">
<ele>546.694</ele>
<time>2022-05-26T11:52:00Z</time>
</trkpt>
<trkpt lat="47.967899" lon="11.324052">
<ele>546.694</ele>
<time>2022-05-26T11:52:01Z</time>
</trkpt>
<trkpt lat="47.96785" lon="11.324032">
<ele>546.694</ele>
<time>2022-05-26T11:52:02Z</time>
</trkpt>
<trkpt lat="47.967793" lon="11.324013">
<ele>546.694</ele>
<time>2022-05-26T11:52:03Z</time>
</trkpt>
<trkpt lat="47.967747" lon="11.323996">
<ele>546.93</ele>
<time>2022-05-26T11:52:04Z</time>
</trkpt>
<trkpt lat="47.967697" lon="11.323977">
<ele>547.116</ele>
<time>2022-05-26T11:52:05Z</time>
</trkpt>
<trkpt lat="47.967648" lon="11.323958">
<ele>547.251</ele>
<time>2022-05-26T11:52:06Z</time>
</trkpt>
<trkpt lat="47.967602" lon="11.323936">
<ele>547.353</ele>
<time>2022-05-26T11:52:07Z</time>
</trkpt>
<trkpt lat="47.967556" lon="11.32391">
<ele>547.425</ele>
<time>2022-05-26T11:52:08Z</time>
</trkpt>
<trkpt lat="47.967506" lon="11.323881">
<ele>547.499</ele>
<time>2022-05-26T11:52:09Z</time>
</trkpt>
<trkpt lat="47.967457" lon="11.323852">
<ele>547.543</ele>
<time>2022-05-26T11:52:10Z</time>
</trkpt>
<trkpt lat="47.967411" lon="11.323812">
<ele>547.566</ele>
<time>2022-05-26T11:52:11Z</time>
</trkpt>
<trkpt lat="47.967365" lon="11.323763">
<ele>547.566</ele>
<time>2022-05-26T11:52:12Z</time>
</trkpt>
<trkpt lat="47.967335" lon="11.32371">
<ele>547.566</ele>
<time>2022-05-26T11:52:13Z</time>
</trkpt>
<trkpt lat="47.967297" lon="11.323653">
<ele>547.566</ele>
<time>2022-05-26T11:52:14Z</time>
</trkpt>
<trkpt lat="47.967262" lon="11.323598">
<ele>547.566</ele>
<time>2022-05-26T11:52:15Z</time>
</trkpt>
<trkpt lat="47.96722" lon="11.323539">
<ele>547.566</ele>
<time>2022-05-26T11:52:16Z</time>
</trkpt>
<trkpt lat="47.967178" lon="11.323481">
<ele>547.566</ele>
<time>2022-05-26T11:52:17Z</time>
</trkpt>
<trkpt lat="47.967155" lon="11.323432">
<ele>547.566</ele>
<time>2022-05-26T11:52:18Z</time>
</trkpt>
<trkpt lat="47.967113" lon="11.323379">
<ele>547.335</ele>
<time>2022-05-26T11:52:19Z</time>
</trkpt>
<trkpt lat="47.967072" lon="11.323325">
<ele>547.14</ele>
<time>2022-05-26T11:52:20Z</time>
</trkpt>
<trkpt lat="47.967033" lon="11.323277">
<ele>546.978</ele>
<time>2022-05-26T11:52:21Z</time>
</trkpt>
<trkpt lat="47.966999" lon="11.32323">
<ele>546.853</ele>
<time>2022-05-26T11:52:22Z</time>
</trkpt>
<trkpt lat="47.966957" lon="11.323183">
<ele>546.754</ele>
<time>2022-05-26T11:52:23Z</time>
</trkpt>
<trkpt lat="47.966923" lon="11.323135">
<ele>546.682</ele>
<time>2022-05-26T11:52:24Z</time>
</trkpt>
<trkpt lat="47.966888" lon="11.323085">
<ele>546.632</ele>
<time>2022-05-26T11:52:25Z</time>
</trkpt>
<trkpt lat="47.966862" lon="11.323033">
<ele>546.607</ele>
<time>2022-05-26T11:52:26Z</time>
</trkpt>
<trkpt lat="47.966835" lon="11.322992">
<ele>546.607</ele>
<time>2022-05-26T11:52:27Z</time>
</trkpt>
<trkpt lat="47.966805" lon="11.322945">
<ele>546.607</ele>
<time>2022-05-26T11:52:28Z</time>
</trkpt>
<trkpt lat="47.96677" lon="11.322895">
<ele>546.607</ele>
<time>2022-05-26T11:52:29Z</time>
</trkpt>
<trkpt lat="47.96674" lon="11.322848">
<ele>546.607</ele>
<time>2022-05-26T11:52:30Z</time>
</trkpt>
<trkpt lat="47.966709" lon="11.322802">
<ele>546.607</ele>
<time>2022-05-26T11:52:31Z</time>
</trkpt>
<trkpt lat="47.966679" lon="11.322745">
<ele>546.607</ele>
<time>2022-05-26T11:52:32Z</time>
</trkpt>
<trkpt lat="47.966644" lon="11.322697">
<ele>546.607</ele>
<time>2022-05-26T11:52:33Z</time>
</trkpt>
<trkpt lat="47.966614" lon="11.322642">
<ele>546.865</ele>
<time>2022-05-26T11:52:34Z</time>
</trkpt>
<trkpt lat="47.966579" lon="11.3226">
<ele>547.067</ele>
<time>2022-05-26T11:52:35Z</time>
</trkpt>
<trkpt lat="47.966545" lon="11.322552">
<ele>547.215</ele>
<time>2022-05-26T11:52:36Z</time>
</trkpt>
<trkpt lat="47.966515" lon="11.322509">
<ele>547.33</ele>
<time>2022-05-26T11:52:37Z</time>
</trkpt>
<trkpt lat="47.966488" lon="11.322463">
<ele>547.413</ele>
<time>2022-05-26T11:52:38Z</time>
</trkpt>
<trkpt lat="47.96645" lon="11.322413">
<ele>547.491</ele>
<time>2022-05-26T11:52:39Z</time>
</trkpt>
<trkpt lat="47.966423" lon="11.322382">
<ele>547.539</ele>
<time>2022-05-26T11:52:40Z</time>
</trkpt>
<trkpt lat="47.9664" lon="11.322347">
<ele>547.566</ele>
<time>2022-05-26T11:52:41Z</time>
</trkpt>
<trkpt lat="47.966377" lon="11.322305">
<ele>547.566</ele>
<time>2022-05-26T11:52:42Z</time>
</trkpt>
<trkpt lat="47.966358" lon="11.322264">
<ele>547.566</ele>
<time>2022-05-26T11:52:43Z</time>
</trkpt>
<trkpt lat="47.966324" lon="11.322217">
<ele>547.566</ele>
<time>2022-05-26T11:52:44Z</time>
</trkpt>
<trkpt lat="47.966301" lon="11.322184">
<ele>547.566</ele>
<time>2022-05-26T11:52:45Z</time>
</trkpt>
<trkpt lat="47.966286" lon="11.322124">
<ele>547.566</ele>
<time>2022-05-26T11:52:46Z</time>
</trkpt>
<trkpt lat="47.966278" lon="11.322073">
<ele>547.566</ele>
<time>2022-05-26T11:52:47Z</time>
</trkpt>
<trkpt lat="47.966274" lon="11.32201">
<ele>547.566</ele>
<time>2022-05-26T11:52:48Z</time>
</trkpt>
<trkpt lat="47.966278" lon="11.321961">
<ele>547.566</ele>
<time>2022-05-26T11:52:49Z</time>
</trkpt>
<trkpt lat="47.966282" lon="11.321914">
<ele>547.566</ele>
<time>2022-05-26T11:52:50Z</time>
</trkpt>
<trkpt lat="47.96629" lon="11.32188">
<ele>547.566</ele>
<time>2022-05-26T11:52:51Z</time>
</trkpt>
<trkpt lat="47.966301" lon="11.321848">
<ele>547.566</ele>
<time>2022-05-26T11:52:52Z</time>
</trkpt>
<trkpt lat="47.966309" lon="11.321805">
<ele>547.566</ele>
<time>2022-05-26T11:52:53Z</time>
</trkpt>
<trkpt lat="47.966312" lon="11.321769">
<ele>547.566</ele>
<time>2022-05-26T11:52:54Z</time>
</trkpt>
<trkpt lat="47.966309" lon="11.32172">
<ele>547.566</ele>
<time>2022-05-26T11:52:55Z</time>
</trkpt>
<trkpt lat="47.96632" lon="11.321683">
<ele>547.566</ele>
<time>2022-05-26T11:52:56Z</time>
</trkpt>
<trkpt lat="47.966324" lon="11.321653">
<ele>547.566</ele>
<time>2022-05-26T11:52:57Z</time>
</trkpt>
<trkpt lat="47.966328" lon="11.321627">
<ele>547.566</ele>
<time>2022-05-26T11:52:58Z</time>
</trkpt>
<trkpt lat="47.966328" lon="11.321607">
<ele>547.566</ele>
<time>2022-05-26T11:52:59Z</time>
</trkpt>
<trkpt lat="47.966335" lon="11.32159">
<ele>547.566</ele>
<time>2022-05-26T11:53:00Z</time>
</trkpt>
<trkpt lat="47.966351" lon="11.321573">
<ele>547.566</ele>
<time>2022-05-26T11:53:01Z</time>
</trkpt>
<trkpt lat="47.966354" lon="11.321545">
<ele>547.566</ele>
<time>2022-05-26T11:53:02Z</time>
</trkpt>
<trkpt lat="47.966366" lon="11.321515">
<ele>547.566</ele>
<time>2022-05-26T11:53:03Z</time>
</trkpt>
<trkpt lat="47.966381" lon="11.321486">
<ele>547.566</ele>
<time>2022-05-26T11:53:04Z</time>
</trkpt>
<trkpt lat="47.966393" lon="11.321457">
<ele>547.566</ele>
<time>2022-05-26T11:53:05Z</time>
</trkpt>
<trkpt lat="47.966408" lon="11.321428">
<ele>547.566</ele>
<time>2022-05-26T11:53:06Z</time>
</trkpt>
<trkpt lat="47.966419" lon="11.321396">
<ele>547.567</ele>
<time>2022-05-26T11:53:07Z</time>
</trkpt>
<trkpt lat="47.966434" lon="11.321357">
<ele>547.566</ele>
<time>2022-05-26T11:53:08Z</time>
</trkpt>
<trkpt lat="47.96645" lon="11.321308">
<ele>547.566</ele>
<time>2022-05-26T11:53:09Z</time>
</trkpt>
<trkpt lat="47.966473" lon="11.321266">
<ele>547.566</ele>
<time>2022-05-26T11:53:10Z</time>
</trkpt>
<trkpt lat="47.966496" lon="11.321218">
<ele>547.566</ele>
<time>2022-05-26T11:53:11Z</time>
</trkpt>
<trkpt lat="47.966515" lon="11.321172">
<ele>547.566</ele>
<time>2022-05-26T11:53:12Z</time>
</trkpt>
<trkpt lat="47.966534" lon="11.321118">
<ele>547.566</ele>
<time>2022-05-26T11:53:13Z</time>
</trkpt>
<trkpt lat="47.966557" lon="11.321069">
<ele>547.566</ele>
<time>2022-05-26T11:53:14Z</time>
</trkpt>
<trkpt lat="47.966579" lon="11.321027">
<ele>547.566</ele>
<time>2022-05-26T11:53:15Z</time>
</trkpt>
<trkpt lat="47.966591" lon="11.320988">
<ele>547.566</ele>
<time>2022-05-26T11:53:16Z</time>
</trkpt>
<trkpt lat="47.966606" lon="11.32095">
<ele>547.812</ele>
<time>2022-05-26T11:53:17Z</time>
</trkpt>
<trkpt lat="47.966625" lon="11.320907">
<ele>547.992</ele>
<time>2022-05-26T11:53:18Z</time>
</trkpt>
<trkpt lat="47.966644" lon="11.320867">
<ele>548.169</ele>
<time>2022-05-26T11:53:19Z</time>
</trkpt>
<trkpt lat="47.966667" lon="11.320822">
<ele>548.319</ele>
<time>2022-05-26T11:53:20Z</time>
</trkpt>
<trkpt lat="47.966698" lon="11.320778">
<ele>548.437</ele>
<time>2022-05-26T11:53:21Z</time>
</trkpt>
<trkpt lat="47.966728" lon="11.320734">
<ele>548.527</ele>
<time>2022-05-26T11:53:22Z</time>
</trkpt>
<trkpt lat="47.966755" lon="11.320685">
<ele>548.587</ele>
<time>2022-05-26T11:53:23Z</time>
</trkpt>
<trkpt lat="47.966782" lon="11.320642">
<ele>548.613</ele>
<time>2022-05-26T11:53:24Z</time>
</trkpt>
<trkpt lat="47.966801" lon="11.320608">
<ele>548.613</ele>
<time>2022-05-26T11:53:25Z</time>
</trkpt>
<trkpt lat="47.966816" lon="11.320575">
<ele>548.613</ele>
<time>2022-05-26T11:53:26Z</time>
</trkpt>
<trkpt lat="47.966843" lon="11.320539">
<ele>548.613</ele>
<time>2022-05-26T11:53:27Z</time>
</trkpt>
<trkpt lat="47.966869" lon="11.320497">
<ele>548.613</ele>
<time>2022-05-26T11:53:28Z</time>
</trkpt>
<trkpt lat="47.966892" lon="11.320457">
<ele>548.613</ele>
<time>2022-05-26T11:53:29Z</time>
</trkpt>
<trkpt lat="47.966919" lon="11.320415">
<ele>548.613</ele>
<time>2022-05-26T11:53:30Z</time>
</trkpt>
<trkpt lat="47.966942" lon="11.320369">
<ele>548.613</ele>
<time>2022-05-26T11:53:31Z</time>
</trkpt>
<trkpt lat="47.966961" lon="11.320316">
<ele>548.613</ele>
<time>2022-05-26T11:53:32Z</time>
</trkpt>
<trkpt lat="47.966976" lon="11.320258">
<ele>548.891</ele>
<time>2022-05-26T11:53:33Z</time>
</trkpt>
<trkpt lat="47.966991" lon="11.320198">
<ele>549.097</ele>
<time>2022-05-26T11:53:34Z</time>
</trkpt>
<trkpt lat="47.967003" lon="11.320143">
<ele>549.247</ele>
<time>2022-05-26T11:53:35Z</time>
</trkpt>
<trkpt lat="47.967018" lon="11.320086">
<ele>549.361</ele>
<time>2022-05-26T11:53:36Z</time>
</trkpt>
<trkpt lat="47.96703" lon="11.32003">
<ele>549.439</ele>
<time>2022-05-26T11:53:37Z</time>
</trkpt>
<trkpt lat="47.967037" lon="11.319973">
<ele>549.495</ele>
<time>2022-05-26T11:53:38Z</time>
</trkpt>
<trkpt lat="47.967041" lon="11.319917">
<ele>549.547</ele>
<time>2022-05-26T11:53:39Z</time>
</trkpt>
<trkpt lat="47.967045" lon="11.319866">
<ele>549.572</ele>
<time>2022-05-26T11:53:40Z</time>
</trkpt>
<trkpt lat="47.967052" lon="11.319803">
<ele>549.572</ele>
<time>2022-05-26T11:53:41Z</time>
</trkpt>
<trkpt lat="47.96706" lon="11.319747">
<ele>549.572</ele>
<time>2022-05-26T11:53:42Z</time>
</trkpt>
<trkpt lat="47.967068" lon="11.319687">
<ele>549.573</ele>
<time>2022-05-26T11:53:43Z</time>
</trkpt>
<trkpt lat="47.967075" lon="11.319627">
<ele>549.573</ele>
<time>2022-05-26T11:53:44Z</time>
</trkpt>
<trkpt lat="47.967083" lon="11.319567">
<ele>549.573</ele>
<time>2022-05-26T11:53:45Z</time>
</trkpt>
<trkpt lat="47.967087" lon="11.319504">
<ele>549.84</ele>
<time>2022-05-26T11:53:46Z</time>
</trkpt>
<trkpt lat="47.967087" lon="11.319439">
<ele>550.051</ele>
<time>2022-05-26T11:53:47Z</time>
</trkpt>
<trkpt lat="47.967094" lon="11.319378">
<ele>550.193</ele>
<time>2022-05-26T11:53:48Z</time>
</trkpt>
<trkpt lat="47.967102" lon="11.31932">
<ele>550.337</ele>
<time>2022-05-26T11:53:49Z</time>
</trkpt>
<trkpt lat="47.967106" lon="11.319263">
<ele>550.458</ele>
<time>2022-05-26T11:53:50Z</time>
</trkpt>
<trkpt lat="47.967106" lon="11.319195">
<ele>550.54</ele>
<time>2022-05-26T11:53:51Z</time>
</trkpt>
<trkpt lat="47.967106" lon="11.319132">
<ele>550.593</ele>
<time>2022-05-26T11:53:52Z</time>
</trkpt>
<trkpt lat="47.967106" lon="11.319075">
<ele>550.619</ele>
<time>2022-05-26T11:53:53Z</time>
</trkpt>
<trkpt lat="47.967102" lon="11.319018">
<ele>550.619</ele>
<time>2022-05-26T11:53:54Z</time>
</trkpt>
<trkpt lat="47.967102" lon="11.318959">
<ele>550.619</ele>
<time>2022-05-26T11:53:55Z</time>
</trkpt>
<trkpt lat="47.967102" lon="11.318898">
<ele>550.619</ele>
<time>2022-05-26T11:53:56Z</time>
</trkpt>
<trkpt lat="47.967106" lon="11.318836">
<ele>550.619</ele>
<time>2022-05-26T11:53:57Z</time>
</trkpt>
<trkpt lat="47.96711" lon="11.318782">
<ele>550.619</ele>
<time>2022-05-26T11:53:58Z</time>
</trkpt>
<trkpt lat="47.967102" lon="11.318727">
<ele>550.619</ele>
<time>2022-05-26T11:53:59Z</time>
</trkpt>
<trkpt lat="47.967102" lon="11.318675">
<ele>550.619</ele>
<time>2022-05-26T11:54:00Z</time>
</trkpt>
<trkpt lat="47.967098" lon="11.318622">
<ele>550.619</ele>
<time>2022-05-26T11:54:01Z</time>
</trkpt>
<trkpt lat="47.967094" lon="11.318565">
<ele>550.859</ele>
<time>2022-05-26T11:54:02Z</time>
</trkpt>
<trkpt lat="47.967094" lon="11.31851">
<ele>551.046</ele>
<time>2022-05-26T11:54:03Z</time>
</trkpt>
<trkpt lat="47.967094" lon="11.318448">
<ele>551.191</ele>
<time>2022-05-26T11:54:04Z</time>
</trkpt>
<trkpt lat="47.967102" lon="11.318396">
<ele>551.305</ele>
<time>2022-05-26T11:54:05Z</time>
</trkpt>
<trkpt lat="47.967113" lon="11.318352">
<ele>551.384</ele>
<time>2022-05-26T11:54:06Z</time>
</trkpt>
<trkpt lat="47.967125" lon="11.318312">
<ele>551.43</ele>
<time>2022-05-26T11:54:07Z</time>
</trkpt>
<trkpt lat="47.967129" lon="11.318274">
<ele>551.469</ele>
<time>2022-05-26T11:54:08Z</time>
</trkpt>
<trkpt lat="47.967133" lon="11.318234">
<ele>551.492</ele>
<time>2022-05-26T11:54:09Z</time>
</trkpt>
<trkpt lat="47.967136" lon="11.318194">
<ele>551.492</ele>
<time>2022-05-26T11:54:10Z</time>
</trkpt>
<trkpt lat="47.96714" lon="11.318161">
<ele>551.787</ele>
<time>2022-05-26T11:54:11Z</time>
</trkpt>
<trkpt lat="47.967144" lon="11.31813">
<ele>552.025</ele>
<time>2022-05-26T11:54:12Z</time>
</trkpt>
<trkpt lat="47.967125" lon="11.318063">
<ele>552.244</ele>
<time>2022-05-26T11:54:13Z</time>
</trkpt>
<trkpt lat="47.967106" lon="11.317986">
<ele>552.404</ele>
<time>2022-05-26T11:54:14Z</time>
</trkpt>
<trkpt lat="47.967117" lon="11.31793">
<ele>552.497</ele>
<time>2022-05-26T11:54:15Z</time>
</trkpt>
<trkpt lat="47.967125" lon="11.317891">
<ele>552.85</ele>
<time>2022-05-26T11:54:16Z</time>
</trkpt>
<trkpt lat="47.967133" lon="11.317853">
<ele>553.103</ele>
<time>2022-05-26T11:54:17Z</time>
</trkpt>
<trkpt lat="47.967144" lon="11.317795">
<ele>553.274</ele>
<time>2022-05-26T11:54:18Z</time>
</trkpt>
<trkpt lat="47.967144" lon="11.317755">
<ele>553.418</ele>
<time>2022-05-26T11:54:19Z</time>
</trkpt>
<trkpt lat="47.967133" lon="11.317719">
<ele>553.51</ele>
<time>2022-05-26T11:54:20Z</time>
</trkpt>
<trkpt lat="47.967129" lon="11.317654">
<ele>553.571</ele>
<time>2022-05-26T11:54:21Z</time>
</trkpt>
<trkpt lat="47.967117" lon="11.317601">
<ele>553.636</ele>
<time>2022-05-26T11:54:22Z</time>
</trkpt>
<trkpt lat="47.96711" lon="11.317541">
<ele>553.674</ele>
<time>2022-05-26T11:54:23Z</time>
</trkpt>
<trkpt lat="47.967102" lon="11.317498">
<ele>553.674</ele>
<time>2022-05-26T11:54:24Z</time>
</trkpt>
<trkpt lat="47.967094" lon="11.317451">
<ele>553.674</ele>
<time>2022-05-26T11:54:25Z</time>
</trkpt>
<trkpt lat="47.967087" lon="11.317415">
<ele>553.674</ele>
<time>2022-05-26T11:54:26Z</time>
</trkpt>
<trkpt lat="47.967083" lon="11.31738">
<ele>553.674</ele>
<time>2022-05-26T11:54:27Z</time>
</trkpt>
<trkpt lat="47.967072" lon="11.317353">
<ele>553.674</ele>
<time>2022-05-26T11:54:28Z</time>
</trkpt>
<trkpt lat="47.967064" lon="11.317322">
<ele>553.674</ele>
<time>2022-05-26T11:54:29Z</time>
</trkpt>
<trkpt lat="47.96706" lon="11.317289">
<ele>553.674</ele>
<time>2022-05-26T11:54:30Z</time>
</trkpt>
<trkpt lat="47.967052" lon="11.317256">
<ele>553.674</ele>
<time>2022-05-26T11:54:31Z</time>
</trkpt>
<trkpt lat="47.967033" lon="11.317218">
<ele>553.674</ele>
<time>2022-05-26T11:54:32Z</time>
</trkpt>
<trkpt lat="47.967003" lon="11.317172">
<ele>553.674</ele>
<time>2022-05-26T11:54:33Z</time>
</trkpt>
<trkpt lat="47.966999" lon="11.317137">
<ele>553.945</ele>
<time>2022-05-26T11:54:34Z</time>
</trkpt>
<trkpt lat="47.966991" lon="11.317099">
<ele>554.159</ele>
<time>2022-05-26T11:54:35Z</time>
</trkpt>
<trkpt lat="47.966961" lon="11.317036">
<ele>554.323</ele>
<time>2022-05-26T11:54:36Z</time>
</trkpt>
<trkpt lat="47.96693" lon="11.316977">
<ele>554.434</ele>
<time>2022-05-26T11:54:37Z</time>
</trkpt>
<trkpt lat="47.966904" lon="11.316915">
<ele>554.504</ele>
<time>2022-05-26T11:54:38Z</time>
</trkpt>
<trkpt lat="47.966869" lon="11.316855">
<ele>554.572</ele>
<time>2022-05-26T11:54:39Z</time>
</trkpt>
<trkpt lat="47.966835" lon="11.316793">
<ele>554.612</ele>
<time>2022-05-26T11:54:40Z</time>
</trkpt>
<trkpt lat="47.966797" lon="11.316727">
<ele>554.634</ele>
<time>2022-05-26T11:54:41Z</time>
</trkpt>
<trkpt lat="47.966763" lon="11.316671">
<ele>554.634</ele>
<time>2022-05-26T11:54:42Z</time>
</trkpt>
<trkpt lat="47.966743" lon="11.316622">
<ele>554.634</ele>
<time>2022-05-26T11:54:43Z</time>
</trkpt>
<trkpt lat="47.966728" lon="11.31656">
<ele>554.634</ele>
<time>2022-05-26T11:54:44Z</time>
</trkpt>
<trkpt lat="47.966698" lon="11.316489">
<ele>554.634</ele>
<time>2022-05-26T11:54:45Z</time>
</trkpt>
<trkpt lat="47.966667" lon="11.316432">
<ele>554.634</ele>
<time>2022-05-26T11:54:46Z</time>
</trkpt>
<trkpt lat="47.966629" lon="11.316374">
<ele>554.634</ele>
<time>2022-05-26T11:54:47Z</time>
</trkpt>
<trkpt lat="47.966579" lon="11.316295">
<ele>554.634</ele>
<time>2022-05-26T11:54:48Z</time>
</trkpt>
<trkpt lat="47.966549" lon="11.31625">
<ele>554.634</ele>
<time>2022-05-26T11:54:49Z</time>
</trkpt>
<trkpt lat="47.966515" lon="11.316207">
<ele>554.634</ele>
<time>2022-05-26T11:54:50Z</time>
</trkpt>
<trkpt lat="47.966473" lon="11.316169">
<ele>554.634</ele>
<time>2022-05-26T11:54:51Z</time>
</trkpt>
<trkpt lat="47.966431" lon="11.316127">
<ele>554.634</ele>
<time>2022-05-26T11:54:52Z</time>
</trkpt>
<trkpt lat="47.966385" lon="11.316089">
<ele>554.634</ele>
<time>2022-05-26T11:54:53Z</time>
</trkpt>
<trkpt lat="47.966328" lon="11.316041">
<ele>554.634</ele>
<time>2022-05-26T11:54:54Z</time>
</trkpt>
<trkpt lat="47.966293" lon="11.316024">
<ele>554.875</ele>
<time>2022-05-26T11:54:55Z</time>
</trkpt>
<trkpt lat="47.966259" lon="11.315999">
<ele>555.063</ele>
<time>2022-05-26T11:54:56Z</time>
</trkpt>
<trkpt lat="47.966236" lon="11.315969">
<ele>555.228</ele>
<time>2022-05-26T11:54:57Z</time>
</trkpt>
<trkpt lat="47.966221" lon="11.315943">
<ele>555.329</ele>
<time>2022-05-26T11:54:58Z</time>
</trkpt>
<trkpt lat="47.966202" lon="11.31591">
<ele>555.431</ele>
<time>2022-05-26T11:54:59Z</time>
</trkpt>
<trkpt lat="47.96619" lon="11.315892">
<ele>555.508</ele>
<time>2022-05-26T11:55:00Z</time>
</trkpt>
<trkpt lat="47.96619" lon="11.315886">
<ele>555.562</ele>
<time>2022-05-26T11:55:01Z</time>
</trkpt>
<trkpt lat="47.966183" lon="11.31588">
<ele>555.594</ele>
<time>2022-05-26T11:55:02Z</time>
</trkpt>
<trkpt lat="47.966183" lon="11.315875">
<ele>555.594</ele>
<time>2022-05-26T11:55:03Z</time>
</trkpt>
<trkpt lat="47.966118" lon="11.315793">
<ele>555.594</ele>
<time>2022-05-26T11:55:58Z</time>
</trkpt>
<trkpt lat="47.966118" lon="11.315795">
<ele>555.594</ele>
<time>2022-05-26T11:55:59Z</time>
</trkpt>
<trkpt lat="47.966114" lon="11.315798">
<ele>555.594</ele>
<time>2022-05-26T11:56:00Z</time>
</trkpt>
<trkpt lat="47.966106" lon="11.315802">
<ele>555.594</ele>
<time>2022-05-26T11:56:01Z</time>
</trkpt>
<trkpt lat="47.966095" lon="11.31581">
<ele>555.594</ele>
<time>2022-05-26T11:56:02Z</time>
</trkpt>
<trkpt lat="47.966084" lon="11.31581">
<ele>555.594</ele>
<time>2022-05-26T11:56:03Z</time>
</trkpt>
<trkpt lat="47.966076" lon="11.315806">
<ele>555.594</ele>
<time>2022-05-26T11:56:04Z</time>
</trkpt>
<trkpt lat="47.966064" lon="11.315808">
<ele>555.594</ele>
<time>2022-05-26T11:56:05Z</time>
</trkpt>
<trkpt lat="47.966057" lon="11.315806">
<ele>555.594</ele>
<time>2022-05-26T11:56:06Z</time>
</trkpt>
<trkpt lat="47.966053" lon="11.3158">
<ele>555.594</ele>
<time>2022-05-26T11:56:07Z</time>
</trkpt>
<trkpt lat="47.966022" lon="11.31577">
<ele>555.594</ele>
<time>2022-05-26T11:56:12Z</time>
</trkpt>
<trkpt lat="47.966007" lon="11.315764">
<ele>555.594</ele>
<time>2022-05-26T11:56:13Z</time>
</trkpt>
<trkpt lat="47.965996" lon="11.315764">
<ele>555.594</ele>
<time>2022-05-26T11:56:14Z</time>
</trkpt>
<trkpt lat="47.965981" lon="11.315763">
<ele>555.854</ele>
<time>2022-05-26T11:56:15Z</time>
</trkpt>
<trkpt lat="47.965973" lon="11.31575">
<ele>556.038</ele>
<time>2022-05-26T11:56:16Z</time>
</trkpt>
<trkpt lat="47.96595" lon="11.315752">
<ele>556.205</ele>
<time>2022-05-26T11:56:17Z</time>
</trkpt>
<trkpt lat="47.965935" lon="11.315739">
<ele>556.32</ele>
<time>2022-05-26T11:56:18Z</time>
</trkpt>
<trkpt lat="47.965927" lon="11.315733">
<ele>556.39</ele>
<time>2022-05-26T11:56:19Z</time>
</trkpt>
<trkpt lat="47.965923" lon="11.31573">
<ele>556.438</ele>
<time>2022-05-26T11:56:20Z</time>
</trkpt>
<trkpt lat="47.965923" lon="11.315728">
<ele>556.53</ele>
<time>2022-05-26T11:56:21Z</time>
</trkpt>
<trkpt lat="47.965919" lon="11.31573">
<ele>556.554</ele>
<time>2022-05-26T11:56:22Z</time>
</trkpt>
<trkpt lat="47.965916" lon="11.31573">
<ele>556.554</ele>
<time>2022-05-26T11:56:23Z</time>
</trkpt>
<trkpt lat="47.965832" lon="11.315719">
<ele>556.554</ele>
<time>2022-05-26T11:57:48Z</time>
</trkpt>
<trkpt lat="47.965828" lon="11.315721">
<ele>556.554</ele>
<time>2022-05-26T11:57:49Z</time>
</trkpt>
<trkpt lat="47.965813" lon="11.315721">
<ele>556.554</ele>
<time>2022-05-26T11:57:50Z</time>
</trkpt>
<trkpt lat="47.965797" lon="11.315719">
<ele>556.554</ele>
<time>2022-05-26T11:57:51Z</time>
</trkpt>
<trkpt lat="47.965786" lon="11.315717">
<ele>556.554</ele>
<time>2022-05-26T11:57:52Z</time>
</trkpt>
<trkpt lat="47.965767" lon="11.315705">
<ele>556.554</ele>
<time>2022-05-26T11:57:53Z</time>
</trkpt>
<trkpt lat="47.965744" lon="11.315691">
<ele>556.554</ele>
<time>2022-05-26T11:57:54Z</time>
</trkpt>
<trkpt lat="47.965721" lon="11.315682">
<ele>556.554</ele>
<time>2022-05-26T11:57:55Z</time>
</trkpt>
<trkpt lat="47.965691" lon="11.31566">
<ele>556.554</ele>
<time>2022-05-26T11:57:56Z</time>
</trkpt>
<trkpt lat="47.96566" lon="11.31563">
<ele>556.554</ele>
<time>2022-05-26T11:57:57Z</time>
</trkpt>
<trkpt lat="47.965614" lon="11.3156">
<ele>556.554</ele>
<time>2022-05-26T11:57:58Z</time>
</trkpt>
<trkpt lat="47.965572" lon="11.315577">
<ele>556.831</ele>
<time>2022-05-26T11:57:59Z</time>
</trkpt>
<trkpt lat="47.965534" lon="11.315558">
<ele>556.987</ele>
<time>2022-05-26T11:58:00Z</time>
</trkpt>
<trkpt lat="47.965481" lon="11.315534">
<ele>557.137</ele>
<time>2022-05-26T11:58:01Z</time>
</trkpt>
<trkpt lat="47.965439" lon="11.315512">
<ele>557.243</ele>
<time>2022-05-26T11:58:02Z</time>
</trkpt>
<trkpt lat="47.965397" lon="11.315488">
<ele>557.322</ele>
<time>2022-05-26T11:58:03Z</time>
</trkpt>
<trkpt lat="47.965347" lon="11.315463">
<ele>557.374</ele>
<time>2022-05-26T11:58:04Z</time>
</trkpt>
<trkpt lat="47.965305" lon="11.315434">
<ele>557.407</ele>
<time>2022-05-26T11:58:05Z</time>
</trkpt>
<trkpt lat="47.965267" lon="11.315408">
<ele>557.66</ele>
<time>2022-05-26T11:58:06Z</time>
</trkpt>
<trkpt lat="47.965233" lon="11.315398">
<ele>557.876</ele>
<time>2022-05-26T11:58:07Z</time>
</trkpt>
<trkpt lat="47.965199" lon="11.315393">
<ele>558.023</ele>
<time>2022-05-26T11:58:08Z</time>
</trkpt>
<trkpt lat="47.965179" lon="11.315374">
<ele>558.129</ele>
<time>2022-05-26T11:58:09Z</time>
</trkpt>
<trkpt lat="47.965157" lon="11.315347">
<ele>558.221</ele>
<time>2022-05-26T11:58:10Z</time>
</trkpt>
<trkpt lat="47.965137" lon="11.315331">
<ele>558.301</ele>
<time>2022-05-26T11:58:11Z</time>
</trkpt>
<trkpt lat="47.965103" lon="11.315302">
<ele>558.357</ele>
<time>2022-05-26T11:58:12Z</time>
</trkpt>
<trkpt lat="47.965076" lon="11.315285">
<ele>558.387</ele>
<time>2022-05-26T11:58:13Z</time>
</trkpt>
<trkpt lat="47.965046" lon="11.315266">
<ele>558.388</ele>
<time>2022-05-26T11:58:14Z</time>
</trkpt>
<trkpt lat="47.965015" lon="11.315242">
<ele>558.387</ele>
<time>2022-05-26T11:58:15Z</time>
</trkpt>
<trkpt lat="47.964989" lon="11.315228">
<ele>558.387</ele>
<time>2022-05-26T11:58:16Z</time>
</trkpt>
<trkpt lat="47.964958" lon="11.315193">
<ele>558.387</ele>
<time>2022-05-26T11:58:17Z</time>
</trkpt>
<trkpt lat="47.964935" lon="11.315162">
<ele>558.387</ele>
<time>2022-05-26T11:58:18Z</time>
</trkpt>
<trkpt lat="47.964912" lon="11.315133">
<ele>558.387</ele>
<time>2022-05-26T11:58:19Z</time>
</trkpt>
<trkpt lat="47.964878" lon="11.315104">
<ele>558.388</ele>
<time>2022-05-26T11:58:20Z</time>
</trkpt>
<trkpt lat="47.964851" lon="11.315073">
<ele>558.387</ele>
<time>2022-05-26T11:58:21Z</time>
</trkpt>
<trkpt lat="47.964821" lon="11.315043">
<ele>558.387</ele>
<time>2022-05-26T11:58:22Z</time>
</trkpt>
<trkpt lat="47.964794" lon="11.315012">
<ele>558.387</ele>
<time>2022-05-26T11:58:23Z</time>
</trkpt>
<trkpt lat="47.964767" lon="11.314989">
<ele>558.387</ele>
<time>2022-05-26T11:58:24Z</time>
</trkpt>
<trkpt lat="47.964733" lon="11.314968">
<ele>558.387</ele>
<time>2022-05-26T11:58:25Z</time>
</trkpt>
<trkpt lat="47.964703" lon="11.314939">
<ele>558.387</ele>
<time>2022-05-26T11:58:26Z</time>
</trkpt>
<trkpt lat="47.964676" lon="11.31491">
<ele>558.387</ele>
<time>2022-05-26T11:58:27Z</time>
</trkpt>
<trkpt lat="47.964653" lon="11.314877">
<ele>558.387</ele>
<time>2022-05-26T11:58:28Z</time>
</trkpt>
<trkpt lat="47.964626" lon="11.314838">
<ele>558.388</ele>
<time>2022-05-26T11:58:29Z</time>
</trkpt>
<trkpt lat="47.964607" lon="11.314805">
<ele>558.388</ele>
<time>2022-05-26T11:58:30Z</time>
</trkpt>
<trkpt lat="47.964581" lon="11.314778">
<ele>558.387</ele>
<time>2022-05-26T11:58:31Z</time>
</trkpt>
<trkpt lat="47.964558" lon="11.31475">
<ele>558.387</ele>
<time>2022-05-26T11:58:32Z</time>
</trkpt>
<trkpt lat="47.964531" lon="11.314732">
<ele>558.387</ele>
<time>2022-05-26T11:58:33Z</time>
</trkpt>
<trkpt lat="47.9645" lon="11.314713">
<ele>558.387</ele>
<time>2022-05-26T11:58:34Z</time>
</trkpt>
<trkpt lat="47.96447" lon="11.314692">
<ele>558.387</ele>
<time>2022-05-26T11:58:35Z</time>
</trkpt>
<trkpt lat="47.964447" lon="11.31468">
<ele>558.387</ele>
<time>2022-05-26T11:58:36Z</time>
</trkpt>
<trkpt lat="47.964424" lon="11.314672">
<ele>558.387</ele>
<time>2022-05-26T11:58:37Z</time>
</trkpt>
<trkpt lat="47.964405" lon="11.31466">
<ele>558.387</ele>
<time>2022-05-26T11:58:38Z</time>
</trkpt>
<trkpt lat="47.964382" lon="11.314651">
<ele>558.388</ele>
<time>2022-05-26T11:58:39Z</time>
</trkpt>
<trkpt lat="47.964355" lon="11.314656">
<ele>558.387</ele>
<time>2022-05-26T11:58:40Z</time>
</trkpt>
<trkpt lat="47.964329" lon="11.314667">
<ele>558.387</ele>
<time>2022-05-26T11:58:41Z</time>
</trkpt>
<trkpt lat="47.96431" lon="11.314681">
<ele>558.388</ele>
<time>2022-05-26T11:58:42Z</time>
</trkpt>
<trkpt lat="47.964279" lon="11.314711">
<ele>558.387</ele>
<time>2022-05-26T11:58:43Z</time>
</trkpt>
<trkpt lat="47.964252" lon="11.314744">
<ele>558.387</ele>
<time>2022-05-26T11:58:44Z</time>
</trkpt>
<trkpt lat="47.964226" lon="11.314769">
<ele>558.387</ele>
<time>2022-05-26T11:58:45Z</time>
</trkpt>
<trkpt lat="47.964203" lon="11.314786">
<ele>558.387</ele>
<time>2022-05-26T11:58:46Z</time>
</trkpt>
<trkpt lat="47.964184" lon="11.314812">
<ele>558.387</ele>
<time>2022-05-26T11:58:47Z</time>
</trkpt>
<trkpt lat="47.964169" lon="11.314835">
<ele>558.152</ele>
<time>2022-05-26T11:58:48Z</time>
</trkpt>
<trkpt lat="47.964142" lon="11.314865">
<ele>557.959</ele>
<time>2022-05-26T11:58:49Z</time>
</trkpt>
<trkpt lat="47.964119" lon="11.314898">
<ele>557.838</ele>
<time>2022-05-26T11:58:50Z</time>
</trkpt>
<trkpt lat="47.964081" lon="11.314935">
<ele>557.706</ele>
<time>2022-05-26T11:58:51Z</time>
</trkpt>
<trkpt lat="47.964039" lon="11.314979">
<ele>557.6</ele>
<time>2022-05-26T11:58:52Z</time>
</trkpt>
<trkpt lat="47.963989" lon="11.315017">
<ele>557.291</ele>
<time>2022-05-26T11:58:53Z</time>
</trkpt>
<trkpt lat="47.963928" lon="11.315059">
<ele>556.71</ele>
<time>2022-05-26T11:58:54Z</time>
</trkpt>
<trkpt lat="47.963867" lon="11.315096">
<ele>556.388</ele>
<time>2022-05-26T11:58:55Z</time>
</trkpt>
<trkpt lat="47.963806" lon="11.31514">
<ele>555.706</ele>
<time>2022-05-26T11:58:56Z</time>
</trkpt>
<trkpt lat="47.963745" lon="11.315182">
<ele>555.337</ele>
<time>2022-05-26T11:58:57Z</time>
</trkpt>
<trkpt lat="47.963699" lon="11.315208">
<ele>555.125</ele>
<time>2022-05-26T11:58:58Z</time>
</trkpt>
<trkpt lat="47.96365" lon="11.315234">
<ele>554.711</ele>
<time>2022-05-26T11:58:59Z</time>
</trkpt>
<trkpt lat="47.963604" lon="11.31526">
<ele>554.403</ele>
<time>2022-05-26T11:59:00Z</time>
</trkpt>
<trkpt lat="47.963551" lon="11.31528">
<ele>553.949</ele>
<time>2022-05-26T11:59:01Z</time>
</trkpt>
<trkpt lat="47.963509" lon="11.315302">
<ele>553.64</ele>
<time>2022-05-26T11:59:02Z</time>
</trkpt>
<trkpt lat="47.963467" lon="11.315324">
<ele>553.116</ele>
<time>2022-05-26T11:59:03Z</time>
</trkpt>
<trkpt lat="47.963421" lon="11.315339">
<ele>552.701</ele>
<time>2022-05-26T11:59:04Z</time>
</trkpt>
<trkpt lat="47.963387" lon="11.31536">
<ele>552.398</ele>
<time>2022-05-26T11:59:05Z</time>
</trkpt>
<trkpt lat="47.963345" lon="11.315387">
<ele>551.901</ele>
<time>2022-05-26T11:59:06Z</time>
</trkpt>
<trkpt lat="47.96331" lon="11.31541">
<ele>551.541</ele>
<time>2022-05-26T11:59:07Z</time>
</trkpt>
<trkpt lat="47.96328" lon="11.315429">
<ele>551.272</ele>
<time>2022-05-26T11:59:08Z</time>
</trkpt>
<trkpt lat="47.963253" lon="11.315452">
<ele>551.082</ele>
<time>2022-05-26T11:59:09Z</time>
</trkpt>
<trkpt lat="47.963226" lon="11.315477">
<ele>550.966</ele>
<time>2022-05-26T11:59:10Z</time>
</trkpt>
<trkpt lat="47.963223" lon="11.315487">
<ele>550.882</ele>
<time>2022-05-26T11:59:11Z</time>
</trkpt>
<trkpt lat="47.963215" lon="11.31549">
<ele>550.824</ele>
<time>2022-05-26T11:59:12Z</time>
</trkpt>
<trkpt lat="47.963211" lon="11.315503">
<ele>550.794</ele>
<time>2022-05-26T11:59:13Z</time>
</trkpt>
<trkpt lat="47.963196" lon="11.31555">
<ele>550.794</ele>
<time>2022-05-26T11:59:15Z</time>
</trkpt>
<trkpt lat="47.9632" lon="11.315567">
<ele>550.794</ele>
<time>2022-05-26T11:59:16Z</time>
</trkpt>
<trkpt lat="47.963207" lon="11.315568">
<ele>550.794</ele>
<time>2022-05-26T11:59:17Z</time>
</trkpt>
<trkpt lat="47.963211" lon="11.31557">
<ele>550.794</ele>
<time>2022-05-26T11:59:18Z</time>
</trkpt>
<trkpt lat="47.963223" lon="11.315567">
<ele>550.794</ele>
<time>2022-05-26T11:59:19Z</time>
</trkpt>
<trkpt lat="47.963242" lon="11.31556">
<ele>550.794</ele>
<time>2022-05-26T11:59:20Z</time>
</trkpt>
<trkpt lat="47.963257" lon="11.315547">
<ele>550.794</ele>
<time>2022-05-26T11:59:21Z</time>
</trkpt>
<trkpt lat="47.963276" lon="11.315534">
<ele>550.794</ele>
<time>2022-05-26T11:59:22Z</time>
</trkpt>
<trkpt lat="47.963295" lon="11.315519">
<ele>550.794</ele>
<time>2022-05-26T11:59:23Z</time>
</trkpt>
<trkpt lat="47.963322" lon="11.315496">
<ele>550.794</ele>
<time>2022-05-26T11:59:24Z</time>
</trkpt>
<trkpt lat="47.963345" lon="11.315485">
<ele>550.794</ele>
<time>2022-05-26T11:59:25Z</time>
</trkpt>
<trkpt lat="47.963371" lon="11.315477">
<ele>550.794</ele>
<time>2022-05-26T11:59:26Z</time>
</trkpt>
<trkpt lat="47.963398" lon="11.315463">
<ele>550.794</ele>
<time>2022-05-26T11:59:27Z</time>
</trkpt>
<trkpt lat="47.963421" lon="11.315445">
<ele>551.063</ele>
<time>2022-05-26T11:59:28Z</time>
</trkpt>
<trkpt lat="47.963448" lon="11.315435">
<ele>551.258</ele>
<time>2022-05-26T11:59:29Z</time>
</trkpt>
<trkpt lat="47.963467" lon="11.315418">
<ele>551.402</ele>
<time>2022-05-26T11:59:30Z</time>
</trkpt>
<trkpt lat="47.96349" lon="11.3154">
<ele>551.495</ele>
<time>2022-05-26T11:59:31Z</time>
</trkpt>
<trkpt lat="47.963516" lon="11.315372">
<ele>551.588</ele>
<time>2022-05-26T11:59:32Z</time>
</trkpt>
<trkpt lat="47.963535" lon="11.315356">
<ele>551.908</ele>
<time>2022-05-26T11:59:33Z</time>
</trkpt>
<trkpt lat="47.963551" lon="11.315343">
<ele>552.152</ele>
<time>2022-05-26T11:59:34Z</time>
</trkpt>
<trkpt lat="47.963577" lon="11.31532">
<ele>552.312</ele>
<time>2022-05-26T11:59:35Z</time>
</trkpt>
<trkpt lat="47.963604" lon="11.31529">
<ele>552.779</ele>
<time>2022-05-26T11:59:36Z</time>
</trkpt>
<trkpt lat="47.963634" lon="11.315264">
<ele>553.058</ele>
<time>2022-05-26T11:59:37Z</time>
</trkpt>
<trkpt lat="47.963661" lon="11.315243">
<ele>553.266</ele>
<time>2022-05-26T11:59:38Z</time>
</trkpt>
<trkpt lat="47.96368" lon="11.315224">
<ele>553.369</ele>
<time>2022-05-26T11:59:39Z</time>
</trkpt>
<trkpt lat="47.963711" lon="11.315207">
<ele>553.69</ele>
<time>2022-05-26T11:59:40Z</time>
</trkpt>
<trkpt lat="47.96373" lon="11.315197">
<ele>553.944</ele>
<time>2022-05-26T11:59:41Z</time>
</trkpt>
<trkpt lat="47.963757" lon="11.315184">
<ele>554.148</ele>
<time>2022-05-26T11:59:42Z</time>
</trkpt>
<trkpt lat="47.963783" lon="11.315165">
<ele>554.27</ele>
<time>2022-05-26T11:59:43Z</time>
</trkpt>
<trkpt lat="47.963814" lon="11.31514">
<ele>554.623</ele>
<time>2022-05-26T11:59:44Z</time>
</trkpt>
<trkpt lat="47.963837" lon="11.315128">
<ele>554.924</ele>
<time>2022-05-26T11:59:45Z</time>
</trkpt>
<trkpt lat="47.963867" lon="11.315106">
<ele>555.171</ele>
<time>2022-05-26T11:59:46Z</time>
</trkpt>
<trkpt lat="47.96389" lon="11.315084">
<ele>555.345</ele>
<time>2022-05-26T11:59:47Z</time>
</trkpt>
<trkpt lat="47.963909" lon="11.315062">
<ele>555.485</ele>
<time>2022-05-26T11:59:48Z</time>
</trkpt>
<trkpt lat="47.963936" lon="11.315039">
<ele>555.54</ele>
<time>2022-05-26T11:59:49Z</time>
</trkpt>
<trkpt lat="47.963955" lon="11.315021">
<ele>555.57</ele>
<time>2022-05-26T11:59:50Z</time>
</trkpt>
<trkpt lat="47.96397" lon="11.315001">
<ele>555.594</ele>
<time>2022-05-26T11:59:51Z</time>
</trkpt>
<trkpt lat="47.963982" lon="11.31499">
<ele>555.594</ele>
<time>2022-05-26T11:59:52Z</time>
</trkpt>
<trkpt lat="47.963993" lon="11.314973">
<ele>555.594</ele>
<time>2022-05-26T11:59:53Z</time>
</trkpt>
<trkpt lat="47.964005" lon="11.31496">
<ele>555.594</ele>
<time>2022-05-26T11:59:54Z</time>
</trkpt>
<trkpt lat="47.964012" lon="11.314947">
<ele>555.594</ele>
<time>2022-05-26T11:59:55Z</time>
</trkpt>
<trkpt lat="47.964016" lon="11.314935">
<ele>555.594</ele>
<time>2022-05-26T11:59:56Z</time>
</trkpt>
<trkpt lat="47.964027" lon="11.314907">
<ele>555.594</ele>
<time>2022-05-26T11:59:57Z</time>
</trkpt>
<trkpt lat="47.964035" lon="11.314897">
<ele>555.819</ele>
<time>2022-05-26T11:59:58Z</time>
</trkpt>
<trkpt lat="47.964046" lon="11.314885">
<ele>556.026</ele>
<time>2022-05-26T11:59:59Z</time>
</trkpt>
<trkpt lat="47.964069" lon="11.314849">
<ele>556.207</ele>
<time>2022-05-26T12:00:04Z</time>
</trkpt>
<trkpt lat="47.964073" lon="11.314845">
<ele>556.305</ele>
<time>2022-05-26T12:00:05Z</time>
</trkpt>
<trkpt lat="47.964073" lon="11.314838">
<ele>556.417</ele>
<time>2022-05-26T12:00:06Z</time>
</trkpt>
<trkpt lat="47.964077" lon="11.31483">
<ele>556.487</ele>
<time>2022-05-26T12:00:07Z</time>
</trkpt>
<trkpt lat="47.964069" lon="11.314805">
<ele>556.538</ele>
<time>2022-05-26T12:00:11Z</time>
</trkpt>
<trkpt lat="47.964073" lon="11.314792">
<ele>556.74</ele>
<time>2022-05-26T12:00:12Z</time>
</trkpt>
<trkpt lat="47.964069" lon="11.314778">
<ele>556.956</ele>
<time>2022-05-26T12:00:13Z</time>
</trkpt>
<trkpt lat="47.964073" lon="11.314763">
<ele>557.094</ele>
<time>2022-05-26T12:00:14Z</time>
</trkpt>
<trkpt lat="47.964073" lon="11.314747">
<ele>557.204</ele>
<time>2022-05-26T12:00:15Z</time>
</trkpt>
<trkpt lat="47.964073" lon="11.314718">
<ele>557.372</ele>
<time>2022-05-26T12:00:16Z</time>
</trkpt>
<trkpt lat="47.964073" lon="11.31469">
<ele>557.395</ele>
<time>2022-05-26T12:00:17Z</time>
</trkpt>
<trkpt lat="47.964081" lon="11.314662">
<ele>557.415</ele>
<time>2022-05-26T12:00:18Z</time>
</trkpt>
<trkpt lat="47.964085" lon="11.314635">
<ele>557.712</ele>
<time>2022-05-26T12:00:19Z</time>
</trkpt>
<trkpt lat="47.964085" lon="11.314608">
<ele>557.966</ele>
<time>2022-05-26T12:00:20Z</time>
</trkpt>
<trkpt lat="47.964085" lon="11.314578">
<ele>558.137</ele>
<time>2022-05-26T12:00:21Z</time>
</trkpt>
<trkpt lat="47.964081" lon="11.314553">
<ele>558.257</ele>
<time>2022-05-26T12:00:22Z</time>
</trkpt>
<trkpt lat="47.964073" lon="11.314527">
<ele>558.341</ele>
<time>2022-05-26T12:00:23Z</time>
</trkpt>
<trkpt lat="47.964066" lon="11.314495">
<ele>558.4</ele>
<time>2022-05-26T12:00:24Z</time>
</trkpt>
<trkpt lat="47.964054" lon="11.314466">
<ele>558.45</ele>
<time>2022-05-26T12:00:25Z</time>
</trkpt>
<trkpt lat="47.964046" lon="11.314436">
<ele>558.475</ele>
<time>2022-05-26T12:00:26Z</time>
</trkpt>
<trkpt lat="47.964039" lon="11.314406">
<ele>558.475</ele>
<time>2022-05-26T12:00:27Z</time>
</trkpt>
<trkpt lat="47.964031" lon="11.314373">
<ele>558.475</ele>
<time>2022-05-26T12:00:28Z</time>
</trkpt>
<trkpt lat="47.964016" lon="11.314335">
<ele>558.475</ele>
<time>2022-05-26T12:00:29Z</time>
</trkpt>
<trkpt lat="47.964005" lon="11.314297">
<ele>558.475</ele>
<time>2022-05-26T12:00:30Z</time>
</trkpt>
<trkpt lat="47.963993" lon="11.31426">
<ele>558.475</ele>
<time>2022-05-26T12:00:31Z</time>
</trkpt>
<trkpt lat="47.963982" lon="11.314224">
<ele>558.475</ele>
<time>2022-05-26T12:00:32Z</time>
</trkpt>
<trkpt lat="47.963966" lon="11.314187">
<ele>558.475</ele>
<time>2022-05-26T12:00:33Z</time>
</trkpt>
<trkpt lat="47.963959" lon="11.314156">
<ele>558.475</ele>
<time>2022-05-26T12:00:34Z</time>
</trkpt>
<trkpt lat="47.963955" lon="11.31412">
<ele>558.475</ele>
<time>2022-05-26T12:00:35Z</time>
</trkpt>
<trkpt lat="47.96394" lon="11.314085">
<ele>558.475</ele>
<time>2022-05-26T12:00:36Z</time>
</trkpt>
<trkpt lat="47.963928" lon="11.314042">
<ele>558.475</ele>
<time>2022-05-26T12:00:37Z</time>
</trkpt>
<trkpt lat="47.963905" lon="11.313993">
<ele>558.475</ele>
<time>2022-05-26T12:00:38Z</time>
</trkpt>
<trkpt lat="47.963886" lon="11.313947">
<ele>558.475</ele>
<time>2022-05-26T12:00:39Z</time>
</trkpt>
<trkpt lat="47.963875" lon="11.31391">
<ele>558.475</ele>
<time>2022-05-26T12:00:40Z</time>
</trkpt>
<trkpt lat="47.963863" lon="11.31387">
<ele>558.475</ele>
<time>2022-05-26T12:00:41Z</time>
</trkpt>
<trkpt lat="47.963856" lon="11.313837">
<ele>558.475</ele>
<time>2022-05-26T12:00:42Z</time>
</trkpt>
<trkpt lat="47.963848" lon="11.313806">
<ele>558.475</ele>
<time>2022-05-26T12:00:43Z</time>
</trkpt>
<trkpt lat="47.96384" lon="11.313762">
<ele>558.74</ele>
<time>2022-05-26T12:00:44Z</time>
</trkpt>
<trkpt lat="47.96384" lon="11.313711">
<ele>558.946</ele>
<time>2022-05-26T12:00:45Z</time>
</trkpt>
<trkpt lat="47.963844" lon="11.313657">
<ele>559.114</ele>
<time>2022-05-26T12:00:46Z</time>
</trkpt>
<trkpt lat="47.963852" lon="11.313603">
<ele>559.218</ele>
<time>2022-05-26T12:00:47Z</time>
</trkpt>
<trkpt lat="47.96386" lon="11.313545">
<ele>559.66</ele>
<time>2022-05-26T12:00:48Z</time>
</trkpt>
<trkpt lat="47.963867" lon="11.313489">
<ele>560.239</ele>
<time>2022-05-26T12:00:49Z</time>
</trkpt>
<trkpt lat="47.963875" lon="11.313437">
<ele>561.004</ele>
<time>2022-05-26T12:00:50Z</time>
</trkpt>
<trkpt lat="47.963882" lon="11.313374">
<ele>561.474</ele>
<time>2022-05-26T12:00:51Z</time>
</trkpt>
<trkpt lat="47.963882" lon="11.313323">
<ele>562.075</ele>
<time>2022-05-26T12:00:52Z</time>
</trkpt>
<trkpt lat="47.963882" lon="11.31327">
<ele>562.814</ele>
<time>2022-05-26T12:00:53Z</time>
</trkpt>
<trkpt lat="47.963875" lon="11.313179">
<ele>563.406</ele>
<time>2022-05-26T12:00:54Z</time>
</trkpt>
<trkpt lat="47.963867" lon="11.313125">
<ele>563.778</ele>
<time>2022-05-26T12:00:55Z</time>
</trkpt>
<trkpt lat="47.963867" lon="11.313085">
<ele>564.378</ele>
<time>2022-05-26T12:00:56Z</time>
</trkpt>
<trkpt lat="47.963867" lon="11.313037">
<ele>565.088</ele>
<time>2022-05-26T12:00:57Z</time>
</trkpt>
<trkpt lat="47.963875" lon="11.312986">
<ele>565.57</ele>
<time>2022-05-26T12:00:58Z</time>
</trkpt>
<trkpt lat="47.963879" lon="11.31295">
<ele>565.959</ele>
<time>2022-05-26T12:00:59Z</time>
</trkpt>
<trkpt lat="47.963867" lon="11.312881">
<ele>566.531</ele>
<time>2022-05-26T12:01:00Z</time>
</trkpt>
<trkpt lat="47.963848" lon="11.312815">
<ele>566.938</ele>
<time>2022-05-26T12:01:01Z</time>
</trkpt>
<trkpt lat="47.963829" lon="11.31276">
<ele>567.245</ele>
<time>2022-05-26T12:01:02Z</time>
</trkpt>
<trkpt lat="47.96381" lon="11.312724">
<ele>567.551</ele>
<time>2022-05-26T12:01:03Z</time>
</trkpt>
<trkpt lat="47.963795" lon="11.312703">
<ele>567.688</ele>
<time>2022-05-26T12:01:04Z</time>
</trkpt>
<trkpt lat="47.963776" lon="11.312678">
<ele>567.792</ele>
<time>2022-05-26T12:01:05Z</time>
</trkpt>
<trkpt lat="47.963749" lon="11.312628">
<ele>567.815</ele>
<time>2022-05-26T12:01:06Z</time>
</trkpt>
<trkpt lat="47.963734" lon="11.312596">
<ele>567.822</ele>
<time>2022-05-26T12:01:07Z</time>
</trkpt>
<trkpt lat="47.963715" lon="11.312561">
<ele>567.822</ele>
<time>2022-05-26T12:01:08Z</time>
</trkpt>
<trkpt lat="47.963699" lon="11.31253">
<ele>567.822</ele>
<time>2022-05-26T12:01:09Z</time>
</trkpt>
<trkpt lat="47.963684" lon="11.31251">
<ele>568.089</ele>
<time>2022-05-26T12:01:10Z</time>
</trkpt>
<trkpt lat="47.963673" lon="11.312498">
<ele>568.32</ele>
<time>2022-05-26T12:01:11Z</time>
</trkpt>
<trkpt lat="47.963657" lon="11.312462">
<ele>568.486</ele>
<time>2022-05-26T12:01:12Z</time>
</trkpt>
<trkpt lat="47.963646" lon="11.312446">
<ele>568.593</ele>
<time>2022-05-26T12:01:13Z</time>
</trkpt>
<trkpt lat="47.963638" lon="11.312423">
<ele>568.663</ele>
<time>2022-05-26T12:01:14Z</time>
</trkpt>
<trkpt lat="47.963634" lon="11.312408">
<ele>568.998</ele>
<time>2022-05-26T12:01:15Z</time>
</trkpt>
<trkpt lat="47.963623" lon="11.312395">
<ele>569.238</ele>
<time>2022-05-26T12:01:16Z</time>
</trkpt>
<trkpt lat="47.963612" lon="11.312383">
<ele>569.433</ele>
<time>2022-05-26T12:01:17Z</time>
</trkpt>
<trkpt lat="47.963604" lon="11.312366">
<ele>569.574</ele>
<time>2022-05-26T12:01:18Z</time>
</trkpt>
<trkpt lat="47.963596" lon="11.312353">
<ele>569.705</ele>
<time>2022-05-26T12:01:19Z</time>
</trkpt>
<trkpt lat="47.963589" lon="11.312333">
<ele>569.791</ele>
<time>2022-05-26T12:01:20Z</time>
</trkpt>
<trkpt lat="47.963573" lon="11.312276">
<ele>569.885</ele>
<time>2022-05-26T12:01:21Z</time>
</trkpt>
<trkpt lat="47.963554" lon="11.312225">
<ele>569.919</ele>
<time>2022-05-26T12:01:22Z</time>
</trkpt>
<trkpt lat="47.963547" lon="11.312175">
<ele>570.294</ele>
<time>2022-05-26T12:01:23Z</time>
</trkpt>
<trkpt lat="47.963539" lon="11.312136">
<ele>570.531</ele>
<time>2022-05-26T12:01:24Z</time>
</trkpt>
<trkpt lat="47.963528" lon="11.3121">
<ele>570.685</ele>
<time>2022-05-26T12:01:25Z</time>
</trkpt>
<trkpt lat="47.963516" lon="11.312054">
<ele>570.768</ele>
<time>2022-05-26T12:01:26Z</time>
</trkpt>
<trkpt lat="47.963512" lon="11.312008">
<ele>571.158</ele>
<time>2022-05-26T12:01:27Z</time>
</trkpt>
<trkpt lat="47.963512" lon="11.311976">
<ele>571.38</ele>
<time>2022-05-26T12:01:28Z</time>
</trkpt>
<trkpt lat="47.963516" lon="11.311947">
<ele>571.574</ele>
<time>2022-05-26T12:01:29Z</time>
</trkpt>
<trkpt lat="47.963516" lon="11.311915">
<ele>571.777</ele>
<time>2022-05-26T12:01:30Z</time>
</trkpt>
<trkpt lat="47.963512" lon="11.311884">
<ele>571.901</ele>
<time>2022-05-26T12:01:31Z</time>
</trkpt>
<trkpt lat="47.963509" lon="11.311845">
<ele>572.247</ele>
<time>2022-05-26T12:01:32Z</time>
</trkpt>
<trkpt lat="47.963512" lon="11.31182">
<ele>572.519</ele>
<time>2022-05-26T12:01:33Z</time>
</trkpt>
<trkpt lat="47.963512" lon="11.311793">
<ele>572.714</ele>
<time>2022-05-26T12:01:34Z</time>
</trkpt>
<trkpt lat="47.963505" lon="11.311763">
<ele>572.916</ele>
<time>2022-05-26T12:01:35Z</time>
</trkpt>
<trkpt lat="47.963501" lon="11.311733">
<ele>573.005</ele>
<time>2022-05-26T12:01:36Z</time>
</trkpt>
<trkpt lat="47.963482" lon="11.311693">
<ele>573.313</ele>
<time>2022-05-26T12:01:37Z</time>
</trkpt>
<trkpt lat="47.963463" lon="11.311639">
<ele>573.528</ele>
<time>2022-05-26T12:01:38Z</time>
</trkpt>
<trkpt lat="47.963451" lon="11.311582">
<ele>573.731</ele>
<time>2022-05-26T12:01:39Z</time>
</trkpt>
<trkpt lat="47.96344" lon="11.311526">
<ele>574.189</ele>
<time>2022-05-26T12:01:40Z</time>
</trkpt>
<trkpt lat="47.963432" lon="11.311472">
<ele>574.558</ele>
<time>2022-05-26T12:01:41Z</time>
</trkpt>
<trkpt lat="47.963425" lon="11.311439">
<ele>574.781</ele>
<time>2022-05-26T12:01:42Z</time>
</trkpt>
<trkpt lat="47.963409" lon="11.311383">
<ele>574.903</ele>
<time>2022-05-26T12:01:43Z</time>
</trkpt>
<trkpt lat="47.963387" lon="11.311336">
<ele>575.268</ele>
<time>2022-05-26T12:01:44Z</time>
</trkpt>
<trkpt lat="47.963375" lon="11.311294">
<ele>575.561</ele>
<time>2022-05-26T12:01:45Z</time>
</trkpt>
<trkpt lat="47.963375" lon="11.311264">
<ele>575.941</ele>
<time>2022-05-26T12:01:46Z</time>
</trkpt>
<trkpt lat="47.963371" lon="11.311229">
<ele>576.226</ele>
<time>2022-05-26T12:01:47Z</time>
</trkpt>
<trkpt lat="47.963364" lon="11.311196">
<ele>576.454</ele>
<time>2022-05-26T12:01:48Z</time>
</trkpt>
<trkpt lat="47.96336" lon="11.311159">
<ele>576.661</ele>
<time>2022-05-26T12:01:49Z</time>
</trkpt>
<trkpt lat="47.963352" lon="11.311136">
<ele>577.059</ele>
<time>2022-05-26T12:01:50Z</time>
</trkpt>
<trkpt lat="47.963341" lon="11.3111">
<ele>577.304</ele>
<time>2022-05-26T12:01:51Z</time>
</trkpt>
<trkpt lat="47.963337" lon="11.31105">
<ele>577.783</ele>
<time>2022-05-26T12:01:52Z</time>
</trkpt>
<trkpt lat="47.963329" lon="11.311025">
<ele>578.203</ele>
<time>2022-05-26T12:01:53Z</time>
</trkpt>
<trkpt lat="47.963322" lon="11.311">
<ele>578.608</ele>
<time>2022-05-26T12:01:54Z</time>
</trkpt>
<trkpt lat="47.963314" lon="11.310973">
<ele>578.762</ele>
<time>2022-05-26T12:01:55Z</time>
</trkpt>
<trkpt lat="47.96331" lon="11.310946">
<ele>579.117</ele>
<time>2022-05-26T12:01:56Z</time>
</trkpt>
<trkpt lat="47.96331" lon="11.310915">
<ele>579.352</ele>
<time>2022-05-26T12:01:57Z</time>
</trkpt>
<trkpt lat="47.963306" lon="11.310888">
<ele>579.542</ele>
<time>2022-05-26T12:01:58Z</time>
</trkpt>
<trkpt lat="47.963306" lon="11.310851">
<ele>579.685</ele>
<time>2022-05-26T12:01:59Z</time>
</trkpt>
<trkpt lat="47.963299" lon="11.310824">
<ele>579.79</ele>
<time>2022-05-26T12:02:00Z</time>
</trkpt>
<trkpt lat="47.963295" lon="11.310786">
<ele>580.149</ele>
<time>2022-05-26T12:02:01Z</time>
</trkpt>
<trkpt lat="47.963291" lon="11.310746">
<ele>580.402</ele>
<time>2022-05-26T12:02:02Z</time>
</trkpt>
<trkpt lat="47.963284" lon="11.310713">
<ele>580.551</ele>
<time>2022-05-26T12:02:03Z</time>
</trkpt>
<trkpt lat="47.963276" lon="11.310686">
<ele>581.014</ele>
<time>2022-05-26T12:02:04Z</time>
</trkpt>
<trkpt lat="47.963268" lon="11.310657">
<ele>581.3</ele>
<time>2022-05-26T12:02:05Z</time>
</trkpt>
<trkpt lat="47.963253" lon="11.31063">
<ele>581.504</ele>
<time>2022-05-26T12:02:06Z</time>
</trkpt>
<trkpt lat="47.963245" lon="11.310585">
<ele>581.635</ele>
<time>2022-05-26T12:02:07Z</time>
</trkpt>
<trkpt lat="47.96323" lon="11.310554">
<ele>581.745</ele>
<time>2022-05-26T12:02:08Z</time>
</trkpt>
<trkpt lat="47.963223" lon="11.310505">
<ele>581.818</ele>
<time>2022-05-26T12:02:09Z</time>
</trkpt>
<trkpt lat="47.963211" lon="11.310462">
<ele>581.874</ele>
<time>2022-05-26T12:02:10Z</time>
</trkpt>
<trkpt lat="47.9632" lon="11.310431">
<ele>581.901</ele>
<time>2022-05-26T12:02:11Z</time>
</trkpt>
<trkpt lat="47.963192" lon="11.310385">
<ele>582.187</ele>
<time>2022-05-26T12:02:12Z</time>
</trkpt>
<trkpt lat="47.963188" lon="11.310359">
<ele>582.387</ele>
<time>2022-05-26T12:02:13Z</time>
</trkpt>
<trkpt lat="47.963188" lon="11.310327">
<ele>582.507</ele>
<time>2022-05-26T12:02:14Z</time>
</trkpt>
<trkpt lat="47.963192" lon="11.310295">
<ele>582.849</ele>
<time>2022-05-26T12:02:15Z</time>
</trkpt>
<trkpt lat="47.963196" lon="11.310268">
<ele>583.125</ele>
<time>2022-05-26T12:02:16Z</time>
</trkpt>
<trkpt lat="47.963192" lon="11.31024">
<ele>583.295</ele>
<time>2022-05-26T12:02:17Z</time>
</trkpt>
<trkpt lat="47.963181" lon="11.310191">
<ele>583.718</ele>
<time>2022-05-26T12:02:18Z</time>
</trkpt>
<trkpt lat="47.963169" lon="11.310133">
<ele>584.12</ele>
<time>2022-05-26T12:02:19Z</time>
</trkpt>
<trkpt lat="47.963161" lon="11.310107">
<ele>584.387</ele>
<time>2022-05-26T12:02:20Z</time>
</trkpt>
<trkpt lat="47.963158" lon="11.310072">
<ele>584.594</ele>
<time>2022-05-26T12:02:21Z</time>
</trkpt>
<trkpt lat="47.963158" lon="11.310047">
<ele>584.942</ele>
<time>2022-05-26T12:02:22Z</time>
</trkpt>
<trkpt lat="47.963135" lon="11.310005">
<ele>585.206</ele>
<time>2022-05-26T12:02:23Z</time>
</trkpt>
<trkpt lat="47.963123" lon="11.309978">
<ele>585.372</ele>
<time>2022-05-26T12:02:24Z</time>
</trkpt>
<trkpt lat="47.963127" lon="11.309948">
<ele>585.725</ele>
<time>2022-05-26T12:02:25Z</time>
</trkpt>
<trkpt lat="47.96312" lon="11.309894">
<ele>586.029</ele>
<time>2022-05-26T12:02:26Z</time>
</trkpt>
<trkpt lat="47.963116" lon="11.309847">
<ele>586.205</ele>
<time>2022-05-26T12:02:27Z</time>
</trkpt>
<trkpt lat="47.96312" lon="11.309813">
<ele>586.681</ele>
<time>2022-05-26T12:02:28Z</time>
</trkpt>
<trkpt lat="47.96312" lon="11.30979">
<ele>586.997</ele>
<time>2022-05-26T12:02:29Z</time>
</trkpt>
<trkpt lat="47.96312" lon="11.309769">
<ele>587.236</ele>
<time>2022-05-26T12:02:30Z</time>
</trkpt>
<trkpt lat="47.963123" lon="11.309745">
<ele>587.383</ele>
<time>2022-05-26T12:02:31Z</time>
</trkpt>
<trkpt lat="47.963123" lon="11.309716">
<ele>587.536</ele>
<time>2022-05-26T12:02:32Z</time>
</trkpt>
<trkpt lat="47.963123" lon="11.309678">
<ele>587.595</ele>
<time>2022-05-26T12:02:33Z</time>
</trkpt>
<trkpt lat="47.963131" lon="11.309649">
<ele>587.832</ele>
<time>2022-05-26T12:02:34Z</time>
</trkpt>
<trkpt lat="47.963139" lon="11.309624">
<ele>588.058</ele>
<time>2022-05-26T12:02:35Z</time>
</trkpt>
<trkpt lat="47.963127" lon="11.309595">
<ele>588.249</ele>
<time>2022-05-26T12:02:36Z</time>
</trkpt>
<trkpt lat="47.963131" lon="11.309575">
<ele>588.34</ele>
<time>2022-05-26T12:02:37Z</time>
</trkpt>
<trkpt lat="47.963135" lon="11.309555">
<ele>588.645</ele>
<time>2022-05-26T12:02:38Z</time>
</trkpt>
<trkpt lat="47.963139" lon="11.309529">
<ele>588.881</ele>
<time>2022-05-26T12:02:39Z</time>
</trkpt>
<trkpt lat="47.96315" lon="11.309508">
<ele>589.295</ele>
<time>2022-05-26T12:02:40Z</time>
</trkpt>
<trkpt lat="47.963158" lon="11.309491">
<ele>589.629</ele>
<time>2022-05-26T12:02:41Z</time>
</trkpt>
<trkpt lat="47.963177" lon="11.30947">
<ele>589.882</ele>
<time>2022-05-26T12:02:42Z</time>
</trkpt>
<trkpt lat="47.963188" lon="11.309443">
<ele>590.464</ele>
<time>2022-05-26T12:02:43Z</time>
</trkpt>
<trkpt lat="47.963203" lon="11.309422">
<ele>590.909</ele>
<time>2022-05-26T12:02:44Z</time>
</trkpt>
<trkpt lat="47.963223" lon="11.30939">
<ele>591.222</ele>
<time>2022-05-26T12:02:45Z</time>
</trkpt>
<trkpt lat="47.963234" lon="11.309357">
<ele>591.8</ele>
<time>2022-05-26T12:02:46Z</time>
</trkpt>
<trkpt lat="47.963245" lon="11.309319">
<ele>592.073</ele>
<time>2022-05-26T12:02:47Z</time>
</trkpt>
<trkpt lat="47.963249" lon="11.309278">
<ele>592.633</ele>
<time>2022-05-26T12:02:48Z</time>
</trkpt>
<trkpt lat="47.963253" lon="11.309242">
<ele>593.095</ele>
<time>2022-05-26T12:02:49Z</time>
</trkpt>
<trkpt lat="47.963257" lon="11.309211">
<ele>593.375</ele>
<time>2022-05-26T12:02:50Z</time>
</trkpt>
<trkpt lat="47.963268" lon="11.309179">
<ele>593.873</ele>
<time>2022-05-26T12:02:51Z</time>
</trkpt>
<trkpt lat="47.96328" lon="11.30915">
<ele>594.264</ele>
<time>2022-05-26T12:02:52Z</time>
</trkpt>
<trkpt lat="47.963287" lon="11.309118">
<ele>594.485</ele>
<time>2022-05-26T12:02:53Z</time>
</trkpt>
<trkpt lat="47.963291" lon="11.309085">
<ele>594.932</ele>
<time>2022-05-26T12:02:54Z</time>
</trkpt>
<trkpt lat="47.963291" lon="11.309053">
<ele>595.273</ele>
<time>2022-05-26T12:02:55Z</time>
</trkpt>
<trkpt lat="47.963295" lon="11.309025">
<ele>595.555</ele>
<time>2022-05-26T12:02:56Z</time>
</trkpt>
<trkpt lat="47.963299" lon="11.308991">
<ele>595.724</ele>
<time>2022-05-26T12:02:57Z</time>
</trkpt>
<trkpt lat="47.963291" lon="11.308957">
<ele>595.839</ele>
<time>2022-05-26T12:02:58Z</time>
</trkpt>
<trkpt lat="47.963287" lon="11.308926">
<ele>595.921</ele>
<time>2022-05-26T12:02:59Z</time>
</trkpt>
<trkpt lat="47.96328" lon="11.308892">
<ele>595.975</ele>
<time>2022-05-26T12:03:00Z</time>
</trkpt>
<trkpt lat="47.963264" lon="11.308862">
<ele>596</ele>
<time>2022-05-26T12:03:01Z</time>
</trkpt>
<trkpt lat="47.963257" lon="11.308828">
<ele>596</ele>
<time>2022-05-26T12:03:02Z</time>
</trkpt>
<trkpt lat="47.963245" lon="11.308795">
<ele>596.246</ele>
<time>2022-05-26T12:03:03Z</time>
</trkpt>
<trkpt lat="47.963223" lon="11.308768">
<ele>596.436</ele>
<time>2022-05-26T12:03:04Z</time>
</trkpt>
<trkpt lat="47.963207" lon="11.308743">
<ele>596.572</ele>
<time>2022-05-26T12:03:05Z</time>
</trkpt>
<trkpt lat="47.963188" lon="11.308702">
<ele>596.676</ele>
<time>2022-05-26T12:03:06Z</time>
</trkpt>
<trkpt lat="47.963181" lon="11.308654">
<ele>596.759</ele>
<time>2022-05-26T12:03:07Z</time>
</trkpt>
<trkpt lat="47.963165" lon="11.308614">
<ele>596.809</ele>
<time>2022-05-26T12:03:08Z</time>
</trkpt>
<trkpt lat="47.963158" lon="11.308583">
<ele>596.855</ele>
<time>2022-05-26T12:03:09Z</time>
</trkpt>
<trkpt lat="47.963146" lon="11.308557">
<ele>596.867</ele>
<time>2022-05-26T12:03:10Z</time>
</trkpt>
<trkpt lat="47.963139" lon="11.308528">
<ele>596.608</ele>
<time>2022-05-26T12:03:11Z</time>
</trkpt>
<trkpt lat="47.963123" lon="11.3085">
<ele>596.4</ele>
<time>2022-05-26T12:03:12Z</time>
</trkpt>
<trkpt lat="47.963112" lon="11.308485">
<ele>596.242</ele>
<time>2022-05-26T12:03:13Z</time>
</trkpt>
<trkpt lat="47.963089" lon="11.308458">
<ele>596.13</ele>
<time>2022-05-26T12:03:14Z</time>
</trkpt>
<trkpt lat="47.963062" lon="11.308432">
<ele>596.037</ele>
<time>2022-05-26T12:03:15Z</time>
</trkpt>
<trkpt lat="47.963047" lon="11.308404">
<ele>595.972</ele>
<time>2022-05-26T12:03:16Z</time>
</trkpt>
<trkpt lat="47.963028" lon="11.308385">
<ele>595.934</ele>
<time>2022-05-26T12:03:17Z</time>
</trkpt>
<trkpt lat="47.963013" lon="11.30836">
<ele>595.913</ele>
<time>2022-05-26T12:03:18Z</time>
</trkpt>
<trkpt lat="47.962994" lon="11.308337">
<ele>595.913</ele>
<time>2022-05-26T12:03:19Z</time>
</trkpt>
<trkpt lat="47.962971" lon="11.308297">
<ele>595.913</ele>
<time>2022-05-26T12:03:20Z</time>
</trkpt>
<trkpt lat="47.962948" lon="11.30823">
<ele>595.578</ele>
<time>2022-05-26T12:03:21Z</time>
</trkpt>
<trkpt lat="47.962929" lon="11.308205">
<ele>595.395</ele>
<time>2022-05-26T12:03:22Z</time>
</trkpt>
<trkpt lat="47.962898" lon="11.308192">
<ele>594.898</ele>
<time>2022-05-26T12:03:23Z</time>
</trkpt>
<trkpt lat="47.962864" lon="11.308155">
<ele>594.567</ele>
<time>2022-05-26T12:03:24Z</time>
</trkpt>
<trkpt lat="47.962837" lon="11.308127">
<ele>594.009</ele>
<time>2022-05-26T12:03:25Z</time>
</trkpt>
<trkpt lat="47.962803" lon="11.308111">
<ele>593.634</ele>
<time>2022-05-26T12:03:26Z</time>
</trkpt>
<trkpt lat="47.962772" lon="11.308099">
<ele>593.378</ele>
<time>2022-05-26T12:03:27Z</time>
</trkpt>
<trkpt lat="47.962738" lon="11.308086">
<ele>593.221</ele>
<time>2022-05-26T12:03:28Z</time>
</trkpt>
<trkpt lat="47.962708" lon="11.308068">
<ele>593.054</ele>
<time>2022-05-26T12:03:29Z</time>
</trkpt>
<trkpt lat="47.962673" lon="11.308045">
<ele>592.911</ele>
<time>2022-05-26T12:03:30Z</time>
</trkpt>
<trkpt lat="47.962639" lon="11.308025">
<ele>592.868</ele>
<time>2022-05-26T12:03:31Z</time>
</trkpt>
<trkpt lat="47.962601" lon="11.307992">
<ele>592.846</ele>
<time>2022-05-26T12:03:32Z</time>
</trkpt>
<trkpt lat="47.962563" lon="11.307959">
<ele>592.846</ele>
<time>2022-05-26T12:03:33Z</time>
</trkpt>
<trkpt lat="47.962524" lon="11.307948">
<ele>592.846</ele>
<time>2022-05-26T12:03:34Z</time>
</trkpt>
<trkpt lat="47.962479" lon="11.307939">
<ele>592.61</ele>
<time>2022-05-26T12:03:35Z</time>
</trkpt>
<trkpt lat="47.962429" lon="11.307915">
<ele>592.428</ele>
<time>2022-05-26T12:03:36Z</time>
</trkpt>
<trkpt lat="47.962383" lon="11.307895">
<ele>592.287</ele>
<time>2022-05-26T12:03:37Z</time>
</trkpt>
<trkpt lat="47.962341" lon="11.307866">
<ele>592.202</ele>
<time>2022-05-26T12:03:38Z</time>
</trkpt>
<trkpt lat="47.962299" lon="11.307841">
<ele>592.11</ele>
<time>2022-05-26T12:03:39Z</time>
</trkpt>
<trkpt lat="47.962273" lon="11.307823">
<ele>591.811</ele>
<time>2022-05-26T12:03:40Z</time>
</trkpt>
<trkpt lat="47.962246" lon="11.307812">
<ele>591.592</ele>
<time>2022-05-26T12:03:41Z</time>
</trkpt>
<trkpt lat="47.962223" lon="11.307796">
<ele>591.137</ele>
<time>2022-05-26T12:03:42Z</time>
</trkpt>
<trkpt lat="47.962208" lon="11.307775">
<ele>590.65</ele>
<time>2022-05-26T12:03:43Z</time>
</trkpt>
<trkpt lat="47.962189" lon="11.30776">
<ele>590.372</ele>
<time>2022-05-26T12:03:44Z</time>
</trkpt>
<trkpt lat="47.962173" lon="11.307747">
<ele>590.143</ele>
<time>2022-05-26T12:03:45Z</time>
</trkpt>
<trkpt lat="47.962154" lon="11.307734">
<ele>589.986</ele>
<time>2022-05-26T12:03:46Z</time>
</trkpt>
<trkpt lat="47.962135" lon="11.307719">
<ele>589.919</ele>
<time>2022-05-26T12:03:47Z</time>
</trkpt>
<trkpt lat="47.962116" lon="11.307711">
<ele>589.606</ele>
<time>2022-05-26T12:03:48Z</time>
</trkpt>
<trkpt lat="47.962109" lon="11.307703">
<ele>589.348</ele>
<time>2022-05-26T12:03:49Z</time>
</trkpt>
<trkpt lat="47.962097" lon="11.307687">
<ele>589.171</ele>
<time>2022-05-26T12:03:50Z</time>
</trkpt>
<trkpt lat="47.962074" lon="11.30765">
<ele>589.015</ele>
<time>2022-05-26T12:03:51Z</time>
</trkpt>
<trkpt lat="47.962051" lon="11.307607">
<ele>588.882</ele>
<time>2022-05-26T12:03:52Z</time>
</trkpt>
<trkpt lat="47.962032" lon="11.307572">
<ele>588.802</ele>
<time>2022-05-26T12:03:53Z</time>
</trkpt>
<trkpt lat="47.962013" lon="11.30753">
<ele>588.75</ele>
<time>2022-05-26T12:03:54Z</time>
</trkpt>
<trkpt lat="47.961998" lon="11.30749">
<ele>588.729</ele>
<time>2022-05-26T12:03:55Z</time>
</trkpt>
<trkpt lat="47.961987" lon="11.307453">
<ele>588.729</ele>
<time>2022-05-26T12:03:56Z</time>
</trkpt>
<trkpt lat="47.961979" lon="11.307417">
<ele>588.729</ele>
<time>2022-05-26T12:03:57Z</time>
</trkpt>
<trkpt lat="47.961967" lon="11.307378">
<ele>588.729</ele>
<time>2022-05-26T12:03:58Z</time>
</trkpt>
<trkpt lat="47.961956" lon="11.30735">
<ele>588.729</ele>
<time>2022-05-26T12:03:59Z</time>
</trkpt>
<trkpt lat="47.961956" lon="11.307322">
<ele>588.729</ele>
<time>2022-05-26T12:04:00Z</time>
</trkpt>
<trkpt lat="47.961956" lon="11.307281">
<ele>588.729</ele>
<time>2022-05-26T12:04:01Z</time>
</trkpt>
<trkpt lat="47.96196" lon="11.307255">
<ele>588.729</ele>
<time>2022-05-26T12:04:02Z</time>
</trkpt>
<trkpt lat="47.961964" lon="11.307228">
<ele>588.729</ele>
<time>2022-05-26T12:04:03Z</time>
</trkpt>
<trkpt lat="47.961967" lon="11.307195">
<ele>588.729</ele>
<time>2022-05-26T12:04:04Z</time>
</trkpt>
<trkpt lat="47.961975" lon="11.307159">
<ele>588.729</ele>
<time>2022-05-26T12:04:05Z</time>
</trkpt>
<trkpt lat="47.961971" lon="11.307118">
<ele>588.729</ele>
<time>2022-05-26T12:04:06Z</time>
</trkpt>
<trkpt lat="47.96196" lon="11.307074">
<ele>588.729</ele>
<time>2022-05-26T12:04:07Z</time>
</trkpt>
<trkpt lat="47.961941" lon="11.307028">
<ele>588.729</ele>
<time>2022-05-26T12:04:08Z</time>
</trkpt>
<trkpt lat="47.961922" lon="11.306996">
<ele>588.729</ele>
<time>2022-05-26T12:04:09Z</time>
</trkpt>
<trkpt lat="47.961895" lon="11.306982">
<ele>588.729</ele>
<time>2022-05-26T12:04:10Z</time>
</trkpt>
<trkpt lat="47.961864" lon="11.306977">
<ele>588.729</ele>
<time>2022-05-26T12:04:11Z</time>
</trkpt>
<trkpt lat="47.961845" lon="11.306992">
<ele>588.729</ele>
<time>2022-05-26T12:04:12Z</time>
</trkpt>
<trkpt lat="47.961826" lon="11.307018">
<ele>588.729</ele>
<time>2022-05-26T12:04:13Z</time>
</trkpt>
<trkpt lat="47.961811" lon="11.307045">
<ele>588.729</ele>
<time>2022-05-26T12:04:14Z</time>
</trkpt>
<trkpt lat="47.9618" lon="11.307072">
<ele>588.729</ele>
<time>2022-05-26T12:04:15Z</time>
</trkpt>
<trkpt lat="47.961796" lon="11.307105">
<ele>588.729</ele>
<time>2022-05-26T12:04:16Z</time>
</trkpt>
<trkpt lat="47.961796" lon="11.307128">
<ele>588.729</ele>
<time>2022-05-26T12:04:17Z</time>
</trkpt>
<trkpt lat="47.961796" lon="11.307147">
<ele>588.729</ele>
<time>2022-05-26T12:04:18Z</time>
</trkpt>
<trkpt lat="47.961796" lon="11.307158">
<ele>588.729</ele>
<time>2022-05-26T12:04:19Z</time>
</trkpt>
<trkpt lat="47.961796" lon="11.307159">
<ele>588.729</ele>
<time>2022-05-26T12:04:20Z</time>
</trkpt>
<trkpt lat="47.961796" lon="11.30717">
<ele>588.729</ele>
<time>2022-05-26T12:04:21Z</time>
</trkpt>
<trkpt lat="47.961788" lon="11.307205">
<ele>588.352</ele>
<time>2022-05-26T12:04:40Z</time>
</trkpt>
<trkpt lat="47.961792" lon="11.307223">
<ele>588.161</ele>
<time>2022-05-26T12:04:41Z</time>
</trkpt>
<trkpt lat="47.9618" lon="11.307245">
<ele>588.003</ele>
<time>2022-05-26T12:04:42Z</time>
</trkpt>
<trkpt lat="47.961815" lon="11.307268">
<ele>587.865</ele>
<time>2022-05-26T12:04:43Z</time>
</trkpt>
<trkpt lat="47.96183" lon="11.307285">
<ele>587.809</ele>
<time>2022-05-26T12:04:44Z</time>
</trkpt>
<trkpt lat="47.961853" lon="11.307306">
<ele>587.783</ele>
<time>2022-05-26T12:04:45Z</time>
</trkpt>
<trkpt lat="47.961868" lon="11.307323">
<ele>588.035</ele>
<time>2022-05-26T12:04:46Z</time>
</trkpt>
<trkpt lat="47.961887" lon="11.307342">
<ele>588.063</ele>
<time>2022-05-26T12:04:47Z</time>
</trkpt>
<trkpt lat="47.96191" lon="11.307361">
<ele>588.205</ele>
<time>2022-05-26T12:04:48Z</time>
</trkpt>
<trkpt lat="47.961929" lon="11.307377">
<ele>588.696</ele>
<time>2022-05-26T12:04:49Z</time>
</trkpt>
<trkpt lat="47.961952" lon="11.307395">
<ele>589.01</ele>
<time>2022-05-26T12:04:50Z</time>
</trkpt>
<trkpt lat="47.961971" lon="11.307413">
<ele>589.225</ele>
<time>2022-05-26T12:04:51Z</time>
</trkpt>
<trkpt lat="47.961994" lon="11.30743">
<ele>589.394</ele>
<time>2022-05-26T12:04:52Z</time>
</trkpt>
<trkpt lat="47.962013" lon="11.307445">
<ele>589.494</ele>
<time>2022-05-26T12:04:53Z</time>
</trkpt>
<trkpt lat="47.962032" lon="11.307464">
<ele>589.82</ele>
<time>2022-05-26T12:04:54Z</time>
</trkpt>
<trkpt lat="47.962051" lon="11.307487">
<ele>590.064</ele>
<time>2022-05-26T12:04:55Z</time>
</trkpt>
<trkpt lat="47.962078" lon="11.307506">
<ele>590.528</ele>
<time>2022-05-26T12:04:56Z</time>
</trkpt>
<trkpt lat="47.962101" lon="11.307522">
<ele>590.885</ele>
<time>2022-05-26T12:04:57Z</time>
</trkpt>
<trkpt lat="47.962124" lon="11.307533">
<ele>591.165</ele>
<time>2022-05-26T12:04:58Z</time>
</trkpt>
<trkpt lat="47.962147" lon="11.307549">
<ele>591.342</ele>
<time>2022-05-26T12:04:59Z</time>
</trkpt>
<trkpt lat="47.962177" lon="11.307558">
<ele>591.76</ele>
<time>2022-05-26T12:05:00Z</time>
</trkpt>
<trkpt lat="47.962208" lon="11.307567">
<ele>592.083</ele>
<time>2022-05-26T12:05:01Z</time>
</trkpt>
<trkpt lat="47.962234" lon="11.307572">
<ele>592.278</ele>
<time>2022-05-26T12:05:02Z</time>
</trkpt>
<trkpt lat="47.962276" lon="11.307572">
<ele>592.643</ele>
<time>2022-05-26T12:05:03Z</time>
</trkpt>
<trkpt lat="47.962311" lon="11.30757">
<ele>592.895</ele>
<time>2022-05-26T12:05:04Z</time>
</trkpt>
<trkpt lat="47.962341" lon="11.307562">
<ele>593.127</ele>
<time>2022-05-26T12:05:05Z</time>
</trkpt>
<trkpt lat="47.962379" lon="11.307558">
<ele>593.56</ele>
<time>2022-05-26T12:05:06Z</time>
</trkpt>
<trkpt lat="47.962418" lon="11.307551">
<ele>593.873</ele>
<time>2022-05-26T12:05:07Z</time>
</trkpt>
<trkpt lat="47.962452" lon="11.307541">
<ele>594.101</ele>
<time>2022-05-26T12:05:08Z</time>
</trkpt>
<trkpt lat="47.962482" lon="11.307524">
<ele>594.237</ele>
<time>2022-05-26T12:05:09Z</time>
</trkpt>
<trkpt lat="47.962505" lon="11.307509">
<ele>594.593</ele>
<time>2022-05-26T12:05:10Z</time>
</trkpt>
<trkpt lat="47.962536" lon="11.307491">
<ele>594.916</ele>
<time>2022-05-26T12:05:11Z</time>
</trkpt>
<trkpt lat="47.962566" lon="11.307472">
<ele>595.098</ele>
<time>2022-05-26T12:05:12Z</time>
</trkpt>
<trkpt lat="47.962593" lon="11.307445">
<ele>595.223</ele>
<time>2022-05-26T12:05:13Z</time>
</trkpt>
<trkpt lat="47.962616" lon="11.307413">
<ele>595.297</ele>
<time>2022-05-26T12:05:14Z</time>
</trkpt>
<trkpt lat="47.962639" lon="11.307375">
<ele>595.387</ele>
<time>2022-05-26T12:05:15Z</time>
</trkpt>
<trkpt lat="47.962669" lon="11.307337">
<ele>595.447</ele>
<time>2022-05-26T12:05:16Z</time>
</trkpt>
<trkpt lat="47.9627" lon="11.307298">
<ele>595.475</ele>
<time>2022-05-26T12:05:17Z</time>
</trkpt>
<trkpt lat="47.962723" lon="11.307255">
<ele>595.475</ele>
<time>2022-05-26T12:05:18Z</time>
</trkpt>
<trkpt lat="47.962749" lon="11.307208">
<ele>595.475</ele>
<time>2022-05-26T12:05:19Z</time>
</trkpt>
<trkpt lat="47.962769" lon="11.307158">
<ele>595.741</ele>
<time>2022-05-26T12:05:20Z</time>
</trkpt>
<trkpt lat="47.962788" lon="11.307105">
<ele>595.946</ele>
<time>2022-05-26T12:05:21Z</time>
</trkpt>
<trkpt lat="47.962803" lon="11.307051">
<ele>596.096</ele>
<time>2022-05-26T12:05:22Z</time>
</trkpt>
<trkpt lat="47.962822" lon="11.306992">
<ele>596.204</ele>
<time>2022-05-26T12:05:23Z</time>
</trkpt>
<trkpt lat="47.962837" lon="11.306931">
<ele>596.282</ele>
<time>2022-05-26T12:05:24Z</time>
</trkpt>
<trkpt lat="47.962852" lon="11.306875">
<ele>596.362</ele>
<time>2022-05-26T12:05:25Z</time>
</trkpt>
<trkpt lat="47.962868" lon="11.306816">
<ele>596.414</ele>
<time>2022-05-26T12:05:26Z</time>
</trkpt>
<trkpt lat="47.962887" lon="11.30676">
<ele>596.438</ele>
<time>2022-05-26T12:05:27Z</time>
</trkpt>
<trkpt lat="47.962902" lon="11.306706">
<ele>596.687</ele>
<time>2022-05-26T12:05:28Z</time>
</trkpt>
<trkpt lat="47.962925" lon="11.306659">
<ele>596.877</ele>
<time>2022-05-26T12:05:29Z</time>
</trkpt>
<trkpt lat="47.96294" lon="11.306613">
<ele>596.991</ele>
<time>2022-05-26T12:05:30Z</time>
</trkpt>
<trkpt lat="47.962955" lon="11.306565">
<ele>597.364</ele>
<time>2022-05-26T12:05:31Z</time>
</trkpt>
<trkpt lat="47.962967" lon="11.306517">
<ele>597.658</ele>
<time>2022-05-26T12:05:32Z</time>
</trkpt>
<trkpt lat="47.962982" lon="11.306468">
<ele>597.874</ele>
<time>2022-05-26T12:05:33Z</time>
</trkpt>
<trkpt lat="47.962997" lon="11.306422">
<ele>598.033</ele>
<time>2022-05-26T12:05:34Z</time>
</trkpt>
<trkpt lat="47.96302" lon="11.306375">
<ele>598.435</ele>
<time>2022-05-26T12:05:35Z</time>
</trkpt>
<trkpt lat="47.963036" lon="11.306328">
<ele>598.744</ele>
<time>2022-05-26T12:05:36Z</time>
</trkpt>
<trkpt lat="47.963058" lon="11.30628">
<ele>598.948</ele>
<time>2022-05-26T12:05:37Z</time>
</trkpt>
<trkpt lat="47.963078" lon="11.306235">
<ele>599.375</ele>
<time>2022-05-26T12:05:38Z</time>
</trkpt>
<trkpt lat="47.963097" lon="11.306191">
<ele>599.692</ele>
<time>2022-05-26T12:05:39Z</time>
</trkpt>
<trkpt lat="47.96312" lon="11.306149">
<ele>599.937</ele>
<time>2022-05-26T12:05:40Z</time>
</trkpt>
<trkpt lat="47.963142" lon="11.306107">
<ele>600.088</ele>
<time>2022-05-26T12:05:41Z</time>
</trkpt>
<trkpt lat="47.963165" lon="11.306067">
<ele>600.442</ele>
<time>2022-05-26T12:05:42Z</time>
</trkpt>
<trkpt lat="47.963188" lon="11.306028">
<ele>600.698</ele>
<time>2022-05-26T12:05:43Z</time>
</trkpt>
<trkpt lat="47.963215" lon="11.305991">
<ele>600.866</ele>
<time>2022-05-26T12:05:44Z</time>
</trkpt>
<trkpt lat="47.963242" lon="11.305957">
<ele>601.25</ele>
<time>2022-05-26T12:05:45Z</time>
</trkpt>
<trkpt lat="47.963264" lon="11.305925">
<ele>601.546</ele>
<time>2022-05-26T12:05:46Z</time>
</trkpt>
<trkpt lat="47.963295" lon="11.305897">
<ele>601.746</ele>
<time>2022-05-26T12:05:47Z</time>
</trkpt>
<trkpt lat="47.963322" lon="11.30587">
<ele>602.164</ele>
<time>2022-05-26T12:05:48Z</time>
</trkpt>
<trkpt lat="47.963348" lon="11.305848">
<ele>602.457</ele>
<time>2022-05-26T12:05:49Z</time>
</trkpt>
<trkpt lat="47.963371" lon="11.305829">
<ele>602.993</ele>
<time>2022-05-26T12:05:50Z</time>
</trkpt>
<trkpt lat="47.963398" lon="11.30581">
<ele>603.431</ele>
<time>2022-05-26T12:05:51Z</time>
</trkpt>
<trkpt lat="47.963421" lon="11.305787">
<ele>603.726</ele>
<time>2022-05-26T12:05:52Z</time>
</trkpt>
<trkpt lat="47.963451" lon="11.305763">
<ele>604.217</ele>
<time>2022-05-26T12:05:53Z</time>
</trkpt>
<trkpt lat="47.963482" lon="11.305743">
<ele>604.567</ele>
<time>2022-05-26T12:05:54Z</time>
</trkpt>
<trkpt lat="47.963505" lon="11.305723">
<ele>604.861</ele>
<time>2022-05-26T12:05:55Z</time>
</trkpt>
<trkpt lat="47.963531" lon="11.305697">
<ele>605.325</ele>
<time>2022-05-26T12:05:56Z</time>
</trkpt>
<trkpt lat="47.963558" lon="11.305674">
<ele>605.669</ele>
<time>2022-05-26T12:05:57Z</time>
</trkpt>
<trkpt lat="47.963593" lon="11.305655">
<ele>605.914</ele>
<time>2022-05-26T12:05:58Z</time>
</trkpt>
<trkpt lat="47.963623" lon="11.30564">
<ele>606.058</ele>
<time>2022-05-26T12:05:59Z</time>
</trkpt>
<trkpt lat="47.963654" lon="11.305622">
<ele>606.45</ele>
<time>2022-05-26T12:06:00Z</time>
</trkpt>
<trkpt lat="47.963688" lon="11.305601">
<ele>606.824</ele>
<time>2022-05-26T12:06:01Z</time>
</trkpt>
<trkpt lat="47.963726" lon="11.305589">
<ele>606.974</ele>
<time>2022-05-26T12:06:02Z</time>
</trkpt>
<trkpt lat="47.963757" lon="11.305573">
<ele>607.348</ele>
<time>2022-05-26T12:06:03Z</time>
</trkpt>
<trkpt lat="47.963795" lon="11.305563">
<ele>607.6</ele>
<time>2022-05-26T12:06:04Z</time>
</trkpt>
<trkpt lat="47.963829" lon="11.305549">
<ele>607.845</ele>
<time>2022-05-26T12:06:05Z</time>
</trkpt>
<trkpt lat="47.963867" lon="11.305532">
<ele>608.023</ele>
<time>2022-05-26T12:06:06Z</time>
</trkpt>
<trkpt lat="47.963902" lon="11.30552">
<ele>608.149</ele>
<time>2022-05-26T12:06:07Z</time>
</trkpt>
<trkpt lat="47.96394" lon="11.305511">
<ele>608.213</ele>
<time>2022-05-26T12:06:08Z</time>
</trkpt>
<trkpt lat="47.963978" lon="11.305503">
<ele>608.252</ele>
<time>2022-05-26T12:06:09Z</time>
</trkpt>
<trkpt lat="47.964016" lon="11.305496">
<ele>608.514</ele>
<time>2022-05-26T12:06:10Z</time>
</trkpt>
<trkpt lat="47.964043" lon="11.305493">
<ele>608.731</ele>
<time>2022-05-26T12:06:11Z</time>
</trkpt>
<trkpt lat="47.964073" lon="11.305478">
<ele>608.884</ele>
<time>2022-05-26T12:06:12Z</time>
</trkpt>
<trkpt lat="47.964115" lon="11.305463">
<ele>608.997</ele>
<time>2022-05-26T12:06:13Z</time>
</trkpt>
<trkpt lat="47.964149" lon="11.305449">
<ele>609.077</ele>
<time>2022-05-26T12:06:14Z</time>
</trkpt>
<trkpt lat="47.964176" lon="11.305437">
<ele>609.16</ele>
<time>2022-05-26T12:06:15Z</time>
</trkpt>
<trkpt lat="47.964211" lon="11.30542">
<ele>609.214</ele>
<time>2022-05-26T12:06:16Z</time>
</trkpt>
<trkpt lat="47.964241" lon="11.3054">
<ele>609.241</ele>
<time>2022-05-26T12:06:17Z</time>
</trkpt>
<trkpt lat="47.964279" lon="11.305385">
<ele>609.241</ele>
<time>2022-05-26T12:06:18Z</time>
</trkpt>
<trkpt lat="47.964314" lon="11.305367">
<ele>609.241</ele>
<time>2022-05-26T12:06:19Z</time>
</trkpt>
<trkpt lat="47.964359" lon="11.305344">
<ele>609.241</ele>
<time>2022-05-26T12:06:20Z</time>
</trkpt>
<trkpt lat="47.964394" lon="11.30532">
<ele>609.241</ele>
<time>2022-05-26T12:06:21Z</time>
</trkpt>
<trkpt lat="47.964428" lon="11.305299">
<ele>609.241</ele>
<time>2022-05-26T12:06:22Z</time>
</trkpt>
<trkpt lat="47.964462" lon="11.30528">
<ele>609.241</ele>
<time>2022-05-26T12:06:23Z</time>
</trkpt>
<trkpt lat="47.964512" lon="11.305248">
<ele>609.241</ele>
<time>2022-05-26T12:06:24Z</time>
</trkpt>
<trkpt lat="47.96455" lon="11.30523">
<ele>609.488</ele>
<time>2022-05-26T12:06:25Z</time>
</trkpt>
<trkpt lat="47.964592" lon="11.305203">
<ele>609.687</ele>
<time>2022-05-26T12:06:26Z</time>
</trkpt>
<trkpt lat="47.964634" lon="11.305177">
<ele>609.848</ele>
<time>2022-05-26T12:06:27Z</time>
</trkpt>
<trkpt lat="47.964684" lon="11.305144">
<ele>609.976</ele>
<time>2022-05-26T12:06:28Z</time>
</trkpt>
<trkpt lat="47.964737" lon="11.305111">
<ele>610.084</ele>
<time>2022-05-26T12:06:29Z</time>
</trkpt>
<trkpt lat="47.964787" lon="11.305081">
<ele>610.15</ele>
<time>2022-05-26T12:06:30Z</time>
</trkpt>
<trkpt lat="47.964832" lon="11.305052">
<ele>610.189</ele>
<time>2022-05-26T12:06:31Z</time>
</trkpt>
<trkpt lat="47.964878" lon="11.305021">
<ele>610.207</ele>
<time>2022-05-26T12:06:32Z</time>
</trkpt>
<trkpt lat="47.964912" lon="11.304997">
<ele>610.206</ele>
<time>2022-05-26T12:06:33Z</time>
</trkpt>
<trkpt lat="47.964947" lon="11.30497">
<ele>610.207</ele>
<time>2022-05-26T12:06:34Z</time>
</trkpt>
<trkpt lat="47.964985" lon="11.30494">
<ele>610.409</ele>
<time>2022-05-26T12:06:35Z</time>
</trkpt>
<trkpt lat="47.965027" lon="11.30492">
<ele>610.578</ele>
<time>2022-05-26T12:06:36Z</time>
</trkpt>
<trkpt lat="47.965076" lon="11.304907">
<ele>610.723</ele>
<time>2022-05-26T12:06:37Z</time>
</trkpt>
<trkpt lat="47.965115" lon="11.304889">
<ele>610.824</ele>
<time>2022-05-26T12:06:38Z</time>
</trkpt>
<trkpt lat="47.965164" lon="11.304872">
<ele>611.165</ele>
<time>2022-05-26T12:06:39Z</time>
</trkpt>
<trkpt lat="47.96521" lon="11.304853">
<ele>611.414</ele>
<time>2022-05-26T12:06:40Z</time>
</trkpt>
<trkpt lat="47.965252" lon="11.30484">
<ele>611.94</ele>
<time>2022-05-26T12:06:41Z</time>
</trkpt>
<trkpt lat="47.96529" lon="11.304826">
<ele>612.32</ele>
<time>2022-05-26T12:06:42Z</time>
</trkpt>
<trkpt lat="47.965328" lon="11.304807">
<ele>612.603</ele>
<time>2022-05-26T12:06:43Z</time>
</trkpt>
<trkpt lat="47.965366" lon="11.30478">
<ele>612.79</ele>
<time>2022-05-26T12:06:44Z</time>
</trkpt>
<trkpt lat="47.965408" lon="11.30476">
<ele>613.204</ele>
<time>2022-05-26T12:06:45Z</time>
</trkpt>
<trkpt lat="47.96545" lon="11.30474">
<ele>613.525</ele>
<time>2022-05-26T12:06:46Z</time>
</trkpt>
<trkpt lat="47.965492" lon="11.304722">
<ele>613.744</ele>
<time>2022-05-26T12:06:47Z</time>
</trkpt>
<trkpt lat="47.965538" lon="11.3047">
<ele>613.91</ele>
<time>2022-05-26T12:06:48Z</time>
</trkpt>
<trkpt lat="47.965588" lon="11.304686">
<ele>614.023</ele>
<time>2022-05-26T12:06:49Z</time>
</trkpt>
<trkpt lat="47.965633" lon="11.304677">
<ele>614.093</ele>
<time>2022-05-26T12:06:50Z</time>
</trkpt>
<trkpt lat="47.965683" lon="11.304658">
<ele>614.136</ele>
<time>2022-05-26T12:06:51Z</time>
</trkpt>
<trkpt lat="47.965721" lon="11.30464">
<ele>614.156</ele>
<time>2022-05-26T12:06:52Z</time>
</trkpt>
<trkpt lat="47.965767" lon="11.304618">
<ele>614.393</ele>
<time>2022-05-26T12:06:53Z</time>
</trkpt>
<trkpt lat="47.965809" lon="11.304585">
<ele>614.561</ele>
<time>2022-05-26T12:06:54Z</time>
</trkpt>
<trkpt lat="47.965839" lon="11.304539">
<ele>614.731</ele>
<time>2022-05-26T12:06:55Z</time>
</trkpt>
<trkpt lat="47.965881" lon="11.304515">
<ele>614.863</ele>
<time>2022-05-26T12:06:56Z</time>
</trkpt>
<trkpt lat="47.965916" lon="11.30448">
<ele>614.964</ele>
<time>2022-05-26T12:06:57Z</time>
</trkpt>
<trkpt lat="47.965958" lon="11.304439">
<ele>615.038</ele>
<time>2022-05-26T12:06:58Z</time>
</trkpt>
<trkpt lat="47.965992" lon="11.304395">
<ele>615.329</ele>
<time>2022-05-26T12:06:59Z</time>
</trkpt>
<trkpt lat="47.966042" lon="11.304355">
<ele>615.56</ele>
<time>2022-05-26T12:07:00Z</time>
</trkpt>
<trkpt lat="47.966084" lon="11.304321">
<ele>615.749</ele>
<time>2022-05-26T12:07:01Z</time>
</trkpt>
<trkpt lat="47.966114" lon="11.304292">
<ele>615.869</ele>
<time>2022-05-26T12:07:02Z</time>
</trkpt>
<trkpt lat="47.966137" lon="11.304256">
<ele>615.933</ele>
<time>2022-05-26T12:07:03Z</time>
</trkpt>
<trkpt lat="47.966164" lon="11.304216">
<ele>616.201</ele>
<time>2022-05-26T12:07:04Z</time>
</trkpt>
<trkpt lat="47.96619" lon="11.30417">
<ele>616.428</ele>
<time>2022-05-26T12:07:05Z</time>
</trkpt>
<trkpt lat="47.966221" lon="11.304131">
<ele>616.58</ele>
<time>2022-05-26T12:07:06Z</time>
</trkpt>
<trkpt lat="47.966255" lon="11.304087">
<ele>616.952</ele>
<time>2022-05-26T12:07:07Z</time>
</trkpt>
<trkpt lat="47.966286" lon="11.304045">
<ele>617.263</ele>
<time>2022-05-26T12:07:08Z</time>
</trkpt>
<trkpt lat="47.96632" lon="11.304007">
<ele>617.503</ele>
<time>2022-05-26T12:07:09Z</time>
</trkpt>
<trkpt lat="47.966343" lon="11.303967">
<ele>617.967</ele>
<time>2022-05-26T12:07:10Z</time>
</trkpt>
<trkpt lat="47.96637" lon="11.303926">
<ele>618.302</ele>
<time>2022-05-26T12:07:11Z</time>
</trkpt>
<trkpt lat="47.966396" lon="11.303888">
<ele>618.567</ele>
<time>2022-05-26T12:07:12Z</time>
</trkpt>
<trkpt lat="47.966423" lon="11.303852">
<ele>618.712</ele>
<time>2022-05-26T12:07:13Z</time>
</trkpt>
<trkpt lat="47.96645" lon="11.30381">
<ele>618.82</ele>
<time>2022-05-26T12:07:14Z</time>
</trkpt>
<trkpt lat="47.966473" lon="11.303774">
<ele>619.151</ele>
<time>2022-05-26T12:07:15Z</time>
</trkpt>
<trkpt lat="47.966492" lon="11.303741">
<ele>619.415</ele>
<time>2022-05-26T12:07:16Z</time>
</trkpt>
<trkpt lat="47.966515" lon="11.303705">
<ele>619.619</ele>
<time>2022-05-26T12:07:17Z</time>
</trkpt>
<trkpt lat="47.96653" lon="11.303669">
<ele>619.766</ele>
<time>2022-05-26T12:07:18Z</time>
</trkpt>
<trkpt lat="47.966545" lon="11.303634">
<ele>619.876</ele>
<time>2022-05-26T12:07:19Z</time>
</trkpt>
<trkpt lat="47.966557" lon="11.303598">
<ele>619.947</ele>
<time>2022-05-26T12:07:20Z</time>
</trkpt>
<trkpt lat="47.96656" lon="11.30356">
<ele>620.228</ele>
<time>2022-05-26T12:07:21Z</time>
</trkpt>
<trkpt lat="47.966549" lon="11.30352">
<ele>620.449</ele>
<time>2022-05-26T12:07:22Z</time>
</trkpt>
<trkpt lat="47.966541" lon="11.303481">
<ele>620.616</ele>
<time>2022-05-26T12:07:23Z</time>
</trkpt>
<trkpt lat="47.96653" lon="11.303445">
<ele>620.728</ele>
<time>2022-05-26T12:07:24Z</time>
</trkpt>
<trkpt lat="47.966515" lon="11.303408">
<ele>621.094</ele>
<time>2022-05-26T12:07:25Z</time>
</trkpt>
<trkpt lat="47.966499" lon="11.303367">
<ele>621.4</ele>
<time>2022-05-26T12:07:26Z</time>
</trkpt>
<trkpt lat="47.966484" lon="11.303329">
<ele>621.638</ele>
<time>2022-05-26T12:07:27Z</time>
</trkpt>
<trkpt lat="47.966469" lon="11.303287">
<ele>621.807</ele>
<time>2022-05-26T12:07:28Z</time>
</trkpt>
<trkpt lat="47.96645" lon="11.303242">
<ele>621.915</ele>
<time>2022-05-26T12:07:29Z</time>
</trkpt>
<trkpt lat="47.966431" lon="11.303196">
<ele>621.989</ele>
<time>2022-05-26T12:07:30Z</time>
</trkpt>
<trkpt lat="47.966415" lon="11.303162">
<ele>622.038</ele>
<time>2022-05-26T12:07:31Z</time>
</trkpt>
<trkpt lat="47.966396" lon="11.303128">
<ele>622.06</ele>
<time>2022-05-26T12:07:32Z</time>
</trkpt>
<trkpt lat="47.966385" lon="11.30309">
<ele>622.06</ele>
<time>2022-05-26T12:07:33Z</time>
</trkpt>
<trkpt lat="47.966358" lon="11.303051">
<ele>622.06</ele>
<time>2022-05-26T12:07:34Z</time>
</trkpt>
<trkpt lat="47.966339" lon="11.303014">
<ele>622.06</ele>
<time>2022-05-26T12:07:35Z</time>
</trkpt>
<trkpt lat="47.96632" lon="11.302979">
<ele>622.06</ele>
<time>2022-05-26T12:07:36Z</time>
</trkpt>
<trkpt lat="47.966305" lon="11.302942">
<ele>622.06</ele>
<time>2022-05-26T12:07:37Z</time>
</trkpt>
<trkpt lat="47.966286" lon="11.302911">
<ele>622.06</ele>
<time>2022-05-26T12:07:38Z</time>
</trkpt>
<trkpt lat="47.966267" lon="11.302885">
<ele>622.06</ele>
<time>2022-05-26T12:07:39Z</time>
</trkpt>
<trkpt lat="47.966248" lon="11.302855">
<ele>622.308</ele>
<time>2022-05-26T12:07:40Z</time>
</trkpt>
<trkpt lat="47.966228" lon="11.302823">
<ele>622.5</ele>
<time>2022-05-26T12:07:41Z</time>
</trkpt>
<trkpt lat="47.966213" lon="11.302795">
<ele>622.649</ele>
<time>2022-05-26T12:07:42Z</time>
</trkpt>
<trkpt lat="47.96619" lon="11.302767">
<ele>622.772</ele>
<time>2022-05-26T12:07:43Z</time>
</trkpt>
<trkpt lat="47.96616" lon="11.302738">
<ele>622.859</ele>
<time>2022-05-26T12:07:44Z</time>
</trkpt>
<trkpt lat="47.966141" lon="11.302711">
<ele>622.942</ele>
<time>2022-05-26T12:07:45Z</time>
</trkpt>
<trkpt lat="47.966118" lon="11.302685">
<ele>622.999</ele>
<time>2022-05-26T12:07:46Z</time>
</trkpt>
<trkpt lat="47.966091" lon="11.302653">
<ele>623.027</ele>
<time>2022-05-26T12:07:47Z</time>
</trkpt>
<trkpt lat="47.966061" lon="11.302617">
<ele>623.027</ele>
<time>2022-05-26T12:07:48Z</time>
</trkpt>
<trkpt lat="47.966034" lon="11.30258">
<ele>623.305</ele>
<time>2022-05-26T12:07:49Z</time>
</trkpt>
<trkpt lat="47.966003" lon="11.302548">
<ele>623.521</ele>
<time>2022-05-26T12:07:50Z</time>
</trkpt>
<trkpt lat="47.965977" lon="11.302517">
<ele>623.668</ele>
<time>2022-05-26T12:07:51Z</time>
</trkpt>
<trkpt lat="47.965954" lon="11.302482">
<ele>623.787</ele>
<time>2022-05-26T12:07:52Z</time>
</trkpt>
<trkpt lat="47.965927" lon="11.302435">
<ele>623.869</ele>
<time>2022-05-26T12:07:53Z</time>
</trkpt>
<trkpt lat="47.965893" lon="11.302382">
<ele>623.923</ele>
<time>2022-05-26T12:07:54Z</time>
</trkpt>
<trkpt lat="47.965858" lon="11.302337">
<ele>623.969</ele>
<time>2022-05-26T12:07:55Z</time>
</trkpt>
<trkpt lat="47.965816" lon="11.302305">
<ele>623.993</ele>
<time>2022-05-26T12:07:56Z</time>
</trkpt>
<trkpt lat="47.965778" lon="11.30227">
<ele>623.993</ele>
<time>2022-05-26T12:07:57Z</time>
</trkpt>
<trkpt lat="47.965736" lon="11.30224">
<ele>623.993</ele>
<time>2022-05-26T12:07:58Z</time>
</trkpt>
<trkpt lat="47.965702" lon="11.302205">
<ele>623.993</ele>
<time>2022-05-26T12:07:59Z</time>
</trkpt>
<trkpt lat="47.965672" lon="11.302165">
<ele>623.993</ele>
<time>2022-05-26T12:08:00Z</time>
</trkpt>
<trkpt lat="47.965649" lon="11.30212">
<ele>623.993</ele>
<time>2022-05-26T12:08:01Z</time>
</trkpt>
<trkpt lat="47.965622" lon="11.302072">
<ele>623.993</ele>
<time>2022-05-26T12:08:02Z</time>
</trkpt>
<trkpt lat="47.965599" lon="11.302018">
<ele>623.993</ele>
<time>2022-05-26T12:08:03Z</time>
</trkpt>
<trkpt lat="47.965569" lon="11.301967">
<ele>624.243</ele>
<time>2022-05-26T12:08:04Z</time>
</trkpt>
<trkpt lat="47.965553" lon="11.301908">
<ele>624.483</ele>
<time>2022-05-26T12:08:05Z</time>
</trkpt>
<trkpt lat="47.965542" lon="11.301855">
<ele>624.682</ele>
<time>2022-05-26T12:08:06Z</time>
</trkpt>
<trkpt lat="47.965542" lon="11.301808">
<ele>624.843</ele>
<time>2022-05-26T12:08:07Z</time>
</trkpt>
<trkpt lat="47.965553" lon="11.301764">
<ele>624.964</ele>
<time>2022-05-26T12:08:08Z</time>
</trkpt>
<trkpt lat="47.965565" lon="11.301719">
<ele>625.042</ele>
<time>2022-05-26T12:08:09Z</time>
</trkpt>
<trkpt lat="47.96558" lon="11.30168">
<ele>625.32</ele>
<time>2022-05-26T12:08:10Z</time>
</trkpt>
<trkpt lat="47.965599" lon="11.30164">
<ele>625.541</ele>
<time>2022-05-26T12:08:11Z</time>
</trkpt>
<trkpt lat="47.965614" lon="11.301599">
<ele>625.716</ele>
<time>2022-05-26T12:08:12Z</time>
</trkpt>
<trkpt lat="47.96563" lon="11.301549">
<ele>625.842</ele>
<time>2022-05-26T12:08:13Z</time>
</trkpt>
<trkpt lat="47.965633" lon="11.301493">
<ele>625.935</ele>
<time>2022-05-26T12:08:14Z</time>
</trkpt>
<trkpt lat="47.96563" lon="11.301436">
<ele>626.248</ele>
<time>2022-05-26T12:08:15Z</time>
</trkpt>
<trkpt lat="47.965618" lon="11.301378">
<ele>626.486</ele>
<time>2022-05-26T12:08:16Z</time>
</trkpt>
<trkpt lat="47.965603" lon="11.301316">
<ele>626.662</ele>
<time>2022-05-26T12:08:17Z</time>
</trkpt>
<trkpt lat="47.96558" lon="11.301258">
<ele>626.781</ele>
<time>2022-05-26T12:08:18Z</time>
</trkpt>
<trkpt lat="47.965561" lon="11.301206">
<ele>626.867</ele>
<time>2022-05-26T12:08:19Z</time>
</trkpt>
<trkpt lat="47.965542" lon="11.301153">
<ele>626.926</ele>
<time>2022-05-26T12:08:20Z</time>
</trkpt>
<trkpt lat="47.965527" lon="11.301099">
<ele>626.963</ele>
<time>2022-05-26T12:08:21Z</time>
</trkpt>
<trkpt lat="47.965511" lon="11.301044">
<ele>626.981</ele>
<time>2022-05-26T12:08:22Z</time>
</trkpt>
<trkpt lat="47.9655" lon="11.300988">
<ele>626.981</ele>
<time>2022-05-26T12:08:23Z</time>
</trkpt>
<trkpt lat="47.965488" lon="11.300931">
<ele>626.981</ele>
<time>2022-05-26T12:08:24Z</time>
</trkpt>
<trkpt lat="47.965473" lon="11.300879">
<ele>626.981</ele>
<time>2022-05-26T12:08:25Z</time>
</trkpt>
<trkpt lat="47.965454" lon="11.300828">
<ele>626.981</ele>
<time>2022-05-26T12:08:26Z</time>
</trkpt>
<trkpt lat="47.965435" lon="11.300778">
<ele>626.981</ele>
<time>2022-05-26T12:08:27Z</time>
</trkpt>
<trkpt lat="47.96542" lon="11.300732">
<ele>626.981</ele>
<time>2022-05-26T12:08:28Z</time>
</trkpt>
<trkpt lat="47.965408" lon="11.300685">
<ele>626.981</ele>
<time>2022-05-26T12:08:29Z</time>
</trkpt>
<trkpt lat="47.965405" lon="11.300645">
<ele>626.982</ele>
<time>2022-05-26T12:08:30Z</time>
</trkpt>
<trkpt lat="47.965397" lon="11.300602">
<ele>626.981</ele>
<time>2022-05-26T12:08:31Z</time>
</trkpt>
<trkpt lat="47.965385" lon="11.300553">
<ele>626.981</ele>
<time>2022-05-26T12:08:32Z</time>
</trkpt>
<trkpt lat="47.965389" lon="11.300506">
<ele>626.981</ele>
<time>2022-05-26T12:08:33Z</time>
</trkpt>
<trkpt lat="47.965405" lon="11.300472">
<ele>626.981</ele>
<time>2022-05-26T12:08:34Z</time>
</trkpt>
<trkpt lat="47.965427" lon="11.300449">
<ele>626.981</ele>
<time>2022-05-26T12:08:35Z</time>
</trkpt>
<trkpt lat="47.965462" lon="11.30043">
<ele>626.981</ele>
<time>2022-05-26T12:08:36Z</time>
</trkpt>
<trkpt lat="47.965496" lon="11.300406">
<ele>626.981</ele>
<time>2022-05-26T12:08:37Z</time>
</trkpt>
<trkpt lat="47.965534" lon="11.300386">
<ele>626.981</ele>
<time>2022-05-26T12:08:38Z</time>
</trkpt>
<trkpt lat="47.965569" lon="11.300367">
<ele>626.981</ele>
<time>2022-05-26T12:08:39Z</time>
</trkpt>
<trkpt lat="47.965603" lon="11.300351">
<ele>626.981</ele>
<time>2022-05-26T12:08:40Z</time>
</trkpt>
<trkpt lat="47.965637" lon="11.300336">
<ele>626.981</ele>
<time>2022-05-26T12:08:41Z</time>
</trkpt>
<trkpt lat="47.965672" lon="11.30032">
<ele>626.981</ele>
<time>2022-05-26T12:08:42Z</time>
</trkpt>
<trkpt lat="47.965698" lon="11.300301">
<ele>627.236</ele>
<time>2022-05-26T12:08:43Z</time>
</trkpt>
<trkpt lat="47.965725" lon="11.300286">
<ele>627.414</ele>
<time>2022-05-26T12:08:44Z</time>
</trkpt>
<trkpt lat="47.965755" lon="11.300277">
<ele>627.592</ele>
<time>2022-05-26T12:08:45Z</time>
</trkpt>
<trkpt lat="47.965778" lon="11.300265">
<ele>627.74</ele>
<time>2022-05-26T12:08:46Z</time>
</trkpt>
<trkpt lat="47.965816" lon="11.300254">
<ele>627.86</ele>
<time>2022-05-26T12:08:47Z</time>
</trkpt>
<trkpt lat="47.965851" lon="11.300246">
<ele>627.949</ele>
<time>2022-05-26T12:08:48Z</time>
</trkpt>
<trkpt lat="47.965881" lon="11.300233">
<ele>628.003</ele>
<time>2022-05-26T12:08:49Z</time>
</trkpt>
<trkpt lat="47.965904" lon="11.300225">
<ele>628.291</ele>
<time>2022-05-26T12:08:50Z</time>
</trkpt>
<trkpt lat="47.965931" lon="11.30022">
<ele>628.533</ele>
<time>2022-05-26T12:08:51Z</time>
</trkpt>
<trkpt lat="47.965961" lon="11.300213">
<ele>628.666</ele>
<time>2022-05-26T12:08:52Z</time>
</trkpt>
<trkpt lat="47.965992" lon="11.30021">
<ele>629.031</ele>
<time>2022-05-26T12:08:53Z</time>
</trkpt>
<trkpt lat="47.966022" lon="11.300208">
<ele>629.303</ele>
<time>2022-05-26T12:08:54Z</time>
</trkpt>
<trkpt lat="47.966053" lon="11.300212">
<ele>629.551</ele>
<time>2022-05-26T12:08:55Z</time>
</trkpt>
<trkpt lat="47.96608" lon="11.300215">
<ele>629.758</ele>
<time>2022-05-26T12:08:56Z</time>
</trkpt>
<trkpt lat="47.966106" lon="11.300219">
<ele>629.899</ele>
<time>2022-05-26T12:08:57Z</time>
</trkpt>
<trkpt lat="47.966133" lon="11.300221">
<ele>630.263</ele>
<time>2022-05-26T12:08:58Z</time>
</trkpt>
<trkpt lat="47.966156" lon="11.300221">
<ele>630.536</ele>
<time>2022-05-26T12:08:59Z</time>
</trkpt>
<trkpt lat="47.966187" lon="11.300219">
<ele>630.751</ele>
<time>2022-05-26T12:09:00Z</time>
</trkpt>
<trkpt lat="47.966209" lon="11.3002">
<ele>630.951</ele>
<time>2022-05-26T12:09:01Z</time>
</trkpt>
<trkpt lat="47.96624" lon="11.300187">
<ele>631.048</ele>
<time>2022-05-26T12:09:02Z</time>
</trkpt>
<trkpt lat="47.96627" lon="11.30018">
<ele>631.115</ele>
<time>2022-05-26T12:09:03Z</time>
</trkpt>
<trkpt lat="47.966309" lon="11.300175">
<ele>631.171</ele>
<time>2022-05-26T12:09:04Z</time>
</trkpt>
<trkpt lat="47.966339" lon="11.300173">
<ele>631.201</ele>
<time>2022-05-26T12:09:05Z</time>
</trkpt>
<trkpt lat="47.96637" lon="11.300166">
<ele>631.201</ele>
<time>2022-05-26T12:09:06Z</time>
</trkpt>
<trkpt lat="47.9664" lon="11.300152">
<ele>631.201</ele>
<time>2022-05-26T12:09:07Z</time>
</trkpt>
<trkpt lat="47.966431" lon="11.300135">
<ele>631.201</ele>
<time>2022-05-26T12:09:08Z</time>
</trkpt>
<trkpt lat="47.966461" lon="11.300122">
<ele>631.201</ele>
<time>2022-05-26T12:09:09Z</time>
</trkpt>
<trkpt lat="47.966488" lon="11.300103">
<ele>631.201</ele>
<time>2022-05-26T12:09:10Z</time>
</trkpt>
<trkpt lat="47.966515" lon="11.300083">
<ele>631.201</ele>
<time>2022-05-26T12:09:11Z</time>
</trkpt>
<trkpt lat="47.966541" lon="11.300063">
<ele>631.201</ele>
<time>2022-05-26T12:09:12Z</time>
</trkpt>
<trkpt lat="47.966568" lon="11.30004">
<ele>631.201</ele>
<time>2022-05-26T12:09:13Z</time>
</trkpt>
<trkpt lat="47.966599" lon="11.300014">
<ele>631.201</ele>
<time>2022-05-26T12:09:14Z</time>
</trkpt>
<trkpt lat="47.966629" lon="11.29998">
<ele>631.201</ele>
<time>2022-05-26T12:09:15Z</time>
</trkpt>
<trkpt lat="47.96666" lon="11.29994">
<ele>631.201</ele>
<time>2022-05-26T12:09:16Z</time>
</trkpt>
<trkpt lat="47.966686" lon="11.299893">
<ele>631.201</ele>
<time>2022-05-26T12:09:17Z</time>
</trkpt>
<trkpt lat="47.966724" lon="11.299851">
<ele>631.201</ele>
<time>2022-05-26T12:09:18Z</time>
</trkpt>
<trkpt lat="47.966763" lon="11.299806">
<ele>630.941</ele>
<time>2022-05-26T12:09:19Z</time>
</trkpt>
<trkpt lat="47.966801" lon="11.299753">
<ele>630.434</ele>
<time>2022-05-26T12:09:20Z</time>
</trkpt>
<trkpt lat="47.966839" lon="11.2997">
<ele>630.07</ele>
<time>2022-05-26T12:09:21Z</time>
</trkpt>
<trkpt lat="47.966873" lon="11.299643">
<ele>629.81</ele>
<time>2022-05-26T12:09:22Z</time>
</trkpt>
<trkpt lat="47.966911" lon="11.299592">
<ele>629.616</ele>
<time>2022-05-26T12:09:23Z</time>
</trkpt>
<trkpt lat="47.966949" lon="11.299541">
<ele>629.482</ele>
<time>2022-05-26T12:09:24Z</time>
</trkpt>
<trkpt lat="47.966995" lon="11.29949">
<ele>629.36</ele>
<time>2022-05-26T12:09:25Z</time>
</trkpt>
<trkpt lat="47.96703" lon="11.299435">
<ele>629.29</ele>
<time>2022-05-26T12:09:26Z</time>
</trkpt>
<trkpt lat="47.967068" lon="11.299381">
<ele>629.267</ele>
<time>2022-05-26T12:09:27Z</time>
</trkpt>
<trkpt lat="47.967098" lon="11.299324">
<ele>629.267</ele>
<time>2022-05-26T12:09:28Z</time>
</trkpt>
<trkpt lat="47.967129" lon="11.299261">
<ele>629.267</ele>
<time>2022-05-26T12:09:29Z</time>
</trkpt>
<trkpt lat="47.967159" lon="11.299193">
<ele>629.266</ele>
<time>2022-05-26T12:09:30Z</time>
</trkpt>
<trkpt lat="47.96719" lon="11.299125">
<ele>629.018</ele>
<time>2022-05-26T12:09:31Z</time>
</trkpt>
<trkpt lat="47.967216" lon="11.299058">
<ele>628.822</ele>
<time>2022-05-26T12:09:32Z</time>
</trkpt>
<trkpt lat="47.967239" lon="11.29899">
<ele>628.669</ele>
<time>2022-05-26T12:09:33Z</time>
</trkpt>
<trkpt lat="47.967266" lon="11.298918">
<ele>628.564</ele>
<time>2022-05-26T12:09:34Z</time>
</trkpt>
<trkpt lat="47.967297" lon="11.29885">
<ele>628.452</ele>
<time>2022-05-26T12:09:35Z</time>
</trkpt>
<trkpt lat="47.967316" lon="11.298775">
<ele>628.373</ele>
<time>2022-05-26T12:09:36Z</time>
</trkpt>
<trkpt lat="47.967339" lon="11.298698">
<ele>628.325</ele>
<time>2022-05-26T12:09:37Z</time>
</trkpt>
<trkpt lat="47.967365" lon="11.298622">
<ele>628.063</ele>
<time>2022-05-26T12:09:38Z</time>
</trkpt>
<trkpt lat="47.967392" lon="11.298542">
<ele>627.842</ele>
<time>2022-05-26T12:09:39Z</time>
</trkpt>
<trkpt lat="47.967426" lon="11.298452">
<ele>627.375</ele>
<time>2022-05-26T12:09:40Z</time>
</trkpt>
<trkpt lat="47.967461" lon="11.298358">
<ele>627.078</ele>
<time>2022-05-26T12:09:41Z</time>
</trkpt>
<trkpt lat="47.967506" lon="11.298265">
<ele>626.562</ele>
<time>2022-05-26T12:09:42Z</time>
</trkpt>
<trkpt lat="47.967556" lon="11.298165">
<ele>625.909</ele>
<time>2022-05-26T12:09:43Z</time>
</trkpt>
<trkpt lat="47.967602" lon="11.29806">
<ele>625.141</ele>
<time>2022-05-26T12:09:44Z</time>
</trkpt>
<trkpt lat="47.967655" lon="11.297947">
<ele>624.224</ele>
<time>2022-05-26T12:09:45Z</time>
</trkpt>
<trkpt lat="47.967709" lon="11.297824">
<ele>623.641</ele>
<time>2022-05-26T12:09:46Z</time>
</trkpt>
<trkpt lat="47.967754" lon="11.297709">
<ele>622.796</ele>
<time>2022-05-26T12:09:47Z</time>
</trkpt>
<trkpt lat="47.967808" lon="11.297597">
<ele>622.271</ele>
<time>2022-05-26T12:09:48Z</time>
</trkpt>
<trkpt lat="47.96785" lon="11.297482">
<ele>621.534</ele>
<time>2022-05-26T12:09:49Z</time>
</trkpt>
<trkpt lat="47.967888" lon="11.29736">
<ele>621.009</ele>
<time>2022-05-26T12:09:50Z</time>
</trkpt>
<trkpt lat="47.967922" lon="11.297241">
<ele>620.641</ele>
<time>2022-05-26T12:09:51Z</time>
</trkpt>
<trkpt lat="47.967957" lon="11.297132">
<ele>620.393</ele>
<time>2022-05-26T12:09:52Z</time>
</trkpt>
<trkpt lat="47.967991" lon="11.297027">
<ele>620.229</ele>
<time>2022-05-26T12:09:53Z</time>
</trkpt>
<trkpt lat="47.968018" lon="11.296924">
<ele>620.132</ele>
<time>2022-05-26T12:09:54Z</time>
</trkpt>
<trkpt lat="47.968048" lon="11.296826">
<ele>620.069</ele>
<time>2022-05-26T12:09:55Z</time>
</trkpt>
<trkpt lat="47.968075" lon="11.296741">
<ele>620.04</ele>
<time>2022-05-26T12:09:56Z</time>
</trkpt>
<trkpt lat="47.968102" lon="11.296667">
<ele>620.04</ele>
<time>2022-05-26T12:09:57Z</time>
</trkpt>
<trkpt lat="47.968128" lon="11.296602">
<ele>620.04</ele>
<time>2022-05-26T12:09:58Z</time>
</trkpt>
<trkpt lat="47.968143" lon="11.296548">
<ele>620.276</ele>
<time>2022-05-26T12:09:59Z</time>
</trkpt>
<trkpt lat="47.968163" lon="11.296498">
<ele>620.469</ele>
<time>2022-05-26T12:10:00Z</time>
</trkpt>
<trkpt lat="47.968178" lon="11.296452">
<ele>620.62</ele>
<time>2022-05-26T12:10:01Z</time>
</trkpt>
<trkpt lat="47.968193" lon="11.296412">
<ele>620.72</ele>
<time>2022-05-26T12:10:02Z</time>
</trkpt>
<trkpt lat="47.968204" lon="11.29637">
<ele>621.035</ele>
<time>2022-05-26T12:10:03Z</time>
</trkpt>
<trkpt lat="47.968216" lon="11.296324">
<ele>621.504</ele>
<time>2022-05-26T12:10:04Z</time>
</trkpt>
<trkpt lat="47.968231" lon="11.296273">
<ele>621.95</ele>
<time>2022-05-26T12:10:05Z</time>
</trkpt>
<trkpt lat="47.96825" lon="11.296226">
<ele>622.321</ele>
<time>2022-05-26T12:10:06Z</time>
</trkpt>
<trkpt lat="47.968273" lon="11.296175">
<ele>622.603</ele>
<time>2022-05-26T12:10:07Z</time>
</trkpt>
<trkpt lat="47.968288" lon="11.296122">
<ele>622.803</ele>
<time>2022-05-26T12:10:08Z</time>
</trkpt>
<trkpt lat="47.968307" lon="11.296066">
<ele>622.937</ele>
<time>2022-05-26T12:10:09Z</time>
</trkpt>
<trkpt lat="47.968327" lon="11.29601">
<ele>623.008</ele>
<time>2022-05-26T12:10:10Z</time>
</trkpt>
<trkpt lat="47.968346" lon="11.295951">
<ele>623.027</ele>
<time>2022-05-26T12:10:11Z</time>
</trkpt>
<trkpt lat="47.968365" lon="11.295894">
<ele>623.027</ele>
<time>2022-05-26T12:10:12Z</time>
</trkpt>
<trkpt lat="47.968384" lon="11.295835">
<ele>623.315</ele>
<time>2022-05-26T12:10:13Z</time>
</trkpt>
<trkpt lat="47.968407" lon="11.295778">
<ele>623.513</ele>
<time>2022-05-26T12:10:14Z</time>
</trkpt>
<trkpt lat="47.968426" lon="11.295718">
<ele>623.717</ele>
<time>2022-05-26T12:10:15Z</time>
</trkpt>
<trkpt lat="47.968445" lon="11.295657">
<ele>623.875</ele>
<time>2022-05-26T12:10:16Z</time>
</trkpt>
<trkpt lat="47.968472" lon="11.295595">
<ele>623.997</ele>
<time>2022-05-26T12:10:17Z</time>
</trkpt>
<trkpt lat="47.968491" lon="11.29553">
<ele>624.086</ele>
<time>2022-05-26T12:10:18Z</time>
</trkpt>
<trkpt lat="47.96851" lon="11.295464">
<ele>624.142</ele>
<time>2022-05-26T12:10:19Z</time>
</trkpt>
<trkpt lat="47.968529" lon="11.295395">
<ele>624.169</ele>
<time>2022-05-26T12:10:20Z</time>
</trkpt>
<trkpt lat="47.968544" lon="11.295324">
<ele>624.169</ele>
<time>2022-05-26T12:10:21Z</time>
</trkpt>
<trkpt lat="47.968555" lon="11.295252">
<ele>624.169</ele>
<time>2022-05-26T12:10:22Z</time>
</trkpt>
<trkpt lat="47.968563" lon="11.295177">
<ele>624.169</ele>
<time>2022-05-26T12:10:23Z</time>
</trkpt>
<trkpt lat="47.968567" lon="11.295103">
<ele>624.169</ele>
<time>2022-05-26T12:10:24Z</time>
</trkpt>
<trkpt lat="47.968567" lon="11.295029">
<ele>624.169</ele>
<time>2022-05-26T12:10:25Z</time>
</trkpt>
<trkpt lat="47.968559" lon="11.294956">
<ele>623.906</ele>
<time>2022-05-26T12:10:26Z</time>
</trkpt>
<trkpt lat="47.968548" lon="11.294891">
<ele>623.705</ele>
<time>2022-05-26T12:10:27Z</time>
</trkpt>
<trkpt lat="47.968533" lon="11.294827">
<ele>623.55</ele>
<time>2022-05-26T12:10:28Z</time>
</trkpt>
<trkpt lat="47.96851" lon="11.294762">
<ele>623.439</ele>
<time>2022-05-26T12:10:29Z</time>
</trkpt>
<trkpt lat="47.968494" lon="11.294698">
<ele>623.362</ele>
<time>2022-05-26T12:10:30Z</time>
</trkpt>
<trkpt lat="47.968472" lon="11.294639">
<ele>623.317</ele>
<time>2022-05-26T12:10:31Z</time>
</trkpt>
<trkpt lat="47.968452" lon="11.294577">
<ele>623.29</ele>
<time>2022-05-26T12:10:32Z</time>
</trkpt>
<trkpt lat="47.968433" lon="11.294512">
<ele>623.29</ele>
<time>2022-05-26T12:10:33Z</time>
</trkpt>
<trkpt lat="47.968407" lon="11.294445">
<ele>623.29</ele>
<time>2022-05-26T12:10:34Z</time>
</trkpt>
<trkpt lat="47.968388" lon="11.29438">
<ele>623.29</ele>
<time>2022-05-26T12:10:35Z</time>
</trkpt>
<trkpt lat="47.968369" lon="11.294314">
<ele>623.29</ele>
<time>2022-05-26T12:10:36Z</time>
</trkpt>
<trkpt lat="47.968346" lon="11.294248">
<ele>623.29</ele>
<time>2022-05-26T12:10:37Z</time>
</trkpt>
<trkpt lat="47.968327" lon="11.294182">
<ele>623.29</ele>
<time>2022-05-26T12:10:38Z</time>
</trkpt>
<trkpt lat="47.968304" lon="11.294115">
<ele>623.29</ele>
<time>2022-05-26T12:10:39Z</time>
</trkpt>
<trkpt lat="47.968277" lon="11.294046">
<ele>623.29</ele>
<time>2022-05-26T12:10:40Z</time>
</trkpt>
<trkpt lat="47.968258" lon="11.293978">
<ele>623.29</ele>
<time>2022-05-26T12:10:41Z</time>
</trkpt>
<trkpt lat="47.968235" lon="11.293908">
<ele>623.29</ele>
<time>2022-05-26T12:10:42Z</time>
</trkpt>
<trkpt lat="47.968208" lon="11.293839">
<ele>623.29</ele>
<time>2022-05-26T12:10:43Z</time>
</trkpt>
<trkpt lat="47.968185" lon="11.293766">
<ele>623.29</ele>
<time>2022-05-26T12:10:44Z</time>
</trkpt>
<trkpt lat="47.968163" lon="11.293693">
<ele>623.29</ele>
<time>2022-05-26T12:10:45Z</time>
</trkpt>
<trkpt lat="47.96814" lon="11.293619">
<ele>623.29</ele>
<time>2022-05-26T12:10:46Z</time>
</trkpt>
<trkpt lat="47.968117" lon="11.293547">
<ele>623.29</ele>
<time>2022-05-26T12:10:47Z</time>
</trkpt>
<trkpt lat="47.96809" lon="11.293473">
<ele>623.29</ele>
<time>2022-05-26T12:10:48Z</time>
</trkpt>
<trkpt lat="47.968067" lon="11.293402">
<ele>623.29</ele>
<time>2022-05-26T12:10:49Z</time>
</trkpt>
<trkpt lat="47.968044" lon="11.293328">
<ele>623.29</ele>
<time>2022-05-26T12:10:50Z</time>
</trkpt>
<trkpt lat="47.968018" lon="11.293255">
<ele>623.29</ele>
<time>2022-05-26T12:10:51Z</time>
</trkpt>
<trkpt lat="47.967999" lon="11.293181">
<ele>623.509</ele>
<time>2022-05-26T12:10:52Z</time>
</trkpt>
<trkpt lat="47.967983" lon="11.293108">
<ele>623.682</ele>
<time>2022-05-26T12:10:53Z</time>
</trkpt>
<trkpt lat="47.96796" lon="11.293036">
<ele>623.802</ele>
<time>2022-05-26T12:10:54Z</time>
</trkpt>
<trkpt lat="47.967945" lon="11.292967">
<ele>623.923</ele>
<time>2022-05-26T12:10:55Z</time>
</trkpt>
<trkpt lat="47.96793" lon="11.292896">
<ele>624.275</ele>
<time>2022-05-26T12:10:56Z</time>
</trkpt>
<trkpt lat="47.967922" lon="11.292829">
<ele>624.562</ele>
<time>2022-05-26T12:10:57Z</time>
</trkpt>
<trkpt lat="47.967918" lon="11.292758">
<ele>624.784</ele>
<time>2022-05-26T12:10:58Z</time>
</trkpt>
<trkpt lat="47.967918" lon="11.292686">
<ele>624.95</ele>
<time>2022-05-26T12:10:59Z</time>
</trkpt>
<trkpt lat="47.967915" lon="11.292615">
<ele>625.131</ele>
<time>2022-05-26T12:11:00Z</time>
</trkpt>
<trkpt lat="47.967911" lon="11.292543">
<ele>625.191</ele>
<time>2022-05-26T12:11:01Z</time>
</trkpt>
<trkpt lat="47.967903" lon="11.292473">
<ele>625.219</ele>
<time>2022-05-26T12:11:02Z</time>
</trkpt>
<trkpt lat="47.967892" lon="11.292398">
<ele>625.223</ele>
<time>2022-05-26T12:11:03Z</time>
</trkpt>
<trkpt lat="47.96788" lon="11.292323">
<ele>625.223</ele>
<time>2022-05-26T12:11:04Z</time>
</trkpt>
<trkpt lat="47.967861" lon="11.29225">
<ele>625.223</ele>
<time>2022-05-26T12:11:05Z</time>
</trkpt>
<trkpt lat="47.967842" lon="11.292177">
<ele>625.223</ele>
<time>2022-05-26T12:11:06Z</time>
</trkpt>
<trkpt lat="47.967819" lon="11.292104">
<ele>625.223</ele>
<time>2022-05-26T12:11:07Z</time>
</trkpt>
<trkpt lat="47.967793" lon="11.292025">
<ele>625.224</ele>
<time>2022-05-26T12:11:08Z</time>
</trkpt>
<trkpt lat="47.96777" lon="11.291947">
<ele>625.223</ele>
<time>2022-05-26T12:11:09Z</time>
</trkpt>
<trkpt lat="47.967743" lon="11.291868">
<ele>625.223</ele>
<time>2022-05-26T12:11:10Z</time>
</trkpt>
<trkpt lat="47.967716" lon="11.291788">
<ele>625.223</ele>
<time>2022-05-26T12:11:11Z</time>
</trkpt>
<trkpt lat="47.96769" lon="11.291708">
<ele>625.224</ele>
<time>2022-05-26T12:11:12Z</time>
</trkpt>
<trkpt lat="47.967667" lon="11.291625">
<ele>625.223</ele>
<time>2022-05-26T12:11:13Z</time>
</trkpt>
<trkpt lat="47.96764" lon="11.291541">
<ele>625.223</ele>
<time>2022-05-26T12:11:14Z</time>
</trkpt>
<trkpt lat="47.967617" lon="11.291459">
<ele>625.223</ele>
<time>2022-05-26T12:11:15Z</time>
</trkpt>
<trkpt lat="47.967594" lon="11.291371">
<ele>624.957</ele>
<time>2022-05-26T12:11:16Z</time>
</trkpt>
<trkpt lat="47.967579" lon="11.291286">
<ele>624.755</ele>
<time>2022-05-26T12:11:17Z</time>
</trkpt>
<trkpt lat="47.967564" lon="11.2912">
<ele>624.602</ele>
<time>2022-05-26T12:11:18Z</time>
</trkpt>
<trkpt lat="47.967552" lon="11.291112">
<ele>624.492</ele>
<time>2022-05-26T12:11:19Z</time>
</trkpt>
<trkpt lat="47.967537" lon="11.291025">
<ele>624.416</ele>
<time>2022-05-26T12:11:20Z</time>
</trkpt>
<trkpt lat="47.967525" lon="11.290937">
<ele>624.37</ele>
<time>2022-05-26T12:11:21Z</time>
</trkpt>
<trkpt lat="47.96751" lon="11.29085">
<ele>624.347</ele>
<time>2022-05-26T12:11:22Z</time>
</trkpt>
<trkpt lat="47.967495" lon="11.290765">
<ele>624.344</ele>
<time>2022-05-26T12:11:23Z</time>
</trkpt>
<trkpt lat="47.967487" lon="11.29068">
<ele>624.345</ele>
<time>2022-05-26T12:11:24Z</time>
</trkpt>
<trkpt lat="47.967472" lon="11.290595">
<ele>624.344</ele>
<time>2022-05-26T12:11:25Z</time>
</trkpt>
<trkpt lat="47.967461" lon="11.29051">
<ele>624.344</ele>
<time>2022-05-26T12:11:26Z</time>
</trkpt>
<trkpt lat="47.967445" lon="11.29043">
<ele>624.596</ele>
<time>2022-05-26T12:11:27Z</time>
</trkpt>
<trkpt lat="47.967434" lon="11.29035">
<ele>624.793</ele>
<time>2022-05-26T12:11:28Z</time>
</trkpt>
<trkpt lat="47.967419" lon="11.290274">
<ele>624.942</ele>
<time>2022-05-26T12:11:29Z</time>
</trkpt>
<trkpt lat="47.967403" lon="11.290198">
<ele>625.05</ele>
<time>2022-05-26T12:11:30Z</time>
</trkpt>
<trkpt lat="47.967392" lon="11.290123">
<ele>625.128</ele>
<time>2022-05-26T12:11:31Z</time>
</trkpt>
<trkpt lat="47.967373" lon="11.290047">
<ele>625.168</ele>
<time>2022-05-26T12:11:32Z</time>
</trkpt>
<trkpt lat="47.967361" lon="11.289971">
<ele>625.45</ele>
<time>2022-05-26T12:11:33Z</time>
</trkpt>
<trkpt lat="47.967339" lon="11.289898">
<ele>625.657</ele>
<time>2022-05-26T12:11:34Z</time>
</trkpt>
<trkpt lat="47.967323" lon="11.289822">
<ele>625.847</ele>
<time>2022-05-26T12:11:35Z</time>
</trkpt>
<trkpt lat="47.967308" lon="11.289743">
<ele>625.983</ele>
<time>2022-05-26T12:11:36Z</time>
</trkpt>
<trkpt lat="47.967297" lon="11.289665">
<ele>626.344</ele>
<time>2022-05-26T12:11:37Z</time>
</trkpt>
<trkpt lat="47.967281" lon="11.289586">
<ele>626.632</ele>
<time>2022-05-26T12:11:38Z</time>
</trkpt>
<trkpt lat="47.967266" lon="11.289509">
<ele>626.85</ele>
<time>2022-05-26T12:11:39Z</time>
</trkpt>
<trkpt lat="47.967255" lon="11.289433">
<ele>626.978</ele>
<time>2022-05-26T12:11:40Z</time>
</trkpt>
<trkpt lat="47.967236" lon="11.289362">
<ele>627.422</ele>
<time>2022-05-26T12:11:41Z</time>
</trkpt>
<trkpt lat="47.967224" lon="11.28929">
<ele>627.708</ele>
<time>2022-05-26T12:11:42Z</time>
</trkpt>
<trkpt lat="47.967205" lon="11.289222">
<ele>627.88</ele>
<time>2022-05-26T12:11:43Z</time>
</trkpt>
<trkpt lat="47.967194" lon="11.289157">
<ele>628.275</ele>
<time>2022-05-26T12:11:44Z</time>
</trkpt>
<trkpt lat="47.967175" lon="11.289094">
<ele>628.604</ele>
<time>2022-05-26T12:11:45Z</time>
</trkpt>
<trkpt lat="47.967163" lon="11.289031">
<ele>628.866</ele>
<time>2022-05-26T12:11:46Z</time>
</trkpt>
<trkpt lat="47.967148" lon="11.288966">
<ele>629.042</ele>
<time>2022-05-26T12:11:47Z</time>
</trkpt>
<trkpt lat="47.967136" lon="11.288903">
<ele>629.397</ele>
<time>2022-05-26T12:11:48Z</time>
</trkpt>
<trkpt lat="47.967125" lon="11.28884">
<ele>629.658</ele>
<time>2022-05-26T12:11:49Z</time>
</trkpt>
<trkpt lat="47.967113" lon="11.28878">
<ele>629.831</ele>
<time>2022-05-26T12:11:50Z</time>
</trkpt>
<trkpt lat="47.967098" lon="11.288721">
<ele>630.221</ele>
<time>2022-05-26T12:11:51Z</time>
</trkpt>
<trkpt lat="47.967087" lon="11.28866">
<ele>630.553</ele>
<time>2022-05-26T12:11:52Z</time>
</trkpt>
<trkpt lat="47.967068" lon="11.2886">
<ele>630.756</ele>
<time>2022-05-26T12:11:53Z</time>
</trkpt>
<trkpt lat="47.967056" lon="11.288536">
<ele>630.904</ele>
<time>2022-05-26T12:11:54Z</time>
</trkpt>
<trkpt lat="47.967037" lon="11.288469">
<ele>631.041</ele>
<time>2022-05-26T12:11:55Z</time>
</trkpt>
<trkpt lat="47.96703" lon="11.288402">
<ele>631.124</ele>
<time>2022-05-26T12:11:56Z</time>
</trkpt>
<trkpt lat="47.967014" lon="11.288335">
<ele>631.176</ele>
<time>2022-05-26T12:11:57Z</time>
</trkpt>
<trkpt lat="47.967003" lon="11.288266">
<ele>631.201</ele>
<time>2022-05-26T12:11:58Z</time>
</trkpt>
<trkpt lat="47.966988" lon="11.288198">
<ele>631.201</ele>
<time>2022-05-26T12:11:59Z</time>
</trkpt>
<trkpt lat="47.966972" lon="11.28813">
<ele>631.201</ele>
<time>2022-05-26T12:12:00Z</time>
</trkpt>
<trkpt lat="47.966961" lon="11.288058">
<ele>631.201</ele>
<time>2022-05-26T12:12:01Z</time>
</trkpt>
<trkpt lat="47.966946" lon="11.287983">
<ele>631.201</ele>
<time>2022-05-26T12:12:02Z</time>
</trkpt>
<trkpt lat="47.96693" lon="11.28791">
<ele>631.201</ele>
<time>2022-05-26T12:12:03Z</time>
</trkpt>
<trkpt lat="47.966915" lon="11.287833">
<ele>631.201</ele>
<time>2022-05-26T12:12:04Z</time>
</trkpt>
<trkpt lat="47.966904" lon="11.287755">
<ele>631.201</ele>
<time>2022-05-26T12:12:05Z</time>
</trkpt>
<trkpt lat="47.966885" lon="11.287678">
<ele>630.902</ele>
<time>2022-05-26T12:12:06Z</time>
</trkpt>
<trkpt lat="47.966869" lon="11.287597">
<ele>630.678</ele>
<time>2022-05-26T12:12:07Z</time>
</trkpt>
<trkpt lat="47.96685" lon="11.28751">
<ele>630.537</ele>
<time>2022-05-26T12:12:08Z</time>
</trkpt>
<trkpt lat="47.966835" lon="11.287422">
<ele>630.136</ele>
<time>2022-05-26T12:12:09Z</time>
</trkpt>
<trkpt lat="47.966816" lon="11.287332">
<ele>629.837</ele>
<time>2022-05-26T12:12:10Z</time>
</trkpt>
<trkpt lat="47.966801" lon="11.28724">
<ele>629.617</ele>
<time>2022-05-26T12:12:11Z</time>
</trkpt>
<trkpt lat="47.966774" lon="11.287149">
<ele>629.505</ele>
<time>2022-05-26T12:12:12Z</time>
</trkpt>
<trkpt lat="47.966751" lon="11.287064">
<ele>629.171</ele>
<time>2022-05-26T12:12:13Z</time>
</trkpt>
<trkpt lat="47.966732" lon="11.286977">
<ele>628.929</ele>
<time>2022-05-26T12:12:14Z</time>
</trkpt>
<trkpt lat="47.966709" lon="11.286887">
<ele>628.709</ele>
<time>2022-05-26T12:12:15Z</time>
</trkpt>
<trkpt lat="47.966686" lon="11.286798">
<ele>628.55</ele>
<time>2022-05-26T12:12:16Z</time>
</trkpt>
<trkpt lat="47.966663" lon="11.286712">
<ele>628.447</ele>
<time>2022-05-26T12:12:17Z</time>
</trkpt>
<trkpt lat="47.96664" lon="11.286625">
<ele>628.372</ele>
<time>2022-05-26T12:12:18Z</time>
</trkpt>
<trkpt lat="47.966618" lon="11.286537">
<ele>628.324</ele>
<time>2022-05-26T12:12:19Z</time>
</trkpt>
<trkpt lat="47.966599" lon="11.286448">
<ele>628.3</ele>
<time>2022-05-26T12:12:20Z</time>
</trkpt>
<trkpt lat="47.966579" lon="11.286364">
<ele>628.3</ele>
<time>2022-05-26T12:12:21Z</time>
</trkpt>
<trkpt lat="47.966568" lon="11.286278">
<ele>628.3</ele>
<time>2022-05-26T12:12:22Z</time>
</trkpt>
<trkpt lat="47.966557" lon="11.286202">
<ele>628.3</ele>
<time>2022-05-26T12:12:23Z</time>
</trkpt>
<trkpt lat="47.966549" lon="11.286121">
<ele>628.3</ele>
<time>2022-05-26T12:12:24Z</time>
</trkpt>
<trkpt lat="47.966549" lon="11.286036">
<ele>628.3</ele>
<time>2022-05-26T12:12:25Z</time>
</trkpt>
<trkpt lat="47.966541" lon="11.285954">
<ele>628.3</ele>
<time>2022-05-26T12:12:26Z</time>
</trkpt>
<trkpt lat="47.966534" lon="11.285873">
<ele>628.3</ele>
<time>2022-05-26T12:12:27Z</time>
</trkpt>
<trkpt lat="47.966526" lon="11.2858">
<ele>628.299</ele>
<time>2022-05-26T12:12:28Z</time>
</trkpt>
<trkpt lat="47.966518" lon="11.285728">
<ele>628.3</ele>
<time>2022-05-26T12:12:29Z</time>
</trkpt>
<trkpt lat="47.966518" lon="11.285666">
<ele>628.3</ele>
<time>2022-05-26T12:12:30Z</time>
</trkpt>
<trkpt lat="47.966511" lon="11.285615">
<ele>628.3</ele>
<time>2022-05-26T12:12:31Z</time>
</trkpt>
<trkpt lat="47.966503" lon="11.28557">
<ele>628.3</ele>
<time>2022-05-26T12:12:32Z</time>
</trkpt>
<trkpt lat="47.966499" lon="11.285523">
<ele>628.3</ele>
<time>2022-05-26T12:12:33Z</time>
</trkpt>
<trkpt lat="47.966496" lon="11.285472">
<ele>628.3</ele>
<time>2022-05-26T12:12:34Z</time>
</trkpt>
<trkpt lat="47.966484" lon="11.285404">
<ele>628.3</ele>
<time>2022-05-26T12:12:35Z</time>
</trkpt>
<trkpt lat="47.966476" lon="11.285335">
<ele>628.3</ele>
<time>2022-05-26T12:12:36Z</time>
</trkpt>
<trkpt lat="47.966465" lon="11.285278">
<ele>628.3</ele>
<time>2022-05-26T12:12:37Z</time>
</trkpt>
<trkpt lat="47.966461" lon="11.285222">
<ele>628.3</ele>
<time>2022-05-26T12:12:38Z</time>
</trkpt>
<trkpt lat="47.966461" lon="11.285159">
<ele>628.3</ele>
<time>2022-05-26T12:12:39Z</time>
</trkpt>
<trkpt lat="47.966457" lon="11.285098">
<ele>628.3</ele>
<time>2022-05-26T12:12:40Z</time>
</trkpt>
<trkpt lat="47.966454" lon="11.285038">
<ele>628.3</ele>
<time>2022-05-26T12:12:41Z</time>
</trkpt>
<trkpt lat="47.966457" lon="11.28498">
<ele>628.3</ele>
<time>2022-05-26T12:12:42Z</time>
</trkpt>
<trkpt lat="47.966465" lon="11.284908">
<ele>628.3</ele>
<time>2022-05-26T12:12:43Z</time>
</trkpt>
<trkpt lat="47.966476" lon="11.284848">
<ele>628.3</ele>
<time>2022-05-26T12:12:44Z</time>
</trkpt>
<trkpt lat="47.966484" lon="11.284792">
<ele>628.3</ele>
<time>2022-05-26T12:12:45Z</time>
</trkpt>
<trkpt lat="47.966496" lon="11.284727">
<ele>628.3</ele>
<time>2022-05-26T12:12:46Z</time>
</trkpt>
<trkpt lat="47.966496" lon="11.284643">
<ele>628.3</ele>
<time>2022-05-26T12:12:47Z</time>
</trkpt>
<trkpt lat="47.966484" lon="11.284529">
<ele>628</ele>
<time>2022-05-26T12:12:48Z</time>
</trkpt>
<trkpt lat="47.966476" lon="11.284407">
<ele>627.774</ele>
<time>2022-05-26T12:12:49Z</time>
</trkpt>
<trkpt lat="47.966465" lon="11.284302">
<ele>627.653</ele>
<time>2022-05-26T12:12:50Z</time>
</trkpt>
<trkpt lat="47.966457" lon="11.284198">
<ele>627.243</ele>
<time>2022-05-26T12:12:51Z</time>
</trkpt>
<trkpt lat="47.96645" lon="11.284086">
<ele>626.941</ele>
<time>2022-05-26T12:12:52Z</time>
</trkpt>
<trkpt lat="47.966427" lon="11.283961">
<ele>626.78</ele>
<time>2022-05-26T12:12:53Z</time>
</trkpt>
<trkpt lat="47.966412" lon="11.283843">
<ele>626.393</ele>
<time>2022-05-26T12:12:54Z</time>
</trkpt>
<trkpt lat="47.966408" lon="11.283727">
<ele>626.081</ele>
<time>2022-05-26T12:12:55Z</time>
</trkpt>
<trkpt lat="47.9664" lon="11.283613">
<ele>625.882</ele>
<time>2022-05-26T12:12:56Z</time>
</trkpt>
<trkpt lat="47.966389" lon="11.283502">
<ele>625.469</ele>
<time>2022-05-26T12:12:57Z</time>
</trkpt>
<trkpt lat="47.966385" lon="11.283395">
<ele>625.18</ele>
<time>2022-05-26T12:12:58Z</time>
</trkpt>
<trkpt lat="47.96637" lon="11.28328">
<ele>624.713</ele>
<time>2022-05-26T12:12:59Z</time>
</trkpt>
<trkpt lat="47.966362" lon="11.283167">
<ele>624.397</ele>
<time>2022-05-26T12:13:00Z</time>
</trkpt>
<trkpt lat="47.966351" lon="11.283045">
<ele>623.893</ele>
<time>2022-05-26T12:13:01Z</time>
</trkpt>
<trkpt lat="47.966351" lon="11.28293">
<ele>623.488</ele>
<time>2022-05-26T12:13:02Z</time>
</trkpt>
<trkpt lat="47.966343" lon="11.282804">
<ele>622.929</ele>
<time>2022-05-26T12:13:03Z</time>
</trkpt>
<trkpt lat="47.966339" lon="11.282665">
<ele>622.514</ele>
<time>2022-05-26T12:13:04Z</time>
</trkpt>
<trkpt lat="47.966335" lon="11.282534">
<ele>621.945</ele>
<time>2022-05-26T12:13:05Z</time>
</trkpt>
<trkpt lat="47.966331" lon="11.282405">
<ele>621.047</ele>
<time>2022-05-26T12:13:06Z</time>
</trkpt>
<trkpt lat="47.966324" lon="11.28228">
<ele>620.14</ele>
<time>2022-05-26T12:13:07Z</time>
</trkpt>
<trkpt lat="47.96632" lon="11.282166">
<ele>619.156</ele>
<time>2022-05-26T12:13:08Z</time>
</trkpt>
<trkpt lat="47.966328" lon="11.282052">
<ele>618.028</ele>
<time>2022-05-26T12:13:09Z</time>
</trkpt>
<trkpt lat="47.966331" lon="11.281926">
<ele>617.23</ele>
<time>2022-05-26T12:13:10Z</time>
</trkpt>
<trkpt lat="47.966331" lon="11.281795">
<ele>616.377</ele>
<time>2022-05-26T12:13:11Z</time>
</trkpt>
<trkpt lat="47.966335" lon="11.281673">
<ele>615.249</ele>
<time>2022-05-26T12:13:12Z</time>
</trkpt>
<trkpt lat="47.966347" lon="11.281549">
<ele>614.006</ele>
<time>2022-05-26T12:13:13Z</time>
</trkpt>
<trkpt lat="47.966343" lon="11.281413">
<ele>613.177</ele>
<time>2022-05-26T12:13:14Z</time>
</trkpt>
<trkpt lat="47.96632" lon="11.281233">
<ele>611.98</ele>
<time>2022-05-26T12:13:15Z</time>
</trkpt>
<trkpt lat="47.966309" lon="11.281038">
<ele>610.78</ele>
<time>2022-05-26T12:13:16Z</time>
</trkpt>
<trkpt lat="47.966286" lon="11.280833">
<ele>609.514</ele>
<time>2022-05-26T12:13:17Z</time>
</trkpt>
<trkpt lat="47.966248" lon="11.280585">
<ele>608.296</ele>
<time>2022-05-26T12:13:18Z</time>
</trkpt>
<trkpt lat="47.966221" lon="11.280343">
<ele>606.596</ele>
<time>2022-05-26T12:13:19Z</time>
</trkpt>
<trkpt lat="47.966202" lon="11.280114">
<ele>605.56</ele>
<time>2022-05-26T12:13:20Z</time>
</trkpt>
<trkpt lat="47.966183" lon="11.279903">
<ele>604.406</ele>
<time>2022-05-26T12:13:21Z</time>
</trkpt>
<trkpt lat="47.966171" lon="11.279714">
<ele>603.709</ele>
<time>2022-05-26T12:13:22Z</time>
</trkpt>
<trkpt lat="47.966156" lon="11.279527">
<ele>602.96</ele>
<time>2022-05-26T12:13:23Z</time>
</trkpt>
<trkpt lat="47.966145" lon="11.279358">
<ele>602.441</ele>
<time>2022-05-26T12:13:24Z</time>
</trkpt>
<trkpt lat="47.966133" lon="11.279205">
<ele>602.043</ele>
<time>2022-05-26T12:13:25Z</time>
</trkpt>
<trkpt lat="47.966129" lon="11.279069">
<ele>601.8</ele>
<time>2022-05-26T12:13:26Z</time>
</trkpt>
<trkpt lat="47.966125" lon="11.27894">
<ele>601.421</ele>
<time>2022-05-26T12:13:27Z</time>
</trkpt>
<trkpt lat="47.966118" lon="11.278824">
<ele>601.124</ele>
<time>2022-05-26T12:13:28Z</time>
</trkpt>
<trkpt lat="47.966106" lon="11.278713">
<ele>600.909</ele>
<time>2022-05-26T12:13:29Z</time>
</trkpt>
<trkpt lat="47.966095" lon="11.278612">
<ele>600.768</ele>
<time>2022-05-26T12:13:30Z</time>
</trkpt>
<trkpt lat="47.966087" lon="11.278518">
<ele>600.381</ele>
<time>2022-05-26T12:13:31Z</time>
</trkpt>
<trkpt lat="47.96608" lon="11.278427">
<ele>600.129</ele>
<time>2022-05-26T12:13:32Z</time>
</trkpt>
<trkpt lat="47.966072" lon="11.278337">
<ele>599.944</ele>
<time>2022-05-26T12:13:33Z</time>
</trkpt>
<trkpt lat="47.966064" lon="11.27825">
<ele>599.799</ele>
<time>2022-05-26T12:13:34Z</time>
</trkpt>
<trkpt lat="47.966057" lon="11.278167">
<ele>599.681</ele>
<time>2022-05-26T12:13:35Z</time>
</trkpt>
<trkpt lat="47.966053" lon="11.278085">
<ele>599.593</ele>
<time>2022-05-26T12:13:36Z</time>
</trkpt>
<trkpt lat="47.966049" lon="11.278005">
<ele>599.535</ele>
<time>2022-05-26T12:13:37Z</time>
</trkpt>
<trkpt lat="47.966045" lon="11.277925">
<ele>599.506</ele>
<time>2022-05-26T12:13:38Z</time>
</trkpt>
<trkpt lat="47.966042" lon="11.277845">
<ele>599.507</ele>
<time>2022-05-26T12:13:39Z</time>
</trkpt>
<trkpt lat="47.966038" lon="11.277763">
<ele>599.507</ele>
<time>2022-05-26T12:13:40Z</time>
</trkpt>
<trkpt lat="47.966034" lon="11.277683">
<ele>599.507</ele>
<time>2022-05-26T12:13:41Z</time>
</trkpt>
<trkpt lat="47.966026" lon="11.277604">
<ele>599.507</ele>
<time>2022-05-26T12:13:42Z</time>
</trkpt>
<trkpt lat="47.966026" lon="11.277522">
<ele>599.506</ele>
<time>2022-05-26T12:13:43Z</time>
</trkpt>
<trkpt lat="47.966019" lon="11.277434">
<ele>599.507</ele>
<time>2022-05-26T12:13:44Z</time>
</trkpt>
<trkpt lat="47.966011" lon="11.277349">
<ele>599.507</ele>
<time>2022-05-26T12:13:45Z</time>
</trkpt>
<trkpt lat="47.966007" lon="11.277262">
<ele>599.507</ele>
<time>2022-05-26T12:13:46Z</time>
</trkpt>
<trkpt lat="47.966003" lon="11.277173">
<ele>599.507</ele>
<time>2022-05-26T12:13:47Z</time>
</trkpt>
<trkpt lat="47.966" lon="11.277086">
<ele>599.507</ele>
<time>2022-05-26T12:13:48Z</time>
</trkpt>
<trkpt lat="47.965996" lon="11.277003">
<ele>599.506</ele>
<time>2022-05-26T12:13:49Z</time>
</trkpt>
<trkpt lat="47.965996" lon="11.276919">
<ele>599.507</ele>
<time>2022-05-26T12:13:50Z</time>
</trkpt>
<trkpt lat="47.965992" lon="11.276835">
<ele>599.507</ele>
<time>2022-05-26T12:13:51Z</time>
</trkpt>
<trkpt lat="47.965992" lon="11.276752">
<ele>599.507</ele>
<time>2022-05-26T12:13:52Z</time>
</trkpt>
<trkpt lat="47.965992" lon="11.27667">
<ele>599.507</ele>
<time>2022-05-26T12:13:53Z</time>
</trkpt>
<trkpt lat="47.965992" lon="11.276586">
<ele>599.507</ele>
<time>2022-05-26T12:13:54Z</time>
</trkpt>
<trkpt lat="47.965992" lon="11.2765">
<ele>599.507</ele>
<time>2022-05-26T12:13:55Z</time>
</trkpt>
<trkpt lat="47.965992" lon="11.276415">
<ele>599.506</ele>
<time>2022-05-26T12:13:56Z</time>
</trkpt>
<trkpt lat="47.965996" lon="11.276332">
<ele>599.506</ele>
<time>2022-05-26T12:13:57Z</time>
</trkpt>
<trkpt lat="47.965996" lon="11.276247">
<ele>599.507</ele>
<time>2022-05-26T12:13:58Z</time>
</trkpt>
<trkpt lat="47.965996" lon="11.276163">
<ele>599.507</ele>
<time>2022-05-26T12:13:59Z</time>
</trkpt>
<trkpt lat="47.966" lon="11.276081">
<ele>599.506</ele>
<time>2022-05-26T12:14:00Z</time>
</trkpt>
<trkpt lat="47.966" lon="11.276002">
<ele>599.752</ele>
<time>2022-05-26T12:14:01Z</time>
</trkpt>
<trkpt lat="47.966" lon="11.275922">
<ele>599.946</ele>
<time>2022-05-26T12:14:02Z</time>
</trkpt>
<trkpt lat="47.966003" lon="11.27584">
<ele>600.096</ele>
<time>2022-05-26T12:14:03Z</time>
</trkpt>
<trkpt lat="47.966003" lon="11.275759">
<ele>600.199</ele>
<time>2022-05-26T12:14:04Z</time>
</trkpt>
<trkpt lat="47.966003" lon="11.275679">
<ele>600.312</ele>
<time>2022-05-26T12:14:05Z</time>
</trkpt>
<trkpt lat="47.966003" lon="11.275599">
<ele>600.392</ele>
<time>2022-05-26T12:14:06Z</time>
</trkpt>
<trkpt lat="47.966003" lon="11.275519">
<ele>600.445</ele>
<time>2022-05-26T12:14:07Z</time>
</trkpt>
<trkpt lat="47.966003" lon="11.275442">
<ele>600.471</ele>
<time>2022-05-26T12:14:08Z</time>
</trkpt>
<trkpt lat="47.966003" lon="11.275365">
<ele>600.471</ele>
<time>2022-05-26T12:14:09Z</time>
</trkpt>
<trkpt lat="47.966003" lon="11.275289">
<ele>600.471</ele>
<time>2022-05-26T12:14:10Z</time>
</trkpt>
<trkpt lat="47.966007" lon="11.275211">
<ele>600.471</ele>
<time>2022-05-26T12:14:11Z</time>
</trkpt>
<trkpt lat="47.966007" lon="11.275136">
<ele>600.471</ele>
<time>2022-05-26T12:14:12Z</time>
</trkpt>
<trkpt lat="47.966011" lon="11.275061">
<ele>600.471</ele>
<time>2022-05-26T12:14:13Z</time>
</trkpt>
<trkpt lat="47.966011" lon="11.274983">
<ele>600.471</ele>
<time>2022-05-26T12:14:14Z</time>
</trkpt>
<trkpt lat="47.966011" lon="11.274906">
<ele>600.471</ele>
<time>2022-05-26T12:14:15Z</time>
</trkpt>
<trkpt lat="47.966011" lon="11.27483">
<ele>600.471</ele>
<time>2022-05-26T12:14:16Z</time>
</trkpt>
<trkpt lat="47.966011" lon="11.274752">
<ele>600.471</ele>
<time>2022-05-26T12:14:17Z</time>
</trkpt>
<trkpt lat="47.966011" lon="11.274677">
<ele>600.471</ele>
<time>2022-05-26T12:14:18Z</time>
</trkpt>
<trkpt lat="47.966011" lon="11.274604">
<ele>600.471</ele>
<time>2022-05-26T12:14:19Z</time>
</trkpt>
<trkpt lat="47.966011" lon="11.274529">
<ele>600.471</ele>
<time>2022-05-26T12:14:20Z</time>
</trkpt>
<trkpt lat="47.966011" lon="11.274455">
<ele>600.471</ele>
<time>2022-05-26T12:14:21Z</time>
</trkpt>
<trkpt lat="47.966011" lon="11.274384">
<ele>600.471</ele>
<time>2022-05-26T12:14:22Z</time>
</trkpt>
<trkpt lat="47.966015" lon="11.274315">
<ele>600.471</ele>
<time>2022-05-26T12:14:23Z</time>
</trkpt>
<trkpt lat="47.966015" lon="11.274246">
<ele>600.471</ele>
<time>2022-05-26T12:14:24Z</time>
</trkpt>
<trkpt lat="47.966019" lon="11.274181">
<ele>600.471</ele>
<time>2022-05-26T12:14:25Z</time>
</trkpt>
<trkpt lat="47.966019" lon="11.274116">
<ele>600.471</ele>
<time>2022-05-26T12:14:26Z</time>
</trkpt>
<trkpt lat="47.966022" lon="11.274049">
<ele>600.471</ele>
<time>2022-05-26T12:14:27Z</time>
</trkpt>
<trkpt lat="47.966026" lon="11.273985">
<ele>600.471</ele>
<time>2022-05-26T12:14:28Z</time>
</trkpt>
<trkpt lat="47.966026" lon="11.27392">
<ele>600.471</ele>
<time>2022-05-26T12:14:29Z</time>
</trkpt>
<trkpt lat="47.966026" lon="11.273853">
<ele>600.471</ele>
<time>2022-05-26T12:14:30Z</time>
</trkpt>
<trkpt lat="47.96603" lon="11.273787">
<ele>600.471</ele>
<time>2022-05-26T12:14:31Z</time>
</trkpt>
<trkpt lat="47.966038" lon="11.273718">
<ele>600.471</ele>
<time>2022-05-26T12:14:32Z</time>
</trkpt>
<trkpt lat="47.966038" lon="11.27365">
<ele>600.471</ele>
<time>2022-05-26T12:14:33Z</time>
</trkpt>
<trkpt lat="47.966042" lon="11.273578">
<ele>600.471</ele>
<time>2022-05-26T12:14:34Z</time>
</trkpt>
<trkpt lat="47.966045" lon="11.273506">
<ele>600.471</ele>
<time>2022-05-26T12:14:35Z</time>
</trkpt>
<trkpt lat="47.966053" lon="11.273435">
<ele>600.471</ele>
<time>2022-05-26T12:14:36Z</time>
</trkpt>
<trkpt lat="47.966057" lon="11.273361">
<ele>600.471</ele>
<time>2022-05-26T12:14:37Z</time>
</trkpt>
<trkpt lat="47.966061" lon="11.273287">
<ele>600.471</ele>
<time>2022-05-26T12:14:38Z</time>
</trkpt>
<trkpt lat="47.966064" lon="11.273211">
<ele>600.471</ele>
<time>2022-05-26T12:14:39Z</time>
</trkpt>
<trkpt lat="47.966068" lon="11.273137">
<ele>600.471</ele>
<time>2022-05-26T12:14:40Z</time>
</trkpt>
<trkpt lat="47.966076" lon="11.27306">
<ele>600.471</ele>
<time>2022-05-26T12:14:41Z</time>
</trkpt>
<trkpt lat="47.96608" lon="11.272983">
<ele>600.471</ele>
<time>2022-05-26T12:14:42Z</time>
</trkpt>
<trkpt lat="47.966084" lon="11.272903">
<ele>600.471</ele>
<time>2022-05-26T12:14:43Z</time>
</trkpt>
<trkpt lat="47.966091" lon="11.272823">
<ele>600.471</ele>
<time>2022-05-26T12:14:44Z</time>
</trkpt>
<trkpt lat="47.966091" lon="11.272743">
<ele>600.471</ele>
<time>2022-05-26T12:14:45Z</time>
</trkpt>
<trkpt lat="47.966095" lon="11.272665">
<ele>600.471</ele>
<time>2022-05-26T12:14:46Z</time>
</trkpt>
<trkpt lat="47.966099" lon="11.27258">
<ele>600.471</ele>
<time>2022-05-26T12:14:47Z</time>
</trkpt>
<trkpt lat="47.966103" lon="11.272494">
<ele>600.471</ele>
<time>2022-05-26T12:14:48Z</time>
</trkpt>
<trkpt lat="47.966106" lon="11.272408">
<ele>600.471</ele>
<time>2022-05-26T12:14:49Z</time>
</trkpt>
<trkpt lat="47.96611" lon="11.272322">
<ele>600.471</ele>
<time>2022-05-26T12:14:50Z</time>
</trkpt>
<trkpt lat="47.966114" lon="11.272233">
<ele>600.471</ele>
<time>2022-05-26T12:14:51Z</time>
</trkpt>
<trkpt lat="47.966114" lon="11.272144">
<ele>600.471</ele>
<time>2022-05-26T12:14:52Z</time>
</trkpt>
<trkpt lat="47.966118" lon="11.272057">
<ele>600.471</ele>
<time>2022-05-26T12:14:53Z</time>
</trkpt>
<trkpt lat="47.966125" lon="11.271967">
<ele>600.471</ele>
<time>2022-05-26T12:14:54Z</time>
</trkpt>
<trkpt lat="47.966125" lon="11.271874">
<ele>600.471</ele>
<time>2022-05-26T12:14:55Z</time>
</trkpt>
<trkpt lat="47.966133" lon="11.271782">
<ele>600.471</ele>
<time>2022-05-26T12:14:56Z</time>
</trkpt>
<trkpt lat="47.966141" lon="11.271684">
<ele>600.471</ele>
<time>2022-05-26T12:14:57Z</time>
</trkpt>
<trkpt lat="47.966148" lon="11.271586">
<ele>600.471</ele>
<time>2022-05-26T12:14:58Z</time>
</trkpt>
<trkpt lat="47.966156" lon="11.271486">
<ele>600.471</ele>
<time>2022-05-26T12:14:59Z</time>
</trkpt>
<trkpt lat="47.96616" lon="11.271388">
<ele>600.471</ele>
<time>2022-05-26T12:15:00Z</time>
</trkpt>
<trkpt lat="47.966171" lon="11.271288">
<ele>600.471</ele>
<time>2022-05-26T12:15:01Z</time>
</trkpt>
<trkpt lat="47.966179" lon="11.271187">
<ele>600.224</ele>
<time>2022-05-26T12:15:02Z</time>
</trkpt>
<trkpt lat="47.966187" lon="11.271089">
<ele>600.033</ele>
<time>2022-05-26T12:15:03Z</time>
</trkpt>
<trkpt lat="47.96619" lon="11.27099">
<ele>599.904</ele>
<time>2022-05-26T12:15:04Z</time>
</trkpt>
<trkpt lat="47.966194" lon="11.270893">
<ele>599.766</ele>
<time>2022-05-26T12:15:05Z</time>
</trkpt>
<trkpt lat="47.966198" lon="11.270799">
<ele>599.658</ele>
<time>2022-05-26T12:15:06Z</time>
</trkpt>
<trkpt lat="47.966202" lon="11.270705">
<ele>599.581</ele>
<time>2022-05-26T12:15:07Z</time>
</trkpt>
<trkpt lat="47.966209" lon="11.270615">
<ele>599.531</ele>
<time>2022-05-26T12:15:08Z</time>
</trkpt>
<trkpt lat="47.966213" lon="11.270521">
<ele>599.506</ele>
<time>2022-05-26T12:15:09Z</time>
</trkpt>
<trkpt lat="47.966221" lon="11.270432">
<ele>599.279</ele>
<time>2022-05-26T12:15:10Z</time>
</trkpt>
<trkpt lat="47.966225" lon="11.270343">
<ele>599.098</ele>
<time>2022-05-26T12:15:11Z</time>
</trkpt>
<trkpt lat="47.966228" lon="11.270255">
<ele>598.958</ele>
<time>2022-05-26T12:15:12Z</time>
</trkpt>
<trkpt lat="47.966236" lon="11.270168">
<ele>598.854</ele>
<time>2022-05-26T12:15:13Z</time>
</trkpt>
<trkpt lat="47.966244" lon="11.270083">
<ele>598.778</ele>
<time>2022-05-26T12:15:14Z</time>
</trkpt>
<trkpt lat="47.966248" lon="11.269999">
<ele>598.702</ele>
<time>2022-05-26T12:15:15Z</time>
</trkpt>
<trkpt lat="47.966255" lon="11.269914">
<ele>598.653</ele>
<time>2022-05-26T12:15:16Z</time>
</trkpt>
<trkpt lat="47.966255" lon="11.269832">
<ele>598.63</ele>
<time>2022-05-26T12:15:17Z</time>
</trkpt>
<trkpt lat="47.966259" lon="11.26975">
<ele>598.63</ele>
<time>2022-05-26T12:15:18Z</time>
</trkpt>
<trkpt lat="47.966267" lon="11.269667">
<ele>598.864</ele>
<time>2022-05-26T12:15:19Z</time>
</trkpt>
<trkpt lat="47.96627" lon="11.269585">
<ele>599.049</ele>
<time>2022-05-26T12:15:20Z</time>
</trkpt>
<trkpt lat="47.966274" lon="11.269503">
<ele>599.192</ele>
<time>2022-05-26T12:15:21Z</time>
</trkpt>
<trkpt lat="47.966282" lon="11.269423">
<ele>599.299</ele>
<time>2022-05-26T12:15:22Z</time>
</trkpt>
<trkpt lat="47.966286" lon="11.269343">
<ele>599.376</ele>
<time>2022-05-26T12:15:23Z</time>
</trkpt>
<trkpt lat="47.966286" lon="11.269266">
<ele>599.432</ele>
<time>2022-05-26T12:15:24Z</time>
</trkpt>
<trkpt lat="47.96629" lon="11.269186">
<ele>599.483</ele>
<time>2022-05-26T12:15:25Z</time>
</trkpt>
<trkpt lat="47.966293" lon="11.269109">
<ele>599.507</ele>
<time>2022-05-26T12:15:26Z</time>
</trkpt>
<trkpt lat="47.966301" lon="11.269033">
<ele>599.507</ele>
<time>2022-05-26T12:15:27Z</time>
</trkpt>
<trkpt lat="47.966305" lon="11.268958">
<ele>599.507</ele>
<time>2022-05-26T12:15:28Z</time>
</trkpt>
<trkpt lat="47.966309" lon="11.268883">
<ele>599.507</ele>
<time>2022-05-26T12:15:29Z</time>
</trkpt>
<trkpt lat="47.966309" lon="11.268806">
<ele>599.507</ele>
<time>2022-05-26T12:15:30Z</time>
</trkpt>
<trkpt lat="47.966312" lon="11.268728">
<ele>599.506</ele>
<time>2022-05-26T12:15:31Z</time>
</trkpt>
<trkpt lat="47.96632" lon="11.26865">
<ele>599.507</ele>
<time>2022-05-26T12:15:32Z</time>
</trkpt>
<trkpt lat="47.96632" lon="11.26857">
<ele>599.507</ele>
<time>2022-05-26T12:15:33Z</time>
</trkpt>
<trkpt lat="47.966324" lon="11.26849">
<ele>599.507</ele>
<time>2022-05-26T12:15:34Z</time>
</trkpt>
<trkpt lat="47.966328" lon="11.268411">
<ele>599.507</ele>
<time>2022-05-26T12:15:35Z</time>
</trkpt>
<trkpt lat="47.966331" lon="11.26833">
<ele>599.507</ele>
<time>2022-05-26T12:15:36Z</time>
</trkpt>
<trkpt lat="47.966335" lon="11.26825">
<ele>599.506</ele>
<time>2022-05-26T12:15:37Z</time>
</trkpt>
<trkpt lat="47.966339" lon="11.268168">
<ele>599.507</ele>
<time>2022-05-26T12:15:38Z</time>
</trkpt>
<trkpt lat="47.966343" lon="11.268085">
<ele>599.507</ele>
<time>2022-05-26T12:15:39Z</time>
</trkpt>
<trkpt lat="47.966347" lon="11.268002">
<ele>599.507</ele>
<time>2022-05-26T12:15:40Z</time>
</trkpt>
<trkpt lat="47.966351" lon="11.267917">
<ele>599.507</ele>
<time>2022-05-26T12:15:41Z</time>
</trkpt>
<trkpt lat="47.966354" lon="11.267832">
<ele>599.507</ele>
<time>2022-05-26T12:15:42Z</time>
</trkpt>
<trkpt lat="47.966358" lon="11.267747">
<ele>599.507</ele>
<time>2022-05-26T12:15:43Z</time>
</trkpt>
<trkpt lat="47.966366" lon="11.267661">
<ele>599.506</ele>
<time>2022-05-26T12:15:44Z</time>
</trkpt>
<trkpt lat="47.96637" lon="11.267577">
<ele>599.507</ele>
<time>2022-05-26T12:15:45Z</time>
</trkpt>
<trkpt lat="47.96637" lon="11.267489">
<ele>599.507</ele>
<time>2022-05-26T12:15:46Z</time>
</trkpt>
<trkpt lat="47.966373" lon="11.267406">
<ele>599.506</ele>
<time>2022-05-26T12:15:47Z</time>
</trkpt>
<trkpt lat="47.966377" lon="11.267319">
<ele>599.506</ele>
<time>2022-05-26T12:15:48Z</time>
</trkpt>
<trkpt lat="47.966377" lon="11.267234">
<ele>599.506</ele>
<time>2022-05-26T12:15:49Z</time>
</trkpt>
<trkpt lat="47.966381" lon="11.267147">
<ele>599.507</ele>
<time>2022-05-26T12:15:50Z</time>
</trkpt>
<trkpt lat="47.966381" lon="11.267058">
<ele>599.507</ele>
<time>2022-05-26T12:15:51Z</time>
</trkpt>
<trkpt lat="47.966385" lon="11.266973">
<ele>599.506</ele>
<time>2022-05-26T12:15:52Z</time>
</trkpt>
<trkpt lat="47.966389" lon="11.266888">
<ele>599.507</ele>
<time>2022-05-26T12:15:53Z</time>
</trkpt>
<trkpt lat="47.966393" lon="11.266802">
<ele>599.507</ele>
<time>2022-05-26T12:15:54Z</time>
</trkpt>
<trkpt lat="47.966396" lon="11.266716">
<ele>599.507</ele>
<time>2022-05-26T12:15:55Z</time>
</trkpt>
<trkpt lat="47.9664" lon="11.26663">
<ele>599.507</ele>
<time>2022-05-26T12:15:56Z</time>
</trkpt>
<trkpt lat="47.966404" lon="11.266546">
<ele>599.506</ele>
<time>2022-05-26T12:15:57Z</time>
</trkpt>
<trkpt lat="47.966404" lon="11.266463">
<ele>599.507</ele>
<time>2022-05-26T12:15:58Z</time>
</trkpt>
<trkpt lat="47.9664" lon="11.266383">
<ele>599.507</ele>
<time>2022-05-26T12:15:59Z</time>
</trkpt>
<trkpt lat="47.966396" lon="11.266305">
<ele>599.507</ele>
<time>2022-05-26T12:16:00Z</time>
</trkpt>
<trkpt lat="47.966393" lon="11.266226">
<ele>599.507</ele>
<time>2022-05-26T12:16:01Z</time>
</trkpt>
<trkpt lat="47.966389" lon="11.266152">
<ele>599.507</ele>
<time>2022-05-26T12:16:02Z</time>
</trkpt>
<trkpt lat="47.966389" lon="11.266082">
<ele>599.506</ele>
<time>2022-05-26T12:16:03Z</time>
</trkpt>
<trkpt lat="47.966385" lon="11.266016">
<ele>599.507</ele>
<time>2022-05-26T12:16:04Z</time>
</trkpt>
<trkpt lat="47.966385" lon="11.265949">
<ele>599.507</ele>
<time>2022-05-26T12:16:05Z</time>
</trkpt>
<trkpt lat="47.966385" lon="11.26588">
<ele>599.507</ele>
<time>2022-05-26T12:16:06Z</time>
</trkpt>
<trkpt lat="47.966381" lon="11.265803">
<ele>599.506</ele>
<time>2022-05-26T12:16:07Z</time>
</trkpt>
<trkpt lat="47.966373" lon="11.265725">
<ele>599.507</ele>
<time>2022-05-26T12:16:08Z</time>
</trkpt>
<trkpt lat="47.966366" lon="11.265647">
<ele>599.507</ele>
<time>2022-05-26T12:16:09Z</time>
</trkpt>
<trkpt lat="47.966362" lon="11.265565">
<ele>599.507</ele>
<time>2022-05-26T12:16:10Z</time>
</trkpt>
<trkpt lat="47.966358" lon="11.265485">
<ele>599.507</ele>
<time>2022-05-26T12:16:11Z</time>
</trkpt>
<trkpt lat="47.966358" lon="11.265405">
<ele>599.507</ele>
<time>2022-05-26T12:16:12Z</time>
</trkpt>
<trkpt lat="47.966351" lon="11.265325">
<ele>599.507</ele>
<time>2022-05-26T12:16:13Z</time>
</trkpt>
<trkpt lat="47.966347" lon="11.265248">
<ele>599.507</ele>
<time>2022-05-26T12:16:14Z</time>
</trkpt>
<trkpt lat="47.966343" lon="11.26517">
<ele>599.507</ele>
<time>2022-05-26T12:16:15Z</time>
</trkpt>
<trkpt lat="47.966339" lon="11.26509">
<ele>599.507</ele>
<time>2022-05-26T12:16:16Z</time>
</trkpt>
<trkpt lat="47.966335" lon="11.26501">
<ele>599.507</ele>
<time>2022-05-26T12:16:17Z</time>
</trkpt>
<trkpt lat="47.966328" lon="11.264929">
<ele>599.507</ele>
<time>2022-05-26T12:16:18Z</time>
</trkpt>
<trkpt lat="47.966328" lon="11.264845">
<ele>599.507</ele>
<time>2022-05-26T12:16:19Z</time>
</trkpt>
<trkpt lat="47.966328" lon="11.264762">
<ele>599.506</ele>
<time>2022-05-26T12:16:20Z</time>
</trkpt>
<trkpt lat="47.96632" lon="11.264677">
<ele>599.507</ele>
<time>2022-05-26T12:16:21Z</time>
</trkpt>
<trkpt lat="47.96632" lon="11.264595">
<ele>599.507</ele>
<time>2022-05-26T12:16:22Z</time>
</trkpt>
<trkpt lat="47.966316" lon="11.264514">
<ele>599.507</ele>
<time>2022-05-26T12:16:23Z</time>
</trkpt>
<trkpt lat="47.966312" lon="11.26443">
<ele>599.507</ele>
<time>2022-05-26T12:16:24Z</time>
</trkpt>
<trkpt lat="47.966312" lon="11.264345">
<ele>599.507</ele>
<time>2022-05-26T12:16:25Z</time>
</trkpt>
<trkpt lat="47.966312" lon="11.26426">
<ele>599.507</ele>
<time>2022-05-26T12:16:26Z</time>
</trkpt>
<trkpt lat="47.966312" lon="11.264173">
<ele>599.507</ele>
<time>2022-05-26T12:16:27Z</time>
</trkpt>
<trkpt lat="47.966316" lon="11.264089">
<ele>599.506</ele>
<time>2022-05-26T12:16:28Z</time>
</trkpt>
<trkpt lat="47.96632" lon="11.264003">
<ele>599.507</ele>
<time>2022-05-26T12:16:29Z</time>
</trkpt>
<trkpt lat="47.96632" lon="11.263919">
<ele>599.507</ele>
<time>2022-05-26T12:16:30Z</time>
</trkpt>
<trkpt lat="47.966324" lon="11.263835">
<ele>599.507</ele>
<time>2022-05-26T12:16:31Z</time>
</trkpt>
<trkpt lat="47.966328" lon="11.263752">
<ele>599.507</ele>
<time>2022-05-26T12:16:32Z</time>
</trkpt>
<trkpt lat="47.966335" lon="11.263668">
<ele>599.506</ele>
<time>2022-05-26T12:16:33Z</time>
</trkpt>
<trkpt lat="47.966339" lon="11.263586">
<ele>599.506</ele>
<time>2022-05-26T12:16:34Z</time>
</trkpt>
<trkpt lat="47.966347" lon="11.263504">
<ele>599.507</ele>
<time>2022-05-26T12:16:35Z</time>
</trkpt>
<trkpt lat="47.966351" lon="11.26342">
<ele>599.506</ele>
<time>2022-05-26T12:16:36Z</time>
</trkpt>
<trkpt lat="47.966354" lon="11.263336">
<ele>599.507</ele>
<time>2022-05-26T12:16:37Z</time>
</trkpt>
<trkpt lat="47.966358" lon="11.26325">
<ele>599.507</ele>
<time>2022-05-26T12:16:38Z</time>
</trkpt>
<trkpt lat="47.966362" lon="11.263166">
<ele>599.506</ele>
<time>2022-05-26T12:16:39Z</time>
</trkpt>
<trkpt lat="47.966366" lon="11.263083">
<ele>599.506</ele>
<time>2022-05-26T12:16:40Z</time>
</trkpt>
<trkpt lat="47.966373" lon="11.262999">
<ele>599.507</ele>
<time>2022-05-26T12:16:41Z</time>
</trkpt>
<trkpt lat="47.966377" lon="11.262918">
<ele>599.507</ele>
<time>2022-05-26T12:16:42Z</time>
</trkpt>
<trkpt lat="47.966381" lon="11.26283">
<ele>599.763</ele>
<time>2022-05-26T12:16:43Z</time>
</trkpt>
<trkpt lat="47.966385" lon="11.262745">
<ele>599.945</ele>
<time>2022-05-26T12:16:44Z</time>
</trkpt>
<trkpt lat="47.966389" lon="11.262662">
<ele>600.131</ele>
<time>2022-05-26T12:16:45Z</time>
</trkpt>
<trkpt lat="47.966396" lon="11.26258">
<ele>600.28</ele>
<time>2022-05-26T12:16:46Z</time>
</trkpt>
<trkpt lat="47.9664" lon="11.262499">
<ele>600.397</ele>
<time>2022-05-26T12:16:47Z</time>
</trkpt>
<trkpt lat="47.966408" lon="11.262417">
<ele>600.48</ele>
<time>2022-05-26T12:16:48Z</time>
</trkpt>
<trkpt lat="47.966415" lon="11.262335">
<ele>600.532</ele>
<time>2022-05-26T12:16:49Z</time>
</trkpt>
<trkpt lat="47.966415" lon="11.262256">
<ele>600.558</ele>
<time>2022-05-26T12:16:50Z</time>
</trkpt>
<trkpt lat="47.966419" lon="11.262177">
<ele>600.558</ele>
<time>2022-05-26T12:16:51Z</time>
</trkpt>
<trkpt lat="47.966427" lon="11.262098">
<ele>600.559</ele>
<time>2022-05-26T12:16:52Z</time>
</trkpt>
<trkpt lat="47.966431" lon="11.262016">
<ele>600.559</ele>
<time>2022-05-26T12:16:53Z</time>
</trkpt>
<trkpt lat="47.966438" lon="11.261935">
<ele>600.558</ele>
<time>2022-05-26T12:16:54Z</time>
</trkpt>
<trkpt lat="47.966442" lon="11.261855">
<ele>600.559</ele>
<time>2022-05-26T12:16:55Z</time>
</trkpt>
<trkpt lat="47.966446" lon="11.261775">
<ele>600.559</ele>
<time>2022-05-26T12:16:56Z</time>
</trkpt>
<trkpt lat="47.96645" lon="11.261695">
<ele>600.558</ele>
<time>2022-05-26T12:16:57Z</time>
</trkpt>
<trkpt lat="47.966454" lon="11.261615">
<ele>600.559</ele>
<time>2022-05-26T12:16:58Z</time>
</trkpt>
<trkpt lat="47.966457" lon="11.261533">
<ele>600.558</ele>
<time>2022-05-26T12:16:59Z</time>
</trkpt>
<trkpt lat="47.966461" lon="11.261452">
<ele>600.813</ele>
<time>2022-05-26T12:17:00Z</time>
</trkpt>
<trkpt lat="47.966465" lon="11.261372">
<ele>601.012</ele>
<time>2022-05-26T12:17:01Z</time>
</trkpt>
<trkpt lat="47.966473" lon="11.26129">
<ele>601.168</ele>
<time>2022-05-26T12:17:02Z</time>
</trkpt>
<trkpt lat="47.966476" lon="11.261212">
<ele>601.283</ele>
<time>2022-05-26T12:17:03Z</time>
</trkpt>
<trkpt lat="47.966484" lon="11.261132">
<ele>601.363</ele>
<time>2022-05-26T12:17:04Z</time>
</trkpt>
<trkpt lat="47.966484" lon="11.261051">
<ele>601.445</ele>
<time>2022-05-26T12:17:05Z</time>
</trkpt>
<trkpt lat="47.966492" lon="11.260971">
<ele>601.498</ele>
<time>2022-05-26T12:17:06Z</time>
</trkpt>
<trkpt lat="47.966496" lon="11.260892">
<ele>601.523</ele>
<time>2022-05-26T12:17:07Z</time>
</trkpt>
<trkpt lat="47.966499" lon="11.260815">
<ele>601.523</ele>
<time>2022-05-26T12:17:08Z</time>
</trkpt>
<trkpt lat="47.966503" lon="11.260735">
<ele>601.523</ele>
<time>2022-05-26T12:17:09Z</time>
</trkpt>
<trkpt lat="47.966507" lon="11.260653">
<ele>601.523</ele>
<time>2022-05-26T12:17:10Z</time>
</trkpt>
<trkpt lat="47.966511" lon="11.260571">
<ele>601.523</ele>
<time>2022-05-26T12:17:11Z</time>
</trkpt>
<trkpt lat="47.966515" lon="11.260491">
<ele>601.523</ele>
<time>2022-05-26T12:17:12Z</time>
</trkpt>
<trkpt lat="47.966515" lon="11.260408">
<ele>601.523</ele>
<time>2022-05-26T12:17:13Z</time>
</trkpt>
<trkpt lat="47.966515" lon="11.260328">
<ele>601.523</ele>
<time>2022-05-26T12:17:14Z</time>
</trkpt>
<trkpt lat="47.966518" lon="11.26025">
<ele>601.523</ele>
<time>2022-05-26T12:17:15Z</time>
</trkpt>
<trkpt lat="47.966518" lon="11.260173">
<ele>601.523</ele>
<time>2022-05-26T12:17:16Z</time>
</trkpt>
<trkpt lat="47.966522" lon="11.260098">
<ele>601.523</ele>
<time>2022-05-26T12:17:17Z</time>
</trkpt>
<trkpt lat="47.966522" lon="11.260018">
<ele>601.523</ele>
<time>2022-05-26T12:17:18Z</time>
</trkpt>
<trkpt lat="47.966526" lon="11.259942">
<ele>601.783</ele>
<time>2022-05-26T12:17:19Z</time>
</trkpt>
<trkpt lat="47.966522" lon="11.259867">
<ele>601.985</ele>
<time>2022-05-26T12:17:20Z</time>
</trkpt>
<trkpt lat="47.966522" lon="11.259793">
<ele>602.143</ele>
<time>2022-05-26T12:17:21Z</time>
</trkpt>
<trkpt lat="47.966522" lon="11.259718">
<ele>602.262</ele>
<time>2022-05-26T12:17:22Z</time>
</trkpt>
<trkpt lat="47.966522" lon="11.259644">
<ele>602.344</ele>
<time>2022-05-26T12:17:23Z</time>
</trkpt>
<trkpt lat="47.966522" lon="11.259568">
<ele>602.406</ele>
<time>2022-05-26T12:17:24Z</time>
</trkpt>
<trkpt lat="47.966518" lon="11.259494">
<ele>602.461</ele>
<time>2022-05-26T12:17:25Z</time>
</trkpt>
<trkpt lat="47.966518" lon="11.25942">
<ele>602.487</ele>
<time>2022-05-26T12:17:26Z</time>
</trkpt>
<trkpt lat="47.966515" lon="11.259347">
<ele>602.487</ele>
<time>2022-05-26T12:17:27Z</time>
</trkpt>
<trkpt lat="47.966515" lon="11.259274">
<ele>602.487</ele>
<time>2022-05-26T12:17:28Z</time>
</trkpt>
<trkpt lat="47.966507" lon="11.259196">
<ele>602.487</ele>
<time>2022-05-26T12:17:29Z</time>
</trkpt>
<trkpt lat="47.966503" lon="11.25912">
<ele>602.487</ele>
<time>2022-05-26T12:17:30Z</time>
</trkpt>
<trkpt lat="47.966496" lon="11.259046">
<ele>602.487</ele>
<time>2022-05-26T12:17:31Z</time>
</trkpt>
<trkpt lat="47.966484" lon="11.258973">
<ele>602.487</ele>
<time>2022-05-26T12:17:32Z</time>
</trkpt>
<trkpt lat="47.966473" lon="11.258905">
<ele>602.487</ele>
<time>2022-05-26T12:17:33Z</time>
</trkpt>
<trkpt lat="47.966457" lon="11.258842">
<ele>602.701</ele>
<time>2022-05-26T12:17:34Z</time>
</trkpt>
<trkpt lat="47.966434" lon="11.258777">
<ele>602.901</ele>
<time>2022-05-26T12:17:35Z</time>
</trkpt>
<trkpt lat="47.966412" lon="11.258715">
<ele>603.066</ele>
<time>2022-05-26T12:17:36Z</time>
</trkpt>
<trkpt lat="47.966385" lon="11.258652">
<ele>603.197</ele>
<time>2022-05-26T12:17:37Z</time>
</trkpt>
<trkpt lat="47.966358" lon="11.258589">
<ele>603.302</ele>
<time>2022-05-26T12:17:38Z</time>
</trkpt>
<trkpt lat="47.966335" lon="11.258525">
<ele>603.379</ele>
<time>2022-05-26T12:17:39Z</time>
</trkpt>
<trkpt lat="47.966309" lon="11.258462">
<ele>603.429</ele>
<time>2022-05-26T12:17:40Z</time>
</trkpt>
<trkpt lat="47.966282" lon="11.2584">
<ele>603.452</ele>
<time>2022-05-26T12:17:41Z</time>
</trkpt>
<trkpt lat="47.966255" lon="11.258337">
<ele>603.452</ele>
<time>2022-05-26T12:17:42Z</time>
</trkpt>
<trkpt lat="47.966225" lon="11.258277">
<ele>603.452</ele>
<time>2022-05-26T12:17:43Z</time>
</trkpt>
<trkpt lat="47.966202" lon="11.258217">
<ele>603.452</ele>
<time>2022-05-26T12:17:44Z</time>
</trkpt>
<trkpt lat="47.966175" lon="11.25816">
<ele>603.452</ele>
<time>2022-05-26T12:17:45Z</time>
</trkpt>
<trkpt lat="47.966137" lon="11.258115">
<ele>603.452</ele>
<time>2022-05-26T12:17:46Z</time>
</trkpt>
<trkpt lat="47.966099" lon="11.25808">
<ele>603.452</ele>
<time>2022-05-26T12:17:47Z</time>
</trkpt>
<trkpt lat="47.966061" lon="11.258052">
<ele>603.452</ele>
<time>2022-05-26T12:17:48Z</time>
</trkpt>
<trkpt lat="47.96603" lon="11.258013">
<ele>603.452</ele>
<time>2022-05-26T12:17:49Z</time>
</trkpt>
<trkpt lat="47.966015" lon="11.257969">
<ele>603.452</ele>
<time>2022-05-26T12:17:50Z</time>
</trkpt>
<trkpt lat="47.965996" lon="11.257915">
<ele>603.452</ele>
<time>2022-05-26T12:17:51Z</time>
</trkpt>
<trkpt lat="47.965981" lon="11.25786">
<ele>603.452</ele>
<time>2022-05-26T12:17:52Z</time>
</trkpt>
<trkpt lat="47.965961" lon="11.257805">
<ele>603.452</ele>
<time>2022-05-26T12:17:53Z</time>
</trkpt>
<trkpt lat="47.965942" lon="11.257749">
<ele>603.452</ele>
<time>2022-05-26T12:17:54Z</time>
</trkpt>
<trkpt lat="47.965927" lon="11.257693">
<ele>603.452</ele>
<time>2022-05-26T12:17:55Z</time>
</trkpt>
<trkpt lat="47.965904" lon="11.257638">
<ele>603.452</ele>
<time>2022-05-26T12:17:56Z</time>
</trkpt>
<trkpt lat="47.965889" lon="11.257586">
<ele>603.452</ele>
<time>2022-05-26T12:17:57Z</time>
</trkpt>
<trkpt lat="47.965862" lon="11.257533">
<ele>603.727</ele>
<time>2022-05-26T12:17:58Z</time>
</trkpt>
<trkpt lat="47.965843" lon="11.257481">
<ele>603.936</ele>
<time>2022-05-26T12:17:59Z</time>
</trkpt>
<trkpt lat="47.965832" lon="11.257423">
<ele>604.091</ele>
<time>2022-05-26T12:18:00Z</time>
</trkpt>
<trkpt lat="47.965816" lon="11.257374">
<ele>604.212</ele>
<time>2022-05-26T12:18:01Z</time>
</trkpt>
<trkpt lat="47.965801" lon="11.257325">
<ele>604.294</ele>
<time>2022-05-26T12:18:02Z</time>
</trkpt>
<trkpt lat="47.965794" lon="11.257277">
<ele>604.346</ele>
<time>2022-05-26T12:18:03Z</time>
</trkpt>
<trkpt lat="47.965786" lon="11.257225">
<ele>604.389</ele>
<time>2022-05-26T12:18:04Z</time>
</trkpt>
<trkpt lat="47.965778" lon="11.257174">
<ele>604.417</ele>
<time>2022-05-26T12:18:05Z</time>
</trkpt>
<trkpt lat="47.965778" lon="11.25712">
<ele>604.417</ele>
<time>2022-05-26T12:18:06Z</time>
</trkpt>
<trkpt lat="47.965778" lon="11.257067">
<ele>604.417</ele>
<time>2022-05-26T12:18:07Z</time>
</trkpt>
<trkpt lat="47.96579" lon="11.25702">
<ele>604.417</ele>
<time>2022-05-26T12:18:08Z</time>
</trkpt>
<trkpt lat="47.965813" lon="11.256984">
<ele>604.417</ele>
<time>2022-05-26T12:18:09Z</time>
</trkpt>
<trkpt lat="47.965836" lon="11.256953">
<ele>604.417</ele>
<time>2022-05-26T12:18:10Z</time>
</trkpt>
<trkpt lat="47.965862" lon="11.256926">
<ele>604.417</ele>
<time>2022-05-26T12:18:11Z</time>
</trkpt>
<trkpt lat="47.965893" lon="11.256892">
<ele>604.417</ele>
<time>2022-05-26T12:18:12Z</time>
</trkpt>
<trkpt lat="47.965912" lon="11.25685">
<ele>604.417</ele>
<time>2022-05-26T12:18:13Z</time>
</trkpt>
<trkpt lat="47.965927" lon="11.256802">
<ele>604.417</ele>
<time>2022-05-26T12:18:14Z</time>
</trkpt>
<trkpt lat="47.965927" lon="11.256747">
<ele>604.417</ele>
<time>2022-05-26T12:18:15Z</time>
</trkpt>
<trkpt lat="47.965923" lon="11.256691">
<ele>604.417</ele>
<time>2022-05-26T12:18:16Z</time>
</trkpt>
<trkpt lat="47.965904" lon="11.256639">
<ele>604.417</ele>
<time>2022-05-26T12:18:17Z</time>
</trkpt>
<trkpt lat="47.965893" lon="11.256588">
<ele>604.417</ele>
<time>2022-05-26T12:18:18Z</time>
</trkpt>
<trkpt lat="47.965878" lon="11.256543">
<ele>604.417</ele>
<time>2022-05-26T12:18:19Z</time>
</trkpt>
<trkpt lat="47.965862" lon="11.256498">
<ele>604.417</ele>
<time>2022-05-26T12:18:20Z</time>
</trkpt>
<trkpt lat="47.965843" lon="11.256458">
<ele>604.417</ele>
<time>2022-05-26T12:18:21Z</time>
</trkpt>
<trkpt lat="47.965824" lon="11.256416">
<ele>604.417</ele>
<time>2022-05-26T12:18:22Z</time>
</trkpt>
<trkpt lat="47.965797" lon="11.256376">
<ele>604.417</ele>
<time>2022-05-26T12:18:23Z</time>
</trkpt>
<trkpt lat="47.965771" lon="11.256341">
<ele>604.417</ele>
<time>2022-05-26T12:18:24Z</time>
</trkpt>
<trkpt lat="47.965748" lon="11.256313">
<ele>604.417</ele>
<time>2022-05-26T12:18:25Z</time>
</trkpt>
<trkpt lat="47.965721" lon="11.256291">
<ele>604.417</ele>
<time>2022-05-26T12:18:26Z</time>
</trkpt>
<trkpt lat="47.965691" lon="11.25627">
<ele>604.417</ele>
<time>2022-05-26T12:18:27Z</time>
</trkpt>
<trkpt lat="47.965656" lon="11.256251">
<ele>604.417</ele>
<time>2022-05-26T12:18:28Z</time>
</trkpt>
<trkpt lat="47.96563" lon="11.256235">
<ele>604.417</ele>
<time>2022-05-26T12:18:29Z</time>
</trkpt>
<trkpt lat="47.965603" lon="11.256215">
<ele>604.417</ele>
<time>2022-05-26T12:18:30Z</time>
</trkpt>
<trkpt lat="47.965572" lon="11.256202">
<ele>604.658</ele>
<time>2022-05-26T12:18:31Z</time>
</trkpt>
<trkpt lat="47.965546" lon="11.256184">
<ele>604.853</ele>
<time>2022-05-26T12:18:32Z</time>
</trkpt>
<trkpt lat="47.965523" lon="11.256169">
<ele>605.005</ele>
<time>2022-05-26T12:18:33Z</time>
</trkpt>
<trkpt lat="47.9655" lon="11.256159">
<ele>605.105</ele>
<time>2022-05-26T12:18:34Z</time>
</trkpt>
<trkpt lat="47.965485" lon="11.256136">
<ele>605.21</ele>
<time>2022-05-26T12:18:35Z</time>
</trkpt>
<trkpt lat="47.965477" lon="11.25611">
<ele>605.294</ele>
<time>2022-05-26T12:18:36Z</time>
</trkpt>
<trkpt lat="47.965473" lon="11.256077">
<ele>605.357</ele>
<time>2022-05-26T12:18:37Z</time>
</trkpt>
<trkpt lat="47.965466" lon="11.256039">
<ele>605.381</ele>
<time>2022-05-26T12:18:38Z</time>
</trkpt>
<trkpt lat="47.965462" lon="11.256014">
<ele>605.381</ele>
<time>2022-05-26T12:18:39Z</time>
</trkpt>
<trkpt lat="47.965458" lon="11.255989">
<ele>605.381</ele>
<time>2022-05-26T12:18:40Z</time>
</trkpt>
<trkpt lat="47.965446" lon="11.255952">
<ele>605.381</ele>
<time>2022-05-26T12:18:41Z</time>
</trkpt>
<trkpt lat="47.965439" lon="11.255907">
<ele>605.381</ele>
<time>2022-05-26T12:18:42Z</time>
</trkpt>
<trkpt lat="47.965427" lon="11.255858">
<ele>605.381</ele>
<time>2022-05-26T12:18:43Z</time>
</trkpt>
<trkpt lat="47.965408" lon="11.25581">
<ele>605.381</ele>
<time>2022-05-26T12:18:44Z</time>
</trkpt>
<trkpt lat="47.965385" lon="11.255763">
<ele>605.381</ele>
<time>2022-05-26T12:18:45Z</time>
</trkpt>
<trkpt lat="47.965374" lon="11.255721">
<ele>605.381</ele>
<time>2022-05-26T12:18:46Z</time>
</trkpt>
<trkpt lat="47.96537" lon="11.255669">
<ele>605.381</ele>
<time>2022-05-26T12:18:47Z</time>
</trkpt>
<trkpt lat="47.965359" lon="11.255611">
<ele>605.381</ele>
<time>2022-05-26T12:18:48Z</time>
</trkpt>
<trkpt lat="47.965347" lon="11.255545">
<ele>605.382</ele>
<time>2022-05-26T12:18:49Z</time>
</trkpt>
<trkpt lat="47.96534" lon="11.25548">
<ele>605.381</ele>
<time>2022-05-26T12:18:50Z</time>
</trkpt>
<trkpt lat="47.965332" lon="11.255419">
<ele>605.381</ele>
<time>2022-05-26T12:18:51Z</time>
</trkpt>
<trkpt lat="47.965324" lon="11.255361">
<ele>605.382</ele>
<time>2022-05-26T12:18:52Z</time>
</trkpt>
<trkpt lat="47.965309" lon="11.255301">
<ele>605.381</ele>
<time>2022-05-26T12:18:53Z</time>
</trkpt>
<trkpt lat="47.96529" lon="11.255243">
<ele>605.381</ele>
<time>2022-05-26T12:18:54Z</time>
</trkpt>
<trkpt lat="47.965275" lon="11.255187">
<ele>605.64</ele>
<time>2022-05-26T12:18:55Z</time>
</trkpt>
<trkpt lat="47.965248" lon="11.255138">
<ele>605.851</ele>
<time>2022-05-26T12:18:56Z</time>
</trkpt>
<trkpt lat="47.965225" lon="11.255095">
<ele>606.021</ele>
<time>2022-05-26T12:18:57Z</time>
</trkpt>
<trkpt lat="47.96521" lon="11.255051">
<ele>606.166</ele>
<time>2022-05-26T12:18:58Z</time>
</trkpt>
<trkpt lat="47.965191" lon="11.254995">
<ele>606.278</ele>
<time>2022-05-26T12:18:59Z</time>
</trkpt>
<trkpt lat="47.965172" lon="11.254944">
<ele>606.358</ele>
<time>2022-05-26T12:19:00Z</time>
</trkpt>
<trkpt lat="47.965145" lon="11.254891">
<ele>606.409</ele>
<time>2022-05-26T12:19:01Z</time>
</trkpt>
<trkpt lat="47.965126" lon="11.254842">
<ele>606.434</ele>
<time>2022-05-26T12:19:02Z</time>
</trkpt>
<trkpt lat="47.965099" lon="11.254797">
<ele>606.434</ele>
<time>2022-05-26T12:19:03Z</time>
</trkpt>
<trkpt lat="47.965073" lon="11.254751">
<ele>606.434</ele>
<time>2022-05-26T12:19:04Z</time>
</trkpt>
<trkpt lat="47.965054" lon="11.254701">
<ele>606.434</ele>
<time>2022-05-26T12:19:05Z</time>
</trkpt>
<trkpt lat="47.965034" lon="11.254652">
<ele>606.434</ele>
<time>2022-05-26T12:19:06Z</time>
</trkpt>
<trkpt lat="47.965027" lon="11.254601">
<ele>606.434</ele>
<time>2022-05-26T12:19:07Z</time>
</trkpt>
<trkpt lat="47.965027" lon="11.254541">
<ele>606.434</ele>
<time>2022-05-26T12:19:08Z</time>
</trkpt>
<trkpt lat="47.965023" lon="11.254477">
<ele>606.434</ele>
<time>2022-05-26T12:19:09Z</time>
</trkpt>
<trkpt lat="47.965023" lon="11.254405">
<ele>606.434</ele>
<time>2022-05-26T12:19:10Z</time>
</trkpt>
<trkpt lat="47.965019" lon="11.254334">
<ele>606.434</ele>
<time>2022-05-26T12:19:11Z</time>
</trkpt>
<trkpt lat="47.965015" lon="11.254267">
<ele>606.434</ele>
<time>2022-05-26T12:19:12Z</time>
</trkpt>
<trkpt lat="47.965012" lon="11.254198">
<ele>606.434</ele>
<time>2022-05-26T12:19:13Z</time>
</trkpt>
<trkpt lat="47.965008" lon="11.25413">
<ele>606.434</ele>
<time>2022-05-26T12:19:14Z</time>
</trkpt>
<trkpt lat="47.965004" lon="11.254066">
<ele>606.434</ele>
<time>2022-05-26T12:19:15Z</time>
</trkpt>
<trkpt lat="47.964996" lon="11.254002">
<ele>606.434</ele>
<time>2022-05-26T12:19:16Z</time>
</trkpt>
<trkpt lat="47.964981" lon="11.253938">
<ele>606.434</ele>
<time>2022-05-26T12:19:17Z</time>
</trkpt>
<trkpt lat="47.964981" lon="11.253875">
<ele>606.434</ele>
<time>2022-05-26T12:19:18Z</time>
</trkpt>
<trkpt lat="47.964977" lon="11.253815">
<ele>606.434</ele>
<time>2022-05-26T12:19:19Z</time>
</trkpt>
<trkpt lat="47.96497" lon="11.253754">
<ele>606.434</ele>
<time>2022-05-26T12:19:20Z</time>
</trkpt>
<trkpt lat="47.964962" lon="11.253696">
<ele>606.434</ele>
<time>2022-05-26T12:19:21Z</time>
</trkpt>
<trkpt lat="47.964962" lon="11.253638">
<ele>606.667</ele>
<time>2022-05-26T12:19:22Z</time>
</trkpt>
<trkpt lat="47.964962" lon="11.253577">
<ele>606.857</ele>
<time>2022-05-26T12:19:23Z</time>
</trkpt>
<trkpt lat="47.964954" lon="11.253517">
<ele>606.989</ele>
<time>2022-05-26T12:19:24Z</time>
</trkpt>
<trkpt lat="47.964947" lon="11.253454">
<ele>607.132</ele>
<time>2022-05-26T12:19:25Z</time>
</trkpt>
<trkpt lat="47.964931" lon="11.253397">
<ele>607.244</ele>
<time>2022-05-26T12:19:26Z</time>
</trkpt>
<trkpt lat="47.964912" lon="11.253344">
<ele>607.324</ele>
<time>2022-05-26T12:19:27Z</time>
</trkpt>
<trkpt lat="47.96489" lon="11.253292">
<ele>607.371</ele>
<time>2022-05-26T12:19:28Z</time>
</trkpt>
<trkpt lat="47.964863" lon="11.253241">
<ele>607.616</ele>
<time>2022-05-26T12:19:29Z</time>
</trkpt>
<trkpt lat="47.964832" lon="11.25319">
<ele>607.827</ele>
<time>2022-05-26T12:19:30Z</time>
</trkpt>
<trkpt lat="47.964802" lon="11.253139">
<ele>607.968</ele>
<time>2022-05-26T12:19:31Z</time>
</trkpt>
<trkpt lat="47.964775" lon="11.25309">
<ele>608.074</ele>
<time>2022-05-26T12:19:32Z</time>
</trkpt>
<trkpt lat="47.964748" lon="11.253038">
<ele>608.15</ele>
<time>2022-05-26T12:19:33Z</time>
</trkpt>
<trkpt lat="47.964722" lon="11.25299">
<ele>608.205</ele>
<time>2022-05-26T12:19:34Z</time>
</trkpt>
<trkpt lat="47.964691" lon="11.252941">
<ele>608.253</ele>
<time>2022-05-26T12:19:35Z</time>
</trkpt>
<trkpt lat="47.964668" lon="11.252893">
<ele>608.531</ele>
<time>2022-05-26T12:19:36Z</time>
</trkpt>
<trkpt lat="47.964649" lon="11.252845">
<ele>608.824</ele>
<time>2022-05-26T12:19:37Z</time>
</trkpt>
<trkpt lat="47.964622" lon="11.252798">
<ele>609.004</ele>
<time>2022-05-26T12:19:38Z</time>
</trkpt>
<trkpt lat="47.964615" lon="11.252748">
<ele>609.141</ele>
<time>2022-05-26T12:19:39Z</time>
</trkpt>
<trkpt lat="47.964596" lon="11.252697">
<ele>609.237</ele>
<time>2022-05-26T12:19:40Z</time>
</trkpt>
<trkpt lat="47.964588" lon="11.252644">
<ele>609.295</ele>
<time>2022-05-26T12:19:41Z</time>
</trkpt>
<trkpt lat="47.964573" lon="11.252586">
<ele>609.324</ele>
<time>2022-05-26T12:19:42Z</time>
</trkpt>
<trkpt lat="47.964561" lon="11.252532">
<ele>609.329</ele>
<time>2022-05-26T12:19:43Z</time>
</trkpt>
<trkpt lat="47.96455" lon="11.25248">
<ele>609.329</ele>
<time>2022-05-26T12:19:44Z</time>
</trkpt>
<trkpt lat="47.964535" lon="11.252428">
<ele>609.329</ele>
<time>2022-05-26T12:19:45Z</time>
</trkpt>
<trkpt lat="47.964523" lon="11.252375">
<ele>609.329</ele>
<time>2022-05-26T12:19:46Z</time>
</trkpt>
<trkpt lat="47.964512" lon="11.25232">
<ele>609.329</ele>
<time>2022-05-26T12:19:47Z</time>
</trkpt>
<trkpt lat="47.964493" lon="11.25226">
<ele>609.329</ele>
<time>2022-05-26T12:19:48Z</time>
</trkpt>
<trkpt lat="47.964481" lon="11.252199">
<ele>609.622</ele>
<time>2022-05-26T12:19:49Z</time>
</trkpt>
<trkpt lat="47.96447" lon="11.252143">
<ele>609.843</ele>
<time>2022-05-26T12:19:50Z</time>
</trkpt>
<trkpt lat="47.964462" lon="11.252086">
<ele>610.017</ele>
<time>2022-05-26T12:19:51Z</time>
</trkpt>
<trkpt lat="47.964462" lon="11.252028">
<ele>610.144</ele>
<time>2022-05-26T12:19:52Z</time>
</trkpt>
<trkpt lat="47.964462" lon="11.25197">
<ele>610.235</ele>
<time>2022-05-26T12:19:53Z</time>
</trkpt>
<trkpt lat="47.964455" lon="11.251906">
<ele>610.298</ele>
<time>2022-05-26T12:19:54Z</time>
</trkpt>
<trkpt lat="47.964447" lon="11.251842">
<ele>610.355</ele>
<time>2022-05-26T12:19:55Z</time>
</trkpt>
<trkpt lat="47.964443" lon="11.25178">
<ele>610.382</ele>
<time>2022-05-26T12:19:56Z</time>
</trkpt>
<trkpt lat="47.964439" lon="11.251725">
<ele>610.382</ele>
<time>2022-05-26T12:19:57Z</time>
</trkpt>
<trkpt lat="47.964443" lon="11.251669">
<ele>610.679</ele>
<time>2022-05-26T12:19:58Z</time>
</trkpt>
<trkpt lat="47.964443" lon="11.251605">
<ele>610.908</ele>
<time>2022-05-26T12:19:59Z</time>
</trkpt>
<trkpt lat="47.964439" lon="11.251541">
<ele>611.084</ele>
<time>2022-05-26T12:20:00Z</time>
</trkpt>
<trkpt lat="47.964443" lon="11.251485">
<ele>611.205</ele>
<time>2022-05-26T12:20:01Z</time>
</trkpt>
<trkpt lat="47.964439" lon="11.251424">
<ele>611.293</ele>
<time>2022-05-26T12:20:02Z</time>
</trkpt>
<trkpt lat="47.964436" lon="11.251357">
<ele>611.356</ele>
<time>2022-05-26T12:20:03Z</time>
</trkpt>
<trkpt lat="47.964432" lon="11.25129">
<ele>611.405</ele>
<time>2022-05-26T12:20:04Z</time>
</trkpt>
<trkpt lat="47.964432" lon="11.251225">
<ele>611.7</ele>
<time>2022-05-26T12:20:05Z</time>
</trkpt>
<trkpt lat="47.964436" lon="11.251164">
<ele>611.914</ele>
<time>2022-05-26T12:20:06Z</time>
</trkpt>
<trkpt lat="47.964436" lon="11.251105">
<ele>612.087</ele>
<time>2022-05-26T12:20:07Z</time>
</trkpt>
<trkpt lat="47.964439" lon="11.251043">
<ele>612.23</ele>
<time>2022-05-26T12:20:08Z</time>
</trkpt>
<trkpt lat="47.964443" lon="11.250985">
<ele>612.34</ele>
<time>2022-05-26T12:20:09Z</time>
</trkpt>
<trkpt lat="47.964455" lon="11.250928">
<ele>612.413</ele>
<time>2022-05-26T12:20:10Z</time>
</trkpt>
<trkpt lat="47.964462" lon="11.250872">
<ele>612.458</ele>
<time>2022-05-26T12:20:11Z</time>
</trkpt>
<trkpt lat="47.964474" lon="11.250814">
<ele>612.718</ele>
<time>2022-05-26T12:20:12Z</time>
</trkpt>
<trkpt lat="47.964485" lon="11.250753">
<ele>612.916</ele>
<time>2022-05-26T12:20:13Z</time>
</trkpt>
<trkpt lat="47.964493" lon="11.250695">
<ele>613.05</ele>
<time>2022-05-26T12:20:14Z</time>
</trkpt>
<trkpt lat="47.964508" lon="11.250636">
<ele>613.192</ele>
<time>2022-05-26T12:20:15Z</time>
</trkpt>
<trkpt lat="47.96452" lon="11.250578">
<ele>613.301</ele>
<time>2022-05-26T12:20:16Z</time>
</trkpt>
<trkpt lat="47.964531" lon="11.250522">
<ele>613.381</ele>
<time>2022-05-26T12:20:17Z</time>
</trkpt>
<trkpt lat="47.964546" lon="11.250464">
<ele>613.431</ele>
<time>2022-05-26T12:20:18Z</time>
</trkpt>
<trkpt lat="47.964558" lon="11.250408">
<ele>613.454</ele>
<time>2022-05-26T12:20:19Z</time>
</trkpt>
<trkpt lat="47.964569" lon="11.250352">
<ele>613.454</ele>
<time>2022-05-26T12:20:20Z</time>
</trkpt>
<trkpt lat="47.964581" lon="11.250293">
<ele>613.454</ele>
<time>2022-05-26T12:20:21Z</time>
</trkpt>
<trkpt lat="47.964588" lon="11.250234">
<ele>613.454</ele>
<time>2022-05-26T12:20:22Z</time>
</trkpt>
<trkpt lat="47.964592" lon="11.250174">
<ele>613.667</ele>
<time>2022-05-26T12:20:23Z</time>
</trkpt>
<trkpt lat="47.964592" lon="11.250113">
<ele>613.82</ele>
<time>2022-05-26T12:20:24Z</time>
</trkpt>
<trkpt lat="47.964596" lon="11.250053">
<ele>613.977</ele>
<time>2022-05-26T12:20:25Z</time>
</trkpt>
<trkpt lat="47.964596" lon="11.249993">
<ele>614.102</ele>
<time>2022-05-26T12:20:26Z</time>
</trkpt>
<trkpt lat="47.964596" lon="11.249933">
<ele>614.198</ele>
<time>2022-05-26T12:20:27Z</time>
</trkpt>
<trkpt lat="47.964592" lon="11.249873">
<ele>614.267</ele>
<time>2022-05-26T12:20:28Z</time>
</trkpt>
<trkpt lat="47.964592" lon="11.249811">
<ele>614.311</ele>
<time>2022-05-26T12:20:29Z</time>
</trkpt>
<trkpt lat="47.964584" lon="11.249754">
<ele>614.332</ele>
<time>2022-05-26T12:20:30Z</time>
</trkpt>
<trkpt lat="47.964581" lon="11.249693">
<ele>614.332</ele>
<time>2022-05-26T12:20:31Z</time>
</trkpt>
<trkpt lat="47.964573" lon="11.249633">
<ele>614.332</ele>
<time>2022-05-26T12:20:32Z</time>
</trkpt>
<trkpt lat="47.964565" lon="11.249575">
<ele>614.567</ele>
<time>2022-05-26T12:20:33Z</time>
</trkpt>
<trkpt lat="47.964558" lon="11.249516">
<ele>614.735</ele>
<time>2022-05-26T12:20:34Z</time>
</trkpt>
<trkpt lat="47.964542" lon="11.249458">
<ele>614.906</ele>
<time>2022-05-26T12:20:35Z</time>
</trkpt>
<trkpt lat="47.964527" lon="11.249402">
<ele>615.029</ele>
<time>2022-05-26T12:20:36Z</time>
</trkpt>
<trkpt lat="47.964516" lon="11.249347">
<ele>615.374</ele>
<time>2022-05-26T12:20:37Z</time>
</trkpt>
<trkpt lat="47.9645" lon="11.249291">
<ele>615.654</ele>
<time>2022-05-26T12:20:38Z</time>
</trkpt>
<trkpt lat="47.964489" lon="11.249239">
<ele>615.865</ele>
<time>2022-05-26T12:20:39Z</time>
</trkpt>
<trkpt lat="47.96447" lon="11.249185">
<ele>616.02</ele>
<time>2022-05-26T12:20:40Z</time>
</trkpt>
<trkpt lat="47.964455" lon="11.249135">
<ele>616.158</ele>
<time>2022-05-26T12:20:41Z</time>
</trkpt>
<trkpt lat="47.964436" lon="11.249084">
<ele>616.202</ele>
<time>2022-05-26T12:20:42Z</time>
</trkpt>
<trkpt lat="47.964417" lon="11.249031">
<ele>616.45</ele>
<time>2022-05-26T12:20:43Z</time>
</trkpt>
<trkpt lat="47.964397" lon="11.248981">
<ele>616.628</ele>
<time>2022-05-26T12:20:44Z</time>
</trkpt>
<trkpt lat="47.964378" lon="11.248928">
<ele>616.785</ele>
<time>2022-05-26T12:20:45Z</time>
</trkpt>
<trkpt lat="47.964363" lon="11.248877">
<ele>616.91</ele>
<time>2022-05-26T12:20:46Z</time>
</trkpt>
<trkpt lat="47.964348" lon="11.248825">
<ele>616.996</ele>
<time>2022-05-26T12:20:47Z</time>
</trkpt>
<trkpt lat="47.964336" lon="11.248775">
<ele>617.324</ele>
<time>2022-05-26T12:20:48Z</time>
</trkpt>
<trkpt lat="47.964325" lon="11.248727">
<ele>617.586</ele>
<time>2022-05-26T12:20:49Z</time>
</trkpt>
<trkpt lat="47.964317" lon="11.24868">
<ele>617.781</ele>
<time>2022-05-26T12:20:50Z</time>
</trkpt>
<trkpt lat="47.964306" lon="11.248631">
<ele>617.96</ele>
<time>2022-05-26T12:20:51Z</time>
</trkpt>
<trkpt lat="47.964302" lon="11.248585">
<ele>618.04</ele>
<time>2022-05-26T12:20:52Z</time>
</trkpt>
<trkpt lat="47.964298" lon="11.248539">
<ele>618.331</ele>
<time>2022-05-26T12:20:53Z</time>
</trkpt>
<trkpt lat="47.964291" lon="11.248493">
<ele>618.556</ele>
<time>2022-05-26T12:20:54Z</time>
</trkpt>
<trkpt lat="47.964283" lon="11.248446">
<ele>618.757</ele>
<time>2022-05-26T12:20:55Z</time>
</trkpt>
<trkpt lat="47.964275" lon="11.248397">
<ele>618.886</ele>
<time>2022-05-26T12:20:56Z</time>
</trkpt>
<trkpt lat="47.964272" lon="11.248348">
<ele>619.235</ele>
<time>2022-05-26T12:20:57Z</time>
</trkpt>
<trkpt lat="47.964264" lon="11.248297">
<ele>619.483</ele>
<time>2022-05-26T12:20:58Z</time>
</trkpt>
<trkpt lat="47.964264" lon="11.248243">
<ele>619.952</ele>
<time>2022-05-26T12:20:59Z</time>
</trkpt>
<trkpt lat="47.964256" lon="11.24819">
<ele>620.322</ele>
<time>2022-05-26T12:21:00Z</time>
</trkpt>
<trkpt lat="47.964249" lon="11.24814">
<ele>620.623</ele>
<time>2022-05-26T12:21:01Z</time>
</trkpt>
<trkpt lat="47.964237" lon="11.248089">
<ele>621.034</ele>
<time>2022-05-26T12:21:02Z</time>
</trkpt>
<trkpt lat="47.964233" lon="11.248038">
<ele>621.321</ele>
<time>2022-05-26T12:21:03Z</time>
</trkpt>
<trkpt lat="47.96423" lon="11.247988">
<ele>621.531</ele>
<time>2022-05-26T12:21:04Z</time>
</trkpt>
<trkpt lat="47.964226" lon="11.247933">
<ele>621.705</ele>
<time>2022-05-26T12:21:05Z</time>
</trkpt>
<trkpt lat="47.964222" lon="11.247881">
<ele>622.064</ele>
<time>2022-05-26T12:21:06Z</time>
</trkpt>
<trkpt lat="47.964214" lon="11.247828">
<ele>622.333</ele>
<time>2022-05-26T12:21:07Z</time>
</trkpt>
<trkpt lat="47.964211" lon="11.247775">
<ele>622.511</ele>
<time>2022-05-26T12:21:08Z</time>
</trkpt>
<trkpt lat="47.964203" lon="11.24772">
<ele>622.962</ele>
<time>2022-05-26T12:21:09Z</time>
</trkpt>
<trkpt lat="47.964199" lon="11.247665">
<ele>623.405</ele>
<time>2022-05-26T12:21:10Z</time>
</trkpt>
<trkpt lat="47.964188" lon="11.247613">
<ele>623.621</ele>
<time>2022-05-26T12:21:11Z</time>
</trkpt>
<trkpt lat="47.96418" lon="11.247562">
<ele>624.028</ele>
<time>2022-05-26T12:21:12Z</time>
</trkpt>
<trkpt lat="47.964172" lon="11.247512">
<ele>624.332</ele>
<time>2022-05-26T12:21:13Z</time>
</trkpt>
<trkpt lat="47.964169" lon="11.247462">
<ele>624.553</ele>
<time>2022-05-26T12:21:14Z</time>
</trkpt>
<trkpt lat="47.964165" lon="11.247412">
<ele>624.746</ele>
<time>2022-05-26T12:21:15Z</time>
</trkpt>
<trkpt lat="47.964153" lon="11.247359">
<ele>625.099</ele>
<time>2022-05-26T12:21:16Z</time>
</trkpt>
<trkpt lat="47.964146" lon="11.24731">
<ele>625.325</ele>
<time>2022-05-26T12:21:17Z</time>
</trkpt>
<trkpt lat="47.964138" lon="11.247258">
<ele>625.792</ele>
<time>2022-05-26T12:21:18Z</time>
</trkpt>
<trkpt lat="47.964134" lon="11.247205">
<ele>626.166</ele>
<time>2022-05-26T12:21:19Z</time>
</trkpt>
<trkpt lat="47.964127" lon="11.247151">
<ele>626.557</ele>
<time>2022-05-26T12:21:20Z</time>
</trkpt>
<trkpt lat="47.964123" lon="11.247097">
<ele>626.74</ele>
<time>2022-05-26T12:21:21Z</time>
</trkpt>
<trkpt lat="47.964115" lon="11.247042">
<ele>626.833</ele>
<time>2022-05-26T12:21:22Z</time>
</trkpt>
<trkpt lat="47.964108" lon="11.246986">
<ele>627.137</ele>
<time>2022-05-26T12:21:23Z</time>
</trkpt>
<trkpt lat="47.964104" lon="11.246935">
<ele>627.359</ele>
<time>2022-05-26T12:21:24Z</time>
</trkpt>
<trkpt lat="47.9641" lon="11.246881">
<ele>627.561</ele>
<time>2022-05-26T12:21:25Z</time>
</trkpt>
<trkpt lat="47.964096" lon="11.24683">
<ele>627.696</ele>
<time>2022-05-26T12:21:26Z</time>
</trkpt>
<trkpt lat="47.964092" lon="11.246779">
<ele>627.788</ele>
<time>2022-05-26T12:21:27Z</time>
</trkpt>
<trkpt lat="47.964088" lon="11.246731">
<ele>628.1</ele>
<time>2022-05-26T12:21:28Z</time>
</trkpt>
<trkpt lat="47.964085" lon="11.246678">
<ele>628.347</ele>
<time>2022-05-26T12:21:29Z</time>
</trkpt>
<trkpt lat="47.964085" lon="11.246627">
<ele>628.536</ele>
<time>2022-05-26T12:21:30Z</time>
</trkpt>
<trkpt lat="47.964081" lon="11.246576">
<ele>628.701</ele>
<time>2022-05-26T12:21:31Z</time>
</trkpt>
<trkpt lat="47.964081" lon="11.246524">
<ele>628.786</ele>
<time>2022-05-26T12:21:32Z</time>
</trkpt>
<trkpt lat="47.964085" lon="11.246469">
<ele>628.832</ele>
<time>2022-05-26T12:21:33Z</time>
</trkpt>
<trkpt lat="47.964088" lon="11.246413">
<ele>629.085</ele>
<time>2022-05-26T12:21:34Z</time>
</trkpt>
<trkpt lat="47.964092" lon="11.24636">
<ele>629.3</ele>
<time>2022-05-26T12:21:35Z</time>
</trkpt>
<trkpt lat="47.964092" lon="11.246305">
<ele>629.453</ele>
<time>2022-05-26T12:21:36Z</time>
</trkpt>
<trkpt lat="47.964096" lon="11.24625">
<ele>629.574</ele>
<time>2022-05-26T12:21:37Z</time>
</trkpt>
<trkpt lat="47.964104" lon="11.246195">
<ele>629.667</ele>
<time>2022-05-26T12:21:38Z</time>
</trkpt>
<trkpt lat="47.964104" lon="11.246141">
<ele>629.733</ele>
<time>2022-05-26T12:21:39Z</time>
</trkpt>
<trkpt lat="47.964111" lon="11.246085">
<ele>629.774</ele>
<time>2022-05-26T12:21:40Z</time>
</trkpt>
<trkpt lat="47.964115" lon="11.24603">
<ele>629.795</ele>
<time>2022-05-26T12:21:41Z</time>
</trkpt>
<trkpt lat="47.964119" lon="11.245973">
<ele>629.795</ele>
<time>2022-05-26T12:21:42Z</time>
</trkpt>
<trkpt lat="47.964123" lon="11.245915">
<ele>630.054</ele>
<time>2022-05-26T12:21:43Z</time>
</trkpt>
<trkpt lat="47.96413" lon="11.245858">
<ele>630.237</ele>
<time>2022-05-26T12:21:44Z</time>
</trkpt>
<trkpt lat="47.964138" lon="11.245798">
<ele>630.426</ele>
<time>2022-05-26T12:21:45Z</time>
</trkpt>
<trkpt lat="47.964146" lon="11.245742">
<ele>630.577</ele>
<time>2022-05-26T12:21:46Z</time>
</trkpt>
<trkpt lat="47.964149" lon="11.245686">
<ele>630.691</ele>
<time>2022-05-26T12:21:47Z</time>
</trkpt>
<trkpt lat="47.964157" lon="11.245626">
<ele>630.772</ele>
<time>2022-05-26T12:21:48Z</time>
</trkpt>
<trkpt lat="47.964161" lon="11.245572">
<ele>630.825</ele>
<time>2022-05-26T12:21:49Z</time>
</trkpt>
<trkpt lat="47.964165" lon="11.245515">
<ele>630.85</ele>
<time>2022-05-26T12:21:50Z</time>
</trkpt>
<trkpt lat="47.964169" lon="11.245459">
<ele>630.85</ele>
<time>2022-05-26T12:21:51Z</time>
</trkpt>
<trkpt lat="47.964176" lon="11.245403">
<ele>631.088</ele>
<time>2022-05-26T12:21:52Z</time>
</trkpt>
<trkpt lat="47.964184" lon="11.245348">
<ele>631.278</ele>
<time>2022-05-26T12:21:53Z</time>
</trkpt>
<trkpt lat="47.964188" lon="11.245296">
<ele>631.412</ele>
<time>2022-05-26T12:21:54Z</time>
</trkpt>
<trkpt lat="47.964195" lon="11.245239">
<ele>631.546</ele>
<time>2022-05-26T12:21:55Z</time>
</trkpt>
<trkpt lat="47.964199" lon="11.245185">
<ele>631.891</ele>
<time>2022-05-26T12:21:56Z</time>
</trkpt>
<trkpt lat="47.964203" lon="11.245131">
<ele>632.171</ele>
<time>2022-05-26T12:21:57Z</time>
</trkpt>
<trkpt lat="47.964207" lon="11.245075">
<ele>632.384</ele>
<time>2022-05-26T12:21:58Z</time>
</trkpt>
<trkpt lat="47.964207" lon="11.245022">
<ele>632.54</ele>
<time>2022-05-26T12:21:59Z</time>
</trkpt>
<trkpt lat="47.964207" lon="11.244967">
<ele>632.701</ele>
<time>2022-05-26T12:22:00Z</time>
</trkpt>
<trkpt lat="47.964207" lon="11.244912">
<ele>632.754</ele>
<time>2022-05-26T12:22:01Z</time>
</trkpt>
<trkpt lat="47.964207" lon="11.244858">
<ele>632.777</ele>
<time>2022-05-26T12:22:02Z</time>
</trkpt>
<trkpt lat="47.964207" lon="11.244807">
<ele>633.017</ele>
<time>2022-05-26T12:22:03Z</time>
</trkpt>
<trkpt lat="47.964211" lon="11.244755">
<ele>633.185</ele>
<time>2022-05-26T12:22:04Z</time>
</trkpt>
<trkpt lat="47.964211" lon="11.244701">
<ele>633.356</ele>
<time>2022-05-26T12:22:05Z</time>
</trkpt>
<trkpt lat="47.964211" lon="11.244648">
<ele>633.48</ele>
<time>2022-05-26T12:22:06Z</time>
</trkpt>
<trkpt lat="47.964214" lon="11.244596">
<ele>633.806</ele>
<time>2022-05-26T12:22:07Z</time>
</trkpt>
<trkpt lat="47.964214" lon="11.244538">
<ele>634.066</ele>
<time>2022-05-26T12:22:08Z</time>
</trkpt>
<trkpt lat="47.964214" lon="11.244483">
<ele>634.268</ele>
<time>2022-05-26T12:22:09Z</time>
</trkpt>
<trkpt lat="47.964214" lon="11.244429">
<ele>634.414</ele>
<time>2022-05-26T12:22:10Z</time>
</trkpt>
<trkpt lat="47.964214" lon="11.244375">
<ele>634.538</ele>
<time>2022-05-26T12:22:11Z</time>
</trkpt>
<trkpt lat="47.964218" lon="11.24432">
<ele>634.589</ele>
<time>2022-05-26T12:22:12Z</time>
</trkpt>
<trkpt lat="47.964222" lon="11.244265">
<ele>634.607</ele>
<time>2022-05-26T12:22:13Z</time>
</trkpt>
<trkpt lat="47.964222" lon="11.244212">
<ele>634.847</ele>
<time>2022-05-26T12:22:14Z</time>
</trkpt>
<trkpt lat="47.964226" lon="11.244158">
<ele>635.049</ele>
<time>2022-05-26T12:22:15Z</time>
</trkpt>
<trkpt lat="47.96423" lon="11.244103">
<ele>635.214</ele>
<time>2022-05-26T12:22:16Z</time>
</trkpt>
<trkpt lat="47.964233" lon="11.244049">
<ele>635.35</ele>
<time>2022-05-26T12:22:17Z</time>
</trkpt>
<trkpt lat="47.964233" lon="11.24399">
<ele>635.454</ele>
<time>2022-05-26T12:22:18Z</time>
</trkpt>
<trkpt lat="47.964233" lon="11.243934">
<ele>635.519</ele>
<time>2022-05-26T12:22:19Z</time>
</trkpt>
<trkpt lat="47.964233" lon="11.243877">
<ele>635.832</ele>
<time>2022-05-26T12:22:20Z</time>
</trkpt>
<trkpt lat="47.964237" lon="11.24382">
<ele>636.076</ele>
<time>2022-05-26T12:22:21Z</time>
</trkpt>
<trkpt lat="47.964237" lon="11.243764">
<ele>636.271</ele>
<time>2022-05-26T12:22:22Z</time>
</trkpt>
<trkpt lat="47.964233" lon="11.243705">
<ele>636.395</ele>
<time>2022-05-26T12:22:23Z</time>
</trkpt>
<trkpt lat="47.964233" lon="11.243649">
<ele>636.48</ele>
<time>2022-05-26T12:22:24Z</time>
</trkpt>
<trkpt lat="47.964233" lon="11.24359">
<ele>636.57</ele>
<time>2022-05-26T12:22:25Z</time>
</trkpt>
<trkpt lat="47.964233" lon="11.243528">
<ele>636.626</ele>
<time>2022-05-26T12:22:26Z</time>
</trkpt>
<trkpt lat="47.964233" lon="11.243468">
<ele>636.654</ele>
<time>2022-05-26T12:22:27Z</time>
</trkpt>
<trkpt lat="47.964233" lon="11.243414">
<ele>636.953</ele>
<time>2022-05-26T12:22:28Z</time>
</trkpt>
<trkpt lat="47.96423" lon="11.243358">
<ele>637.184</ele>
<time>2022-05-26T12:22:29Z</time>
</trkpt>
<trkpt lat="47.964226" lon="11.243303">
<ele>637.353</ele>
<time>2022-05-26T12:22:30Z</time>
</trkpt>
<trkpt lat="47.964222" lon="11.243251">
<ele>637.481</ele>
<time>2022-05-26T12:22:31Z</time>
</trkpt>
<trkpt lat="47.964214" lon="11.243198">
<ele>637.576</ele>
<time>2022-05-26T12:22:32Z</time>
</trkpt>
<trkpt lat="47.964211" lon="11.243145">
<ele>637.632</ele>
<time>2022-05-26T12:22:33Z</time>
</trkpt>
<trkpt lat="47.964207" lon="11.24309">
<ele>637.678</ele>
<time>2022-05-26T12:22:34Z</time>
</trkpt>
<trkpt lat="47.964199" lon="11.243035">
<ele>637.71</ele>
<time>2022-05-26T12:22:35Z</time>
</trkpt>
<trkpt lat="47.964199" lon="11.242978">
<ele>637.71</ele>
<time>2022-05-26T12:22:36Z</time>
</trkpt>
<trkpt lat="47.964195" lon="11.242925">
<ele>637.71</ele>
<time>2022-05-26T12:22:37Z</time>
</trkpt>
<trkpt lat="47.964195" lon="11.242868">
<ele>637.71</ele>
<time>2022-05-26T12:22:38Z</time>
</trkpt>
<trkpt lat="47.964195" lon="11.24281">
<ele>637.71</ele>
<time>2022-05-26T12:22:39Z</time>
</trkpt>
<trkpt lat="47.964191" lon="11.242748">
<ele>637.71</ele>
<time>2022-05-26T12:22:40Z</time>
</trkpt>
<trkpt lat="47.964191" lon="11.242692">
<ele>637.94</ele>
<time>2022-05-26T12:22:41Z</time>
</trkpt>
<trkpt lat="47.964195" lon="11.242635">
<ele>638.116</ele>
<time>2022-05-26T12:22:42Z</time>
</trkpt>
<trkpt lat="47.964195" lon="11.242582">
<ele>638.256</ele>
<time>2022-05-26T12:22:43Z</time>
</trkpt>
<trkpt lat="47.964199" lon="11.242526">
<ele>638.349</ele>
<time>2022-05-26T12:22:44Z</time>
</trkpt>
<trkpt lat="47.964199" lon="11.242472">
<ele>638.451</ele>
<time>2022-05-26T12:22:45Z</time>
</trkpt>
<trkpt lat="47.964203" lon="11.242415">
<ele>638.521</ele>
<time>2022-05-26T12:22:46Z</time>
</trkpt>
<trkpt lat="47.964203" lon="11.242358">
<ele>638.567</ele>
<time>2022-05-26T12:22:47Z</time>
</trkpt>
<trkpt lat="47.964207" lon="11.242302">
<ele>638.59</ele>
<time>2022-05-26T12:22:48Z</time>
</trkpt>
<trkpt lat="47.964207" lon="11.242247">
<ele>638.59</ele>
<time>2022-05-26T12:22:49Z</time>
</trkpt>
<trkpt lat="47.964211" lon="11.242188">
<ele>638.59</ele>
<time>2022-05-26T12:22:50Z</time>
</trkpt>
<trkpt lat="47.964214" lon="11.242134">
<ele>638.59</ele>
<time>2022-05-26T12:22:51Z</time>
</trkpt>
<trkpt lat="47.964218" lon="11.242075">
<ele>638.832</ele>
<time>2022-05-26T12:22:52Z</time>
</trkpt>
<trkpt lat="47.964222" lon="11.242017">
<ele>639.025</ele>
<time>2022-05-26T12:22:53Z</time>
</trkpt>
<trkpt lat="47.964226" lon="11.241961">
<ele>639.156</ele>
<time>2022-05-26T12:22:54Z</time>
</trkpt>
<trkpt lat="47.96423" lon="11.241899">
<ele>639.298</ele>
<time>2022-05-26T12:22:55Z</time>
</trkpt>
<trkpt lat="47.964233" lon="11.241838">
<ele>639.407</ele>
<time>2022-05-26T12:22:56Z</time>
</trkpt>
<trkpt lat="47.964233" lon="11.241776">
<ele>639.486</ele>
<time>2022-05-26T12:22:57Z</time>
</trkpt>
<trkpt lat="47.964233" lon="11.241717">
<ele>639.534</ele>
<time>2022-05-26T12:22:58Z</time>
</trkpt>
<trkpt lat="47.964237" lon="11.241658">
<ele>639.558</ele>
<time>2022-05-26T12:22:59Z</time>
</trkpt>
<trkpt lat="47.964241" lon="11.2416">
<ele>639.558</ele>
<time>2022-05-26T12:23:00Z</time>
</trkpt>
<trkpt lat="47.964249" lon="11.241544">
<ele>639.558</ele>
<time>2022-05-26T12:23:01Z</time>
</trkpt>
<trkpt lat="47.964252" lon="11.241485">
<ele>639.558</ele>
<time>2022-05-26T12:23:02Z</time>
</trkpt>
<trkpt lat="47.96426" lon="11.241428">
<ele>639.558</ele>
<time>2022-05-26T12:23:03Z</time>
</trkpt>
<trkpt lat="47.964268" lon="11.24137">
<ele>639.558</ele>
<time>2022-05-26T12:23:04Z</time>
</trkpt>
<trkpt lat="47.964275" lon="11.241308">
<ele>639.558</ele>
<time>2022-05-26T12:23:05Z</time>
</trkpt>
<trkpt lat="47.964287" lon="11.241243">
<ele>639.558</ele>
<time>2022-05-26T12:23:06Z</time>
</trkpt>
<trkpt lat="47.964298" lon="11.241179">
<ele>639.845</ele>
<time>2022-05-26T12:23:07Z</time>
</trkpt>
<trkpt lat="47.964302" lon="11.241112">
<ele>640.065</ele>
<time>2022-05-26T12:23:08Z</time>
</trkpt>
<trkpt lat="47.964317" lon="11.241047">
<ele>640.23</ele>
<time>2022-05-26T12:23:09Z</time>
</trkpt>
<trkpt lat="47.964329" lon="11.240982">
<ele>640.348</ele>
<time>2022-05-26T12:23:10Z</time>
</trkpt>
<trkpt lat="47.964344" lon="11.240915">
<ele>640.429</ele>
<time>2022-05-26T12:23:11Z</time>
</trkpt>
<trkpt lat="47.964363" lon="11.240849">
<ele>640.477</ele>
<time>2022-05-26T12:23:12Z</time>
</trkpt>
<trkpt lat="47.964378" lon="11.240781">
<ele>640.505</ele>
<time>2022-05-26T12:23:13Z</time>
</trkpt>
<trkpt lat="47.964397" lon="11.240715">
<ele>640.526</ele>
<time>2022-05-26T12:23:14Z</time>
</trkpt>
<trkpt lat="47.964409" lon="11.240651">
<ele>640.526</ele>
<time>2022-05-26T12:23:15Z</time>
</trkpt>
<trkpt lat="47.964428" lon="11.24059">
<ele>640.526</ele>
<time>2022-05-26T12:23:16Z</time>
</trkpt>
<trkpt lat="47.964443" lon="11.24053">
<ele>640.526</ele>
<time>2022-05-26T12:23:17Z</time>
</trkpt>
<trkpt lat="47.964458" lon="11.240471">
<ele>640.526</ele>
<time>2022-05-26T12:23:18Z</time>
</trkpt>
<trkpt lat="47.96447" lon="11.240417">
<ele>640.526</ele>
<time>2022-05-26T12:23:19Z</time>
</trkpt>
<trkpt lat="47.964489" lon="11.240363">
<ele>640.526</ele>
<time>2022-05-26T12:23:20Z</time>
</trkpt>
<trkpt lat="47.964508" lon="11.240308">
<ele>640.526</ele>
<time>2022-05-26T12:23:21Z</time>
</trkpt>
<trkpt lat="47.964523" lon="11.240253">
<ele>640.526</ele>
<time>2022-05-26T12:23:22Z</time>
</trkpt>
<trkpt lat="47.964539" lon="11.2402">
<ele>640.526</ele>
<time>2022-05-26T12:23:23Z</time>
</trkpt>
<trkpt lat="47.964558" lon="11.240149">
<ele>640.526</ele>
<time>2022-05-26T12:23:24Z</time>
</trkpt>
<trkpt lat="47.964573" lon="11.240098">
<ele>640.526</ele>
<time>2022-05-26T12:23:25Z</time>
</trkpt>
<trkpt lat="47.964588" lon="11.240051">
<ele>640.526</ele>
<time>2022-05-26T12:23:26Z</time>
</trkpt>
<trkpt lat="47.964603" lon="11.240002">
<ele>640.526</ele>
<time>2022-05-26T12:23:27Z</time>
</trkpt>
<trkpt lat="47.964622" lon="11.239948">
<ele>640.526</ele>
<time>2022-05-26T12:23:28Z</time>
</trkpt>
<trkpt lat="47.964649" lon="11.239895">
<ele>640.526</ele>
<time>2022-05-26T12:23:29Z</time>
</trkpt>
<trkpt lat="47.964668" lon="11.239843">
<ele>640.526</ele>
<time>2022-05-26T12:23:30Z</time>
</trkpt>
<trkpt lat="47.964687" lon="11.239792">
<ele>640.526</ele>
<time>2022-05-26T12:23:31Z</time>
</trkpt>
<trkpt lat="47.964706" lon="11.239741">
<ele>640.526</ele>
<time>2022-05-26T12:23:32Z</time>
</trkpt>
<trkpt lat="47.964722" lon="11.239692">
<ele>640.526</ele>
<time>2022-05-26T12:23:33Z</time>
</trkpt>
<trkpt lat="47.964733" lon="11.239636">
<ele>640.742</ele>
<time>2022-05-26T12:23:34Z</time>
</trkpt>
<trkpt lat="47.964748" lon="11.239587">
<ele>640.94</ele>
<time>2022-05-26T12:23:35Z</time>
</trkpt>
<trkpt lat="47.964767" lon="11.23954">
<ele>641.103</ele>
<time>2022-05-26T12:23:36Z</time>
</trkpt>
<trkpt lat="47.964783" lon="11.239496">
<ele>641.236</ele>
<time>2022-05-26T12:23:37Z</time>
</trkpt>
<trkpt lat="47.964798" lon="11.239452">
<ele>641.342</ele>
<time>2022-05-26T12:23:38Z</time>
</trkpt>
<trkpt lat="47.964817" lon="11.239408">
<ele>641.42</ele>
<time>2022-05-26T12:23:39Z</time>
</trkpt>
<trkpt lat="47.964828" lon="11.239362">
<ele>641.47</ele>
<time>2022-05-26T12:23:40Z</time>
</trkpt>
<trkpt lat="47.964848" lon="11.239319">
<ele>641.494</ele>
<time>2022-05-26T12:23:41Z</time>
</trkpt>
<trkpt lat="47.964855" lon="11.239277">
<ele>641.494</ele>
<time>2022-05-26T12:23:42Z</time>
</trkpt>
<trkpt lat="47.964863" lon="11.239241">
<ele>641.494</ele>
<time>2022-05-26T12:23:43Z</time>
</trkpt>
<trkpt lat="47.964867" lon="11.239205">
<ele>641.683</ele>
<time>2022-05-26T12:23:44Z</time>
</trkpt>
<trkpt lat="47.964874" lon="11.239172">
<ele>641.859</ele>
<time>2022-05-26T12:23:45Z</time>
</trkpt>
<trkpt lat="47.964882" lon="11.239141">
<ele>642.003</ele>
<time>2022-05-26T12:23:46Z</time>
</trkpt>
<trkpt lat="47.964893" lon="11.23911">
<ele>642.125</ele>
<time>2022-05-26T12:23:47Z</time>
</trkpt>
<trkpt lat="47.964912" lon="11.239088">
<ele>642.221</ele>
<time>2022-05-26T12:23:48Z</time>
</trkpt>
<trkpt lat="47.96492" lon="11.239063">
<ele>642.288</ele>
<time>2022-05-26T12:23:49Z</time>
</trkpt>
<trkpt lat="47.96492" lon="11.239034">
<ele>642.607</ele>
<time>2022-05-26T12:23:50Z</time>
</trkpt>
<trkpt lat="47.96492" lon="11.239004">
<ele>642.866</ele>
<time>2022-05-26T12:23:51Z</time>
</trkpt>
<trkpt lat="47.96492" lon="11.238975">
<ele>643.04</ele>
<time>2022-05-26T12:23:52Z</time>
</trkpt>
<trkpt lat="47.964924" lon="11.238948">
<ele>643.42</ele>
<time>2022-05-26T12:23:53Z</time>
</trkpt>
<trkpt lat="47.964931" lon="11.238914">
<ele>643.706</ele>
<time>2022-05-26T12:23:54Z</time>
</trkpt>
<trkpt lat="47.964943" lon="11.238882">
<ele>643.984</ele>
<time>2022-05-26T12:23:55Z</time>
</trkpt>
<trkpt lat="47.964951" lon="11.238841">
<ele>644.186</ele>
<time>2022-05-26T12:23:56Z</time>
</trkpt>
<trkpt lat="47.964954" lon="11.238801">
<ele>644.591</ele>
<time>2022-05-26T12:23:57Z</time>
</trkpt>
<trkpt lat="47.964962" lon="11.238755">
<ele>644.882</ele>
<time>2022-05-26T12:23:58Z</time>
</trkpt>
<trkpt lat="47.964977" lon="11.238702">
<ele>645.103</ele>
<time>2022-05-26T12:23:59Z</time>
</trkpt>
<trkpt lat="47.964989" lon="11.238658">
<ele>645.253</ele>
<time>2022-05-26T12:24:00Z</time>
</trkpt>
<trkpt lat="47.964996" lon="11.23861">
<ele>645.369</ele>
<time>2022-05-26T12:24:01Z</time>
</trkpt>
<trkpt lat="47.965004" lon="11.238558">
<ele>645.41</ele>
<time>2022-05-26T12:24:02Z</time>
</trkpt>
<trkpt lat="47.965015" lon="11.238502">
<ele>645.439</ele>
<time>2022-05-26T12:24:03Z</time>
</trkpt>
<trkpt lat="47.965031" lon="11.238435">
<ele>645.456</ele>
<time>2022-05-26T12:24:04Z</time>
</trkpt>
<trkpt lat="47.96505" lon="11.238374">
<ele>645.456</ele>
<time>2022-05-26T12:24:05Z</time>
</trkpt>
<trkpt lat="47.965061" lon="11.238305">
<ele>645.456</ele>
<time>2022-05-26T12:24:06Z</time>
</trkpt>
<trkpt lat="47.96508" lon="11.238245">
<ele>645.456</ele>
<time>2022-05-26T12:24:07Z</time>
</trkpt>
<trkpt lat="47.965103" lon="11.238192">
<ele>645.456</ele>
<time>2022-05-26T12:24:08Z</time>
</trkpt>
<trkpt lat="47.965118" lon="11.238133">
<ele>645.456</ele>
<time>2022-05-26T12:24:09Z</time>
</trkpt>
<trkpt lat="47.965126" lon="11.238073">
<ele>645.456</ele>
<time>2022-05-26T12:24:10Z</time>
</trkpt>
<trkpt lat="47.965137" lon="11.238022">
<ele>645.456</ele>
<time>2022-05-26T12:24:11Z</time>
</trkpt>
<trkpt lat="47.965149" lon="11.237969">
<ele>645.456</ele>
<time>2022-05-26T12:24:12Z</time>
</trkpt>
<trkpt lat="47.965153" lon="11.23791">
<ele>645.703</ele>
<time>2022-05-26T12:24:13Z</time>
</trkpt>
<trkpt lat="47.965168" lon="11.23785">
<ele>645.881</ele>
<time>2022-05-26T12:24:14Z</time>
</trkpt>
<trkpt lat="47.965179" lon="11.237803">
<ele>646.071</ele>
<time>2022-05-26T12:24:15Z</time>
</trkpt>
<trkpt lat="47.965183" lon="11.23776">
<ele>646.225</ele>
<time>2022-05-26T12:24:16Z</time>
</trkpt>
<trkpt lat="47.965191" lon="11.237716">
<ele>646.341</ele>
<time>2022-05-26T12:24:17Z</time>
</trkpt>
<trkpt lat="47.965195" lon="11.237674">
<ele>646.429</ele>
<time>2022-05-26T12:24:18Z</time>
</trkpt>
<trkpt lat="47.965187" lon="11.237625">
<ele>646.487</ele>
<time>2022-05-26T12:24:19Z</time>
</trkpt>
<trkpt lat="47.965183" lon="11.237581">
<ele>646.513</ele>
<time>2022-05-26T12:24:20Z</time>
</trkpt>
<trkpt lat="47.965176" lon="11.237534">
<ele>646.73</ele>
<time>2022-05-26T12:24:21Z</time>
</trkpt>
<trkpt lat="47.965176" lon="11.237473">
<ele>646.912</ele>
<time>2022-05-26T12:24:22Z</time>
</trkpt>
<trkpt lat="47.965164" lon="11.237425">
<ele>647.06</ele>
<time>2022-05-26T12:24:23Z</time>
</trkpt>
<trkpt lat="47.965145" lon="11.23738">
<ele>647.158</ele>
<time>2022-05-26T12:24:24Z</time>
</trkpt>
<trkpt lat="47.96513" lon="11.237334">
<ele>647.258</ele>
<time>2022-05-26T12:24:25Z</time>
</trkpt>
<trkpt lat="47.965115" lon="11.237295">
<ele>647.327</ele>
<time>2022-05-26T12:24:26Z</time>
</trkpt>
<trkpt lat="47.965107" lon="11.237257">
<ele>647.645</ele>
<time>2022-05-26T12:24:27Z</time>
</trkpt>
<trkpt lat="47.965092" lon="11.237222">
<ele>647.867</ele>
<time>2022-05-26T12:24:28Z</time>
</trkpt>
<trkpt lat="47.96508" lon="11.23719">
<ele>648.375</ele>
<time>2022-05-26T12:24:29Z</time>
</trkpt>
<trkpt lat="47.965076" lon="11.237159">
<ele>648.681</ele>
<time>2022-05-26T12:24:30Z</time>
</trkpt>
<trkpt lat="47.965069" lon="11.237105">
<ele>649.222</ele>
<time>2022-05-26T12:24:31Z</time>
</trkpt>
<trkpt lat="47.965065" lon="11.23704">
<ele>649.621</ele>
<time>2022-05-26T12:24:32Z</time>
</trkpt>
<trkpt lat="47.965054" lon="11.236985">
<ele>649.847</ele>
<time>2022-05-26T12:24:33Z</time>
</trkpt>
<trkpt lat="47.96505" lon="11.236943">
<ele>650.365</ele>
<time>2022-05-26T12:24:34Z</time>
</trkpt>
<trkpt lat="47.965042" lon="11.236895">
<ele>650.986</ele>
<time>2022-05-26T12:24:35Z</time>
</trkpt>
<trkpt lat="47.965046" lon="11.236852">
<ele>651.392</ele>
<time>2022-05-26T12:24:36Z</time>
</trkpt>
<trkpt lat="47.965042" lon="11.236798">
<ele>651.981</ele>
<time>2022-05-26T12:24:37Z</time>
</trkpt>
<trkpt lat="47.965027" lon="11.236758">
<ele>652.345</ele>
<time>2022-05-26T12:24:38Z</time>
</trkpt>
<trkpt lat="47.965031" lon="11.236714">
<ele>652.872</ele>
<time>2022-05-26T12:24:39Z</time>
</trkpt>
<trkpt lat="47.965019" lon="11.236653">
<ele>653.628</ele>
<time>2022-05-26T12:24:40Z</time>
</trkpt>
<trkpt lat="47.965019" lon="11.236595">
<ele>654.285</ele>
<time>2022-05-26T12:24:41Z</time>
</trkpt>
<trkpt lat="47.965031" lon="11.23655">
<ele>654.687</ele>
<time>2022-05-26T12:24:42Z</time>
</trkpt>
<trkpt lat="47.965031" lon="11.236492">
<ele>655.279</ele>
<time>2022-05-26T12:24:43Z</time>
</trkpt>
<trkpt lat="47.965031" lon="11.236438">
<ele>655.694</ele>
<time>2022-05-26T12:24:44Z</time>
</trkpt>
<trkpt lat="47.965042" lon="11.236395">
<ele>656.299</ele>
<time>2022-05-26T12:24:45Z</time>
</trkpt>
<trkpt lat="47.96505" lon="11.236357">
<ele>656.776</ele>
<time>2022-05-26T12:24:46Z</time>
</trkpt>
<trkpt lat="47.965061" lon="11.236323">
<ele>657.085</ele>
<time>2022-05-26T12:24:47Z</time>
</trkpt>
<trkpt lat="47.965065" lon="11.236295">
<ele>657.294</ele>
<time>2022-05-26T12:24:48Z</time>
</trkpt>
<trkpt lat="47.965065" lon="11.236257">
<ele>657.486</ele>
<time>2022-05-26T12:24:49Z</time>
</trkpt>
<trkpt lat="47.965065" lon="11.236217">
<ele>657.613</ele>
<time>2022-05-26T12:24:50Z</time>
</trkpt>
<trkpt lat="47.965065" lon="11.236186">
<ele>657.669</ele>
<time>2022-05-26T12:24:51Z</time>
</trkpt>
<trkpt lat="47.96505" lon="11.236153">
<ele>657.703</ele>
<time>2022-05-26T12:24:52Z</time>
</trkpt>
<trkpt lat="47.965034" lon="11.236115">
<ele>657.703</ele>
<time>2022-05-26T12:24:53Z</time>
</trkpt>
<trkpt lat="47.965023" lon="11.236069">
<ele>657.703</ele>
<time>2022-05-26T12:24:54Z</time>
</trkpt>
<trkpt lat="47.965019" lon="11.236033">
<ele>657.703</ele>
<time>2022-05-26T12:24:55Z</time>
</trkpt>
<trkpt lat="47.965015" lon="11.235981">
<ele>657.703</ele>
<time>2022-05-26T12:24:56Z</time>
</trkpt>
<trkpt lat="47.965015" lon="11.23594">
<ele>657.703</ele>
<time>2022-05-26T12:24:57Z</time>
</trkpt>
<trkpt lat="47.965015" lon="11.2359">
<ele>657.703</ele>
<time>2022-05-26T12:24:58Z</time>
</trkpt>
<trkpt lat="47.965012" lon="11.235862">
<ele>657.703</ele>
<time>2022-05-26T12:24:59Z</time>
</trkpt>
<trkpt lat="47.965" lon="11.235832">
<ele>657.703</ele>
<time>2022-05-26T12:25:00Z</time>
</trkpt>
<trkpt lat="47.964993" lon="11.235802">
<ele>657.703</ele>
<time>2022-05-26T12:25:01Z</time>
</trkpt>
<trkpt lat="47.964981" lon="11.235768">
<ele>657.703</ele>
<time>2022-05-26T12:25:02Z</time>
</trkpt>
<trkpt lat="47.964962" lon="11.235715">
<ele>657.703</ele>
<time>2022-05-26T12:25:03Z</time>
</trkpt>
<trkpt lat="47.964951" lon="11.235662">
<ele>657.703</ele>
<time>2022-05-26T12:25:04Z</time>
</trkpt>
<trkpt lat="47.964928" lon="11.235606">
<ele>657.703</ele>
<time>2022-05-26T12:25:05Z</time>
</trkpt>
<trkpt lat="47.964909" lon="11.235548">
<ele>657.703</ele>
<time>2022-05-26T12:25:06Z</time>
</trkpt>
<trkpt lat="47.964886" lon="11.235495">
<ele>657.703</ele>
<time>2022-05-26T12:25:07Z</time>
</trkpt>
<trkpt lat="47.96487" lon="11.235442">
<ele>657.703</ele>
<time>2022-05-26T12:25:08Z</time>
</trkpt>
<trkpt lat="47.964855" lon="11.235398">
<ele>657.703</ele>
<time>2022-05-26T12:25:09Z</time>
</trkpt>
<trkpt lat="47.964848" lon="11.235351">
<ele>657.703</ele>
<time>2022-05-26T12:25:10Z</time>
</trkpt>
<trkpt lat="47.96484" lon="11.235304">
<ele>657.703</ele>
<time>2022-05-26T12:25:11Z</time>
</trkpt>
<trkpt lat="47.964836" lon="11.23525">
<ele>657.703</ele>
<time>2022-05-26T12:25:12Z</time>
</trkpt>
<trkpt lat="47.964832" lon="11.235191">
<ele>657.703</ele>
<time>2022-05-26T12:25:13Z</time>
</trkpt>
<trkpt lat="47.964813" lon="11.235118">
<ele>657.741</ele>
<time>2022-05-26T12:25:14Z</time>
</trkpt>
<trkpt lat="47.964787" lon="11.235068">
<ele>658.069</ele>
<time>2022-05-26T12:25:15Z</time>
</trkpt>
<trkpt lat="47.964764" lon="11.235028">
<ele>658.349</ele>
<time>2022-05-26T12:25:16Z</time>
</trkpt>
<trkpt lat="47.964745" lon="11.234988">
<ele>658.537</ele>
<time>2022-05-26T12:25:17Z</time>
</trkpt>
<trkpt lat="47.964722" lon="11.234961">
<ele>659.012</ele>
<time>2022-05-26T12:25:18Z</time>
</trkpt>
<trkpt lat="47.964714" lon="11.234935">
<ele>659.382</ele>
<time>2022-05-26T12:25:19Z</time>
</trkpt>
<trkpt lat="47.964706" lon="11.234925">
<ele>659.651</ele>
<time>2022-05-26T12:25:20Z</time>
</trkpt>
<trkpt lat="47.964706" lon="11.234903">
<ele>659.86</ele>
<time>2022-05-26T12:25:21Z</time>
</trkpt>
<trkpt lat="47.964699" lon="11.23488">
<ele>660.014</ele>
<time>2022-05-26T12:25:22Z</time>
</trkpt>
<trkpt lat="47.964699" lon="11.234873">
<ele>660.134</ele>
<time>2022-05-26T12:25:23Z</time>
</trkpt>
<trkpt lat="47.964691" lon="11.234848">
<ele>660.209</ele>
<time>2022-05-26T12:25:24Z</time>
</trkpt>
<trkpt lat="47.964699" lon="11.234823">
<ele>660.26</ele>
<time>2022-05-26T12:25:25Z</time>
</trkpt>
<trkpt lat="47.964703" lon="11.234795">
<ele>660.26</ele>
<time>2022-05-26T12:25:26Z</time>
</trkpt>
<trkpt lat="47.964703" lon="11.234749">
<ele>660.26</ele>
<time>2022-05-26T12:25:27Z</time>
</trkpt>
<trkpt lat="47.964706" lon="11.234701">
<ele>660.26</ele>
<time>2022-05-26T12:25:28Z</time>
</trkpt>
<trkpt lat="47.964706" lon="11.234645">
<ele>660.26</ele>
<time>2022-05-26T12:25:29Z</time>
</trkpt>
<trkpt lat="47.964703" lon="11.2346">
<ele>660.553</ele>
<time>2022-05-26T12:25:30Z</time>
</trkpt>
<trkpt lat="47.964699" lon="11.234553">
<ele>660.758</ele>
<time>2022-05-26T12:25:31Z</time>
</trkpt>
<trkpt lat="47.964672" lon="11.234497">
<ele>660.872</ele>
<time>2022-05-26T12:25:32Z</time>
</trkpt>
<trkpt lat="47.964672" lon="11.234458">
<ele>660.965</ele>
<time>2022-05-26T12:25:33Z</time>
</trkpt>
<trkpt lat="47.964672" lon="11.234425">
<ele>661.018</ele>
<time>2022-05-26T12:25:34Z</time>
</trkpt>
<trkpt lat="47.964672" lon="11.234386">
<ele>661.074</ele>
<time>2022-05-26T12:25:35Z</time>
</trkpt>
<trkpt lat="47.964672" lon="11.234353">
<ele>661.119</ele>
<time>2022-05-26T12:25:36Z</time>
</trkpt>
<trkpt lat="47.96468" lon="11.234303">
<ele>661.142</ele>
<time>2022-05-26T12:25:37Z</time>
</trkpt>
<trkpt lat="47.964691" lon="11.234255">
<ele>661.142</ele>
<time>2022-05-26T12:25:38Z</time>
</trkpt>
<trkpt lat="47.964699" lon="11.234225">
<ele>661.142</ele>
<time>2022-05-26T12:25:39Z</time>
</trkpt>
<trkpt lat="47.964714" lon="11.234187">
<ele>661.142</ele>
<time>2022-05-26T12:25:40Z</time>
</trkpt>
<trkpt lat="47.964729" lon="11.234157">
<ele>661.142</ele>
<time>2022-05-26T12:25:41Z</time>
</trkpt>
<trkpt lat="47.964752" lon="11.234132">
<ele>661.142</ele>
<time>2022-05-26T12:25:42Z</time>
</trkpt>
<trkpt lat="47.964767" lon="11.234103">
<ele>661.142</ele>
<time>2022-05-26T12:25:43Z</time>
</trkpt>
<trkpt lat="47.964783" lon="11.234065">
<ele>661.142</ele>
<time>2022-05-26T12:25:44Z</time>
</trkpt>
<trkpt lat="47.964794" lon="11.234028">
<ele>661.371</ele>
<time>2022-05-26T12:25:45Z</time>
</trkpt>
<trkpt lat="47.964813" lon="11.233996">
<ele>661.573</ele>
<time>2022-05-26T12:25:46Z</time>
</trkpt>
<trkpt lat="47.964836" lon="11.233967">
<ele>661.748</ele>
<time>2022-05-26T12:25:47Z</time>
</trkpt>
<trkpt lat="47.964851" lon="11.233933">
<ele>661.872</ele>
<time>2022-05-26T12:25:48Z</time>
</trkpt>
<trkpt lat="47.96487" lon="11.233902">
<ele>661.974</ele>
<time>2022-05-26T12:25:49Z</time>
</trkpt>
<trkpt lat="47.964882" lon="11.233865">
<ele>662.049</ele>
<time>2022-05-26T12:25:50Z</time>
</trkpt>
<trkpt lat="47.964893" lon="11.233831">
<ele>662.091</ele>
<time>2022-05-26T12:25:51Z</time>
</trkpt>
<trkpt lat="47.964916" lon="11.233795">
<ele>662.112</ele>
<time>2022-05-26T12:25:52Z</time>
</trkpt>
<trkpt lat="47.964928" lon="11.233753">
<ele>662.112</ele>
<time>2022-05-26T12:25:53Z</time>
</trkpt>
<trkpt lat="47.964943" lon="11.2337">
<ele>662.112</ele>
<time>2022-05-26T12:25:54Z</time>
</trkpt>
<trkpt lat="47.964954" lon="11.233646">
<ele>662.112</ele>
<time>2022-05-26T12:25:55Z</time>
</trkpt>
<trkpt lat="47.96497" lon="11.233592">
<ele>662.112</ele>
<time>2022-05-26T12:25:56Z</time>
</trkpt>
<trkpt lat="47.964985" lon="11.233541">
<ele>661.803</ele>
<time>2022-05-26T12:25:57Z</time>
</trkpt>
<trkpt lat="47.965004" lon="11.233499">
<ele>661.579</ele>
<time>2022-05-26T12:25:58Z</time>
</trkpt>
<trkpt lat="47.965031" lon="11.233463">
<ele>661.428</ele>
<time>2022-05-26T12:25:59Z</time>
</trkpt>
<trkpt lat="47.965054" lon="11.233438">
<ele>661.335</ele>
<time>2022-05-26T12:26:00Z</time>
</trkpt>
<trkpt lat="47.965073" lon="11.233389">
<ele>661.025</ele>
<time>2022-05-26T12:26:01Z</time>
</trkpt>
<trkpt lat="47.965096" lon="11.233333">
<ele>660.832</ele>
<time>2022-05-26T12:26:02Z</time>
</trkpt>
<trkpt lat="47.965111" lon="11.233274">
<ele>660.262</ele>
<time>2022-05-26T12:26:03Z</time>
</trkpt>
<trkpt lat="47.96513" lon="11.233209">
<ele>659.843</ele>
<time>2022-05-26T12:26:04Z</time>
</trkpt>
<trkpt lat="47.96516" lon="11.233135">
<ele>659.455</ele>
<time>2022-05-26T12:26:05Z</time>
</trkpt>
<trkpt lat="47.965202" lon="11.233042">
<ele>658.785</ele>
<time>2022-05-26T12:26:06Z</time>
</trkpt>
<trkpt lat="47.96526" lon="11.232935">
<ele>658.384</ele>
<time>2022-05-26T12:26:07Z</time>
</trkpt>
<trkpt lat="47.965309" lon="11.232818">
<ele>657.701</ele>
<time>2022-05-26T12:26:08Z</time>
</trkpt>
<trkpt lat="47.965343" lon="11.232743">
<ele>657.352</ele>
<time>2022-05-26T12:26:09Z</time>
</trkpt>
<trkpt lat="47.965378" lon="11.23265">
<ele>656.641</ele>
<time>2022-05-26T12:26:10Z</time>
</trkpt>
<trkpt lat="47.965408" lon="11.232566">
<ele>656.056</ele>
<time>2022-05-26T12:26:11Z</time>
</trkpt>
<trkpt lat="47.965435" lon="11.232487">
<ele>655.813</ele>
<time>2022-05-26T12:26:12Z</time>
</trkpt>
<trkpt lat="47.965462" lon="11.232407">
<ele>655.347</ele>
<time>2022-05-26T12:26:13Z</time>
</trkpt>
<trkpt lat="47.965488" lon="11.232344">
<ele>655.01</ele>
<time>2022-05-26T12:26:14Z</time>
</trkpt>
<trkpt lat="47.965523" lon="11.23228">
<ele>654.709</ele>
<time>2022-05-26T12:26:15Z</time>
</trkpt>
<trkpt lat="47.965569" lon="11.232206">
<ele>654.235</ele>
<time>2022-05-26T12:26:16Z</time>
</trkpt>
<trkpt lat="47.965603" lon="11.232117">
<ele>653.838</ele>
<time>2022-05-26T12:26:17Z</time>
</trkpt>
<trkpt lat="47.965641" lon="11.232032">
<ele>653.631</ele>
<time>2022-05-26T12:26:18Z</time>
</trkpt>
<trkpt lat="47.965679" lon="11.231956">
<ele>653.169</ele>
<time>2022-05-26T12:26:19Z</time>
</trkpt>
<trkpt lat="47.965717" lon="11.231881">
<ele>652.822</ele>
<time>2022-05-26T12:26:20Z</time>
</trkpt>
<trkpt lat="47.965748" lon="11.231813">
<ele>652.504</ele>
<time>2022-05-26T12:26:21Z</time>
</trkpt>
<trkpt lat="47.965778" lon="11.23175">
<ele>652.37</ele>
<time>2022-05-26T12:26:22Z</time>
</trkpt>
<trkpt lat="47.965805" lon="11.231695">
<ele>652.29</ele>
<time>2022-05-26T12:26:23Z</time>
</trkpt>
<trkpt lat="47.965824" lon="11.231633">
<ele>652.235</ele>
<time>2022-05-26T12:26:24Z</time>
</trkpt>
<trkpt lat="47.965836" lon="11.23158">
<ele>652.181</ele>
<time>2022-05-26T12:26:25Z</time>
</trkpt>
<trkpt lat="47.965862" lon="11.231548">
<ele>651.961</ele>
<time>2022-05-26T12:26:26Z</time>
</trkpt>
<trkpt lat="47.965881" lon="11.231506">
<ele>651.725</ele>
<time>2022-05-26T12:26:27Z</time>
</trkpt>
<trkpt lat="47.965904" lon="11.231463">
<ele>651.589</ele>
<time>2022-05-26T12:26:28Z</time>
</trkpt>
<trkpt lat="47.965927" lon="11.23143">
<ele>651.22</ele>
<time>2022-05-26T12:26:29Z</time>
</trkpt>
<trkpt lat="47.965961" lon="11.231412">
<ele>650.954</ele>
<time>2022-05-26T12:26:30Z</time>
</trkpt>
<trkpt lat="47.965981" lon="11.2314">
<ele>650.408</ele>
<time>2022-05-26T12:26:31Z</time>
</trkpt>
<trkpt lat="47.965992" lon="11.231392">
<ele>650.004</ele>
<time>2022-05-26T12:26:32Z</time>
</trkpt>
<trkpt lat="47.966026" lon="11.231376">
<ele>649.683</ele>
<time>2022-05-26T12:26:33Z</time>
</trkpt>
<trkpt lat="47.966068" lon="11.231359">
<ele>649.447</ele>
<time>2022-05-26T12:26:34Z</time>
</trkpt>
<trkpt lat="47.96611" lon="11.231334">
<ele>649.037</ele>
<time>2022-05-26T12:26:35Z</time>
</trkpt>
<trkpt lat="47.966129" lon="11.231303">
<ele>648.411</ele>
<time>2022-05-26T12:26:36Z</time>
</trkpt>
<trkpt lat="47.966156" lon="11.231312">
<ele>647.922</ele>
<time>2022-05-26T12:26:37Z</time>
</trkpt>
<trkpt lat="47.966194" lon="11.231309">
<ele>647.539</ele>
<time>2022-05-26T12:26:38Z</time>
</trkpt>
<trkpt lat="47.966221" lon="11.231276">
<ele>647.322</ele>
<time>2022-05-26T12:26:39Z</time>
</trkpt>
<trkpt lat="47.966255" lon="11.231258">
<ele>646.786</ele>
<time>2022-05-26T12:26:40Z</time>
</trkpt>
<trkpt lat="47.966309" lon="11.231242">
<ele>646.434</ele>
<time>2022-05-26T12:26:41Z</time>
</trkpt>
<trkpt lat="47.966366" lon="11.231225">
<ele>646.113</ele>
<time>2022-05-26T12:26:42Z</time>
</trkpt>
<trkpt lat="47.966419" lon="11.231216">
<ele>645.867</ele>
<time>2022-05-26T12:26:43Z</time>
</trkpt>
<trkpt lat="47.96645" lon="11.2312">
<ele>645.737</ele>
<time>2022-05-26T12:26:44Z</time>
</trkpt>
<trkpt lat="47.966492" lon="11.231185">
<ele>645.42</ele>
<time>2022-05-26T12:26:45Z</time>
</trkpt>
<trkpt lat="47.96653" lon="11.231156">
<ele>644.889</ele>
<time>2022-05-26T12:26:46Z</time>
</trkpt>
<trkpt lat="47.966583" lon="11.231123">
<ele>644.443</ele>
<time>2022-05-26T12:26:47Z</time>
</trkpt>
<trkpt lat="47.966637" lon="11.231095">
<ele>644.204</ele>
<time>2022-05-26T12:26:48Z</time>
</trkpt>
<trkpt lat="47.966679" lon="11.231076">
<ele>643.735</ele>
<time>2022-05-26T12:26:49Z</time>
</trkpt>
<trkpt lat="47.966709" lon="11.231058">
<ele>643.339</ele>
<time>2022-05-26T12:26:50Z</time>
</trkpt>
<trkpt lat="47.966747" lon="11.231038">
<ele>643.043</ele>
<time>2022-05-26T12:26:51Z</time>
</trkpt>
<trkpt lat="47.966785" lon="11.231011">
<ele>642.561</ele>
<time>2022-05-26T12:26:52Z</time>
</trkpt>
<trkpt lat="47.966827" lon="11.230984">
<ele>642.262</ele>
<time>2022-05-26T12:26:53Z</time>
</trkpt>
<trkpt lat="47.966862" lon="11.230947">
<ele>642.077</ele>
<time>2022-05-26T12:26:54Z</time>
</trkpt>
<trkpt lat="47.966892" lon="11.23089">
<ele>641.651</ele>
<time>2022-05-26T12:26:55Z</time>
</trkpt>
<trkpt lat="47.966938" lon="11.230833">
<ele>641.272</ele>
<time>2022-05-26T12:26:56Z</time>
</trkpt>
<trkpt lat="47.966969" lon="11.230772">
<ele>640.983</ele>
<time>2022-05-26T12:26:57Z</time>
</trkpt>
<trkpt lat="47.966999" lon="11.230703">
<ele>640.785</ele>
<time>2022-05-26T12:26:58Z</time>
</trkpt>
<trkpt lat="47.967022" lon="11.23063">
<ele>640.664</ele>
<time>2022-05-26T12:26:59Z</time>
</trkpt>
<trkpt lat="47.967041" lon="11.230577">
<ele>640.593</ele>
<time>2022-05-26T12:27:00Z</time>
</trkpt>
<trkpt lat="47.967056" lon="11.230525">
<ele>640.55</ele>
<time>2022-05-26T12:27:01Z</time>
</trkpt>
<trkpt lat="47.967072" lon="11.230467">
<ele>640.526</ele>
<time>2022-05-26T12:27:02Z</time>
</trkpt>
<trkpt lat="47.967102" lon="11.230402">
<ele>640.526</ele>
<time>2022-05-26T12:27:03Z</time>
</trkpt>
<trkpt lat="47.967121" lon="11.230339">
<ele>640.283</ele>
<time>2022-05-26T12:27:04Z</time>
</trkpt>
<trkpt lat="47.967148" lon="11.230282">
<ele>640.042</ele>
<time>2022-05-26T12:27:05Z</time>
</trkpt>
<trkpt lat="47.967182" lon="11.23023">
<ele>639.844</ele>
<time>2022-05-26T12:27:06Z</time>
</trkpt>
<trkpt lat="47.967209" lon="11.230184">
<ele>639.676</ele>
<time>2022-05-26T12:27:07Z</time>
</trkpt>
<trkpt lat="47.967232" lon="11.230135">
<ele>639.54</ele>
<time>2022-05-26T12:27:08Z</time>
</trkpt>
<trkpt lat="47.967255" lon="11.230098">
<ele>639.456</ele>
<time>2022-05-26T12:27:09Z</time>
</trkpt>
<trkpt lat="47.967266" lon="11.230052">
<ele>639.408</ele>
<time>2022-05-26T12:27:10Z</time>
</trkpt>
<trkpt lat="47.967289" lon="11.230003">
<ele>639.382</ele>
<time>2022-05-26T12:27:11Z</time>
</trkpt>
<trkpt lat="47.967312" lon="11.229963">
<ele>639.382</ele>
<time>2022-05-26T12:27:12Z</time>
</trkpt>
<trkpt lat="47.967331" lon="11.229925">
<ele>639.382</ele>
<time>2022-05-26T12:27:13Z</time>
</trkpt>
<trkpt lat="47.967365" lon="11.229867">
<ele>639.382</ele>
<time>2022-05-26T12:27:14Z</time>
</trkpt>
<trkpt lat="47.967384" lon="11.229832">
<ele>639.382</ele>
<time>2022-05-26T12:27:15Z</time>
</trkpt>
<trkpt lat="47.9674" lon="11.229795">
<ele>639.382</ele>
<time>2022-05-26T12:27:16Z</time>
</trkpt>
<trkpt lat="47.967415" lon="11.22977">
<ele>639.382</ele>
<time>2022-05-26T12:27:17Z</time>
</trkpt>
<trkpt lat="47.96743" lon="11.229744">
<ele>639.382</ele>
<time>2022-05-26T12:27:18Z</time>
</trkpt>
<trkpt lat="47.967445" lon="11.229716">
<ele>639.623</ele>
<time>2022-05-26T12:27:19Z</time>
</trkpt>
<trkpt lat="47.967464" lon="11.229665">
<ele>639.823</ele>
<time>2022-05-26T12:27:20Z</time>
</trkpt>
<trkpt lat="47.967484" lon="11.229615">
<ele>639.983</ele>
<time>2022-05-26T12:27:21Z</time>
</trkpt>
<trkpt lat="47.967495" lon="11.229558">
<ele>640.101</ele>
<time>2022-05-26T12:27:22Z</time>
</trkpt>
<trkpt lat="47.96751" lon="11.229497">
<ele>640.214</ele>
<time>2022-05-26T12:27:23Z</time>
</trkpt>
<trkpt lat="47.967518" lon="11.229438">
<ele>640.275</ele>
<time>2022-05-26T12:27:24Z</time>
</trkpt>
<trkpt lat="47.967525" lon="11.229382">
<ele>640.332</ele>
<time>2022-05-26T12:27:25Z</time>
</trkpt>
<trkpt lat="47.967537" lon="11.229327">
<ele>640.35</ele>
<time>2022-05-26T12:27:26Z</time>
</trkpt>
<trkpt lat="47.967548" lon="11.229277">
<ele>640.35</ele>
<time>2022-05-26T12:27:27Z</time>
</trkpt>
<trkpt lat="47.96756" lon="11.22923">
<ele>640.35</ele>
<time>2022-05-26T12:27:28Z</time>
</trkpt>
<trkpt lat="47.967571" lon="11.229195">
<ele>640.692</ele>
<time>2022-05-26T12:27:29Z</time>
</trkpt>
<trkpt lat="47.967587" lon="11.229159">
<ele>640.959</ele>
<time>2022-05-26T12:27:30Z</time>
</trkpt>
<trkpt lat="47.967602" lon="11.229115">
<ele>641.165</ele>
<time>2022-05-26T12:27:31Z</time>
</trkpt>
<trkpt lat="47.967625" lon="11.229074">
<ele>641.331</ele>
<time>2022-05-26T12:27:32Z</time>
</trkpt>
<trkpt lat="47.967636" lon="11.229038">
<ele>641.455</ele>
<time>2022-05-26T12:27:33Z</time>
</trkpt>
<trkpt lat="47.967651" lon="11.229013">
<ele>641.545</ele>
<time>2022-05-26T12:27:34Z</time>
</trkpt>
<trkpt lat="47.967659" lon="11.228995">
<ele>641.63</ele>
<time>2022-05-26T12:27:35Z</time>
</trkpt>
<trkpt lat="47.96767" lon="11.228962">
<ele>641.888</ele>
<time>2022-05-26T12:27:36Z</time>
</trkpt>
<trkpt lat="47.967682" lon="11.228933">
<ele>642.158</ele>
<time>2022-05-26T12:27:37Z</time>
</trkpt>
<trkpt lat="47.96769" lon="11.228906">
<ele>642.317</ele>
<time>2022-05-26T12:27:38Z</time>
</trkpt>
<trkpt lat="47.967693" lon="11.22888">
<ele>642.436</ele>
<time>2022-05-26T12:27:39Z</time>
</trkpt>
<trkpt lat="47.967693" lon="11.228855">
<ele>642.516</ele>
<time>2022-05-26T12:27:40Z</time>
</trkpt>
<trkpt lat="47.96769" lon="11.228828">
<ele>642.803</ele>
<time>2022-05-26T12:27:41Z</time>
</trkpt>
<trkpt lat="47.967693" lon="11.228797">
<ele>643.035</ele>
<time>2022-05-26T12:27:42Z</time>
</trkpt>
<trkpt lat="47.967701" lon="11.22876">
<ele>643.176</ele>
<time>2022-05-26T12:27:43Z</time>
</trkpt>
<trkpt lat="47.967709" lon="11.228726">
<ele>643.258</ele>
<time>2022-05-26T12:27:44Z</time>
</trkpt>
<trkpt lat="47.967709" lon="11.228692">
<ele>643.369</ele>
<time>2022-05-26T12:27:45Z</time>
</trkpt>
<trkpt lat="47.967716" lon="11.228661">
<ele>643.697</ele>
<time>2022-05-26T12:27:46Z</time>
</trkpt>
<trkpt lat="47.96772" lon="11.228632">
<ele>643.955</ele>
<time>2022-05-26T12:27:47Z</time>
</trkpt>
<trkpt lat="47.96772" lon="11.228603">
<ele>644.133</ele>
<time>2022-05-26T12:27:48Z</time>
</trkpt>
<trkpt lat="47.96772" lon="11.228566">
<ele>644.336</ele>
<time>2022-05-26T12:27:49Z</time>
</trkpt>
<trkpt lat="47.96772" lon="11.228531">
<ele>644.401</ele>
<time>2022-05-26T12:27:50Z</time>
</trkpt>
<trkpt lat="47.96772" lon="11.228497">
<ele>644.452</ele>
<time>2022-05-26T12:27:51Z</time>
</trkpt>
<trkpt lat="47.96772" lon="11.228468">
<ele>644.478</ele>
<time>2022-05-26T12:27:52Z</time>
</trkpt>
<trkpt lat="47.96772" lon="11.228441">
<ele>644.488</ele>
<time>2022-05-26T12:27:53Z</time>
</trkpt>
<trkpt lat="47.967724" lon="11.22841">
<ele>644.487</ele>
<time>2022-05-26T12:27:54Z</time>
</trkpt>
<trkpt lat="47.967735" lon="11.228374">
<ele>644.488</ele>
<time>2022-05-26T12:27:55Z</time>
</trkpt>
<trkpt lat="47.967747" lon="11.228333">
<ele>644.488</ele>
<time>2022-05-26T12:27:56Z</time>
</trkpt>
<trkpt lat="47.967754" lon="11.228298">
<ele>644.488</ele>
<time>2022-05-26T12:27:57Z</time>
</trkpt>
<trkpt lat="47.967758" lon="11.228265">
<ele>644.488</ele>
<time>2022-05-26T12:27:58Z</time>
</trkpt>
<trkpt lat="47.967773" lon="11.228225">
<ele>644.488</ele>
<time>2022-05-26T12:27:59Z</time>
</trkpt>
<trkpt lat="47.967777" lon="11.228189">
<ele>644.488</ele>
<time>2022-05-26T12:28:00Z</time>
</trkpt>
<trkpt lat="47.967785" lon="11.228137">
<ele>644.488</ele>
<time>2022-05-26T12:28:01Z</time>
</trkpt>
<trkpt lat="47.9678" lon="11.228085">
<ele>644.488</ele>
<time>2022-05-26T12:28:02Z</time>
</trkpt>
<trkpt lat="47.967812" lon="11.228037">
<ele>644.488</ele>
<time>2022-05-26T12:28:03Z</time>
</trkpt>
<trkpt lat="47.967831" lon="11.227968">
<ele>644.488</ele>
<time>2022-05-26T12:28:04Z</time>
</trkpt>
<trkpt lat="47.967846" lon="11.227913">
<ele>644.757</ele>
<time>2022-05-26T12:28:05Z</time>
</trkpt>
<trkpt lat="47.96785" lon="11.22785">
<ele>644.966</ele>
<time>2022-05-26T12:28:06Z</time>
</trkpt>
<trkpt lat="47.96785" lon="11.227775">
<ele>645.124</ele>
<time>2022-05-26T12:28:07Z</time>
</trkpt>
<trkpt lat="47.967854" lon="11.227712">
<ele>645.247</ele>
<time>2022-05-26T12:28:08Z</time>
</trkpt>
<trkpt lat="47.967873" lon="11.227667">
<ele>645.327</ele>
<time>2022-05-26T12:28:09Z</time>
</trkpt>
<trkpt lat="47.967896" lon="11.227622">
<ele>645.393</ele>
<time>2022-05-26T12:28:10Z</time>
</trkpt>
<trkpt lat="47.967903" lon="11.227582">
<ele>645.434</ele>
<time>2022-05-26T12:28:11Z</time>
</trkpt>
<trkpt lat="47.967911" lon="11.227538">
<ele>645.693</ele>
<time>2022-05-26T12:28:12Z</time>
</trkpt>
<trkpt lat="47.967907" lon="11.227496">
<ele>645.899</ele>
<time>2022-05-26T12:28:13Z</time>
</trkpt>
<trkpt lat="47.967915" lon="11.227456">
<ele>646.038</ele>
<time>2022-05-26T12:28:14Z</time>
</trkpt>
<trkpt lat="47.967918" lon="11.227414">
<ele>646.378</ele>
<time>2022-05-26T12:28:15Z</time>
</trkpt>
<trkpt lat="47.967922" lon="11.227375">
<ele>646.689</ele>
<time>2022-05-26T12:28:16Z</time>
</trkpt>
<trkpt lat="47.967934" lon="11.227344">
<ele>646.911</ele>
<time>2022-05-26T12:28:17Z</time>
</trkpt>
<trkpt lat="47.967949" lon="11.227313">
<ele>647.3</ele>
<time>2022-05-26T12:28:18Z</time>
</trkpt>
<trkpt lat="47.96796" lon="11.227274">
<ele>647.889</ele>
<time>2022-05-26T12:28:19Z</time>
</trkpt>
<trkpt lat="47.967987" lon="11.227228">
<ele>648.265</ele>
<time>2022-05-26T12:28:20Z</time>
</trkpt>
<trkpt lat="47.968006" lon="11.227201">
<ele>648.87</ele>
<time>2022-05-26T12:28:21Z</time>
</trkpt>
<trkpt lat="47.968029" lon="11.227165">
<ele>649.632</ele>
<time>2022-05-26T12:28:22Z</time>
</trkpt>
<trkpt lat="47.96806" lon="11.227134">
<ele>650.138</ele>
<time>2022-05-26T12:28:23Z</time>
</trkpt>
<trkpt lat="47.968079" lon="11.227098">
<ele>650.84</ele>
<time>2022-05-26T12:28:24Z</time>
</trkpt>
<trkpt lat="47.968109" lon="11.227064">
<ele>651.397</ele>
<time>2022-05-26T12:28:25Z</time>
</trkpt>
<trkpt lat="47.968132" lon="11.227033">
<ele>651.717</ele>
<time>2022-05-26T12:28:26Z</time>
</trkpt>
<trkpt lat="47.968151" lon="11.226994">
<ele>652.224</ele>
<time>2022-05-26T12:28:27Z</time>
</trkpt>
<trkpt lat="47.96817" lon="11.226954">
<ele>652.57</ele>
<time>2022-05-26T12:28:28Z</time>
</trkpt>
<trkpt lat="47.968185" lon="11.226922">
<ele>653.125</ele>
<time>2022-05-26T12:28:29Z</time>
</trkpt>
<trkpt lat="47.968204" lon="11.226898">
<ele>653.455</ele>
<time>2022-05-26T12:28:30Z</time>
</trkpt>
<trkpt lat="47.96822" lon="11.226873">
<ele>654.04</ele>
<time>2022-05-26T12:28:31Z</time>
</trkpt>
<trkpt lat="47.968243" lon="11.226847">
<ele>654.562</ele>
<time>2022-05-26T12:28:32Z</time>
</trkpt>
<trkpt lat="47.968262" lon="11.226809">
<ele>654.888</ele>
<time>2022-05-26T12:28:33Z</time>
</trkpt>
<trkpt lat="47.968277" lon="11.226773">
<ele>655.137</ele>
<time>2022-05-26T12:28:34Z</time>
</trkpt>
<trkpt lat="47.968296" lon="11.226742">
<ele>655.334</ele>
<time>2022-05-26T12:28:35Z</time>
</trkpt>
<trkpt lat="47.968311" lon="11.226706">
<ele>655.474</ele>
<time>2022-05-26T12:28:36Z</time>
</trkpt>
<trkpt lat="47.96833" lon="11.226668">
<ele>655.798</ele>
<time>2022-05-26T12:28:37Z</time>
</trkpt>
<trkpt lat="47.968342" lon="11.226632">
<ele>656.036</ele>
<time>2022-05-26T12:28:38Z</time>
</trkpt>
<trkpt lat="47.968357" lon="11.2266">
<ele>656.262</ele>
<time>2022-05-26T12:28:39Z</time>
</trkpt>
<trkpt lat="47.968372" lon="11.226568">
<ele>656.366</ele>
<time>2022-05-26T12:28:40Z</time>
</trkpt>
<trkpt lat="47.968384" lon="11.226537">
<ele>656.438</ele>
<time>2022-05-26T12:28:41Z</time>
</trkpt>
<trkpt lat="47.968399" lon="11.226507">
<ele>656.726</ele>
<time>2022-05-26T12:28:42Z</time>
</trkpt>
<trkpt lat="47.968407" lon="11.22648">
<ele>656.946</ele>
<time>2022-05-26T12:28:43Z</time>
</trkpt>
<trkpt lat="47.96841" lon="11.226453">
<ele>657.106</ele>
<time>2022-05-26T12:28:44Z</time>
</trkpt>
<trkpt lat="47.968418" lon="11.226423">
<ele>657.443</ele>
<time>2022-05-26T12:28:45Z</time>
</trkpt>
<trkpt lat="47.96843" lon="11.22639">
<ele>657.732</ele>
<time>2022-05-26T12:28:46Z</time>
</trkpt>
<trkpt lat="47.968433" lon="11.226354">
<ele>657.976</ele>
<time>2022-05-26T12:28:47Z</time>
</trkpt>
<trkpt lat="47.968437" lon="11.226316">
<ele>658.151</ele>
<time>2022-05-26T12:28:48Z</time>
</trkpt>
<trkpt lat="47.968445" lon="11.226285">
<ele>658.273</ele>
<time>2022-05-26T12:28:49Z</time>
</trkpt>
<trkpt lat="47.968456" lon="11.226255">
<ele>658.345</ele>
<time>2022-05-26T12:28:50Z</time>
</trkpt>
<trkpt lat="47.968472" lon="11.226216">
<ele>658.391</ele>
<time>2022-05-26T12:28:51Z</time>
</trkpt>
<trkpt lat="47.968479" lon="11.226178">
<ele>658.408</ele>
<time>2022-05-26T12:28:52Z</time>
</trkpt>
<trkpt lat="47.968487" lon="11.226142">
<ele>658.408</ele>
<time>2022-05-26T12:28:53Z</time>
</trkpt>
<trkpt lat="47.968502" lon="11.226102">
<ele>658.188</ele>
<time>2022-05-26T12:28:54Z</time>
</trkpt>
<trkpt lat="47.968513" lon="11.226063">
<ele>657.978</ele>
<time>2022-05-26T12:28:55Z</time>
</trkpt>
<trkpt lat="47.968521" lon="11.226025">
<ele>657.807</ele>
<time>2022-05-26T12:28:56Z</time>
</trkpt>
<trkpt lat="47.968529" lon="11.225991">
<ele>657.674</ele>
<time>2022-05-26T12:28:57Z</time>
</trkpt>
<trkpt lat="47.968536" lon="11.225958">
<ele>657.579</ele>
<time>2022-05-26T12:28:58Z</time>
</trkpt>
<trkpt lat="47.968536" lon="11.22592">
<ele>657.513</ele>
<time>2022-05-26T12:28:59Z</time>
</trkpt>
<trkpt lat="47.968548" lon="11.225874">
<ele>657.466</ele>
<time>2022-05-26T12:29:00Z</time>
</trkpt>
<trkpt lat="47.96854" lon="11.225817">
<ele>657.127</ele>
<time>2022-05-26T12:29:01Z</time>
</trkpt>
<trkpt lat="47.968548" lon="11.225765">
<ele>656.856</ele>
<time>2022-05-26T12:29:02Z</time>
</trkpt>
<trkpt lat="47.968548" lon="11.225719">
<ele>656.646</ele>
<time>2022-05-26T12:29:03Z</time>
</trkpt>
<trkpt lat="47.968548" lon="11.225663">
<ele>656.515</ele>
<time>2022-05-26T12:29:04Z</time>
</trkpt>
<trkpt lat="47.968548" lon="11.225596">
<ele>656.368</ele>
<time>2022-05-26T12:29:05Z</time>
</trkpt>
<trkpt lat="47.968544" lon="11.22554">
<ele>656.28</ele>
<time>2022-05-26T12:29:06Z</time>
</trkpt>
<trkpt lat="47.968548" lon="11.225491">
<ele>656.231</ele>
<time>2022-05-26T12:29:07Z</time>
</trkpt>
<trkpt lat="47.96854" lon="11.225429">
<ele>655.895</ele>
<time>2022-05-26T12:29:08Z</time>
</trkpt>
<trkpt lat="47.968533" lon="11.225357">
<ele>655.58</ele>
<time>2022-05-26T12:29:09Z</time>
</trkpt>
<trkpt lat="47.968521" lon="11.22531">
<ele>655.372</ele>
<time>2022-05-26T12:29:10Z</time>
</trkpt>
<trkpt lat="47.968491" lon="11.225255">
<ele>655.218</ele>
<time>2022-05-26T12:29:11Z</time>
</trkpt>
<trkpt lat="47.968472" lon="11.22521">
<ele>655.132</ele>
<time>2022-05-26T12:29:12Z</time>
</trkpt>
<trkpt lat="47.968456" lon="11.225172">
<ele>655.063</ele>
<time>2022-05-26T12:29:13Z</time>
</trkpt>
<trkpt lat="47.968433" lon="11.22513">
<ele>655.004</ele>
<time>2022-05-26T12:29:14Z</time>
</trkpt>
<trkpt lat="47.968407" lon="11.225095">
<ele>654.97</ele>
<time>2022-05-26T12:29:15Z</time>
</trkpt>
<trkpt lat="47.968388" lon="11.225065">
<ele>654.971</ele>
<time>2022-05-26T12:29:16Z</time>
</trkpt>
<trkpt lat="47.968372" lon="11.225025">
<ele>654.733</ele>
<time>2022-05-26T12:29:17Z</time>
</trkpt>
<trkpt lat="47.968384" lon="11.224969">
<ele>654.532</ele>
<time>2022-05-26T12:29:18Z</time>
</trkpt>
<trkpt lat="47.96838" lon="11.224925">
<ele>654.39</ele>
<time>2022-05-26T12:29:19Z</time>
</trkpt>
<trkpt lat="47.968384" lon="11.224876">
<ele>654.264</ele>
<time>2022-05-26T12:29:20Z</time>
</trkpt>
<trkpt lat="47.968384" lon="11.224839">
<ele>654.181</ele>
<time>2022-05-26T12:29:21Z</time>
</trkpt>
<trkpt lat="47.96838" lon="11.224805">
<ele>654.135</ele>
<time>2022-05-26T12:29:22Z</time>
</trkpt>
<trkpt lat="47.96838" lon="11.224766">
<ele>654.111</ele>
<time>2022-05-26T12:29:23Z</time>
</trkpt>
<trkpt lat="47.96838" lon="11.224733">
<ele>654.089</ele>
<time>2022-05-26T12:29:24Z</time>
</trkpt>
<trkpt lat="47.968372" lon="11.224695">
<ele>654.089</ele>
<time>2022-05-26T12:29:25Z</time>
</trkpt>
<trkpt lat="47.968372" lon="11.224671">
<ele>654.089</ele>
<time>2022-05-26T12:29:26Z</time>
</trkpt>
<trkpt lat="47.968372" lon="11.224647">
<ele>654.089</ele>
<time>2022-05-26T12:29:27Z</time>
</trkpt>
<trkpt lat="47.968372" lon="11.224631">
<ele>654.089</ele>
<time>2022-05-26T12:29:28Z</time>
</trkpt>
<trkpt lat="47.968369" lon="11.224619">
<ele>654.089</ele>
<time>2022-05-26T12:29:29Z</time>
</trkpt>
<trkpt lat="47.968361" lon="11.224611">
<ele>654.089</ele>
<time>2022-05-26T12:29:30Z</time>
</trkpt>
<trkpt lat="47.968307" lon="11.224504">
<ele>654.089</ele>
<time>2022-05-26T12:30:08Z</time>
</trkpt>
<trkpt lat="47.968307" lon="11.2245">
<ele>654.166</ele>
<time>2022-05-26T12:30:09Z</time>
</trkpt>
<trkpt lat="47.968307" lon="11.224497">
<ele>654.221</ele>
<time>2022-05-26T12:30:10Z</time>
</trkpt>
<trkpt lat="47.968307" lon="11.224495">
<ele>654.271</ele>
<time>2022-05-26T12:30:11Z</time>
</trkpt>
<trkpt lat="47.968315" lon="11.224477">
<ele>654.304</ele>
<time>2022-05-26T12:30:25Z</time>
</trkpt>
<trkpt lat="47.968334" lon="11.224468">
<ele>654.33</ele>
<time>2022-05-26T12:30:26Z</time>
</trkpt>
<trkpt lat="47.968349" lon="11.22446">
<ele>654.343</ele>
<time>2022-05-26T12:30:27Z</time>
</trkpt>
<trkpt lat="47.968369" lon="11.224454">
<ele>654.351</ele>
<time>2022-05-26T12:30:28Z</time>
</trkpt>
<trkpt lat="47.968395" lon="11.224454">
<ele>654.353</ele>
<time>2022-05-26T12:30:29Z</time>
</trkpt>
<trkpt lat="47.968418" lon="11.22445">
<ele>654.354</ele>
<time>2022-05-26T12:30:30Z</time>
</trkpt>
<trkpt lat="47.968445" lon="11.224443">
<ele>654.354</ele>
<time>2022-05-26T12:30:31Z</time>
</trkpt>
<trkpt lat="47.968475" lon="11.224442">
<ele>654.353</ele>
<time>2022-05-26T12:30:32Z</time>
</trkpt>
<trkpt lat="47.96851" lon="11.224443">
<ele>654.354</ele>
<time>2022-05-26T12:30:33Z</time>
</trkpt>
<trkpt lat="47.96854" lon="11.224445">
<ele>654.353</ele>
<time>2022-05-26T12:30:34Z</time>
</trkpt>
<trkpt lat="47.968571" lon="11.224447">
<ele>654.617</ele>
<time>2022-05-26T12:30:35Z</time>
</trkpt>
<trkpt lat="47.968605" lon="11.22445">
<ele>654.821</ele>
<time>2022-05-26T12:30:36Z</time>
</trkpt>
<trkpt lat="47.968639" lon="11.224454">
<ele>654.973</ele>
<time>2022-05-26T12:30:37Z</time>
</trkpt>
<trkpt lat="47.968674" lon="11.224456">
<ele>655.097</ele>
<time>2022-05-26T12:30:38Z</time>
</trkpt>
<trkpt lat="47.968704" lon="11.224456">
<ele>655.188</ele>
<time>2022-05-26T12:30:39Z</time>
</trkpt>
<trkpt lat="47.968742" lon="11.224458">
<ele>655.245</ele>
<time>2022-05-26T12:30:40Z</time>
</trkpt>
<trkpt lat="47.968773" lon="11.224458">
<ele>655.513</ele>
<time>2022-05-26T12:30:41Z</time>
</trkpt>
<trkpt lat="47.968807" lon="11.224458">
<ele>655.721</ele>
<time>2022-05-26T12:30:42Z</time>
</trkpt>
<trkpt lat="47.968842" lon="11.224456">
<ele>655.868</ele>
<time>2022-05-26T12:30:43Z</time>
</trkpt>
<trkpt lat="47.968876" lon="11.224454">
<ele>655.96</ele>
<time>2022-05-26T12:30:44Z</time>
</trkpt>
<trkpt lat="47.96891" lon="11.224454">
<ele>656.341</ele>
<time>2022-05-26T12:30:45Z</time>
</trkpt>
<trkpt lat="47.968945" lon="11.224456">
<ele>656.654</ele>
<time>2022-05-26T12:30:46Z</time>
</trkpt>
<trkpt lat="47.968983" lon="11.224454">
<ele>656.889</ele>
<time>2022-05-26T12:30:47Z</time>
</trkpt>
<trkpt lat="47.969021" lon="11.224454">
<ele>657.066</ele>
<time>2022-05-26T12:30:48Z</time>
</trkpt>
<trkpt lat="47.969059" lon="11.224452">
<ele>657.187</ele>
<time>2022-05-26T12:30:49Z</time>
</trkpt>
<trkpt lat="47.969101" lon="11.224456">
<ele>657.272</ele>
<time>2022-05-26T12:30:50Z</time>
</trkpt>
<trkpt lat="47.969143" lon="11.224458">
<ele>657.325</ele>
<time>2022-05-26T12:30:51Z</time>
</trkpt>
<trkpt lat="47.969189" lon="11.22446">
<ele>657.35</ele>
<time>2022-05-26T12:30:52Z</time>
</trkpt>
<trkpt lat="47.969231" lon="11.224458">
<ele>657.35</ele>
<time>2022-05-26T12:30:53Z</time>
</trkpt>
<trkpt lat="47.969273" lon="11.224456">
<ele>657.35</ele>
<time>2022-05-26T12:30:54Z</time>
</trkpt>
<trkpt lat="47.969315" lon="11.224454">
<ele>657.571</ele>
<time>2022-05-26T12:30:55Z</time>
</trkpt>
<trkpt lat="47.969357" lon="11.22445">
<ele>657.75</ele>
<time>2022-05-26T12:30:56Z</time>
</trkpt>
<trkpt lat="47.969402" lon="11.224452">
<ele>657.894</ele>
<time>2022-05-26T12:30:57Z</time>
</trkpt>
<trkpt lat="47.969444" lon="11.224452">
<ele>658.01</ele>
<time>2022-05-26T12:30:58Z</time>
</trkpt>
<trkpt lat="47.969486" lon="11.224448">
<ele>658.102</ele>
<time>2022-05-26T12:30:59Z</time>
</trkpt>
<trkpt lat="47.969524" lon="11.22445">
<ele>658.167</ele>
<time>2022-05-26T12:31:00Z</time>
</trkpt>
<trkpt lat="47.969566" lon="11.224452">
<ele>658.211</ele>
<time>2022-05-26T12:31:01Z</time>
</trkpt>
<trkpt lat="47.969604" lon="11.224448">
<ele>658.232</ele>
<time>2022-05-26T12:31:02Z</time>
</trkpt>
<trkpt lat="47.969646" lon="11.224443">
<ele>658.232</ele>
<time>2022-05-26T12:31:03Z</time>
</trkpt>
<trkpt lat="47.969688" lon="11.224435">
<ele>658.232</ele>
<time>2022-05-26T12:31:04Z</time>
</trkpt>
<trkpt lat="47.969734" lon="11.224428">
<ele>658.232</ele>
<time>2022-05-26T12:31:05Z</time>
</trkpt>
<trkpt lat="47.969776" lon="11.224421">
<ele>658.232</ele>
<time>2022-05-26T12:31:06Z</time>
</trkpt>
<trkpt lat="47.969818" lon="11.224408">
<ele>658.232</ele>
<time>2022-05-26T12:31:07Z</time>
</trkpt>
<trkpt lat="47.969868" lon="11.224397">
<ele>658.232</ele>
<time>2022-05-26T12:31:08Z</time>
</trkpt>
<trkpt lat="47.96991" lon="11.224383">
<ele>658.232</ele>
<time>2022-05-26T12:31:09Z</time>
</trkpt>
<trkpt lat="47.969959" lon="11.224375">
<ele>658.232</ele>
<time>2022-05-26T12:31:10Z</time>
</trkpt>
<trkpt lat="47.970009" lon="11.224368">
<ele>658.232</ele>
<time>2022-05-26T12:31:11Z</time>
</trkpt>
<trkpt lat="47.970062" lon="11.224363">
<ele>658.232</ele>
<time>2022-05-26T12:31:12Z</time>
</trkpt>
<trkpt lat="47.970116" lon="11.224357">
<ele>658.232</ele>
<time>2022-05-26T12:31:13Z</time>
</trkpt>
<trkpt lat="47.970165" lon="11.224345">
<ele>658.232</ele>
<time>2022-05-26T12:31:14Z</time>
</trkpt>
<trkpt lat="47.970219" lon="11.22434">
<ele>658.232</ele>
<time>2022-05-26T12:31:15Z</time>
</trkpt>
<trkpt lat="47.970261" lon="11.224339">
<ele>658.232</ele>
<time>2022-05-26T12:31:16Z</time>
</trkpt>
<trkpt lat="47.970299" lon="11.224332">
<ele>658.232</ele>
<time>2022-05-26T12:31:17Z</time>
</trkpt>
<trkpt lat="47.970352" lon="11.224318">
<ele>658.232</ele>
<time>2022-05-26T12:31:18Z</time>
</trkpt>
<trkpt lat="47.970394" lon="11.224305">
<ele>657.999</ele>
<time>2022-05-26T12:31:19Z</time>
</trkpt>
<trkpt lat="47.970451" lon="11.224288">
<ele>657.811</ele>
<time>2022-05-26T12:31:20Z</time>
</trkpt>
<trkpt lat="47.970509" lon="11.224277">
<ele>657.663</ele>
<time>2022-05-26T12:31:21Z</time>
</trkpt>
<trkpt lat="47.970573" lon="11.224261">
<ele>657.553</ele>
<time>2022-05-26T12:31:22Z</time>
</trkpt>
<trkpt lat="47.970638" lon="11.224248">
<ele>657.491</ele>
<time>2022-05-26T12:31:23Z</time>
</trkpt>
<trkpt lat="47.970699" lon="11.224236">
<ele>657.158</ele>
<time>2022-05-26T12:31:24Z</time>
</trkpt>
<trkpt lat="47.970757" lon="11.224225">
<ele>656.881</ele>
<time>2022-05-26T12:31:25Z</time>
</trkpt>
<trkpt lat="47.970818" lon="11.224213">
<ele>656.685</ele>
<time>2022-05-26T12:31:26Z</time>
</trkpt>
<trkpt lat="47.970882" lon="11.224198">
<ele>656.544</ele>
<time>2022-05-26T12:31:27Z</time>
</trkpt>
<trkpt lat="47.97094" lon="11.224187">
<ele>656.444</ele>
<time>2022-05-26T12:31:28Z</time>
</trkpt>
<trkpt lat="47.970982" lon="11.224181">
<ele>656.38</ele>
<time>2022-05-26T12:31:29Z</time>
</trkpt>
<trkpt lat="47.97102" lon="11.224165">
<ele>656.102</ele>
<time>2022-05-26T12:31:30Z</time>
</trkpt>
<trkpt lat="47.971081" lon="11.224142">
<ele>655.881</ele>
<time>2022-05-26T12:31:31Z</time>
</trkpt>
<trkpt lat="47.971138" lon="11.224127">
<ele>655.702</ele>
<time>2022-05-26T12:31:32Z</time>
</trkpt>
<trkpt lat="47.971203" lon="11.224114">
<ele>655.583</ele>
<time>2022-05-26T12:31:33Z</time>
</trkpt>
<trkpt lat="47.971287" lon="11.224093">
<ele>655.501</ele>
<time>2022-05-26T12:31:34Z</time>
</trkpt>
<trkpt lat="47.971355" lon="11.224081">
<ele>655.156</ele>
<time>2022-05-26T12:31:35Z</time>
</trkpt>
<trkpt lat="47.971432" lon="11.224065">
<ele>654.875</ele>
<time>2022-05-26T12:31:36Z</time>
</trkpt>
<trkpt lat="47.971508" lon="11.22405">
<ele>654.674</ele>
<time>2022-05-26T12:31:37Z</time>
</trkpt>
<trkpt lat="47.971577" lon="11.224033">
<ele>654.588</ele>
<time>2022-05-26T12:31:38Z</time>
</trkpt>
<trkpt lat="47.971642" lon="11.22402">
<ele>654.273</ele>
<time>2022-05-26T12:31:39Z</time>
</trkpt>
<trkpt lat="47.97171" lon="11.224008">
<ele>654.021</ele>
<time>2022-05-26T12:31:40Z</time>
</trkpt>
<trkpt lat="47.971783" lon="11.224004">
<ele>653.837</ele>
<time>2022-05-26T12:31:41Z</time>
</trkpt>
<trkpt lat="47.971863" lon="11.224002">
<ele>653.701</ele>
<time>2022-05-26T12:31:42Z</time>
</trkpt>
<trkpt lat="47.971947" lon="11.224011">
<ele>653.602</ele>
<time>2022-05-26T12:31:43Z</time>
</trkpt>
<trkpt lat="47.972015" lon="11.224032">
<ele>653.549</ele>
<time>2022-05-26T12:31:44Z</time>
</trkpt>
<trkpt lat="47.972088" lon="11.224053">
<ele>653.497</ele>
<time>2022-05-26T12:31:45Z</time>
</trkpt>
<trkpt lat="47.972137" lon="11.224072">
<ele>653.472</ele>
<time>2022-05-26T12:31:46Z</time>
</trkpt>
<trkpt lat="47.97221" lon="11.224085">
<ele>653.472</ele>
<time>2022-05-26T12:31:47Z</time>
</trkpt>
<trkpt lat="47.972279" lon="11.224098">
<ele>653.472</ele>
<time>2022-05-26T12:31:48Z</time>
</trkpt>
<trkpt lat="47.972328" lon="11.224123">
<ele>653.472</ele>
<time>2022-05-26T12:31:49Z</time>
</trkpt>
<trkpt lat="47.972378" lon="11.224146">
<ele>653.232</ele>
<time>2022-05-26T12:31:50Z</time>
</trkpt>
<trkpt lat="47.97245" lon="11.224172">
<ele>653.034</ele>
<time>2022-05-26T12:31:51Z</time>
</trkpt>
<trkpt lat="47.972507" lon="11.224194">
<ele>652.875</ele>
<time>2022-05-26T12:31:52Z</time>
</trkpt>
<trkpt lat="47.972561" lon="11.224218">
<ele>652.756</ele>
<time>2022-05-26T12:31:53Z</time>
</trkpt>
<trkpt lat="47.97261" lon="11.22425">
<ele>652.667</ele>
<time>2022-05-26T12:31:54Z</time>
</trkpt>
<trkpt lat="47.972656" lon="11.224276">
<ele>652.591</ele>
<time>2022-05-26T12:31:55Z</time>
</trkpt>
<trkpt lat="47.972702" lon="11.2243">
<ele>652.533</ele>
<time>2022-05-26T12:31:56Z</time>
</trkpt>
<trkpt lat="47.972744" lon="11.224305">
<ele>652.503</ele>
<time>2022-05-26T12:31:57Z</time>
</trkpt>
<trkpt lat="47.97279" lon="11.224325">
<ele>652.503</ele>
<time>2022-05-26T12:31:58Z</time>
</trkpt>
<trkpt lat="47.972836" lon="11.224345">
<ele>652.503</ele>
<time>2022-05-26T12:31:59Z</time>
</trkpt>
<trkpt lat="47.972889" lon="11.224375">
<ele>652.503</ele>
<time>2022-05-26T12:32:00Z</time>
</trkpt>
<trkpt lat="47.972942" lon="11.224403">
<ele>652.253</ele>
<time>2022-05-26T12:32:01Z</time>
</trkpt>
<trkpt lat="47.973003" lon="11.224428">
<ele>652.046</ele>
<time>2022-05-26T12:32:02Z</time>
</trkpt>
<trkpt lat="47.973068" lon="11.224443">
<ele>651.882</ele>
<time>2022-05-26T12:32:03Z</time>
</trkpt>
<trkpt lat="47.973125" lon="11.224456">
<ele>651.783</ele>
<time>2022-05-26T12:32:04Z</time>
</trkpt>
<trkpt lat="47.973183" lon="11.224456">
<ele>651.672</ele>
<time>2022-05-26T12:32:05Z</time>
</trkpt>
<trkpt lat="47.973244" lon="11.224458">
<ele>651.602</ele>
<time>2022-05-26T12:32:06Z</time>
</trkpt>
<trkpt lat="47.973351" lon="11.224458">
<ele>651.251</ele>
<time>2022-05-26T12:32:07Z</time>
</trkpt>
<trkpt lat="47.973412" lon="11.224458">
<ele>650.996</ele>
<time>2022-05-26T12:32:08Z</time>
</trkpt>
<trkpt lat="47.973503" lon="11.224458">
<ele>650.725</ele>
<time>2022-05-26T12:32:09Z</time>
</trkpt>
<trkpt lat="47.973587" lon="11.224462">
<ele>650.588</ele>
<time>2022-05-26T12:32:10Z</time>
</trkpt>
<trkpt lat="47.973667" lon="11.224463">
<ele>650.492</ele>
<time>2022-05-26T12:32:11Z</time>
</trkpt>
<trkpt lat="47.973747" lon="11.224456">
<ele>650.437</ele>
<time>2022-05-26T12:32:12Z</time>
</trkpt>
<trkpt lat="47.973816" lon="11.224442">
<ele>650.409</ele>
<time>2022-05-26T12:32:13Z</time>
</trkpt>
<trkpt lat="47.973892" lon="11.224423">
<ele>650.388</ele>
<time>2022-05-26T12:32:14Z</time>
</trkpt>
<trkpt lat="47.973957" lon="11.22441">
<ele>650.164</ele>
<time>2022-05-26T12:32:15Z</time>
</trkpt>
<trkpt lat="47.974026" lon="11.224399">
<ele>649.962</ele>
<time>2022-05-26T12:32:16Z</time>
</trkpt>
<trkpt lat="47.974094" lon="11.224383">
<ele>649.812</ele>
<time>2022-05-26T12:32:17Z</time>
</trkpt>
<trkpt lat="47.974155" lon="11.224372">
<ele>649.676</ele>
<time>2022-05-26T12:32:18Z</time>
</trkpt>
<trkpt lat="47.974216" lon="11.224358">
<ele>649.571</ele>
<time>2022-05-26T12:32:19Z</time>
</trkpt>
<trkpt lat="47.974281" lon="11.22434">
<ele>649.493</ele>
<time>2022-05-26T12:32:20Z</time>
</trkpt>
<trkpt lat="47.97435" lon="11.224321">
<ele>649.442</ele>
<time>2022-05-26T12:32:21Z</time>
</trkpt>
<trkpt lat="47.974415" lon="11.224307">
<ele>649.419</ele>
<time>2022-05-26T12:32:22Z</time>
</trkpt>
<trkpt lat="47.974472" lon="11.224295">
<ele>649.419</ele>
<time>2022-05-26T12:32:23Z</time>
</trkpt>
<trkpt lat="47.974533" lon="11.224282">
<ele>649.419</ele>
<time>2022-05-26T12:32:24Z</time>
</trkpt>
<trkpt lat="47.974594" lon="11.224261">
<ele>649.419</ele>
<time>2022-05-26T12:32:25Z</time>
</trkpt>
<trkpt lat="47.974651" lon="11.224244">
<ele>649.16</ele>
<time>2022-05-26T12:32:26Z</time>
</trkpt>
<trkpt lat="47.974705" lon="11.224221">
<ele>648.963</ele>
<time>2022-05-26T12:32:27Z</time>
</trkpt>
<trkpt lat="47.97477" lon="11.224203">
<ele>648.808</ele>
<time>2022-05-26T12:32:28Z</time>
</trkpt>
<trkpt lat="47.974827" lon="11.224181">
<ele>648.696</ele>
<time>2022-05-26T12:32:29Z</time>
</trkpt>
<trkpt lat="47.974884" lon="11.224156">
<ele>648.61</ele>
<time>2022-05-26T12:32:30Z</time>
</trkpt>
<trkpt lat="47.974934" lon="11.224118">
<ele>648.56</ele>
<time>2022-05-26T12:32:31Z</time>
</trkpt>
<trkpt lat="47.974979" lon="11.224078">
<ele>648.538</ele>
<time>2022-05-26T12:32:32Z</time>
</trkpt>
<trkpt lat="47.975021" lon="11.224047">
<ele>648.538</ele>
<time>2022-05-26T12:32:33Z</time>
</trkpt>
<trkpt lat="47.975048" lon="11.224011">
<ele>648.33</ele>
<time>2022-05-26T12:32:34Z</time>
</trkpt>
<trkpt lat="47.975086" lon="11.223976">
<ele>648.141</ele>
<time>2022-05-26T12:32:35Z</time>
</trkpt>
<trkpt lat="47.975121" lon="11.22394">
<ele>647.982</ele>
<time>2022-05-26T12:32:36Z</time>
</trkpt>
<trkpt lat="47.975163" lon="11.223882">
<ele>647.842</ele>
<time>2022-05-26T12:32:37Z</time>
</trkpt>
<trkpt lat="47.975208" lon="11.223844">
<ele>647.732</ele>
<time>2022-05-26T12:32:38Z</time>
</trkpt>
<trkpt lat="47.97525" lon="11.223812">
<ele>647.65</ele>
<time>2022-05-26T12:32:39Z</time>
</trkpt>
<trkpt lat="47.975296" lon="11.22378">
<ele>647.595</ele>
<time>2022-05-26T12:32:40Z</time>
</trkpt>
<trkpt lat="47.975338" lon="11.223759">
<ele>647.569</ele>
<time>2022-05-26T12:32:41Z</time>
</trkpt>
<trkpt lat="47.975376" lon="11.223743">
<ele>647.57</ele>
<time>2022-05-26T12:32:42Z</time>
</trkpt>
<trkpt lat="47.97541" lon="11.223726">
<ele>647.57</ele>
<time>2022-05-26T12:32:43Z</time>
</trkpt>
<trkpt lat="47.975441" lon="11.223708">
<ele>647.57</ele>
<time>2022-05-26T12:32:44Z</time>
</trkpt>
<trkpt lat="47.975468" lon="11.223681">
<ele>647.57</ele>
<time>2022-05-26T12:32:45Z</time>
</trkpt>
<trkpt lat="47.975483" lon="11.223652">
<ele>647.569</ele>
<time>2022-05-26T12:32:46Z</time>
</trkpt>
<trkpt lat="47.975491" lon="11.223635">
<ele>647.328</ele>
<time>2022-05-26T12:32:47Z</time>
</trkpt>
<trkpt lat="47.975494" lon="11.22363">
<ele>647.137</ele>
<time>2022-05-26T12:32:48Z</time>
</trkpt>
<trkpt lat="47.975502" lon="11.223632">
<ele>646.976</ele>
<time>2022-05-26T12:32:49Z</time>
</trkpt>
<trkpt lat="47.97551" lon="11.223632">
<ele>646.848</ele>
<time>2022-05-26T12:32:50Z</time>
</trkpt>
<trkpt lat="47.975513" lon="11.22361">
<ele>646.939</ele>
<time>2022-05-26T12:33:31Z</time>
</trkpt>
<trkpt lat="47.975513" lon="11.223605">
<ele>647.027</ele>
<time>2022-05-26T12:33:32Z</time>
</trkpt>
<trkpt lat="47.975517" lon="11.223601">
<ele>647.114</ele>
<time>2022-05-26T12:33:33Z</time>
</trkpt>
<trkpt lat="47.975517" lon="11.223598">
<ele>647.14</ele>
<time>2022-05-26T12:33:34Z</time>
</trkpt>
<trkpt lat="47.975533" lon="11.223543">
<ele>647.218</ele>
<time>2022-05-26T12:35:16Z</time>
</trkpt>
<trkpt lat="47.975529" lon="11.223525">
<ele>647.037</ele>
<time>2022-05-26T12:35:17Z</time>
</trkpt>
<trkpt lat="47.975533" lon="11.223502">
<ele>646.895</ele>
<time>2022-05-26T12:35:18Z</time>
</trkpt>
<trkpt lat="47.975533" lon="11.22347">
<ele>646.796</ele>
<time>2022-05-26T12:35:19Z</time>
</trkpt>
<trkpt lat="47.975536" lon="11.223433">
<ele>646.722</ele>
<time>2022-05-26T12:35:20Z</time>
</trkpt>
<trkpt lat="47.97554" lon="11.223393">
<ele>646.637</ele>
<time>2022-05-26T12:35:21Z</time>
</trkpt>
<trkpt lat="47.975544" lon="11.223348">
<ele>646.861</ele>
<time>2022-05-26T12:35:22Z</time>
</trkpt>
<trkpt lat="47.975544" lon="11.2233">
<ele>647.032</ele>
<time>2022-05-26T12:35:23Z</time>
</trkpt>
<trkpt lat="47.975544" lon="11.223249">
<ele>647.153</ele>
<time>2022-05-26T12:35:24Z</time>
</trkpt>
<trkpt lat="47.975544" lon="11.223199">
<ele>647.23</ele>
<time>2022-05-26T12:35:25Z</time>
</trkpt>
<trkpt lat="47.975544" lon="11.223146">
<ele>647.354</ele>
<time>2022-05-26T12:35:26Z</time>
</trkpt>
<trkpt lat="47.97554" lon="11.223092">
<ele>647.442</ele>
<time>2022-05-26T12:35:27Z</time>
</trkpt>
<trkpt lat="47.97554" lon="11.223038">
<ele>647.507</ele>
<time>2022-05-26T12:35:28Z</time>
</trkpt>
<trkpt lat="47.97554" lon="11.222983">
<ele>647.549</ele>
<time>2022-05-26T12:35:29Z</time>
</trkpt>
<trkpt lat="47.975536" lon="11.222924">
<ele>647.57</ele>
<time>2022-05-26T12:35:30Z</time>
</trkpt>
<trkpt lat="47.97554" lon="11.222863">
<ele>647.569</ele>
<time>2022-05-26T12:35:31Z</time>
</trkpt>
<trkpt lat="47.97554" lon="11.222798">
<ele>647.569</ele>
<time>2022-05-26T12:35:32Z</time>
</trkpt>
<trkpt lat="47.975544" lon="11.222732">
<ele>647.57</ele>
<time>2022-05-26T12:35:33Z</time>
</trkpt>
<trkpt lat="47.975544" lon="11.222667">
<ele>647.569</ele>
<time>2022-05-26T12:35:34Z</time>
</trkpt>
<trkpt lat="47.975544" lon="11.222597">
<ele>647.569</ele>
<time>2022-05-26T12:35:35Z</time>
</trkpt>
<trkpt lat="47.975544" lon="11.22253">
<ele>647.57</ele>
<time>2022-05-26T12:35:36Z</time>
</trkpt>
<trkpt lat="47.975544" lon="11.222462">
<ele>647.57</ele>
<time>2022-05-26T12:35:37Z</time>
</trkpt>
<trkpt lat="47.975544" lon="11.22239">
<ele>647.569</ele>
<time>2022-05-26T12:35:38Z</time>
</trkpt>
<trkpt lat="47.975548" lon="11.222321">
<ele>647.569</ele>
<time>2022-05-26T12:35:39Z</time>
</trkpt>
<trkpt lat="47.975548" lon="11.222252">
<ele>647.569</ele>
<time>2022-05-26T12:35:40Z</time>
</trkpt>
<trkpt lat="47.975548" lon="11.222178">
<ele>647.569</ele>
<time>2022-05-26T12:35:41Z</time>
</trkpt>
<trkpt lat="47.975552" lon="11.222103">
<ele>647.569</ele>
<time>2022-05-26T12:35:42Z</time>
</trkpt>
<trkpt lat="47.975552" lon="11.222028">
<ele>647.794</ele>
<time>2022-05-26T12:35:43Z</time>
</trkpt>
<trkpt lat="47.975552" lon="11.22195">
<ele>647.971</ele>
<time>2022-05-26T12:35:44Z</time>
</trkpt>
<trkpt lat="47.975555" lon="11.221872">
<ele>648.089</ele>
<time>2022-05-26T12:35:45Z</time>
</trkpt>
<trkpt lat="47.975555" lon="11.22179">
<ele>648.218</ele>
<time>2022-05-26T12:35:46Z</time>
</trkpt>
<trkpt lat="47.975555" lon="11.221722">
<ele>648.317</ele>
<time>2022-05-26T12:35:47Z</time>
</trkpt>
<trkpt lat="47.975555" lon="11.221655">
<ele>648.386</ele>
<time>2022-05-26T12:35:48Z</time>
</trkpt>
<trkpt lat="47.975555" lon="11.221587">
<ele>648.429</ele>
<time>2022-05-26T12:35:49Z</time>
</trkpt>
<trkpt lat="47.975559" lon="11.221517">
<ele>648.451</ele>
<time>2022-05-26T12:35:50Z</time>
</trkpt>
<trkpt lat="47.975555" lon="11.221448">
<ele>648.451</ele>
<time>2022-05-26T12:35:51Z</time>
</trkpt>
<trkpt lat="47.975555" lon="11.221376">
<ele>648.451</ele>
<time>2022-05-26T12:35:52Z</time>
</trkpt>
<trkpt lat="47.975555" lon="11.221307">
<ele>648.451</ele>
<time>2022-05-26T12:35:53Z</time>
</trkpt>
<trkpt lat="47.975552" lon="11.221238">
<ele>648.451</ele>
<time>2022-05-26T12:35:54Z</time>
</trkpt>
<trkpt lat="47.975552" lon="11.221171">
<ele>648.45</ele>
<time>2022-05-26T12:35:55Z</time>
</trkpt>
<trkpt lat="47.975544" lon="11.221106">
<ele>648.451</ele>
<time>2022-05-26T12:35:56Z</time>
</trkpt>
<trkpt lat="47.975544" lon="11.221037">
<ele>648.451</ele>
<time>2022-05-26T12:35:57Z</time>
</trkpt>
<trkpt lat="47.975544" lon="11.220967">
<ele>648.451</ele>
<time>2022-05-26T12:35:58Z</time>
</trkpt>
<trkpt lat="47.975536" lon="11.220899">
<ele>648.45</ele>
<time>2022-05-26T12:35:59Z</time>
</trkpt>
<trkpt lat="47.975536" lon="11.22083">
<ele>648.451</ele>
<time>2022-05-26T12:36:00Z</time>
</trkpt>
<trkpt lat="47.975533" lon="11.22076">
<ele>648.451</ele>
<time>2022-05-26T12:36:01Z</time>
</trkpt>
<trkpt lat="47.975525" lon="11.220692">
<ele>648.451</ele>
<time>2022-05-26T12:36:02Z</time>
</trkpt>
<trkpt lat="47.975513" lon="11.220624">
<ele>648.45</ele>
<time>2022-05-26T12:36:03Z</time>
</trkpt>
<trkpt lat="47.975513" lon="11.220551">
<ele>648.451</ele>
<time>2022-05-26T12:36:04Z</time>
</trkpt>
<trkpt lat="47.97551" lon="11.220475">
<ele>648.668</ele>
<time>2022-05-26T12:36:05Z</time>
</trkpt>
<trkpt lat="47.975502" lon="11.220407">
<ele>648.873</ele>
<time>2022-05-26T12:36:06Z</time>
</trkpt>
<trkpt lat="47.975498" lon="11.22034">
<ele>649.041</ele>
<time>2022-05-26T12:36:07Z</time>
</trkpt>
<trkpt lat="47.975491" lon="11.220272">
<ele>649.174</ele>
<time>2022-05-26T12:36:08Z</time>
</trkpt>
<trkpt lat="47.975487" lon="11.220199">
<ele>649.276</ele>
<time>2022-05-26T12:36:09Z</time>
</trkpt>
<trkpt lat="47.975487" lon="11.220119">
<ele>649.35</ele>
<time>2022-05-26T12:36:10Z</time>
</trkpt>
<trkpt lat="47.975487" lon="11.220039">
<ele>649.397</ele>
<time>2022-05-26T12:36:11Z</time>
</trkpt>
<trkpt lat="47.975487" lon="11.219966">
<ele>649.419</ele>
<time>2022-05-26T12:36:12Z</time>
</trkpt>
<trkpt lat="47.975483" lon="11.219893">
<ele>649.419</ele>
<time>2022-05-26T12:36:13Z</time>
</trkpt>
<trkpt lat="47.975483" lon="11.219822">
<ele>649.419</ele>
<time>2022-05-26T12:36:14Z</time>
</trkpt>
<trkpt lat="47.975483" lon="11.219747">
<ele>649.419</ele>
<time>2022-05-26T12:36:15Z</time>
</trkpt>
<trkpt lat="47.975494" lon="11.219671">
<ele>649.419</ele>
<time>2022-05-26T12:36:16Z</time>
</trkpt>
<trkpt lat="47.975506" lon="11.219598">
<ele>649.419</ele>
<time>2022-05-26T12:36:17Z</time>
</trkpt>
<trkpt lat="47.975513" lon="11.219522">
<ele>649.419</ele>
<time>2022-05-26T12:36:18Z</time>
</trkpt>
<trkpt lat="47.975517" lon="11.219443">
<ele>649.419</ele>
<time>2022-05-26T12:36:19Z</time>
</trkpt>
<trkpt lat="47.975521" lon="11.219367">
<ele>649.419</ele>
<time>2022-05-26T12:36:20Z</time>
</trkpt>
<trkpt lat="47.975529" lon="11.219287">
<ele>649.419</ele>
<time>2022-05-26T12:36:21Z</time>
</trkpt>
<trkpt lat="47.975533" lon="11.219207">
<ele>649.419</ele>
<time>2022-05-26T12:36:22Z</time>
</trkpt>
<trkpt lat="47.97554" lon="11.219129">
<ele>649.419</ele>
<time>2022-05-26T12:36:23Z</time>
</trkpt>
<trkpt lat="47.97554" lon="11.219053">
<ele>649.419</ele>
<time>2022-05-26T12:36:24Z</time>
</trkpt>
<trkpt lat="47.975536" lon="11.218977">
<ele>649.635</ele>
<time>2022-05-26T12:36:25Z</time>
</trkpt>
<trkpt lat="47.975529" lon="11.218898">
<ele>649.837</ele>
<time>2022-05-26T12:36:26Z</time>
</trkpt>
<trkpt lat="47.975525" lon="11.218824">
<ele>650.003</ele>
<time>2022-05-26T12:36:27Z</time>
</trkpt>
<trkpt lat="47.975521" lon="11.218751">
<ele>650.137</ele>
<time>2022-05-26T12:36:28Z</time>
</trkpt>
<trkpt lat="47.975517" lon="11.218678">
<ele>650.239</ele>
<time>2022-05-26T12:36:29Z</time>
</trkpt>
<trkpt lat="47.975513" lon="11.218608">
<ele>650.315</ele>
<time>2022-05-26T12:36:30Z</time>
</trkpt>
<trkpt lat="47.975513" lon="11.218541">
<ele>650.364</ele>
<time>2022-05-26T12:36:31Z</time>
</trkpt>
<trkpt lat="47.975513" lon="11.218474">
<ele>650.388</ele>
<time>2022-05-26T12:36:32Z</time>
</trkpt>
<trkpt lat="47.975506" lon="11.218411">
<ele>650.388</ele>
<time>2022-05-26T12:36:33Z</time>
</trkpt>
<trkpt lat="47.975502" lon="11.218349">
<ele>650.388</ele>
<time>2022-05-26T12:36:34Z</time>
</trkpt>
<trkpt lat="47.975494" lon="11.218284">
<ele>650.388</ele>
<time>2022-05-26T12:36:35Z</time>
</trkpt>
<trkpt lat="47.975491" lon="11.218217">
<ele>650.618</ele>
<time>2022-05-26T12:36:36Z</time>
</trkpt>
<trkpt lat="47.975483" lon="11.21815">
<ele>650.815</ele>
<time>2022-05-26T12:36:37Z</time>
</trkpt>
<trkpt lat="47.975475" lon="11.218086">
<ele>650.981</ele>
<time>2022-05-26T12:36:38Z</time>
</trkpt>
<trkpt lat="47.975464" lon="11.218023">
<ele>651.114</ele>
<time>2022-05-26T12:36:39Z</time>
</trkpt>
<trkpt lat="47.975452" lon="11.217967">
<ele>651.215</ele>
<time>2022-05-26T12:36:40Z</time>
</trkpt>
<trkpt lat="47.975449" lon="11.217907">
<ele>651.289</ele>
<time>2022-05-26T12:36:41Z</time>
</trkpt>
<trkpt lat="47.975445" lon="11.217848">
<ele>651.335</ele>
<time>2022-05-26T12:36:42Z</time>
</trkpt>
<trkpt lat="47.975441" lon="11.217795">
<ele>651.357</ele>
<time>2022-05-26T12:36:43Z</time>
</trkpt>
<trkpt lat="47.975441" lon="11.21774">
<ele>651.357</ele>
<time>2022-05-26T12:36:44Z</time>
</trkpt>
<trkpt lat="47.975437" lon="11.217685">
<ele>651.357</ele>
<time>2022-05-26T12:36:45Z</time>
</trkpt>
<trkpt lat="47.975426" lon="11.217627">
<ele>651.357</ele>
<time>2022-05-26T12:36:46Z</time>
</trkpt>
<trkpt lat="47.975422" lon="11.217573">
<ele>651.357</ele>
<time>2022-05-26T12:36:47Z</time>
</trkpt>
<trkpt lat="47.975414" lon="11.217517">
<ele>651.357</ele>
<time>2022-05-26T12:36:48Z</time>
</trkpt>
<trkpt lat="47.975414" lon="11.21746">
<ele>651.357</ele>
<time>2022-05-26T12:36:49Z</time>
</trkpt>
<trkpt lat="47.97541" lon="11.217403">
<ele>651.357</ele>
<time>2022-05-26T12:36:50Z</time>
</trkpt>
<trkpt lat="47.975399" lon="11.217349">
<ele>651.357</ele>
<time>2022-05-26T12:36:51Z</time>
</trkpt>
<trkpt lat="47.975384" lon="11.217292">
<ele>651.584</ele>
<time>2022-05-26T12:36:52Z</time>
</trkpt>
<trkpt lat="47.975368" lon="11.217232">
<ele>651.764</ele>
<time>2022-05-26T12:36:53Z</time>
</trkpt>
<trkpt lat="47.975349" lon="11.217174">
<ele>651.904</ele>
<time>2022-05-26T12:36:54Z</time>
</trkpt>
<trkpt lat="47.975334" lon="11.217113">
<ele>652</ele>
<time>2022-05-26T12:36:55Z</time>
</trkpt>
<trkpt lat="47.975311" lon="11.217052">
<ele>652.1</ele>
<time>2022-05-26T12:36:56Z</time>
</trkpt>
<trkpt lat="47.975288" lon="11.216991">
<ele>652.173</ele>
<time>2022-05-26T12:36:57Z</time>
</trkpt>
<trkpt lat="47.975269" lon="11.21693">
<ele>652.218</ele>
<time>2022-05-26T12:36:58Z</time>
</trkpt>
<trkpt lat="47.975246" lon="11.216867">
<ele>652.239</ele>
<time>2022-05-26T12:36:59Z</time>
</trkpt>
<trkpt lat="47.975224" lon="11.216805">
<ele>652.239</ele>
<time>2022-05-26T12:37:00Z</time>
</trkpt>
<trkpt lat="47.975201" lon="11.216745">
<ele>652.239</ele>
<time>2022-05-26T12:37:01Z</time>
</trkpt>
<trkpt lat="47.975185" lon="11.216681">
<ele>652.239</ele>
<time>2022-05-26T12:37:02Z</time>
</trkpt>
<trkpt lat="47.975163" lon="11.216619">
<ele>652.239</ele>
<time>2022-05-26T12:37:03Z</time>
</trkpt>
<trkpt lat="47.975143" lon="11.216555">
<ele>652.475</ele>
<time>2022-05-26T12:37:04Z</time>
</trkpt>
<trkpt lat="47.975121" lon="11.216492">
<ele>652.643</ele>
<time>2022-05-26T12:37:05Z</time>
</trkpt>
<trkpt lat="47.97509" lon="11.216425">
<ele>652.817</ele>
<time>2022-05-26T12:37:06Z</time>
</trkpt>
<trkpt lat="47.975071" lon="11.21636">
<ele>652.953</ele>
<time>2022-05-26T12:37:07Z</time>
</trkpt>
<trkpt lat="47.97506" lon="11.216291">
<ele>653.06</ele>
<time>2022-05-26T12:37:08Z</time>
</trkpt>
<trkpt lat="47.97504" lon="11.216222">
<ele>653.137</ele>
<time>2022-05-26T12:37:09Z</time>
</trkpt>
<trkpt lat="47.975025" lon="11.216157">
<ele>653.185</ele>
<time>2022-05-26T12:37:10Z</time>
</trkpt>
<trkpt lat="47.975014" lon="11.21609">
<ele>653.208</ele>
<time>2022-05-26T12:37:11Z</time>
</trkpt>
<trkpt lat="47.974991" lon="11.216023">
<ele>653.208</ele>
<time>2022-05-26T12:37:12Z</time>
</trkpt>
<trkpt lat="47.974968" lon="11.215959">
<ele>653.208</ele>
<time>2022-05-26T12:37:13Z</time>
</trkpt>
<trkpt lat="47.974941" lon="11.215901">
<ele>653.208</ele>
<time>2022-05-26T12:37:14Z</time>
</trkpt>
<trkpt lat="47.974911" lon="11.215843">
<ele>653.208</ele>
<time>2022-05-26T12:37:15Z</time>
</trkpt>
<trkpt lat="47.97488" lon="11.215785">
<ele>653.445</ele>
<time>2022-05-26T12:37:16Z</time>
</trkpt>
<trkpt lat="47.974857" lon="11.215727">
<ele>653.642</ele>
<time>2022-05-26T12:37:17Z</time>
</trkpt>
<trkpt lat="47.974827" lon="11.215665">
<ele>653.808</ele>
<time>2022-05-26T12:37:18Z</time>
</trkpt>
<trkpt lat="47.974808" lon="11.215607">
<ele>653.937</ele>
<time>2022-05-26T12:37:19Z</time>
</trkpt>
<trkpt lat="47.974785" lon="11.215548">
<ele>654.035</ele>
<time>2022-05-26T12:37:20Z</time>
</trkpt>
<trkpt lat="47.974766" lon="11.215493">
<ele>654.107</ele>
<time>2022-05-26T12:37:21Z</time>
</trkpt>
<trkpt lat="47.974747" lon="11.215439">
<ele>654.154</ele>
<time>2022-05-26T12:37:22Z</time>
</trkpt>
<trkpt lat="47.974731" lon="11.215382">
<ele>654.177</ele>
<time>2022-05-26T12:37:23Z</time>
</trkpt>
<trkpt lat="47.974705" lon="11.215325">
<ele>654.177</ele>
<time>2022-05-26T12:37:24Z</time>
</trkpt>
<trkpt lat="47.974686" lon="11.215271">
<ele>654.389</ele>
<time>2022-05-26T12:37:25Z</time>
</trkpt>
<trkpt lat="47.974667" lon="11.215212">
<ele>654.59</ele>
<time>2022-05-26T12:37:26Z</time>
</trkpt>
<trkpt lat="47.974636" lon="11.21515">
<ele>654.764</ele>
<time>2022-05-26T12:37:27Z</time>
</trkpt>
<trkpt lat="47.974613" lon="11.215092">
<ele>654.901</ele>
<time>2022-05-26T12:37:28Z</time>
</trkpt>
<trkpt lat="47.97459" lon="11.21504">
<ele>655.006</ele>
<time>2022-05-26T12:37:29Z</time>
</trkpt>
<trkpt lat="47.974567" lon="11.214987">
<ele>655.078</ele>
<time>2022-05-26T12:37:30Z</time>
</trkpt>
<trkpt lat="47.974552" lon="11.21494">
<ele>655.124</ele>
<time>2022-05-26T12:37:31Z</time>
</trkpt>
<trkpt lat="47.974541" lon="11.214895">
<ele>655.146</ele>
<time>2022-05-26T12:37:32Z</time>
</trkpt>
<trkpt lat="47.974533" lon="11.214853">
<ele>655.146</ele>
<time>2022-05-26T12:37:33Z</time>
</trkpt>
<trkpt lat="47.974514" lon="11.214814">
<ele>655.146</ele>
<time>2022-05-26T12:37:34Z</time>
</trkpt>
<trkpt lat="47.974499" lon="11.214768">
<ele>655.146</ele>
<time>2022-05-26T12:37:35Z</time>
</trkpt>
<trkpt lat="47.974468" lon="11.214716">
<ele>655.146</ele>
<time>2022-05-26T12:37:36Z</time>
</trkpt>
<trkpt lat="47.974453" lon="11.214667">
<ele>655.146</ele>
<time>2022-05-26T12:37:37Z</time>
</trkpt>
<trkpt lat="47.97443" lon="11.21461">
<ele>655.406</ele>
<time>2022-05-26T12:37:38Z</time>
</trkpt>
<trkpt lat="47.974403" lon="11.214546">
<ele>655.621</ele>
<time>2022-05-26T12:37:39Z</time>
</trkpt>
<trkpt lat="47.974384" lon="11.214494">
<ele>655.773</ele>
<time>2022-05-26T12:37:40Z</time>
</trkpt>
<trkpt lat="47.974365" lon="11.214438">
<ele>655.877</ele>
<time>2022-05-26T12:37:41Z</time>
</trkpt>
<trkpt lat="47.974342" lon="11.214387">
<ele>655.944</ele>
<time>2022-05-26T12:37:42Z</time>
</trkpt>
<trkpt lat="47.974319" lon="11.214327">
<ele>655.984</ele>
<time>2022-05-26T12:37:43Z</time>
</trkpt>
<trkpt lat="47.974297" lon="11.21427">
<ele>656.004</ele>
<time>2022-05-26T12:37:44Z</time>
</trkpt>
<trkpt lat="47.974274" lon="11.214202">
<ele>656.284</ele>
<time>2022-05-26T12:37:45Z</time>
</trkpt>
<trkpt lat="47.974247" lon="11.214137">
<ele>656.527</ele>
<time>2022-05-26T12:37:46Z</time>
</trkpt>
<trkpt lat="47.974224" lon="11.214077">
<ele>656.728</ele>
<time>2022-05-26T12:37:47Z</time>
</trkpt>
<trkpt lat="47.974209" lon="11.214016">
<ele>656.896</ele>
<time>2022-05-26T12:37:48Z</time>
</trkpt>
<trkpt lat="47.974186" lon="11.213958">
<ele>657.012</ele>
<time>2022-05-26T12:37:49Z</time>
</trkpt>
<trkpt lat="47.974163" lon="11.213893">
<ele>657.096</ele>
<time>2022-05-26T12:37:50Z</time>
</trkpt>
<trkpt lat="47.974144" lon="11.213827">
<ele>657.147</ele>
<time>2022-05-26T12:37:51Z</time>
</trkpt>
<trkpt lat="47.974121" lon="11.21377">
<ele>657.174</ele>
<time>2022-05-26T12:37:52Z</time>
</trkpt>
<trkpt lat="47.974102" lon="11.213708">
<ele>657.174</ele>
<time>2022-05-26T12:37:53Z</time>
</trkpt>
<trkpt lat="47.974079" lon="11.213649">
<ele>657.174</ele>
<time>2022-05-26T12:37:54Z</time>
</trkpt>
<trkpt lat="47.974056" lon="11.213587">
<ele>657.174</ele>
<time>2022-05-26T12:37:55Z</time>
</trkpt>
<trkpt lat="47.974037" lon="11.213531">
<ele>657.174</ele>
<time>2022-05-26T12:37:56Z</time>
</trkpt>
<trkpt lat="47.974014" lon="11.213475">
<ele>657.174</ele>
<time>2022-05-26T12:37:57Z</time>
</trkpt>
<trkpt lat="47.973988" lon="11.213415">
<ele>657.174</ele>
<time>2022-05-26T12:37:58Z</time>
</trkpt>
<trkpt lat="47.973965" lon="11.213358">
<ele>657.174</ele>
<time>2022-05-26T12:37:59Z</time>
</trkpt>
<trkpt lat="47.973938" lon="11.213298">
<ele>657.174</ele>
<time>2022-05-26T12:38:00Z</time>
</trkpt>
<trkpt lat="47.973915" lon="11.213241">
<ele>657.174</ele>
<time>2022-05-26T12:38:01Z</time>
</trkpt>
<trkpt lat="47.973892" lon="11.213184">
<ele>657.174</ele>
<time>2022-05-26T12:38:02Z</time>
</trkpt>
<trkpt lat="47.973873" lon="11.213128">
<ele>657.174</ele>
<time>2022-05-26T12:38:03Z</time>
</trkpt>
<trkpt lat="47.973846" lon="11.213063">
<ele>657.174</ele>
<time>2022-05-26T12:38:04Z</time>
</trkpt>
<trkpt lat="47.97382" lon="11.213">
<ele>657.174</ele>
<time>2022-05-26T12:38:05Z</time>
</trkpt>
<trkpt lat="47.973793" lon="11.212936">
<ele>657.174</ele>
<time>2022-05-26T12:38:06Z</time>
</trkpt>
<trkpt lat="47.973763" lon="11.212873">
<ele>657.471</ele>
<time>2022-05-26T12:38:07Z</time>
</trkpt>
<trkpt lat="47.973732" lon="11.212809">
<ele>657.698</ele>
<time>2022-05-26T12:38:08Z</time>
</trkpt>
<trkpt lat="47.973705" lon="11.212747">
<ele>657.874</ele>
<time>2022-05-26T12:38:09Z</time>
</trkpt>
<trkpt lat="47.973682" lon="11.212682">
<ele>657.996</ele>
<time>2022-05-26T12:38:10Z</time>
</trkpt>
<trkpt lat="47.973656" lon="11.212622">
<ele>658.074</ele>
<time>2022-05-26T12:38:11Z</time>
</trkpt>
<trkpt lat="47.973629" lon="11.21257">
<ele>658.115</ele>
<time>2022-05-26T12:38:12Z</time>
</trkpt>
<trkpt lat="47.973606" lon="11.212518">
<ele>658.14</ele>
<time>2022-05-26T12:38:13Z</time>
</trkpt>
<trkpt lat="47.973587" lon="11.212465">
<ele>658.144</ele>
<time>2022-05-26T12:38:14Z</time>
</trkpt>
<trkpt lat="47.97356" lon="11.21241">
<ele>658.144</ele>
<time>2022-05-26T12:38:15Z</time>
</trkpt>
<trkpt lat="47.973541" lon="11.212348">
<ele>658.144</ele>
<time>2022-05-26T12:38:16Z</time>
</trkpt>
<trkpt lat="47.973518" lon="11.21229">
<ele>658.144</ele>
<time>2022-05-26T12:38:17Z</time>
</trkpt>
<trkpt lat="47.973495" lon="11.212239">
<ele>658.417</ele>
<time>2022-05-26T12:38:18Z</time>
</trkpt>
<trkpt lat="47.973476" lon="11.21218">
<ele>658.637</ele>
<time>2022-05-26T12:38:19Z</time>
</trkpt>
<trkpt lat="47.973454" lon="11.212129">
<ele>658.807</ele>
<time>2022-05-26T12:38:20Z</time>
</trkpt>
<trkpt lat="47.973427" lon="11.212071">
<ele>658.931</ele>
<time>2022-05-26T12:38:21Z</time>
</trkpt>
<trkpt lat="47.973404" lon="11.212017">
<ele>659.009</ele>
<time>2022-05-26T12:38:22Z</time>
</trkpt>
<trkpt lat="47.973381" lon="11.21196">
<ele>659.065</ele>
<time>2022-05-26T12:38:23Z</time>
</trkpt>
<trkpt lat="47.973354" lon="11.211904">
<ele>659.089</ele>
<time>2022-05-26T12:38:24Z</time>
</trkpt>
<trkpt lat="47.973324" lon="11.211837">
<ele>659.113</ele>
<time>2022-05-26T12:38:25Z</time>
</trkpt>
<trkpt lat="47.973297" lon="11.211774">
<ele>659.113</ele>
<time>2022-05-26T12:38:26Z</time>
</trkpt>
<trkpt lat="47.973274" lon="11.211714">
<ele>659.113</ele>
<time>2022-05-26T12:38:27Z</time>
</trkpt>
<trkpt lat="47.973248" lon="11.211657">
<ele>659.113</ele>
<time>2022-05-26T12:38:28Z</time>
</trkpt>
<trkpt lat="47.973217" lon="11.211594">
<ele>659.114</ele>
<time>2022-05-26T12:38:29Z</time>
</trkpt>
<trkpt lat="47.97319" lon="11.211523">
<ele>659.113</ele>
<time>2022-05-26T12:38:30Z</time>
</trkpt>
<trkpt lat="47.973164" lon="11.211458">
<ele>659.113</ele>
<time>2022-05-26T12:38:31Z</time>
</trkpt>
<trkpt lat="47.973137" lon="11.211393">
<ele>659.113</ele>
<time>2022-05-26T12:38:32Z</time>
</trkpt>
<trkpt lat="47.973114" lon="11.211334">
<ele>659.113</ele>
<time>2022-05-26T12:38:33Z</time>
</trkpt>
<trkpt lat="47.973091" lon="11.211277">
<ele>659.113</ele>
<time>2022-05-26T12:38:34Z</time>
</trkpt>
<trkpt lat="47.973068" lon="11.211226">
<ele>659.308</ele>
<time>2022-05-26T12:38:35Z</time>
</trkpt>
<trkpt lat="47.973042" lon="11.21117">
<ele>659.487</ele>
<time>2022-05-26T12:38:36Z</time>
</trkpt>
<trkpt lat="47.973015" lon="11.211123">
<ele>659.632</ele>
<time>2022-05-26T12:38:37Z</time>
</trkpt>
<trkpt lat="47.972996" lon="11.211079">
<ele>659.751</ele>
<time>2022-05-26T12:38:38Z</time>
</trkpt>
<trkpt lat="47.972977" lon="11.21103">
<ele>659.851</ele>
<time>2022-05-26T12:38:39Z</time>
</trkpt>
<trkpt lat="47.972958" lon="11.21098">
<ele>659.924</ele>
<time>2022-05-26T12:38:40Z</time>
</trkpt>
<trkpt lat="47.972935" lon="11.210925">
<ele>659.973</ele>
<time>2022-05-26T12:38:41Z</time>
</trkpt>
<trkpt lat="47.972912" lon="11.210876">
<ele>659.996</ele>
<time>2022-05-26T12:38:42Z</time>
</trkpt>
<trkpt lat="47.972889" lon="11.210821">
<ele>659.995</ele>
<time>2022-05-26T12:38:43Z</time>
</trkpt>
<trkpt lat="47.972866" lon="11.210771">
<ele>659.995</ele>
<time>2022-05-26T12:38:44Z</time>
</trkpt>
<trkpt lat="47.972839" lon="11.21072">
<ele>659.996</ele>
<time>2022-05-26T12:38:45Z</time>
</trkpt>
<trkpt lat="47.972813" lon="11.210673">
<ele>659.995</ele>
<time>2022-05-26T12:38:46Z</time>
</trkpt>
<trkpt lat="47.972794" lon="11.21063">
<ele>659.996</ele>
<time>2022-05-26T12:38:47Z</time>
</trkpt>
<trkpt lat="47.972775" lon="11.210584">
<ele>660.271</ele>
<time>2022-05-26T12:38:48Z</time>
</trkpt>
<trkpt lat="47.972755" lon="11.21054">
<ele>660.481</ele>
<time>2022-05-26T12:38:49Z</time>
</trkpt>
<trkpt lat="47.972733" lon="11.210488">
<ele>660.647</ele>
<time>2022-05-26T12:38:50Z</time>
</trkpt>
<trkpt lat="47.972713" lon="11.210445">
<ele>660.766</ele>
<time>2022-05-26T12:38:51Z</time>
</trkpt>
<trkpt lat="47.972694" lon="11.210388">
<ele>660.855</ele>
<time>2022-05-26T12:38:52Z</time>
</trkpt>
<trkpt lat="47.972668" lon="11.210326">
<ele>660.916</ele>
<time>2022-05-26T12:38:53Z</time>
</trkpt>
<trkpt lat="47.972637" lon="11.210257">
<ele>660.942</ele>
<time>2022-05-26T12:38:54Z</time>
</trkpt>
<trkpt lat="47.97261" lon="11.210193">
<ele>660.965</ele>
<time>2022-05-26T12:38:55Z</time>
</trkpt>
<trkpt lat="47.97258" lon="11.210135">
<ele>660.965</ele>
<time>2022-05-26T12:38:56Z</time>
</trkpt>
<trkpt lat="47.972557" lon="11.210078">
<ele>660.965</ele>
<time>2022-05-26T12:38:57Z</time>
</trkpt>
<trkpt lat="47.97253" lon="11.21002">
<ele>660.965</ele>
<time>2022-05-26T12:38:58Z</time>
</trkpt>
<trkpt lat="47.972507" lon="11.209958">
<ele>660.965</ele>
<time>2022-05-26T12:38:59Z</time>
</trkpt>
<trkpt lat="47.972481" lon="11.209907">
<ele>660.965</ele>
<time>2022-05-26T12:39:00Z</time>
</trkpt>
<trkpt lat="47.972458" lon="11.209853">
<ele>661.214</ele>
<time>2022-05-26T12:39:01Z</time>
</trkpt>
<trkpt lat="47.972439" lon="11.209795">
<ele>661.409</ele>
<time>2022-05-26T12:39:02Z</time>
</trkpt>
<trkpt lat="47.972408" lon="11.209732">
<ele>661.57</ele>
<time>2022-05-26T12:39:03Z</time>
</trkpt>
<trkpt lat="47.972382" lon="11.209668">
<ele>661.69</ele>
<time>2022-05-26T12:39:04Z</time>
</trkpt>
<trkpt lat="47.972355" lon="11.20961">
<ele>661.772</ele>
<time>2022-05-26T12:39:05Z</time>
</trkpt>
<trkpt lat="47.972332" lon="11.209554">
<ele>661.854</ele>
<time>2022-05-26T12:39:06Z</time>
</trkpt>
<trkpt lat="47.972305" lon="11.209492">
<ele>661.908</ele>
<time>2022-05-26T12:39:07Z</time>
</trkpt>
<trkpt lat="47.972279" lon="11.209443">
<ele>661.935</ele>
<time>2022-05-26T12:39:08Z</time>
</trkpt>
<trkpt lat="47.972252" lon="11.209392">
<ele>661.935</ele>
<time>2022-05-26T12:39:09Z</time>
</trkpt>
<trkpt lat="47.972225" lon="11.209335">
<ele>661.935</ele>
<time>2022-05-26T12:39:10Z</time>
</trkpt>
<trkpt lat="47.972198" lon="11.20928">
<ele>661.935</ele>
<time>2022-05-26T12:39:11Z</time>
</trkpt>
<trkpt lat="47.972176" lon="11.209225">
<ele>661.935</ele>
<time>2022-05-26T12:39:12Z</time>
</trkpt>
<trkpt lat="47.972153" lon="11.20917">
<ele>661.935</ele>
<time>2022-05-26T12:39:13Z</time>
</trkpt>
<trkpt lat="47.972122" lon="11.209117">
<ele>661.935</ele>
<time>2022-05-26T12:39:14Z</time>
</trkpt>
<trkpt lat="47.972099" lon="11.209067">
<ele>662.149</ele>
<time>2022-05-26T12:39:15Z</time>
</trkpt>
<trkpt lat="47.97208" lon="11.209017">
<ele>662.355</ele>
<time>2022-05-26T12:39:16Z</time>
</trkpt>
<trkpt lat="47.972054" lon="11.208963">
<ele>662.519</ele>
<time>2022-05-26T12:39:17Z</time>
</trkpt>
<trkpt lat="47.972027" lon="11.208908">
<ele>662.651</ele>
<time>2022-05-26T12:39:18Z</time>
</trkpt>
<trkpt lat="47.972004" lon="11.208856">
<ele>662.757</ele>
<time>2022-05-26T12:39:19Z</time>
</trkpt>
<trkpt lat="47.971981" lon="11.20881">
<ele>662.833</ele>
<time>2022-05-26T12:39:20Z</time>
</trkpt>
<trkpt lat="47.971958" lon="11.208759">
<ele>662.881</ele>
<time>2022-05-26T12:39:21Z</time>
</trkpt>
<trkpt lat="47.971928" lon="11.208709">
<ele>662.906</ele>
<time>2022-05-26T12:39:22Z</time>
</trkpt>
<trkpt lat="47.971897" lon="11.208654">
<ele>662.906</ele>
<time>2022-05-26T12:39:23Z</time>
</trkpt>
<trkpt lat="47.97187" lon="11.208595">
<ele>662.905</ele>
<time>2022-05-26T12:39:24Z</time>
</trkpt>
<trkpt lat="47.971848" lon="11.208538">
<ele>662.906</ele>
<time>2022-05-26T12:39:25Z</time>
</trkpt>
<trkpt lat="47.971821" lon="11.20848">
<ele>663.147</ele>
<time>2022-05-26T12:39:26Z</time>
</trkpt>
<trkpt lat="47.971798" lon="11.208432">
<ele>663.348</ele>
<time>2022-05-26T12:39:27Z</time>
</trkpt>
<trkpt lat="47.971771" lon="11.20838">
<ele>663.513</ele>
<time>2022-05-26T12:39:28Z</time>
</trkpt>
<trkpt lat="47.971752" lon="11.208328">
<ele>663.635</ele>
<time>2022-05-26T12:39:29Z</time>
</trkpt>
<trkpt lat="47.971725" lon="11.208271">
<ele>663.732</ele>
<time>2022-05-26T12:39:30Z</time>
</trkpt>
<trkpt lat="47.971699" lon="11.208227">
<ele>663.805</ele>
<time>2022-05-26T12:39:31Z</time>
</trkpt>
<trkpt lat="47.97168" lon="11.208181">
<ele>663.851</ele>
<time>2022-05-26T12:39:32Z</time>
</trkpt>
<trkpt lat="47.971657" lon="11.208135">
<ele>663.876</ele>
<time>2022-05-26T12:39:33Z</time>
</trkpt>
<trkpt lat="47.971626" lon="11.20808">
<ele>663.876</ele>
<time>2022-05-26T12:39:34Z</time>
</trkpt>
<trkpt lat="47.971596" lon="11.208028">
<ele>663.876</ele>
<time>2022-05-26T12:39:35Z</time>
</trkpt>
<trkpt lat="47.971554" lon="11.207968">
<ele>663.876</ele>
<time>2022-05-26T12:39:36Z</time>
</trkpt>
<trkpt lat="47.971519" lon="11.207907">
<ele>663.876</ele>
<time>2022-05-26T12:39:37Z</time>
</trkpt>
<trkpt lat="47.971485" lon="11.207849">
<ele>663.876</ele>
<time>2022-05-26T12:39:38Z</time>
</trkpt>
<trkpt lat="47.971455" lon="11.207791">
<ele>663.876</ele>
<time>2022-05-26T12:39:39Z</time>
</trkpt>
<trkpt lat="47.971416" lon="11.207731">
<ele>663.876</ele>
<time>2022-05-26T12:39:40Z</time>
</trkpt>
<trkpt lat="47.97139" lon="11.207677">
<ele>663.876</ele>
<time>2022-05-26T12:39:41Z</time>
</trkpt>
<trkpt lat="47.971352" lon="11.207618">
<ele>664.126</ele>
<time>2022-05-26T12:39:42Z</time>
</trkpt>
<trkpt lat="47.971321" lon="11.207565">
<ele>664.317</ele>
<time>2022-05-26T12:39:43Z</time>
</trkpt>
<trkpt lat="47.971291" lon="11.20751">
<ele>664.465</ele>
<time>2022-05-26T12:39:44Z</time>
</trkpt>
<trkpt lat="47.971264" lon="11.207458">
<ele>664.572</ele>
<time>2022-05-26T12:39:45Z</time>
</trkpt>
<trkpt lat="47.971233" lon="11.207408">
<ele>664.686</ele>
<time>2022-05-26T12:39:46Z</time>
</trkpt>
<trkpt lat="47.971199" lon="11.207362">
<ele>664.767</ele>
<time>2022-05-26T12:39:47Z</time>
</trkpt>
<trkpt lat="47.971165" lon="11.207314">
<ele>664.819</ele>
<time>2022-05-26T12:39:48Z</time>
</trkpt>
<trkpt lat="47.971127" lon="11.207267">
<ele>664.846</ele>
<time>2022-05-26T12:39:49Z</time>
</trkpt>
<trkpt lat="47.971092" lon="11.207218">
<ele>664.846</ele>
<time>2022-05-26T12:39:50Z</time>
</trkpt>
<trkpt lat="47.971066" lon="11.207165">
<ele>664.846</ele>
<time>2022-05-26T12:39:51Z</time>
</trkpt>
<trkpt lat="47.971043" lon="11.207107">
<ele>664.846</ele>
<time>2022-05-26T12:39:52Z</time>
</trkpt>
<trkpt lat="47.971016" lon="11.207048">
<ele>664.846</ele>
<time>2022-05-26T12:39:53Z</time>
</trkpt>
<trkpt lat="47.971001" lon="11.206985">
<ele>664.846</ele>
<time>2022-05-26T12:39:54Z</time>
</trkpt>
<trkpt lat="47.970982" lon="11.206926">
<ele>664.846</ele>
<time>2022-05-26T12:39:55Z</time>
</trkpt>
<trkpt lat="47.970966" lon="11.206868">
<ele>664.846</ele>
<time>2022-05-26T12:39:56Z</time>
</trkpt>
<trkpt lat="47.970951" lon="11.206809">
<ele>664.846</ele>
<time>2022-05-26T12:39:57Z</time>
</trkpt>
<trkpt lat="47.970932" lon="11.20675">
<ele>664.846</ele>
<time>2022-05-26T12:39:58Z</time>
</trkpt>
<trkpt lat="47.970917" lon="11.206692">
<ele>665.14</ele>
<time>2022-05-26T12:39:59Z</time>
</trkpt>
<trkpt lat="47.970894" lon="11.206638">
<ele>665.37</ele>
<time>2022-05-26T12:40:00Z</time>
</trkpt>
<trkpt lat="47.970875" lon="11.206591">
<ele>665.543</ele>
<time>2022-05-26T12:40:01Z</time>
</trkpt>
<trkpt lat="47.970852" lon="11.206543">
<ele>665.677</ele>
<time>2022-05-26T12:40:02Z</time>
</trkpt>
<trkpt lat="47.970825" lon="11.206498">
<ele>665.766</ele>
<time>2022-05-26T12:40:03Z</time>
</trkpt>
<trkpt lat="47.970791" lon="11.206453">
<ele>665.828</ele>
<time>2022-05-26T12:40:04Z</time>
</trkpt>
<trkpt lat="47.970757" lon="11.206411">
<ele>665.875</ele>
<time>2022-05-26T12:40:05Z</time>
</trkpt>
<trkpt lat="47.970722" lon="11.206378">
<ele>665.905</ele>
<time>2022-05-26T12:40:06Z</time>
</trkpt>
<trkpt lat="47.970695" lon="11.206344">
<ele>665.905</ele>
<time>2022-05-26T12:40:07Z</time>
</trkpt>
<trkpt lat="47.97068" lon="11.206295">
<ele>665.905</ele>
<time>2022-05-26T12:40:08Z</time>
</trkpt>
<trkpt lat="47.970676" lon="11.206233">
<ele>665.905</ele>
<time>2022-05-26T12:40:09Z</time>
</trkpt>
<trkpt lat="47.970673" lon="11.206166">
<ele>665.905</ele>
<time>2022-05-26T12:40:10Z</time>
</trkpt>
<trkpt lat="47.970676" lon="11.206097">
<ele>665.905</ele>
<time>2022-05-26T12:40:11Z</time>
</trkpt>
<trkpt lat="47.970673" lon="11.206028">
<ele>665.905</ele>
<time>2022-05-26T12:40:12Z</time>
</trkpt>
<trkpt lat="47.970665" lon="11.205962">
<ele>666.155</ele>
<time>2022-05-26T12:40:13Z</time>
</trkpt>
<trkpt lat="47.970654" lon="11.205895">
<ele>666.357</ele>
<time>2022-05-26T12:40:14Z</time>
</trkpt>
<trkpt lat="47.970638" lon="11.205833">
<ele>666.491</ele>
<time>2022-05-26T12:40:15Z</time>
</trkpt>
<trkpt lat="47.970627" lon="11.205771">
<ele>666.626</ele>
<time>2022-05-26T12:40:16Z</time>
</trkpt>
<trkpt lat="47.970619" lon="11.20571">
<ele>666.726</ele>
<time>2022-05-26T12:40:17Z</time>
</trkpt>
<trkpt lat="47.970604" lon="11.205647">
<ele>666.8</ele>
<time>2022-05-26T12:40:18Z</time>
</trkpt>
<trkpt lat="47.970589" lon="11.205584">
<ele>666.85</ele>
<time>2022-05-26T12:40:19Z</time>
</trkpt>
<trkpt lat="47.970573" lon="11.205522">
<ele>666.875</ele>
<time>2022-05-26T12:40:20Z</time>
</trkpt>
<trkpt lat="47.970558" lon="11.205462">
<ele>666.875</ele>
<time>2022-05-26T12:40:21Z</time>
</trkpt>
<trkpt lat="47.970547" lon="11.205401">
<ele>667.101</ele>
<time>2022-05-26T12:40:22Z</time>
</trkpt>
<trkpt lat="47.970531" lon="11.205342">
<ele>667.278</ele>
<time>2022-05-26T12:40:23Z</time>
</trkpt>
<trkpt lat="47.97052" lon="11.205283">
<ele>667.417</ele>
<time>2022-05-26T12:40:24Z</time>
</trkpt>
<trkpt lat="47.970509" lon="11.205223">
<ele>667.511</ele>
<time>2022-05-26T12:40:25Z</time>
</trkpt>
<trkpt lat="47.970497" lon="11.205167">
<ele>667.864</ele>
<time>2022-05-26T12:40:26Z</time>
</trkpt>
<trkpt lat="47.970493" lon="11.205113">
<ele>668.15</ele>
<time>2022-05-26T12:40:27Z</time>
</trkpt>
<trkpt lat="47.97049" lon="11.205058">
<ele>668.376</ele>
<time>2022-05-26T12:40:28Z</time>
</trkpt>
<trkpt lat="47.970482" lon="11.205003">
<ele>668.544</ele>
<time>2022-05-26T12:40:29Z</time>
</trkpt>
<trkpt lat="47.970474" lon="11.204944">
<ele>668.656</ele>
<time>2022-05-26T12:40:30Z</time>
</trkpt>
<trkpt lat="47.97047" lon="11.204884">
<ele>668.738</ele>
<time>2022-05-26T12:40:31Z</time>
</trkpt>
<trkpt lat="47.970467" lon="11.204824">
<ele>668.791</ele>
<time>2022-05-26T12:40:32Z</time>
</trkpt>
<trkpt lat="47.970463" lon="11.204766">
<ele>668.817</ele>
<time>2022-05-26T12:40:33Z</time>
</trkpt>
<trkpt lat="47.970455" lon="11.204705">
<ele>669.058</ele>
<time>2022-05-26T12:40:34Z</time>
</trkpt>
<trkpt lat="47.970448" lon="11.204647">
<ele>669.228</ele>
<time>2022-05-26T12:40:35Z</time>
</trkpt>
<trkpt lat="47.97044" lon="11.20459">
<ele>669.399</ele>
<time>2022-05-26T12:40:36Z</time>
</trkpt>
<trkpt lat="47.970432" lon="11.204532">
<ele>669.535</ele>
<time>2022-05-26T12:40:37Z</time>
</trkpt>
<trkpt lat="47.970428" lon="11.204472">
<ele>669.637</ele>
<time>2022-05-26T12:40:38Z</time>
</trkpt>
<trkpt lat="47.970428" lon="11.204408">
<ele>669.715</ele>
<time>2022-05-26T12:40:39Z</time>
</trkpt>
<trkpt lat="47.970428" lon="11.20434">
<ele>669.765</ele>
<time>2022-05-26T12:40:40Z</time>
</trkpt>
<trkpt lat="47.970428" lon="11.204268">
<ele>669.788</ele>
<time>2022-05-26T12:40:41Z</time>
</trkpt>
<trkpt lat="47.970428" lon="11.204184">
<ele>669.788</ele>
<time>2022-05-26T12:40:42Z</time>
</trkpt>
<trkpt lat="47.970432" lon="11.204103">
<ele>669.55</ele>
<time>2022-05-26T12:40:43Z</time>
</trkpt>
<trkpt lat="47.970428" lon="11.204021">
<ele>669.366</ele>
<time>2022-05-26T12:40:44Z</time>
</trkpt>
<trkpt lat="47.970428" lon="11.203935">
<ele>669.249</ele>
<time>2022-05-26T12:40:45Z</time>
</trkpt>
<trkpt lat="47.970428" lon="11.203852">
<ele>669.122</ele>
<time>2022-05-26T12:40:46Z</time>
</trkpt>
<trkpt lat="47.970428" lon="11.203771">
<ele>669.03</ele>
<time>2022-05-26T12:40:47Z</time>
</trkpt>
<trkpt lat="47.970428" lon="11.203687">
<ele>668.971</ele>
<time>2022-05-26T12:40:48Z</time>
</trkpt>
<trkpt lat="47.970428" lon="11.203604">
<ele>668.665</ele>
<time>2022-05-26T12:40:49Z</time>
</trkpt>
<trkpt lat="47.970432" lon="11.20352">
<ele>668.43</ele>
<time>2022-05-26T12:40:50Z</time>
</trkpt>
<trkpt lat="47.97044" lon="11.203436">
<ele>668.197</ele>
<time>2022-05-26T12:40:51Z</time>
</trkpt>
<trkpt lat="47.970444" lon="11.203355">
<ele>668.069</ele>
<time>2022-05-26T12:40:52Z</time>
</trkpt>
<trkpt lat="47.970451" lon="11.203277">
<ele>667.979</ele>
<time>2022-05-26T12:40:53Z</time>
</trkpt>
<trkpt lat="47.970455" lon="11.203198">
<ele>667.922</ele>
<time>2022-05-26T12:40:54Z</time>
</trkpt>
<trkpt lat="47.970459" lon="11.203119">
<ele>667.875</ele>
<time>2022-05-26T12:40:55Z</time>
</trkpt>
<trkpt lat="47.970459" lon="11.203044">
<ele>667.846</ele>
<time>2022-05-26T12:40:56Z</time>
</trkpt>
<trkpt lat="47.970463" lon="11.202971">
<ele>667.846</ele>
<time>2022-05-26T12:40:57Z</time>
</trkpt>
<trkpt lat="47.970463" lon="11.202895">
<ele>667.846</ele>
<time>2022-05-26T12:40:58Z</time>
</trkpt>
<trkpt lat="47.970463" lon="11.202815">
<ele>667.846</ele>
<time>2022-05-26T12:40:59Z</time>
</trkpt>
<trkpt lat="47.970467" lon="11.202734">
<ele>667.846</ele>
<time>2022-05-26T12:41:00Z</time>
</trkpt>
<trkpt lat="47.970463" lon="11.20265">
<ele>667.846</ele>
<time>2022-05-26T12:41:01Z</time>
</trkpt>
<trkpt lat="47.970463" lon="11.202566">
<ele>667.846</ele>
<time>2022-05-26T12:41:02Z</time>
</trkpt>
<trkpt lat="47.970463" lon="11.202489">
<ele>667.846</ele>
<time>2022-05-26T12:41:03Z</time>
</trkpt>
<trkpt lat="47.970463" lon="11.20241">
<ele>667.846</ele>
<time>2022-05-26T12:41:04Z</time>
</trkpt>
<trkpt lat="47.970463" lon="11.202336">
<ele>667.846</ele>
<time>2022-05-26T12:41:05Z</time>
</trkpt>
<trkpt lat="47.970459" lon="11.202262">
<ele>667.846</ele>
<time>2022-05-26T12:41:06Z</time>
</trkpt>
<trkpt lat="47.970455" lon="11.202185">
<ele>667.846</ele>
<time>2022-05-26T12:41:07Z</time>
</trkpt>
<trkpt lat="47.970451" lon="11.202111">
<ele>667.846</ele>
<time>2022-05-26T12:41:08Z</time>
</trkpt>
<trkpt lat="47.970448" lon="11.202042">
<ele>667.846</ele>
<time>2022-05-26T12:41:09Z</time>
</trkpt>
<trkpt lat="47.970444" lon="11.201969">
<ele>667.846</ele>
<time>2022-05-26T12:41:10Z</time>
</trkpt>
<trkpt lat="47.97044" lon="11.201897">
<ele>667.846</ele>
<time>2022-05-26T12:41:11Z</time>
</trkpt>
<trkpt lat="47.970432" lon="11.201827">
<ele>667.846</ele>
<time>2022-05-26T12:41:12Z</time>
</trkpt>
<trkpt lat="47.970428" lon="11.201756">
<ele>667.846</ele>
<time>2022-05-26T12:41:13Z</time>
</trkpt>
<trkpt lat="47.970417" lon="11.201687">
<ele>667.846</ele>
<time>2022-05-26T12:41:14Z</time>
</trkpt>
<trkpt lat="47.970409" lon="11.201622">
<ele>667.846</ele>
<time>2022-05-26T12:41:15Z</time>
</trkpt>
<trkpt lat="47.970398" lon="11.20156">
<ele>667.846</ele>
<time>2022-05-26T12:41:16Z</time>
</trkpt>
<trkpt lat="47.97039" lon="11.201496">
<ele>667.846</ele>
<time>2022-05-26T12:41:17Z</time>
</trkpt>
<trkpt lat="47.970383" lon="11.201431">
<ele>667.846</ele>
<time>2022-05-26T12:41:18Z</time>
</trkpt>
<trkpt lat="47.970371" lon="11.201365">
<ele>667.846</ele>
<time>2022-05-26T12:41:19Z</time>
</trkpt>
<trkpt lat="47.970364" lon="11.201295">
<ele>667.846</ele>
<time>2022-05-26T12:41:20Z</time>
</trkpt>
<trkpt lat="47.970356" lon="11.201221">
<ele>667.57</ele>
<time>2022-05-26T12:41:21Z</time>
</trkpt>
<trkpt lat="47.970341" lon="11.201143">
<ele>667.06</ele>
<time>2022-05-26T12:41:22Z</time>
</trkpt>
<trkpt lat="47.970329" lon="11.201062">
<ele>666.879</ele>
<time>2022-05-26T12:41:23Z</time>
</trkpt>
<trkpt lat="47.970314" lon="11.200978">
<ele>666.758</ele>
<time>2022-05-26T12:41:24Z</time>
</trkpt>
<trkpt lat="47.970295" lon="11.200891">
<ele>666.545</ele>
<time>2022-05-26T12:41:25Z</time>
</trkpt>
<trkpt lat="47.970284" lon="11.200802">
<ele>666.271</ele>
<time>2022-05-26T12:41:26Z</time>
</trkpt>
<trkpt lat="47.970268" lon="11.200708">
<ele>666.076</ele>
<time>2022-05-26T12:41:27Z</time>
</trkpt>
<trkpt lat="47.970257" lon="11.200612">
<ele>665.968</ele>
<time>2022-05-26T12:41:28Z</time>
</trkpt>
<trkpt lat="47.970234" lon="11.200511">
<ele>665.638</ele>
<time>2022-05-26T12:41:29Z</time>
</trkpt>
<trkpt lat="47.970219" lon="11.200412">
<ele>665.324</ele>
<time>2022-05-26T12:41:30Z</time>
</trkpt>
<trkpt lat="47.9702" lon="11.200312">
<ele>665.145</ele>
<time>2022-05-26T12:41:31Z</time>
</trkpt>
<trkpt lat="47.970181" lon="11.200213">
<ele>665.007</ele>
<time>2022-05-26T12:41:32Z</time>
</trkpt>
<trkpt lat="47.970161" lon="11.200117">
<ele>664.912</ele>
<time>2022-05-26T12:41:33Z</time>
</trkpt>
<trkpt lat="47.970146" lon="11.200015">
<ele>664.616</ele>
<time>2022-05-26T12:41:34Z</time>
</trkpt>
<trkpt lat="47.970131" lon="11.199912">
<ele>664.179</ele>
<time>2022-05-26T12:41:35Z</time>
</trkpt>
<trkpt lat="47.970108" lon="11.199809">
<ele>663.797</ele>
<time>2022-05-26T12:41:36Z</time>
</trkpt>
<trkpt lat="47.970089" lon="11.199707">
<ele>663.508</ele>
<time>2022-05-26T12:41:37Z</time>
</trkpt>
<trkpt lat="47.97007" lon="11.199603">
<ele>663.279</ele>
<time>2022-05-26T12:41:38Z</time>
</trkpt>
<trkpt lat="47.970051" lon="11.199499">
<ele>663.108</ele>
<time>2022-05-26T12:41:39Z</time>
</trkpt>
<trkpt lat="47.970036" lon="11.199393">
<ele>663.004</ele>
<time>2022-05-26T12:41:40Z</time>
</trkpt>
<trkpt lat="47.97002" lon="11.199286">
<ele>662.646</ele>
<time>2022-05-26T12:41:41Z</time>
</trkpt>
<trkpt lat="47.970009" lon="11.199177">
<ele>662.389</ele>
<time>2022-05-26T12:41:42Z</time>
</trkpt>
<trkpt lat="47.969997" lon="11.199067">
<ele>662.215</ele>
<time>2022-05-26T12:41:43Z</time>
</trkpt>
<trkpt lat="47.969986" lon="11.198955">
<ele>661.838</ele>
<time>2022-05-26T12:41:44Z</time>
</trkpt>
<trkpt lat="47.969975" lon="11.198838">
<ele>661.286</ele>
<time>2022-05-26T12:41:45Z</time>
</trkpt>
<trkpt lat="47.969971" lon="11.198717">
<ele>660.507</ele>
<time>2022-05-26T12:41:46Z</time>
</trkpt>
<trkpt lat="47.969967" lon="11.198598">
<ele>659.889</ele>
<time>2022-05-26T12:41:47Z</time>
</trkpt>
<trkpt lat="47.969963" lon="11.198481">
<ele>659.416</ele>
<time>2022-05-26T12:41:48Z</time>
</trkpt>
<trkpt lat="47.969955" lon="11.198361">
<ele>659.139</ele>
<time>2022-05-26T12:41:49Z</time>
</trkpt>
<trkpt lat="47.969948" lon="11.198244">
<ele>658.606</ele>
<time>2022-05-26T12:41:50Z</time>
</trkpt>
<trkpt lat="47.96994" lon="11.198129">
<ele>658.219</ele>
<time>2022-05-26T12:41:51Z</time>
</trkpt>
<trkpt lat="47.969936" lon="11.198009">
<ele>657.996</ele>
<time>2022-05-26T12:41:52Z</time>
</trkpt>
<trkpt lat="47.969933" lon="11.19789">
<ele>657.556</ele>
<time>2022-05-26T12:41:53Z</time>
</trkpt>
<trkpt lat="47.969925" lon="11.197766">
<ele>657.222</ele>
<time>2022-05-26T12:41:54Z</time>
</trkpt>
<trkpt lat="47.969921" lon="11.197645">
<ele>656.997</ele>
<time>2022-05-26T12:41:55Z</time>
</trkpt>
<trkpt lat="47.969913" lon="11.197521">
<ele>656.522</ele>
<time>2022-05-26T12:41:56Z</time>
</trkpt>
<trkpt lat="47.969906" lon="11.1974">
<ele>656.157</ele>
<time>2022-05-26T12:41:57Z</time>
</trkpt>
<trkpt lat="47.969898" lon="11.197278">
<ele>655.934</ele>
<time>2022-05-26T12:41:58Z</time>
</trkpt>
<trkpt lat="47.969887" lon="11.197153">
<ele>655.459</ele>
<time>2022-05-26T12:41:59Z</time>
</trkpt>
<trkpt lat="47.969879" lon="11.19703">
<ele>655.1</ele>
<time>2022-05-26T12:42:00Z</time>
</trkpt>
<trkpt lat="47.969875" lon="11.19691">
<ele>654.84</ele>
<time>2022-05-26T12:42:01Z</time>
</trkpt>
<trkpt lat="47.969872" lon="11.19679">
<ele>654.645</ele>
<time>2022-05-26T12:42:02Z</time>
</trkpt>
<trkpt lat="47.969868" lon="11.196671">
<ele>654.508</ele>
<time>2022-05-26T12:42:03Z</time>
</trkpt>
<trkpt lat="47.96986" lon="11.196551">
<ele>654.442</ele>
<time>2022-05-26T12:42:04Z</time>
</trkpt>
<trkpt lat="47.969849" lon="11.196435">
<ele>654.169</ele>
<time>2022-05-26T12:42:05Z</time>
</trkpt>
<trkpt lat="47.969841" lon="11.196321">
<ele>653.938</ele>
<time>2022-05-26T12:42:06Z</time>
</trkpt>
<trkpt lat="47.96983" lon="11.196208">
<ele>653.772</ele>
<time>2022-05-26T12:42:07Z</time>
</trkpt>
<trkpt lat="47.969814" lon="11.196096">
<ele>653.637</ele>
<time>2022-05-26T12:42:08Z</time>
</trkpt>
<trkpt lat="47.969807" lon="11.195985">
<ele>653.548</ele>
<time>2022-05-26T12:42:09Z</time>
</trkpt>
<trkpt lat="47.969799" lon="11.195875">
<ele>653.254</ele>
<time>2022-05-26T12:42:10Z</time>
</trkpt>
<trkpt lat="47.969784" lon="11.195765">
<ele>653.021</ele>
<time>2022-05-26T12:42:11Z</time>
</trkpt>
<trkpt lat="47.969776" lon="11.195661">
<ele>652.847</ele>
<time>2022-05-26T12:42:12Z</time>
</trkpt>
<trkpt lat="47.969765" lon="11.195559">
<ele>652.712</ele>
<time>2022-05-26T12:42:13Z</time>
</trkpt>
<trkpt lat="47.969749" lon="11.195458">
<ele>652.634</ele>
<time>2022-05-26T12:42:14Z</time>
</trkpt>
<trkpt lat="47.969742" lon="11.195361">
<ele>652.578</ele>
<time>2022-05-26T12:42:15Z</time>
</trkpt>
<trkpt lat="47.96973" lon="11.195265">
<ele>652.527</ele>
<time>2022-05-26T12:42:16Z</time>
</trkpt>
<trkpt lat="47.969719" lon="11.19517">
<ele>652.503</ele>
<time>2022-05-26T12:42:17Z</time>
</trkpt>
<trkpt lat="47.969707" lon="11.195074">
<ele>652.502</ele>
<time>2022-05-26T12:42:18Z</time>
</trkpt>
<trkpt lat="47.969688" lon="11.194975">
<ele>652.237</ele>
<time>2022-05-26T12:42:19Z</time>
</trkpt>
<trkpt lat="47.969677" lon="11.19488">
<ele>652.023</ele>
<time>2022-05-26T12:42:20Z</time>
</trkpt>
<trkpt lat="47.969662" lon="11.194783">
<ele>651.859</ele>
<time>2022-05-26T12:42:21Z</time>
</trkpt>
<trkpt lat="47.969646" lon="11.194689">
<ele>651.762</ele>
<time>2022-05-26T12:42:22Z</time>
</trkpt>
<trkpt lat="47.969635" lon="11.194598">
<ele>651.427</ele>
<time>2022-05-26T12:42:23Z</time>
</trkpt>
<trkpt lat="47.969616" lon="11.19451">
<ele>651.179</ele>
<time>2022-05-26T12:42:24Z</time>
</trkpt>
<trkpt lat="47.969604" lon="11.194427">
<ele>650.997</ele>
<time>2022-05-26T12:42:25Z</time>
</trkpt>
<trkpt lat="47.969585" lon="11.194344">
<ele>650.832</ele>
<time>2022-05-26T12:42:26Z</time>
</trkpt>
<trkpt lat="47.96957" lon="11.194265">
<ele>650.723</ele>
<time>2022-05-26T12:42:27Z</time>
</trkpt>
<trkpt lat="47.969551" lon="11.194188">
<ele>650.648</ele>
<time>2022-05-26T12:42:28Z</time>
</trkpt>
<trkpt lat="47.969532" lon="11.194113">
<ele>650.387</ele>
<time>2022-05-26T12:42:29Z</time>
</trkpt>
<trkpt lat="47.969517" lon="11.194036">
<ele>650.182</ele>
<time>2022-05-26T12:42:30Z</time>
</trkpt>
<trkpt lat="47.969498" lon="11.193962">
<ele>649.987</ele>
<time>2022-05-26T12:42:31Z</time>
</trkpt>
<trkpt lat="47.969482" lon="11.193884">
<ele>649.878</ele>
<time>2022-05-26T12:42:32Z</time>
</trkpt>
<trkpt lat="47.969463" lon="11.193802">
<ele>649.816</ele>
<time>2022-05-26T12:42:33Z</time>
</trkpt>
<trkpt lat="47.969448" lon="11.193717">
<ele>649.521</ele>
<time>2022-05-26T12:42:34Z</time>
</trkpt>
<trkpt lat="47.969437" lon="11.19363">
<ele>649.302</ele>
<time>2022-05-26T12:42:35Z</time>
</trkpt>
<trkpt lat="47.969421" lon="11.193539">
<ele>649.101</ele>
<time>2022-05-26T12:42:36Z</time>
</trkpt>
<trkpt lat="47.96941" lon="11.19345">
<ele>648.961</ele>
<time>2022-05-26T12:42:37Z</time>
</trkpt>
<trkpt lat="47.969391" lon="11.193362">
<ele>648.87</ele>
<time>2022-05-26T12:42:38Z</time>
</trkpt>
<trkpt lat="47.969376" lon="11.193276">
<ele>648.548</ele>
<time>2022-05-26T12:42:39Z</time>
</trkpt>
<trkpt lat="47.969357" lon="11.193191">
<ele>648.299</ele>
<time>2022-05-26T12:42:40Z</time>
</trkpt>
<trkpt lat="47.969341" lon="11.193103">
<ele>648.114</ele>
<time>2022-05-26T12:42:41Z</time>
</trkpt>
<trkpt lat="47.969318" lon="11.193019">
<ele>647.949</ele>
<time>2022-05-26T12:42:42Z</time>
</trkpt>
<trkpt lat="47.969303" lon="11.192935">
<ele>647.885</ele>
<time>2022-05-26T12:42:43Z</time>
</trkpt>
<trkpt lat="47.969288" lon="11.192849">
<ele>647.613</ele>
<time>2022-05-26T12:42:44Z</time>
</trkpt>
<trkpt lat="47.969269" lon="11.192761">
<ele>647.407</ele>
<time>2022-05-26T12:42:45Z</time>
</trkpt>
<trkpt lat="47.969257" lon="11.192672">
<ele>647.223</ele>
<time>2022-05-26T12:42:46Z</time>
</trkpt>
<trkpt lat="47.96925" lon="11.19258">
<ele>647.096</ele>
<time>2022-05-26T12:42:47Z</time>
</trkpt>
<trkpt lat="47.969238" lon="11.192491">
<ele>647.012</ele>
<time>2022-05-26T12:42:48Z</time>
</trkpt>
<trkpt lat="47.969227" lon="11.192403">
<ele>646.7</ele>
<time>2022-05-26T12:42:49Z</time>
</trkpt>
<trkpt lat="47.969219" lon="11.192319">
<ele>646.484</ele>
<time>2022-05-26T12:42:50Z</time>
</trkpt>
<trkpt lat="47.969208" lon="11.192229">
<ele>646.032</ele>
<time>2022-05-26T12:42:51Z</time>
</trkpt>
<trkpt lat="47.969193" lon="11.192143">
<ele>645.622</ele>
<time>2022-05-26T12:42:52Z</time>
</trkpt>
<trkpt lat="47.969181" lon="11.192055">
<ele>645.405</ele>
<time>2022-05-26T12:42:53Z</time>
</trkpt>
<trkpt lat="47.969173" lon="11.191967">
<ele>645.005</ele>
<time>2022-05-26T12:42:54Z</time>
</trkpt>
<trkpt lat="47.969166" lon="11.191876">
<ele>644.411</ele>
<time>2022-05-26T12:42:55Z</time>
</trkpt>
<trkpt lat="47.969154" lon="11.191787">
<ele>643.892</ele>
<time>2022-05-26T12:42:56Z</time>
</trkpt>
<trkpt lat="47.969147" lon="11.191702">
<ele>643.548</ele>
<time>2022-05-26T12:42:57Z</time>
</trkpt>
<trkpt lat="47.969131" lon="11.191617">
<ele>643.069</ele>
<time>2022-05-26T12:42:58Z</time>
</trkpt>
<trkpt lat="47.96912" lon="11.191533">
<ele>642.41</ele>
<time>2022-05-26T12:42:59Z</time>
</trkpt>
<trkpt lat="47.969105" lon="11.191448">
<ele>641.943</ele>
<time>2022-05-26T12:43:00Z</time>
</trkpt>
<trkpt lat="47.96909" lon="11.191361">
<ele>641.315</ele>
<time>2022-05-26T12:43:01Z</time>
</trkpt>
<trkpt lat="47.969067" lon="11.191277">
<ele>640.842</ele>
<time>2022-05-26T12:43:02Z</time>
</trkpt>
<trkpt lat="47.969036" lon="11.191188">
<ele>640.443</ele>
<time>2022-05-26T12:43:03Z</time>
</trkpt>
<trkpt lat="47.969006" lon="11.191102">
<ele>640.276</ele>
<time>2022-05-26T12:43:04Z</time>
</trkpt>
<trkpt lat="47.968975" lon="11.191018">
<ele>639.864</ele>
<time>2022-05-26T12:43:05Z</time>
</trkpt>
<trkpt lat="47.968937" lon="11.190932">
<ele>639.549</ele>
<time>2022-05-26T12:43:06Z</time>
</trkpt>
<trkpt lat="47.968895" lon="11.190845">
<ele>639.333</ele>
<time>2022-05-26T12:43:07Z</time>
</trkpt>
<trkpt lat="47.968857" lon="11.190757">
<ele>639.179</ele>
<time>2022-05-26T12:43:08Z</time>
</trkpt>
<trkpt lat="47.968811" lon="11.190668">
<ele>639.08</ele>
<time>2022-05-26T12:43:09Z</time>
</trkpt>
<trkpt lat="47.968765" lon="11.190583">
<ele>639.019</ele>
<time>2022-05-26T12:43:10Z</time>
</trkpt>
<trkpt lat="47.968723" lon="11.1905">
<ele>638.748</ele>
<time>2022-05-26T12:43:11Z</time>
</trkpt>
<trkpt lat="47.968674" lon="11.190416">
<ele>638.54</ele>
<time>2022-05-26T12:43:12Z</time>
</trkpt>
<trkpt lat="47.968628" lon="11.190335">
<ele>638.38</ele>
<time>2022-05-26T12:43:13Z</time>
</trkpt>
<trkpt lat="47.968582" lon="11.190255">
<ele>638.279</ele>
<time>2022-05-26T12:43:14Z</time>
</trkpt>
<trkpt lat="47.968536" lon="11.190176">
<ele>638.208</ele>
<time>2022-05-26T12:43:15Z</time>
</trkpt>
<trkpt lat="47.968487" lon="11.190106">
<ele>637.902</ele>
<time>2022-05-26T12:43:16Z</time>
</trkpt>
<trkpt lat="47.968445" lon="11.19004">
<ele>637.66</ele>
<time>2022-05-26T12:43:17Z</time>
</trkpt>
<trkpt lat="47.968403" lon="11.189977">
<ele>637.503</ele>
<time>2022-05-26T12:43:18Z</time>
</trkpt>
<trkpt lat="47.968361" lon="11.18992">
<ele>637.139</ele>
<time>2022-05-26T12:43:19Z</time>
</trkpt>
<trkpt lat="47.968319" lon="11.189872">
<ele>636.842</ele>
<time>2022-05-26T12:43:20Z</time>
</trkpt>
<trkpt lat="47.968277" lon="11.189835">
<ele>636.601</ele>
<time>2022-05-26T12:43:21Z</time>
</trkpt>
<trkpt lat="47.968243" lon="11.189805">
<ele>636.417</ele>
<time>2022-05-26T12:43:22Z</time>
</trkpt>
<trkpt lat="47.968212" lon="11.189782">
<ele>636.287</ele>
<time>2022-05-26T12:43:23Z</time>
</trkpt>
<trkpt lat="47.968189" lon="11.189756">
<ele>636.207</ele>
<time>2022-05-26T12:43:24Z</time>
</trkpt>
<trkpt lat="47.96817" lon="11.189727">
<ele>636.158</ele>
<time>2022-05-26T12:43:25Z</time>
</trkpt>
<trkpt lat="47.968163" lon="11.189692">
<ele>636.132</ele>
<time>2022-05-26T12:43:26Z</time>
</trkpt>
<trkpt lat="47.96817" lon="11.189658">
<ele>636.411</ele>
<time>2022-05-26T12:43:27Z</time>
</trkpt>
<trkpt lat="47.968178" lon="11.189629">
<ele>636.654</ele>
<time>2022-05-26T12:43:28Z</time>
</trkpt>
<trkpt lat="47.968193" lon="11.1896">
<ele>636.861</ele>
<time>2022-05-26T12:43:29Z</time>
</trkpt>
<trkpt lat="47.968208" lon="11.189569">
<ele>637.037</ele>
<time>2022-05-26T12:43:30Z</time>
</trkpt>
<trkpt lat="47.96822" lon="11.189535">
<ele>637.16</ele>
<time>2022-05-26T12:43:31Z</time>
</trkpt>
<trkpt lat="47.968243" lon="11.189504">
<ele>637.237</ele>
<time>2022-05-26T12:43:32Z</time>
</trkpt>
<trkpt lat="47.968254" lon="11.18948">
<ele>637.261</ele>
<time>2022-05-26T12:43:33Z</time>
</trkpt>
<trkpt lat="47.968266" lon="11.189466">
<ele>637.27</ele>
<time>2022-05-26T12:43:34Z</time>
</trkpt>
<trkpt lat="47.968269" lon="11.189458">
<ele>637.27</ele>
<time>2022-05-26T12:43:35Z</time>
</trkpt>
<trkpt lat="47.968269" lon="11.189455">
<ele>637.27</ele>
<time>2022-05-26T12:43:36Z</time>
</trkpt>
<trkpt lat="47.968269" lon="11.189453">
<ele>637.27</ele>
<time>2022-05-26T12:43:37Z</time>
</trkpt>
<trkpt lat="47.968277" lon="11.18943">
<ele>637.27</ele>
<time>2022-05-26T12:46:26Z</time>
</trkpt>
<trkpt lat="47.968281" lon="11.189417">
<ele>637.27</ele>
<time>2022-05-26T12:46:27Z</time>
</trkpt>
<trkpt lat="47.968288" lon="11.189401">
<ele>637.27</ele>
<time>2022-05-26T12:46:28Z</time>
</trkpt>
<trkpt lat="47.968296" lon="11.189371">
<ele>637.002</ele>
<time>2022-05-26T12:46:29Z</time>
</trkpt>
<trkpt lat="47.968304" lon="11.18933">
<ele>636.729</ele>
<time>2022-05-26T12:46:30Z</time>
</trkpt>
<trkpt lat="47.968307" lon="11.189279">
<ele>636.529</ele>
<time>2022-05-26T12:46:31Z</time>
</trkpt>
<trkpt lat="47.968307" lon="11.18922">
<ele>636.414</ele>
<time>2022-05-26T12:46:32Z</time>
</trkpt>
<trkpt lat="47.968304" lon="11.189158">
<ele>636.393</ele>
<time>2022-05-26T12:46:33Z</time>
</trkpt>
<trkpt lat="47.968304" lon="11.189096">
<ele>636.361</ele>
<time>2022-05-26T12:46:34Z</time>
</trkpt>
<trkpt lat="47.9683" lon="11.189034">
<ele>636.314</ele>
<time>2022-05-26T12:46:35Z</time>
</trkpt>
<trkpt lat="47.968296" lon="11.18898">
<ele>636.303</ele>
<time>2022-05-26T12:46:36Z</time>
</trkpt>
<trkpt lat="47.968292" lon="11.188937">
<ele>636.303</ele>
<time>2022-05-26T12:46:37Z</time>
</trkpt>
<trkpt lat="47.968292" lon="11.188905">
<ele>636.303</ele>
<time>2022-05-26T12:46:38Z</time>
</trkpt>
<trkpt lat="47.968292" lon="11.18887">
<ele>636.303</ele>
<time>2022-05-26T12:46:39Z</time>
</trkpt>
<trkpt lat="47.968296" lon="11.188831">
<ele>636.303</ele>
<time>2022-05-26T12:46:40Z</time>
</trkpt>
<trkpt lat="47.9683" lon="11.18879">
<ele>636.303</ele>
<time>2022-05-26T12:46:41Z</time>
</trkpt>
<trkpt lat="47.968296" lon="11.188743">
<ele>636.303</ele>
<time>2022-05-26T12:46:42Z</time>
</trkpt>
<trkpt lat="47.968292" lon="11.18869">
<ele>636.118</ele>
<time>2022-05-26T12:46:43Z</time>
</trkpt>
<trkpt lat="47.968281" lon="11.188627">
<ele>635.917</ele>
<time>2022-05-26T12:46:44Z</time>
</trkpt>
<trkpt lat="47.968277" lon="11.188563">
<ele>635.739</ele>
<time>2022-05-26T12:46:45Z</time>
</trkpt>
<trkpt lat="47.968269" lon="11.188498">
<ele>635.607</ele>
<time>2022-05-26T12:46:46Z</time>
</trkpt>
<trkpt lat="47.968266" lon="11.188437">
<ele>635.527</ele>
<time>2022-05-26T12:46:47Z</time>
</trkpt>
<trkpt lat="47.968254" lon="11.188374">
<ele>635.472</ele>
<time>2022-05-26T12:46:48Z</time>
</trkpt>
<trkpt lat="47.968239" lon="11.188303">
<ele>635.438</ele>
<time>2022-05-26T12:46:49Z</time>
</trkpt>
<trkpt lat="47.968224" lon="11.188233">
<ele>635.423</ele>
<time>2022-05-26T12:46:50Z</time>
</trkpt>
<trkpt lat="47.968208" lon="11.188167">
<ele>635.172</ele>
<time>2022-05-26T12:46:51Z</time>
</trkpt>
<trkpt lat="47.968193" lon="11.188095">
<ele>634.979</ele>
<time>2022-05-26T12:46:52Z</time>
</trkpt>
<trkpt lat="47.968174" lon="11.188024">
<ele>634.848</ele>
<time>2022-05-26T12:46:53Z</time>
</trkpt>
<trkpt lat="47.968147" lon="11.187951">
<ele>634.705</ele>
<time>2022-05-26T12:46:54Z</time>
</trkpt>
<trkpt lat="47.968128" lon="11.187881">
<ele>634.597</ele>
<time>2022-05-26T12:46:55Z</time>
</trkpt>
<trkpt lat="47.968102" lon="11.187804">
<ele>634.531</ele>
<time>2022-05-26T12:46:56Z</time>
</trkpt>
<trkpt lat="47.968075" lon="11.187727">
<ele>634.214</ele>
<time>2022-05-26T12:46:57Z</time>
</trkpt>
<trkpt lat="47.968048" lon="11.187643">
<ele>633.966</ele>
<time>2022-05-26T12:46:58Z</time>
</trkpt>
<trkpt lat="47.968021" lon="11.187559">
<ele>633.737</ele>
<time>2022-05-26T12:46:59Z</time>
</trkpt>
<trkpt lat="47.967995" lon="11.187475">
<ele>633.61</ele>
<time>2022-05-26T12:47:00Z</time>
</trkpt>
<trkpt lat="47.967964" lon="11.187387">
<ele>633.522</ele>
<time>2022-05-26T12:47:01Z</time>
</trkpt>
<trkpt lat="47.967934" lon="11.187297">
<ele>633.481</ele>
<time>2022-05-26T12:47:02Z</time>
</trkpt>
<trkpt lat="47.967911" lon="11.18721">
<ele>633.182</ele>
<time>2022-05-26T12:47:03Z</time>
</trkpt>
<trkpt lat="47.967876" lon="11.187117">
<ele>632.932</ele>
<time>2022-05-26T12:47:04Z</time>
</trkpt>
<trkpt lat="47.96785" lon="11.187027">
<ele>632.749</ele>
<time>2022-05-26T12:47:05Z</time>
</trkpt>
<trkpt lat="47.967819" lon="11.186938">
<ele>632.607</ele>
<time>2022-05-26T12:47:06Z</time>
</trkpt>
<trkpt lat="47.967789" lon="11.186853">
<ele>632.514</ele>
<time>2022-05-26T12:47:07Z</time>
</trkpt>
<trkpt lat="47.967766" lon="11.186771">
<ele>632.215</ele>
<time>2022-05-26T12:47:08Z</time>
</trkpt>
<trkpt lat="47.967743" lon="11.186687">
<ele>631.984</ele>
<time>2022-05-26T12:47:09Z</time>
</trkpt>
<trkpt lat="47.967716" lon="11.186604">
<ele>631.81</ele>
<time>2022-05-26T12:47:10Z</time>
</trkpt>
<trkpt lat="47.96769" lon="11.186522">
<ele>631.699</ele>
<time>2022-05-26T12:47:11Z</time>
</trkpt>
<trkpt lat="47.967663" lon="11.186437">
<ele>631.364</ele>
<time>2022-05-26T12:47:12Z</time>
</trkpt>
<trkpt lat="47.967644" lon="11.186353">
<ele>631.108</ele>
<time>2022-05-26T12:47:13Z</time>
</trkpt>
<trkpt lat="47.967617" lon="11.186263">
<ele>630.866</ele>
<time>2022-05-26T12:47:14Z</time>
</trkpt>
<trkpt lat="47.967587" lon="11.18617">
<ele>630.686</ele>
<time>2022-05-26T12:47:15Z</time>
</trkpt>
<trkpt lat="47.96756" lon="11.186078">
<ele>630.568</ele>
<time>2022-05-26T12:47:16Z</time>
</trkpt>
<trkpt lat="47.967529" lon="11.185984">
<ele>630.487</ele>
<time>2022-05-26T12:47:17Z</time>
</trkpt>
<trkpt lat="47.967499" lon="11.185893">
<ele>630.438</ele>
<time>2022-05-26T12:47:18Z</time>
</trkpt>
<trkpt lat="47.967461" lon="11.1858">
<ele>630.122</ele>
<time>2022-05-26T12:47:19Z</time>
</trkpt>
<trkpt lat="47.967426" lon="11.185716">
<ele>629.862</ele>
<time>2022-05-26T12:47:20Z</time>
</trkpt>
<trkpt lat="47.967392" lon="11.185632">
<ele>629.682</ele>
<time>2022-05-26T12:47:21Z</time>
</trkpt>
<trkpt lat="47.967358" lon="11.185548">
<ele>629.549</ele>
<time>2022-05-26T12:47:22Z</time>
</trkpt>
<trkpt lat="47.967319" lon="11.185469">
<ele>629.456</ele>
<time>2022-05-26T12:47:23Z</time>
</trkpt>
<trkpt lat="47.967278" lon="11.18539">
<ele>629.126</ele>
<time>2022-05-26T12:47:24Z</time>
</trkpt>
<trkpt lat="47.967239" lon="11.185317">
<ele>628.871</ele>
<time>2022-05-26T12:47:25Z</time>
</trkpt>
<trkpt lat="47.967213" lon="11.185248">
<ele>628.679</ele>
<time>2022-05-26T12:47:26Z</time>
</trkpt>
<trkpt lat="47.96719" lon="11.18519">
<ele>628.552</ele>
<time>2022-05-26T12:47:27Z</time>
</trkpt>
<trkpt lat="47.967167" lon="11.185133">
<ele>628.465</ele>
<time>2022-05-26T12:47:28Z</time>
</trkpt>
<trkpt lat="47.967155" lon="11.185075">
<ele>628.15</ele>
<time>2022-05-26T12:47:29Z</time>
</trkpt>
<trkpt lat="47.967152" lon="11.185017">
<ele>627.895</ele>
<time>2022-05-26T12:47:30Z</time>
</trkpt>
<trkpt lat="47.967163" lon="11.184959">
<ele>627.695</ele>
<time>2022-05-26T12:47:31Z</time>
</trkpt>
<trkpt lat="47.96719" lon="11.184905">
<ele>627.549</ele>
<time>2022-05-26T12:47:32Z</time>
</trkpt>
<trkpt lat="47.967224" lon="11.184867">
<ele>627.447</ele>
<time>2022-05-26T12:47:33Z</time>
</trkpt>
<trkpt lat="47.967258" lon="11.184837">
<ele>627.343</ele>
<time>2022-05-26T12:47:34Z</time>
</trkpt>
<trkpt lat="47.967297" lon="11.184825">
<ele>627.275</ele>
<time>2022-05-26T12:47:35Z</time>
</trkpt>
<trkpt lat="47.967331" lon="11.184821">
<ele>627.245</ele>
<time>2022-05-26T12:47:36Z</time>
</trkpt>
<trkpt lat="47.967365" lon="11.184825">
<ele>627.245</ele>
<time>2022-05-26T12:47:37Z</time>
</trkpt>
<trkpt lat="47.967407" lon="11.184837">
<ele>627.482</ele>
<time>2022-05-26T12:47:38Z</time>
</trkpt>
<trkpt lat="47.967442" lon="11.184854">
<ele>627.665</ele>
<time>2022-05-26T12:47:39Z</time>
</trkpt>
<trkpt lat="47.96748" lon="11.184875">
<ele>627.779</ele>
<time>2022-05-26T12:47:40Z</time>
</trkpt>
<trkpt lat="47.967518" lon="11.184892">
<ele>628.14</ele>
<time>2022-05-26T12:47:41Z</time>
</trkpt>
<trkpt lat="47.96756" lon="11.184909">
<ele>628.419</ele>
<time>2022-05-26T12:47:42Z</time>
</trkpt>
<trkpt lat="47.967598" lon="11.184919">
<ele>628.617</ele>
<time>2022-05-26T12:47:43Z</time>
</trkpt>
<trkpt lat="47.967648" lon="11.184928">
<ele>628.814</ele>
<time>2022-05-26T12:47:44Z</time>
</trkpt>
<trkpt lat="47.967693" lon="11.18493">
<ele>628.944</ele>
<time>2022-05-26T12:47:45Z</time>
</trkpt>
<trkpt lat="47.967739" lon="11.184927">
<ele>629.019</ele>
<time>2022-05-26T12:47:46Z</time>
</trkpt>
<trkpt lat="47.967781" lon="11.184921">
<ele>629.067</ele>
<time>2022-05-26T12:47:47Z</time>
</trkpt>
<trkpt lat="47.967819" lon="11.184912">
<ele>629.33</ele>
<time>2022-05-26T12:47:48Z</time>
</trkpt>
<trkpt lat="47.967857" lon="11.184905">
<ele>629.559</ele>
<time>2022-05-26T12:47:49Z</time>
</trkpt>
<trkpt lat="47.967899" lon="11.184903">
<ele>629.713</ele>
<time>2022-05-26T12:47:50Z</time>
</trkpt>
<trkpt lat="47.967949" lon="11.184905">
<ele>629.826</ele>
<time>2022-05-26T12:47:51Z</time>
</trkpt>
<trkpt lat="47.967987" lon="11.184907">
<ele>629.908</ele>
<time>2022-05-26T12:47:52Z</time>
</trkpt>
<trkpt lat="47.968037" lon="11.184907">
<ele>629.972</ele>
<time>2022-05-26T12:47:53Z</time>
</trkpt>
<trkpt lat="47.968079" lon="11.184905">
<ele>630.03</ele>
<time>2022-05-26T12:47:54Z</time>
</trkpt>
<trkpt lat="47.968128" lon="11.184903">
<ele>630.058</ele>
<time>2022-05-26T12:47:55Z</time>
</trkpt>
<trkpt lat="47.968178" lon="11.184907">
<ele>630.058</ele>
<time>2022-05-26T12:47:56Z</time>
</trkpt>
<trkpt lat="47.968227" lon="11.184911">
<ele>630.058</ele>
<time>2022-05-26T12:47:57Z</time>
</trkpt>
<trkpt lat="47.968281" lon="11.184915">
<ele>630.058</ele>
<time>2022-05-26T12:47:58Z</time>
</trkpt>
<trkpt lat="47.968334" lon="11.184919">
<ele>630.058</ele>
<time>2022-05-26T12:47:59Z</time>
</trkpt>
<trkpt lat="47.968388" lon="11.184925">
<ele>630.058</ele>
<time>2022-05-26T12:48:00Z</time>
</trkpt>
<trkpt lat="47.968437" lon="11.184934">
<ele>630.058</ele>
<time>2022-05-26T12:48:01Z</time>
</trkpt>
<trkpt lat="47.968491" lon="11.18494">
<ele>630.058</ele>
<time>2022-05-26T12:48:02Z</time>
</trkpt>
<trkpt lat="47.968544" lon="11.184953">
<ele>630.058</ele>
<time>2022-05-26T12:48:03Z</time>
</trkpt>
<trkpt lat="47.968601" lon="11.184967">
<ele>630.058</ele>
<time>2022-05-26T12:48:04Z</time>
</trkpt>
<trkpt lat="47.968655" lon="11.184984">
<ele>630.058</ele>
<time>2022-05-26T12:48:05Z</time>
</trkpt>
<trkpt lat="47.968708" lon="11.185001">
<ele>630.058</ele>
<time>2022-05-26T12:48:06Z</time>
</trkpt>
<trkpt lat="47.968761" lon="11.185024">
<ele>630.058</ele>
<time>2022-05-26T12:48:07Z</time>
</trkpt>
<trkpt lat="47.968811" lon="11.185052">
<ele>630.058</ele>
<time>2022-05-26T12:48:08Z</time>
</trkpt>
<trkpt lat="47.968864" lon="11.185077">
<ele>630.058</ele>
<time>2022-05-26T12:48:09Z</time>
</trkpt>
<trkpt lat="47.968922" lon="11.185102">
<ele>629.809</ele>
<time>2022-05-26T12:48:10Z</time>
</trkpt>
<trkpt lat="47.968975" lon="11.185122">
<ele>629.615</ele>
<time>2022-05-26T12:48:11Z</time>
</trkpt>
<trkpt lat="47.969032" lon="11.185143">
<ele>629.463</ele>
<time>2022-05-26T12:48:12Z</time>
</trkpt>
<trkpt lat="47.96909" lon="11.185164">
<ele>629.358</ele>
<time>2022-05-26T12:48:13Z</time>
</trkpt>
<trkpt lat="47.969147" lon="11.185188">
<ele>629.249</ele>
<time>2022-05-26T12:48:14Z</time>
</trkpt>
<trkpt lat="47.969208" lon="11.18521">
<ele>628.947</ele>
<time>2022-05-26T12:48:15Z</time>
</trkpt>
<trkpt lat="47.969265" lon="11.185222">
<ele>628.715</ele>
<time>2022-05-26T12:48:16Z</time>
</trkpt>
<trkpt lat="47.969322" lon="11.185229">
<ele>628.544</ele>
<time>2022-05-26T12:48:17Z</time>
</trkpt>
<trkpt lat="47.969383" lon="11.185233">
<ele>628.355</ele>
<time>2022-05-26T12:48:18Z</time>
</trkpt>
<trkpt lat="47.96944" lon="11.185228">
<ele>628.283</ele>
<time>2022-05-26T12:48:19Z</time>
</trkpt>
<trkpt lat="47.969498" lon="11.185222">
<ele>628.237</ele>
<time>2022-05-26T12:48:20Z</time>
</trkpt>
<trkpt lat="47.969551" lon="11.185215">
<ele>628.215</ele>
<time>2022-05-26T12:48:21Z</time>
</trkpt>
<trkpt lat="47.969608" lon="11.185202">
<ele>628.212</ele>
<time>2022-05-26T12:48:22Z</time>
</trkpt>
<trkpt lat="47.969662" lon="11.185185">
<ele>628.212</ele>
<time>2022-05-26T12:48:23Z</time>
</trkpt>
<trkpt lat="47.969719" lon="11.18517">
<ele>628.212</ele>
<time>2022-05-26T12:48:24Z</time>
</trkpt>
<trkpt lat="47.969772" lon="11.185148">
<ele>628.212</ele>
<time>2022-05-26T12:48:25Z</time>
</trkpt>
<trkpt lat="47.969822" lon="11.185114">
<ele>628.491</ele>
<time>2022-05-26T12:48:26Z</time>
</trkpt>
<trkpt lat="47.969872" lon="11.185075">
<ele>628.707</ele>
<time>2022-05-26T12:48:27Z</time>
</trkpt>
<trkpt lat="47.969917" lon="11.185028">
<ele>628.873</ele>
<time>2022-05-26T12:48:28Z</time>
</trkpt>
<trkpt lat="47.969955" lon="11.184982">
<ele>628.995</ele>
<time>2022-05-26T12:48:29Z</time>
</trkpt>
<trkpt lat="47.969994" lon="11.184928">
<ele>629.08</ele>
<time>2022-05-26T12:48:30Z</time>
</trkpt>
<trkpt lat="47.970024" lon="11.18487">
<ele>629.131</ele>
<time>2022-05-26T12:48:31Z</time>
</trkpt>
<trkpt lat="47.970055" lon="11.184811">
<ele>629.156</ele>
<time>2022-05-26T12:48:32Z</time>
</trkpt>
<trkpt lat="47.970081" lon="11.184748">
<ele>629.179</ele>
<time>2022-05-26T12:48:33Z</time>
</trkpt>
<trkpt lat="47.9701" lon="11.184687">
<ele>629.179</ele>
<time>2022-05-26T12:48:34Z</time>
</trkpt>
<trkpt lat="47.970119" lon="11.184626">
<ele>629.179</ele>
<time>2022-05-26T12:48:35Z</time>
</trkpt>
<trkpt lat="47.970142" lon="11.184562">
<ele>629.179</ele>
<time>2022-05-26T12:48:36Z</time>
</trkpt>
<trkpt lat="47.970169" lon="11.184505">
<ele>629.47</ele>
<time>2022-05-26T12:48:37Z</time>
</trkpt>
<trkpt lat="47.970203" lon="11.18444">
<ele>629.7</ele>
<time>2022-05-26T12:48:38Z</time>
</trkpt>
<trkpt lat="47.970245" lon="11.1844">
<ele>629.877</ele>
<time>2022-05-26T12:48:39Z</time>
</trkpt>
<trkpt lat="47.970291" lon="11.184366">
<ele>630.009</ele>
<time>2022-05-26T12:48:40Z</time>
</trkpt>
<trkpt lat="47.970337" lon="11.184335">
<ele>630.106</ele>
<time>2022-05-26T12:48:41Z</time>
</trkpt>
<trkpt lat="47.970387" lon="11.184319">
<ele>630.163</ele>
<time>2022-05-26T12:48:42Z</time>
</trkpt>
<trkpt lat="47.970428" lon="11.18431">
<ele>630.207</ele>
<time>2022-05-26T12:48:43Z</time>
</trkpt>
<trkpt lat="47.97047" lon="11.184293">
<ele>630.234</ele>
<time>2022-05-26T12:48:44Z</time>
</trkpt>
<trkpt lat="47.970516" lon="11.184291">
<ele>630.234</ele>
<time>2022-05-26T12:48:45Z</time>
</trkpt>
<trkpt lat="47.970562" lon="11.184291">
<ele>630.234</ele>
<time>2022-05-26T12:48:46Z</time>
</trkpt>
<trkpt lat="47.970608" lon="11.184297">
<ele>630.234</ele>
<time>2022-05-26T12:48:47Z</time>
</trkpt>
<trkpt lat="47.970646" lon="11.184299">
<ele>630.49</ele>
<time>2022-05-26T12:48:48Z</time>
</trkpt>
<trkpt lat="47.970688" lon="11.184303">
<ele>630.69</ele>
<time>2022-05-26T12:48:49Z</time>
</trkpt>
<trkpt lat="47.970734" lon="11.184312">
<ele>630.856</ele>
<time>2022-05-26T12:48:50Z</time>
</trkpt>
<trkpt lat="47.970779" lon="11.184324">
<ele>630.977</ele>
<time>2022-05-26T12:48:51Z</time>
</trkpt>
<trkpt lat="47.970825" lon="11.18435">
<ele>631.062</ele>
<time>2022-05-26T12:48:52Z</time>
</trkpt>
<trkpt lat="47.970875" lon="11.184366">
<ele>631.119</ele>
<time>2022-05-26T12:48:53Z</time>
</trkpt>
<trkpt lat="47.970917" lon="11.184377">
<ele>631.174</ele>
<time>2022-05-26T12:48:54Z</time>
</trkpt>
<trkpt lat="47.970959" lon="11.184381">
<ele>631.201</ele>
<time>2022-05-26T12:48:55Z</time>
</trkpt>
<trkpt lat="47.971008" lon="11.18439">
<ele>631.201</ele>
<time>2022-05-26T12:48:56Z</time>
</trkpt>
<trkpt lat="47.971062" lon="11.184408">
<ele>631.201</ele>
<time>2022-05-26T12:48:57Z</time>
</trkpt>
<trkpt lat="47.971119" lon="11.184429">
<ele>631.201</ele>
<time>2022-05-26T12:48:58Z</time>
</trkpt>
<trkpt lat="47.971165" lon="11.184448">
<ele>631.201</ele>
<time>2022-05-26T12:48:59Z</time>
</trkpt>
<trkpt lat="47.97121" lon="11.184468">
<ele>631.201</ele>
<time>2022-05-26T12:49:00Z</time>
</trkpt>
<trkpt lat="47.97126" lon="11.184492">
<ele>631.446</ele>
<time>2022-05-26T12:49:01Z</time>
</trkpt>
<trkpt lat="47.971306" lon="11.184513">
<ele>631.641</ele>
<time>2022-05-26T12:49:02Z</time>
</trkpt>
<trkpt lat="47.971348" lon="11.184533">
<ele>631.77</ele>
<time>2022-05-26T12:49:03Z</time>
</trkpt>
<trkpt lat="47.971394" lon="11.184552">
<ele>631.899</ele>
<time>2022-05-26T12:49:04Z</time>
</trkpt>
<trkpt lat="47.971439" lon="11.184568">
<ele>632.005</ele>
<time>2022-05-26T12:49:05Z</time>
</trkpt>
<trkpt lat="47.971493" lon="11.184584">
<ele>632.088</ele>
<time>2022-05-26T12:49:06Z</time>
</trkpt>
<trkpt lat="47.971539" lon="11.184601">
<ele>632.144</ele>
<time>2022-05-26T12:49:07Z</time>
</trkpt>
<trkpt lat="47.971588" lon="11.184618">
<ele>632.168</ele>
<time>2022-05-26T12:49:08Z</time>
</trkpt>
<trkpt lat="47.971642" lon="11.184633">
<ele>632.168</ele>
<time>2022-05-26T12:49:09Z</time>
</trkpt>
<trkpt lat="47.971687" lon="11.184653">
<ele>632.168</ele>
<time>2022-05-26T12:49:10Z</time>
</trkpt>
<trkpt lat="47.971741" lon="11.18467">
<ele>632.168</ele>
<time>2022-05-26T12:49:11Z</time>
</trkpt>
<trkpt lat="47.971798" lon="11.184683">
<ele>632.168</ele>
<time>2022-05-26T12:49:12Z</time>
</trkpt>
<trkpt lat="47.97184" lon="11.184702">
<ele>632.168</ele>
<time>2022-05-26T12:49:13Z</time>
</trkpt>
<trkpt lat="47.971889" lon="11.184718">
<ele>632.168</ele>
<time>2022-05-26T12:49:14Z</time>
</trkpt>
<trkpt lat="47.971935" lon="11.184735">
<ele>632.168</ele>
<time>2022-05-26T12:49:15Z</time>
</trkpt>
<trkpt lat="47.971989" lon="11.184748">
<ele>632.168</ele>
<time>2022-05-26T12:49:16Z</time>
</trkpt>
<trkpt lat="47.972034" lon="11.184762">
<ele>632.168</ele>
<time>2022-05-26T12:49:17Z</time>
</trkpt>
<trkpt lat="47.972088" lon="11.184775">
<ele>632.168</ele>
<time>2022-05-26T12:49:18Z</time>
</trkpt>
<trkpt lat="47.972137" lon="11.18479">
<ele>632.168</ele>
<time>2022-05-26T12:49:19Z</time>
</trkpt>
<trkpt lat="47.972187" lon="11.184805">
<ele>632.168</ele>
<time>2022-05-26T12:49:20Z</time>
</trkpt>
<trkpt lat="47.972244" lon="11.184818">
<ele>632.168</ele>
<time>2022-05-26T12:49:21Z</time>
</trkpt>
<trkpt lat="47.972294" lon="11.184832">
<ele>632.168</ele>
<time>2022-05-26T12:49:22Z</time>
</trkpt>
<trkpt lat="47.972347" lon="11.184848">
<ele>632.168</ele>
<time>2022-05-26T12:49:23Z</time>
</trkpt>
<trkpt lat="47.972389" lon="11.184865">
<ele>632.168</ele>
<time>2022-05-26T12:49:24Z</time>
</trkpt>
<trkpt lat="47.972439" lon="11.184878">
<ele>632.168</ele>
<time>2022-05-26T12:49:25Z</time>
</trkpt>
<trkpt lat="47.972485" lon="11.184896">
<ele>632.168</ele>
<time>2022-05-26T12:49:26Z</time>
</trkpt>
<trkpt lat="47.97253" lon="11.184912">
<ele>632.168</ele>
<time>2022-05-26T12:49:27Z</time>
</trkpt>
<trkpt lat="47.97258" lon="11.184923">
<ele>632.168</ele>
<time>2022-05-26T12:49:28Z</time>
</trkpt>
<trkpt lat="47.972622" lon="11.184935">
<ele>632.394</ele>
<time>2022-05-26T12:49:29Z</time>
</trkpt>
<trkpt lat="47.972675" lon="11.18495">
<ele>632.578</ele>
<time>2022-05-26T12:49:30Z</time>
</trkpt>
<trkpt lat="47.972713" lon="11.184965">
<ele>632.718</ele>
<time>2022-05-26T12:49:31Z</time>
</trkpt>
<trkpt lat="47.972759" lon="11.184977">
<ele>632.828</ele>
<time>2022-05-26T12:49:32Z</time>
</trkpt>
<trkpt lat="47.972797" lon="11.184992">
<ele>632.9</ele>
<time>2022-05-26T12:49:33Z</time>
</trkpt>
<trkpt lat="47.972836" lon="11.185003">
<ele>632.975</ele>
<time>2022-05-26T12:49:34Z</time>
</trkpt>
<trkpt lat="47.972866" lon="11.185019">
<ele>633.024</ele>
<time>2022-05-26T12:49:35Z</time>
</trkpt>
<trkpt lat="47.972904" lon="11.185039">
<ele>633.048</ele>
<time>2022-05-26T12:49:36Z</time>
</trkpt>
<trkpt lat="47.972942" lon="11.185054">
<ele>633.048</ele>
<time>2022-05-26T12:49:37Z</time>
</trkpt>
<trkpt lat="47.97298" lon="11.185068">
<ele>633.048</ele>
<time>2022-05-26T12:49:38Z</time>
</trkpt>
<trkpt lat="47.973019" lon="11.185085">
<ele>633.3</ele>
<time>2022-05-26T12:49:39Z</time>
</trkpt>
<trkpt lat="47.973053" lon="11.185098">
<ele>633.503</ele>
<time>2022-05-26T12:49:40Z</time>
</trkpt>
<trkpt lat="47.973091" lon="11.18511">
<ele>633.632</ele>
<time>2022-05-26T12:49:41Z</time>
</trkpt>
<trkpt lat="47.973129" lon="11.185121">
<ele>633.999</ele>
<time>2022-05-26T12:49:42Z</time>
</trkpt>
<trkpt lat="47.973167" lon="11.185131">
<ele>634.262</ele>
<time>2022-05-26T12:49:43Z</time>
</trkpt>
<trkpt lat="47.973198" lon="11.185142">
<ele>634.505</ele>
<time>2022-05-26T12:49:44Z</time>
</trkpt>
<trkpt lat="47.973228" lon="11.18515">
<ele>634.689</ele>
<time>2022-05-26T12:49:45Z</time>
</trkpt>
<trkpt lat="47.973263" lon="11.185162">
<ele>634.829</ele>
<time>2022-05-26T12:49:46Z</time>
</trkpt>
<trkpt lat="47.973297" lon="11.185173">
<ele>634.898</ele>
<time>2022-05-26T12:49:47Z</time>
</trkpt>
<trkpt lat="47.973324" lon="11.185184">
<ele>635.186</ele>
<time>2022-05-26T12:49:48Z</time>
</trkpt>
<trkpt lat="47.973354" lon="11.185193">
<ele>635.402</ele>
<time>2022-05-26T12:49:49Z</time>
</trkpt>
<trkpt lat="47.973389" lon="11.185196">
<ele>635.594</ele>
<time>2022-05-26T12:49:50Z</time>
</trkpt>
<trkpt lat="47.973419" lon="11.185196">
<ele>635.721</ele>
<time>2022-05-26T12:49:51Z</time>
</trkpt>
<trkpt lat="47.973446" lon="11.185205">
<ele>635.807</ele>
<time>2022-05-26T12:49:52Z</time>
</trkpt>
<trkpt lat="47.973473" lon="11.18521">
<ele>635.868</ele>
<time>2022-05-26T12:49:53Z</time>
</trkpt>
<trkpt lat="47.973503" lon="11.185213">
<ele>635.922</ele>
<time>2022-05-26T12:49:54Z</time>
</trkpt>
<trkpt lat="47.973537" lon="11.185212">
<ele>636.162</ele>
<time>2022-05-26T12:49:55Z</time>
</trkpt>
<trkpt lat="47.973602" lon="11.185205">
<ele>636.431</ele>
<time>2022-05-26T12:49:57Z</time>
</trkpt>
<trkpt lat="47.973633" lon="11.185205">
<ele>636.584</ele>
<time>2022-05-26T12:49:58Z</time>
</trkpt>
<trkpt lat="47.973663" lon="11.185204">
<ele>636.695</ele>
<time>2022-05-26T12:49:59Z</time>
</trkpt>
<trkpt lat="47.973686" lon="11.1852">
<ele>636.763</ele>
<time>2022-05-26T12:50:00Z</time>
</trkpt>
<trkpt lat="47.973713" lon="11.185198">
<ele>636.813</ele>
<time>2022-05-26T12:50:01Z</time>
</trkpt>
<trkpt lat="47.973732" lon="11.1852">
<ele>636.825</ele>
<time>2022-05-26T12:50:02Z</time>
</trkpt>
<trkpt lat="47.973759" lon="11.185202">
<ele>636.83</ele>
<time>2022-05-26T12:50:03Z</time>
</trkpt>
<trkpt lat="47.973785" lon="11.185196">
<ele>636.83</ele>
<time>2022-05-26T12:50:04Z</time>
</trkpt>
<trkpt lat="47.973812" lon="11.185195">
<ele>636.83</ele>
<time>2022-05-26T12:50:05Z</time>
</trkpt>
<trkpt lat="47.973839" lon="11.185195">
<ele>636.83</ele>
<time>2022-05-26T12:50:06Z</time>
</trkpt>
<trkpt lat="47.973869" lon="11.185198">
<ele>636.83</ele>
<time>2022-05-26T12:50:07Z</time>
</trkpt>
<trkpt lat="47.9739" lon="11.185205">
<ele>636.831</ele>
<time>2022-05-26T12:50:08Z</time>
</trkpt>
<trkpt lat="47.97393" lon="11.185208">
<ele>636.831</ele>
<time>2022-05-26T12:50:09Z</time>
</trkpt>
<trkpt lat="47.973961" lon="11.185212">
<ele>636.83</ele>
<time>2022-05-26T12:50:10Z</time>
</trkpt>
<trkpt lat="47.973991" lon="11.185217">
<ele>636.831</ele>
<time>2022-05-26T12:50:11Z</time>
</trkpt>
<trkpt lat="47.974022" lon="11.185224">
<ele>636.83</ele>
<time>2022-05-26T12:50:12Z</time>
</trkpt>
<trkpt lat="47.974052" lon="11.185228">
<ele>636.83</ele>
<time>2022-05-26T12:50:13Z</time>
</trkpt>
<trkpt lat="47.974079" lon="11.185238">
<ele>636.83</ele>
<time>2022-05-26T12:50:14Z</time>
</trkpt>
<trkpt lat="47.97411" lon="11.185237">
<ele>636.83</ele>
<time>2022-05-26T12:50:15Z</time>
</trkpt>
<trkpt lat="47.974144" lon="11.185235">
<ele>636.83</ele>
<time>2022-05-26T12:50:16Z</time>
</trkpt>
<trkpt lat="47.974174" lon="11.185237">
<ele>637.107</ele>
<time>2022-05-26T12:50:17Z</time>
</trkpt>
<trkpt lat="47.974209" lon="11.185238">
<ele>637.324</ele>
<time>2022-05-26T12:50:18Z</time>
</trkpt>
<trkpt lat="47.974243" lon="11.185244">
<ele>637.491</ele>
<time>2022-05-26T12:50:19Z</time>
</trkpt>
<trkpt lat="47.974277" lon="11.185246">
<ele>637.621</ele>
<time>2022-05-26T12:50:20Z</time>
</trkpt>
<trkpt lat="47.974316" lon="11.185248">
<ele>637.702</ele>
<time>2022-05-26T12:50:21Z</time>
</trkpt>
<trkpt lat="47.97435" lon="11.185248">
<ele>637.755</ele>
<time>2022-05-26T12:50:22Z</time>
</trkpt>
<trkpt lat="47.974384" lon="11.185245">
<ele>637.778</ele>
<time>2022-05-26T12:50:23Z</time>
</trkpt>
<trkpt lat="47.974419" lon="11.185245">
<ele>637.798</ele>
<time>2022-05-26T12:50:24Z</time>
</trkpt>
<trkpt lat="47.974453" lon="11.185244">
<ele>637.798</ele>
<time>2022-05-26T12:50:25Z</time>
</trkpt>
<trkpt lat="47.974491" lon="11.185242">
<ele>637.798</ele>
<time>2022-05-26T12:50:26Z</time>
</trkpt>
<trkpt lat="47.974529" lon="11.18524">
<ele>637.798</ele>
<time>2022-05-26T12:50:27Z</time>
</trkpt>
<trkpt lat="47.974564" lon="11.18524">
<ele>637.798</ele>
<time>2022-05-26T12:50:28Z</time>
</trkpt>
<trkpt lat="47.974602" lon="11.185244">
<ele>637.798</ele>
<time>2022-05-26T12:50:29Z</time>
</trkpt>
<trkpt lat="47.97464" lon="11.185248">
<ele>637.515</ele>
<time>2022-05-26T12:50:30Z</time>
</trkpt>
<trkpt lat="47.974678" lon="11.185252">
<ele>637.294</ele>
<time>2022-05-26T12:50:31Z</time>
</trkpt>
<trkpt lat="47.974716" lon="11.185253">
<ele>637.128</ele>
<time>2022-05-26T12:50:32Z</time>
</trkpt>
<trkpt lat="47.974751" lon="11.185255">
<ele>637</ele>
<time>2022-05-26T12:50:33Z</time>
</trkpt>
<trkpt lat="47.974792" lon="11.185255">
<ele>636.919</ele>
<time>2022-05-26T12:50:34Z</time>
</trkpt>
<trkpt lat="47.974827" lon="11.185259">
<ele>636.827</ele>
<time>2022-05-26T12:50:35Z</time>
</trkpt>
<trkpt lat="47.974865" lon="11.185265">
<ele>636.768</ele>
<time>2022-05-26T12:50:36Z</time>
</trkpt>
<trkpt lat="47.974899" lon="11.185275">
<ele>636.742</ele>
<time>2022-05-26T12:50:37Z</time>
</trkpt>
<trkpt lat="47.974937" lon="11.185288">
<ele>636.498</ele>
<time>2022-05-26T12:50:38Z</time>
</trkpt>
<trkpt lat="47.974972" lon="11.185303">
<ele>636.307</ele>
<time>2022-05-26T12:50:39Z</time>
</trkpt>
<trkpt lat="47.975002" lon="11.185318">
<ele>636.162</ele>
<time>2022-05-26T12:50:40Z</time>
</trkpt>
<trkpt lat="47.975033" lon="11.185333">
<ele>636.049</ele>
<time>2022-05-26T12:50:41Z</time>
</trkpt>
<trkpt lat="47.975063" lon="11.185347">
<ele>635.977</ele>
<time>2022-05-26T12:50:42Z</time>
</trkpt>
<trkpt lat="47.975094" lon="11.185362">
<ele>635.927</ele>
<time>2022-05-26T12:50:43Z</time>
</trkpt>
<trkpt lat="47.975121" lon="11.185378">
<ele>635.888</ele>
<time>2022-05-26T12:50:44Z</time>
</trkpt>
<trkpt lat="47.975155" lon="11.185397">
<ele>635.862</ele>
<time>2022-05-26T12:50:45Z</time>
</trkpt>
<trkpt lat="47.975182" lon="11.185413">
<ele>635.862</ele>
<time>2022-05-26T12:50:46Z</time>
</trkpt>
<trkpt lat="47.975216" lon="11.185431">
<ele>635.862</ele>
<time>2022-05-26T12:50:47Z</time>
</trkpt>
<trkpt lat="47.975246" lon="11.185447">
<ele>635.862</ele>
<time>2022-05-26T12:50:48Z</time>
</trkpt>
<trkpt lat="47.975277" lon="11.18546">
<ele>635.862</ele>
<time>2022-05-26T12:50:49Z</time>
</trkpt>
<trkpt lat="47.975304" lon="11.185471">
<ele>635.862</ele>
<time>2022-05-26T12:50:50Z</time>
</trkpt>
<trkpt lat="47.975327" lon="11.185471">
<ele>635.862</ele>
<time>2022-05-26T12:50:51Z</time>
</trkpt>
<trkpt lat="47.975349" lon="11.185453">
<ele>635.862</ele>
<time>2022-05-26T12:50:52Z</time>
</trkpt>
<trkpt lat="47.975372" lon="11.185424">
<ele>635.862</ele>
<time>2022-05-26T12:50:53Z</time>
</trkpt>
<trkpt lat="47.975388" lon="11.18539">
<ele>635.862</ele>
<time>2022-05-26T12:50:54Z</time>
</trkpt>
<trkpt lat="47.975403" lon="11.185351">
<ele>635.862</ele>
<time>2022-05-26T12:50:55Z</time>
</trkpt>
<trkpt lat="47.975414" lon="11.185308">
<ele>635.862</ele>
<time>2022-05-26T12:50:56Z</time>
</trkpt>
<trkpt lat="47.97543" lon="11.185265">
<ele>635.862</ele>
<time>2022-05-26T12:50:57Z</time>
</trkpt>
<trkpt lat="47.975437" lon="11.185229">
<ele>635.862</ele>
<time>2022-05-26T12:50:58Z</time>
</trkpt>
<trkpt lat="47.975445" lon="11.185195">
<ele>635.597</ele>
<time>2022-05-26T12:50:59Z</time>
</trkpt>
<trkpt lat="47.975452" lon="11.18516">
<ele>635.396</ele>
<time>2022-05-26T12:51:00Z</time>
</trkpt>
<trkpt lat="47.975468" lon="11.185135">
<ele>635.249</ele>
<time>2022-05-26T12:51:01Z</time>
</trkpt>
<trkpt lat="47.975479" lon="11.185119">
<ele>635.132</ele>
<time>2022-05-26T12:51:02Z</time>
</trkpt>
<trkpt lat="47.975494" lon="11.18511">
<ele>635.054</ele>
<time>2022-05-26T12:51:03Z</time>
</trkpt>
<trkpt lat="47.975506" lon="11.1851">
<ele>634.99</ele>
<time>2022-05-26T12:51:04Z</time>
</trkpt>
<trkpt lat="47.975513" lon="11.185083">
<ele>634.929</ele>
<time>2022-05-26T12:51:05Z</time>
</trkpt>
<trkpt lat="47.975517" lon="11.185066">
<ele>634.895</ele>
<time>2022-05-26T12:51:06Z</time>
</trkpt>
<trkpt lat="47.975513" lon="11.185054">
<ele>634.895</ele>
<time>2022-05-26T12:51:07Z</time>
</trkpt>
<trkpt lat="47.975513" lon="11.185047">
<ele>634.895</ele>
<time>2022-05-26T12:51:08Z</time>
</trkpt>
<trkpt lat="47.97551" lon="11.185043">
<ele>634.895</ele>
<time>2022-05-26T12:51:09Z</time>
</trkpt>
<trkpt lat="47.975506" lon="11.185041">
<ele>634.895</ele>
<time>2022-05-26T12:51:10Z</time>
</trkpt>
<trkpt lat="47.975502" lon="11.185003">
<ele>634.895</ele>
<time>2022-05-26T12:51:22Z</time>
</trkpt>
<trkpt lat="47.975498" lon="11.184984">
<ele>634.895</ele>
<time>2022-05-26T12:51:23Z</time>
</trkpt>
<trkpt lat="47.975491" lon="11.184959">
<ele>634.895</ele>
<time>2022-05-26T12:51:24Z</time>
</trkpt>
<trkpt lat="47.975487" lon="11.184938">
<ele>634.895</ele>
<time>2022-05-26T12:51:25Z</time>
</trkpt>
<trkpt lat="47.975483" lon="11.184907">
<ele>634.895</ele>
<time>2022-05-26T12:51:26Z</time>
</trkpt>
<trkpt lat="47.975479" lon="11.184872">
<ele>634.895</ele>
<time>2022-05-26T12:51:27Z</time>
</trkpt>
<trkpt lat="47.975475" lon="11.184837">
<ele>635.236</ele>
<time>2022-05-26T12:51:28Z</time>
</trkpt>
<trkpt lat="47.975471" lon="11.184798">
<ele>635.442</ele>
<time>2022-05-26T12:51:29Z</time>
</trkpt>
<trkpt lat="47.975468" lon="11.18476">
<ele>635.571</ele>
<time>2022-05-26T12:51:30Z</time>
</trkpt>
<trkpt lat="47.97546" lon="11.184716">
<ele>635.715</ele>
<time>2022-05-26T12:51:31Z</time>
</trkpt>
<trkpt lat="47.975452" lon="11.184673">
<ele>635.773</ele>
<time>2022-05-26T12:51:32Z</time>
</trkpt>
<trkpt lat="47.975445" lon="11.18463">
<ele>635.825</ele>
<time>2022-05-26T12:51:33Z</time>
</trkpt>
<trkpt lat="47.975437" lon="11.18459">
<ele>635.843</ele>
<time>2022-05-26T12:51:34Z</time>
</trkpt>
<trkpt lat="47.97543" lon="11.184553">
<ele>635.862</ele>
<time>2022-05-26T12:51:35Z</time>
</trkpt>
<trkpt lat="47.975418" lon="11.184519">
<ele>635.862</ele>
<time>2022-05-26T12:51:36Z</time>
</trkpt>
<trkpt lat="47.97541" lon="11.18449">
<ele>636.195</ele>
<time>2022-05-26T12:51:37Z</time>
</trkpt>
<trkpt lat="47.975395" lon="11.184461">
<ele>636.448</ele>
<time>2022-05-26T12:51:38Z</time>
</trkpt>
<trkpt lat="47.975384" lon="11.184433">
<ele>636.645</ele>
<time>2022-05-26T12:51:39Z</time>
</trkpt>
<trkpt lat="47.975365" lon="11.1844">
<ele>636.787</ele>
<time>2022-05-26T12:51:40Z</time>
</trkpt>
<trkpt lat="47.975349" lon="11.184368">
<ele>636.878</ele>
<time>2022-05-26T12:51:41Z</time>
</trkpt>
<trkpt lat="47.975327" lon="11.184335">
<ele>637.187</ele>
<time>2022-05-26T12:51:42Z</time>
</trkpt>
<trkpt lat="47.975307" lon="11.184305">
<ele>637.408</ele>
<time>2022-05-26T12:51:43Z</time>
</trkpt>
<trkpt lat="47.975285" lon="11.184275">
<ele>637.564</ele>
<time>2022-05-26T12:51:44Z</time>
</trkpt>
<trkpt lat="47.975262" lon="11.184249">
<ele>637.66</ele>
<time>2022-05-26T12:51:45Z</time>
</trkpt>
<trkpt lat="47.975246" lon="11.184228">
<ele>637.751</ele>
<time>2022-05-26T12:51:46Z</time>
</trkpt>
<trkpt lat="47.975231" lon="11.18421">
<ele>638.073</ele>
<time>2022-05-26T12:51:47Z</time>
</trkpt>
<trkpt lat="47.97522" lon="11.18419">
<ele>638.314</ele>
<time>2022-05-26T12:51:48Z</time>
</trkpt>
<trkpt lat="47.975201" lon="11.184169">
<ele>638.507</ele>
<time>2022-05-26T12:51:49Z</time>
</trkpt>
<trkpt lat="47.975182" lon="11.184145">
<ele>638.744</ele>
<time>2022-05-26T12:51:50Z</time>
</trkpt>
<trkpt lat="47.975166" lon="11.184121">
<ele>638.834</ele>
<time>2022-05-26T12:51:51Z</time>
</trkpt>
<trkpt lat="47.975147" lon="11.18409">
<ele>638.904</ele>
<time>2022-05-26T12:51:52Z</time>
</trkpt>
<trkpt lat="47.975128" lon="11.184069">
<ele>639.174</ele>
<time>2022-05-26T12:51:53Z</time>
</trkpt>
<trkpt lat="47.975109" lon="11.184045">
<ele>639.395</ele>
<time>2022-05-26T12:51:54Z</time>
</trkpt>
<trkpt lat="47.97509" lon="11.184023">
<ele>639.53</ele>
<time>2022-05-26T12:51:55Z</time>
</trkpt>
<trkpt lat="47.975071" lon="11.184">
<ele>639.66</ele>
<time>2022-05-26T12:51:56Z</time>
</trkpt>
<trkpt lat="47.975056" lon="11.183973">
<ele>640</ele>
<time>2022-05-26T12:51:57Z</time>
</trkpt>
<trkpt lat="47.975037" lon="11.183953">
<ele>640.269</ele>
<time>2022-05-26T12:51:58Z</time>
</trkpt>
<trkpt lat="47.975025" lon="11.183933">
<ele>640.479</ele>
<time>2022-05-26T12:51:59Z</time>
</trkpt>
<trkpt lat="47.97501" lon="11.183911">
<ele>640.597</ele>
<time>2022-05-26T12:52:00Z</time>
</trkpt>
<trkpt lat="47.974995" lon="11.183888">
<ele>641.026</ele>
<time>2022-05-26T12:52:01Z</time>
</trkpt>
<trkpt lat="47.974987" lon="11.183868">
<ele>641.274</ele>
<time>2022-05-26T12:52:02Z</time>
</trkpt>
<trkpt lat="47.974976" lon="11.183853">
<ele>641.449</ele>
<time>2022-05-26T12:52:03Z</time>
</trkpt>
<trkpt lat="47.97496" lon="11.18383">
<ele>641.56</ele>
<time>2022-05-26T12:52:04Z</time>
</trkpt>
<trkpt lat="47.974949" lon="11.183811">
<ele>641.892</ele>
<time>2022-05-26T12:52:05Z</time>
</trkpt>
<trkpt lat="47.97493" lon="11.183795">
<ele>642.215</ele>
<time>2022-05-26T12:52:06Z</time>
</trkpt>
<trkpt lat="47.974911" lon="11.183786">
<ele>642.456</ele>
<time>2022-05-26T12:52:07Z</time>
</trkpt>
<trkpt lat="47.974888" lon="11.183782">
<ele>642.609</ele>
<time>2022-05-26T12:52:08Z</time>
</trkpt>
<trkpt lat="47.974869" lon="11.183775">
<ele>642.98</ele>
<time>2022-05-26T12:52:09Z</time>
</trkpt>
<trkpt lat="47.97485" lon="11.183766">
<ele>643.283</ele>
<time>2022-05-26T12:52:10Z</time>
</trkpt>
<trkpt lat="47.974827" lon="11.183761">
<ele>643.495</ele>
<time>2022-05-26T12:52:11Z</time>
</trkpt>
<trkpt lat="47.974804" lon="11.183762">
<ele>643.635</ele>
<time>2022-05-26T12:52:12Z</time>
</trkpt>
<trkpt lat="47.974785" lon="11.183762">
<ele>643.725</ele>
<time>2022-05-26T12:52:13Z</time>
</trkpt>
<trkpt lat="47.974762" lon="11.183762">
<ele>644.036</ele>
<time>2022-05-26T12:52:14Z</time>
</trkpt>
<trkpt lat="47.974735" lon="11.183765">
<ele>644.252</ele>
<time>2022-05-26T12:52:15Z</time>
</trkpt>
<trkpt lat="47.974712" lon="11.183762">
<ele>644.671</ele>
<time>2022-05-26T12:52:16Z</time>
</trkpt>
<trkpt lat="47.974693" lon="11.183766">
<ele>644.995</ele>
<time>2022-05-26T12:52:17Z</time>
</trkpt>
<trkpt lat="47.97467" lon="11.183775">
<ele>645.204</ele>
<time>2022-05-26T12:52:18Z</time>
</trkpt>
<trkpt lat="47.974648" lon="11.18378">
<ele>645.647</ele>
<time>2022-05-26T12:52:19Z</time>
</trkpt>
<trkpt lat="47.974628" lon="11.183784">
<ele>645.994</ele>
<time>2022-05-26T12:52:20Z</time>
</trkpt>
<trkpt lat="47.974602" lon="11.183788">
<ele>646.212</ele>
<time>2022-05-26T12:52:21Z</time>
</trkpt>
<trkpt lat="47.974583" lon="11.183792">
<ele>646.628</ele>
<time>2022-05-26T12:52:22Z</time>
</trkpt>
<trkpt lat="47.974567" lon="11.183799">
<ele>646.955</ele>
<time>2022-05-26T12:52:23Z</time>
</trkpt>
<trkpt lat="47.974541" lon="11.183805">
<ele>647.172</ele>
<time>2022-05-26T12:52:24Z</time>
</trkpt>
<trkpt lat="47.974522" lon="11.183808">
<ele>647.572</ele>
<time>2022-05-26T12:52:25Z</time>
</trkpt>
<trkpt lat="47.974503" lon="11.183808">
<ele>647.91</ele>
<time>2022-05-26T12:52:26Z</time>
</trkpt>
<trkpt lat="47.974483" lon="11.183815">
<ele>648.134</ele>
<time>2022-05-26T12:52:27Z</time>
</trkpt>
<trkpt lat="47.974464" lon="11.183826">
<ele>648.551</ele>
<time>2022-05-26T12:52:28Z</time>
</trkpt>
<trkpt lat="47.974445" lon="11.183832">
<ele>648.857</ele>
<time>2022-05-26T12:52:29Z</time>
</trkpt>
<trkpt lat="47.974426" lon="11.183838">
<ele>649.095</ele>
<time>2022-05-26T12:52:30Z</time>
</trkpt>
<trkpt lat="47.974403" lon="11.183836">
<ele>649.235</ele>
<time>2022-05-26T12:52:31Z</time>
</trkpt>
<trkpt lat="47.974384" lon="11.183842">
<ele>649.588</ele>
<time>2022-05-26T12:52:32Z</time>
</trkpt>
<trkpt lat="47.974365" lon="11.183845">
<ele>649.906</ele>
<time>2022-05-26T12:52:33Z</time>
</trkpt>
<trkpt lat="47.974342" lon="11.183843">
<ele>650.05</ele>
<time>2022-05-26T12:52:34Z</time>
</trkpt>
<trkpt lat="47.974327" lon="11.183845">
<ele>650.425</ele>
<time>2022-05-26T12:52:35Z</time>
</trkpt>
<trkpt lat="47.974308" lon="11.183842">
<ele>650.734</ele>
<time>2022-05-26T12:52:36Z</time>
</trkpt>
<trkpt lat="47.974285" lon="11.183838">
<ele>650.991</ele>
<time>2022-05-26T12:52:37Z</time>
</trkpt>
<trkpt lat="47.974266" lon="11.183835">
<ele>651.147</ele>
<time>2022-05-26T12:52:38Z</time>
</trkpt>
<trkpt lat="47.974243" lon="11.183828">
<ele>651.503</ele>
<time>2022-05-26T12:52:39Z</time>
</trkpt>
<trkpt lat="47.974224" lon="11.183826">
<ele>651.764</ele>
<time>2022-05-26T12:52:40Z</time>
</trkpt>
<trkpt lat="47.974209" lon="11.183828">
<ele>651.934</ele>
<time>2022-05-26T12:52:41Z</time>
</trkpt>
<trkpt lat="47.974186" lon="11.183838">
<ele>652.328</ele>
<time>2022-05-26T12:52:42Z</time>
</trkpt>
<trkpt lat="47.974171" lon="11.18384">
<ele>652.64</ele>
<time>2022-05-26T12:52:43Z</time>
</trkpt>
<trkpt lat="47.974152" lon="11.18384">
<ele>652.853</ele>
<time>2022-05-26T12:52:44Z</time>
</trkpt>
<trkpt lat="47.974133" lon="11.183853">
<ele>652.992</ele>
<time>2022-05-26T12:52:45Z</time>
</trkpt>
<trkpt lat="47.974117" lon="11.183853">
<ele>653.363</ele>
<time>2022-05-26T12:52:46Z</time>
</trkpt>
<trkpt lat="47.97411" lon="11.183846">
<ele>653.634</ele>
<time>2022-05-26T12:52:47Z</time>
</trkpt>
<trkpt lat="47.974102" lon="11.183836">
<ele>653.845</ele>
<time>2022-05-26T12:52:48Z</time>
</trkpt>
<trkpt lat="47.974098" lon="11.183832">
<ele>653.999</ele>
<time>2022-05-26T12:52:49Z</time>
</trkpt>
<trkpt lat="47.974094" lon="11.183825">
<ele>654.096</ele>
<time>2022-05-26T12:52:50Z</time>
</trkpt>
<trkpt lat="47.974087" lon="11.18382">
<ele>654.186</ele>
<time>2022-05-26T12:52:51Z</time>
</trkpt>
<trkpt lat="47.974072" lon="11.18382">
<ele>654.24</ele>
<time>2022-05-26T12:52:54Z</time>
</trkpt>
<trkpt lat="47.974072" lon="11.183802">
<ele>654.265</ele>
<time>2022-05-26T12:52:55Z</time>
</trkpt>
<trkpt lat="47.974068" lon="11.183797">
<ele>654.265</ele>
<time>2022-05-26T12:52:56Z</time>
</trkpt>
<trkpt lat="47.974056" lon="11.183799">
<ele>654.484</ele>
<time>2022-05-26T12:52:57Z</time>
</trkpt>
<trkpt lat="47.974052" lon="11.183785">
<ele>654.71</ele>
<time>2022-05-26T12:52:58Z</time>
</trkpt>
<trkpt lat="47.974049" lon="11.183778">
<ele>654.89</ele>
<time>2022-05-26T12:52:59Z</time>
</trkpt>
<trkpt lat="47.974045" lon="11.183775">
<ele>654.987</ele>
<time>2022-05-26T12:53:00Z</time>
</trkpt>
<trkpt lat="47.974041" lon="11.183771">
<ele>655.125</ele>
<time>2022-05-26T12:53:02Z</time>
</trkpt>
<trkpt lat="47.974037" lon="11.183773">
<ele>655.198</ele>
<time>2022-05-26T12:53:03Z</time>
</trkpt>
<trkpt lat="47.974033" lon="11.183768">
<ele>655.234</ele>
<time>2022-05-26T12:53:05Z</time>
</trkpt>
<trkpt lat="47.97403" lon="11.183765">
<ele>655.57</ele>
<time>2022-05-26T12:53:07Z</time>
</trkpt>
<trkpt lat="47.97403" lon="11.183766">
<ele>655.717</ele>
<time>2022-05-26T12:53:08Z</time>
</trkpt>
<trkpt lat="47.974007" lon="11.18375">
<ele>655.879</ele>
<time>2022-05-26T12:53:15Z</time>
</trkpt>
<trkpt lat="47.973991" lon="11.183745">
<ele>655.973</ele>
<time>2022-05-26T12:53:16Z</time>
</trkpt>
<trkpt lat="47.973984" lon="11.183737">
<ele>656.425</ele>
<time>2022-05-26T12:53:17Z</time>
</trkpt>
<trkpt lat="47.97398" lon="11.183729">
<ele>656.695</ele>
<time>2022-05-26T12:53:18Z</time>
</trkpt>
<trkpt lat="47.97398" lon="11.183722">
<ele>656.825</ele>
<time>2022-05-26T12:53:19Z</time>
</trkpt>
<trkpt lat="47.97398" lon="11.183712">
<ele>656.926</ele>
<time>2022-05-26T12:53:20Z</time>
</trkpt>
<trkpt lat="47.97398" lon="11.183698">
<ele>656.968</ele>
<time>2022-05-26T12:53:21Z</time>
</trkpt>
<trkpt lat="47.97398" lon="11.183688">
<ele>657.02</ele>
<time>2022-05-26T12:53:22Z</time>
</trkpt>
<trkpt lat="47.97398" lon="11.183677">
<ele>657.034</ele>
<time>2022-05-26T12:53:23Z</time>
</trkpt>
<trkpt lat="47.97398" lon="11.183668">
<ele>657.086</ele>
<time>2022-05-26T12:53:24Z</time>
</trkpt>
<trkpt lat="47.973976" lon="11.183661">
<ele>657.086</ele>
<time>2022-05-26T12:53:25Z</time>
</trkpt>
<trkpt lat="47.973976" lon="11.183657">
<ele>657.086</ele>
<time>2022-05-26T12:53:27Z</time>
</trkpt>
<trkpt lat="47.97398" lon="11.183657">
<ele>657.086</ele>
<time>2022-05-26T12:54:09Z</time>
</trkpt>
<trkpt lat="47.973984" lon="11.183666">
<ele>657.328</ele>
<time>2022-05-26T12:54:10Z</time>
</trkpt>
<trkpt lat="47.973984" lon="11.183672">
<ele>657.533</ele>
<time>2022-05-26T12:54:11Z</time>
</trkpt>
<trkpt lat="47.973988" lon="11.18368">
<ele>657.721</ele>
<time>2022-05-26T12:54:12Z</time>
</trkpt>
<trkpt lat="47.973988" lon="11.18369">
<ele>657.834</ele>
<time>2022-05-26T12:54:13Z</time>
</trkpt>
<trkpt lat="47.973991" lon="11.183702">
<ele>657.961</ele>
<time>2022-05-26T12:54:14Z</time>
</trkpt>
<trkpt lat="47.973995" lon="11.18371">
<ele>658.025</ele>
<time>2022-05-26T12:54:15Z</time>
</trkpt>
<trkpt lat="47.974003" lon="11.183721">
<ele>657.771</ele>
<time>2022-05-26T12:54:16Z</time>
</trkpt>
<trkpt lat="47.974007" lon="11.183731">
<ele>657.58</ele>
<time>2022-05-26T12:54:17Z</time>
</trkpt>
<trkpt lat="47.974014" lon="11.183742">
<ele>657.431</ele>
<time>2022-05-26T12:54:18Z</time>
</trkpt>
<trkpt lat="47.974014" lon="11.183753">
<ele>657.278</ele>
<time>2022-05-26T12:54:19Z</time>
</trkpt>
<trkpt lat="47.974026" lon="11.183759">
<ele>657.208</ele>
<time>2022-05-26T12:54:20Z</time>
</trkpt>
<trkpt lat="47.974033" lon="11.183762">
<ele>657.148</ele>
<time>2022-05-26T12:54:21Z</time>
</trkpt>
<trkpt lat="47.974041" lon="11.183764">
<ele>657.112</ele>
<time>2022-05-26T12:54:22Z</time>
</trkpt>
<trkpt lat="47.974045" lon="11.183765">
<ele>656.855</ele>
<time>2022-05-26T12:54:23Z</time>
</trkpt>
<trkpt lat="47.974049" lon="11.183773">
<ele>656.667</ele>
<time>2022-05-26T12:54:24Z</time>
</trkpt>
<trkpt lat="47.974056" lon="11.18378">
<ele>656.537</ele>
<time>2022-05-26T12:54:25Z</time>
</trkpt>
<trkpt lat="47.974072" lon="11.183784">
<ele>656.394</ele>
<time>2022-05-26T12:54:26Z</time>
</trkpt>
<trkpt lat="47.974079" lon="11.18379">
<ele>656.291</ele>
<time>2022-05-26T12:54:27Z</time>
</trkpt>
<trkpt lat="47.974091" lon="11.183801">
<ele>655.967</ele>
<time>2022-05-26T12:54:28Z</time>
</trkpt>
<trkpt lat="47.974102" lon="11.18381">
<ele>655.711</ele>
<time>2022-05-26T12:54:29Z</time>
</trkpt>
<trkpt lat="47.97411" lon="11.183817">
<ele>655.529</ele>
<time>2022-05-26T12:54:30Z</time>
</trkpt>
<trkpt lat="47.97411" lon="11.183822">
<ele>655.399</ele>
<time>2022-05-26T12:54:31Z</time>
</trkpt>
<trkpt lat="47.974113" lon="11.183826">
<ele>655.338</ele>
<time>2022-05-26T12:54:32Z</time>
</trkpt>
<trkpt lat="47.974117" lon="11.183836">
<ele>655.299</ele>
<time>2022-05-26T12:54:33Z</time>
</trkpt>
<trkpt lat="47.974121" lon="11.183845">
<ele>655.262</ele>
<time>2022-05-26T12:54:34Z</time>
</trkpt>
<trkpt lat="47.974129" lon="11.183857">
<ele>655.235</ele>
<time>2022-05-26T12:54:35Z</time>
</trkpt>
<trkpt lat="47.974133" lon="11.183868">
<ele>655.235</ele>
<time>2022-05-26T12:54:36Z</time>
</trkpt>
<trkpt lat="47.97414" lon="11.183878">
<ele>654.96</ele>
<time>2022-05-26T12:54:37Z</time>
</trkpt>
<trkpt lat="47.974144" lon="11.183882">
<ele>654.717</ele>
<time>2022-05-26T12:54:38Z</time>
</trkpt>
<trkpt lat="47.974152" lon="11.183882">
<ele>654.528</ele>
<time>2022-05-26T12:54:39Z</time>
</trkpt>
<trkpt lat="47.974159" lon="11.18388">
<ele>654.411</ele>
<time>2022-05-26T12:54:40Z</time>
</trkpt>
<trkpt lat="47.974163" lon="11.183882">
<ele>654.287</ele>
<time>2022-05-26T12:54:42Z</time>
</trkpt>
<trkpt lat="47.974167" lon="11.183884">
<ele>654.265</ele>
<time>2022-05-26T12:54:43Z</time>
</trkpt>
<trkpt lat="47.974468" lon="11.183465">
<ele>654.882</ele>
<time>2022-05-26T12:54:51Z</time>
</trkpt>
<trkpt lat="47.974472" lon="11.183467">
<ele>654.882</ele>
<time>2022-05-26T12:54:52Z</time>
</trkpt>
<trkpt lat="47.97448" lon="11.183545">
<ele>654.882</ele>
<time>2022-05-26T12:55:23Z</time>
</trkpt>
<trkpt lat="47.97448" lon="11.18355">
<ele>654.882</ele>
<time>2022-05-26T12:55:24Z</time>
</trkpt>
<trkpt lat="47.97448" lon="11.183552">
<ele>654.882</ele>
<time>2022-05-26T12:55:25Z</time>
</trkpt>
<trkpt lat="47.974483" lon="11.183552">
<ele>654.882</ele>
<time>2022-05-26T12:55:26Z</time>
</trkpt>
<trkpt lat="47.974483" lon="11.183495">
<ele>654.882</ele>
<time>2022-05-26T12:56:04Z</time>
</trkpt>
<trkpt lat="47.974483" lon="11.183496">
<ele>654.882</ele>
<time>2022-05-26T12:56:05Z</time>
</trkpt>
<trkpt lat="47.974487" lon="11.1835">
<ele>654.882</ele>
<time>2022-05-26T12:56:06Z</time>
</trkpt>
<trkpt lat="47.974483" lon="11.183493">
<ele>654.882</ele>
<time>2022-05-26T12:56:07Z</time>
</trkpt>
<trkpt lat="47.974483" lon="11.183467">
<ele>654.882</ele>
<time>2022-05-26T12:57:34Z</time>
</trkpt>
<trkpt lat="47.974487" lon="11.183463">
<ele>654.882</ele>
<time>2022-05-26T12:57:35Z</time>
</trkpt>
<trkpt lat="47.97448" lon="11.183459">
<ele>654.882</ele>
<time>2022-05-26T12:57:36Z</time>
</trkpt>
<trkpt lat="47.97448" lon="11.183458">
<ele>654.882</ele>
<time>2022-05-26T12:57:37Z</time>
</trkpt>
<trkpt lat="47.974457" lon="11.183501">
<ele>654.882</ele>
<time>2022-05-26T12:58:32Z</time>
</trkpt>
<trkpt lat="47.974461" lon="11.1835">
<ele>654.882</ele>
<time>2022-05-26T12:58:34Z</time>
</trkpt>
<trkpt lat="47.974464" lon="11.183503">
<ele>654.882</ele>
<time>2022-05-26T12:58:35Z</time>
</trkpt>
<trkpt lat="47.974461" lon="11.183505">
<ele>654.882</ele>
<time>2022-05-26T12:58:50Z</time>
</trkpt>
<trkpt lat="47.974457" lon="11.183503">
<ele>654.882</ele>
<time>2022-05-26T12:58:53Z</time>
</trkpt>
<trkpt lat="47.974468" lon="11.183512">
<ele>654.882</ele>
<time>2022-05-26T12:59:04Z</time>
</trkpt>
<trkpt lat="47.974464" lon="11.18351">
<ele>654.882</ele>
<time>2022-05-26T12:59:05Z</time>
</trkpt>
<trkpt lat="47.974468" lon="11.183509">
<ele>654.882</ele>
<time>2022-05-26T12:59:06Z</time>
</trkpt>
<trkpt lat="47.974464" lon="11.183509">
<ele>654.882</ele>
<time>2022-05-26T12:59:07Z</time>
</trkpt>
<trkpt lat="47.974472" lon="11.183523">
<ele>654.882</ele>
<time>2022-05-26T12:59:16Z</time>
</trkpt>
<trkpt lat="47.974476" lon="11.183528">
<ele>654.882</ele>
<time>2022-05-26T12:59:17Z</time>
</trkpt>
<trkpt lat="47.974476" lon="11.183526">
<ele>654.882</ele>
<time>2022-05-26T12:59:18Z</time>
</trkpt>
<trkpt lat="47.974472" lon="11.183523">
<ele>654.882</ele>
<time>2022-05-26T12:59:19Z</time>
</trkpt>
<trkpt lat="47.974472" lon="11.18352">
<ele>654.882</ele>
<time>2022-05-26T12:59:20Z</time>
</trkpt>
<trkpt lat="47.974503" lon="11.183512">
<ele>654.882</ele>
<time>2022-05-26T13:00:22Z</time>
</trkpt>
<trkpt lat="47.974503" lon="11.18351">
<ele>654.882</ele>
<time>2022-05-26T13:00:23Z</time>
</trkpt>
<trkpt lat="47.974506" lon="11.183505">
<ele>654.882</ele>
<time>2022-05-26T13:00:24Z</time>
</trkpt>
<trkpt lat="47.974506" lon="11.183503">
<ele>654.882</ele>
<time>2022-05-26T13:00:25Z</time>
</trkpt>
<trkpt lat="47.974503" lon="11.183498">
<ele>654.882</ele>
<time>2022-05-26T13:00:35Z</time>
</trkpt>
<trkpt lat="47.974503" lon="11.183496">
<ele>654.882</ele>
<time>2022-05-26T13:00:36Z</time>
</trkpt>
<trkpt lat="47.974499" lon="11.183496">
<ele>654.882</ele>
<time>2022-05-26T13:00:37Z</time>
</trkpt>
<trkpt lat="47.974499" lon="11.183495">
<ele>654.882</ele>
<time>2022-05-26T13:00:38Z</time>
</trkpt>
<trkpt lat="47.974503" lon="11.18351">
<ele>654.882</ele>
<time>2022-05-26T13:01:08Z</time>
</trkpt>
<trkpt lat="47.974503" lon="11.183514">
<ele>654.882</ele>
<time>2022-05-26T13:01:09Z</time>
</trkpt>
<trkpt lat="47.974503" lon="11.183526">
<ele>654.882</ele>
<time>2022-05-26T13:01:10Z</time>
</trkpt>
<trkpt lat="47.974503" lon="11.18352">
<ele>654.882</ele>
<time>2022-05-26T13:01:11Z</time>
</trkpt>
<trkpt lat="47.974499" lon="11.18358">
<ele>654.882</ele>
<time>2022-05-26T13:01:54Z</time>
</trkpt>
<trkpt lat="47.974503" lon="11.18358">
<ele>654.882</ele>
<time>2022-05-26T13:01:55Z</time>
</trkpt>
<trkpt lat="47.974503" lon="11.183577">
<ele>654.882</ele>
<time>2022-05-26T13:01:56Z</time>
</trkpt>
<trkpt lat="47.974503" lon="11.183575">
<ele>654.882</ele>
<time>2022-05-26T13:01:57Z</time>
</trkpt>
<trkpt lat="47.974503" lon="11.183563">
<ele>654.882</ele>
<time>2022-05-26T13:01:58Z</time>
</trkpt>
<trkpt lat="47.974506" lon="11.183556">
<ele>654.882</ele>
<time>2022-05-26T13:01:59Z</time>
</trkpt>
<trkpt lat="47.974506" lon="11.183549">
<ele>654.882</ele>
<time>2022-05-26T13:02:00Z</time>
</trkpt>
<trkpt lat="47.97451" lon="11.183535">
<ele>654.882</ele>
<time>2022-05-26T13:02:01Z</time>
</trkpt>
<trkpt lat="47.97451" lon="11.183525">
<ele>654.882</ele>
<time>2022-05-26T13:02:02Z</time>
</trkpt>
<trkpt lat="47.974487" lon="11.183512">
<ele>654.882</ele>
<time>2022-05-26T13:02:22Z</time>
</trkpt>
<trkpt lat="47.974491" lon="11.183507">
<ele>654.882</ele>
<time>2022-05-26T13:02:23Z</time>
</trkpt>
<trkpt lat="47.974495" lon="11.183503">
<ele>654.882</ele>
<time>2022-05-26T13:02:24Z</time>
</trkpt>
<trkpt lat="47.974499" lon="11.183501">
<ele>654.882</ele>
<time>2022-05-26T13:02:25Z</time>
</trkpt>
<trkpt lat="47.974503" lon="11.183485">
<ele>654.882</ele>
<time>2022-05-26T13:02:38Z</time>
</trkpt>
<trkpt lat="47.974499" lon="11.183476">
<ele>654.882</ele>
<time>2022-05-26T13:02:39Z</time>
</trkpt>
<trkpt lat="47.974495" lon="11.183467">
<ele>654.882</ele>
<time>2022-05-26T13:02:40Z</time>
</trkpt>
<trkpt lat="47.974499" lon="11.183459">
<ele>654.882</ele>
<time>2022-05-26T13:02:41Z</time>
</trkpt>
<trkpt lat="47.974499" lon="11.183456">
<ele>654.882</ele>
<time>2022-05-26T13:02:42Z</time>
</trkpt>
<trkpt lat="47.974499" lon="11.183452">
<ele>654.882</ele>
<time>2022-05-26T13:02:43Z</time>
</trkpt>
<trkpt lat="47.974503" lon="11.1834">
<ele>654.882</ele>
<time>2022-05-26T13:02:53Z</time>
</trkpt>
<trkpt lat="47.974495" lon="11.183394">
<ele>654.882</ele>
<time>2022-05-26T13:02:54Z</time>
</trkpt>
<trkpt lat="47.974491" lon="11.183403">
<ele>654.882</ele>
<time>2022-05-26T13:02:55Z</time>
</trkpt>
<trkpt lat="47.974491" lon="11.183414">
<ele>654.882</ele>
<time>2022-05-26T13:02:56Z</time>
</trkpt>
<trkpt lat="47.974491" lon="11.183421">
<ele>654.882</ele>
<time>2022-05-26T13:02:57Z</time>
</trkpt>
<trkpt lat="47.974491" lon="11.183412">
<ele>654.882</ele>
<time>2022-05-26T13:02:58Z</time>
</trkpt>
<trkpt lat="47.97448" lon="11.183468">
<ele>654.882</ele>
<time>2022-05-26T13:03:20Z</time>
</trkpt>
<trkpt lat="47.974476" lon="11.183475">
<ele>654.882</ele>
<time>2022-05-26T13:03:21Z</time>
</trkpt>
<trkpt lat="47.974476" lon="11.183484">
<ele>654.882</ele>
<time>2022-05-26T13:03:22Z</time>
</trkpt>
<trkpt lat="47.974472" lon="11.183485">
<ele>654.882</ele>
<time>2022-05-26T13:03:24Z</time>
</trkpt>
<trkpt lat="47.974472" lon="11.18349">
<ele>654.882</ele>
<time>2022-05-26T13:03:25Z</time>
</trkpt>
<trkpt lat="47.974483" lon="11.183535">
<ele>654.882</ele>
<time>2022-05-26T13:04:41Z</time>
</trkpt>
<trkpt lat="47.974487" lon="11.183535">
<ele>654.882</ele>
<time>2022-05-26T13:04:42Z</time>
</trkpt>
<trkpt lat="47.974487" lon="11.183537">
<ele>654.882</ele>
<time>2022-05-26T13:04:44Z</time>
</trkpt>
<trkpt lat="47.97448" lon="11.183547">
<ele>654.882</ele>
<time>2022-05-26T13:04:55Z</time>
</trkpt>
<trkpt lat="47.974483" lon="11.183549">
<ele>654.882</ele>
<time>2022-05-26T13:04:56Z</time>
</trkpt>
<trkpt lat="47.974483" lon="11.18355">
<ele>654.882</ele>
<time>2022-05-26T13:04:57Z</time>
</trkpt>
<trkpt lat="47.974483" lon="11.183552">
<ele>654.882</ele>
<time>2022-05-26T13:05:20Z</time>
</trkpt>
<trkpt lat="47.97448" lon="11.183545">
<ele>654.882</ele>
<time>2022-05-26T13:05:21Z</time>
</trkpt>
<trkpt lat="47.97448" lon="11.183554">
<ele>654.882</ele>
<time>2022-05-26T13:05:22Z</time>
</trkpt>
<trkpt lat="47.974476" lon="11.18355">
<ele>654.882</ele>
<time>2022-05-26T13:05:23Z</time>
</trkpt>
<trkpt lat="47.974483" lon="11.183525">
<ele>654.882</ele>
<time>2022-05-26T13:05:29Z</time>
</trkpt>
<trkpt lat="47.974483" lon="11.183518">
<ele>654.882</ele>
<time>2022-05-26T13:05:30Z</time>
</trkpt>
<trkpt lat="47.97448" lon="11.183509">
<ele>654.882</ele>
<time>2022-05-26T13:05:31Z</time>
</trkpt>
<trkpt lat="47.97448" lon="11.1835">
<ele>654.882</ele>
<time>2022-05-26T13:05:32Z</time>
</trkpt>
<trkpt lat="47.974483" lon="11.183492">
<ele>654.882</ele>
<time>2022-05-26T13:05:33Z</time>
</trkpt>
<trkpt lat="47.974483" lon="11.183484">
<ele>654.882</ele>
<time>2022-05-26T13:05:34Z</time>
</trkpt>
<trkpt lat="47.974483" lon="11.183476">
<ele>654.882</ele>
<time>2022-05-26T13:05:35Z</time>
</trkpt>
<trkpt lat="47.974483" lon="11.183468">
<ele>654.882</ele>
<time>2022-05-26T13:05:36Z</time>
</trkpt>
<trkpt lat="47.97448" lon="11.183465">
<ele>654.882</ele>
<time>2022-05-26T13:05:37Z</time>
</trkpt>
<trkpt lat="47.974483" lon="11.183463">
<ele>654.882</ele>
<time>2022-05-26T13:05:38Z</time>
</trkpt>
<trkpt lat="47.974483" lon="11.18347">
<ele>654.882</ele>
<time>2022-05-26T13:05:39Z</time>
</trkpt>
<trkpt lat="47.974487" lon="11.183456">
<ele>654.882</ele>
<time>2022-05-26T13:05:40Z</time>
</trkpt>
<trkpt lat="47.974503" lon="11.183452">
<ele>654.882</ele>
<time>2022-05-26T13:06:00Z</time>
</trkpt>
<trkpt lat="47.974506" lon="11.183452">
<ele>654.882</ele>
<time>2022-05-26T13:06:01Z</time>
</trkpt>
<trkpt lat="47.97451" lon="11.183452">
<ele>654.882</ele>
<time>2022-05-26T13:06:02Z</time>
</trkpt>
<trkpt lat="47.974518" lon="11.183452">
<ele>654.882</ele>
<time>2022-05-26T13:06:04Z</time>
</trkpt>
<trkpt lat="47.974522" lon="11.183451">
<ele>654.882</ele>
<time>2022-05-26T13:06:05Z</time>
</trkpt>
<trkpt lat="47.974503" lon="11.183447">
<ele>654.882</ele>
<time>2022-05-26T13:06:11Z</time>
</trkpt>
<trkpt lat="47.974503" lon="11.183451">
<ele>654.882</ele>
<time>2022-05-26T13:06:12Z</time>
</trkpt>
<trkpt lat="47.974503" lon="11.183456">
<ele>654.882</ele>
<time>2022-05-26T13:06:13Z</time>
</trkpt>
<trkpt lat="47.974499" lon="11.183465">
<ele>654.882</ele>
<time>2022-05-26T13:06:14Z</time>
</trkpt>
<trkpt lat="47.974495" lon="11.183482">
<ele>654.882</ele>
<time>2022-05-26T13:06:16Z</time>
</trkpt>
<trkpt lat="47.974487" lon="11.183493">
<ele>654.882</ele>
<time>2022-05-26T13:06:17Z</time>
</trkpt>
<trkpt lat="47.974487" lon="11.183501">
<ele>654.882</ele>
<time>2022-05-26T13:06:18Z</time>
</trkpt>
<trkpt lat="47.974487" lon="11.1835">
<ele>654.882</ele>
<time>2022-05-26T13:06:19Z</time>
</trkpt>
<trkpt lat="47.974487" lon="11.183505">
<ele>654.882</ele>
<time>2022-05-26T13:06:20Z</time>
</trkpt>
<trkpt lat="47.974491" lon="11.183509">
<ele>654.882</ele>
<time>2022-05-26T13:06:21Z</time>
</trkpt>
<trkpt lat="47.974483" lon="11.183501">
<ele>654.882</ele>
<time>2022-05-26T13:06:23Z</time>
</trkpt>
<trkpt lat="47.974476" lon="11.183498">
<ele>654.882</ele>
<time>2022-05-26T13:06:24Z</time>
</trkpt>
<trkpt lat="47.974476" lon="11.183496">
<ele>654.882</ele>
<time>2022-05-26T13:06:25Z</time>
</trkpt>
<trkpt lat="47.974472" lon="11.183495">
<ele>654.882</ele>
<time>2022-05-26T13:06:26Z</time>
</trkpt>
<trkpt lat="47.974472" lon="11.183493">
<ele>654.882</ele>
<time>2022-05-26T13:06:27Z</time>
</trkpt>
<trkpt lat="47.974468" lon="11.183493">
<ele>654.882</ele>
<time>2022-05-26T13:06:28Z</time>
</trkpt>
<trkpt lat="47.974472" lon="11.18349">
<ele>654.882</ele>
<time>2022-05-26T13:06:32Z</time>
</trkpt>
<trkpt lat="47.974472" lon="11.183488">
<ele>654.882</ele>
<time>2022-05-26T13:06:33Z</time>
</trkpt>
<trkpt lat="47.974468" lon="11.18349">
<ele>654.882</ele>
<time>2022-05-26T13:06:34Z</time>
</trkpt>
<trkpt lat="47.974461" lon="11.183459">
<ele>654.882</ele>
<time>2022-05-26T13:07:10Z</time>
</trkpt>
<trkpt lat="47.974464" lon="11.183465">
<ele>654.882</ele>
<time>2022-05-26T13:07:12Z</time>
</trkpt>
<trkpt lat="47.974461" lon="11.183463">
<ele>654.882</ele>
<time>2022-05-26T13:07:13Z</time>
</trkpt>
<trkpt lat="47.974461" lon="11.183461">
<ele>654.882</ele>
<time>2022-05-26T13:07:14Z</time>
</trkpt>
<trkpt lat="47.974461" lon="11.183459">
<ele>654.882</ele>
<time>2022-05-26T13:07:15Z</time>
</trkpt>
<trkpt lat="47.974449" lon="11.183476">
<ele>654.882</ele>
<time>2022-05-26T13:07:25Z</time>
</trkpt>
<trkpt lat="47.974445" lon="11.183474">
<ele>654.882</ele>
<time>2022-05-26T13:07:26Z</time>
</trkpt>
<trkpt lat="47.974438" lon="11.18347">
<ele>654.882</ele>
<time>2022-05-26T13:07:27Z</time>
</trkpt>
<trkpt lat="47.974442" lon="11.18347">
<ele>654.882</ele>
<time>2022-05-26T13:07:28Z</time>
</trkpt>
<trkpt lat="47.974445" lon="11.18348">
<ele>654.882</ele>
<time>2022-05-26T13:07:52Z</time>
</trkpt>
<trkpt lat="47.974445" lon="11.183476">
<ele>654.882</ele>
<time>2022-05-26T13:07:53Z</time>
</trkpt>
<trkpt lat="47.974442" lon="11.183474">
<ele>654.882</ele>
<time>2022-05-26T13:07:55Z</time>
</trkpt>
<trkpt lat="47.974442" lon="11.18348">
<ele>654.882</ele>
<time>2022-05-26T13:07:56Z</time>
</trkpt>
<trkpt lat="47.974438" lon="11.18348">
<ele>654.882</ele>
<time>2022-05-26T13:07:57Z</time>
</trkpt>
<trkpt lat="47.974434" lon="11.183482">
<ele>654.882</ele>
<time>2022-05-26T13:07:58Z</time>
</trkpt>
<trkpt lat="47.974438" lon="11.183485">
<ele>654.882</ele>
<time>2022-05-26T13:08:00Z</time>
</trkpt>
<trkpt lat="47.974442" lon="11.183485">
<ele>654.882</ele>
<time>2022-05-26T13:08:01Z</time>
</trkpt>
<trkpt lat="47.974491" lon="11.183476">
<ele>654.882</ele>
<time>2022-05-26T13:08:54Z</time>
</trkpt>
<trkpt lat="47.974491" lon="11.183474">
<ele>654.882</ele>
<time>2022-05-26T13:08:55Z</time>
</trkpt>
<trkpt lat="47.974491" lon="11.183461">
<ele>654.882</ele>
<time>2022-05-26T13:08:56Z</time>
</trkpt>
<trkpt lat="47.974491" lon="11.183465">
<ele>654.882</ele>
<time>2022-05-26T13:08:57Z</time>
</trkpt>
<trkpt lat="47.974487" lon="11.183488">
<ele>654.882</ele>
<time>2022-05-26T13:09:02Z</time>
</trkpt>
<trkpt lat="47.974487" lon="11.183492">
<ele>654.882</ele>
<time>2022-05-26T13:09:03Z</time>
</trkpt>
<trkpt lat="47.974487" lon="11.183498">
<ele>654.882</ele>
<time>2022-05-26T13:09:04Z</time>
</trkpt>
<trkpt lat="47.974487" lon="11.183495">
<ele>654.882</ele>
<time>2022-05-26T13:09:05Z</time>
</trkpt>
<trkpt lat="47.974491" lon="11.183501">
<ele>654.882</ele>
<time>2022-05-26T13:09:06Z</time>
</trkpt>
<trkpt lat="47.974491" lon="11.183505">
<ele>654.882</ele>
<time>2022-05-26T13:09:07Z</time>
</trkpt>
<trkpt lat="47.974476" lon="11.183495">
<ele>654.882</ele>
<time>2022-05-26T13:09:20Z</time>
</trkpt>
<trkpt lat="47.974476" lon="11.183503">
<ele>654.882</ele>
<time>2022-05-26T13:09:21Z</time>
</trkpt>
<trkpt lat="47.974476" lon="11.1835">
<ele>654.882</ele>
<time>2022-05-26T13:09:22Z</time>
</trkpt>
<trkpt lat="47.974476" lon="11.183498">
<ele>654.882</ele>
<time>2022-05-26T13:09:23Z</time>
</trkpt>
<trkpt lat="47.974483" lon="11.183512">
<ele>654.882</ele>
<time>2022-05-26T13:09:24Z</time>
</trkpt>
<trkpt lat="47.974495" lon="11.183488">
<ele>654.882</ele>
<time>2022-05-26T13:09:25Z</time>
</trkpt>
<trkpt lat="47.974499" lon="11.18349">
<ele>654.882</ele>
<time>2022-05-26T13:09:26Z</time>
</trkpt>
<trkpt lat="47.974499" lon="11.183493">
<ele>654.882</ele>
<time>2022-05-26T13:09:27Z</time>
</trkpt>
<trkpt lat="47.97451" lon="11.183517">
<ele>654.882</ele>
<time>2022-05-26T13:09:29Z</time>
</trkpt>
<trkpt lat="47.974514" lon="11.183516">
<ele>654.882</ele>
<time>2022-05-26T13:09:30Z</time>
</trkpt>
<trkpt lat="47.974525" lon="11.183516">
<ele>654.882</ele>
<time>2022-05-26T13:09:31Z</time>
</trkpt>
<trkpt lat="47.974522" lon="11.183514">
<ele>654.882</ele>
<time>2022-05-26T13:09:32Z</time>
</trkpt>
<trkpt lat="47.974518" lon="11.183512">
<ele>654.882</ele>
<time>2022-05-26T13:09:33Z</time>
</trkpt>
<trkpt lat="47.974522" lon="11.183517">
<ele>654.882</ele>
<time>2022-05-26T13:09:34Z</time>
</trkpt>
<trkpt lat="47.974518" lon="11.183518">
<ele>654.882</ele>
<time>2022-05-26T13:09:35Z</time>
</trkpt>
<trkpt lat="47.974514" lon="11.183496">
<ele>654.882</ele>
<time>2022-05-26T13:09:38Z</time>
</trkpt>
<trkpt lat="47.974514" lon="11.183493">
<ele>654.882</ele>
<time>2022-05-26T13:09:39Z</time>
</trkpt>
<trkpt lat="47.974518" lon="11.183488">
<ele>654.882</ele>
<time>2022-05-26T13:09:40Z</time>
</trkpt>
<trkpt lat="47.974522" lon="11.183493">
<ele>654.882</ele>
<time>2022-05-26T13:09:41Z</time>
</trkpt>
<trkpt lat="47.974522" lon="11.183492">
<ele>654.882</ele>
<time>2022-05-26T13:09:42Z</time>
</trkpt>
<trkpt lat="47.974518" lon="11.183484">
<ele>654.882</ele>
<time>2022-05-26T13:09:43Z</time>
</trkpt>
<trkpt lat="47.974522" lon="11.183488">
<ele>654.882</ele>
<time>2022-05-26T13:09:44Z</time>
</trkpt>
<trkpt lat="47.974533" lon="11.1835">
<ele>654.882</ele>
<time>2022-05-26T13:09:53Z</time>
</trkpt>
<trkpt lat="47.974533" lon="11.183493">
<ele>654.882</ele>
<time>2022-05-26T13:09:54Z</time>
</trkpt>
<trkpt lat="47.974533" lon="11.183496">
<ele>654.882</ele>
<time>2022-05-26T13:09:55Z</time>
</trkpt>
<trkpt lat="47.974533" lon="11.183501">
<ele>654.882</ele>
<time>2022-05-26T13:09:56Z</time>
</trkpt>
<trkpt lat="47.974525" lon="11.183505">
<ele>654.882</ele>
<time>2022-05-26T13:09:57Z</time>
</trkpt>
<trkpt lat="47.974522" lon="11.183507">
<ele>654.882</ele>
<time>2022-05-26T13:09:58Z</time>
</trkpt>
<trkpt lat="47.974522" lon="11.183512">
<ele>654.882</ele>
<time>2022-05-26T13:09:59Z</time>
</trkpt>
<trkpt lat="47.97451" lon="11.183516">
<ele>654.882</ele>
<time>2022-05-26T13:10:00Z</time>
</trkpt>
<trkpt lat="47.97451" lon="11.183518">
<ele>654.882</ele>
<time>2022-05-26T13:10:01Z</time>
</trkpt>
<trkpt lat="47.974503" lon="11.183512">
<ele>654.882</ele>
<time>2022-05-26T13:10:02Z</time>
</trkpt>
<trkpt lat="47.974506" lon="11.18352">
<ele>654.882</ele>
<time>2022-05-26T13:10:03Z</time>
</trkpt>
<trkpt lat="47.974503" lon="11.183558">
<ele>654.882</ele>
<time>2022-05-26T13:10:17Z</time>
</trkpt>
<trkpt lat="47.974499" lon="11.183559">
<ele>654.882</ele>
<time>2022-05-26T13:10:18Z</time>
</trkpt>
<trkpt lat="47.974491" lon="11.183561">
<ele>654.882</ele>
<time>2022-05-26T13:10:19Z</time>
</trkpt>
<trkpt lat="47.974487" lon="11.183563">
<ele>654.882</ele>
<time>2022-05-26T13:10:20Z</time>
</trkpt>
<trkpt lat="47.974491" lon="11.18357">
<ele>654.882</ele>
<time>2022-05-26T13:10:21Z</time>
</trkpt>
<trkpt lat="47.974491" lon="11.183574">
<ele>654.882</ele>
<time>2022-05-26T13:10:22Z</time>
</trkpt>
<trkpt lat="47.974483" lon="11.183537">
<ele>654.882</ele>
<time>2022-05-26T13:10:42Z</time>
</trkpt>
<trkpt lat="47.974483" lon="11.183533">
<ele>654.882</ele>
<time>2022-05-26T13:10:43Z</time>
</trkpt>
<trkpt lat="47.97448" lon="11.18353">
<ele>654.882</ele>
<time>2022-05-26T13:10:44Z</time>
</trkpt>
<trkpt lat="47.97448" lon="11.183537">
<ele>654.882</ele>
<time>2022-05-26T13:10:45Z</time>
</trkpt>
<trkpt lat="47.974483" lon="11.183541">
<ele>654.882</ele>
<time>2022-05-26T13:10:46Z</time>
</trkpt>
<trkpt lat="47.974483" lon="11.183538">
<ele>654.882</ele>
<time>2022-05-26T13:10:47Z</time>
</trkpt>
<trkpt lat="47.974487" lon="11.183547">
<ele>654.882</ele>
<time>2022-05-26T13:10:48Z</time>
</trkpt>
<trkpt lat="47.97448" lon="11.18354">
<ele>654.882</ele>
<time>2022-05-26T13:10:49Z</time>
</trkpt>
<trkpt lat="47.97448" lon="11.183533">
<ele>654.882</ele>
<time>2022-05-26T13:10:50Z</time>
</trkpt>
<trkpt lat="47.97448" lon="11.183525">
<ele>654.882</ele>
<time>2022-05-26T13:10:51Z</time>
</trkpt>
<trkpt lat="47.974483" lon="11.18353">
<ele>654.882</ele>
<time>2022-05-26T13:10:53Z</time>
</trkpt>
<trkpt lat="47.974483" lon="11.183528">
<ele>654.882</ele>
<time>2022-05-26T13:10:54Z</time>
</trkpt>
<trkpt lat="47.97448" lon="11.183525">
<ele>654.882</ele>
<time>2022-05-26T13:10:55Z</time>
</trkpt>
<trkpt lat="47.97448" lon="11.183522">
<ele>654.882</ele>
<time>2022-05-26T13:10:56Z</time>
</trkpt>
<trkpt lat="47.97448" lon="11.183523">
<ele>654.882</ele>
<time>2022-05-26T13:10:57Z</time>
</trkpt>
<trkpt lat="47.974483" lon="11.18352">
<ele>654.882</ele>
<time>2022-05-26T13:10:58Z</time>
</trkpt>
<trkpt lat="47.974487" lon="11.183453">
<ele>654.882</ele>
<time>2022-05-26T13:11:39Z</time>
</trkpt>
<trkpt lat="47.974491" lon="11.183445">
<ele>654.882</ele>
<time>2022-05-26T13:11:40Z</time>
</trkpt>
<trkpt lat="47.974487" lon="11.183451">
<ele>654.882</ele>
<time>2022-05-26T13:11:41Z</time>
</trkpt>
<trkpt lat="47.974487" lon="11.183447">
<ele>654.882</ele>
<time>2022-05-26T13:11:42Z</time>
</trkpt>
<trkpt lat="47.974491" lon="11.183442">
<ele>654.882</ele>
<time>2022-05-26T13:11:43Z</time>
</trkpt>
<trkpt lat="47.974499" lon="11.183452">
<ele>654.882</ele>
<time>2022-05-26T13:11:44Z</time>
</trkpt>
<trkpt lat="47.974499" lon="11.183451">
<ele>654.882</ele>
<time>2022-05-26T13:11:45Z</time>
</trkpt>
<trkpt lat="47.974499" lon="11.183458">
<ele>654.882</ele>
<time>2022-05-26T13:11:46Z</time>
</trkpt>
<trkpt lat="47.974487" lon="11.18349">
<ele>654.882</ele>
<time>2022-05-26T13:12:08Z</time>
</trkpt>
<trkpt lat="47.974487" lon="11.183501">
<ele>654.882</ele>
<time>2022-05-26T13:12:09Z</time>
</trkpt>
<trkpt lat="47.974483" lon="11.183509">
<ele>654.882</ele>
<time>2022-05-26T13:12:10Z</time>
</trkpt>
<trkpt lat="47.974483" lon="11.18352">
<ele>654.882</ele>
<time>2022-05-26T13:12:11Z</time>
</trkpt>
<trkpt lat="47.974487" lon="11.183525">
<ele>654.882</ele>
<time>2022-05-26T13:12:12Z</time>
</trkpt>
<trkpt lat="47.974487" lon="11.18352">
<ele>654.882</ele>
<time>2022-05-26T13:12:13Z</time>
</trkpt>
<trkpt lat="47.974491" lon="11.183518">
<ele>654.882</ele>
<time>2022-05-26T13:12:14Z</time>
</trkpt>
<trkpt lat="47.974522" lon="11.183453">
<ele>654.882</ele>
<time>2022-05-26T13:12:24Z</time>
</trkpt>
<trkpt lat="47.974529" lon="11.183447">
<ele>654.882</ele>
<time>2022-05-26T13:12:25Z</time>
</trkpt>
<trkpt lat="47.974533" lon="11.18343">
<ele>654.882</ele>
<time>2022-05-26T13:12:26Z</time>
</trkpt>
<trkpt lat="47.974533" lon="11.183423">
<ele>654.882</ele>
<time>2022-05-26T13:12:27Z</time>
</trkpt>
<trkpt lat="47.974533" lon="11.183425">
<ele>654.882</ele>
<time>2022-05-26T13:12:28Z</time>
</trkpt>
<trkpt lat="47.974525" lon="11.183442">
<ele>654.882</ele>
<time>2022-05-26T13:12:29Z</time>
</trkpt>
<trkpt lat="47.974495" lon="11.183447">
<ele>654.882</ele>
<time>2022-05-26T13:12:34Z</time>
</trkpt>
<trkpt lat="47.974491" lon="11.183449">
<ele>654.882</ele>
<time>2022-05-26T13:12:35Z</time>
</trkpt>
<trkpt lat="47.974487" lon="11.183456">
<ele>654.882</ele>
<time>2022-05-26T13:12:36Z</time>
</trkpt>
<trkpt lat="47.974491" lon="11.183456">
<ele>654.882</ele>
<time>2022-05-26T13:12:37Z</time>
</trkpt>
<trkpt lat="47.97448" lon="11.183443">
<ele>654.882</ele>
<time>2022-05-26T13:12:40Z</time>
</trkpt>
<trkpt lat="47.97448" lon="11.183445">
<ele>654.882</ele>
<time>2022-05-26T13:12:41Z</time>
</trkpt>
<trkpt lat="47.97448" lon="11.183443">
<ele>654.882</ele>
<time>2022-05-26T13:12:42Z</time>
</trkpt>
<trkpt lat="47.974483" lon="11.183442">
<ele>654.882</ele>
<time>2022-05-26T13:12:43Z</time>
</trkpt>
<trkpt lat="47.97448" lon="11.18344">
<ele>654.882</ele>
<time>2022-05-26T13:12:44Z</time>
</trkpt>
<trkpt lat="47.974438" lon="11.183423">
<ele>654.882</ele>
<time>2022-05-26T13:13:31Z</time>
</trkpt>
<trkpt lat="47.974438" lon="11.183434">
<ele>654.882</ele>
<time>2022-05-26T13:13:32Z</time>
</trkpt>
<trkpt lat="47.974438" lon="11.183451">
<ele>654.882</ele>
<time>2022-05-26T13:13:33Z</time>
</trkpt>
<trkpt lat="47.974438" lon="11.183453">
<ele>654.882</ele>
<time>2022-05-26T13:13:34Z</time>
</trkpt>
<trkpt lat="47.974449" lon="11.183482">
<ele>654.882</ele>
<time>2022-05-26T13:13:43Z</time>
</trkpt>
<trkpt lat="47.974449" lon="11.18348">
<ele>654.882</ele>
<time>2022-05-26T13:13:44Z</time>
</trkpt>
<trkpt lat="47.974449" lon="11.183482">
<ele>654.882</ele>
<time>2022-05-26T13:13:45Z</time>
</trkpt>
<trkpt lat="47.974453" lon="11.183482">
<ele>654.882</ele>
<time>2022-05-26T13:13:46Z</time>
</trkpt>
<trkpt lat="47.974457" lon="11.18349">
<ele>654.882</ele>
<time>2022-05-26T13:13:49Z</time>
</trkpt>
<trkpt lat="47.974453" lon="11.18349">
<ele>654.882</ele>
<time>2022-05-26T13:13:50Z</time>
</trkpt>
<trkpt lat="47.974464" lon="11.183472">
<ele>654.882</ele>
<time>2022-05-26T13:13:51Z</time>
</trkpt>
<trkpt lat="47.974468" lon="11.183459">
<ele>654.882</ele>
<time>2022-05-26T13:13:52Z</time>
</trkpt>
<trkpt lat="47.974468" lon="11.183452">
<ele>654.882</ele>
<time>2022-05-26T13:13:53Z</time>
</trkpt>
<trkpt lat="47.974472" lon="11.183447">
<ele>654.882</ele>
<time>2022-05-26T13:13:54Z</time>
</trkpt>
<trkpt lat="47.974468" lon="11.183442">
<ele>654.882</ele>
<time>2022-05-26T13:13:55Z</time>
</trkpt>
<trkpt lat="47.974468" lon="11.18343">
<ele>654.882</ele>
<time>2022-05-26T13:13:56Z</time>
</trkpt>
<trkpt lat="47.974464" lon="11.183421">
<ele>654.882</ele>
<time>2022-05-26T13:13:57Z</time>
</trkpt>
<trkpt lat="47.974457" lon="11.183428">
<ele>654.882</ele>
<time>2022-05-26T13:13:58Z</time>
</trkpt>
<trkpt lat="47.974461" lon="11.18343">
<ele>654.882</ele>
<time>2022-05-26T13:13:59Z</time>
</trkpt>
<trkpt lat="47.974457" lon="11.18343">
<ele>654.882</ele>
<time>2022-05-26T13:14:00Z</time>
</trkpt>
<trkpt lat="47.974445" lon="11.183432">
<ele>654.882</ele>
<time>2022-05-26T13:14:02Z</time>
</trkpt>
<trkpt lat="47.974442" lon="11.183432">
<ele>654.882</ele>
<time>2022-05-26T13:14:03Z</time>
</trkpt>
<trkpt lat="47.974445" lon="11.18343">
<ele>654.882</ele>
<time>2022-05-26T13:14:04Z</time>
</trkpt>
<trkpt lat="47.974472" lon="11.183442">
<ele>654.882</ele>
<time>2022-05-26T13:14:42Z</time>
</trkpt>
<trkpt lat="47.974476" lon="11.183442">
<ele>654.882</ele>
<time>2022-05-26T13:14:43Z</time>
</trkpt>
<trkpt lat="47.974483" lon="11.18344">
<ele>654.882</ele>
<time>2022-05-26T13:14:44Z</time>
</trkpt>
<trkpt lat="47.974483" lon="11.183434">
<ele>654.882</ele>
<time>2022-05-26T13:14:45Z</time>
</trkpt>
<trkpt lat="47.97448" lon="11.18343">
<ele>654.882</ele>
<time>2022-05-26T13:14:46Z</time>
</trkpt>
<trkpt lat="47.974487" lon="11.183434">
<ele>654.882</ele>
<time>2022-05-26T13:14:47Z</time>
</trkpt>
<trkpt lat="47.974483" lon="11.183421">
<ele>654.882</ele>
<time>2022-05-26T13:15:00Z</time>
</trkpt>
<trkpt lat="47.974483" lon="11.183418">
<ele>654.882</ele>
<time>2022-05-26T13:15:01Z</time>
</trkpt>
<trkpt lat="47.974487" lon="11.183427">
<ele>654.882</ele>
<time>2022-05-26T13:15:02Z</time>
</trkpt>
<trkpt lat="47.974491" lon="11.183428">
<ele>654.882</ele>
<time>2022-05-26T13:15:03Z</time>
</trkpt>
<trkpt lat="47.974468" lon="11.183458">
<ele>654.882</ele>
<time>2022-05-26T13:16:36Z</time>
</trkpt>
<trkpt lat="47.974464" lon="11.183455">
<ele>654.882</ele>
<time>2022-05-26T13:16:37Z</time>
</trkpt>
<trkpt lat="47.974464" lon="11.183443">
<ele>654.882</ele>
<time>2022-05-26T13:16:38Z</time>
</trkpt>
<trkpt lat="47.974461" lon="11.183442">
<ele>654.882</ele>
<time>2022-05-26T13:16:39Z</time>
</trkpt>
<trkpt lat="47.974461" lon="11.183447">
<ele>654.882</ele>
<time>2022-05-26T13:16:40Z</time>
</trkpt>
<trkpt lat="47.974461" lon="11.183427">
<ele>654.882</ele>
<time>2022-05-26T13:17:10Z</time>
</trkpt>
<trkpt lat="47.974468" lon="11.183438">
<ele>654.882</ele>
<time>2022-05-26T13:17:11Z</time>
</trkpt>
<trkpt lat="47.974468" lon="11.183445">
<ele>654.882</ele>
<time>2022-05-26T13:17:12Z</time>
</trkpt>
<trkpt lat="47.974468" lon="11.183442">
<ele>654.882</ele>
<time>2022-05-26T13:17:14Z</time>
</trkpt>
<trkpt lat="47.974464" lon="11.183442">
<ele>654.882</ele>
<time>2022-05-26T13:17:15Z</time>
</trkpt>
<trkpt lat="47.974468" lon="11.183458">
<ele>654.882</ele>
<time>2022-05-26T13:17:16Z</time>
</trkpt>
<trkpt lat="47.974464" lon="11.183447">
<ele>654.882</ele>
<time>2022-05-26T13:17:19Z</time>
</trkpt>
<trkpt lat="47.974468" lon="11.183438">
<ele>654.882</ele>
<time>2022-05-26T13:17:20Z</time>
</trkpt>
<trkpt lat="47.974468" lon="11.183432">
<ele>654.882</ele>
<time>2022-05-26T13:17:21Z</time>
</trkpt>
<trkpt lat="47.974472" lon="11.183428">
<ele>654.882</ele>
<time>2022-05-26T13:17:22Z</time>
</trkpt>
<trkpt lat="47.974472" lon="11.183419">
<ele>654.882</ele>
<time>2022-05-26T13:17:23Z</time>
</trkpt>
<trkpt lat="47.974457" lon="11.183396">
<ele>654.882</ele>
<time>2022-05-26T13:17:34Z</time>
</trkpt>
<trkpt lat="47.974453" lon="11.183398">
<ele>654.882</ele>
<time>2022-05-26T13:17:35Z</time>
</trkpt>
<trkpt lat="47.974453" lon="11.18337">
<ele>654.882</ele>
<time>2022-05-26T13:17:36Z</time>
</trkpt>
<trkpt lat="47.974449" lon="11.18337">
<ele>654.882</ele>
<time>2022-05-26T13:17:37Z</time>
</trkpt>
<trkpt lat="47.974468" lon="11.183405">
<ele>654.882</ele>
<time>2022-05-26T13:17:59Z</time>
</trkpt>
<trkpt lat="47.974468" lon="11.183403">
<ele>654.882</ele>
<time>2022-05-26T13:18:00Z</time>
</trkpt>
<trkpt lat="47.974464" lon="11.183398">
<ele>654.882</ele>
<time>2022-05-26T13:18:01Z</time>
</trkpt>
<trkpt lat="47.974453" lon="11.183392">
<ele>654.882</ele>
<time>2022-05-26T13:18:02Z</time>
</trkpt>
<trkpt lat="47.974445" lon="11.18339">
<ele>654.882</ele>
<time>2022-05-26T13:18:03Z</time>
</trkpt>
<trkpt lat="47.974442" lon="11.183403">
<ele>654.882</ele>
<time>2022-05-26T13:18:04Z</time>
</trkpt>
<trkpt lat="47.974442" lon="11.183411">
<ele>654.882</ele>
<time>2022-05-26T13:18:05Z</time>
</trkpt>
<trkpt lat="47.974438" lon="11.183423">
<ele>654.882</ele>
<time>2022-05-26T13:18:06Z</time>
</trkpt>
<trkpt lat="47.974442" lon="11.183436">
<ele>654.882</ele>
<time>2022-05-26T13:18:07Z</time>
</trkpt>
<trkpt lat="47.974442" lon="11.183451">
<ele>654.882</ele>
<time>2022-05-26T13:18:08Z</time>
</trkpt>
<trkpt lat="47.974438" lon="11.183458">
<ele>654.882</ele>
<time>2022-05-26T13:18:09Z</time>
</trkpt>
<trkpt lat="47.974438" lon="11.18347">
<ele>654.882</ele>
<time>2022-05-26T13:18:10Z</time>
</trkpt>
<trkpt lat="47.974434" lon="11.18348">
<ele>654.882</ele>
<time>2022-05-26T13:18:11Z</time>
</trkpt>
<trkpt lat="47.97443" lon="11.183484">
<ele>654.882</ele>
<time>2022-05-26T13:18:12Z</time>
</trkpt>
<trkpt lat="47.974434" lon="11.183496">
<ele>654.882</ele>
<time>2022-05-26T13:18:13Z</time>
</trkpt>
<trkpt lat="47.97443" lon="11.18349">
<ele>654.882</ele>
<time>2022-05-26T13:18:14Z</time>
</trkpt>
<trkpt lat="47.97443" lon="11.183485">
<ele>654.882</ele>
<time>2022-05-26T13:18:15Z</time>
</trkpt>
<trkpt lat="47.974434" lon="11.183482">
<ele>654.882</ele>
<time>2022-05-26T13:18:16Z</time>
</trkpt>
<trkpt lat="47.974468" lon="11.183459">
<ele>654.882</ele>
<time>2022-05-26T13:18:52Z</time>
</trkpt>
<trkpt lat="47.974472" lon="11.183459">
<ele>654.882</ele>
<time>2022-05-26T13:18:53Z</time>
</trkpt>
<trkpt lat="47.97448" lon="11.183456">
<ele>654.882</ele>
<time>2022-05-26T13:18:54Z</time>
</trkpt>
<trkpt lat="47.97448" lon="11.183461">
<ele>654.882</ele>
<time>2022-05-26T13:18:55Z</time>
</trkpt>
<trkpt lat="47.974483" lon="11.183458">
<ele>654.882</ele>
<time>2022-05-26T13:18:56Z</time>
</trkpt>
<trkpt lat="47.974461" lon="11.183383">
<ele>654.882</ele>
<time>2022-05-26T13:19:54Z</time>
</trkpt>
<trkpt lat="47.974461" lon="11.18338">
<ele>654.882</ele>
<time>2022-05-26T13:19:55Z</time>
</trkpt>
<trkpt lat="47.974461" lon="11.183378">
<ele>654.882</ele>
<time>2022-05-26T13:19:56Z</time>
</trkpt>
<trkpt lat="47.974464" lon="11.183377">
<ele>654.882</ele>
<time>2022-05-26T13:19:57Z</time>
</trkpt>
<trkpt lat="47.974438" lon="11.183388">
<ele>654.882</ele>
<time>2022-05-26T13:21:31Z</time>
</trkpt>
<trkpt lat="47.974438" lon="11.183387">
<ele>654.882</ele>
<time>2022-05-26T13:21:32Z</time>
</trkpt>
<trkpt lat="47.974434" lon="11.183388">
<ele>654.882</ele>
<time>2022-05-26T13:21:33Z</time>
</trkpt>
<trkpt lat="47.974434" lon="11.183396">
<ele>654.882</ele>
<time>2022-05-26T13:21:34Z</time>
</trkpt>
<trkpt lat="47.974426" lon="11.183415">
<ele>654.882</ele>
<time>2022-05-26T13:21:35Z</time>
</trkpt>
<trkpt lat="47.974426" lon="11.183443">
<ele>654.882</ele>
<time>2022-05-26T13:21:36Z</time>
</trkpt>
<trkpt lat="47.974426" lon="11.183458">
<ele>654.882</ele>
<time>2022-05-26T13:21:37Z</time>
</trkpt>
<trkpt lat="47.974434" lon="11.183478">
<ele>654.882</ele>
<time>2022-05-26T13:21:38Z</time>
</trkpt>
<trkpt lat="47.974438" lon="11.183488">
<ele>654.882</ele>
<time>2022-05-26T13:21:39Z</time>
</trkpt>
<trkpt lat="47.974438" lon="11.183492">
<ele>654.882</ele>
<time>2022-05-26T13:21:40Z</time>
</trkpt>
<trkpt lat="47.974438" lon="11.183495">
<ele>654.882</ele>
<time>2022-05-26T13:21:41Z</time>
</trkpt>
<trkpt lat="47.974438" lon="11.183492">
<ele>654.882</ele>
<time>2022-05-26T13:21:42Z</time>
</trkpt>
<trkpt lat="47.97443" lon="11.183459">
<ele>654.882</ele>
<time>2022-05-26T13:21:45Z</time>
</trkpt>
<trkpt lat="47.974422" lon="11.183468">
<ele>654.882</ele>
<time>2022-05-26T13:21:46Z</time>
</trkpt>
<trkpt lat="47.974422" lon="11.183463">
<ele>654.882</ele>
<time>2022-05-26T13:21:47Z</time>
</trkpt>
<trkpt lat="47.974419" lon="11.183458">
<ele>654.882</ele>
<time>2022-05-26T13:21:48Z</time>
</trkpt>
<trkpt lat="47.974419" lon="11.183459">
<ele>654.882</ele>
<time>2022-05-26T13:21:50Z</time>
</trkpt>
<trkpt lat="47.974403" lon="11.183461">
<ele>654.882</ele>
<time>2022-05-26T13:21:53Z</time>
</trkpt>
<trkpt lat="47.974396" lon="11.183459">
<ele>654.882</ele>
<time>2022-05-26T13:21:54Z</time>
</trkpt>
<trkpt lat="47.974384" lon="11.183456">
<ele>654.882</ele>
<time>2022-05-26T13:21:55Z</time>
</trkpt>
<trkpt lat="47.974373" lon="11.183461">
<ele>654.882</ele>
<time>2022-05-26T13:21:56Z</time>
</trkpt>
<trkpt lat="47.974361" lon="11.183474">
<ele>654.882</ele>
<time>2022-05-26T13:21:57Z</time>
</trkpt>
<trkpt lat="47.974354" lon="11.183476">
<ele>654.882</ele>
<time>2022-05-26T13:21:58Z</time>
</trkpt>
<trkpt lat="47.974346" lon="11.18348">
<ele>654.882</ele>
<time>2022-05-26T13:21:59Z</time>
</trkpt>
<trkpt lat="47.974339" lon="11.18348">
<ele>654.882</ele>
<time>2022-05-26T13:22:00Z</time>
</trkpt>
<trkpt lat="47.974331" lon="11.183485">
<ele>654.882</ele>
<time>2022-05-26T13:22:01Z</time>
</trkpt>
<trkpt lat="47.974323" lon="11.183482">
<ele>654.882</ele>
<time>2022-05-26T13:22:02Z</time>
</trkpt>
<trkpt lat="47.974312" lon="11.183475">
<ele>654.882</ele>
<time>2022-05-26T13:22:03Z</time>
</trkpt>
<trkpt lat="47.974304" lon="11.183474">
<ele>654.882</ele>
<time>2022-05-26T13:22:04Z</time>
</trkpt>
<trkpt lat="47.974297" lon="11.183493">
<ele>654.882</ele>
<time>2022-05-26T13:22:05Z</time>
</trkpt>
<trkpt lat="47.974289" lon="11.183503">
<ele>654.882</ele>
<time>2022-05-26T13:22:06Z</time>
</trkpt>
<trkpt lat="47.974277" lon="11.183501">
<ele>654.882</ele>
<time>2022-05-26T13:22:07Z</time>
</trkpt>
<trkpt lat="47.974266" lon="11.183509">
<ele>654.882</ele>
<time>2022-05-26T13:22:08Z</time>
</trkpt>
<trkpt lat="47.974258" lon="11.183532">
<ele>654.882</ele>
<time>2022-05-26T13:22:09Z</time>
</trkpt>
<trkpt lat="47.974255" lon="11.183541">
<ele>654.882</ele>
<time>2022-05-26T13:22:10Z</time>
</trkpt>
<trkpt lat="47.974247" lon="11.183543">
<ele>654.882</ele>
<time>2022-05-26T13:22:11Z</time>
</trkpt>
<trkpt lat="47.974228" lon="11.183541">
<ele>654.882</ele>
<time>2022-05-26T13:22:12Z</time>
</trkpt>
<trkpt lat="47.974216" lon="11.183541">
<ele>654.882</ele>
<time>2022-05-26T13:22:13Z</time>
</trkpt>
<trkpt lat="47.974205" lon="11.183545">
<ele>654.882</ele>
<time>2022-05-26T13:22:14Z</time>
</trkpt>
<trkpt lat="47.974194" lon="11.183556">
<ele>654.882</ele>
<time>2022-05-26T13:22:15Z</time>
</trkpt>
<trkpt lat="47.97419" lon="11.183568">
<ele>654.882</ele>
<time>2022-05-26T13:22:16Z</time>
</trkpt>
<trkpt lat="47.974186" lon="11.183582">
<ele>654.882</ele>
<time>2022-05-26T13:22:17Z</time>
</trkpt>
<trkpt lat="47.974174" lon="11.183587">
<ele>654.882</ele>
<time>2022-05-26T13:22:18Z</time>
</trkpt>
<trkpt lat="47.974159" lon="11.183593">
<ele>654.882</ele>
<time>2022-05-26T13:22:19Z</time>
</trkpt>
<trkpt lat="47.974091" lon="11.183575">
<ele>654.882</ele>
<time>2022-05-26T13:22:20Z</time>
</trkpt>
<trkpt lat="47.974079" lon="11.183572">
<ele>654.882</ele>
<time>2022-05-26T13:22:21Z</time>
</trkpt>
<trkpt lat="47.97411" lon="11.183589">
<ele>654.882</ele>
<time>2022-05-26T13:22:22Z</time>
</trkpt>
<trkpt lat="47.974129" lon="11.183599">
<ele>654.882</ele>
<time>2022-05-26T13:22:23Z</time>
</trkpt>
<trkpt lat="47.97414" lon="11.183608">
<ele>654.882</ele>
<time>2022-05-26T13:22:24Z</time>
</trkpt>
<trkpt lat="47.974144" lon="11.183622">
<ele>654.882</ele>
<time>2022-05-26T13:22:25Z</time>
</trkpt>
<trkpt lat="47.97414" lon="11.183631">
<ele>654.882</ele>
<time>2022-05-26T13:22:26Z</time>
</trkpt>
<trkpt lat="47.974144" lon="11.183639">
<ele>654.882</ele>
<time>2022-05-26T13:22:27Z</time>
</trkpt>
<trkpt lat="47.974144" lon="11.18364">
<ele>654.882</ele>
<time>2022-05-26T13:22:28Z</time>
</trkpt>
<trkpt lat="47.974144" lon="11.183643">
<ele>654.882</ele>
<time>2022-05-26T13:22:29Z</time>
</trkpt>
<trkpt lat="47.974117" lon="11.183661">
<ele>654.882</ele>
<time>2022-05-26T13:22:36Z</time>
</trkpt>
<trkpt lat="47.974121" lon="11.183666">
<ele>654.882</ele>
<time>2022-05-26T13:22:37Z</time>
</trkpt>
<trkpt lat="47.974129" lon="11.183673">
<ele>654.882</ele>
<time>2022-05-26T13:22:38Z</time>
</trkpt>
<trkpt lat="47.974129" lon="11.18368">
<ele>654.882</ele>
<time>2022-05-26T13:22:39Z</time>
</trkpt>
<trkpt lat="47.974133" lon="11.183683">
<ele>654.882</ele>
<time>2022-05-26T13:22:40Z</time>
</trkpt>
<trkpt lat="47.974133" lon="11.183692">
<ele>654.882</ele>
<time>2022-05-26T13:22:41Z</time>
</trkpt>
<trkpt lat="47.974133" lon="11.183698">
<ele>654.882</ele>
<time>2022-05-26T13:22:42Z</time>
</trkpt>
<trkpt lat="47.974129" lon="11.183702">
<ele>654.882</ele>
<time>2022-05-26T13:22:43Z</time>
</trkpt>
<trkpt lat="47.974133" lon="11.1837">
<ele>654.882</ele>
<time>2022-05-26T13:22:44Z</time>
</trkpt>
<trkpt lat="47.974136" lon="11.183698">
<ele>654.882</ele>
<time>2022-05-26T13:22:45Z</time>
</trkpt>
<trkpt lat="47.97414" lon="11.183702">
<ele>654.882</ele>
<time>2022-05-26T13:22:46Z</time>
</trkpt>
<trkpt lat="47.974144" lon="11.183702">
<ele>654.882</ele>
<time>2022-05-26T13:22:47Z</time>
</trkpt>
<trkpt lat="47.974144" lon="11.183703">
<ele>654.882</ele>
<time>2022-05-26T13:22:48Z</time>
</trkpt>
<trkpt lat="47.974148" lon="11.18371">
<ele>654.882</ele>
<time>2022-05-26T13:22:49Z</time>
</trkpt>
<trkpt lat="47.974148" lon="11.183712">
<ele>654.882</ele>
<time>2022-05-26T13:22:50Z</time>
</trkpt>
<trkpt lat="47.974152" lon="11.183715">
<ele>654.882</ele>
<time>2022-05-26T13:22:51Z</time>
</trkpt>
<trkpt lat="47.974148" lon="11.183725">
<ele>654.882</ele>
<time>2022-05-26T13:22:52Z</time>
</trkpt>
<trkpt lat="47.974113" lon="11.183722">
<ele>654.882</ele>
<time>2022-05-26T13:22:53Z</time>
</trkpt>
<trkpt lat="47.974106" lon="11.183729">
<ele>654.882</ele>
<time>2022-05-26T13:22:54Z</time>
</trkpt>
<trkpt lat="47.974098" lon="11.183778">
<ele>654.882</ele>
<time>2022-05-26T13:23:18Z</time>
</trkpt>
<trkpt lat="47.974094" lon="11.183782">
<ele>654.882</ele>
<time>2022-05-26T13:23:19Z</time>
</trkpt>
<trkpt lat="47.974091" lon="11.183778">
<ele>654.882</ele>
<time>2022-05-26T13:23:20Z</time>
</trkpt>
<trkpt lat="47.974087" lon="11.18378">
<ele>654.882</ele>
<time>2022-05-26T13:23:21Z</time>
</trkpt>
<trkpt lat="47.974091" lon="11.183777">
<ele>654.882</ele>
<time>2022-05-26T13:23:22Z</time>
</trkpt>
<trkpt lat="47.974094" lon="11.183771">
<ele>654.882</ele>
<time>2022-05-26T13:23:23Z</time>
</trkpt>
<trkpt lat="47.974117" lon="11.183764">
<ele>654.882</ele>
<time>2022-05-26T13:23:45Z</time>
</trkpt>
<trkpt lat="47.974117" lon="11.183757">
<ele>654.882</ele>
<time>2022-05-26T13:23:46Z</time>
</trkpt>
<trkpt lat="47.974117" lon="11.183755">
<ele>654.882</ele>
<time>2022-05-26T13:23:47Z</time>
</trkpt>
<trkpt lat="47.974113" lon="11.183762">
<ele>654.882</ele>
<time>2022-05-26T13:23:48Z</time>
</trkpt>
<trkpt lat="47.974106" lon="11.183782">
<ele>654.882</ele>
<time>2022-05-26T13:23:49Z</time>
</trkpt>
<trkpt lat="47.974094" lon="11.183806">
<ele>654.882</ele>
<time>2022-05-26T13:23:50Z</time>
</trkpt>
<trkpt lat="47.974091" lon="11.183822">
<ele>654.882</ele>
<time>2022-05-26T13:23:51Z</time>
</trkpt>
<trkpt lat="47.974098" lon="11.183836">
<ele>654.882</ele>
<time>2022-05-26T13:23:52Z</time>
</trkpt>
<trkpt lat="47.974098" lon="11.183848">
<ele>654.882</ele>
<time>2022-05-26T13:23:53Z</time>
</trkpt>
<trkpt lat="47.974125" lon="11.183916">
<ele>654.882</ele>
<time>2022-05-26T13:23:54Z</time>
</trkpt>
<trkpt lat="47.974133" lon="11.183918">
<ele>654.882</ele>
<time>2022-05-26T13:23:55Z</time>
</trkpt>
<trkpt lat="47.97414" lon="11.183924">
<ele>654.882</ele>
<time>2022-05-26T13:23:56Z</time>
</trkpt>
<trkpt lat="47.974144" lon="11.183915">
<ele>654.882</ele>
<time>2022-05-26T13:23:57Z</time>
</trkpt>
<trkpt lat="47.974144" lon="11.183928">
<ele>654.882</ele>
<time>2022-05-26T13:23:58Z</time>
</trkpt>
<trkpt lat="47.974144" lon="11.183924">
<ele>654.882</ele>
<time>2022-05-26T13:23:59Z</time>
</trkpt>
<trkpt lat="47.974174" lon="11.183832">
<ele>654.882</ele>
<time>2022-05-26T13:27:22Z</time>
</trkpt>
<trkpt lat="47.974174" lon="11.183822">
<ele>654.882</ele>
<time>2022-05-26T13:27:23Z</time>
</trkpt>
<trkpt lat="47.974174" lon="11.183813">
<ele>654.882</ele>
<time>2022-05-26T13:27:24Z</time>
</trkpt>
<trkpt lat="47.974174" lon="11.18381">
<ele>654.882</ele>
<time>2022-05-26T13:27:25Z</time>
</trkpt>
<trkpt lat="47.974178" lon="11.183803">
<ele>654.882</ele>
<time>2022-05-26T13:27:26Z</time>
</trkpt>
<trkpt lat="47.974178" lon="11.183802">
<ele>654.882</ele>
<time>2022-05-26T13:27:27Z</time>
</trkpt>
<trkpt lat="47.974178" lon="11.183799">
<ele>654.882</ele>
<time>2022-05-26T13:27:28Z</time>
</trkpt>
<trkpt lat="47.974182" lon="11.183797">
<ele>654.882</ele>
<time>2022-05-26T13:27:29Z</time>
</trkpt>
<trkpt lat="47.974182" lon="11.183799">
<ele>654.882</ele>
<time>2022-05-26T13:27:30Z</time>
</trkpt>
<trkpt lat="47.974197" lon="11.183797">
<ele>654.882</ele>
<time>2022-05-26T13:27:39Z</time>
</trkpt>
<trkpt lat="47.974216" lon="11.183806">
<ele>654.882</ele>
<time>2022-05-26T13:27:40Z</time>
</trkpt>
<trkpt lat="47.974243" lon="11.183813">
<ele>654.882</ele>
<time>2022-05-26T13:27:41Z</time>
</trkpt>
<trkpt lat="47.974274" lon="11.18382">
<ele>654.882</ele>
<time>2022-05-26T13:27:42Z</time>
</trkpt>
<trkpt lat="47.974308" lon="11.183822">
<ele>654.882</ele>
<time>2022-05-26T13:27:43Z</time>
</trkpt>
<trkpt lat="47.974342" lon="11.183825">
<ele>654.882</ele>
<time>2022-05-26T13:27:44Z</time>
</trkpt>
<trkpt lat="47.974373" lon="11.183826">
<ele>654.882</ele>
<time>2022-05-26T13:27:45Z</time>
</trkpt>
<trkpt lat="47.974403" lon="11.183834">
<ele>654.882</ele>
<time>2022-05-26T13:27:46Z</time>
</trkpt>
<trkpt lat="47.974434" lon="11.183832">
<ele>654.882</ele>
<time>2022-05-26T13:27:47Z</time>
</trkpt>
<trkpt lat="47.974464" lon="11.183828">
<ele>654.882</ele>
<time>2022-05-26T13:27:48Z</time>
</trkpt>
<trkpt lat="47.974495" lon="11.183828">
<ele>654.882</ele>
<time>2022-05-26T13:27:49Z</time>
</trkpt>
<trkpt lat="47.974525" lon="11.183825">
<ele>654.882</ele>
<time>2022-05-26T13:27:50Z</time>
</trkpt>
<trkpt lat="47.974556" lon="11.183826">
<ele>654.882</ele>
<time>2022-05-26T13:27:51Z</time>
</trkpt>
<trkpt lat="47.974598" lon="11.183835">
<ele>654.882</ele>
<time>2022-05-26T13:27:52Z</time>
</trkpt>
<trkpt lat="47.974632" lon="11.183825">
<ele>654.882</ele>
<time>2022-05-26T13:27:53Z</time>
</trkpt>
<trkpt lat="47.974667" lon="11.183824">
<ele>654.882</ele>
<time>2022-05-26T13:27:54Z</time>
</trkpt>
<trkpt lat="47.974701" lon="11.183817">
<ele>654.882</ele>
<time>2022-05-26T13:27:55Z</time>
</trkpt>
<trkpt lat="47.974735" lon="11.18382">
<ele>654.882</ele>
<time>2022-05-26T13:27:56Z</time>
</trkpt>
<trkpt lat="47.97477" lon="11.183819">
<ele>654.882</ele>
<time>2022-05-26T13:27:57Z</time>
</trkpt>
<trkpt lat="47.9748" lon="11.183808">
<ele>654.882</ele>
<time>2022-05-26T13:27:58Z</time>
</trkpt>
<trkpt lat="47.974827" lon="11.183794">
<ele>654.882</ele>
<time>2022-05-26T13:27:59Z</time>
</trkpt>
<trkpt lat="47.974846" lon="11.183784">
<ele>654.882</ele>
<time>2022-05-26T13:28:00Z</time>
</trkpt>
<trkpt lat="47.974857" lon="11.183775">
<ele>654.882</ele>
<time>2022-05-26T13:28:01Z</time>
</trkpt>
<trkpt lat="47.974861" lon="11.183768">
<ele>654.882</ele>
<time>2022-05-26T13:28:02Z</time>
</trkpt>
<trkpt lat="47.974861" lon="11.183765">
<ele>654.882</ele>
<time>2022-05-26T13:28:03Z</time>
</trkpt>
<trkpt lat="47.974861" lon="11.183759">
<ele>654.882</ele>
<time>2022-05-26T13:28:04Z</time>
</trkpt>
<trkpt lat="47.974884" lon="11.183753">
<ele>654.882</ele>
<time>2022-05-26T13:29:12Z</time>
</trkpt>
<trkpt lat="47.974899" lon="11.183771">
<ele>654.882</ele>
<time>2022-05-26T13:29:13Z</time>
</trkpt>
<trkpt lat="47.974922" lon="11.183797">
<ele>654.882</ele>
<time>2022-05-26T13:29:14Z</time>
</trkpt>
<trkpt lat="47.974937" lon="11.183825">
<ele>654.882</ele>
<time>2022-05-26T13:29:15Z</time>
</trkpt>
<trkpt lat="47.974953" lon="11.183855">
<ele>654.882</ele>
<time>2022-05-26T13:29:16Z</time>
</trkpt>
<trkpt lat="47.974964" lon="11.183887">
<ele>654.882</ele>
<time>2022-05-26T13:29:17Z</time>
</trkpt>
<trkpt lat="47.974998" lon="11.183925">
<ele>654.882</ele>
<time>2022-05-26T13:29:18Z</time>
</trkpt>
<trkpt lat="47.975025" lon="11.18396">
<ele>654.882</ele>
<time>2022-05-26T13:29:19Z</time>
</trkpt>
<trkpt lat="47.975052" lon="11.183997">
<ele>654.882</ele>
<time>2022-05-26T13:29:20Z</time>
</trkpt>
<trkpt lat="47.975075" lon="11.184031">
<ele>654.882</ele>
<time>2022-05-26T13:29:21Z</time>
</trkpt>
<trkpt lat="47.975101" lon="11.184067">
<ele>654.882</ele>
<time>2022-05-26T13:29:22Z</time>
</trkpt>
<trkpt lat="47.975132" lon="11.184105">
<ele>654.882</ele>
<time>2022-05-26T13:29:23Z</time>
</trkpt>
<trkpt lat="47.975163" lon="11.184145">
<ele>654.57</ele>
<time>2022-05-26T13:29:24Z</time>
</trkpt>
<trkpt lat="47.975193" lon="11.184182">
<ele>654.353</ele>
<time>2022-05-26T13:29:25Z</time>
</trkpt>
<trkpt lat="47.975224" lon="11.184217">
<ele>654.229</ele>
<time>2022-05-26T13:29:26Z</time>
</trkpt>
<trkpt lat="47.975239" lon="11.184247">
<ele>653.807</ele>
<time>2022-05-26T13:29:27Z</time>
</trkpt>
<trkpt lat="47.975254" lon="11.184277">
<ele>653.498</ele>
<time>2022-05-26T13:29:28Z</time>
</trkpt>
<trkpt lat="47.975273" lon="11.184303">
<ele>653.304</ele>
<time>2022-05-26T13:29:29Z</time>
</trkpt>
<trkpt lat="47.975288" lon="11.18433">
<ele>652.92</ele>
<time>2022-05-26T13:29:30Z</time>
</trkpt>
<trkpt lat="47.9753" lon="11.184354">
<ele>652.657</ele>
<time>2022-05-26T13:29:31Z</time>
</trkpt>
<trkpt lat="47.975319" lon="11.184377">
<ele>652.44</ele>
<time>2022-05-26T13:29:32Z</time>
</trkpt>
<trkpt lat="47.975338" lon="11.1844">
<ele>652.013</ele>
<time>2022-05-26T13:29:33Z</time>
</trkpt>
<trkpt lat="47.975361" lon="11.184428">
<ele>651.654</ele>
<time>2022-05-26T13:29:34Z</time>
</trkpt>
<trkpt lat="47.975384" lon="11.184461">
<ele>651.408</ele>
<time>2022-05-26T13:29:35Z</time>
</trkpt>
<trkpt lat="47.975418" lon="11.184495">
<ele>650.925</ele>
<time>2022-05-26T13:29:36Z</time>
</trkpt>
<trkpt lat="47.975437" lon="11.184528">
<ele>650.552</ele>
<time>2022-05-26T13:29:37Z</time>
</trkpt>
<trkpt lat="47.975445" lon="11.184559">
<ele>650.291</ele>
<time>2022-05-26T13:29:38Z</time>
</trkpt>
<trkpt lat="47.975449" lon="11.184584">
<ele>650.111</ele>
<time>2022-05-26T13:29:39Z</time>
</trkpt>
<trkpt lat="47.975452" lon="11.184609">
<ele>650.005</ele>
<time>2022-05-26T13:29:40Z</time>
</trkpt>
<trkpt lat="47.975464" lon="11.184642">
<ele>649.942</ele>
<time>2022-05-26T13:29:41Z</time>
</trkpt>
<trkpt lat="47.975479" lon="11.184678">
<ele>649.699</ele>
<time>2022-05-26T13:29:42Z</time>
</trkpt>
<trkpt lat="47.975487" lon="11.184718">
<ele>649.474</ele>
<time>2022-05-26T13:29:43Z</time>
</trkpt>
<trkpt lat="47.975487" lon="11.184758">
<ele>649.303</ele>
<time>2022-05-26T13:29:44Z</time>
</trkpt>
<trkpt lat="47.975483" lon="11.184807">
<ele>649.137</ele>
<time>2022-05-26T13:29:45Z</time>
</trkpt>
<trkpt lat="47.975487" lon="11.184854">
<ele>649.019</ele>
<time>2022-05-26T13:29:46Z</time>
</trkpt>
<trkpt lat="47.975491" lon="11.1849">
<ele>648.947</ele>
<time>2022-05-26T13:29:47Z</time>
</trkpt>
<trkpt lat="47.975487" lon="11.18494">
<ele>648.912</ele>
<time>2022-05-26T13:29:48Z</time>
</trkpt>
<trkpt lat="47.975479" lon="11.184993">
<ele>648.895</ele>
<time>2022-05-26T13:29:49Z</time>
</trkpt>
<trkpt lat="47.975468" lon="11.185041">
<ele>648.622</ele>
<time>2022-05-26T13:29:50Z</time>
</trkpt>
<trkpt lat="47.975452" lon="11.185091">
<ele>648.406</ele>
<time>2022-05-26T13:29:51Z</time>
</trkpt>
<trkpt lat="47.975441" lon="11.185131">
<ele>648.265</ele>
<time>2022-05-26T13:29:52Z</time>
</trkpt>
<trkpt lat="47.975418" lon="11.185173">
<ele>648.117</ele>
<time>2022-05-26T13:29:53Z</time>
</trkpt>
<trkpt lat="47.975403" lon="11.185212">
<ele>647.998</ele>
<time>2022-05-26T13:29:54Z</time>
</trkpt>
<trkpt lat="47.975384" lon="11.185246">
<ele>647.914</ele>
<time>2022-05-26T13:29:55Z</time>
</trkpt>
<trkpt lat="47.975361" lon="11.185278">
<ele>647.861</ele>
<time>2022-05-26T13:29:56Z</time>
</trkpt>
<trkpt lat="47.97533" lon="11.185311">
<ele>647.839</ele>
<time>2022-05-26T13:29:57Z</time>
</trkpt>
<trkpt lat="47.9753" lon="11.185333">
<ele>647.839</ele>
<time>2022-05-26T13:29:58Z</time>
</trkpt>
<trkpt lat="47.975258" lon="11.185347">
<ele>647.839</ele>
<time>2022-05-26T13:29:59Z</time>
</trkpt>
<trkpt lat="47.97522" lon="11.185351">
<ele>647.839</ele>
<time>2022-05-26T13:30:00Z</time>
</trkpt>
<trkpt lat="47.975185" lon="11.185342">
<ele>647.839</ele>
<time>2022-05-26T13:30:01Z</time>
</trkpt>
<trkpt lat="47.975143" lon="11.185332">
<ele>647.839</ele>
<time>2022-05-26T13:30:02Z</time>
</trkpt>
<trkpt lat="47.975101" lon="11.185324">
<ele>647.839</ele>
<time>2022-05-26T13:30:03Z</time>
</trkpt>
<trkpt lat="47.97506" lon="11.185309">
<ele>647.839</ele>
<time>2022-05-26T13:30:04Z</time>
</trkpt>
<trkpt lat="47.975021" lon="11.185292">
<ele>647.839</ele>
<time>2022-05-26T13:30:05Z</time>
</trkpt>
<trkpt lat="47.974979" lon="11.185275">
<ele>647.839</ele>
<time>2022-05-26T13:30:06Z</time>
</trkpt>
<trkpt lat="47.974937" lon="11.185253">
<ele>647.839</ele>
<time>2022-05-26T13:30:07Z</time>
</trkpt>
<trkpt lat="47.974895" lon="11.185231">
<ele>648.099</ele>
<time>2022-05-26T13:30:08Z</time>
</trkpt>
<trkpt lat="47.974857" lon="11.185213">
<ele>648.304</ele>
<time>2022-05-26T13:30:09Z</time>
</trkpt>
<trkpt lat="47.974812" lon="11.185196">
<ele>648.452</ele>
<time>2022-05-26T13:30:10Z</time>
</trkpt>
<trkpt lat="47.974762" lon="11.185184">
<ele>648.542</ele>
<time>2022-05-26T13:30:11Z</time>
</trkpt>
<trkpt lat="47.97472" lon="11.185175">
<ele>648.845</ele>
<time>2022-05-26T13:30:12Z</time>
</trkpt>
<trkpt lat="47.974674" lon="11.185168">
<ele>649.114</ele>
<time>2022-05-26T13:30:13Z</time>
</trkpt>
<trkpt lat="47.974628" lon="11.185163">
<ele>649.32</ele>
<time>2022-05-26T13:30:14Z</time>
</trkpt>
<trkpt lat="47.974586" lon="11.185157">
<ele>649.466</ele>
<time>2022-05-26T13:30:15Z</time>
</trkpt>
<trkpt lat="47.974541" lon="11.185155">
<ele>649.559</ele>
<time>2022-05-26T13:30:16Z</time>
</trkpt>
<trkpt lat="47.974499" lon="11.185157">
<ele>649.624</ele>
<time>2022-05-26T13:30:17Z</time>
</trkpt>
<trkpt lat="47.974453" lon="11.185155">
<ele>649.662</ele>
<time>2022-05-26T13:30:18Z</time>
</trkpt>
<trkpt lat="47.974407" lon="11.185155">
<ele>649.921</ele>
<time>2022-05-26T13:30:19Z</time>
</trkpt>
<trkpt lat="47.974365" lon="11.185157">
<ele>650.13</ele>
<time>2022-05-26T13:30:20Z</time>
</trkpt>
<trkpt lat="47.974316" lon="11.185158">
<ele>650.282</ele>
<time>2022-05-26T13:30:21Z</time>
</trkpt>
<trkpt lat="47.97427" lon="11.185158">
<ele>650.388</ele>
<time>2022-05-26T13:30:22Z</time>
</trkpt>
<trkpt lat="47.97422" lon="11.185157">
<ele>650.502</ele>
<time>2022-05-26T13:30:23Z</time>
</trkpt>
<trkpt lat="47.974174" lon="11.185152">
<ele>650.582</ele>
<time>2022-05-26T13:30:24Z</time>
</trkpt>
<trkpt lat="47.974125" lon="11.185147">
<ele>650.632</ele>
<time>2022-05-26T13:30:25Z</time>
</trkpt>
<trkpt lat="47.974083" lon="11.185143">
<ele>650.656</ele>
<time>2022-05-26T13:30:26Z</time>
</trkpt>
<trkpt lat="47.974041" lon="11.185143">
<ele>650.656</ele>
<time>2022-05-26T13:30:27Z</time>
</trkpt>
<trkpt lat="47.973995" lon="11.185148">
<ele>650.656</ele>
<time>2022-05-26T13:30:28Z</time>
</trkpt>
<trkpt lat="47.973949" lon="11.185152">
<ele>650.656</ele>
<time>2022-05-26T13:30:29Z</time>
</trkpt>
<trkpt lat="47.973907" lon="11.185147">
<ele>650.656</ele>
<time>2022-05-26T13:30:30Z</time>
</trkpt>
<trkpt lat="47.973862" lon="11.185145">
<ele>650.656</ele>
<time>2022-05-26T13:30:31Z</time>
</trkpt>
<trkpt lat="47.973816" lon="11.185145">
<ele>650.656</ele>
<time>2022-05-26T13:30:32Z</time>
</trkpt>
<trkpt lat="47.97377" lon="11.18515">
<ele>650.656</ele>
<time>2022-05-26T13:30:33Z</time>
</trkpt>
<trkpt lat="47.973724" lon="11.18515">
<ele>650.656</ele>
<time>2022-05-26T13:30:34Z</time>
</trkpt>
<trkpt lat="47.973682" lon="11.18515">
<ele>650.656</ele>
<time>2022-05-26T13:30:35Z</time>
</trkpt>
<trkpt lat="47.973637" lon="11.185148">
<ele>650.656</ele>
<time>2022-05-26T13:30:36Z</time>
</trkpt>
<trkpt lat="47.973595" lon="11.18515">
<ele>650.656</ele>
<time>2022-05-26T13:30:37Z</time>
</trkpt>
<trkpt lat="47.973557" lon="11.185154">
<ele>650.656</ele>
<time>2022-05-26T13:30:38Z</time>
</trkpt>
<trkpt lat="47.973518" lon="11.18515">
<ele>650.415</ele>
<time>2022-05-26T13:30:39Z</time>
</trkpt>
<trkpt lat="47.973476" lon="11.185142">
<ele>650.226</ele>
<time>2022-05-26T13:30:40Z</time>
</trkpt>
<trkpt lat="47.973431" lon="11.18513">
<ele>650.073</ele>
<time>2022-05-26T13:30:41Z</time>
</trkpt>
<trkpt lat="47.973392" lon="11.185117">
<ele>649.964</ele>
<time>2022-05-26T13:30:42Z</time>
</trkpt>
<trkpt lat="47.973347" lon="11.185106">
<ele>649.85</ele>
<time>2022-05-26T13:30:43Z</time>
</trkpt>
<trkpt lat="47.973309" lon="11.18509">
<ele>649.77</ele>
<time>2022-05-26T13:30:44Z</time>
</trkpt>
<trkpt lat="47.973267" lon="11.18507">
<ele>649.497</ele>
<time>2022-05-26T13:30:45Z</time>
</trkpt>
<trkpt lat="47.973217" lon="11.185052">
<ele>649.285</ele>
<time>2022-05-26T13:30:46Z</time>
</trkpt>
<trkpt lat="47.973167" lon="11.185035">
<ele>649.106</ele>
<time>2022-05-26T13:30:47Z</time>
</trkpt>
<trkpt lat="47.973114" lon="11.185014">
<ele>648.721</ele>
<time>2022-05-26T13:30:48Z</time>
</trkpt>
<trkpt lat="47.973061" lon="11.184992">
<ele>648.432</ele>
<time>2022-05-26T13:30:49Z</time>
</trkpt>
<trkpt lat="47.973003" lon="11.184967">
<ele>648.222</ele>
<time>2022-05-26T13:30:50Z</time>
</trkpt>
<trkpt lat="47.972939" lon="11.184947">
<ele>648.076</ele>
<time>2022-05-26T13:30:51Z</time>
</trkpt>
<trkpt lat="47.972881" lon="11.184925">
<ele>647.98</ele>
<time>2022-05-26T13:30:52Z</time>
</trkpt>
<trkpt lat="47.972816" lon="11.184903">
<ele>647.909</ele>
<time>2022-05-26T13:30:53Z</time>
</trkpt>
<trkpt lat="47.972748" lon="11.184883">
<ele>647.612</ele>
<time>2022-05-26T13:30:54Z</time>
</trkpt>
<trkpt lat="47.972683" lon="11.184858">
<ele>647.387</ele>
<time>2022-05-26T13:30:55Z</time>
</trkpt>
<trkpt lat="47.972618" lon="11.184834">
<ele>647.142</ele>
<time>2022-05-26T13:30:56Z</time>
</trkpt>
<trkpt lat="47.972549" lon="11.184811">
<ele>647.025</ele>
<time>2022-05-26T13:30:57Z</time>
</trkpt>
<trkpt lat="47.972485" lon="11.184789">
<ele>646.958</ele>
<time>2022-05-26T13:30:58Z</time>
</trkpt>
<trkpt lat="47.972416" lon="11.184767">
<ele>646.648</ele>
<time>2022-05-26T13:30:59Z</time>
</trkpt>
<trkpt lat="47.972351" lon="11.184745">
<ele>646.428</ele>
<time>2022-05-26T13:31:00Z</time>
</trkpt>
<trkpt lat="47.972286" lon="11.184722">
<ele>646.275</ele>
<time>2022-05-26T13:31:01Z</time>
</trkpt>
<trkpt lat="47.972221" lon="11.1847">
<ele>646.172</ele>
<time>2022-05-26T13:31:02Z</time>
</trkpt>
<trkpt lat="47.97216" lon="11.184683">
<ele>645.827</ele>
<time>2022-05-26T13:31:03Z</time>
</trkpt>
<trkpt lat="47.972099" lon="11.184667">
<ele>645.552</ele>
<time>2022-05-26T13:31:04Z</time>
</trkpt>
<trkpt lat="47.97205" lon="11.184643">
<ele>645.342</ele>
<time>2022-05-26T13:31:05Z</time>
</trkpt>
<trkpt lat="47.972" lon="11.184622">
<ele>645.185</ele>
<time>2022-05-26T13:31:06Z</time>
</trkpt>
<trkpt lat="47.971958" lon="11.184601">
<ele>645.085</ele>
<time>2022-05-26T13:31:07Z</time>
</trkpt>
<trkpt lat="47.971912" lon="11.184584">
<ele>645.01</ele>
<time>2022-05-26T13:31:08Z</time>
</trkpt>
<trkpt lat="47.97187" lon="11.184569">
<ele>644.96</ele>
<time>2022-05-26T13:31:09Z</time>
</trkpt>
<trkpt lat="47.971828" lon="11.184564">
<ele>644.934</ele>
<time>2022-05-26T13:31:10Z</time>
</trkpt>
<trkpt lat="47.971775" lon="11.184557">
<ele>644.934</ele>
<time>2022-05-26T13:31:11Z</time>
</trkpt>
<trkpt lat="47.971725" lon="11.184544">
<ele>644.934</ele>
<time>2022-05-26T13:31:12Z</time>
</trkpt>
<trkpt lat="47.971676" lon="11.184524">
<ele>644.934</ele>
<time>2022-05-26T13:31:13Z</time>
</trkpt>
<trkpt lat="47.971626" lon="11.184505">
<ele>644.934</ele>
<time>2022-05-26T13:31:14Z</time>
</trkpt>
<trkpt lat="47.971573" lon="11.184486">
<ele>644.934</ele>
<time>2022-05-26T13:31:15Z</time>
</trkpt>
<trkpt lat="47.971523" lon="11.184468">
<ele>644.934</ele>
<time>2022-05-26T13:31:16Z</time>
</trkpt>
<trkpt lat="47.97147" lon="11.18445">
<ele>644.934</ele>
<time>2022-05-26T13:31:17Z</time>
</trkpt>
<trkpt lat="47.971416" lon="11.184431">
<ele>644.934</ele>
<time>2022-05-26T13:31:18Z</time>
</trkpt>
<trkpt lat="47.971363" lon="11.184421">
<ele>644.934</ele>
<time>2022-05-26T13:31:19Z</time>
</trkpt>
<trkpt lat="47.971306" lon="11.184408">
<ele>644.934</ele>
<time>2022-05-26T13:31:20Z</time>
</trkpt>
<trkpt lat="47.971249" lon="11.184397">
<ele>644.934</ele>
<time>2022-05-26T13:31:21Z</time>
</trkpt>
<trkpt lat="47.971195" lon="11.184385">
<ele>644.934</ele>
<time>2022-05-26T13:31:22Z</time>
</trkpt>
<trkpt lat="47.971142" lon="11.184372">
<ele>644.934</ele>
<time>2022-05-26T13:31:23Z</time>
</trkpt>
<trkpt lat="47.971081" lon="11.184356">
<ele>644.934</ele>
<time>2022-05-26T13:31:24Z</time>
</trkpt>
<trkpt lat="47.971024" lon="11.184333">
<ele>644.934</ele>
<time>2022-05-26T13:31:25Z</time>
</trkpt>
<trkpt lat="47.970974" lon="11.184314">
<ele>644.934</ele>
<time>2022-05-26T13:31:26Z</time>
</trkpt>
<trkpt lat="47.970917" lon="11.184293">
<ele>644.934</ele>
<time>2022-05-26T13:31:27Z</time>
</trkpt>
<trkpt lat="47.97086" lon="11.184277">
<ele>644.934</ele>
<time>2022-05-26T13:31:28Z</time>
</trkpt>
<trkpt lat="47.970806" lon="11.184263">
<ele>644.934</ele>
<time>2022-05-26T13:31:29Z</time>
</trkpt>
<trkpt lat="47.970745" lon="11.184252">
<ele>644.934</ele>
<time>2022-05-26T13:31:30Z</time>
</trkpt>
<trkpt lat="47.970684" lon="11.184242">
<ele>644.934</ele>
<time>2022-05-26T13:31:31Z</time>
</trkpt>
<trkpt lat="47.970612" lon="11.18424">
<ele>644.934</ele>
<time>2022-05-26T13:31:32Z</time>
</trkpt>
<trkpt lat="47.970543" lon="11.184247">
<ele>644.934</ele>
<time>2022-05-26T13:31:33Z</time>
</trkpt>
<trkpt lat="47.970482" lon="11.184252">
<ele>644.934</ele>
<time>2022-05-26T13:31:34Z</time>
</trkpt>
<trkpt lat="47.970421" lon="11.184261">
<ele>644.567</ele>
<time>2022-05-26T13:31:35Z</time>
</trkpt>
<trkpt lat="47.970356" lon="11.184277">
<ele>644.289</ele>
<time>2022-05-26T13:31:36Z</time>
</trkpt>
<trkpt lat="47.970306" lon="11.184295">
<ele>644.084</ele>
<time>2022-05-26T13:31:37Z</time>
</trkpt>
<trkpt lat="47.970257" lon="11.184333">
<ele>643.942</ele>
<time>2022-05-26T13:31:38Z</time>
</trkpt>
<trkpt lat="47.970219" lon="11.184395">
<ele>643.838</ele>
<time>2022-05-26T13:31:39Z</time>
</trkpt>
<trkpt lat="47.970181" lon="11.184464">
<ele>643.769</ele>
<time>2022-05-26T13:31:40Z</time>
</trkpt>
<trkpt lat="47.970146" lon="11.184533">
<ele>643.735</ele>
<time>2022-05-26T13:31:41Z</time>
</trkpt>
<trkpt lat="47.970108" lon="11.184605">
<ele>643.703</ele>
<time>2022-05-26T13:31:42Z</time>
</trkpt>
<trkpt lat="47.970074" lon="11.18468">
<ele>643.489</ele>
<time>2022-05-26T13:31:43Z</time>
</trkpt>
<trkpt lat="47.970047" lon="11.184764">
<ele>643.307</ele>
<time>2022-05-26T13:31:44Z</time>
</trkpt>
<trkpt lat="47.970009" lon="11.184845">
<ele>643.149</ele>
<time>2022-05-26T13:31:45Z</time>
</trkpt>
<trkpt lat="47.969963" lon="11.184916">
<ele>643.036</ele>
<time>2022-05-26T13:31:46Z</time>
</trkpt>
<trkpt lat="47.969906" lon="11.184978">
<ele>642.946</ele>
<time>2022-05-26T13:31:47Z</time>
</trkpt>
<trkpt lat="47.969841" lon="11.185028">
<ele>642.893</ele>
<time>2022-05-26T13:31:48Z</time>
</trkpt>
<trkpt lat="47.96978" lon="11.185066">
<ele>642.578</ele>
<time>2022-05-26T13:31:49Z</time>
</trkpt>
<trkpt lat="47.969711" lon="11.185091">
<ele>642.337</ele>
<time>2022-05-26T13:31:50Z</time>
</trkpt>
<trkpt lat="47.969646" lon="11.18511">
<ele>642.161</ele>
<time>2022-05-26T13:31:51Z</time>
</trkpt>
<trkpt lat="47.969578" lon="11.18513">
<ele>642.053</ele>
<time>2022-05-26T13:31:52Z</time>
</trkpt>
<trkpt lat="47.969509" lon="11.185148">
<ele>641.935</ele>
<time>2022-05-26T13:31:53Z</time>
</trkpt>
<trkpt lat="47.96944" lon="11.185158">
<ele>641.85</ele>
<time>2022-05-26T13:31:54Z</time>
</trkpt>
<trkpt lat="47.969372" lon="11.18516">
<ele>641.795</ele>
<time>2022-05-26T13:31:55Z</time>
</trkpt>
<trkpt lat="47.969303" lon="11.185154">
<ele>641.767</ele>
<time>2022-05-26T13:31:56Z</time>
</trkpt>
<trkpt lat="47.969227" lon="11.18514">
<ele>641.767</ele>
<time>2022-05-26T13:31:57Z</time>
</trkpt>
<trkpt lat="47.969154" lon="11.185115">
<ele>641.767</ele>
<time>2022-05-26T13:31:58Z</time>
</trkpt>
<trkpt lat="47.969086" lon="11.185081">
<ele>641.767</ele>
<time>2022-05-26T13:31:59Z</time>
</trkpt>
<trkpt lat="47.969013" lon="11.18505">
<ele>641.767</ele>
<time>2022-05-26T13:32:00Z</time>
</trkpt>
<trkpt lat="47.968941" lon="11.185019">
<ele>641.767</ele>
<time>2022-05-26T13:32:01Z</time>
</trkpt>
<trkpt lat="47.968868" lon="11.184984">
<ele>641.767</ele>
<time>2022-05-26T13:32:02Z</time>
</trkpt>
<trkpt lat="47.968792" lon="11.184953">
<ele>641.767</ele>
<time>2022-05-26T13:32:03Z</time>
</trkpt>
<trkpt lat="47.968716" lon="11.184927">
<ele>641.767</ele>
<time>2022-05-26T13:32:04Z</time>
</trkpt>
<trkpt lat="47.968639" lon="11.184903">
<ele>642.101</ele>
<time>2022-05-26T13:32:05Z</time>
</trkpt>
<trkpt lat="47.968571" lon="11.184879">
<ele>642.359</ele>
<time>2022-05-26T13:32:06Z</time>
</trkpt>
<trkpt lat="47.968502" lon="11.184863">
<ele>642.549</ele>
<time>2022-05-26T13:32:07Z</time>
</trkpt>
<trkpt lat="47.968437" lon="11.184848">
<ele>642.691</ele>
<time>2022-05-26T13:32:08Z</time>
</trkpt>
<trkpt lat="47.96838" lon="11.184838">
<ele>642.791</ele>
<time>2022-05-26T13:32:09Z</time>
</trkpt>
<trkpt lat="47.968311" lon="11.184832">
<ele>642.849</ele>
<time>2022-05-26T13:32:10Z</time>
</trkpt>
<trkpt lat="47.96825" lon="11.184829">
<ele>642.882</ele>
<time>2022-05-26T13:32:11Z</time>
</trkpt>
<trkpt lat="47.968189" lon="11.184825">
<ele>642.911</ele>
<time>2022-05-26T13:32:12Z</time>
</trkpt>
<trkpt lat="47.968128" lon="11.184821">
<ele>643.137</ele>
<time>2022-05-26T13:32:13Z</time>
</trkpt>
<trkpt lat="47.968067" lon="11.184821">
<ele>643.333</ele>
<time>2022-05-26T13:32:14Z</time>
</trkpt>
<trkpt lat="47.968014" lon="11.184823">
<ele>643.499</ele>
<time>2022-05-26T13:32:15Z</time>
</trkpt>
<trkpt lat="47.967953" lon="11.184825">
<ele>643.632</ele>
<time>2022-05-26T13:32:16Z</time>
</trkpt>
<trkpt lat="47.967899" lon="11.18483">
<ele>643.733</ele>
<time>2022-05-26T13:32:17Z</time>
</trkpt>
<trkpt lat="47.967846" lon="11.184834">
<ele>643.804</ele>
<time>2022-05-26T13:32:18Z</time>
</trkpt>
<trkpt lat="47.967785" lon="11.184835">
<ele>643.848</ele>
<time>2022-05-26T13:32:19Z</time>
</trkpt>
<trkpt lat="47.967731" lon="11.184834">
<ele>643.642</ele>
<time>2022-05-26T13:32:20Z</time>
</trkpt>
<trkpt lat="47.967682" lon="11.184835">
<ele>643.453</ele>
<time>2022-05-26T13:32:21Z</time>
</trkpt>
<trkpt lat="47.967625" lon="11.184835">
<ele>643.319</ele>
<time>2022-05-26T13:32:22Z</time>
</trkpt>
<trkpt lat="47.967567" lon="11.184818">
<ele>643.175</ele>
<time>2022-05-26T13:32:23Z</time>
</trkpt>
<trkpt lat="47.967514" lon="11.184796">
<ele>643.065</ele>
<time>2022-05-26T13:32:24Z</time>
</trkpt>
<trkpt lat="47.967461" lon="11.184771">
<ele>642.986</ele>
<time>2022-05-26T13:32:25Z</time>
</trkpt>
<trkpt lat="47.967411" lon="11.184737">
<ele>642.935</ele>
<time>2022-05-26T13:32:26Z</time>
</trkpt>
<trkpt lat="47.967365" lon="11.184707">
<ele>642.911</ele>
<time>2022-05-26T13:32:27Z</time>
</trkpt>
<trkpt lat="47.967323" lon="11.184687">
<ele>642.64</ele>
<time>2022-05-26T13:32:28Z</time>
</trkpt>
<trkpt lat="47.967285" lon="11.184676">
<ele>642.429</ele>
<time>2022-05-26T13:32:29Z</time>
</trkpt>
<trkpt lat="47.967255" lon="11.18467">
<ele>642.27</ele>
<time>2022-05-26T13:32:30Z</time>
</trkpt>
<trkpt lat="47.96722" lon="11.184669">
<ele>642.148</ele>
<time>2022-05-26T13:32:31Z</time>
</trkpt>
<trkpt lat="47.967194" lon="11.184673">
<ele>642.049</ele>
<time>2022-05-26T13:32:32Z</time>
</trkpt>
<trkpt lat="47.967167" lon="11.184676">
<ele>641.753</ele>
<time>2022-05-26T13:32:33Z</time>
</trkpt>
<trkpt lat="47.967144" lon="11.18468">
<ele>641.508</ele>
<time>2022-05-26T13:32:34Z</time>
</trkpt>
<trkpt lat="47.967117" lon="11.184678">
<ele>641.31</ele>
<time>2022-05-26T13:32:35Z</time>
</trkpt>
<trkpt lat="47.967083" lon="11.184662">
<ele>641.165</ele>
<time>2022-05-26T13:32:36Z</time>
</trkpt>
<trkpt lat="47.967052" lon="11.184626">
<ele>641.069</ele>
<time>2022-05-26T13:32:37Z</time>
</trkpt>
<trkpt lat="47.96703" lon="11.184569">
<ele>640.72</ele>
<time>2022-05-26T13:32:38Z</time>
</trkpt>
<trkpt lat="47.967003" lon="11.184508">
<ele>640.451</ele>
<time>2022-05-26T13:32:39Z</time>
</trkpt>
<trkpt lat="47.966972" lon="11.184448">
<ele>640.238</ele>
<time>2022-05-26T13:32:40Z</time>
</trkpt>
<trkpt lat="47.966942" lon="11.184381">
<ele>640.11</ele>
<time>2022-05-26T13:32:41Z</time>
</trkpt>
<trkpt lat="47.966915" lon="11.184312">
<ele>640.044</ele>
<time>2022-05-26T13:32:42Z</time>
</trkpt>
<trkpt lat="47.966896" lon="11.184235">
<ele>639.978</ele>
<time>2022-05-26T13:32:43Z</time>
</trkpt>
<trkpt lat="47.966877" lon="11.18416">
<ele>639.94</ele>
<time>2022-05-26T13:32:44Z</time>
</trkpt>
<trkpt lat="47.966854" lon="11.184085">
<ele>639.92</ele>
<time>2022-05-26T13:32:45Z</time>
</trkpt>
<trkpt lat="47.966831" lon="11.184011">
<ele>639.92</ele>
<time>2022-05-26T13:32:46Z</time>
</trkpt>
<trkpt lat="47.966808" lon="11.183945">
<ele>639.92</ele>
<time>2022-05-26T13:32:47Z</time>
</trkpt>
<trkpt lat="47.966778" lon="11.183875">
<ele>639.664</ele>
<time>2022-05-26T13:32:48Z</time>
</trkpt>
<trkpt lat="47.966751" lon="11.183802">
<ele>639.466</ele>
<time>2022-05-26T13:32:49Z</time>
</trkpt>
<trkpt lat="47.966736" lon="11.183725">
<ele>639.312</ele>
<time>2022-05-26T13:32:50Z</time>
</trkpt>
<trkpt lat="47.966705" lon="11.183661">
<ele>639.196</ele>
<time>2022-05-26T13:32:51Z</time>
</trkpt>
<trkpt lat="47.966682" lon="11.18359">
<ele>639.114</ele>
<time>2022-05-26T13:32:52Z</time>
</trkpt>
<trkpt lat="47.966667" lon="11.183518">
<ele>639.032</ele>
<time>2022-05-26T13:32:53Z</time>
</trkpt>
<trkpt lat="47.966644" lon="11.183445">
<ele>638.98</ele>
<time>2022-05-26T13:32:54Z</time>
</trkpt>
<trkpt lat="47.966621" lon="11.18337">
<ele>638.718</ele>
<time>2022-05-26T13:32:55Z</time>
</trkpt>
<trkpt lat="47.966599" lon="11.183293">
<ele>638.456</ele>
<time>2022-05-26T13:32:56Z</time>
</trkpt>
<trkpt lat="47.966579" lon="11.183222">
<ele>638.294</ele>
<time>2022-05-26T13:32:57Z</time>
</trkpt>
<trkpt lat="47.96656" lon="11.183143">
<ele>638.172</ele>
<time>2022-05-26T13:32:58Z</time>
</trkpt>
<trkpt lat="47.966541" lon="11.183064">
<ele>638.086</ele>
<time>2022-05-26T13:32:59Z</time>
</trkpt>
<trkpt lat="47.966518" lon="11.18298">
<ele>638.035</ele>
<time>2022-05-26T13:33:00Z</time>
</trkpt>
<trkpt lat="47.966496" lon="11.182892">
<ele>638.007</ele>
<time>2022-05-26T13:33:01Z</time>
</trkpt>
<trkpt lat="47.966476" lon="11.182807">
<ele>637.985</ele>
<time>2022-05-26T13:33:02Z</time>
</trkpt>
<trkpt lat="47.96645" lon="11.182721">
<ele>637.985</ele>
<time>2022-05-26T13:33:03Z</time>
</trkpt>
<trkpt lat="47.966427" lon="11.182635">
<ele>637.985</ele>
<time>2022-05-26T13:33:04Z</time>
</trkpt>
<trkpt lat="47.966408" lon="11.182548">
<ele>637.986</ele>
<time>2022-05-26T13:33:05Z</time>
</trkpt>
<trkpt lat="47.966377" lon="11.182462">
<ele>637.985</ele>
<time>2022-05-26T13:33:06Z</time>
</trkpt>
<trkpt lat="47.966351" lon="11.182375">
<ele>637.694</ele>
<time>2022-05-26T13:33:07Z</time>
</trkpt>
<trkpt lat="47.966328" lon="11.182288">
<ele>637.47</ele>
<time>2022-05-26T13:33:08Z</time>
</trkpt>
<trkpt lat="47.966301" lon="11.182203">
<ele>637.299</ele>
<time>2022-05-26T13:33:09Z</time>
</trkpt>
<trkpt lat="47.96627" lon="11.182117">
<ele>637.171</ele>
<time>2022-05-26T13:33:10Z</time>
</trkpt>
<trkpt lat="47.966251" lon="11.182025">
<ele>637.083</ele>
<time>2022-05-26T13:33:11Z</time>
</trkpt>
<trkpt lat="47.966232" lon="11.181935">
<ele>637.017</ele>
<time>2022-05-26T13:33:12Z</time>
</trkpt>
<trkpt lat="47.966217" lon="11.18184">
<ele>636.958</ele>
<time>2022-05-26T13:33:13Z</time>
</trkpt>
<trkpt lat="47.966202" lon="11.181747">
<ele>636.93</ele>
<time>2022-05-26T13:33:14Z</time>
</trkpt>
<trkpt lat="47.966187" lon="11.181655">
<ele>636.93</ele>
<time>2022-05-26T13:33:15Z</time>
</trkpt>
<trkpt lat="47.966167" lon="11.181569">
<ele>636.93</ele>
<time>2022-05-26T13:33:16Z</time>
</trkpt>
<trkpt lat="47.966156" lon="11.181485">
<ele>636.93</ele>
<time>2022-05-26T13:33:17Z</time>
</trkpt>
<trkpt lat="47.966137" lon="11.181406">
<ele>636.93</ele>
<time>2022-05-26T13:33:18Z</time>
</trkpt>
<trkpt lat="47.966125" lon="11.18133">
<ele>636.93</ele>
<time>2022-05-26T13:33:19Z</time>
</trkpt>
<trkpt lat="47.96611" lon="11.181253">
<ele>636.93</ele>
<time>2022-05-26T13:33:20Z</time>
</trkpt>
<trkpt lat="47.966095" lon="11.181177">
<ele>637.155</ele>
<time>2022-05-26T13:33:21Z</time>
</trkpt>
<trkpt lat="47.966087" lon="11.181102">
<ele>637.321</ele>
<time>2022-05-26T13:33:22Z</time>
</trkpt>
<trkpt lat="47.966072" lon="11.181031">
<ele>637.491</ele>
<time>2022-05-26T13:33:23Z</time>
</trkpt>
<trkpt lat="47.966057" lon="11.180964">
<ele>637.619</ele>
<time>2022-05-26T13:33:24Z</time>
</trkpt>
<trkpt lat="47.966042" lon="11.180892">
<ele>637.942</ele>
<time>2022-05-26T13:33:25Z</time>
</trkpt>
<trkpt lat="47.966026" lon="11.18082">
<ele>638.205</ele>
<time>2022-05-26T13:33:26Z</time>
</trkpt>
<trkpt lat="47.966011" lon="11.180746">
<ele>638.407</ele>
<time>2022-05-26T13:33:27Z</time>
</trkpt>
<trkpt lat="47.965992" lon="11.180675">
<ele>638.552</ele>
<time>2022-05-26T13:33:28Z</time>
</trkpt>
<trkpt lat="47.965977" lon="11.180601">
<ele>638.682</ele>
<time>2022-05-26T13:33:29Z</time>
</trkpt>
<trkpt lat="47.965961" lon="11.180527">
<ele>638.723</ele>
<time>2022-05-26T13:33:30Z</time>
</trkpt>
<trkpt lat="47.965942" lon="11.180455">
<ele>639.015</ele>
<time>2022-05-26T13:33:31Z</time>
</trkpt>
<trkpt lat="47.965923" lon="11.180388">
<ele>639.222</ele>
<time>2022-05-26T13:33:32Z</time>
</trkpt>
<trkpt lat="47.965897" lon="11.180325">
<ele>639.643</ele>
<time>2022-05-26T13:33:33Z</time>
</trkpt>
<trkpt lat="47.965866" lon="11.180264">
<ele>639.944</ele>
<time>2022-05-26T13:33:34Z</time>
</trkpt>
<trkpt lat="47.965836" lon="11.180208">
<ele>640.486</ele>
<time>2022-05-26T13:33:35Z</time>
</trkpt>
<trkpt lat="47.965809" lon="11.180157">
<ele>640.924</ele>
<time>2022-05-26T13:33:36Z</time>
</trkpt>
<trkpt lat="47.965778" lon="11.180109">
<ele>641.257</ele>
<time>2022-05-26T13:33:37Z</time>
</trkpt>
<trkpt lat="47.965748" lon="11.18006">
<ele>641.505</ele>
<time>2022-05-26T13:33:38Z</time>
</trkpt>
<trkpt lat="47.965714" lon="11.180008">
<ele>641.645</ele>
<time>2022-05-26T13:33:39Z</time>
</trkpt>
<trkpt lat="47.965687" lon="11.179955">
<ele>641.998</ele>
<time>2022-05-26T13:33:40Z</time>
</trkpt>
<trkpt lat="47.965656" lon="11.179906">
<ele>642.251</ele>
<time>2022-05-26T13:33:41Z</time>
</trkpt>
<trkpt lat="47.96563" lon="11.179857">
<ele>642.416</ele>
<time>2022-05-26T13:33:42Z</time>
</trkpt>
<trkpt lat="47.965603" lon="11.179809">
<ele>642.772</ele>
<time>2022-05-26T13:33:43Z</time>
</trkpt>
<trkpt lat="47.965576" lon="11.179762">
<ele>643.026</ele>
<time>2022-05-26T13:33:44Z</time>
</trkpt>
<trkpt lat="47.965549" lon="11.179717">
<ele>643.493</ele>
<time>2022-05-26T13:33:45Z</time>
</trkpt>
<trkpt lat="47.965527" lon="11.179671">
<ele>643.86</ele>
<time>2022-05-26T13:33:46Z</time>
</trkpt>
<trkpt lat="47.965504" lon="11.179626">
<ele>644.102</ele>
<time>2022-05-26T13:33:47Z</time>
</trkpt>
<trkpt lat="47.965477" lon="11.179582">
<ele>644.55</ele>
<time>2022-05-26T13:33:48Z</time>
</trkpt>
<trkpt lat="47.965454" lon="11.17954">
<ele>644.91</ele>
<time>2022-05-26T13:33:49Z</time>
</trkpt>
<trkpt lat="47.965431" lon="11.179495">
<ele>645.141</ele>
<time>2022-05-26T13:33:50Z</time>
</trkpt>
<trkpt lat="47.965408" lon="11.179445">
<ele>645.574</ele>
<time>2022-05-26T13:33:51Z</time>
</trkpt>
<trkpt lat="47.965389" lon="11.179388">
<ele>645.873</ele>
<time>2022-05-26T13:33:52Z</time>
</trkpt>
<trkpt lat="47.96537" lon="11.179332">
<ele>646.118</ele>
<time>2022-05-26T13:33:53Z</time>
</trkpt>
<trkpt lat="47.965351" lon="11.179276">
<ele>646.538</ele>
<time>2022-05-26T13:33:54Z</time>
</trkpt>
<trkpt lat="47.96534" lon="11.179221">
<ele>646.858</ele>
<time>2022-05-26T13:33:55Z</time>
</trkpt>
<trkpt lat="47.965328" lon="11.179173">
<ele>647.049</ele>
<time>2022-05-26T13:33:56Z</time>
</trkpt>
<trkpt lat="47.965321" lon="11.179127">
<ele>647.484</ele>
<time>2022-05-26T13:33:57Z</time>
</trkpt>
<trkpt lat="47.965313" lon="11.179075">
<ele>647.81</ele>
<time>2022-05-26T13:33:58Z</time>
</trkpt>
<trkpt lat="47.965305" lon="11.179027">
<ele>648.129</ele>
<time>2022-05-26T13:33:59Z</time>
</trkpt>
<trkpt lat="47.96529" lon="11.178975">
<ele>648.253</ele>
<time>2022-05-26T13:34:00Z</time>
</trkpt>
<trkpt lat="47.965275" lon="11.17892">
<ele>648.586</ele>
<time>2022-05-26T13:34:01Z</time>
</trkpt>
<trkpt lat="47.965267" lon="11.178871">
<ele>648.845</ele>
<time>2022-05-26T13:34:02Z</time>
</trkpt>
<trkpt lat="47.965256" lon="11.178823">
<ele>649.075</ele>
<time>2022-05-26T13:34:03Z</time>
</trkpt>
<trkpt lat="47.965244" lon="11.178781">
<ele>649.491</ele>
<time>2022-05-26T13:34:04Z</time>
</trkpt>
<trkpt lat="47.965233" lon="11.178741">
<ele>649.793</ele>
<time>2022-05-26T13:34:05Z</time>
</trkpt>
<trkpt lat="47.965218" lon="11.178693">
<ele>650.024</ele>
<time>2022-05-26T13:34:06Z</time>
</trkpt>
<trkpt lat="47.965206" lon="11.178647">
<ele>650.176</ele>
<time>2022-05-26T13:34:07Z</time>
</trkpt>
<trkpt lat="47.965187" lon="11.178596">
<ele>650.525</ele>
<time>2022-05-26T13:34:08Z</time>
</trkpt>
<trkpt lat="47.965172" lon="11.178544">
<ele>650.867</ele>
<time>2022-05-26T13:34:09Z</time>
</trkpt>
<trkpt lat="47.965149" lon="11.178493">
<ele>651.014</ele>
<time>2022-05-26T13:34:10Z</time>
</trkpt>
<trkpt lat="47.96513" lon="11.178443">
<ele>651.427</ele>
<time>2022-05-26T13:34:11Z</time>
</trkpt>
<trkpt lat="47.965111" lon="11.178391">
<ele>651.724</ele>
<time>2022-05-26T13:34:12Z</time>
</trkpt>
<trkpt lat="47.965092" lon="11.178338">
<ele>652</ele>
<time>2022-05-26T13:34:13Z</time>
</trkpt>
<trkpt lat="47.96508" lon="11.178285">
<ele>652.177</ele>
<time>2022-05-26T13:34:14Z</time>
</trkpt>
<trkpt lat="47.965069" lon="11.178231">
<ele>652.563</ele>
<time>2022-05-26T13:34:15Z</time>
</trkpt>
<trkpt lat="47.965054" lon="11.17818">
<ele>652.846</ele>
<time>2022-05-26T13:34:16Z</time>
</trkpt>
<trkpt lat="47.965042" lon="11.178133">
<ele>653.066</ele>
<time>2022-05-26T13:34:17Z</time>
</trkpt>
<trkpt lat="47.965023" lon="11.178081">
<ele>653.2</ele>
<time>2022-05-26T13:34:18Z</time>
</trkpt>
<trkpt lat="47.965008" lon="11.178026">
<ele>653.607</ele>
<time>2022-05-26T13:34:19Z</time>
</trkpt>
<trkpt lat="47.964989" lon="11.177979">
<ele>653.854</ele>
<time>2022-05-26T13:34:20Z</time>
</trkpt>
<trkpt lat="47.964973" lon="11.177921">
<ele>654.046</ele>
<time>2022-05-26T13:34:21Z</time>
</trkpt>
<trkpt lat="47.964954" lon="11.177872">
<ele>654.175</ele>
<time>2022-05-26T13:34:22Z</time>
</trkpt>
<trkpt lat="47.964935" lon="11.177821">
<ele>654.287</ele>
<time>2022-05-26T13:34:23Z</time>
</trkpt>
<trkpt lat="47.964916" lon="11.177771">
<ele>654.364</ele>
<time>2022-05-26T13:34:24Z</time>
</trkpt>
<trkpt lat="47.96489" lon="11.177723">
<ele>654.657</ele>
<time>2022-05-26T13:34:25Z</time>
</trkpt>
<trkpt lat="47.964867" lon="11.17767">
<ele>654.878</ele>
<time>2022-05-26T13:34:26Z</time>
</trkpt>
<trkpt lat="47.96484" lon="11.177618">
<ele>655.106</ele>
<time>2022-05-26T13:34:27Z</time>
</trkpt>
<trkpt lat="47.964813" lon="11.17757">
<ele>655.228</ele>
<time>2022-05-26T13:34:28Z</time>
</trkpt>
<trkpt lat="47.964787" lon="11.177526">
<ele>655.308</ele>
<time>2022-05-26T13:34:29Z</time>
</trkpt>
<trkpt lat="47.964771" lon="11.17748">
<ele>655.361</ele>
<time>2022-05-26T13:34:30Z</time>
</trkpt>
<trkpt lat="47.964748" lon="11.177435">
<ele>655.39</ele>
<time>2022-05-26T13:34:31Z</time>
</trkpt>
<trkpt lat="47.964725" lon="11.177388">
<ele>655.411</ele>
<time>2022-05-26T13:34:32Z</time>
</trkpt>
<trkpt lat="47.964703" lon="11.177345">
<ele>655.411</ele>
<time>2022-05-26T13:34:33Z</time>
</trkpt>
<trkpt lat="47.96468" lon="11.177299">
<ele>655.411</ele>
<time>2022-05-26T13:34:34Z</time>
</trkpt>
<trkpt lat="47.964653" lon="11.177254">
<ele>655.66</ele>
<time>2022-05-26T13:34:35Z</time>
</trkpt>
<trkpt lat="47.964626" lon="11.177209">
<ele>655.86</ele>
<time>2022-05-26T13:34:36Z</time>
</trkpt>
<trkpt lat="47.964603" lon="11.177167">
<ele>656.014</ele>
<time>2022-05-26T13:34:37Z</time>
</trkpt>
<trkpt lat="47.964577" lon="11.177127">
<ele>656.124</ele>
<time>2022-05-26T13:34:38Z</time>
</trkpt>
<trkpt lat="47.96455" lon="11.17709">
<ele>656.203</ele>
<time>2022-05-26T13:34:39Z</time>
</trkpt>
<trkpt lat="47.96452" lon="11.177058">
<ele>656.25</ele>
<time>2022-05-26T13:34:40Z</time>
</trkpt>
<trkpt lat="47.964493" lon="11.177038">
<ele>656.272</ele>
<time>2022-05-26T13:34:41Z</time>
</trkpt>
<trkpt lat="47.964451" lon="11.177035">
<ele>656.292</ele>
<time>2022-05-26T13:34:42Z</time>
</trkpt>
<trkpt lat="47.964417" lon="11.177054">
<ele>656.292</ele>
<time>2022-05-26T13:34:43Z</time>
</trkpt>
<trkpt lat="47.964378" lon="11.177088">
<ele>656.292</ele>
<time>2022-05-26T13:34:44Z</time>
</trkpt>
<trkpt lat="47.96434" lon="11.177119">
<ele>656.292</ele>
<time>2022-05-26T13:34:45Z</time>
</trkpt>
<trkpt lat="47.964298" lon="11.177149">
<ele>656.292</ele>
<time>2022-05-26T13:34:46Z</time>
</trkpt>
<trkpt lat="47.96426" lon="11.177163">
<ele>656.292</ele>
<time>2022-05-26T13:34:47Z</time>
</trkpt>
<trkpt lat="47.964211" lon="11.177165">
<ele>656.292</ele>
<time>2022-05-26T13:34:48Z</time>
</trkpt>
<trkpt lat="47.964161" lon="11.177163">
<ele>656.292</ele>
<time>2022-05-26T13:34:49Z</time>
</trkpt>
<trkpt lat="47.964104" lon="11.177158">
<ele>656.292</ele>
<time>2022-05-26T13:34:50Z</time>
</trkpt>
<trkpt lat="47.964054" lon="11.177147">
<ele>656.292</ele>
<time>2022-05-26T13:34:51Z</time>
</trkpt>
<trkpt lat="47.964005" lon="11.17713">
<ele>656.292</ele>
<time>2022-05-26T13:34:52Z</time>
</trkpt>
<trkpt lat="47.963959" lon="11.177109">
<ele>656.292</ele>
<time>2022-05-26T13:34:53Z</time>
</trkpt>
<trkpt lat="47.963905" lon="11.177082">
<ele>656.62</ele>
<time>2022-05-26T13:34:54Z</time>
</trkpt>
<trkpt lat="47.963863" lon="11.177053">
<ele>656.864</ele>
<time>2022-05-26T13:34:55Z</time>
</trkpt>
<trkpt lat="47.963814" lon="11.17703">
<ele>657.01</ele>
<time>2022-05-26T13:34:56Z</time>
</trkpt>
<trkpt lat="47.963764" lon="11.177012">
<ele>657.413</ele>
<time>2022-05-26T13:34:57Z</time>
</trkpt>
<trkpt lat="47.963718" lon="11.176987">
<ele>657.726</ele>
<time>2022-05-26T13:34:58Z</time>
</trkpt>
<trkpt lat="47.963676" lon="11.176969">
<ele>657.946</ele>
<time>2022-05-26T13:34:59Z</time>
</trkpt>
<trkpt lat="47.963627" lon="11.176956">
<ele>658.068</ele>
<time>2022-05-26T13:35:00Z</time>
</trkpt>
<trkpt lat="47.963581" lon="11.176944">
<ele>658.41</ele>
<time>2022-05-26T13:35:01Z</time>
</trkpt>
<trkpt lat="47.963539" lon="11.176927">
<ele>658.667</ele>
<time>2022-05-26T13:35:02Z</time>
</trkpt>
<trkpt lat="47.963497" lon="11.176906">
<ele>658.911</ele>
<time>2022-05-26T13:35:03Z</time>
</trkpt>
<trkpt lat="47.963451" lon="11.176888">
<ele>659.073</ele>
<time>2022-05-26T13:35:04Z</time>
</trkpt>
<trkpt lat="47.963406" lon="11.176872">
<ele>659.429</ele>
<time>2022-05-26T13:35:05Z</time>
</trkpt>
<trkpt lat="47.963352" lon="11.176853">
<ele>659.724</ele>
<time>2022-05-26T13:35:06Z</time>
</trkpt>
<trkpt lat="47.963295" lon="11.17684">
<ele>659.911</ele>
<time>2022-05-26T13:35:07Z</time>
</trkpt>
<trkpt lat="47.963238" lon="11.176826">
<ele>660.314</ele>
<time>2022-05-26T13:35:08Z</time>
</trkpt>
<trkpt lat="47.963184" lon="11.176818">
<ele>660.679</ele>
<time>2022-05-26T13:35:09Z</time>
</trkpt>
<trkpt lat="47.963123" lon="11.176808">
<ele>660.877</ele>
<time>2022-05-26T13:35:10Z</time>
</trkpt>
<trkpt lat="47.963074" lon="11.176799">
<ele>661.004</ele>
<time>2022-05-26T13:35:11Z</time>
</trkpt>
<trkpt lat="47.963024" lon="11.176788">
<ele>661.092</ele>
<time>2022-05-26T13:35:12Z</time>
</trkpt>
<trkpt lat="47.962971" lon="11.176778">
<ele>661.158</ele>
<time>2022-05-26T13:35:13Z</time>
</trkpt>
<trkpt lat="47.962917" lon="11.176768">
<ele>661.457</ele>
<time>2022-05-26T13:35:14Z</time>
</trkpt>
<trkpt lat="47.962864" lon="11.17676">
<ele>661.69</ele>
<time>2022-05-26T13:35:15Z</time>
</trkpt>
<trkpt lat="47.962811" lon="11.176752">
<ele>661.964</ele>
<time>2022-05-26T13:35:16Z</time>
</trkpt>
<trkpt lat="47.962761" lon="11.176744">
<ele>662.102</ele>
<time>2022-05-26T13:35:17Z</time>
</trkpt>
<trkpt lat="47.962708" lon="11.176736">
<ele>662.198</ele>
<time>2022-05-26T13:35:18Z</time>
</trkpt>
<trkpt lat="47.962662" lon="11.176728">
<ele>662.257</ele>
<time>2022-05-26T13:35:19Z</time>
</trkpt>
<trkpt lat="47.962608" lon="11.176719">
<ele>662.284</ele>
<time>2022-05-26T13:35:20Z</time>
</trkpt>
<trkpt lat="47.962559" lon="11.17671">
<ele>662.284</ele>
<time>2022-05-26T13:35:21Z</time>
</trkpt>
<trkpt lat="47.962505" lon="11.176702">
<ele>662.284</ele>
<time>2022-05-26T13:35:22Z</time>
</trkpt>
<trkpt lat="47.96246" lon="11.176694">
<ele>662.284</ele>
<time>2022-05-26T13:35:23Z</time>
</trkpt>
<trkpt lat="47.962414" lon="11.176687">
<ele>662.284</ele>
<time>2022-05-26T13:35:24Z</time>
</trkpt>
<trkpt lat="47.962372" lon="11.17668">
<ele>662.284</ele>
<time>2022-05-26T13:35:25Z</time>
</trkpt>
<trkpt lat="47.96233" lon="11.176673">
<ele>662.044</ele>
<time>2022-05-26T13:35:26Z</time>
</trkpt>
<trkpt lat="47.962284" lon="11.176666">
<ele>661.857</ele>
<time>2022-05-26T13:35:27Z</time>
</trkpt>
<trkpt lat="47.962242" lon="11.176662">
<ele>661.709</ele>
<time>2022-05-26T13:35:28Z</time>
</trkpt>
<trkpt lat="47.9622" lon="11.176657">
<ele>661.601</ele>
<time>2022-05-26T13:35:29Z</time>
</trkpt>
<trkpt lat="47.962151" lon="11.176652">
<ele>661.522</ele>
<time>2022-05-26T13:35:30Z</time>
</trkpt>
<trkpt lat="47.962109" lon="11.176646">
<ele>661.469</ele>
<time>2022-05-26T13:35:31Z</time>
</trkpt>
<trkpt lat="47.962067" lon="11.176641">
<ele>661.427</ele>
<time>2022-05-26T13:35:32Z</time>
</trkpt>
<trkpt lat="47.962025" lon="11.176638">
<ele>661.402</ele>
<time>2022-05-26T13:35:33Z</time>
</trkpt>
<trkpt lat="47.961983" lon="11.176637">
<ele>661.402</ele>
<time>2022-05-26T13:35:34Z</time>
</trkpt>
<trkpt lat="47.961941" lon="11.176637">
<ele>661.402</ele>
<time>2022-05-26T13:35:35Z</time>
</trkpt>
<trkpt lat="47.961899" lon="11.176641">
<ele>661.402</ele>
<time>2022-05-26T13:35:36Z</time>
</trkpt>
<trkpt lat="47.961857" lon="11.176659">
<ele>661.139</ele>
<time>2022-05-26T13:35:37Z</time>
</trkpt>
<trkpt lat="47.961819" lon="11.17669">
<ele>660.939</ele>
<time>2022-05-26T13:35:38Z</time>
</trkpt>
<trkpt lat="47.961792" lon="11.176734">
<ele>660.775</ele>
<time>2022-05-26T13:35:39Z</time>
</trkpt>
<trkpt lat="47.961773" lon="11.176782">
<ele>660.656</ele>
<time>2022-05-26T13:35:40Z</time>
</trkpt>
<trkpt lat="47.961765" lon="11.176828">
<ele>660.575</ele>
<time>2022-05-26T13:35:41Z</time>
</trkpt>
<trkpt lat="47.961769" lon="11.176874">
<ele>660.514</ele>
<time>2022-05-26T13:35:42Z</time>
</trkpt>
<trkpt lat="47.961773" lon="11.176904">
<ele>660.46</ele>
<time>2022-05-26T13:35:43Z</time>
</trkpt>
<trkpt lat="47.961777" lon="11.176916">
<ele>660.433</ele>
<time>2022-05-26T13:35:44Z</time>
</trkpt>
<trkpt lat="47.961777" lon="11.176918">
<ele>660.433</ele>
<time>2022-05-26T13:35:45Z</time>
</trkpt>
<trkpt lat="47.961781" lon="11.17692">
<ele>660.433</ele>
<time>2022-05-26T13:35:46Z</time>
</trkpt>
<trkpt lat="47.961781" lon="11.176918">
<ele>660.433</ele>
<time>2022-05-26T13:35:47Z</time>
</trkpt>
<trkpt lat="47.961773" lon="11.176893">
<ele>660.433</ele>
<time>2022-05-26T13:38:01Z</time>
</trkpt>
<trkpt lat="47.961773" lon="11.17687">
<ele>660.618</ele>
<time>2022-05-26T13:38:02Z</time>
</trkpt>
<trkpt lat="47.961769" lon="11.176842">
<ele>660.802</ele>
<time>2022-05-26T13:38:03Z</time>
</trkpt>
<trkpt lat="47.961769" lon="11.176809">
<ele>660.882</ele>
<time>2022-05-26T13:38:04Z</time>
</trkpt>
<trkpt lat="47.961765" lon="11.176773">
<ele>660.792</ele>
<time>2022-05-26T13:38:05Z</time>
</trkpt>
<trkpt lat="47.961758" lon="11.176738">
<ele>660.64</ele>
<time>2022-05-26T13:38:06Z</time>
</trkpt>
<trkpt lat="47.961742" lon="11.176706">
<ele>660.544</ele>
<time>2022-05-26T13:38:07Z</time>
</trkpt>
<trkpt lat="47.961723" lon="11.176682">
<ele>660.484</ele>
<time>2022-05-26T13:38:08Z</time>
</trkpt>
<trkpt lat="47.961689" lon="11.176661">
<ele>660.446</ele>
<time>2022-05-26T13:38:09Z</time>
</trkpt>
<trkpt lat="47.961655" lon="11.176643">
<ele>660.397</ele>
<time>2022-05-26T13:38:10Z</time>
</trkpt>
<trkpt lat="47.961617" lon="11.176631">
<ele>660.366</ele>
<time>2022-05-26T13:38:11Z</time>
</trkpt>
<trkpt lat="47.961575" lon="11.17662">
<ele>660.049</ele>
<time>2022-05-26T13:38:12Z</time>
</trkpt>
<trkpt lat="47.961529" lon="11.176608">
<ele>659.808</ele>
<time>2022-05-26T13:38:13Z</time>
</trkpt>
<trkpt lat="47.961475" lon="11.176597">
<ele>659.639</ele>
<time>2022-05-26T13:38:14Z</time>
</trkpt>
<trkpt lat="47.961418" lon="11.176585">
<ele>659.541</ele>
<time>2022-05-26T13:38:15Z</time>
</trkpt>
<trkpt lat="47.961357" lon="11.17657">
<ele>659.434</ele>
<time>2022-05-26T13:38:16Z</time>
</trkpt>
<trkpt lat="47.961292" lon="11.176552">
<ele>659.086</ele>
<time>2022-05-26T13:38:17Z</time>
</trkpt>
<trkpt lat="47.96122" lon="11.176532">
<ele>658.829</ele>
<time>2022-05-26T13:38:18Z</time>
</trkpt>
<trkpt lat="47.961155" lon="11.176508">
<ele>658.644</ele>
<time>2022-05-26T13:38:19Z</time>
</trkpt>
<trkpt lat="47.961098" lon="11.176487">
<ele>658.476</ele>
<time>2022-05-26T13:38:20Z</time>
</trkpt>
<trkpt lat="47.961037" lon="11.176458">
<ele>658.122</ele>
<time>2022-05-26T13:38:21Z</time>
</trkpt>
<trkpt lat="47.960972" lon="11.176421">
<ele>657.91</ele>
<time>2022-05-26T13:38:22Z</time>
</trkpt>
<trkpt lat="47.960907" lon="11.17638">
<ele>657.476</ele>
<time>2022-05-26T13:38:23Z</time>
</trkpt>
<trkpt lat="47.960842" lon="11.176336">
<ele>657.166</ele>
<time>2022-05-26T13:38:24Z</time>
</trkpt>
<trkpt lat="47.960777" lon="11.176291">
<ele>656.948</ele>
<time>2022-05-26T13:38:25Z</time>
</trkpt>
<trkpt lat="47.960712" lon="11.17624">
<ele>656.503</ele>
<time>2022-05-26T13:38:26Z</time>
</trkpt>
<trkpt lat="47.960644" lon="11.176189">
<ele>656.146</ele>
<time>2022-05-26T13:38:27Z</time>
</trkpt>
<trkpt lat="47.960571" lon="11.176139">
<ele>655.927</ele>
<time>2022-05-26T13:38:28Z</time>
</trkpt>
<trkpt lat="47.960495" lon="11.176084">
<ele>655.458</ele>
<time>2022-05-26T13:38:29Z</time>
</trkpt>
<trkpt lat="47.960419" lon="11.176023">
<ele>655.154</ele>
<time>2022-05-26T13:38:30Z</time>
</trkpt>
<trkpt lat="47.960346" lon="11.175959">
<ele>654.604</ele>
<time>2022-05-26T13:38:31Z</time>
</trkpt>
<trkpt lat="47.960274" lon="11.175887">
<ele>654.171</ele>
<time>2022-05-26T13:38:32Z</time>
</trkpt>
<trkpt lat="47.960197" lon="11.175808">
<ele>653.849</ele>
<time>2022-05-26T13:38:33Z</time>
</trkpt>
<trkpt lat="47.960129" lon="11.17573">
<ele>653.669</ele>
<time>2022-05-26T13:38:34Z</time>
</trkpt>
<trkpt lat="47.960064" lon="11.175649">
<ele>653.235</ele>
<time>2022-05-26T13:38:35Z</time>
</trkpt>
<trkpt lat="47.959999" lon="11.17557">
<ele>652.9</ele>
<time>2022-05-26T13:38:36Z</time>
</trkpt>
<trkpt lat="47.95993" lon="11.175491">
<ele>652.405</ele>
<time>2022-05-26T13:38:37Z</time>
</trkpt>
<trkpt lat="47.959854" lon="11.175413">
<ele>652.066</ele>
<time>2022-05-26T13:38:38Z</time>
</trkpt>
<trkpt lat="47.959778" lon="11.175332">
<ele>651.504</ele>
<time>2022-05-26T13:38:39Z</time>
</trkpt>
<trkpt lat="47.959702" lon="11.175246">
<ele>651.108</ele>
<time>2022-05-26T13:38:40Z</time>
</trkpt>
<trkpt lat="47.959629" lon="11.175159">
<ele>650.521</ele>
<time>2022-05-26T13:38:41Z</time>
</trkpt>
<trkpt lat="47.959553" lon="11.175072">
<ele>650.069</ele>
<time>2022-05-26T13:38:42Z</time>
</trkpt>
<trkpt lat="47.959476" lon="11.174982">
<ele>649.735</ele>
<time>2022-05-26T13:38:43Z</time>
</trkpt>
<trkpt lat="47.9594" lon="11.174894">
<ele>649.345</ele>
<time>2022-05-26T13:38:44Z</time>
</trkpt>
<trkpt lat="47.959316" lon="11.17481">
<ele>648.769</ele>
<time>2022-05-26T13:38:45Z</time>
</trkpt>
<trkpt lat="47.959232" lon="11.174728">
<ele>648.308</ele>
<time>2022-05-26T13:38:46Z</time>
</trkpt>
<trkpt lat="47.959148" lon="11.174642">
<ele>647.728</ele>
<time>2022-05-26T13:38:47Z</time>
</trkpt>
<trkpt lat="47.959061" lon="11.174557">
<ele>646.997</ele>
<time>2022-05-26T13:38:48Z</time>
</trkpt>
<trkpt lat="47.958977" lon="11.174473">
<ele>646.498</ele>
<time>2022-05-26T13:38:49Z</time>
</trkpt>
<trkpt lat="47.958874" lon="11.174392">
<ele>645.84</ele>
<time>2022-05-26T13:38:50Z</time>
</trkpt>
<trkpt lat="47.958771" lon="11.174318">
<ele>645.032</ele>
<time>2022-05-26T13:38:51Z</time>
</trkpt>
<trkpt lat="47.958664" lon="11.174249">
<ele>644.5</ele>
<time>2022-05-26T13:38:52Z</time>
</trkpt>
<trkpt lat="47.958561" lon="11.174187">
<ele>643.701</ele>
<time>2022-05-26T13:38:53Z</time>
</trkpt>
<trkpt lat="47.958454" lon="11.174128">
<ele>642.964</ele>
<time>2022-05-26T13:38:54Z</time>
</trkpt>
<trkpt lat="47.958344" lon="11.174073">
<ele>642.418</ele>
<time>2022-05-26T13:38:55Z</time>
</trkpt>
<trkpt lat="47.958225" lon="11.17402">
<ele>641.725</ele>
<time>2022-05-26T13:38:56Z</time>
</trkpt>
<trkpt lat="47.958103" lon="11.173973">
<ele>640.883</ele>
<time>2022-05-26T13:38:57Z</time>
</trkpt>
<trkpt lat="47.957985" lon="11.173926">
<ele>640.343</ele>
<time>2022-05-26T13:38:58Z</time>
</trkpt>
<trkpt lat="47.957874" lon="11.173886">
<ele>639.59</ele>
<time>2022-05-26T13:38:59Z</time>
</trkpt>
<trkpt lat="47.957756" lon="11.173848">
<ele>639.08</ele>
<time>2022-05-26T13:39:00Z</time>
</trkpt>
<trkpt lat="47.957642" lon="11.173813">
<ele>638.351</ele>
<time>2022-05-26T13:39:01Z</time>
</trkpt>
<trkpt lat="47.957523" lon="11.173769">
<ele>637.877</ele>
<time>2022-05-26T13:39:02Z</time>
</trkpt>
<trkpt lat="47.957413" lon="11.173705">
<ele>637.203</ele>
<time>2022-05-26T13:39:03Z</time>
</trkpt>
<trkpt lat="47.957298" lon="11.173631">
<ele>636.353</ele>
<time>2022-05-26T13:39:04Z</time>
</trkpt>
<trkpt lat="47.957191" lon="11.173558">
<ele>635.764</ele>
<time>2022-05-26T13:39:05Z</time>
</trkpt>
<trkpt lat="47.957077" lon="11.173491">
<ele>635.007</ele>
<time>2022-05-26T13:39:06Z</time>
</trkpt>
<trkpt lat="47.956974" lon="11.173415">
<ele>634.501</ele>
<time>2022-05-26T13:39:07Z</time>
</trkpt>
<trkpt lat="47.956867" lon="11.173333">
<ele>633.788</ele>
<time>2022-05-26T13:39:08Z</time>
</trkpt>
<trkpt lat="47.956768" lon="11.173248">
<ele>633.316</ele>
<time>2022-05-26T13:39:09Z</time>
</trkpt>
<trkpt lat="47.956665" lon="11.173172">
<ele>632.662</ele>
<time>2022-05-26T13:39:10Z</time>
</trkpt>
<trkpt lat="47.956558" lon="11.173103">
<ele>632.18</ele>
<time>2022-05-26T13:39:11Z</time>
</trkpt>
<trkpt lat="47.956459" lon="11.173043">
<ele>631.878</ele>
<time>2022-05-26T13:39:12Z</time>
</trkpt>
<trkpt lat="47.956367" lon="11.172988">
<ele>631.4</ele>
<time>2022-05-26T13:39:13Z</time>
</trkpt>
<trkpt lat="47.956272" lon="11.172935">
<ele>630.785</ele>
<time>2022-05-26T13:39:14Z</time>
</trkpt>
<trkpt lat="47.956165" lon="11.1729">
<ele>630.354</ele>
<time>2022-05-26T13:39:15Z</time>
</trkpt>
<trkpt lat="47.95607" lon="11.172864">
<ele>630.006</ele>
<time>2022-05-26T13:39:16Z</time>
</trkpt>
<trkpt lat="47.955975" lon="11.172833">
<ele>629.514</ele>
<time>2022-05-26T13:39:17Z</time>
</trkpt>
<trkpt lat="47.955879" lon="11.172808">
<ele>629.145</ele>
<time>2022-05-26T13:39:18Z</time>
</trkpt>
<trkpt lat="47.955784" lon="11.172791">
<ele>628.858</ele>
<time>2022-05-26T13:39:19Z</time>
</trkpt>
<trkpt lat="47.955692" lon="11.172791">
<ele>628.655</ele>
<time>2022-05-26T13:39:20Z</time>
</trkpt>
<trkpt lat="47.955605" lon="11.172789">
<ele>628.537</ele>
<time>2022-05-26T13:39:21Z</time>
</trkpt>
<trkpt lat="47.955524" lon="11.172789">
<ele>628.434</ele>
<time>2022-05-26T13:39:22Z</time>
</trkpt>
<trkpt lat="47.955421" lon="11.172795">
<ele>628.149</ele>
<time>2022-05-26T13:39:23Z</time>
</trkpt>
<trkpt lat="47.955334" lon="11.172808">
<ele>627.942</ele>
<time>2022-05-26T13:39:24Z</time>
</trkpt>
<trkpt lat="47.955246" lon="11.172825">
<ele>627.798</ele>
<time>2022-05-26T13:39:25Z</time>
</trkpt>
<trkpt lat="47.955158" lon="11.172836">
<ele>627.649</ele>
<time>2022-05-26T13:39:26Z</time>
</trkpt>
<trkpt lat="47.95507" lon="11.172841">
<ele>627.293</ele>
<time>2022-05-26T13:39:27Z</time>
</trkpt>
<trkpt lat="47.954983" lon="11.172858">
<ele>627.034</ele>
<time>2022-05-26T13:39:28Z</time>
</trkpt>
<trkpt lat="47.954887" lon="11.172874">
<ele>626.545</ele>
<time>2022-05-26T13:39:29Z</time>
</trkpt>
<trkpt lat="47.954796" lon="11.172887">
<ele>626.167</ele>
<time>2022-05-26T13:39:30Z</time>
</trkpt>
<trkpt lat="47.954697" lon="11.172904">
<ele>625.773</ele>
<time>2022-05-26T13:39:31Z</time>
</trkpt>
<trkpt lat="47.954597" lon="11.172927">
<ele>625.573</ele>
<time>2022-05-26T13:39:32Z</time>
</trkpt>
<trkpt lat="47.954498" lon="11.17294">
<ele>625.458</ele>
<time>2022-05-26T13:39:33Z</time>
</trkpt>
<trkpt lat="47.954403" lon="11.172946">
<ele>625.403</ele>
<time>2022-05-26T13:39:34Z</time>
</trkpt>
<trkpt lat="47.954311" lon="11.172954">
<ele>625.358</ele>
<time>2022-05-26T13:39:35Z</time>
</trkpt>
<trkpt lat="47.95422" lon="11.172967">
<ele>625.095</ele>
<time>2022-05-26T13:39:36Z</time>
</trkpt>
<trkpt lat="47.954128" lon="11.172976">
<ele>624.902</ele>
<time>2022-05-26T13:39:37Z</time>
</trkpt>
<trkpt lat="47.954029" lon="11.172983">
<ele>624.739</ele>
<time>2022-05-26T13:39:38Z</time>
</trkpt>
<trkpt lat="47.95393" lon="11.173003">
<ele>624.639</ele>
<time>2022-05-26T13:39:39Z</time>
</trkpt>
<trkpt lat="47.953838" lon="11.173018">
<ele>624.292</ele>
<time>2022-05-26T13:39:40Z</time>
</trkpt>
<trkpt lat="47.953751" lon="11.17303">
<ele>624.014</ele>
<time>2022-05-26T13:39:41Z</time>
</trkpt>
<trkpt lat="47.953667" lon="11.173032">
<ele>623.798</ele>
<time>2022-05-26T13:39:42Z</time>
</trkpt>
<trkpt lat="47.953575" lon="11.173046">
<ele>623.64</ele>
<time>2022-05-26T13:39:43Z</time>
</trkpt>
<trkpt lat="47.953499" lon="11.173037">
<ele>623.561</ele>
<time>2022-05-26T13:39:44Z</time>
</trkpt>
<trkpt lat="47.953423" lon="11.173028">
<ele>623.235</ele>
<time>2022-05-26T13:39:45Z</time>
</trkpt>
<trkpt lat="47.95335" lon="11.173013">
<ele>622.952</ele>
<time>2022-05-26T13:39:46Z</time>
</trkpt>
<trkpt lat="47.953278" lon="11.172998">
<ele>622.729</ele>
<time>2022-05-26T13:39:47Z</time>
</trkpt>
<trkpt lat="47.953213" lon="11.172974">
<ele>622.566</ele>
<time>2022-05-26T13:39:48Z</time>
</trkpt>
<trkpt lat="47.953156" lon="11.172948">
<ele>622.442</ele>
<time>2022-05-26T13:39:49Z</time>
</trkpt>
<trkpt lat="47.953091" lon="11.172918">
<ele>622.351</ele>
<time>2022-05-26T13:39:50Z</time>
</trkpt>
<trkpt lat="47.953037" lon="11.172887">
<ele>622.29</ele>
<time>2022-05-26T13:39:51Z</time>
</trkpt>
<trkpt lat="47.952984" lon="11.172853">
<ele>622.258</ele>
<time>2022-05-26T13:39:52Z</time>
</trkpt>
<trkpt lat="47.952942" lon="11.172805">
<ele>622.258</ele>
<time>2022-05-26T13:39:53Z</time>
</trkpt>
<trkpt lat="47.9529" lon="11.172753">
<ele>622.258</ele>
<time>2022-05-26T13:39:54Z</time>
</trkpt>
<trkpt lat="47.952854" lon="11.172707">
<ele>622.258</ele>
<time>2022-05-26T13:39:55Z</time>
</trkpt>
<trkpt lat="47.952816" lon="11.172667">
<ele>622.258</ele>
<time>2022-05-26T13:39:56Z</time>
</trkpt>
<trkpt lat="47.95277" lon="11.172619">
<ele>622.258</ele>
<time>2022-05-26T13:39:57Z</time>
</trkpt>
<trkpt lat="47.952721" lon="11.172566">
<ele>622.258</ele>
<time>2022-05-26T13:39:58Z</time>
</trkpt>
<trkpt lat="47.952679" lon="11.172524">
<ele>622.258</ele>
<time>2022-05-26T13:39:59Z</time>
</trkpt>
<trkpt lat="47.952629" lon="11.172485">
<ele>622.258</ele>
<time>2022-05-26T13:40:00Z</time>
</trkpt>
<trkpt lat="47.952576" lon="11.172439">
<ele>622.258</ele>
<time>2022-05-26T13:40:01Z</time>
</trkpt>
<trkpt lat="47.952511" lon="11.172386">
<ele>622.258</ele>
<time>2022-05-26T13:40:02Z</time>
</trkpt>
<trkpt lat="47.952457" lon="11.172338">
<ele>622.258</ele>
<time>2022-05-26T13:40:03Z</time>
</trkpt>
<trkpt lat="47.9524" lon="11.172295">
<ele>622.506</ele>
<time>2022-05-26T13:40:04Z</time>
</trkpt>
<trkpt lat="47.952351" lon="11.172248">
<ele>622.673</ele>
<time>2022-05-26T13:40:05Z</time>
</trkpt>
<trkpt lat="47.952301" lon="11.1722">
<ele>622.844</ele>
<time>2022-05-26T13:40:06Z</time>
</trkpt>
<trkpt lat="47.952244" lon="11.17215">
<ele>622.986</ele>
<time>2022-05-26T13:40:07Z</time>
</trkpt>
<trkpt lat="47.952175" lon="11.1721">
<ele>623.08</ele>
<time>2022-05-26T13:40:08Z</time>
</trkpt>
<trkpt lat="47.952126" lon="11.17206">
<ele>623.149</ele>
<time>2022-05-26T13:40:09Z</time>
</trkpt>
<trkpt lat="47.952072" lon="11.172025">
<ele>623.197</ele>
<time>2022-05-26T13:40:10Z</time>
</trkpt>
<trkpt lat="47.952026" lon="11.171993">
<ele>623.224</ele>
<time>2022-05-26T13:40:11Z</time>
</trkpt>
<trkpt lat="47.951973" lon="11.171964">
<ele>623.466</ele>
<time>2022-05-26T13:40:12Z</time>
</trkpt>
<trkpt lat="47.951912" lon="11.171931">
<ele>623.659</ele>
<time>2022-05-26T13:40:13Z</time>
</trkpt>
<trkpt lat="47.951851" lon="11.171896">
<ele>623.807</ele>
<time>2022-05-26T13:40:14Z</time>
</trkpt>
<trkpt lat="47.951794" lon="11.171873">
<ele>623.863</ele>
<time>2022-05-26T13:40:15Z</time>
</trkpt>
<trkpt lat="47.951736" lon="11.17185">
<ele>623.739</ele>
<time>2022-05-26T13:40:16Z</time>
</trkpt>
<trkpt lat="47.951672" lon="11.171833">
<ele>623.63</ele>
<time>2022-05-26T13:40:17Z</time>
</trkpt>
<trkpt lat="47.951614" lon="11.171813">
<ele>623.53</ele>
<time>2022-05-26T13:40:18Z</time>
</trkpt>
<trkpt lat="47.951561" lon="11.171802">
<ele>623.44</ele>
<time>2022-05-26T13:40:19Z</time>
</trkpt>
<trkpt lat="47.951481" lon="11.171779">
<ele>623.363</ele>
<time>2022-05-26T13:40:20Z</time>
</trkpt>
<trkpt lat="47.951408" lon="11.171763">
<ele>623.292</ele>
<time>2022-05-26T13:40:21Z</time>
</trkpt>
<trkpt lat="47.951328" lon="11.171731">
<ele>623.247</ele>
<time>2022-05-26T13:40:22Z</time>
</trkpt>
<trkpt lat="47.95126" lon="11.171703">
<ele>623.224</ele>
<time>2022-05-26T13:40:23Z</time>
</trkpt>
<trkpt lat="47.951199" lon="11.171682">
<ele>623.223</ele>
<time>2022-05-26T13:40:24Z</time>
</trkpt>
<trkpt lat="47.951138" lon="11.171659">
<ele>623.224</ele>
<time>2022-05-26T13:40:25Z</time>
</trkpt>
<trkpt lat="47.951084" lon="11.171641">
<ele>623.223</ele>
<time>2022-05-26T13:40:26Z</time>
</trkpt>
<trkpt lat="47.951031" lon="11.171625">
<ele>623.224</ele>
<time>2022-05-26T13:40:27Z</time>
</trkpt>
<trkpt lat="47.950966" lon="11.171609">
<ele>623.223</ele>
<time>2022-05-26T13:40:28Z</time>
</trkpt>
<trkpt lat="47.950901" lon="11.171586">
<ele>623.223</ele>
<time>2022-05-26T13:40:29Z</time>
</trkpt>
<trkpt lat="47.950848" lon="11.171552">
<ele>623.224</ele>
<time>2022-05-26T13:40:30Z</time>
</trkpt>
<trkpt lat="47.950794" lon="11.171516">
<ele>623.223</ele>
<time>2022-05-26T13:40:31Z</time>
</trkpt>
<trkpt lat="47.950737" lon="11.171475">
<ele>623.223</ele>
<time>2022-05-26T13:40:32Z</time>
</trkpt>
<trkpt lat="47.950676" lon="11.17143">
<ele>623.223</ele>
<time>2022-05-26T13:40:33Z</time>
</trkpt>
<trkpt lat="47.950623" lon="11.171397">
<ele>623.224</ele>
<time>2022-05-26T13:40:34Z</time>
</trkpt>
<trkpt lat="47.950565" lon="11.171364">
<ele>623.223</ele>
<time>2022-05-26T13:40:35Z</time>
</trkpt>
<trkpt lat="47.950512" lon="11.171309">
<ele>623.223</ele>
<time>2022-05-26T13:40:36Z</time>
</trkpt>
<trkpt lat="47.950462" lon="11.171267">
<ele>623.224</ele>
<time>2022-05-26T13:40:37Z</time>
</trkpt>
<trkpt lat="47.950409" lon="11.171227">
<ele>623.223</ele>
<time>2022-05-26T13:40:38Z</time>
</trkpt>
<trkpt lat="47.950344" lon="11.171188">
<ele>623.223</ele>
<time>2022-05-26T13:40:39Z</time>
</trkpt>
<trkpt lat="47.950283" lon="11.17115">
<ele>623.223</ele>
<time>2022-05-26T13:40:40Z</time>
</trkpt>
<trkpt lat="47.950226" lon="11.171117">
<ele>623.223</ele>
<time>2022-05-26T13:40:41Z</time>
</trkpt>
<trkpt lat="47.950172" lon="11.17109">
<ele>623.223</ele>
<time>2022-05-26T13:40:42Z</time>
</trkpt>
<trkpt lat="47.950115" lon="11.171061">
<ele>623.223</ele>
<time>2022-05-26T13:40:43Z</time>
</trkpt>
<trkpt lat="47.950058" lon="11.171037">
<ele>623.224</ele>
<time>2022-05-26T13:40:44Z</time>
</trkpt>
<trkpt lat="47.950005" lon="11.17101">
<ele>623.223</ele>
<time>2022-05-26T13:40:45Z</time>
</trkpt>
<trkpt lat="47.949951" lon="11.170983">
<ele>623.223</ele>
<time>2022-05-26T13:40:46Z</time>
</trkpt>
<trkpt lat="47.94989" lon="11.170963">
<ele>623.529</ele>
<time>2022-05-26T13:40:47Z</time>
</trkpt>
<trkpt lat="47.949825" lon="11.170943">
<ele>623.773</ele>
<time>2022-05-26T13:40:48Z</time>
</trkpt>
<trkpt lat="47.949768" lon="11.170926">
<ele>623.964</ele>
<time>2022-05-26T13:40:49Z</time>
</trkpt>
<trkpt lat="47.949711" lon="11.170916">
<ele>624.102</ele>
<time>2022-05-26T13:40:50Z</time>
</trkpt>
<trkpt lat="47.949654" lon="11.170901">
<ele>624.19</ele>
<time>2022-05-26T13:40:51Z</time>
</trkpt>
<trkpt lat="47.949596" lon="11.17089">
<ele>624.252</ele>
<time>2022-05-26T13:40:52Z</time>
</trkpt>
<trkpt lat="47.949539" lon="11.170877">
<ele>624.277</ele>
<time>2022-05-26T13:40:53Z</time>
</trkpt>
<trkpt lat="47.949478" lon="11.170863">
<ele>624.277</ele>
<time>2022-05-26T13:40:54Z</time>
</trkpt>
<trkpt lat="47.949417" lon="11.170849">
<ele>624.49</ele>
<time>2022-05-26T13:40:55Z</time>
</trkpt>
<trkpt lat="47.949356" lon="11.170847">
<ele>624.694</ele>
<time>2022-05-26T13:40:56Z</time>
</trkpt>
<trkpt lat="47.949295" lon="11.170834">
<ele>624.864</ele>
<time>2022-05-26T13:40:57Z</time>
</trkpt>
<trkpt lat="47.949238" lon="11.170827">
<ele>624.997</ele>
<time>2022-05-26T13:40:58Z</time>
</trkpt>
<trkpt lat="47.949181" lon="11.170819">
<ele>625.085</ele>
<time>2022-05-26T13:40:59Z</time>
</trkpt>
<trkpt lat="47.949127" lon="11.170815">
<ele>625.401</ele>
<time>2022-05-26T13:41:00Z</time>
</trkpt>
<trkpt lat="47.949078" lon="11.170812">
<ele>625.644</ele>
<time>2022-05-26T13:41:01Z</time>
</trkpt>
<trkpt lat="47.949032" lon="11.170805">
<ele>625.825</ele>
<time>2022-05-26T13:41:02Z</time>
</trkpt>
<trkpt lat="47.948982" lon="11.170792">
<ele>625.97</ele>
<time>2022-05-26T13:41:03Z</time>
</trkpt>
<trkpt lat="47.948929" lon="11.170778">
<ele>626.055</ele>
<time>2022-05-26T13:41:04Z</time>
</trkpt>
<trkpt lat="47.948875" lon="11.170772">
<ele>626.122</ele>
<time>2022-05-26T13:41:05Z</time>
</trkpt>
<trkpt lat="47.948822" lon="11.170767">
<ele>626.181</ele>
<time>2022-05-26T13:41:06Z</time>
</trkpt>
<trkpt lat="47.948776" lon="11.170756">
<ele>626.209</ele>
<time>2022-05-26T13:41:07Z</time>
</trkpt>
<trkpt lat="47.948727" lon="11.170737">
<ele>626.488</ele>
<time>2022-05-26T13:41:08Z</time>
</trkpt>
<trkpt lat="47.948681" lon="11.170729">
<ele>626.707</ele>
<time>2022-05-26T13:41:09Z</time>
</trkpt>
<trkpt lat="47.948635" lon="11.170725">
<ele>626.87</ele>
<time>2022-05-26T13:41:10Z</time>
</trkpt>
<trkpt lat="47.948586" lon="11.170716">
<ele>626.967</ele>
<time>2022-05-26T13:41:11Z</time>
</trkpt>
<trkpt lat="47.94854" lon="11.170711">
<ele>627.302</ele>
<time>2022-05-26T13:41:12Z</time>
</trkpt>
<trkpt lat="47.94849" lon="11.1707">
<ele>627.557</ele>
<time>2022-05-26T13:41:13Z</time>
</trkpt>
<trkpt lat="47.948437" lon="11.170689">
<ele>627.739</ele>
<time>2022-05-26T13:41:14Z</time>
</trkpt>
<trkpt lat="47.948387" lon="11.170677">
<ele>627.875</ele>
<time>2022-05-26T13:41:15Z</time>
</trkpt>
<trkpt lat="47.94833" lon="11.170671">
<ele>627.989</ele>
<time>2022-05-26T13:41:16Z</time>
</trkpt>
<trkpt lat="47.94828" lon="11.170664">
<ele>628.071</ele>
<time>2022-05-26T13:41:17Z</time>
</trkpt>
<trkpt lat="47.948227" lon="11.170651">
<ele>628.116</ele>
<time>2022-05-26T13:41:18Z</time>
</trkpt>
<trkpt lat="47.948177" lon="11.17064">
<ele>628.402</ele>
<time>2022-05-26T13:41:19Z</time>
</trkpt>
<trkpt lat="47.94812" lon="11.170645">
<ele>628.677</ele>
<time>2022-05-26T13:41:20Z</time>
</trkpt>
<trkpt lat="47.948063" lon="11.17064">
<ele>628.849</ele>
<time>2022-05-26T13:41:21Z</time>
</trkpt>
<trkpt lat="47.948013" lon="11.170629">
<ele>628.975</ele>
<time>2022-05-26T13:41:22Z</time>
</trkpt>
<trkpt lat="47.947956" lon="11.170615">
<ele>629.06</ele>
<time>2022-05-26T13:41:23Z</time>
</trkpt>
<trkpt lat="47.947903" lon="11.170607">
<ele>629.12</ele>
<time>2022-05-26T13:41:24Z</time>
</trkpt>
<trkpt lat="47.947853" lon="11.170597">
<ele>629.167</ele>
<time>2022-05-26T13:41:25Z</time>
</trkpt>
<trkpt lat="47.947803" lon="11.170585">
<ele>629.196</ele>
<time>2022-05-26T13:41:26Z</time>
</trkpt>
<trkpt lat="47.94775" lon="11.170576">
<ele>629.481</ele>
<time>2022-05-26T13:41:27Z</time>
</trkpt>
<trkpt lat="47.947701" lon="11.170567">
<ele>629.699</ele>
<time>2022-05-26T13:41:28Z</time>
</trkpt>
<trkpt lat="47.947647" lon="11.170558">
<ele>629.872</ele>
<time>2022-05-26T13:41:29Z</time>
</trkpt>
<trkpt lat="47.947594" lon="11.170548">
<ele>629.998</ele>
<time>2022-05-26T13:41:30Z</time>
</trkpt>
<trkpt lat="47.94754" lon="11.17054">
<ele>630.072</ele>
<time>2022-05-26T13:41:31Z</time>
</trkpt>
<trkpt lat="47.947491" lon="11.17053">
<ele>630.362</ele>
<time>2022-05-26T13:41:32Z</time>
</trkpt>
<trkpt lat="47.947445" lon="11.17052">
<ele>630.566</ele>
<time>2022-05-26T13:41:33Z</time>
</trkpt>
<trkpt lat="47.947395" lon="11.170513">
<ele>630.703</ele>
<time>2022-05-26T13:41:34Z</time>
</trkpt>
<trkpt lat="47.947346" lon="11.170505">
<ele>630.795</ele>
<time>2022-05-26T13:41:35Z</time>
</trkpt>
<trkpt lat="47.947296" lon="11.170499">
<ele>630.896</ele>
<time>2022-05-26T13:41:36Z</time>
</trkpt>
<trkpt lat="47.947247" lon="11.170492">
<ele>630.97</ele>
<time>2022-05-26T13:41:37Z</time>
</trkpt>
<trkpt lat="47.947197" lon="11.170484">
<ele>631.018</ele>
<time>2022-05-26T13:41:38Z</time>
</trkpt>
<trkpt lat="47.947151" lon="11.170471">
<ele>631.041</ele>
<time>2022-05-26T13:41:39Z</time>
</trkpt>
<trkpt lat="47.947109" lon="11.170465">
<ele>631.322</ele>
<time>2022-05-26T13:41:40Z</time>
</trkpt>
<trkpt lat="47.947067" lon="11.17046">
<ele>631.547</ele>
<time>2022-05-26T13:41:41Z</time>
</trkpt>
<trkpt lat="47.947021" lon="11.170452">
<ele>631.715</ele>
<time>2022-05-26T13:41:42Z</time>
</trkpt>
<trkpt lat="47.94698" lon="11.170438">
<ele>631.817</ele>
<time>2022-05-26T13:41:43Z</time>
</trkpt>
<trkpt lat="47.946926" lon="11.170425">
<ele>632.151</ele>
<time>2022-05-26T13:41:44Z</time>
</trkpt>
<trkpt lat="47.946884" lon="11.170404">
<ele>632.401</ele>
<time>2022-05-26T13:41:45Z</time>
</trkpt>
<trkpt lat="47.946831" lon="11.170386">
<ele>632.641</ele>
<time>2022-05-26T13:41:46Z</time>
</trkpt>
<trkpt lat="47.946777" lon="11.170364">
<ele>632.815</ele>
<time>2022-05-26T13:41:47Z</time>
</trkpt>
<trkpt lat="47.946724" lon="11.170343">
<ele>632.923</ele>
<time>2022-05-26T13:41:48Z</time>
</trkpt>
<trkpt lat="47.946663" lon="11.170317">
<ele>632.996</ele>
<time>2022-05-26T13:41:49Z</time>
</trkpt>
<trkpt lat="47.946609" lon="11.17029">
<ele>633.041</ele>
<time>2022-05-26T13:41:50Z</time>
</trkpt>
<trkpt lat="47.946552" lon="11.17026">
<ele>633.062</ele>
<time>2022-05-26T13:41:51Z</time>
</trkpt>
<trkpt lat="47.946499" lon="11.170228">
<ele>633.344</ele>
<time>2022-05-26T13:41:52Z</time>
</trkpt>
<trkpt lat="47.946449" lon="11.170195">
<ele>633.557</ele>
<time>2022-05-26T13:41:53Z</time>
</trkpt>
<trkpt lat="47.946407" lon="11.170161">
<ele>633.716</ele>
<time>2022-05-26T13:41:54Z</time>
</trkpt>
<trkpt lat="47.946369" lon="11.17013">
<ele>633.826</ele>
<time>2022-05-26T13:41:55Z</time>
</trkpt>
<trkpt lat="47.946331" lon="11.170096">
<ele>633.944</ele>
<time>2022-05-26T13:41:56Z</time>
</trkpt>
<trkpt lat="47.946281" lon="11.170061">
<ele>634.028</ele>
<time>2022-05-26T13:41:57Z</time>
</trkpt>
<trkpt lat="47.946239" lon="11.170032">
<ele>634.088</ele>
<time>2022-05-26T13:41:58Z</time>
</trkpt>
<trkpt lat="47.946201" lon="11.169993">
<ele>634.117</ele>
<time>2022-05-26T13:41:59Z</time>
</trkpt>
<trkpt lat="47.946156" lon="11.169946">
<ele>634.117</ele>
<time>2022-05-26T13:42:00Z</time>
</trkpt>
<trkpt lat="47.946117" lon="11.169902">
<ele>634.117</ele>
<time>2022-05-26T13:42:01Z</time>
</trkpt>
<trkpt lat="47.946087" lon="11.169867">
<ele>634.117</ele>
<time>2022-05-26T13:42:02Z</time>
</trkpt>
<trkpt lat="47.946056" lon="11.169837">
<ele>634.117</ele>
<time>2022-05-26T13:42:03Z</time>
</trkpt>
<trkpt lat="47.946022" lon="11.169788">
<ele>634.117</ele>
<time>2022-05-26T13:42:04Z</time>
</trkpt>
<trkpt lat="47.945969" lon="11.169722">
<ele>634.117</ele>
<time>2022-05-26T13:42:05Z</time>
</trkpt>
<trkpt lat="47.945911" lon="11.169667">
<ele>634.117</ele>
<time>2022-05-26T13:42:06Z</time>
</trkpt>
<trkpt lat="47.945847" lon="11.169608">
<ele>634.117</ele>
<time>2022-05-26T13:42:07Z</time>
</trkpt>
<trkpt lat="47.945774" lon="11.169557">
<ele>634.117</ele>
<time>2022-05-26T13:42:08Z</time>
</trkpt>
<trkpt lat="47.945702" lon="11.169505">
<ele>634.117</ele>
<time>2022-05-26T13:42:09Z</time>
</trkpt>
<trkpt lat="47.945633" lon="11.169457">
<ele>634.117</ele>
<time>2022-05-26T13:42:10Z</time>
</trkpt>
<trkpt lat="47.945557" lon="11.1694">
<ele>633.837</ele>
<time>2022-05-26T13:42:11Z</time>
</trkpt>
<trkpt lat="47.945484" lon="11.169345">
<ele>633.393</ele>
<time>2022-05-26T13:42:12Z</time>
</trkpt>
<trkpt lat="47.945389" lon="11.169288">
<ele>632.785</ele>
<time>2022-05-26T13:42:13Z</time>
</trkpt>
<trkpt lat="47.945301" lon="11.169265">
<ele>632.051</ele>
<time>2022-05-26T13:42:14Z</time>
</trkpt>
<trkpt lat="47.945202" lon="11.169247">
<ele>631.165</ele>
<time>2022-05-26T13:42:15Z</time>
</trkpt>
<trkpt lat="47.945091" lon="11.16922">
<ele>630.15</ele>
<time>2022-05-26T13:42:16Z</time>
</trkpt>
<trkpt lat="47.944977" lon="11.16918">
<ele>629.441</ele>
<time>2022-05-26T13:42:17Z</time>
</trkpt>
<trkpt lat="47.944859" lon="11.169133">
<ele>628.6</ele>
<time>2022-05-26T13:42:18Z</time>
</trkpt>
<trkpt lat="47.94474" lon="11.169085">
<ele>627.731</ele>
<time>2022-05-26T13:42:19Z</time>
</trkpt>
<trkpt lat="47.944626" lon="11.169022">
<ele>626.721</ele>
<time>2022-05-26T13:42:20Z</time>
</trkpt>
<trkpt lat="47.944511" lon="11.168948">
<ele>626.096</ele>
<time>2022-05-26T13:42:21Z</time>
</trkpt>
<trkpt lat="47.944408" lon="11.168881">
<ele>625.325</ele>
<time>2022-05-26T13:42:22Z</time>
</trkpt>
<trkpt lat="47.944309" lon="11.168823">
<ele>624.559</ele>
<time>2022-05-26T13:42:23Z</time>
</trkpt>
<trkpt lat="47.944202" lon="11.16877">
<ele>623.683</ele>
<time>2022-05-26T13:42:24Z</time>
</trkpt>
<trkpt lat="47.944096" lon="11.168735">
<ele>623.065</ele>
<time>2022-05-26T13:42:25Z</time>
</trkpt>
<trkpt lat="47.943985" lon="11.168712">
<ele>622.541</ele>
<time>2022-05-26T13:42:26Z</time>
</trkpt>
<trkpt lat="47.943871" lon="11.168705">
<ele>622.197</ele>
<time>2022-05-26T13:42:27Z</time>
</trkpt>
<trkpt lat="47.943764" lon="11.16871">
<ele>621.724</ele>
<time>2022-05-26T13:42:28Z</time>
</trkpt>
<trkpt lat="47.943661" lon="11.16872">
<ele>621.403</ele>
<time>2022-05-26T13:42:29Z</time>
</trkpt>
<trkpt lat="47.943565" lon="11.168733">
<ele>620.902</ele>
<time>2022-05-26T13:42:30Z</time>
</trkpt>
<trkpt lat="47.943459" lon="11.168758">
<ele>620.531</ele>
<time>2022-05-26T13:42:31Z</time>
</trkpt>
<trkpt lat="47.943356" lon="11.16877">
<ele>620.19</ele>
<time>2022-05-26T13:42:32Z</time>
</trkpt>
<trkpt lat="47.943256" lon="11.168768">
<ele>620.012</ele>
<time>2022-05-26T13:42:33Z</time>
</trkpt>
<trkpt lat="47.943161" lon="11.168765">
<ele>619.895</ele>
<time>2022-05-26T13:42:34Z</time>
</trkpt>
<trkpt lat="47.943058" lon="11.16875">
<ele>619.803</ele>
<time>2022-05-26T13:42:35Z</time>
</trkpt>
<trkpt lat="47.94297" lon="11.168724">
<ele>619.741</ele>
<time>2022-05-26T13:42:36Z</time>
</trkpt>
<trkpt lat="47.942875" lon="11.16868">
<ele>619.481</ele>
<time>2022-05-26T13:42:37Z</time>
</trkpt>
<trkpt lat="47.942799" lon="11.168634">
<ele>619.209</ele>
<time>2022-05-26T13:42:38Z</time>
</trkpt>
<trkpt lat="47.942745" lon="11.168603">
<ele>619.045</ele>
<time>2022-05-26T13:42:39Z</time>
</trkpt>
<trkpt lat="47.942703" lon="11.16858">
<ele>618.937</ele>
<time>2022-05-26T13:42:40Z</time>
</trkpt>
<trkpt lat="47.942654" lon="11.168556">
<ele>618.612</ele>
<time>2022-05-26T13:42:41Z</time>
</trkpt>
<trkpt lat="47.942612" lon="11.168535">
<ele>618.37</ele>
<time>2022-05-26T13:42:42Z</time>
</trkpt>
<trkpt lat="47.94257" lon="11.168505">
<ele>618.195</ele>
<time>2022-05-26T13:42:43Z</time>
</trkpt>
<trkpt lat="47.942535" lon="11.16848">
<ele>618.1</ele>
<time>2022-05-26T13:42:44Z</time>
</trkpt>
<trkpt lat="47.942493" lon="11.168455">
<ele>617.786</ele>
<time>2022-05-26T13:42:45Z</time>
</trkpt>
<trkpt lat="47.942444" lon="11.168423">
<ele>617.486</ele>
<time>2022-05-26T13:42:46Z</time>
</trkpt>
<trkpt lat="47.94239" lon="11.168397">
<ele>616.969</ele>
<time>2022-05-26T13:42:47Z</time>
</trkpt>
<trkpt lat="47.942329" lon="11.168368">
<ele>616.615</ele>
<time>2022-05-26T13:42:48Z</time>
</trkpt>
<trkpt lat="47.942265" lon="11.168337">
<ele>616.055</ele>
<time>2022-05-26T13:42:49Z</time>
</trkpt>
<trkpt lat="47.942188" lon="11.168311">
<ele>615.666</ele>
<time>2022-05-26T13:42:50Z</time>
</trkpt>
<trkpt lat="47.942104" lon="11.168292">
<ele>615.026</ele>
<time>2022-05-26T13:42:51Z</time>
</trkpt>
<trkpt lat="47.942013" lon="11.16827">
<ele>614.635</ele>
<time>2022-05-26T13:42:52Z</time>
</trkpt>
<trkpt lat="47.94191" lon="11.16826">
<ele>614.048</ele>
<time>2022-05-26T13:42:53Z</time>
</trkpt>
<trkpt lat="47.941814" lon="11.168251">
<ele>613.415</ele>
<time>2022-05-26T13:42:54Z</time>
</trkpt>
<trkpt lat="47.941715" lon="11.168244">
<ele>612.981</ele>
<time>2022-05-26T13:42:55Z</time>
</trkpt>
<trkpt lat="47.941612" lon="11.168227">
<ele>612.401</ele>
<time>2022-05-26T13:42:56Z</time>
</trkpt>
<trkpt lat="47.941517" lon="11.1682">
<ele>611.669</ele>
<time>2022-05-26T13:42:57Z</time>
</trkpt>
<trkpt lat="47.941429" lon="11.168175">
<ele>611.199</ele>
<time>2022-05-26T13:42:58Z</time>
</trkpt>
<trkpt lat="47.941326" lon="11.168148">
<ele>610.607</ele>
<time>2022-05-26T13:42:59Z</time>
</trkpt>
<trkpt lat="47.941223" lon="11.168132">
<ele>609.862</ele>
<time>2022-05-26T13:43:00Z</time>
</trkpt>
<trkpt lat="47.941132" lon="11.168106">
<ele>609.293</ele>
<time>2022-05-26T13:43:01Z</time>
</trkpt>
<trkpt lat="47.941029" lon="11.16809">
<ele>608.916</ele>
<time>2022-05-26T13:43:02Z</time>
</trkpt>
<trkpt lat="47.940941" lon="11.168085">
<ele>608.354</ele>
<time>2022-05-26T13:43:03Z</time>
</trkpt>
<trkpt lat="47.940853" lon="11.168078">
<ele>607.983</ele>
<time>2022-05-26T13:43:04Z</time>
</trkpt>
<trkpt lat="47.940758" lon="11.168072">
<ele>607.467</ele>
<time>2022-05-26T13:43:05Z</time>
</trkpt>
<trkpt lat="47.940685" lon="11.168056">
<ele>607.049</ele>
<time>2022-05-26T13:43:06Z</time>
</trkpt>
<trkpt lat="47.94062" lon="11.168045">
<ele>606.762</ele>
<time>2022-05-26T13:43:07Z</time>
</trkpt>
<trkpt lat="47.940544" lon="11.168039">
<ele>606.567</ele>
<time>2022-05-26T13:43:08Z</time>
</trkpt>
<trkpt lat="47.940479" lon="11.168032">
<ele>606.201</ele>
<time>2022-05-26T13:43:09Z</time>
</trkpt>
<trkpt lat="47.940403" lon="11.168029">
<ele>605.921</ele>
<time>2022-05-26T13:43:10Z</time>
</trkpt>
<trkpt lat="47.940327" lon="11.168036">
<ele>605.738</ele>
<time>2022-05-26T13:43:11Z</time>
</trkpt>
<trkpt lat="47.94025" lon="11.168041">
<ele>605.355</ele>
<time>2022-05-26T13:43:12Z</time>
</trkpt>
<trkpt lat="47.94009" lon="11.168043">
<ele>605.05</ele>
<time>2022-05-26T13:43:13Z</time>
</trkpt>
<trkpt lat="47.939991" lon="11.168043">
<ele>604.529</ele>
<time>2022-05-26T13:43:14Z</time>
</trkpt>
<trkpt lat="47.93988" lon="11.168043">
<ele>604.178</ele>
<time>2022-05-26T13:43:15Z</time>
</trkpt>
<trkpt lat="47.939777" lon="11.168047">
<ele>603.61</ele>
<time>2022-05-26T13:43:16Z</time>
</trkpt>
<trkpt lat="47.939651" lon="11.168041">
<ele>603.245</ele>
<time>2022-05-26T13:43:17Z</time>
</trkpt>
<trkpt lat="47.939548" lon="11.168038">
<ele>602.68</ele>
<time>2022-05-26T13:43:18Z</time>
</trkpt>
<trkpt lat="47.939449" lon="11.168036">
<ele>602.007</ele>
<time>2022-05-26T13:43:19Z</time>
</trkpt>
<trkpt lat="47.939358" lon="11.168039">
<ele>601.246</ele>
<time>2022-05-26T13:43:20Z</time>
</trkpt>
<trkpt lat="47.939259" lon="11.168045">
<ele>600.752</ele>
<time>2022-05-26T13:43:21Z</time>
</trkpt>
<trkpt lat="47.939171" lon="11.168033">
<ele>599.966</ele>
<time>2022-05-26T13:43:22Z</time>
</trkpt>
<trkpt lat="47.939087" lon="11.168022">
<ele>599.485</ele>
<time>2022-05-26T13:43:23Z</time>
</trkpt>
<trkpt lat="47.939003" lon="11.16801">
<ele>598.78</ele>
<time>2022-05-26T13:43:24Z</time>
</trkpt>
<trkpt lat="47.938934" lon="11.167995">
<ele>598.306</ele>
<time>2022-05-26T13:43:25Z</time>
</trkpt>
<trkpt lat="47.938892" lon="11.167972">
<ele>597.648</ele>
<time>2022-05-26T13:43:26Z</time>
</trkpt>
<trkpt lat="47.938835" lon="11.167957">
<ele>597.203</ele>
<time>2022-05-26T13:43:27Z</time>
</trkpt>
<trkpt lat="47.938793" lon="11.16795">
<ele>596.632</ele>
<time>2022-05-26T13:43:28Z</time>
</trkpt>
<trkpt lat="47.93874" lon="11.167949">
<ele>596.211</ele>
<time>2022-05-26T13:43:29Z</time>
</trkpt>
<trkpt lat="47.938698" lon="11.167943">
<ele>595.646</ele>
<time>2022-05-26T13:43:30Z</time>
</trkpt>
<trkpt lat="47.938641" lon="11.167934">
<ele>595.217</ele>
<time>2022-05-26T13:43:31Z</time>
</trkpt>
<trkpt lat="47.938587" lon="11.167932">
<ele>594.631</ele>
<time>2022-05-26T13:43:32Z</time>
</trkpt>
<trkpt lat="47.938541" lon="11.167924">
<ele>594.143</ele>
<time>2022-05-26T13:43:33Z</time>
</trkpt>
<trkpt lat="47.938492" lon="11.167913">
<ele>593.82</ele>
<time>2022-05-26T13:43:34Z</time>
</trkpt>
<trkpt lat="47.938454" lon="11.167893">
<ele>593.392</ele>
<time>2022-05-26T13:43:35Z</time>
</trkpt>
<trkpt lat="47.938412" lon="11.167865">
<ele>592.763</ele>
<time>2022-05-26T13:43:36Z</time>
</trkpt>
<trkpt lat="47.938385" lon="11.167825">
<ele>592.297</ele>
<time>2022-05-26T13:43:37Z</time>
</trkpt>
<trkpt lat="47.93837" lon="11.167767">
<ele>591.984</ele>
<time>2022-05-26T13:43:38Z</time>
</trkpt>
<trkpt lat="47.938358" lon="11.167691">
<ele>591.47</ele>
<time>2022-05-26T13:43:39Z</time>
</trkpt>
<trkpt lat="47.938351" lon="11.167603">
<ele>591.08</ele>
<time>2022-05-26T13:43:40Z</time>
</trkpt>
<trkpt lat="47.938351" lon="11.167513">
<ele>590.491</ele>
<time>2022-05-26T13:43:41Z</time>
</trkpt>
<trkpt lat="47.938358" lon="11.167427">
<ele>589.808</ele>
<time>2022-05-26T13:43:42Z</time>
</trkpt>
<trkpt lat="47.938381" lon="11.167336">
<ele>588.958</ele>
<time>2022-05-26T13:43:43Z</time>
</trkpt>
<trkpt lat="47.938412" lon="11.167238">
<ele>588.439</ele>
<time>2022-05-26T13:43:44Z</time>
</trkpt>
<trkpt lat="47.938461" lon="11.167149">
<ele>587.731</ele>
<time>2022-05-26T13:43:45Z</time>
</trkpt>
<trkpt lat="47.938503" lon="11.167071">
<ele>586.911</ele>
<time>2022-05-26T13:43:46Z</time>
</trkpt>
<trkpt lat="47.938541" lon="11.167017">
<ele>586.396</ele>
<time>2022-05-26T13:43:47Z</time>
</trkpt>
<trkpt lat="47.93858" lon="11.166962">
<ele>585.646</ele>
<time>2022-05-26T13:43:48Z</time>
</trkpt>
<trkpt lat="47.938625" lon="11.166902">
<ele>585.078</ele>
<time>2022-05-26T13:43:49Z</time>
</trkpt>
<trkpt lat="47.938667" lon="11.166847">
<ele>584.672</ele>
<time>2022-05-26T13:43:50Z</time>
</trkpt>
<trkpt lat="47.938709" lon="11.16679">
<ele>584.395</ele>
<time>2022-05-26T13:43:51Z</time>
</trkpt>
<trkpt lat="47.938747" lon="11.166734">
<ele>584.224</ele>
<time>2022-05-26T13:43:52Z</time>
</trkpt>
<trkpt lat="47.938774" lon="11.166678">
<ele>583.859</ele>
<time>2022-05-26T13:43:53Z</time>
</trkpt>
<trkpt lat="47.938805" lon="11.166629">
<ele>583.582</ele>
<time>2022-05-26T13:43:54Z</time>
</trkpt>
<trkpt lat="47.938828" lon="11.166585">
<ele>583.406</ele>
<time>2022-05-26T13:43:55Z</time>
</trkpt>
<trkpt lat="47.938847" lon="11.166543">
<ele>583.273</ele>
<time>2022-05-26T13:43:56Z</time>
</trkpt>
<trkpt lat="47.938866" lon="11.166493">
<ele>583.168</ele>
<time>2022-05-26T13:43:57Z</time>
</trkpt>
<trkpt lat="47.938877" lon="11.166447">
<ele>583.085</ele>
<time>2022-05-26T13:43:58Z</time>
</trkpt>
<trkpt lat="47.938892" lon="11.166403">
<ele>583.032</ele>
<time>2022-05-26T13:43:59Z</time>
</trkpt>
<trkpt lat="47.9389" lon="11.166363">
<ele>582.767</ele>
<time>2022-05-26T13:44:00Z</time>
</trkpt>
<trkpt lat="47.938911" lon="11.166327">
<ele>582.519</ele>
<time>2022-05-26T13:44:01Z</time>
</trkpt>
<trkpt lat="47.938919" lon="11.166287">
<ele>582.345</ele>
<time>2022-05-26T13:44:02Z</time>
</trkpt>
<trkpt lat="47.938927" lon="11.166246">
<ele>582.21</ele>
<time>2022-05-26T13:44:03Z</time>
</trkpt>
<trkpt lat="47.938931" lon="11.16621">
<ele>582.117</ele>
<time>2022-05-26T13:44:04Z</time>
</trkpt>
<trkpt lat="47.938938" lon="11.166168">
<ele>582.049</ele>
<time>2022-05-26T13:44:05Z</time>
</trkpt>
<trkpt lat="47.93895" lon="11.166128">
<ele>581.982</ele>
<time>2022-05-26T13:44:06Z</time>
</trkpt>
<trkpt lat="47.938961" lon="11.16609">
<ele>581.949</ele>
<time>2022-05-26T13:44:07Z</time>
</trkpt>
<trkpt lat="47.938965" lon="11.166059">
<ele>581.949</ele>
<time>2022-05-26T13:44:08Z</time>
</trkpt>
<trkpt lat="47.938965" lon="11.16604">
<ele>581.694</ele>
<time>2022-05-26T13:44:09Z</time>
</trkpt>
<trkpt lat="47.938965" lon="11.166035">
<ele>581.504</ele>
<time>2022-05-26T13:44:10Z</time>
</trkpt>
<trkpt lat="47.938965" lon="11.166037">
<ele>581.365</ele>
<time>2022-05-26T13:44:11Z</time>
</trkpt>
<trkpt lat="47.938969" lon="11.166018">
<ele>581.244</ele>
<time>2022-05-26T13:44:15Z</time>
</trkpt>
<trkpt lat="47.938965" lon="11.166019">
<ele>581.163</ele>
<time>2022-05-26T13:44:16Z</time>
</trkpt>
<trkpt lat="47.938961" lon="11.166026">
<ele>581.103</ele>
<time>2022-05-26T13:44:17Z</time>
</trkpt>
<trkpt lat="47.938957" lon="11.166042">
<ele>581.038</ele>
<time>2022-05-26T13:44:18Z</time>
</trkpt>
<trkpt lat="47.938957" lon="11.166055">
<ele>580.988</ele>
<time>2022-05-26T13:44:19Z</time>
</trkpt>
<trkpt lat="47.938953" lon="11.166074">
<ele>580.987</ele>
<time>2022-05-26T13:44:20Z</time>
</trkpt>
<trkpt lat="47.938953" lon="11.166093">
<ele>580.987</ele>
<time>2022-05-26T13:44:21Z</time>
</trkpt>
<trkpt lat="47.93895" lon="11.166114">
<ele>580.987</ele>
<time>2022-05-26T13:44:22Z</time>
</trkpt>
<trkpt lat="47.938942" lon="11.166133">
<ele>580.987</ele>
<time>2022-05-26T13:44:23Z</time>
</trkpt>
<trkpt lat="47.938934" lon="11.166155">
<ele>580.987</ele>
<time>2022-05-26T13:44:24Z</time>
</trkpt>
<trkpt lat="47.938934" lon="11.166179">
<ele>580.988</ele>
<time>2022-05-26T13:44:25Z</time>
</trkpt>
<trkpt lat="47.938934" lon="11.166206">
<ele>580.987</ele>
<time>2022-05-26T13:44:26Z</time>
</trkpt>
<trkpt lat="47.938934" lon="11.166237">
<ele>580.987</ele>
<time>2022-05-26T13:44:27Z</time>
</trkpt>
<trkpt lat="47.938931" lon="11.166266">
<ele>580.988</ele>
<time>2022-05-26T13:44:28Z</time>
</trkpt>
<trkpt lat="47.938919" lon="11.166298">
<ele>580.987</ele>
<time>2022-05-26T13:44:29Z</time>
</trkpt>
<trkpt lat="47.938904" lon="11.166331">
<ele>580.987</ele>
<time>2022-05-26T13:44:30Z</time>
</trkpt>
<trkpt lat="47.938892" lon="11.166368">
<ele>580.987</ele>
<time>2022-05-26T13:44:31Z</time>
</trkpt>
<trkpt lat="47.938881" lon="11.166409">
<ele>580.988</ele>
<time>2022-05-26T13:44:32Z</time>
</trkpt>
<trkpt lat="47.938869" lon="11.166447">
<ele>580.987</ele>
<time>2022-05-26T13:44:33Z</time>
</trkpt>
<trkpt lat="47.938858" lon="11.166487">
<ele>580.987</ele>
<time>2022-05-26T13:44:34Z</time>
</trkpt>
<trkpt lat="47.938843" lon="11.166527">
<ele>580.987</ele>
<time>2022-05-26T13:44:35Z</time>
</trkpt>
<trkpt lat="47.938831" lon="11.166564">
<ele>580.987</ele>
<time>2022-05-26T13:44:36Z</time>
</trkpt>
<trkpt lat="47.938812" lon="11.166602">
<ele>581.253</ele>
<time>2022-05-26T13:44:37Z</time>
</trkpt>
<trkpt lat="47.938789" lon="11.166638">
<ele>581.432</ele>
<time>2022-05-26T13:44:38Z</time>
</trkpt>
<trkpt lat="47.93877" lon="11.166676">
<ele>581.619</ele>
<time>2022-05-26T13:44:39Z</time>
</trkpt>
<trkpt lat="47.938747" lon="11.166711">
<ele>581.768</ele>
<time>2022-05-26T13:44:40Z</time>
</trkpt>
<trkpt lat="47.938728" lon="11.166743">
<ele>581.881</ele>
<time>2022-05-26T13:44:41Z</time>
</trkpt>
<trkpt lat="47.938705" lon="11.166777">
<ele>581.961</ele>
<time>2022-05-26T13:44:42Z</time>
</trkpt>
<trkpt lat="47.938679" lon="11.166807">
<ele>582.012</ele>
<time>2022-05-26T13:44:43Z</time>
</trkpt>
<trkpt lat="47.938652" lon="11.166837">
<ele>582.037</ele>
<time>2022-05-26T13:44:44Z</time>
</trkpt>
<trkpt lat="47.938625" lon="11.166866">
<ele>582.037</ele>
<time>2022-05-26T13:44:45Z</time>
</trkpt>
<trkpt lat="47.938602" lon="11.166899">
<ele>582.037</ele>
<time>2022-05-26T13:44:46Z</time>
</trkpt>
<trkpt lat="47.938576" lon="11.166926">
<ele>582.295</ele>
<time>2022-05-26T13:44:47Z</time>
</trkpt>
<trkpt lat="47.938549" lon="11.166958">
<ele>582.479</ele>
<time>2022-05-26T13:44:48Z</time>
</trkpt>
<trkpt lat="47.93853" lon="11.166988">
<ele>582.665</ele>
<time>2022-05-26T13:44:49Z</time>
</trkpt>
<trkpt lat="47.938507" lon="11.167019">
<ele>582.812</ele>
<time>2022-05-26T13:44:50Z</time>
</trkpt>
<trkpt lat="47.93848" lon="11.167048">
<ele>582.911</ele>
<time>2022-05-26T13:44:51Z</time>
</trkpt>
<trkpt lat="47.938457" lon="11.167078">
<ele>583.208</ele>
<time>2022-05-26T13:44:52Z</time>
</trkpt>
<trkpt lat="47.938435" lon="11.16711">
<ele>583.444</ele>
<time>2022-05-26T13:44:53Z</time>
</trkpt>
<trkpt lat="47.938412" lon="11.167142">
<ele>583.621</ele>
<time>2022-05-26T13:44:54Z</time>
</trkpt>
<trkpt lat="47.938393" lon="11.167175">
<ele>583.777</ele>
<time>2022-05-26T13:44:55Z</time>
</trkpt>
<trkpt lat="47.938374" lon="11.167208">
<ele>583.831</ele>
<time>2022-05-26T13:44:56Z</time>
</trkpt>
<trkpt lat="47.938354" lon="11.167238">
<ele>584.121</ele>
<time>2022-05-26T13:44:57Z</time>
</trkpt>
<trkpt lat="47.938343" lon="11.167265">
<ele>584.331</ele>
<time>2022-05-26T13:44:58Z</time>
</trkpt>
<trkpt lat="47.938328" lon="11.167294">
<ele>584.523</ele>
<time>2022-05-26T13:44:59Z</time>
</trkpt>
<trkpt lat="47.938316" lon="11.167323">
<ele>584.656</ele>
<time>2022-05-26T13:45:00Z</time>
</trkpt>
<trkpt lat="47.938305" lon="11.167355">
<ele>584.762</ele>
<time>2022-05-26T13:45:01Z</time>
</trkpt>
<trkpt lat="47.938293" lon="11.167388">
<ele>584.837</ele>
<time>2022-05-26T13:45:02Z</time>
</trkpt>
<trkpt lat="47.938282" lon="11.16742">
<ele>585.118</ele>
<time>2022-05-26T13:45:03Z</time>
</trkpt>
<trkpt lat="47.938271" lon="11.167448">
<ele>585.343</ele>
<time>2022-05-26T13:45:04Z</time>
</trkpt>
<trkpt lat="47.938267" lon="11.167472">
<ele>585.542</ele>
<time>2022-05-26T13:45:05Z</time>
</trkpt>
<trkpt lat="47.938263" lon="11.167478">
<ele>585.657</ele>
<time>2022-05-26T13:45:06Z</time>
</trkpt>
<trkpt lat="47.938263" lon="11.167476">
<ele>585.72</ele>
<time>2022-05-26T13:45:07Z</time>
</trkpt>
<trkpt lat="47.938259" lon="11.167474">
<ele>585.989</ele>
<time>2022-05-26T13:45:08Z</time>
</trkpt>
<trkpt lat="47.938259" lon="11.167472">
<ele>586.208</ele>
<time>2022-05-26T13:45:09Z</time>
</trkpt>
<trkpt lat="47.938232" lon="11.167503">
<ele>586.414</ele>
<time>2022-05-26T13:45:25Z</time>
</trkpt>
<trkpt lat="47.938232" lon="11.16751">
<ele>586.566</ele>
<time>2022-05-26T13:45:26Z</time>
</trkpt>
<trkpt lat="47.938229" lon="11.167523">
<ele>586.707</ele>
<time>2022-05-26T13:45:27Z</time>
</trkpt>
<trkpt lat="47.938229" lon="11.167534">
<ele>586.83</ele>
<time>2022-05-26T13:45:28Z</time>
</trkpt>
<trkpt lat="47.938251" lon="11.167509">
<ele>586.921</ele>
<time>2022-05-26T13:45:58Z</time>
</trkpt>
<trkpt lat="47.938267" lon="11.167478">
<ele>586.935</ele>
<time>2022-05-26T13:45:59Z</time>
</trkpt>
<trkpt lat="47.938278" lon="11.167441">
<ele>586.936</ele>
<time>2022-05-26T13:46:00Z</time>
</trkpt>
<trkpt lat="47.938301" lon="11.167392">
<ele>586.935</ele>
<time>2022-05-26T13:46:01Z</time>
</trkpt>
<trkpt lat="47.938328" lon="11.167327">
<ele>586.664</ele>
<time>2022-05-26T13:46:02Z</time>
</trkpt>
<trkpt lat="47.938354" lon="11.167253">
<ele>586.306</ele>
<time>2022-05-26T13:46:03Z</time>
</trkpt>
<trkpt lat="47.938385" lon="11.167171">
<ele>586.151</ele>
<time>2022-05-26T13:46:04Z</time>
</trkpt>
<trkpt lat="47.938427" lon="11.167096">
<ele>586.078</ele>
<time>2022-05-26T13:46:05Z</time>
</trkpt>
<trkpt lat="47.938477" lon="11.167029">
<ele>585.688</ele>
<time>2022-05-26T13:46:06Z</time>
</trkpt>
<trkpt lat="47.938534" lon="11.166956">
<ele>585.383</ele>
<time>2022-05-26T13:46:07Z</time>
</trkpt>
<trkpt lat="47.938591" lon="11.166883">
<ele>585.231</ele>
<time>2022-05-26T13:46:08Z</time>
</trkpt>
<trkpt lat="47.938648" lon="11.166812">
<ele>584.82</ele>
<time>2022-05-26T13:46:09Z</time>
</trkpt>
<trkpt lat="47.938705" lon="11.166734">
<ele>584.491</ele>
<time>2022-05-26T13:46:10Z</time>
</trkpt>
<trkpt lat="47.938759" lon="11.166652">
<ele>584.33</ele>
<time>2022-05-26T13:46:11Z</time>
</trkpt>
<trkpt lat="47.938812" lon="11.166564">
<ele>583.951</ele>
<time>2022-05-26T13:46:12Z</time>
</trkpt>
<trkpt lat="47.938854" lon="11.166462">
<ele>583.631</ele>
<time>2022-05-26T13:46:13Z</time>
</trkpt>
<trkpt lat="47.938881" lon="11.166353">
<ele>583.408</ele>
<time>2022-05-26T13:46:14Z</time>
</trkpt>
<trkpt lat="47.9389" lon="11.16625">
<ele>583.266</ele>
<time>2022-05-26T13:46:15Z</time>
</trkpt>
<trkpt lat="47.938919" lon="11.166143">
<ele>582.885</ele>
<time>2022-05-26T13:46:16Z</time>
</trkpt>
<trkpt lat="47.938934" lon="11.166037">
<ele>582.601</ele>
<time>2022-05-26T13:46:17Z</time>
</trkpt>
<trkpt lat="47.938946" lon="11.165938">
<ele>582.415</ele>
<time>2022-05-26T13:46:18Z</time>
</trkpt>
<trkpt lat="47.938957" lon="11.165855">
<ele>582.016</ele>
<time>2022-05-26T13:46:19Z</time>
</trkpt>
<trkpt lat="47.938965" lon="11.165789">
<ele>581.678</ele>
<time>2022-05-26T13:46:20Z</time>
</trkpt>
<trkpt lat="47.938969" lon="11.16573">
<ele>581.474</ele>
<time>2022-05-26T13:46:21Z</time>
</trkpt>
<trkpt lat="47.938969" lon="11.165676">
<ele>581.307</ele>
<time>2022-05-26T13:46:22Z</time>
</trkpt>
<trkpt lat="47.938969" lon="11.165622">
<ele>581.165</ele>
<time>2022-05-26T13:46:23Z</time>
</trkpt>
<trkpt lat="47.938969" lon="11.165563">
<ele>581.084</ele>
<time>2022-05-26T13:46:24Z</time>
</trkpt>
<trkpt lat="47.938969" lon="11.165502">
<ele>580.817</ele>
<time>2022-05-26T13:46:25Z</time>
</trkpt>
<trkpt lat="47.938969" lon="11.165445">
<ele>580.593</ele>
<time>2022-05-26T13:46:26Z</time>
</trkpt>
<trkpt lat="47.938976" lon="11.165395">
<ele>580.354</ele>
<time>2022-05-26T13:46:27Z</time>
</trkpt>
<trkpt lat="47.938984" lon="11.165355">
<ele>580.221</ele>
<time>2022-05-26T13:46:28Z</time>
</trkpt>
<trkpt lat="47.938992" lon="11.165318">
<ele>580.132</ele>
<time>2022-05-26T13:46:29Z</time>
</trkpt>
<trkpt lat="47.938995" lon="11.165286">
<ele>580.073</ele>
<time>2022-05-26T13:46:30Z</time>
</trkpt>
<trkpt lat="47.938999" lon="11.16526">
<ele>580.049</ele>
<time>2022-05-26T13:46:31Z</time>
</trkpt>
<trkpt lat="47.938995" lon="11.165242">
<ele>580.026</ele>
<time>2022-05-26T13:46:32Z</time>
</trkpt>
<trkpt lat="47.938995" lon="11.165236">
<ele>580.026</ele>
<time>2022-05-26T13:46:33Z</time>
</trkpt>
<trkpt lat="47.938995" lon="11.165227">
<ele>580.026</ele>
<time>2022-05-26T13:46:34Z</time>
</trkpt>
<trkpt lat="47.938992" lon="11.165212">
<ele>580.026</ele>
<time>2022-05-26T13:46:35Z</time>
</trkpt>
<trkpt lat="47.938984" lon="11.165181">
<ele>579.819</ele>
<time>2022-05-26T13:46:36Z</time>
</trkpt>
<trkpt lat="47.93898" lon="11.165152">
<ele>579.633</ele>
<time>2022-05-26T13:46:37Z</time>
</trkpt>
<trkpt lat="47.93898" lon="11.165112">
<ele>579.457</ele>
<time>2022-05-26T13:46:38Z</time>
</trkpt>
<trkpt lat="47.93898" lon="11.165069">
<ele>579.307</ele>
<time>2022-05-26T13:46:39Z</time>
</trkpt>
<trkpt lat="47.93898" lon="11.16502">
<ele>579.226</ele>
<time>2022-05-26T13:46:40Z</time>
</trkpt>
<trkpt lat="47.938988" lon="11.164966">
<ele>579.171</ele>
<time>2022-05-26T13:46:41Z</time>
</trkpt>
<trkpt lat="47.938995" lon="11.164908">
<ele>579.159</ele>
<time>2022-05-26T13:46:42Z</time>
</trkpt>
<trkpt lat="47.938999" lon="11.16485">
<ele>579.151</ele>
<time>2022-05-26T13:46:43Z</time>
</trkpt>
<trkpt lat="47.939003" lon="11.16479">
<ele>579.151</ele>
<time>2022-05-26T13:46:44Z</time>
</trkpt>
<trkpt lat="47.939011" lon="11.164728">
<ele>579.151</ele>
<time>2022-05-26T13:46:45Z</time>
</trkpt>
<trkpt lat="47.939018" lon="11.164665">
<ele>579.151</ele>
<time>2022-05-26T13:46:46Z</time>
</trkpt>
<trkpt lat="47.939026" lon="11.1646">
<ele>579.151</ele>
<time>2022-05-26T13:46:47Z</time>
</trkpt>
<trkpt lat="47.93903" lon="11.164535">
<ele>578.885</ele>
<time>2022-05-26T13:46:48Z</time>
</trkpt>
<trkpt lat="47.939034" lon="11.16447">
<ele>578.689</ele>
<time>2022-05-26T13:46:49Z</time>
</trkpt>
<trkpt lat="47.939034" lon="11.164402">
<ele>578.534</ele>
<time>2022-05-26T13:46:50Z</time>
</trkpt>
<trkpt lat="47.939037" lon="11.164329">
<ele>578.421</ele>
<time>2022-05-26T13:46:51Z</time>
</trkpt>
<trkpt lat="47.939037" lon="11.164249">
<ele>578.344</ele>
<time>2022-05-26T13:46:52Z</time>
</trkpt>
<trkpt lat="47.939041" lon="11.164175">
<ele>578.264</ele>
<time>2022-05-26T13:46:53Z</time>
</trkpt>
<trkpt lat="47.939049" lon="11.164099">
<ele>578.213</ele>
<time>2022-05-26T13:46:54Z</time>
</trkpt>
<trkpt lat="47.93906" lon="11.164021">
<ele>578.19</ele>
<time>2022-05-26T13:46:55Z</time>
</trkpt>
<trkpt lat="47.939064" lon="11.163939">
<ele>577.908</ele>
<time>2022-05-26T13:46:56Z</time>
</trkpt>
<trkpt lat="47.939072" lon="11.163854">
<ele>577.696</ele>
<time>2022-05-26T13:46:57Z</time>
</trkpt>
<trkpt lat="47.939087" lon="11.163772">
<ele>577.54</ele>
<time>2022-05-26T13:46:58Z</time>
</trkpt>
<trkpt lat="47.939102" lon="11.163695">
<ele>577.423</ele>
<time>2022-05-26T13:46:59Z</time>
</trkpt>
<trkpt lat="47.939114" lon="11.163607">
<ele>577.361</ele>
<time>2022-05-26T13:47:00Z</time>
</trkpt>
<trkpt lat="47.939114" lon="11.163518">
<ele>577.083</ele>
<time>2022-05-26T13:47:01Z</time>
</trkpt>
<trkpt lat="47.939114" lon="11.163428">
<ele>576.883</ele>
<time>2022-05-26T13:47:02Z</time>
</trkpt>
<trkpt lat="47.93911" lon="11.163344">
<ele>576.702</ele>
<time>2022-05-26T13:47:03Z</time>
</trkpt>
<trkpt lat="47.939102" lon="11.16326">
<ele>576.581</ele>
<time>2022-05-26T13:47:04Z</time>
</trkpt>
<trkpt lat="47.939098" lon="11.163181">
<ele>576.497</ele>
<time>2022-05-26T13:47:05Z</time>
</trkpt>
<trkpt lat="47.939095" lon="11.1631">
<ele>576.169</ele>
<time>2022-05-26T13:47:06Z</time>
</trkpt>
<trkpt lat="47.939083" lon="11.163019">
<ele>575.943</ele>
<time>2022-05-26T13:47:07Z</time>
</trkpt>
<trkpt lat="47.939075" lon="11.162937">
<ele>575.51</ele>
<time>2022-05-26T13:47:08Z</time>
</trkpt>
<trkpt lat="47.939064" lon="11.162849">
<ele>575.099</ele>
<time>2022-05-26T13:47:09Z</time>
</trkpt>
<trkpt lat="47.939045" lon="11.162762">
<ele>574.885</ele>
<time>2022-05-26T13:47:10Z</time>
</trkpt>
<trkpt lat="47.93903" lon="11.162663">
<ele>574.358</ele>
<time>2022-05-26T13:47:11Z</time>
</trkpt>
<trkpt lat="47.939007" lon="11.162557">
<ele>573.973</ele>
<time>2022-05-26T13:47:12Z</time>
</trkpt>
<trkpt lat="47.938984" lon="11.162448">
<ele>573.336</ele>
<time>2022-05-26T13:47:13Z</time>
</trkpt>
<trkpt lat="47.93895" lon="11.162338">
<ele>572.941</ele>
<time>2022-05-26T13:47:14Z</time>
</trkpt>
<trkpt lat="47.938908" lon="11.162235">
<ele>572.362</ele>
<time>2022-05-26T13:47:15Z</time>
</trkpt>
<trkpt lat="47.938854" lon="11.162139">
<ele>571.69</ele>
<time>2022-05-26T13:47:16Z</time>
</trkpt>
<trkpt lat="47.938786" lon="11.16206">
<ele>570.832</ele>
<time>2022-05-26T13:47:17Z</time>
</trkpt>
<trkpt lat="47.938705" lon="11.161997">
<ele>570.275</ele>
<time>2022-05-26T13:47:18Z</time>
</trkpt>
<trkpt lat="47.938622" lon="11.161946">
<ele>569.515</ele>
<time>2022-05-26T13:47:19Z</time>
</trkpt>
<trkpt lat="47.938526" lon="11.161913">
<ele>569.007</ele>
<time>2022-05-26T13:47:20Z</time>
</trkpt>
<trkpt lat="47.938427" lon="11.161886">
<ele>568.292</ele>
<time>2022-05-26T13:47:21Z</time>
</trkpt>
<trkpt lat="47.938339" lon="11.161861">
<ele>567.824</ele>
<time>2022-05-26T13:47:22Z</time>
</trkpt>
<trkpt lat="47.938259" lon="11.161829">
<ele>567.215</ele>
<time>2022-05-26T13:47:23Z</time>
</trkpt>
<trkpt lat="47.93819" lon="11.161777">
<ele>566.827</ele>
<time>2022-05-26T13:47:24Z</time>
</trkpt>
<trkpt lat="47.938129" lon="11.161708">
<ele>566.257</ele>
<time>2022-05-26T13:47:25Z</time>
</trkpt>
<trkpt lat="47.938084" lon="11.16163">
<ele>565.865</ele>
<time>2022-05-26T13:47:26Z</time>
</trkpt>
<trkpt lat="47.938049" lon="11.161547">
<ele>565.296</ele>
<time>2022-05-26T13:47:27Z</time>
</trkpt>
<trkpt lat="47.938019" lon="11.161454">
<ele>564.891</ele>
<time>2022-05-26T13:47:28Z</time>
</trkpt>
<trkpt lat="47.937992" lon="11.161356">
<ele>564.315</ele>
<time>2022-05-26T13:47:29Z</time>
</trkpt>
<trkpt lat="47.937969" lon="11.161255">
<ele>563.885</ele>
<time>2022-05-26T13:47:30Z</time>
</trkpt>
<trkpt lat="47.937946" lon="11.161152">
<ele>563.287</ele>
<time>2022-05-26T13:47:31Z</time>
</trkpt>
<trkpt lat="47.93792" lon="11.161054">
<ele>562.549</ele>
<time>2022-05-26T13:47:32Z</time>
</trkpt>
<trkpt lat="47.937893" lon="11.160956">
<ele>561.652</ele>
<time>2022-05-26T13:47:33Z</time>
</trkpt>
<trkpt lat="47.937862" lon="11.16086">
<ele>561.017</ele>
<time>2022-05-26T13:47:34Z</time>
</trkpt>
<trkpt lat="47.937843" lon="11.160761">
<ele>560.269</ele>
<time>2022-05-26T13:47:35Z</time>
</trkpt>
<trkpt lat="47.937824" lon="11.160664">
<ele>559.416</ele>
<time>2022-05-26T13:47:36Z</time>
</trkpt>
<trkpt lat="47.937805" lon="11.16056">
<ele>558.478</ele>
<time>2022-05-26T13:47:37Z</time>
</trkpt>
<trkpt lat="47.937786" lon="11.160459">
<ele>557.83</ele>
<time>2022-05-26T13:47:38Z</time>
</trkpt>
<trkpt lat="47.937778" lon="11.160363">
<ele>557.047</ele>
<time>2022-05-26T13:47:39Z</time>
</trkpt>
<trkpt lat="47.937759" lon="11.160292">
<ele>556.189</ele>
<time>2022-05-26T13:47:40Z</time>
</trkpt>
<trkpt lat="47.937748" lon="11.160205">
<ele>555.542</ele>
<time>2022-05-26T13:47:41Z</time>
</trkpt>
<trkpt lat="47.937744" lon="11.160107">
<ele>555.112</ele>
<time>2022-05-26T13:47:42Z</time>
</trkpt>
<trkpt lat="47.937733" lon="11.160026">
<ele>554.529</ele>
<time>2022-05-26T13:47:43Z</time>
</trkpt>
<trkpt lat="47.937725" lon="11.159952">
<ele>554.11</ele>
<time>2022-05-26T13:47:44Z</time>
</trkpt>
<trkpt lat="47.937714" lon="11.159873">
<ele>553.808</ele>
<time>2022-05-26T13:47:45Z</time>
</trkpt>
<trkpt lat="47.93771" lon="11.159772">
<ele>553.613</ele>
<time>2022-05-26T13:47:46Z</time>
</trkpt>
<trkpt lat="47.937698" lon="11.159661">
<ele>553.199</ele>
<time>2022-05-26T13:47:47Z</time>
</trkpt>
<trkpt lat="47.937687" lon="11.159539">
<ele>552.884</ele>
<time>2022-05-26T13:47:48Z</time>
</trkpt>
<trkpt lat="47.93766" lon="11.159415">
<ele>552.709</ele>
<time>2022-05-26T13:47:49Z</time>
</trkpt>
<trkpt lat="47.93763" lon="11.15929">
<ele>552.239</ele>
<time>2022-05-26T13:47:50Z</time>
</trkpt>
<trkpt lat="47.937607" lon="11.159166">
<ele>551.929</ele>
<time>2022-05-26T13:47:51Z</time>
</trkpt>
<trkpt lat="47.937588" lon="11.159055">
<ele>551.327</ele>
<time>2022-05-26T13:47:52Z</time>
</trkpt>
<trkpt lat="47.937569" lon="11.158957">
<ele>550.605</ele>
<time>2022-05-26T13:47:53Z</time>
</trkpt>
<trkpt lat="47.93755" lon="11.158848">
<ele>550.077</ele>
<time>2022-05-26T13:47:54Z</time>
</trkpt>
<trkpt lat="47.937523" lon="11.158747">
<ele>549.728</ele>
<time>2022-05-26T13:47:55Z</time>
</trkpt>
<trkpt lat="47.9375" lon="11.158647">
<ele>549.186</ele>
<time>2022-05-26T13:47:56Z</time>
</trkpt>
<trkpt lat="47.937473" lon="11.158553">
<ele>548.803</ele>
<time>2022-05-26T13:47:57Z</time>
</trkpt>
<trkpt lat="47.937435" lon="11.158464">
<ele>548.22</ele>
<time>2022-05-26T13:47:58Z</time>
</trkpt>
<trkpt lat="47.937401" lon="11.158383">
<ele>547.763</ele>
<time>2022-05-26T13:47:59Z</time>
</trkpt>
<trkpt lat="47.937351" lon="11.15831">
<ele>547.434</ele>
<time>2022-05-26T13:48:00Z</time>
</trkpt>
<trkpt lat="47.937298" lon="11.158238">
<ele>547.205</ele>
<time>2022-05-26T13:48:01Z</time>
</trkpt>
<trkpt lat="47.937248" lon="11.158169">
<ele>547.075</ele>
<time>2022-05-26T13:48:02Z</time>
</trkpt>
<trkpt lat="47.937206" lon="11.158104">
<ele>546.757</ele>
<time>2022-05-26T13:48:03Z</time>
</trkpt>
<trkpt lat="47.937157" lon="11.158031">
<ele>546.279</ele>
<time>2022-05-26T13:48:04Z</time>
</trkpt>
<trkpt lat="47.937115" lon="11.157955">
<ele>545.901</ele>
<time>2022-05-26T13:48:05Z</time>
</trkpt>
<trkpt lat="47.937077" lon="11.157878">
<ele>545.86</ele>
<time>2022-05-26T13:48:06Z</time>
</trkpt>
<trkpt lat="47.937035" lon="11.157802">
<ele>545.84</ele>
<time>2022-05-26T13:48:07Z</time>
</trkpt>
<trkpt lat="47.936993" lon="11.157725">
<ele>545.84</ele>
<time>2022-05-26T13:48:08Z</time>
</trkpt>
<trkpt lat="47.936947" lon="11.157652">
<ele>545.859</ele>
<time>2022-05-26T13:48:09Z</time>
</trkpt>
<trkpt lat="47.936901" lon="11.157583">
<ele>545.896</ele>
<time>2022-05-26T13:48:10Z</time>
</trkpt>
<trkpt lat="47.936852" lon="11.157516">
<ele>545.722</ele>
<time>2022-05-26T13:48:11Z</time>
</trkpt>
<trkpt lat="47.936806" lon="11.157454">
<ele>545.606</ele>
<time>2022-05-26T13:48:12Z</time>
</trkpt>
<trkpt lat="47.936749" lon="11.157405">
<ele>545.64</ele>
<time>2022-05-26T13:48:13Z</time>
</trkpt>
<trkpt lat="47.936691" lon="11.157369">
<ele>545.621</ele>
<time>2022-05-26T13:48:14Z</time>
</trkpt>
<trkpt lat="47.936626" lon="11.157342">
<ele>545.148</ele>
<time>2022-05-26T13:48:15Z</time>
</trkpt>
<trkpt lat="47.936562" lon="11.157323">
<ele>544.789</ele>
<time>2022-05-26T13:48:16Z</time>
</trkpt>
<trkpt lat="47.936497" lon="11.157312">
<ele>544.562</ele>
<time>2022-05-26T13:48:17Z</time>
</trkpt>
<trkpt lat="47.936428" lon="11.157304">
<ele>544.099</ele>
<time>2022-05-26T13:48:18Z</time>
</trkpt>
<trkpt lat="47.936359" lon="11.1573">
<ele>543.773</ele>
<time>2022-05-26T13:48:19Z</time>
</trkpt>
<trkpt lat="47.936283" lon="11.157302">
<ele>543.552</ele>
<time>2022-05-26T13:48:20Z</time>
</trkpt>
<trkpt lat="47.936207" lon="11.157306">
<ele>543.434</ele>
<time>2022-05-26T13:48:21Z</time>
</trkpt>
<trkpt lat="47.936134" lon="11.157309">
<ele>543.048</ele>
<time>2022-05-26T13:48:22Z</time>
</trkpt>
<trkpt lat="47.936066" lon="11.15731">
<ele>542.715</ele>
<time>2022-05-26T13:48:23Z</time>
</trkpt>
<trkpt lat="47.935993" lon="11.157307">
<ele>542.214</ele>
<time>2022-05-26T13:48:24Z</time>
</trkpt>
<trkpt lat="47.935913" lon="11.157298">
<ele>541.871</ele>
<time>2022-05-26T13:48:25Z</time>
</trkpt>
<trkpt lat="47.935841" lon="11.157283">
<ele>541.336</ele>
<time>2022-05-26T13:48:26Z</time>
</trkpt>
<trkpt lat="47.935772" lon="11.15727">
<ele>540.919</ele>
<time>2022-05-26T13:48:27Z</time>
</trkpt>
<trkpt lat="47.935699" lon="11.157255">
<ele>540.594</ele>
<time>2022-05-26T13:48:28Z</time>
</trkpt>
<trkpt lat="47.935631" lon="11.157232">
<ele>540.393</ele>
<time>2022-05-26T13:48:29Z</time>
</trkpt>
<trkpt lat="47.935562" lon="11.157195">
<ele>539.934</ele>
<time>2022-05-26T13:48:30Z</time>
</trkpt>
<trkpt lat="47.935497" lon="11.15714">
<ele>539.665</ele>
<time>2022-05-26T13:48:31Z</time>
</trkpt>
<trkpt lat="47.93544" lon="11.157067">
<ele>539.477</ele>
<time>2022-05-26T13:48:32Z</time>
</trkpt>
<trkpt lat="47.935394" lon="11.156985">
<ele>539.297</ele>
<time>2022-05-26T13:48:33Z</time>
</trkpt>
<trkpt lat="47.935356" lon="11.156892">
<ele>539.176</ele>
<time>2022-05-26T13:48:34Z</time>
</trkpt>
<trkpt lat="47.935322" lon="11.156792">
<ele>539.09</ele>
<time>2022-05-26T13:48:35Z</time>
</trkpt>
<trkpt lat="47.935284" lon="11.15669">
<ele>539.037</ele>
<time>2022-05-26T13:48:36Z</time>
</trkpt>
<trkpt lat="47.935257" lon="11.156585">
<ele>539.011</ele>
<time>2022-05-26T13:48:37Z</time>
</trkpt>
<trkpt lat="47.93523" lon="11.156488">
<ele>539.011</ele>
<time>2022-05-26T13:48:38Z</time>
</trkpt>
<trkpt lat="47.9352" lon="11.156393">
<ele>539.011</ele>
<time>2022-05-26T13:48:39Z</time>
</trkpt>
<trkpt lat="47.935162" lon="11.156301">
<ele>539.011</ele>
<time>2022-05-26T13:48:40Z</time>
</trkpt>
<trkpt lat="47.935123" lon="11.156205">
<ele>538.778</ele>
<time>2022-05-26T13:48:41Z</time>
</trkpt>
<trkpt lat="47.935085" lon="11.15611">
<ele>538.614</ele>
<time>2022-05-26T13:48:42Z</time>
</trkpt>
<trkpt lat="47.93504" lon="11.156024">
<ele>538.446</ele>
<time>2022-05-26T13:48:43Z</time>
</trkpt>
<trkpt lat="47.93499" lon="11.155945">
<ele>538.322</ele>
<time>2022-05-26T13:48:44Z</time>
</trkpt>
<trkpt lat="47.93494" lon="11.155862">
<ele>537.997</ele>
<time>2022-05-26T13:48:45Z</time>
</trkpt>
<trkpt lat="47.934891" lon="11.155777">
<ele>537.734</ele>
<time>2022-05-26T13:48:46Z</time>
</trkpt>
<trkpt lat="47.93483" lon="11.155697">
<ele>537.57</ele>
<time>2022-05-26T13:48:47Z</time>
</trkpt>
<trkpt lat="47.934772" lon="11.155608">
<ele>537.136</ele>
<time>2022-05-26T13:48:48Z</time>
</trkpt>
<trkpt lat="47.934719" lon="11.155521">
<ele>536.735</ele>
<time>2022-05-26T13:48:49Z</time>
</trkpt>
<trkpt lat="47.934662" lon="11.155438">
<ele>536.55</ele>
<time>2022-05-26T13:48:50Z</time>
</trkpt>
<trkpt lat="47.934593" lon="11.155365">
<ele>536.13</ele>
<time>2022-05-26T13:48:51Z</time>
</trkpt>
<trkpt lat="47.934525" lon="11.155293">
<ele>535.824</ele>
<time>2022-05-26T13:48:52Z</time>
</trkpt>
<trkpt lat="47.934452" lon="11.155236">
<ele>535.362</ele>
<time>2022-05-26T13:48:53Z</time>
</trkpt>
<trkpt lat="47.934368" lon="11.155191">
<ele>534.741</ele>
<time>2022-05-26T13:48:54Z</time>
</trkpt>
<trkpt lat="47.93428" lon="11.155158">
<ele>534.261</ele>
<time>2022-05-26T13:48:55Z</time>
</trkpt>
<trkpt lat="47.934189" lon="11.15514">
<ele>533.964</ele>
<time>2022-05-26T13:48:56Z</time>
</trkpt>
<trkpt lat="47.934097" lon="11.15514">
<ele>533.407</ele>
<time>2022-05-26T13:48:57Z</time>
</trkpt>
<trkpt lat="47.93401" lon="11.155147">
<ele>533.038</ele>
<time>2022-05-26T13:48:58Z</time>
</trkpt>
<trkpt lat="47.933914" lon="11.15516">
<ele>532.443</ele>
<time>2022-05-26T13:48:59Z</time>
</trkpt>
<trkpt lat="47.933815" lon="11.155177">
<ele>531.991</ele>
<time>2022-05-26T13:49:00Z</time>
</trkpt>
<trkpt lat="47.933727" lon="11.155194">
<ele>531.669</ele>
<time>2022-05-26T13:49:01Z</time>
</trkpt>
<trkpt lat="47.933636" lon="11.155209">
<ele>531.485</ele>
<time>2022-05-26T13:49:02Z</time>
</trkpt>
<trkpt lat="47.933548" lon="11.155217">
<ele>531.299</ele>
<time>2022-05-26T13:49:03Z</time>
</trkpt>
<trkpt lat="47.933464" lon="11.155227">
<ele>531.182</ele>
<time>2022-05-26T13:49:04Z</time>
</trkpt>
<trkpt lat="47.933392" lon="11.155235">
<ele>530.892</ele>
<time>2022-05-26T13:49:05Z</time>
</trkpt>
<trkpt lat="47.933308" lon="11.155243">
<ele>530.672</ele>
<time>2022-05-26T13:49:06Z</time>
</trkpt>
<trkpt lat="47.933235" lon="11.155255">
<ele>530.448</ele>
<time>2022-05-26T13:49:07Z</time>
</trkpt>
<trkpt lat="47.933163" lon="11.155263">
<ele>530.326</ele>
<time>2022-05-26T13:49:08Z</time>
</trkpt>
<trkpt lat="47.93309" lon="11.155273">
<ele>530.24</ele>
<time>2022-05-26T13:49:09Z</time>
</trkpt>
<trkpt lat="47.933018" lon="11.155284">
<ele>530.185</ele>
<time>2022-05-26T13:49:10Z</time>
</trkpt>
<trkpt lat="47.932949" lon="11.155293">
<ele>530.156</ele>
<time>2022-05-26T13:49:11Z</time>
</trkpt>
<trkpt lat="47.93288" lon="11.155309">
<ele>530.132</ele>
<time>2022-05-26T13:49:12Z</time>
</trkpt>
<trkpt lat="47.932812" lon="11.155324">
<ele>530.132</ele>
<time>2022-05-26T13:49:13Z</time>
</trkpt>
<trkpt lat="47.932751" lon="11.155333">
<ele>530.132</ele>
<time>2022-05-26T13:49:14Z</time>
</trkpt>
<trkpt lat="47.932686" lon="11.155334">
<ele>529.862</ele>
<time>2022-05-26T13:49:15Z</time>
</trkpt>
<trkpt lat="47.932621" lon="11.155338">
<ele>529.648</ele>
<time>2022-05-26T13:49:16Z</time>
</trkpt>
<trkpt lat="47.932556" lon="11.155347">
<ele>529.485</ele>
<time>2022-05-26T13:49:17Z</time>
</trkpt>
<trkpt lat="47.932495" lon="11.155355">
<ele>529.366</ele>
<time>2022-05-26T13:49:18Z</time>
</trkpt>
<trkpt lat="47.932434" lon="11.155365">
<ele>529.28</ele>
<time>2022-05-26T13:49:19Z</time>
</trkpt>
<trkpt lat="47.932369" lon="11.155372">
<ele>529.223</ele>
<time>2022-05-26T13:49:20Z</time>
</trkpt>
<trkpt lat="47.932308" lon="11.155374">
<ele>529.198</ele>
<time>2022-05-26T13:49:21Z</time>
</trkpt>
<trkpt lat="47.932247" lon="11.155376">
<ele>529.174</ele>
<time>2022-05-26T13:49:22Z</time>
</trkpt>
<trkpt lat="47.932186" lon="11.155382">
<ele>529.174</ele>
<time>2022-05-26T13:49:23Z</time>
</trkpt>
<trkpt lat="47.932121" lon="11.155387">
<ele>528.89</ele>
<time>2022-05-26T13:49:24Z</time>
</trkpt>
<trkpt lat="47.932056" lon="11.155392">
<ele>528.668</ele>
<time>2022-05-26T13:49:25Z</time>
</trkpt>
<trkpt lat="47.931992" lon="11.155397">
<ele>528.5</ele>
<time>2022-05-26T13:49:26Z</time>
</trkpt>
<trkpt lat="47.931927" lon="11.155399">
<ele>528.379</ele>
<time>2022-05-26T13:49:27Z</time>
</trkpt>
<trkpt lat="47.931858" lon="11.155399">
<ele>528.296</ele>
<time>2022-05-26T13:49:28Z</time>
</trkpt>
<trkpt lat="47.931793" lon="11.155398">
<ele>528.25</ele>
<time>2022-05-26T13:49:29Z</time>
</trkpt>
<trkpt lat="47.931728" lon="11.155394">
<ele>527.981</ele>
<time>2022-05-26T13:49:30Z</time>
</trkpt>
<trkpt lat="47.931667" lon="11.15539">
<ele>527.788</ele>
<time>2022-05-26T13:49:31Z</time>
</trkpt>
<trkpt lat="47.931606" lon="11.155385">
<ele>527.66</ele>
<time>2022-05-26T13:49:32Z</time>
</trkpt>
<trkpt lat="47.931545" lon="11.155375">
<ele>527.522</ele>
<time>2022-05-26T13:49:33Z</time>
</trkpt>
<trkpt lat="47.931492" lon="11.155362">
<ele>527.415</ele>
<time>2022-05-26T13:49:34Z</time>
</trkpt>
<trkpt lat="47.931435" lon="11.155347">
<ele>527.337</ele>
<time>2022-05-26T13:49:35Z</time>
</trkpt>
<trkpt lat="47.931374" lon="11.155334">
<ele>527.286</ele>
<time>2022-05-26T13:49:36Z</time>
</trkpt>
<trkpt lat="47.931324" lon="11.155327">
<ele>527.261</ele>
<time>2022-05-26T13:49:37Z</time>
</trkpt>
<trkpt lat="47.931274" lon="11.155316">
<ele>527.261</ele>
<time>2022-05-26T13:49:38Z</time>
</trkpt>
<trkpt lat="47.931229" lon="11.155307">
<ele>527.516</ele>
<time>2022-05-26T13:49:39Z</time>
</trkpt>
<trkpt lat="47.931183" lon="11.155298">
<ele>527.72</ele>
<time>2022-05-26T13:49:40Z</time>
</trkpt>
<trkpt lat="47.931141" lon="11.155294">
<ele>527.882</ele>
<time>2022-05-26T13:49:41Z</time>
</trkpt>
<trkpt lat="47.931095" lon="11.155285">
<ele>527.999</ele>
<time>2022-05-26T13:49:42Z</time>
</trkpt>
<trkpt lat="47.931057" lon="11.155275">
<ele>528.119</ele>
<time>2022-05-26T13:49:43Z</time>
</trkpt>
<trkpt lat="47.931015" lon="11.155267">
<ele>528.213</ele>
<time>2022-05-26T13:49:44Z</time>
</trkpt>
<trkpt lat="47.930977" lon="11.155259">
<ele>528.274</ele>
<time>2022-05-26T13:49:45Z</time>
</trkpt>
<trkpt lat="47.930939" lon="11.155251">
<ele>528.305</ele>
<time>2022-05-26T13:49:46Z</time>
</trkpt>
<trkpt lat="47.930901" lon="11.155242">
<ele>528.305</ele>
<time>2022-05-26T13:49:47Z</time>
</trkpt>
<trkpt lat="47.930866" lon="11.155228">
<ele>528.305</ele>
<time>2022-05-26T13:49:48Z</time>
</trkpt>
<trkpt lat="47.930828" lon="11.155215">
<ele>528.305</ele>
<time>2022-05-26T13:49:49Z</time>
</trkpt>
<trkpt lat="47.930794" lon="11.155205">
<ele>528.305</ele>
<time>2022-05-26T13:49:50Z</time>
</trkpt>
<trkpt lat="47.930756" lon="11.155194">
<ele>528.305</ele>
<time>2022-05-26T13:49:51Z</time>
</trkpt>
<trkpt lat="47.930721" lon="11.155186">
<ele>528.305</ele>
<time>2022-05-26T13:49:52Z</time>
</trkpt>
<trkpt lat="47.930687" lon="11.155173">
<ele>528.305</ele>
<time>2022-05-26T13:49:53Z</time>
</trkpt>
<trkpt lat="47.93066" lon="11.155165">
<ele>528.305</ele>
<time>2022-05-26T13:49:54Z</time>
</trkpt>
<trkpt lat="47.930634" lon="11.155153">
<ele>528.305</ele>
<time>2022-05-26T13:49:55Z</time>
</trkpt>
<trkpt lat="47.930611" lon="11.155142">
<ele>528.305</ele>
<time>2022-05-26T13:49:56Z</time>
</trkpt>
<trkpt lat="47.930588" lon="11.155128">
<ele>528.305</ele>
<time>2022-05-26T13:49:57Z</time>
</trkpt>
<trkpt lat="47.930573" lon="11.155117">
<ele>528.305</ele>
<time>2022-05-26T13:49:58Z</time>
</trkpt>
<trkpt lat="47.930561" lon="11.155113">
<ele>528.305</ele>
<time>2022-05-26T13:49:59Z</time>
</trkpt>
<trkpt lat="47.930557" lon="11.155113">
<ele>528.305</ele>
<time>2022-05-26T13:50:00Z</time>
</trkpt>
<trkpt lat="47.930538" lon="11.155098">
<ele>528.305</ele>
<time>2022-05-26T13:50:08Z</time>
</trkpt>
<trkpt lat="47.930527" lon="11.155084">
<ele>528.305</ele>
<time>2022-05-26T13:50:09Z</time>
</trkpt>
<trkpt lat="47.930511" lon="11.155075">
<ele>528.305</ele>
<time>2022-05-26T13:50:10Z</time>
</trkpt>
<trkpt lat="47.930492" lon="11.155065">
<ele>528.305</ele>
<time>2022-05-26T13:50:11Z</time>
</trkpt>
<trkpt lat="47.930466" lon="11.155056">
<ele>528.305</ele>
<time>2022-05-26T13:50:12Z</time>
</trkpt>
<trkpt lat="47.930435" lon="11.155053">
<ele>528.305</ele>
<time>2022-05-26T13:50:13Z</time>
</trkpt>
<trkpt lat="47.930401" lon="11.15506">
<ele>528.305</ele>
<time>2022-05-26T13:50:14Z</time>
</trkpt>
<trkpt lat="47.930363" lon="11.155073">
<ele>528.305</ele>
<time>2022-05-26T13:50:15Z</time>
</trkpt>
<trkpt lat="47.930321" lon="11.155091">
<ele>528.305</ele>
<time>2022-05-26T13:50:16Z</time>
</trkpt>
<trkpt lat="47.930271" lon="11.155108">
<ele>528.305</ele>
<time>2022-05-26T13:50:17Z</time>
</trkpt>
<trkpt lat="47.930225" lon="11.155119">
<ele>528.305</ele>
<time>2022-05-26T13:50:18Z</time>
</trkpt>
<trkpt lat="47.93018" lon="11.155128">
<ele>528.305</ele>
<time>2022-05-26T13:50:19Z</time>
</trkpt>
<trkpt lat="47.93013" lon="11.155142">
<ele>528.305</ele>
<time>2022-05-26T13:50:20Z</time>
</trkpt>
<trkpt lat="47.93008" lon="11.155158">
<ele>528.305</ele>
<time>2022-05-26T13:50:21Z</time>
</trkpt>
<trkpt lat="47.930035" lon="11.155171">
<ele>528.305</ele>
<time>2022-05-26T13:50:22Z</time>
</trkpt>
<trkpt lat="47.929985" lon="11.155186">
<ele>528.305</ele>
<time>2022-05-26T13:50:23Z</time>
</trkpt>
<trkpt lat="47.929939" lon="11.155194">
<ele>528.305</ele>
<time>2022-05-26T13:50:24Z</time>
</trkpt>
<trkpt lat="47.929893" lon="11.155205">
<ele>528.305</ele>
<time>2022-05-26T13:50:25Z</time>
</trkpt>
<trkpt lat="47.92984" lon="11.155213">
<ele>528.305</ele>
<time>2022-05-26T13:50:26Z</time>
</trkpt>
<trkpt lat="47.929794" lon="11.15522">
<ele>528.305</ele>
<time>2022-05-26T13:50:27Z</time>
</trkpt>
<trkpt lat="47.929741" lon="11.155227">
<ele>528.305</ele>
<time>2022-05-26T13:50:28Z</time>
</trkpt>
<trkpt lat="47.929684" lon="11.155231">
<ele>528.305</ele>
<time>2022-05-26T13:50:29Z</time>
</trkpt>
<trkpt lat="47.929626" lon="11.155235">
<ele>528.044</ele>
<time>2022-05-26T13:50:30Z</time>
</trkpt>
<trkpt lat="47.929569" lon="11.15524">
<ele>527.843</ele>
<time>2022-05-26T13:50:31Z</time>
</trkpt>
<trkpt lat="47.929512" lon="11.155243">
<ele>527.693</ele>
<time>2022-05-26T13:50:32Z</time>
</trkpt>
<trkpt lat="47.929451" lon="11.155242">
<ele>527.592</ele>
<time>2022-05-26T13:50:33Z</time>
</trkpt>
<trkpt lat="47.92939" lon="11.15524">
<ele>527.516</ele>
<time>2022-05-26T13:50:34Z</time>
</trkpt>
<trkpt lat="47.929329" lon="11.155236">
<ele>527.476</ele>
<time>2022-05-26T13:50:35Z</time>
</trkpt>
<trkpt lat="47.929276" lon="11.155231">
<ele>527.453</ele>
<time>2022-05-26T13:50:36Z</time>
</trkpt>
<trkpt lat="47.929218" lon="11.155228">
<ele>527.434</ele>
<time>2022-05-26T13:50:37Z</time>
</trkpt>
<trkpt lat="47.929165" lon="11.155225">
<ele>527.434</ele>
<time>2022-05-26T13:50:38Z</time>
</trkpt>
<trkpt lat="47.929119" lon="11.155217">
<ele>527.434</ele>
<time>2022-05-26T13:50:39Z</time>
</trkpt>
<trkpt lat="47.929073" lon="11.155205">
<ele>527.434</ele>
<time>2022-05-26T13:50:40Z</time>
</trkpt>
<trkpt lat="47.929035" lon="11.155198">
<ele>527.434</ele>
<time>2022-05-26T13:50:41Z</time>
</trkpt>
<trkpt lat="47.929005" lon="11.155194">
<ele>527.434</ele>
<time>2022-05-26T13:50:42Z</time>
</trkpt>
<trkpt lat="47.928982" lon="11.155184">
<ele>527.434</ele>
<time>2022-05-26T13:50:43Z</time>
</trkpt>
<trkpt lat="47.928959" lon="11.155165">
<ele>527.434</ele>
<time>2022-05-26T13:50:44Z</time>
</trkpt>
<trkpt lat="47.928936" lon="11.155138">
<ele>527.434</ele>
<time>2022-05-26T13:50:45Z</time>
</trkpt>
<trkpt lat="47.928925" lon="11.155098">
<ele>527.434</ele>
<time>2022-05-26T13:50:46Z</time>
</trkpt>
<trkpt lat="47.928909" lon="11.155053">
<ele>527.434</ele>
<time>2022-05-26T13:50:47Z</time>
</trkpt>
<trkpt lat="47.928902" lon="11.155002">
<ele>527.434</ele>
<time>2022-05-26T13:50:48Z</time>
</trkpt>
<trkpt lat="47.928898" lon="11.154946">
<ele>527.434</ele>
<time>2022-05-26T13:50:49Z</time>
</trkpt>
<trkpt lat="47.928894" lon="11.15489">
<ele>527.434</ele>
<time>2022-05-26T13:50:50Z</time>
</trkpt>
<trkpt lat="47.928886" lon="11.154828">
<ele>527.434</ele>
<time>2022-05-26T13:50:51Z</time>
</trkpt>
<trkpt lat="47.928875" lon="11.154771">
<ele>527.126</ele>
<time>2022-05-26T13:50:52Z</time>
</trkpt>
<trkpt lat="47.928864" lon="11.154715">
<ele>526.901</ele>
<time>2022-05-26T13:50:53Z</time>
</trkpt>
<trkpt lat="47.928848" lon="11.154673">
<ele>526.744</ele>
<time>2022-05-26T13:50:54Z</time>
</trkpt>
<trkpt lat="47.928825" lon="11.154647">
<ele>526.647</ele>
<time>2022-05-26T13:50:55Z</time>
</trkpt>
<trkpt lat="47.928791" lon="11.154627">
<ele>526.327</ele>
<time>2022-05-26T13:50:56Z</time>
</trkpt>
<trkpt lat="47.928753" lon="11.154613">
<ele>526.089</ele>
<time>2022-05-26T13:50:57Z</time>
</trkpt>
<trkpt lat="47.928711" lon="11.15461">
<ele>525.863</ele>
<time>2022-05-26T13:50:58Z</time>
</trkpt>
<trkpt lat="47.928669" lon="11.15461">
<ele>525.699</ele>
<time>2022-05-26T13:50:59Z</time>
</trkpt>
<trkpt lat="47.928631" lon="11.154612">
<ele>525.587</ele>
<time>2022-05-26T13:51:00Z</time>
</trkpt>
<trkpt lat="47.928589" lon="11.154615">
<ele>525.506</ele>
<time>2022-05-26T13:51:01Z</time>
</trkpt>
<trkpt lat="47.928539" lon="11.15462">
<ele>525.455</ele>
<time>2022-05-26T13:51:02Z</time>
</trkpt>
<trkpt lat="47.928497" lon="11.154627">
<ele>525.434</ele>
<time>2022-05-26T13:51:03Z</time>
</trkpt>
<trkpt lat="47.928448" lon="11.154633">
<ele>525.434</ele>
<time>2022-05-26T13:51:04Z</time>
</trkpt>
<trkpt lat="47.928402" lon="11.154641">
<ele>525.434</ele>
<time>2022-05-26T13:51:05Z</time>
</trkpt>
<trkpt lat="47.928356" lon="11.154649">
<ele>525.215</ele>
<time>2022-05-26T13:51:06Z</time>
</trkpt>
<trkpt lat="47.928314" lon="11.154652">
<ele>525.062</ele>
<time>2022-05-26T13:51:07Z</time>
</trkpt>
<trkpt lat="47.928272" lon="11.154655">
<ele>524.91</ele>
<time>2022-05-26T13:51:08Z</time>
</trkpt>
<trkpt lat="47.928234" lon="11.154662">
<ele>524.793</ele>
<time>2022-05-26T13:51:09Z</time>
</trkpt>
<trkpt lat="47.928192" lon="11.15467">
<ele>524.7</ele>
<time>2022-05-26T13:51:10Z</time>
</trkpt>
<trkpt lat="47.928146" lon="11.154675">
<ele>524.632</ele>
<time>2022-05-26T13:51:11Z</time>
</trkpt>
<trkpt lat="47.928104" lon="11.154678">
<ele>524.586</ele>
<time>2022-05-26T13:51:12Z</time>
</trkpt>
<trkpt lat="47.928059" lon="11.154678">
<ele>524.564</ele>
<time>2022-05-26T13:51:13Z</time>
</trkpt>
<trkpt lat="47.928017" lon="11.154672">
<ele>524.564</ele>
<time>2022-05-26T13:51:14Z</time>
</trkpt>
<trkpt lat="47.927975" lon="11.15466">
<ele>524.564</ele>
<time>2022-05-26T13:51:15Z</time>
</trkpt>
<trkpt lat="47.927933" lon="11.154643">
<ele>524.564</ele>
<time>2022-05-26T13:51:16Z</time>
</trkpt>
<trkpt lat="47.927891" lon="11.154624">
<ele>524.564</ele>
<time>2022-05-26T13:51:17Z</time>
</trkpt>
<trkpt lat="47.927849" lon="11.154603">
<ele>524.564</ele>
<time>2022-05-26T13:51:18Z</time>
</trkpt>
<trkpt lat="47.927811" lon="11.154591">
<ele>524.564</ele>
<time>2022-05-26T13:51:19Z</time>
</trkpt>
<trkpt lat="47.927773" lon="11.154583">
<ele>524.564</ele>
<time>2022-05-26T13:51:20Z</time>
</trkpt>
<trkpt lat="47.927746" lon="11.154582">
<ele>524.564</ele>
<time>2022-05-26T13:51:21Z</time>
</trkpt>
<trkpt lat="47.927719" lon="11.15458">
<ele>524.564</ele>
<time>2022-05-26T13:51:22Z</time>
</trkpt>
<trkpt lat="47.927689" lon="11.154576">
<ele>524.564</ele>
<time>2022-05-26T13:51:23Z</time>
</trkpt>
<trkpt lat="47.927673" lon="11.154576">
<ele>524.781</ele>
<time>2022-05-26T13:51:24Z</time>
</trkpt>
<trkpt lat="47.927654" lon="11.154575">
<ele>524.951</ele>
<time>2022-05-26T13:51:25Z</time>
</trkpt>
<trkpt lat="47.927635" lon="11.154565">
<ele>525.096</ele>
<time>2022-05-26T13:51:26Z</time>
</trkpt>
<trkpt lat="47.927616" lon="11.154538">
<ele>525.212</ele>
<time>2022-05-26T13:51:27Z</time>
</trkpt>
<trkpt lat="47.927605" lon="11.1545">
<ele>525.335</ele>
<time>2022-05-26T13:51:28Z</time>
</trkpt>
<trkpt lat="47.927593" lon="11.154455">
<ele>525.433</ele>
<time>2022-05-26T13:51:29Z</time>
</trkpt>
<trkpt lat="47.927586" lon="11.154405">
<ele>525.494</ele>
<time>2022-05-26T13:51:30Z</time>
</trkpt>
<trkpt lat="47.927574" lon="11.154356">
<ele>525.521</ele>
<time>2022-05-26T13:51:31Z</time>
</trkpt>
<trkpt lat="47.927567" lon="11.154304">
<ele>525.521</ele>
<time>2022-05-26T13:51:32Z</time>
</trkpt>
<trkpt lat="47.927555" lon="11.154249">
<ele>525.521</ele>
<time>2022-05-26T13:51:33Z</time>
</trkpt>
<trkpt lat="47.927547" lon="11.15419">
<ele>525.521</ele>
<time>2022-05-26T13:51:34Z</time>
</trkpt>
<trkpt lat="47.927536" lon="11.154132">
<ele>525.521</ele>
<time>2022-05-26T13:51:35Z</time>
</trkpt>
<trkpt lat="47.927532" lon="11.154075">
<ele>525.521</ele>
<time>2022-05-26T13:51:36Z</time>
</trkpt>
<trkpt lat="47.927525" lon="11.15402">
<ele>525.521</ele>
<time>2022-05-26T13:51:37Z</time>
</trkpt>
<trkpt lat="47.927521" lon="11.153969">
<ele>525.521</ele>
<time>2022-05-26T13:51:38Z</time>
</trkpt>
<trkpt lat="47.927525" lon="11.153907">
<ele>525.521</ele>
<time>2022-05-26T13:51:39Z</time>
</trkpt>
<trkpt lat="47.927525" lon="11.153843">
<ele>525.24</ele>
<time>2022-05-26T13:51:40Z</time>
</trkpt>
<trkpt lat="47.927532" lon="11.15378">
<ele>525.025</ele>
<time>2022-05-26T13:51:41Z</time>
</trkpt>
<trkpt lat="47.927547" lon="11.153724">
<ele>524.862</ele>
<time>2022-05-26T13:51:42Z</time>
</trkpt>
<trkpt lat="47.927563" lon="11.153654">
<ele>524.739</ele>
<time>2022-05-26T13:51:43Z</time>
</trkpt>
<trkpt lat="47.927578" lon="11.153587">
<ele>524.66</ele>
<time>2022-05-26T13:51:44Z</time>
</trkpt>
<trkpt lat="47.927589" lon="11.153522">
<ele>524.605</ele>
<time>2022-05-26T13:51:45Z</time>
</trkpt>
<trkpt lat="47.927597" lon="11.153457">
<ele>524.583</ele>
<time>2022-05-26T13:51:46Z</time>
</trkpt>
<trkpt lat="47.927616" lon="11.153392">
<ele>524.564</ele>
<time>2022-05-26T13:51:47Z</time>
</trkpt>
<trkpt lat="47.927624" lon="11.153325">
<ele>524.564</ele>
<time>2022-05-26T13:51:48Z</time>
</trkpt>
<trkpt lat="47.927639" lon="11.153258">
<ele>524.564</ele>
<time>2022-05-26T13:51:49Z</time>
</trkpt>
<trkpt lat="47.927654" lon="11.153185">
<ele>524.564</ele>
<time>2022-05-26T13:51:50Z</time>
</trkpt>
<trkpt lat="47.927673" lon="11.153108">
<ele>524.564</ele>
<time>2022-05-26T13:51:51Z</time>
</trkpt>
<trkpt lat="47.927685" lon="11.153028">
<ele>524.564</ele>
<time>2022-05-26T13:51:52Z</time>
</trkpt>
<trkpt lat="47.927696" lon="11.152955">
<ele>524.564</ele>
<time>2022-05-26T13:51:53Z</time>
</trkpt>
<trkpt lat="47.927719" lon="11.152884">
<ele>524.564</ele>
<time>2022-05-26T13:51:54Z</time>
</trkpt>
<trkpt lat="47.927738" lon="11.152808">
<ele>524.319</ele>
<time>2022-05-26T13:51:55Z</time>
</trkpt>
<trkpt lat="47.927753" lon="11.152733">
<ele>524.126</ele>
<time>2022-05-26T13:51:56Z</time>
</trkpt>
<trkpt lat="47.927765" lon="11.152653">
<ele>524</ele>
<time>2022-05-26T13:51:57Z</time>
</trkpt>
<trkpt lat="47.927773" lon="11.152574">
<ele>523.865</ele>
<time>2022-05-26T13:51:58Z</time>
</trkpt>
<trkpt lat="47.927784" lon="11.152496">
<ele>523.76</ele>
<time>2022-05-26T13:51:59Z</time>
</trkpt>
<trkpt lat="47.927799" lon="11.15242">
<ele>523.681</ele>
<time>2022-05-26T13:52:00Z</time>
</trkpt>
<trkpt lat="47.927818" lon="11.152345">
<ele>523.631</ele>
<time>2022-05-26T13:52:01Z</time>
</trkpt>
<trkpt lat="47.927822" lon="11.152268">
<ele>523.607</ele>
<time>2022-05-26T13:52:02Z</time>
</trkpt>
<trkpt lat="47.927826" lon="11.15219">
<ele>523.607</ele>
<time>2022-05-26T13:52:03Z</time>
</trkpt>
<trkpt lat="47.927826" lon="11.152108">
<ele>523.607</ele>
<time>2022-05-26T13:52:04Z</time>
</trkpt>
<trkpt lat="47.927826" lon="11.152023">
<ele>523.607</ele>
<time>2022-05-26T13:52:05Z</time>
</trkpt>
<trkpt lat="47.92783" lon="11.151938">
<ele>523.607</ele>
<time>2022-05-26T13:52:06Z</time>
</trkpt>
<trkpt lat="47.92783" lon="11.151856">
<ele>523.607</ele>
<time>2022-05-26T13:52:07Z</time>
</trkpt>
<trkpt lat="47.927826" lon="11.151772">
<ele>523.607</ele>
<time>2022-05-26T13:52:08Z</time>
</trkpt>
<trkpt lat="47.927822" lon="11.151691">
<ele>523.607</ele>
<time>2022-05-26T13:52:09Z</time>
</trkpt>
<trkpt lat="47.927822" lon="11.151609">
<ele>523.276</ele>
<time>2022-05-26T13:52:10Z</time>
</trkpt>
<trkpt lat="47.927822" lon="11.151532">
<ele>523.027</ele>
<time>2022-05-26T13:52:11Z</time>
</trkpt>
<trkpt lat="47.927818" lon="11.151452">
<ele>522.839</ele>
<time>2022-05-26T13:52:12Z</time>
</trkpt>
<trkpt lat="47.927818" lon="11.151373">
<ele>522.695</ele>
<time>2022-05-26T13:52:13Z</time>
</trkpt>
<trkpt lat="47.927814" lon="11.151293">
<ele>522.6</ele>
<time>2022-05-26T13:52:14Z</time>
</trkpt>
<trkpt lat="47.927814" lon="11.151214">
<ele>522.538</ele>
<time>2022-05-26T13:52:15Z</time>
</trkpt>
<trkpt lat="47.927814" lon="11.151127">
<ele>522.504</ele>
<time>2022-05-26T13:52:16Z</time>
</trkpt>
<trkpt lat="47.927814" lon="11.151038">
<ele>522.477</ele>
<time>2022-05-26T13:52:17Z</time>
</trkpt>
<trkpt lat="47.927818" lon="11.150951">
<ele>522.477</ele>
<time>2022-05-26T13:52:18Z</time>
</trkpt>
<trkpt lat="47.927818" lon="11.150866">
<ele>522.477</ele>
<time>2022-05-26T13:52:19Z</time>
</trkpt>
<trkpt lat="47.927818" lon="11.150777">
<ele>522.168</ele>
<time>2022-05-26T13:52:20Z</time>
</trkpt>
<trkpt lat="47.927822" lon="11.15069">
<ele>521.929</ele>
<time>2022-05-26T13:52:21Z</time>
</trkpt>
<trkpt lat="47.927822" lon="11.150603">
<ele>521.754</ele>
<time>2022-05-26T13:52:22Z</time>
</trkpt>
<trkpt lat="47.92783" lon="11.150518">
<ele>521.627</ele>
<time>2022-05-26T13:52:23Z</time>
</trkpt>
<trkpt lat="47.927837" lon="11.150434">
<ele>521.556</ele>
<time>2022-05-26T13:52:24Z</time>
</trkpt>
<trkpt lat="47.927841" lon="11.150349">
<ele>521.254</ele>
<time>2022-05-26T13:52:25Z</time>
</trkpt>
<trkpt lat="47.927845" lon="11.150265">
<ele>521.035</ele>
<time>2022-05-26T13:52:26Z</time>
</trkpt>
<trkpt lat="47.927849" lon="11.150185">
<ele>520.878</ele>
<time>2022-05-26T13:52:27Z</time>
</trkpt>
<trkpt lat="47.927864" lon="11.150111">
<ele>520.74</ele>
<time>2022-05-26T13:52:28Z</time>
</trkpt>
<trkpt lat="47.927883" lon="11.150032">
<ele>520.631</ele>
<time>2022-05-26T13:52:29Z</time>
</trkpt>
<trkpt lat="47.927898" lon="11.14995">
<ele>520.553</ele>
<time>2022-05-26T13:52:30Z</time>
</trkpt>
<trkpt lat="47.927914" lon="11.149866">
<ele>520.504</ele>
<time>2022-05-26T13:52:31Z</time>
</trkpt>
<trkpt lat="47.927929" lon="11.14978">
<ele>520.222</ele>
<time>2022-05-26T13:52:32Z</time>
</trkpt>
<trkpt lat="47.92794" lon="11.149694">
<ele>519.968</ele>
<time>2022-05-26T13:52:33Z</time>
</trkpt>
<trkpt lat="47.927944" lon="11.149609">
<ele>519.793</ele>
<time>2022-05-26T13:52:34Z</time>
</trkpt>
<trkpt lat="47.927948" lon="11.149525">
<ele>519.67</ele>
<time>2022-05-26T13:52:35Z</time>
</trkpt>
<trkpt lat="47.927948" lon="11.149444">
<ele>519.581</ele>
<time>2022-05-26T13:52:36Z</time>
</trkpt>
<trkpt lat="47.927948" lon="11.149355">
<ele>519.521</ele>
<time>2022-05-26T13:52:37Z</time>
</trkpt>
<trkpt lat="47.927948" lon="11.14927">
<ele>519.462</ele>
<time>2022-05-26T13:52:38Z</time>
</trkpt>
<trkpt lat="47.927948" lon="11.149187">
<ele>519.434</ele>
<time>2022-05-26T13:52:39Z</time>
</trkpt>
<trkpt lat="47.927948" lon="11.149103">
<ele>519.434</ele>
<time>2022-05-26T13:52:40Z</time>
</trkpt>
<trkpt lat="47.927944" lon="11.14902">
<ele>519.434</ele>
<time>2022-05-26T13:52:41Z</time>
</trkpt>
<trkpt lat="47.927944" lon="11.148935">
<ele>519.434</ele>
<time>2022-05-26T13:52:42Z</time>
</trkpt>
<trkpt lat="47.927944" lon="11.148852">
<ele>519.434</ele>
<time>2022-05-26T13:52:43Z</time>
</trkpt>
<trkpt lat="47.92794" lon="11.148768">
<ele>519.167</ele>
<time>2022-05-26T13:52:44Z</time>
</trkpt>
<trkpt lat="47.92794" lon="11.148683">
<ele>518.957</ele>
<time>2022-05-26T13:52:45Z</time>
</trkpt>
<trkpt lat="47.927937" lon="11.148597">
<ele>518.792</ele>
<time>2022-05-26T13:52:46Z</time>
</trkpt>
<trkpt lat="47.927937" lon="11.14851">
<ele>518.68</ele>
<time>2022-05-26T13:52:47Z</time>
</trkpt>
<trkpt lat="47.92794" lon="11.14842">
<ele>518.559</ele>
<time>2022-05-26T13:52:48Z</time>
</trkpt>
<trkpt lat="47.92794" lon="11.148333">
<ele>518.473</ele>
<time>2022-05-26T13:52:49Z</time>
</trkpt>
<trkpt lat="47.92794" lon="11.148243">
<ele>518.418</ele>
<time>2022-05-26T13:52:50Z</time>
</trkpt>
<trkpt lat="47.92794" lon="11.148153">
<ele>518.391</ele>
<time>2022-05-26T13:52:51Z</time>
</trkpt>
<trkpt lat="47.92794" lon="11.148065">
<ele>518.391</ele>
<time>2022-05-26T13:52:52Z</time>
</trkpt>
<trkpt lat="47.92794" lon="11.147977">
<ele>518.161</ele>
<time>2022-05-26T13:52:53Z</time>
</trkpt>
<trkpt lat="47.927944" lon="11.147888">
<ele>517.981</ele>
<time>2022-05-26T13:52:54Z</time>
</trkpt>
<trkpt lat="47.927944" lon="11.147803">
<ele>517.842</ele>
<time>2022-05-26T13:52:55Z</time>
</trkpt>
<trkpt lat="47.927948" lon="11.147715">
<ele>517.74</ele>
<time>2022-05-26T13:52:56Z</time>
</trkpt>
<trkpt lat="47.927948" lon="11.147627">
<ele>517.667</ele>
<time>2022-05-26T13:52:57Z</time>
</trkpt>
<trkpt lat="47.927948" lon="11.147534">
<ele>517.593</ele>
<time>2022-05-26T13:52:58Z</time>
</trkpt>
<trkpt lat="47.927948" lon="11.147444">
<ele>517.545</ele>
<time>2022-05-26T13:52:59Z</time>
</trkpt>
<trkpt lat="47.927952" lon="11.14735">
<ele>517.522</ele>
<time>2022-05-26T13:53:00Z</time>
</trkpt>
<trkpt lat="47.927952" lon="11.147258">
<ele>517.2</ele>
<time>2022-05-26T13:53:01Z</time>
</trkpt>
<trkpt lat="47.927956" lon="11.147174">
<ele>516.953</ele>
<time>2022-05-26T13:53:02Z</time>
</trkpt>
<trkpt lat="47.927956" lon="11.147085">
<ele>516.765</ele>
<time>2022-05-26T13:53:03Z</time>
</trkpt>
<trkpt lat="47.927959" lon="11.146998">
<ele>516.633</ele>
<time>2022-05-26T13:53:04Z</time>
</trkpt>
<trkpt lat="47.927959" lon="11.14691">
<ele>516.538</ele>
<time>2022-05-26T13:53:05Z</time>
</trkpt>
<trkpt lat="47.927963" lon="11.146824">
<ele>516.474</ele>
<time>2022-05-26T13:53:06Z</time>
</trkpt>
<trkpt lat="47.927963" lon="11.146738">
<ele>516.424</ele>
<time>2022-05-26T13:53:07Z</time>
</trkpt>
<trkpt lat="47.927967" lon="11.146655">
<ele>516.393</ele>
<time>2022-05-26T13:53:08Z</time>
</trkpt>
<trkpt lat="47.927971" lon="11.14657">
<ele>516.393</ele>
<time>2022-05-26T13:53:09Z</time>
</trkpt>
<trkpt lat="47.927975" lon="11.146487">
<ele>516.393</ele>
<time>2022-05-26T13:53:10Z</time>
</trkpt>
<trkpt lat="47.927979" lon="11.146403">
<ele>516.392</ele>
<time>2022-05-26T13:53:11Z</time>
</trkpt>
<trkpt lat="47.927982" lon="11.146319">
<ele>516.393</ele>
<time>2022-05-26T13:53:12Z</time>
</trkpt>
<trkpt lat="47.927986" lon="11.146237">
<ele>516.393</ele>
<time>2022-05-26T13:53:13Z</time>
</trkpt>
<trkpt lat="47.927994" lon="11.146153">
<ele>516.17</ele>
<time>2022-05-26T13:53:14Z</time>
</trkpt>
<trkpt lat="47.927998" lon="11.146073">
<ele>515.996</ele>
<time>2022-05-26T13:53:15Z</time>
</trkpt>
<trkpt lat="47.928001" lon="11.145995">
<ele>515.859</ele>
<time>2022-05-26T13:53:16Z</time>
</trkpt>
<trkpt lat="47.928001" lon="11.145926">
<ele>515.766</ele>
<time>2022-05-26T13:53:17Z</time>
</trkpt>
<trkpt lat="47.927998" lon="11.145861">
<ele>515.71</ele>
<time>2022-05-26T13:53:18Z</time>
</trkpt>
<trkpt lat="47.927998" lon="11.145806">
<ele>515.857</ele>
<time>2022-05-26T13:53:19Z</time>
</trkpt>
<trkpt lat="47.927998" lon="11.145763">
<ele>515.987</ele>
<time>2022-05-26T13:53:20Z</time>
</trkpt>
<trkpt lat="47.927998" lon="11.145726">
<ele>516.106</ele>
<time>2022-05-26T13:53:21Z</time>
</trkpt>
<trkpt lat="47.927998" lon="11.145699">
<ele>516.214</ele>
<time>2022-05-26T13:53:22Z</time>
</trkpt>
<trkpt lat="47.927998" lon="11.145679">
<ele>516.299</ele>
<time>2022-05-26T13:53:23Z</time>
</trkpt>
<trkpt lat="47.927994" lon="11.145665">
<ele>516.353</ele>
<time>2022-05-26T13:53:24Z</time>
</trkpt>
<trkpt lat="47.927986" lon="11.145655">
<ele>516.57</ele>
<time>2022-05-26T13:53:25Z</time>
</trkpt>
<trkpt lat="47.927986" lon="11.145653">
<ele>516.867</ele>
<time>2022-05-26T13:53:27Z</time>
</trkpt>
<trkpt lat="47.927986" lon="11.145626">
<ele>517.007</ele>
<time>2022-05-26T13:53:36Z</time>
</trkpt>
<trkpt lat="47.927982" lon="11.145607">
<ele>517.132</ele>
<time>2022-05-26T13:53:37Z</time>
</trkpt>
<trkpt lat="47.927982" lon="11.145585">
<ele>517.241</ele>
<time>2022-05-26T13:53:38Z</time>
</trkpt>
<trkpt lat="47.927979" lon="11.145558">
<ele>517.317</ele>
<time>2022-05-26T13:53:39Z</time>
</trkpt>
<trkpt lat="47.927986" lon="11.145527">
<ele>517.348</ele>
<time>2022-05-26T13:53:40Z</time>
</trkpt>
<trkpt lat="47.92799" lon="11.145492">
<ele>517.348</ele>
<time>2022-05-26T13:53:41Z</time>
</trkpt>
<trkpt lat="47.927994" lon="11.145453">
<ele>517.348</ele>
<time>2022-05-26T13:53:42Z</time>
</trkpt>
<trkpt lat="47.927998" lon="11.145408">
<ele>517.348</ele>
<time>2022-05-26T13:53:43Z</time>
</trkpt>
<trkpt lat="47.928005" lon="11.14536">
<ele>517.348</ele>
<time>2022-05-26T13:53:44Z</time>
</trkpt>
<trkpt lat="47.928009" lon="11.145309">
<ele>517.348</ele>
<time>2022-05-26T13:53:45Z</time>
</trkpt>
<trkpt lat="47.928009" lon="11.145266">
<ele>517.348</ele>
<time>2022-05-26T13:53:46Z</time>
</trkpt>
<trkpt lat="47.928009" lon="11.145224">
<ele>517.348</ele>
<time>2022-05-26T13:53:47Z</time>
</trkpt>
<trkpt lat="47.928009" lon="11.14518">
<ele>517.348</ele>
<time>2022-05-26T13:53:48Z</time>
</trkpt>
<trkpt lat="47.928009" lon="11.145135">
<ele>517.348</ele>
<time>2022-05-26T13:53:49Z</time>
</trkpt>
<trkpt lat="47.928005" lon="11.14509">
<ele>517.348</ele>
<time>2022-05-26T13:53:50Z</time>
</trkpt>
<trkpt lat="47.928005" lon="11.145048">
<ele>517.348</ele>
<time>2022-05-26T13:53:51Z</time>
</trkpt>
<trkpt lat="47.928001" lon="11.14501">
<ele>517.348</ele>
<time>2022-05-26T13:53:52Z</time>
</trkpt>
<trkpt lat="47.928005" lon="11.144966">
<ele>517.348</ele>
<time>2022-05-26T13:53:53Z</time>
</trkpt>
<trkpt lat="47.928005" lon="11.144933">
<ele>517.348</ele>
<time>2022-05-26T13:53:54Z</time>
</trkpt>
<trkpt lat="47.928005" lon="11.1449">
<ele>517.555</ele>
<time>2022-05-26T13:53:55Z</time>
</trkpt>
<trkpt lat="47.928001" lon="11.14487">
<ele>517.744</ele>
<time>2022-05-26T13:53:56Z</time>
</trkpt>
<trkpt lat="47.928001" lon="11.14484">
<ele>517.903</ele>
<time>2022-05-26T13:53:57Z</time>
</trkpt>
<trkpt lat="47.928009" lon="11.144809">
<ele>518.036</ele>
<time>2022-05-26T13:53:58Z</time>
</trkpt>
<trkpt lat="47.928017" lon="11.14478">
<ele>518.093</ele>
<time>2022-05-26T13:53:59Z</time>
</trkpt>
<trkpt lat="47.928032" lon="11.144758">
<ele>517.956</ele>
<time>2022-05-26T13:54:00Z</time>
</trkpt>
<trkpt lat="47.928051" lon="11.14475">
<ele>517.813</ele>
<time>2022-05-26T13:54:01Z</time>
</trkpt>
<trkpt lat="47.928062" lon="11.14475">
<ele>517.686</ele>
<time>2022-05-26T13:54:02Z</time>
</trkpt>
<trkpt lat="47.928066" lon="11.144767">
<ele>517.576</ele>
<time>2022-05-26T13:54:03Z</time>
</trkpt>
<trkpt lat="47.928062" lon="11.144796">
<ele>517.511</ele>
<time>2022-05-26T13:54:04Z</time>
</trkpt>
<trkpt lat="47.928055" lon="11.144827">
<ele>517.25</ele>
<time>2022-05-26T13:54:05Z</time>
</trkpt>
<trkpt lat="47.92804" lon="11.144853">
<ele>517.032</ele>
<time>2022-05-26T13:54:06Z</time>
</trkpt>
<trkpt lat="47.928017" lon="11.144868">
<ele>516.6</ele>
<time>2022-05-26T13:54:07Z</time>
</trkpt>
<trkpt lat="47.92799" lon="11.144876">
<ele>516.252</ele>
<time>2022-05-26T13:54:08Z</time>
</trkpt>
<trkpt lat="47.927956" lon="11.144876">
<ele>515.954</ele>
<time>2022-05-26T13:54:09Z</time>
</trkpt>
<trkpt lat="47.927925" lon="11.144876">
<ele>515.732</ele>
<time>2022-05-26T13:54:10Z</time>
</trkpt>
<trkpt lat="47.927895" lon="11.144885">
<ele>515.637</ele>
<time>2022-05-26T13:54:11Z</time>
</trkpt>
<trkpt lat="47.927864" lon="11.144888">
<ele>515.58</ele>
<time>2022-05-26T13:54:12Z</time>
</trkpt>
<trkpt lat="47.927826" lon="11.144884">
<ele>515.523</ele>
<time>2022-05-26T13:54:13Z</time>
</trkpt>
<trkpt lat="47.927792" lon="11.144876">
<ele>515.712</ele>
<time>2022-05-26T13:54:14Z</time>
</trkpt>
<trkpt lat="47.927753" lon="11.144876">
<ele>515.727</ele>
<time>2022-05-26T13:54:15Z</time>
</trkpt>
<trkpt lat="47.927727" lon="11.144852">
<ele>515.909</ele>
<time>2022-05-26T13:54:16Z</time>
</trkpt>
<trkpt lat="47.927715" lon="11.144816">
<ele>516.052</ele>
<time>2022-05-26T13:54:17Z</time>
</trkpt>
<trkpt lat="47.927715" lon="11.144773">
<ele>516.178</ele>
<time>2022-05-26T13:54:18Z</time>
</trkpt>
<trkpt lat="47.927711" lon="11.144718">
<ele>516.264</ele>
<time>2022-05-26T13:54:19Z</time>
</trkpt>
<trkpt lat="47.9277" lon="11.144656">
<ele>516.33</ele>
<time>2022-05-26T13:54:20Z</time>
</trkpt>
<trkpt lat="47.927689" lon="11.144606">
<ele>516.371</ele>
<time>2022-05-26T13:54:21Z</time>
</trkpt>
<trkpt lat="47.927677" lon="11.144562">
<ele>516.393</ele>
<time>2022-05-26T13:54:22Z</time>
</trkpt>
<trkpt lat="47.92767" lon="11.144526">
<ele>516.392</ele>
<time>2022-05-26T13:54:23Z</time>
</trkpt>
<trkpt lat="47.927662" lon="11.144493">
<ele>516.392</ele>
<time>2022-05-26T13:54:24Z</time>
</trkpt>
<trkpt lat="47.927654" lon="11.144464">
<ele>516.393</ele>
<time>2022-05-26T13:54:25Z</time>
</trkpt>
<trkpt lat="47.927654" lon="11.144427">
<ele>516.392</ele>
<time>2022-05-26T13:54:26Z</time>
</trkpt>
<trkpt lat="47.927654" lon="11.14439">
<ele>516.392</ele>
<time>2022-05-26T13:54:27Z</time>
</trkpt>
<trkpt lat="47.927666" lon="11.144363">
<ele>516.392</ele>
<time>2022-05-26T13:54:28Z</time>
</trkpt>
<trkpt lat="47.927685" lon="11.144341">
<ele>516.393</ele>
<time>2022-05-26T13:54:29Z</time>
</trkpt>
<trkpt lat="47.927704" lon="11.14432">
<ele>516.392</ele>
<time>2022-05-26T13:54:30Z</time>
</trkpt>
<trkpt lat="47.927719" lon="11.144295">
<ele>516.392</ele>
<time>2022-05-26T13:54:31Z</time>
</trkpt>
<trkpt lat="47.927734" lon="11.144266">
<ele>516.392</ele>
<time>2022-05-26T13:54:32Z</time>
</trkpt>
<trkpt lat="47.927753" lon="11.14424">
<ele>516.392</ele>
<time>2022-05-26T13:54:33Z</time>
</trkpt>
<trkpt lat="47.927769" lon="11.144212">
<ele>516.392</ele>
<time>2022-05-26T13:54:34Z</time>
</trkpt>
<trkpt lat="47.927788" lon="11.14418">
<ele>516.392</ele>
<time>2022-05-26T13:54:35Z</time>
</trkpt>
<trkpt lat="47.927814" lon="11.144143">
<ele>516.392</ele>
<time>2022-05-26T13:54:36Z</time>
</trkpt>
<trkpt lat="47.927834" lon="11.144112">
<ele>516.393</ele>
<time>2022-05-26T13:54:37Z</time>
</trkpt>
<trkpt lat="47.92786" lon="11.144082">
<ele>516.392</ele>
<time>2022-05-26T13:54:38Z</time>
</trkpt>
<trkpt lat="47.927887" lon="11.144053">
<ele>516.393</ele>
<time>2022-05-26T13:54:39Z</time>
</trkpt>
<trkpt lat="47.927914" lon="11.14402">
<ele>516.392</ele>
<time>2022-05-26T13:54:40Z</time>
</trkpt>
<trkpt lat="47.92794" lon="11.143987">
<ele>516.392</ele>
<time>2022-05-26T13:54:41Z</time>
</trkpt>
<trkpt lat="47.927963" lon="11.143958">
<ele>516.392</ele>
<time>2022-05-26T13:54:42Z</time>
</trkpt>
<trkpt lat="47.92799" lon="11.143931">
<ele>516.393</ele>
<time>2022-05-26T13:54:43Z</time>
</trkpt>
<trkpt lat="47.92802" lon="11.143914">
<ele>516.393</ele>
<time>2022-05-26T13:54:44Z</time>
</trkpt>
<trkpt lat="47.928047" lon="11.14391">
<ele>516.392</ele>
<time>2022-05-26T13:54:45Z</time>
</trkpt>
<trkpt lat="47.928066" lon="11.143913">
<ele>516.173</ele>
<time>2022-05-26T13:54:46Z</time>
</trkpt>
<trkpt lat="47.928078" lon="11.143914">
<ele>515.994</ele>
<time>2022-05-26T13:54:47Z</time>
</trkpt>
<trkpt lat="47.928082" lon="11.143914">
<ele>515.848</ele>
<time>2022-05-26T13:54:48Z</time>
</trkpt>
<trkpt lat="47.928082" lon="11.143913">
<ele>515.725</ele>
<time>2022-05-26T13:54:49Z</time>
</trkpt>
<trkpt lat="47.928085" lon="11.143913">
<ele>515.626</ele>
<time>2022-05-26T13:54:50Z</time>
</trkpt>
<trkpt lat="47.928089" lon="11.143906">
<ele>515.545</ele>
<time>2022-05-26T13:55:17Z</time>
</trkpt>
<trkpt lat="47.928085" lon="11.143897">
<ele>515.478</ele>
<time>2022-05-26T13:55:18Z</time>
</trkpt>
<trkpt lat="47.928078" lon="11.143891">
<ele>515.436</ele>
<time>2022-05-26T13:55:19Z</time>
</trkpt>
<trkpt lat="47.928066" lon="11.143891">
<ele>515.436</ele>
<time>2022-05-26T13:55:20Z</time>
</trkpt>
<trkpt lat="47.928051" lon="11.143895">
<ele>515.436</ele>
<time>2022-05-26T13:55:21Z</time>
</trkpt>
<trkpt lat="47.92804" lon="11.143902">
<ele>515.436</ele>
<time>2022-05-26T13:55:22Z</time>
</trkpt>
<trkpt lat="47.928024" lon="11.143909">
<ele>515.436</ele>
<time>2022-05-26T13:55:23Z</time>
</trkpt>
<trkpt lat="47.928009" lon="11.143918">
<ele>515.436</ele>
<time>2022-05-26T13:55:24Z</time>
</trkpt>
<trkpt lat="47.927986" lon="11.143933">
<ele>515.436</ele>
<time>2022-05-26T13:55:25Z</time>
</trkpt>
<trkpt lat="47.927967" lon="11.14395">
<ele>515.436</ele>
<time>2022-05-26T13:55:26Z</time>
</trkpt>
<trkpt lat="47.927948" lon="11.143971">
<ele>515.436</ele>
<time>2022-05-26T13:55:27Z</time>
</trkpt>
<trkpt lat="47.927921" lon="11.143996">
<ele>515.436</ele>
<time>2022-05-26T13:55:28Z</time>
</trkpt>
<trkpt lat="47.927898" lon="11.144023">
<ele>515.436</ele>
<time>2022-05-26T13:55:29Z</time>
</trkpt>
<trkpt lat="47.927879" lon="11.144045">
<ele>515.436</ele>
<time>2022-05-26T13:55:30Z</time>
</trkpt>
<trkpt lat="47.927856" lon="11.144069">
<ele>515.436</ele>
<time>2022-05-26T13:55:31Z</time>
</trkpt>
<trkpt lat="47.927837" lon="11.14409">
<ele>515.436</ele>
<time>2022-05-26T13:55:32Z</time>
</trkpt>
<trkpt lat="47.927822" lon="11.144112">
<ele>515.436</ele>
<time>2022-05-26T13:55:33Z</time>
</trkpt>
<trkpt lat="47.927811" lon="11.144138">
<ele>515.436</ele>
<time>2022-05-26T13:55:34Z</time>
</trkpt>
<trkpt lat="47.927792" lon="11.144163">
<ele>515.436</ele>
<time>2022-05-26T13:55:35Z</time>
</trkpt>
<trkpt lat="47.927776" lon="11.144189">
<ele>515.436</ele>
<time>2022-05-26T13:55:36Z</time>
</trkpt>
<trkpt lat="47.927757" lon="11.144208">
<ele>515.436</ele>
<time>2022-05-26T13:55:37Z</time>
</trkpt>
<trkpt lat="47.927746" lon="11.144228">
<ele>515.651</ele>
<time>2022-05-26T13:55:38Z</time>
</trkpt>
<trkpt lat="47.927731" lon="11.144252">
<ele>515.822</ele>
<time>2022-05-26T13:55:39Z</time>
</trkpt>
<trkpt lat="47.927708" lon="11.144275">
<ele>515.968</ele>
<time>2022-05-26T13:55:40Z</time>
</trkpt>
<trkpt lat="47.927689" lon="11.144292">
<ele>516.063</ele>
<time>2022-05-26T13:55:41Z</time>
</trkpt>
<trkpt lat="47.92767" lon="11.144306">
<ele>516.16</ele>
<time>2022-05-26T13:55:42Z</time>
</trkpt>
<trkpt lat="47.927654" lon="11.144317">
<ele>516.233</ele>
<time>2022-05-26T13:55:43Z</time>
</trkpt>
<trkpt lat="47.927635" lon="11.144323">
<ele>516.282</ele>
<time>2022-05-26T13:55:44Z</time>
</trkpt>
<trkpt lat="47.927631" lon="11.144327">
<ele>516.306</ele>
<time>2022-05-26T13:55:45Z</time>
</trkpt>
<trkpt lat="47.927628" lon="11.144333">
<ele>516.305</ele>
<time>2022-05-26T13:55:46Z</time>
</trkpt>
<trkpt lat="47.927628" lon="11.144339">
<ele>516.305</ele>
<time>2022-05-26T13:55:47Z</time>
</trkpt>
<trkpt lat="47.927597" lon="11.14437">
<ele>516.305</ele>
<time>2022-05-26T13:56:27Z</time>
</trkpt>
<trkpt lat="47.927582" lon="11.144366">
<ele>516.305</ele>
<time>2022-05-26T13:56:28Z</time>
</trkpt>
<trkpt lat="47.927563" lon="11.144361">
<ele>516.305</ele>
<time>2022-05-26T13:56:29Z</time>
</trkpt>
<trkpt lat="47.927544" lon="11.144354">
<ele>516.305</ele>
<time>2022-05-26T13:56:30Z</time>
</trkpt>
<trkpt lat="47.927521" lon="11.144346">
<ele>516.306</ele>
<time>2022-05-26T13:56:31Z</time>
</trkpt>
<trkpt lat="47.927502" lon="11.144337">
<ele>516.305</ele>
<time>2022-05-26T13:56:32Z</time>
</trkpt>
<trkpt lat="47.927483" lon="11.144335">
<ele>516.305</ele>
<time>2022-05-26T13:56:33Z</time>
</trkpt>
<trkpt lat="47.92746" lon="11.144337">
<ele>516.305</ele>
<time>2022-05-26T13:56:34Z</time>
</trkpt>
<trkpt lat="47.927433" lon="11.144346">
<ele>516.078</ele>
<time>2022-05-26T13:56:35Z</time>
</trkpt>
<trkpt lat="47.92741" lon="11.144363">
<ele>515.866</ele>
<time>2022-05-26T13:56:36Z</time>
</trkpt>
<trkpt lat="47.927391" lon="11.144385">
<ele>515.722</ele>
<time>2022-05-26T13:56:37Z</time>
</trkpt>
<trkpt lat="47.927364" lon="11.144415">
<ele>515.623</ele>
<time>2022-05-26T13:56:38Z</time>
</trkpt>
<trkpt lat="47.927349" lon="11.144448">
<ele>515.549</ele>
<time>2022-05-26T13:56:39Z</time>
</trkpt>
<trkpt lat="47.92733" lon="11.144484">
<ele>515.495</ele>
<time>2022-05-26T13:56:40Z</time>
</trkpt>
<trkpt lat="47.927311" lon="11.144515">
<ele>515.455</ele>
<time>2022-05-26T13:56:41Z</time>
</trkpt>
<trkpt lat="47.927296" lon="11.144548">
<ele>515.436</ele>
<time>2022-05-26T13:56:42Z</time>
</trkpt>
<trkpt lat="47.92728" lon="11.144585">
<ele>515.436</ele>
<time>2022-05-26T13:56:43Z</time>
</trkpt>
<trkpt lat="47.927261" lon="11.144624">
<ele>515.436</ele>
<time>2022-05-26T13:56:44Z</time>
</trkpt>
<trkpt lat="47.927242" lon="11.144667">
<ele>515.436</ele>
<time>2022-05-26T13:56:45Z</time>
</trkpt>
<trkpt lat="47.927219" lon="11.144707">
<ele>515.436</ele>
<time>2022-05-26T13:56:46Z</time>
</trkpt>
<trkpt lat="47.927197" lon="11.144742">
<ele>515.436</ele>
<time>2022-05-26T13:56:47Z</time>
</trkpt>
<trkpt lat="47.927166" lon="11.144777">
<ele>515.436</ele>
<time>2022-05-26T13:56:48Z</time>
</trkpt>
<trkpt lat="47.927143" lon="11.144809">
<ele>515.436</ele>
<time>2022-05-26T13:56:49Z</time>
</trkpt>
<trkpt lat="47.927116" lon="11.144834">
<ele>515.436</ele>
<time>2022-05-26T13:56:50Z</time>
</trkpt>
<trkpt lat="47.927086" lon="11.144865">
<ele>515.436</ele>
<time>2022-05-26T13:56:51Z</time>
</trkpt>
<trkpt lat="47.927052" lon="11.144893">
<ele>515.436</ele>
<time>2022-05-26T13:56:52Z</time>
</trkpt>
<trkpt lat="47.927013" lon="11.144918">
<ele>515.436</ele>
<time>2022-05-26T13:56:53Z</time>
</trkpt>
<trkpt lat="47.926979" lon="11.144937">
<ele>515.436</ele>
<time>2022-05-26T13:56:54Z</time>
</trkpt>
<trkpt lat="47.926937" lon="11.144947">
<ele>515.436</ele>
<time>2022-05-26T13:56:55Z</time>
</trkpt>
<trkpt lat="47.926899" lon="11.144956">
<ele>515.436</ele>
<time>2022-05-26T13:56:56Z</time>
</trkpt>
<trkpt lat="47.926857" lon="11.144965">
<ele>515.436</ele>
<time>2022-05-26T13:56:57Z</time>
</trkpt>
<trkpt lat="47.926819" lon="11.144977">
<ele>515.436</ele>
<time>2022-05-26T13:56:58Z</time>
</trkpt>
<trkpt lat="47.926781" lon="11.144987">
<ele>515.436</ele>
<time>2022-05-26T13:56:59Z</time>
</trkpt>
<trkpt lat="47.926746" lon="11.144991">
<ele>515.436</ele>
<time>2022-05-26T13:57:00Z</time>
</trkpt>
<trkpt lat="47.926708" lon="11.144997">
<ele>515.436</ele>
<time>2022-05-26T13:57:01Z</time>
</trkpt>
<trkpt lat="47.926674" lon="11.145003">
<ele>515.436</ele>
<time>2022-05-26T13:57:02Z</time>
</trkpt>
<trkpt lat="47.92664" lon="11.145012">
<ele>515.436</ele>
<time>2022-05-26T13:57:03Z</time>
</trkpt>
<trkpt lat="47.926605" lon="11.145019">
<ele>515.672</ele>
<time>2022-05-26T13:57:04Z</time>
</trkpt>
<trkpt lat="47.926571" lon="11.145023">
<ele>515.859</ele>
<time>2022-05-26T13:57:05Z</time>
</trkpt>
<trkpt lat="47.926533" lon="11.145028">
<ele>516.005</ele>
<time>2022-05-26T13:57:06Z</time>
</trkpt>
<trkpt lat="47.926498" lon="11.145033">
<ele>516.118</ele>
<time>2022-05-26T13:57:07Z</time>
</trkpt>
<trkpt lat="47.926456" lon="11.145037">
<ele>516.189</ele>
<time>2022-05-26T13:57:08Z</time>
</trkpt>
<trkpt lat="47.926414" lon="11.145039">
<ele>516.241</ele>
<time>2022-05-26T13:57:09Z</time>
</trkpt>
<trkpt lat="47.926376" lon="11.145043">
<ele>516.281</ele>
<time>2022-05-26T13:57:10Z</time>
</trkpt>
<trkpt lat="47.926338" lon="11.145048">
<ele>516.305</ele>
<time>2022-05-26T13:57:11Z</time>
</trkpt>
<trkpt lat="47.926308" lon="11.145056">
<ele>516.305</ele>
<time>2022-05-26T13:57:12Z</time>
</trkpt>
<trkpt lat="47.926285" lon="11.145063">
<ele>516.306</ele>
<time>2022-05-26T13:57:13Z</time>
</trkpt>
<trkpt lat="47.926281" lon="11.14507">
<ele>516.305</ele>
<time>2022-05-26T13:57:14Z</time>
</trkpt>
<trkpt lat="47.926281" lon="11.145072">
<ele>516.305</ele>
<time>2022-05-26T13:57:15Z</time>
</trkpt>
<trkpt lat="47.926292" lon="11.145066">
<ele>516.306</ele>
<time>2022-05-26T13:57:41Z</time>
</trkpt>
<trkpt lat="47.9263" lon="11.145061">
<ele>516.305</ele>
<time>2022-05-26T13:57:42Z</time>
</trkpt>
<trkpt lat="47.926315" lon="11.145059">
<ele>516.305</ele>
<time>2022-05-26T13:57:43Z</time>
</trkpt>
<trkpt lat="47.926319" lon="11.145056">
<ele>516.305</ele>
<time>2022-05-26T13:57:44Z</time>
</trkpt>
<trkpt lat="47.926334" lon="11.145054">
<ele>516.305</ele>
<time>2022-05-26T13:57:45Z</time>
</trkpt>
<trkpt lat="47.926346" lon="11.145052">
<ele>516.306</ele>
<time>2022-05-26T13:57:46Z</time>
</trkpt>
<trkpt lat="47.926357" lon="11.145052">
<ele>516.305</ele>
<time>2022-05-26T13:57:47Z</time>
</trkpt>
<trkpt lat="47.926376" lon="11.145052">
<ele>516.305</ele>
<time>2022-05-26T13:57:48Z</time>
</trkpt>
<trkpt lat="47.926399" lon="11.145047">
<ele>516.305</ele>
<time>2022-05-26T13:57:49Z</time>
</trkpt>
<trkpt lat="47.926434" lon="11.145041">
<ele>516.306</ele>
<time>2022-05-26T13:57:50Z</time>
</trkpt>
<trkpt lat="47.92646" lon="11.14504">
<ele>516.305</ele>
<time>2022-05-26T13:57:51Z</time>
</trkpt>
<trkpt lat="47.926495" lon="11.145037">
<ele>516.305</ele>
<time>2022-05-26T13:57:52Z</time>
</trkpt>
<trkpt lat="47.926537" lon="11.14503">
<ele>516.305</ele>
<time>2022-05-26T13:57:53Z</time>
</trkpt>
<trkpt lat="47.926575" lon="11.145023">
<ele>516.305</ele>
<time>2022-05-26T13:57:54Z</time>
</trkpt>
<trkpt lat="47.926613" lon="11.145017">
<ele>516.305</ele>
<time>2022-05-26T13:57:55Z</time>
</trkpt>
<trkpt lat="47.926647" lon="11.14501">
<ele>516.306</ele>
<time>2022-05-26T13:57:56Z</time>
</trkpt>
<trkpt lat="47.926689" lon="11.145005">
<ele>516.305</ele>
<time>2022-05-26T13:57:57Z</time>
</trkpt>
<trkpt lat="47.926723" lon="11.145001">
<ele>516.306</ele>
<time>2022-05-26T13:57:58Z</time>
</trkpt>
<trkpt lat="47.926762" lon="11.144999">
<ele>516.305</ele>
<time>2022-05-26T13:57:59Z</time>
</trkpt>
<trkpt lat="47.926796" lon="11.144991">
<ele>516.305</ele>
<time>2022-05-26T13:58:00Z</time>
</trkpt>
<trkpt lat="47.926834" lon="11.144983">
<ele>516.305</ele>
<time>2022-05-26T13:58:01Z</time>
</trkpt>
<trkpt lat="47.926868" lon="11.144977">
<ele>516.305</ele>
<time>2022-05-26T13:58:02Z</time>
</trkpt>
<trkpt lat="47.926903" lon="11.14497">
<ele>516.305</ele>
<time>2022-05-26T13:58:03Z</time>
</trkpt>
<trkpt lat="47.926945" lon="11.144959">
<ele>516.113</ele>
<time>2022-05-26T13:58:04Z</time>
</trkpt>
<trkpt lat="47.926991" lon="11.14495">
<ele>515.926</ele>
<time>2022-05-26T13:58:05Z</time>
</trkpt>
<trkpt lat="47.927032" lon="11.14493">
<ele>515.77</ele>
<time>2022-05-26T13:58:06Z</time>
</trkpt>
<trkpt lat="47.927067" lon="11.144901">
<ele>515.651</ele>
<time>2022-05-26T13:58:07Z</time>
</trkpt>
<trkpt lat="47.927101" lon="11.144872">
<ele>515.56</ele>
<time>2022-05-26T13:58:08Z</time>
</trkpt>
<trkpt lat="47.927132" lon="11.144836">
<ele>515.495</ele>
<time>2022-05-26T13:58:09Z</time>
</trkpt>
<trkpt lat="47.927162" lon="11.144803">
<ele>515.455</ele>
<time>2022-05-26T13:58:10Z</time>
</trkpt>
<trkpt lat="47.927189" lon="11.144762">
<ele>515.436</ele>
<time>2022-05-26T13:58:11Z</time>
</trkpt>
<trkpt lat="47.927212" lon="11.144718">
<ele>515.436</ele>
<time>2022-05-26T13:58:12Z</time>
</trkpt>
<trkpt lat="47.927235" lon="11.144673">
<ele>515.436</ele>
<time>2022-05-26T13:58:13Z</time>
</trkpt>
<trkpt lat="47.927261" lon="11.144631">
<ele>515.436</ele>
<time>2022-05-26T13:58:14Z</time>
</trkpt>
<trkpt lat="47.92728" lon="11.144595">
<ele>515.436</ele>
<time>2022-05-26T13:58:15Z</time>
</trkpt>
<trkpt lat="47.927299" lon="11.144558">
<ele>515.436</ele>
<time>2022-05-26T13:58:16Z</time>
</trkpt>
<trkpt lat="47.927322" lon="11.14452">
<ele>515.436</ele>
<time>2022-05-26T13:58:17Z</time>
</trkpt>
<trkpt lat="47.927338" lon="11.144482">
<ele>515.436</ele>
<time>2022-05-26T13:58:18Z</time>
</trkpt>
<trkpt lat="47.927357" lon="11.144442">
<ele>515.436</ele>
<time>2022-05-26T13:58:19Z</time>
</trkpt>
<trkpt lat="47.927376" lon="11.144402">
<ele>515.436</ele>
<time>2022-05-26T13:58:20Z</time>
</trkpt>
<trkpt lat="47.927395" lon="11.144363">
<ele>515.436</ele>
<time>2022-05-26T13:58:21Z</time>
</trkpt>
<trkpt lat="47.927414" lon="11.144323">
<ele>515.436</ele>
<time>2022-05-26T13:58:22Z</time>
</trkpt>
<trkpt lat="47.927425" lon="11.144283">
<ele>515.436</ele>
<time>2022-05-26T13:58:23Z</time>
</trkpt>
<trkpt lat="47.927425" lon="11.144247">
<ele>515.436</ele>
<time>2022-05-26T13:58:24Z</time>
</trkpt>
<trkpt lat="47.927425" lon="11.14422">
<ele>515.436</ele>
<time>2022-05-26T13:58:25Z</time>
</trkpt>
<trkpt lat="47.927414" lon="11.144203">
<ele>515.436</ele>
<time>2022-05-26T13:58:26Z</time>
</trkpt>
<trkpt lat="47.927414" lon="11.144201">
<ele>515.436</ele>
<time>2022-05-26T13:58:27Z</time>
</trkpt>
<trkpt lat="47.92741" lon="11.144199">
<ele>515.436</ele>
<time>2022-05-26T13:58:29Z</time>
</trkpt>
<trkpt lat="47.927414" lon="11.144207">
<ele>515.436</ele>
<time>2022-05-26T13:58:32Z</time>
</trkpt>
<trkpt lat="47.927422" lon="11.144207">
<ele>515.436</ele>
<time>2022-05-26T13:58:33Z</time>
</trkpt>
<trkpt lat="47.927429" lon="11.14421">
<ele>515.436</ele>
<time>2022-05-26T13:58:34Z</time>
</trkpt>
<trkpt lat="47.927441" lon="11.144216">
<ele>515.436</ele>
<time>2022-05-26T13:58:35Z</time>
</trkpt>
<trkpt lat="47.927452" lon="11.144228">
<ele>515.436</ele>
<time>2022-05-26T13:58:36Z</time>
</trkpt>
<trkpt lat="47.927456" lon="11.144243">
<ele>515.436</ele>
<time>2022-05-26T13:58:37Z</time>
</trkpt>
<trkpt lat="47.92746" lon="11.144259">
<ele>515.436</ele>
<time>2022-05-26T13:58:38Z</time>
</trkpt>
<trkpt lat="47.927464" lon="11.144273">
<ele>515.436</ele>
<time>2022-05-26T13:58:39Z</time>
</trkpt>
<trkpt lat="47.927475" lon="11.144287">
<ele>515.436</ele>
<time>2022-05-26T13:58:40Z</time>
</trkpt>
<trkpt lat="47.92749" lon="11.144301">
<ele>515.436</ele>
<time>2022-05-26T13:58:41Z</time>
</trkpt>
<trkpt lat="47.927502" lon="11.144315">
<ele>515.436</ele>
<time>2022-05-26T13:58:42Z</time>
</trkpt>
<trkpt lat="47.927517" lon="11.144329">
<ele>515.436</ele>
<time>2022-05-26T13:58:43Z</time>
</trkpt>
<trkpt lat="47.927544" lon="11.144337">
<ele>515.436</ele>
<time>2022-05-26T13:58:44Z</time>
</trkpt>
<trkpt lat="47.927567" lon="11.144345">
<ele>515.436</ele>
<time>2022-05-26T13:58:45Z</time>
</trkpt>
<trkpt lat="47.927597" lon="11.144345">
<ele>515.749</ele>
<time>2022-05-26T13:58:46Z</time>
</trkpt>
<trkpt lat="47.92762" lon="11.144335">
<ele>515.938</ele>
<time>2022-05-26T13:58:47Z</time>
</trkpt>
<trkpt lat="47.927647" lon="11.144315">
<ele>516.119</ele>
<time>2022-05-26T13:58:48Z</time>
</trkpt>
<trkpt lat="47.927677" lon="11.144285">
<ele>516.255</ele>
<time>2022-05-26T13:58:49Z</time>
</trkpt>
<trkpt lat="47.927711" lon="11.144256">
<ele>516.357</ele>
<time>2022-05-26T13:58:50Z</time>
</trkpt>
<trkpt lat="47.927746" lon="11.144222">
<ele>516.42</ele>
<time>2022-05-26T13:58:51Z</time>
</trkpt>
<trkpt lat="47.927773" lon="11.14418">
<ele>516.457</ele>
<time>2022-05-26T13:58:52Z</time>
</trkpt>
<trkpt lat="47.927807" lon="11.144136">
<ele>516.479</ele>
<time>2022-05-26T13:58:53Z</time>
</trkpt>
<trkpt lat="47.927841" lon="11.144096">
<ele>516.479</ele>
<time>2022-05-26T13:58:54Z</time>
</trkpt>
<trkpt lat="47.927872" lon="11.144056">
<ele>516.479</ele>
<time>2022-05-26T13:58:55Z</time>
</trkpt>
<trkpt lat="47.927898" lon="11.144018">
<ele>516.479</ele>
<time>2022-05-26T13:58:56Z</time>
</trkpt>
<trkpt lat="47.927917" lon="11.14398">
<ele>516.479</ele>
<time>2022-05-26T13:58:57Z</time>
</trkpt>
<trkpt lat="47.927948" lon="11.143951">
<ele>516.479</ele>
<time>2022-05-26T13:58:58Z</time>
</trkpt>
<trkpt lat="47.927975" lon="11.143925">
<ele>516.479</ele>
<time>2022-05-26T13:58:59Z</time>
</trkpt>
<trkpt lat="47.928001" lon="11.14391">
<ele>516.479</ele>
<time>2022-05-26T13:59:00Z</time>
</trkpt>
<trkpt lat="47.928028" lon="11.143906">
<ele>516.479</ele>
<time>2022-05-26T13:59:01Z</time>
</trkpt>
<trkpt lat="47.928051" lon="11.143898">
<ele>516.479</ele>
<time>2022-05-26T13:59:02Z</time>
</trkpt>
<trkpt lat="47.928078" lon="11.143891">
<ele>516.479</ele>
<time>2022-05-26T13:59:03Z</time>
</trkpt>
<trkpt lat="47.928097" lon="11.143885">
<ele>516.479</ele>
<time>2022-05-26T13:59:04Z</time>
</trkpt>
<trkpt lat="47.928112" lon="11.14388">
<ele>516.479</ele>
<time>2022-05-26T13:59:05Z</time>
</trkpt>
<trkpt lat="47.928112" lon="11.143873">
<ele>516.479</ele>
<time>2022-05-26T13:59:06Z</time>
</trkpt>
<trkpt lat="47.928116" lon="11.14387">
<ele>516.479</ele>
<time>2022-05-26T13:59:07Z</time>
</trkpt>
<trkpt lat="47.92812" lon="11.143868">
<ele>516.479</ele>
<time>2022-05-26T13:59:08Z</time>
</trkpt>
<trkpt lat="47.928116" lon="11.143868">
<ele>516.479</ele>
<time>2022-05-26T13:59:09Z</time>
</trkpt>
<trkpt lat="47.928143" lon="11.143868">
<ele>516.479</ele>
<time>2022-05-26T13:59:23Z</time>
</trkpt>
<trkpt lat="47.928154" lon="11.143855">
<ele>516.241</ele>
<time>2022-05-26T13:59:24Z</time>
</trkpt>
<trkpt lat="47.928173" lon="11.143835">
<ele>515.994</ele>
<time>2022-05-26T13:59:25Z</time>
</trkpt>
<trkpt lat="47.928185" lon="11.143808">
<ele>515.762</ele>
<time>2022-05-26T13:59:26Z</time>
</trkpt>
<trkpt lat="47.928204" lon="11.14377">
<ele>515.606</ele>
<time>2022-05-26T13:59:27Z</time>
</trkpt>
<trkpt lat="47.928223" lon="11.143719">
<ele>515.549</ele>
<time>2022-05-26T13:59:28Z</time>
</trkpt>
<trkpt lat="47.928246" lon="11.143654">
<ele>515.531</ele>
<time>2022-05-26T13:59:29Z</time>
</trkpt>
<trkpt lat="47.928268" lon="11.143579">
<ele>515.525</ele>
<time>2022-05-26T13:59:30Z</time>
</trkpt>
<trkpt lat="47.928288" lon="11.143499">
<ele>515.523</ele>
<time>2022-05-26T13:59:31Z</time>
</trkpt>
<trkpt lat="47.928307" lon="11.14342">
<ele>515.523</ele>
<time>2022-05-26T13:59:32Z</time>
</trkpt>
<trkpt lat="47.928329" lon="11.143344">
<ele>515.523</ele>
<time>2022-05-26T13:59:33Z</time>
</trkpt>
<trkpt lat="47.928349" lon="11.143267">
<ele>515.523</ele>
<time>2022-05-26T13:59:34Z</time>
</trkpt>
<trkpt lat="47.928371" lon="11.143191">
<ele>515.523</ele>
<time>2022-05-26T13:59:35Z</time>
</trkpt>
<trkpt lat="47.928387" lon="11.143118">
<ele>515.523</ele>
<time>2022-05-26T13:59:36Z</time>
</trkpt>
<trkpt lat="47.928406" lon="11.143042">
<ele>515.523</ele>
<time>2022-05-26T13:59:37Z</time>
</trkpt>
<trkpt lat="47.928425" lon="11.142962">
<ele>515.523</ele>
<time>2022-05-26T13:59:38Z</time>
</trkpt>
<trkpt lat="47.92844" lon="11.142879">
<ele>515.523</ele>
<time>2022-05-26T13:59:39Z</time>
</trkpt>
<trkpt lat="47.928459" lon="11.142796">
<ele>515.523</ele>
<time>2022-05-26T13:59:40Z</time>
</trkpt>
<trkpt lat="47.928474" lon="11.142708">
<ele>515.523</ele>
<time>2022-05-26T13:59:41Z</time>
</trkpt>
<trkpt lat="47.928493" lon="11.142625">
<ele>515.523</ele>
<time>2022-05-26T13:59:42Z</time>
</trkpt>
<trkpt lat="47.928516" lon="11.14254">
<ele>515.523</ele>
<time>2022-05-26T13:59:43Z</time>
</trkpt>
<trkpt lat="47.928535" lon="11.142456">
<ele>515.523</ele>
<time>2022-05-26T13:59:44Z</time>
</trkpt>
<trkpt lat="47.928562" lon="11.142374">
<ele>515.523</ele>
<time>2022-05-26T13:59:45Z</time>
</trkpt>
<trkpt lat="47.928585" lon="11.14229">
<ele>515.523</ele>
<time>2022-05-26T13:59:46Z</time>
</trkpt>
<trkpt lat="47.9286" lon="11.142205">
<ele>515.523</ele>
<time>2022-05-26T13:59:47Z</time>
</trkpt>
<trkpt lat="47.928623" lon="11.142123">
<ele>515.523</ele>
<time>2022-05-26T13:59:48Z</time>
</trkpt>
<trkpt lat="47.928642" lon="11.142041">
<ele>515.523</ele>
<time>2022-05-26T13:59:49Z</time>
</trkpt>
<trkpt lat="47.928661" lon="11.141958">
<ele>515.523</ele>
<time>2022-05-26T13:59:50Z</time>
</trkpt>
<trkpt lat="47.92868" lon="11.141875">
<ele>515.523</ele>
<time>2022-05-26T13:59:51Z</time>
</trkpt>
<trkpt lat="47.928696" lon="11.141793">
<ele>515.523</ele>
<time>2022-05-26T13:59:52Z</time>
</trkpt>
<trkpt lat="47.928719" lon="11.141714">
<ele>515.523</ele>
<time>2022-05-26T13:59:53Z</time>
</trkpt>
<trkpt lat="47.928734" lon="11.141633">
<ele>515.523</ele>
<time>2022-05-26T13:59:54Z</time>
</trkpt>
<trkpt lat="47.928757" lon="11.141551">
<ele>515.523</ele>
<time>2022-05-26T13:59:55Z</time>
</trkpt>
<trkpt lat="47.92878" lon="11.14147">
<ele>515.523</ele>
<time>2022-05-26T13:59:56Z</time>
</trkpt>
<trkpt lat="47.928799" lon="11.14139">
<ele>515.523</ele>
<time>2022-05-26T13:59:57Z</time>
</trkpt>
<trkpt lat="47.928818" lon="11.141308">
<ele>515.523</ele>
<time>2022-05-26T13:59:58Z</time>
</trkpt>
<trkpt lat="47.928837" lon="11.141231">
<ele>515.523</ele>
<time>2022-05-26T13:59:59Z</time>
</trkpt>
<trkpt lat="47.92886" lon="11.141151">
<ele>515.523</ele>
<time>2022-05-26T14:00:00Z</time>
</trkpt>
<trkpt lat="47.928875" lon="11.141073">
<ele>515.523</ele>
<time>2022-05-26T14:00:01Z</time>
</trkpt>
<trkpt lat="47.928894" lon="11.140995">
<ele>515.523</ele>
<time>2022-05-26T14:00:02Z</time>
</trkpt>
<trkpt lat="47.928917" lon="11.140914">
<ele>515.523</ele>
<time>2022-05-26T14:00:03Z</time>
</trkpt>
<trkpt lat="47.928932" lon="11.14083">
<ele>515.523</ele>
<time>2022-05-26T14:00:04Z</time>
</trkpt>
<trkpt lat="47.928951" lon="11.14075">
<ele>515.523</ele>
<time>2022-05-26T14:00:05Z</time>
</trkpt>
<trkpt lat="47.928974" lon="11.140674">
<ele>515.523</ele>
<time>2022-05-26T14:00:06Z</time>
</trkpt>
<trkpt lat="47.928993" lon="11.140597">
<ele>515.523</ele>
<time>2022-05-26T14:00:07Z</time>
</trkpt>
<trkpt lat="47.929012" lon="11.140518">
<ele>515.523</ele>
<time>2022-05-26T14:00:08Z</time>
</trkpt>
<trkpt lat="47.929035" lon="11.14044">
<ele>515.523</ele>
<time>2022-05-26T14:00:09Z</time>
</trkpt>
<trkpt lat="47.929054" lon="11.140361">
<ele>515.523</ele>
<time>2022-05-26T14:00:10Z</time>
</trkpt>
<trkpt lat="47.929077" lon="11.14028">
<ele>515.523</ele>
<time>2022-05-26T14:00:11Z</time>
</trkpt>
<trkpt lat="47.929092" lon="11.140202">
<ele>515.523</ele>
<time>2022-05-26T14:00:12Z</time>
</trkpt>
<trkpt lat="47.929115" lon="11.140121">
<ele>515.523</ele>
<time>2022-05-26T14:00:13Z</time>
</trkpt>
<trkpt lat="47.929134" lon="11.140042">
<ele>515.523</ele>
<time>2022-05-26T14:00:14Z</time>
</trkpt>
<trkpt lat="47.929153" lon="11.139963">
<ele>515.523</ele>
<time>2022-05-26T14:00:15Z</time>
</trkpt>
<trkpt lat="47.929169" lon="11.139883">
<ele>515.523</ele>
<time>2022-05-26T14:00:16Z</time>
</trkpt>
<trkpt lat="47.929192" lon="11.139805">
<ele>515.523</ele>
<time>2022-05-26T14:00:17Z</time>
</trkpt>
<trkpt lat="47.929214" lon="11.139725">
<ele>515.523</ele>
<time>2022-05-26T14:00:18Z</time>
</trkpt>
<trkpt lat="47.92923" lon="11.139645">
<ele>515.523</ele>
<time>2022-05-26T14:00:19Z</time>
</trkpt>
<trkpt lat="47.929253" lon="11.139566">
<ele>515.523</ele>
<time>2022-05-26T14:00:20Z</time>
</trkpt>
<trkpt lat="47.929272" lon="11.139489">
<ele>515.523</ele>
<time>2022-05-26T14:00:21Z</time>
</trkpt>
<trkpt lat="47.929291" lon="11.139412">
<ele>515.523</ele>
<time>2022-05-26T14:00:22Z</time>
</trkpt>
<trkpt lat="47.929317" lon="11.139334">
<ele>515.523</ele>
<time>2022-05-26T14:00:23Z</time>
</trkpt>
<trkpt lat="47.929337" lon="11.139255">
<ele>515.523</ele>
<time>2022-05-26T14:00:24Z</time>
</trkpt>
<trkpt lat="47.929356" lon="11.139177">
<ele>515.523</ele>
<time>2022-05-26T14:00:25Z</time>
</trkpt>
<trkpt lat="47.929375" lon="11.139098">
<ele>515.523</ele>
<time>2022-05-26T14:00:26Z</time>
</trkpt>
<trkpt lat="47.929394" lon="11.139016">
<ele>515.523</ele>
<time>2022-05-26T14:00:27Z</time>
</trkpt>
<trkpt lat="47.929413" lon="11.138936">
<ele>515.523</ele>
<time>2022-05-26T14:00:28Z</time>
</trkpt>
<trkpt lat="47.929432" lon="11.138857">
<ele>515.523</ele>
<time>2022-05-26T14:00:29Z</time>
</trkpt>
<trkpt lat="47.929455" lon="11.138775">
<ele>515.523</ele>
<time>2022-05-26T14:00:30Z</time>
</trkpt>
<trkpt lat="47.929478" lon="11.138697">
<ele>515.523</ele>
<time>2022-05-26T14:00:31Z</time>
</trkpt>
<trkpt lat="47.929497" lon="11.138617">
<ele>515.523</ele>
<time>2022-05-26T14:00:32Z</time>
</trkpt>
<trkpt lat="47.929516" lon="11.138538">
<ele>515.523</ele>
<time>2022-05-26T14:00:33Z</time>
</trkpt>
<trkpt lat="47.929539" lon="11.13846">
<ele>515.523</ele>
<time>2022-05-26T14:00:34Z</time>
</trkpt>
<trkpt lat="47.929558" lon="11.138381">
<ele>515.523</ele>
<time>2022-05-26T14:00:35Z</time>
</trkpt>
<trkpt lat="47.929577" lon="11.138302">
<ele>515.523</ele>
<time>2022-05-26T14:00:36Z</time>
</trkpt>
<trkpt lat="47.929596" lon="11.13822">
<ele>515.523</ele>
<time>2022-05-26T14:00:37Z</time>
</trkpt>
<trkpt lat="47.929615" lon="11.138142">
<ele>515.523</ele>
<time>2022-05-26T14:00:38Z</time>
</trkpt>
<trkpt lat="47.929634" lon="11.138062">
<ele>515.523</ele>
<time>2022-05-26T14:00:39Z</time>
</trkpt>
<trkpt lat="47.929653" lon="11.137981">
<ele>515.523</ele>
<time>2022-05-26T14:00:40Z</time>
</trkpt>
<trkpt lat="47.929676" lon="11.137901">
<ele>515.523</ele>
<time>2022-05-26T14:00:41Z</time>
</trkpt>
<trkpt lat="47.929691" lon="11.137821">
<ele>515.523</ele>
<time>2022-05-26T14:00:42Z</time>
</trkpt>
<trkpt lat="47.929707" lon="11.13774">
<ele>515.523</ele>
<time>2022-05-26T14:00:43Z</time>
</trkpt>
<trkpt lat="47.929729" lon="11.137658">
<ele>515.523</ele>
<time>2022-05-26T14:00:44Z</time>
</trkpt>
<trkpt lat="47.929749" lon="11.137578">
<ele>515.523</ele>
<time>2022-05-26T14:00:45Z</time>
</trkpt>
<trkpt lat="47.929771" lon="11.137499">
<ele>515.523</ele>
<time>2022-05-26T14:00:46Z</time>
</trkpt>
<trkpt lat="47.929787" lon="11.13742">
<ele>515.523</ele>
<time>2022-05-26T14:00:47Z</time>
</trkpt>
<trkpt lat="47.929806" lon="11.137341">
<ele>515.523</ele>
<time>2022-05-26T14:00:48Z</time>
</trkpt>
<trkpt lat="47.929829" lon="11.137264">
<ele>515.523</ele>
<time>2022-05-26T14:00:49Z</time>
</trkpt>
<trkpt lat="47.929848" lon="11.137187">
<ele>515.523</ele>
<time>2022-05-26T14:00:50Z</time>
</trkpt>
<trkpt lat="47.929871" lon="11.13711">
<ele>515.523</ele>
<time>2022-05-26T14:00:51Z</time>
</trkpt>
<trkpt lat="47.92989" lon="11.137033">
<ele>515.523</ele>
<time>2022-05-26T14:00:52Z</time>
</trkpt>
<trkpt lat="47.929913" lon="11.136956">
<ele>515.523</ele>
<time>2022-05-26T14:00:53Z</time>
</trkpt>
<trkpt lat="47.929932" lon="11.13688">
<ele>515.523</ele>
<time>2022-05-26T14:00:54Z</time>
</trkpt>
<trkpt lat="47.929955" lon="11.136802">
<ele>515.523</ele>
<time>2022-05-26T14:00:55Z</time>
</trkpt>
<trkpt lat="47.929974" lon="11.136724">
<ele>515.523</ele>
<time>2022-05-26T14:00:56Z</time>
</trkpt>
<trkpt lat="47.929993" lon="11.136642">
<ele>515.523</ele>
<time>2022-05-26T14:00:57Z</time>
</trkpt>
<trkpt lat="47.930012" lon="11.136562">
<ele>515.523</ele>
<time>2022-05-26T14:00:58Z</time>
</trkpt>
<trkpt lat="47.930035" lon="11.136485">
<ele>515.523</ele>
<time>2022-05-26T14:00:59Z</time>
</trkpt>
<trkpt lat="47.930054" lon="11.136407">
<ele>515.523</ele>
<time>2022-05-26T14:01:00Z</time>
</trkpt>
<trkpt lat="47.930073" lon="11.136328">
<ele>515.523</ele>
<time>2022-05-26T14:01:01Z</time>
</trkpt>
<trkpt lat="47.930096" lon="11.136247">
<ele>515.523</ele>
<time>2022-05-26T14:01:02Z</time>
</trkpt>
<trkpt lat="47.930111" lon="11.136167">
<ele>515.523</ele>
<time>2022-05-26T14:01:03Z</time>
</trkpt>
<trkpt lat="47.930134" lon="11.136085">
<ele>515.523</ele>
<time>2022-05-26T14:01:04Z</time>
</trkpt>
<trkpt lat="47.930153" lon="11.136002">
<ele>515.523</ele>
<time>2022-05-26T14:01:05Z</time>
</trkpt>
<trkpt lat="47.930172" lon="11.135921">
<ele>515.523</ele>
<time>2022-05-26T14:01:06Z</time>
</trkpt>
<trkpt lat="47.930195" lon="11.135841">
<ele>515.523</ele>
<time>2022-05-26T14:01:07Z</time>
</trkpt>
<trkpt lat="47.930214" lon="11.135762">
<ele>515.523</ele>
<time>2022-05-26T14:01:08Z</time>
</trkpt>
<trkpt lat="47.930233" lon="11.135683">
<ele>515.523</ele>
<time>2022-05-26T14:01:09Z</time>
</trkpt>
<trkpt lat="47.930256" lon="11.135601">
<ele>515.523</ele>
<time>2022-05-26T14:01:10Z</time>
</trkpt>
<trkpt lat="47.930279" lon="11.13552">
<ele>515.29</ele>
<time>2022-05-26T14:01:11Z</time>
</trkpt>
<trkpt lat="47.930302" lon="11.13544">
<ele>515.096</ele>
<time>2022-05-26T14:01:12Z</time>
</trkpt>
<trkpt lat="47.930325" lon="11.135358">
<ele>514.935</ele>
<time>2022-05-26T14:01:13Z</time>
</trkpt>
<trkpt lat="47.930344" lon="11.13528">
<ele>514.804</ele>
<time>2022-05-26T14:01:14Z</time>
</trkpt>
<trkpt lat="47.930367" lon="11.135201">
<ele>514.706</ele>
<time>2022-05-26T14:01:15Z</time>
</trkpt>
<trkpt lat="47.930393" lon="11.135125">
<ele>514.635</ele>
<time>2022-05-26T14:01:16Z</time>
</trkpt>
<trkpt lat="47.930412" lon="11.135048">
<ele>514.589</ele>
<time>2022-05-26T14:01:17Z</time>
</trkpt>
<trkpt lat="47.930435" lon="11.13497">
<ele>514.567</ele>
<time>2022-05-26T14:01:18Z</time>
</trkpt>
<trkpt lat="47.930458" lon="11.134893">
<ele>514.567</ele>
<time>2022-05-26T14:01:19Z</time>
</trkpt>
<trkpt lat="47.930477" lon="11.134819">
<ele>514.568</ele>
<time>2022-05-26T14:01:20Z</time>
</trkpt>
<trkpt lat="47.9305" lon="11.134746">
<ele>514.567</ele>
<time>2022-05-26T14:01:21Z</time>
</trkpt>
<trkpt lat="47.930523" lon="11.134672">
<ele>514.568</ele>
<time>2022-05-26T14:01:22Z</time>
</trkpt>
<trkpt lat="47.930546" lon="11.134595">
<ele>514.568</ele>
<time>2022-05-26T14:01:23Z</time>
</trkpt>
<trkpt lat="47.930565" lon="11.134517">
<ele>514.567</ele>
<time>2022-05-26T14:01:24Z</time>
</trkpt>
<trkpt lat="47.930588" lon="11.134437">
<ele>514.568</ele>
<time>2022-05-26T14:01:25Z</time>
</trkpt>
<trkpt lat="47.930611" lon="11.134358">
<ele>514.568</ele>
<time>2022-05-26T14:01:26Z</time>
</trkpt>
<trkpt lat="47.93063" lon="11.134278">
<ele>514.568</ele>
<time>2022-05-26T14:01:27Z</time>
</trkpt>
<trkpt lat="47.930653" lon="11.134197">
<ele>514.568</ele>
<time>2022-05-26T14:01:28Z</time>
</trkpt>
<trkpt lat="47.930679" lon="11.134113">
<ele>514.567</ele>
<time>2022-05-26T14:01:29Z</time>
</trkpt>
<trkpt lat="47.930698" lon="11.134031">
<ele>514.567</ele>
<time>2022-05-26T14:01:30Z</time>
</trkpt>
<trkpt lat="47.930721" lon="11.133952">
<ele>514.568</ele>
<time>2022-05-26T14:01:31Z</time>
</trkpt>
<trkpt lat="47.930744" lon="11.133872">
<ele>514.567</ele>
<time>2022-05-26T14:01:32Z</time>
</trkpt>
<trkpt lat="47.930763" lon="11.133793">
<ele>514.567</ele>
<time>2022-05-26T14:01:33Z</time>
</trkpt>
<trkpt lat="47.930782" lon="11.133713">
<ele>514.568</ele>
<time>2022-05-26T14:01:34Z</time>
</trkpt>
<trkpt lat="47.930805" lon="11.13363">
<ele>514.568</ele>
<time>2022-05-26T14:01:35Z</time>
</trkpt>
<trkpt lat="47.93082" lon="11.13355">
<ele>514.568</ele>
<time>2022-05-26T14:01:36Z</time>
</trkpt>
<trkpt lat="47.930843" lon="11.133469">
<ele>514.568</ele>
<time>2022-05-26T14:01:37Z</time>
</trkpt>
<trkpt lat="47.930866" lon="11.13339">
<ele>514.568</ele>
<time>2022-05-26T14:01:38Z</time>
</trkpt>
<trkpt lat="47.930885" lon="11.133315">
<ele>514.568</ele>
<time>2022-05-26T14:01:39Z</time>
</trkpt>
<trkpt lat="47.930908" lon="11.133238">
<ele>514.568</ele>
<time>2022-05-26T14:01:40Z</time>
</trkpt>
<trkpt lat="47.930931" lon="11.13316">
<ele>514.568</ele>
<time>2022-05-26T14:01:41Z</time>
</trkpt>
<trkpt lat="47.93095" lon="11.133079">
<ele>514.567</ele>
<time>2022-05-26T14:01:42Z</time>
</trkpt>
<trkpt lat="47.930973" lon="11.132997">
<ele>514.568</ele>
<time>2022-05-26T14:01:43Z</time>
</trkpt>
<trkpt lat="47.930996" lon="11.132916">
<ele>514.568</ele>
<time>2022-05-26T14:01:44Z</time>
</trkpt>
<trkpt lat="47.931015" lon="11.132837">
<ele>514.568</ele>
<time>2022-05-26T14:01:45Z</time>
</trkpt>
<trkpt lat="47.931034" lon="11.132756">
<ele>514.82</ele>
<time>2022-05-26T14:01:46Z</time>
</trkpt>
<trkpt lat="47.931053" lon="11.132676">
<ele>515.019</ele>
<time>2022-05-26T14:01:47Z</time>
</trkpt>
<trkpt lat="47.931076" lon="11.132597">
<ele>515.169</ele>
<time>2022-05-26T14:01:48Z</time>
</trkpt>
<trkpt lat="47.931099" lon="11.132517">
<ele>515.284</ele>
<time>2022-05-26T14:01:49Z</time>
</trkpt>
<trkpt lat="47.931118" lon="11.132437">
<ele>515.362</ele>
<time>2022-05-26T14:01:50Z</time>
</trkpt>
<trkpt lat="47.931141" lon="11.132355">
<ele>515.445</ele>
<time>2022-05-26T14:01:51Z</time>
</trkpt>
<trkpt lat="47.93116" lon="11.132276">
<ele>515.498</ele>
<time>2022-05-26T14:01:52Z</time>
</trkpt>
<trkpt lat="47.931175" lon="11.132195">
<ele>515.523</ele>
<time>2022-05-26T14:01:53Z</time>
</trkpt>
<trkpt lat="47.931198" lon="11.132116">
<ele>515.523</ele>
<time>2022-05-26T14:01:54Z</time>
</trkpt>
<trkpt lat="47.931217" lon="11.132037">
<ele>515.523</ele>
<time>2022-05-26T14:01:55Z</time>
</trkpt>
<trkpt lat="47.93124" lon="11.131957">
<ele>515.523</ele>
<time>2022-05-26T14:01:56Z</time>
</trkpt>
<trkpt lat="47.931259" lon="11.131876">
<ele>515.523</ele>
<time>2022-05-26T14:01:57Z</time>
</trkpt>
<trkpt lat="47.931278" lon="11.131797">
<ele>515.523</ele>
<time>2022-05-26T14:01:58Z</time>
</trkpt>
<trkpt lat="47.931301" lon="11.131717">
<ele>515.523</ele>
<time>2022-05-26T14:01:59Z</time>
</trkpt>
<trkpt lat="47.93132" lon="11.131639">
<ele>515.523</ele>
<time>2022-05-26T14:02:00Z</time>
</trkpt>
<trkpt lat="47.931339" lon="11.131559">
<ele>515.523</ele>
<time>2022-05-26T14:02:01Z</time>
</trkpt>
<trkpt lat="47.931362" lon="11.131484">
<ele>515.523</ele>
<time>2022-05-26T14:02:02Z</time>
</trkpt>
<trkpt lat="47.931381" lon="11.131405">
<ele>515.523</ele>
<time>2022-05-26T14:02:03Z</time>
</trkpt>
<trkpt lat="47.931404" lon="11.131327">
<ele>515.523</ele>
<time>2022-05-26T14:02:04Z</time>
</trkpt>
<trkpt lat="47.931419" lon="11.131251">
<ele>515.523</ele>
<time>2022-05-26T14:02:05Z</time>
</trkpt>
<trkpt lat="47.931438" lon="11.131176">
<ele>515.523</ele>
<time>2022-05-26T14:02:06Z</time>
</trkpt>
<trkpt lat="47.931458" lon="11.131099">
<ele>515.523</ele>
<time>2022-05-26T14:02:07Z</time>
</trkpt>
<trkpt lat="47.93148" lon="11.131021">
<ele>515.523</ele>
<time>2022-05-26T14:02:08Z</time>
</trkpt>
<trkpt lat="47.931499" lon="11.130941">
<ele>515.523</ele>
<time>2022-05-26T14:02:09Z</time>
</trkpt>
<trkpt lat="47.931522" lon="11.130863">
<ele>515.523</ele>
<time>2022-05-26T14:02:10Z</time>
</trkpt>
<trkpt lat="47.931545" lon="11.130785">
<ele>515.523</ele>
<time>2022-05-26T14:02:11Z</time>
</trkpt>
<trkpt lat="47.931568" lon="11.130707">
<ele>515.523</ele>
<time>2022-05-26T14:02:12Z</time>
</trkpt>
<trkpt lat="47.931587" lon="11.130627">
<ele>515.523</ele>
<time>2022-05-26T14:02:13Z</time>
</trkpt>
<trkpt lat="47.931606" lon="11.130547">
<ele>515.523</ele>
<time>2022-05-26T14:02:14Z</time>
</trkpt>
<trkpt lat="47.931629" lon="11.130468">
<ele>515.523</ele>
<time>2022-05-26T14:02:15Z</time>
</trkpt>
<trkpt lat="47.931648" lon="11.130388">
<ele>515.523</ele>
<time>2022-05-26T14:02:16Z</time>
</trkpt>
<trkpt lat="47.931671" lon="11.130308">
<ele>515.523</ele>
<time>2022-05-26T14:02:17Z</time>
</trkpt>
<trkpt lat="47.931694" lon="11.130229">
<ele>515.523</ele>
<time>2022-05-26T14:02:18Z</time>
</trkpt>
<trkpt lat="47.931713" lon="11.130147">
<ele>515.523</ele>
<time>2022-05-26T14:02:19Z</time>
</trkpt>
<trkpt lat="47.931732" lon="11.130065">
<ele>515.523</ele>
<time>2022-05-26T14:02:20Z</time>
</trkpt>
<trkpt lat="47.931755" lon="11.129984">
<ele>515.523</ele>
<time>2022-05-26T14:02:21Z</time>
</trkpt>
<trkpt lat="47.931774" lon="11.129898">
<ele>515.523</ele>
<time>2022-05-26T14:02:22Z</time>
</trkpt>
<trkpt lat="47.931793" lon="11.129814">
<ele>515.523</ele>
<time>2022-05-26T14:02:23Z</time>
</trkpt>
<trkpt lat="47.93182" lon="11.129733">
<ele>515.523</ele>
<time>2022-05-26T14:02:24Z</time>
</trkpt>
<trkpt lat="47.931843" lon="11.129651">
<ele>515.523</ele>
<time>2022-05-26T14:02:25Z</time>
</trkpt>
<trkpt lat="47.931862" lon="11.12957">
<ele>515.523</ele>
<time>2022-05-26T14:02:26Z</time>
</trkpt>
<trkpt lat="47.931885" lon="11.12949">
<ele>515.523</ele>
<time>2022-05-26T14:02:27Z</time>
</trkpt>
<trkpt lat="47.931908" lon="11.129412">
<ele>515.523</ele>
<time>2022-05-26T14:02:28Z</time>
</trkpt>
<trkpt lat="47.931927" lon="11.129338">
<ele>515.523</ele>
<time>2022-05-26T14:02:29Z</time>
</trkpt>
<trkpt lat="47.931946" lon="11.129263">
<ele>515.523</ele>
<time>2022-05-26T14:02:30Z</time>
</trkpt>
<trkpt lat="47.931969" lon="11.129188">
<ele>515.523</ele>
<time>2022-05-26T14:02:31Z</time>
</trkpt>
<trkpt lat="47.931992" lon="11.129112">
<ele>515.523</ele>
<time>2022-05-26T14:02:32Z</time>
</trkpt>
<trkpt lat="47.932007" lon="11.129035">
<ele>515.523</ele>
<time>2022-05-26T14:02:33Z</time>
</trkpt>
<trkpt lat="47.932022" lon="11.128957">
<ele>515.523</ele>
<time>2022-05-26T14:02:34Z</time>
</trkpt>
<trkpt lat="47.932045" lon="11.128878">
<ele>515.523</ele>
<time>2022-05-26T14:02:35Z</time>
</trkpt>
<trkpt lat="47.932064" lon="11.1288">
<ele>515.523</ele>
<time>2022-05-26T14:02:36Z</time>
</trkpt>
<trkpt lat="47.932087" lon="11.128722">
<ele>515.523</ele>
<time>2022-05-26T14:02:37Z</time>
</trkpt>
<trkpt lat="47.932106" lon="11.128641">
<ele>515.523</ele>
<time>2022-05-26T14:02:38Z</time>
</trkpt>
<trkpt lat="47.932125" lon="11.128565">
<ele>515.523</ele>
<time>2022-05-26T14:02:39Z</time>
</trkpt>
<trkpt lat="47.932148" lon="11.12849">
<ele>515.523</ele>
<time>2022-05-26T14:02:40Z</time>
</trkpt>
<trkpt lat="47.932167" lon="11.128415">
<ele>515.523</ele>
<time>2022-05-26T14:02:41Z</time>
</trkpt>
<trkpt lat="47.932186" lon="11.128339">
<ele>515.523</ele>
<time>2022-05-26T14:02:42Z</time>
</trkpt>
<trkpt lat="47.932209" lon="11.128262">
<ele>515.523</ele>
<time>2022-05-26T14:02:43Z</time>
</trkpt>
<trkpt lat="47.932228" lon="11.128188">
<ele>515.523</ele>
<time>2022-05-26T14:02:44Z</time>
</trkpt>
<trkpt lat="47.932251" lon="11.128113">
<ele>515.523</ele>
<time>2022-05-26T14:02:45Z</time>
</trkpt>
<trkpt lat="47.93227" lon="11.128036">
<ele>515.523</ele>
<time>2022-05-26T14:02:46Z</time>
</trkpt>
<trkpt lat="47.932285" lon="11.12796">
<ele>515.523</ele>
<time>2022-05-26T14:02:47Z</time>
</trkpt>
<trkpt lat="47.932308" lon="11.127883">
<ele>515.523</ele>
<time>2022-05-26T14:02:48Z</time>
</trkpt>
<trkpt lat="47.932327" lon="11.127809">
<ele>515.523</ele>
<time>2022-05-26T14:02:49Z</time>
</trkpt>
<trkpt lat="47.93235" lon="11.127731">
<ele>515.523</ele>
<time>2022-05-26T14:02:50Z</time>
</trkpt>
<trkpt lat="47.932365" lon="11.127654">
<ele>515.523</ele>
<time>2022-05-26T14:02:51Z</time>
</trkpt>
<trkpt lat="47.932384" lon="11.127573">
<ele>515.523</ele>
<time>2022-05-26T14:02:52Z</time>
</trkpt>
<trkpt lat="47.932411" lon="11.1275">
<ele>515.523</ele>
<time>2022-05-26T14:02:53Z</time>
</trkpt>
<trkpt lat="47.93243" lon="11.127426">
<ele>515.523</ele>
<time>2022-05-26T14:02:54Z</time>
</trkpt>
<trkpt lat="47.932449" lon="11.127346">
<ele>515.523</ele>
<time>2022-05-26T14:02:55Z</time>
</trkpt>
<trkpt lat="47.932472" lon="11.127269">
<ele>515.523</ele>
<time>2022-05-26T14:02:56Z</time>
</trkpt>
<trkpt lat="47.932491" lon="11.127195">
<ele>515.523</ele>
<time>2022-05-26T14:02:57Z</time>
</trkpt>
<trkpt lat="47.93251" lon="11.12712">
<ele>515.523</ele>
<time>2022-05-26T14:02:58Z</time>
</trkpt>
<trkpt lat="47.932537" lon="11.12704">
<ele>515.523</ele>
<time>2022-05-26T14:02:59Z</time>
</trkpt>
<trkpt lat="47.932552" lon="11.126962">
<ele>515.523</ele>
<time>2022-05-26T14:03:00Z</time>
</trkpt>
<trkpt lat="47.932575" lon="11.126882">
<ele>515.523</ele>
<time>2022-05-26T14:03:01Z</time>
</trkpt>
<trkpt lat="47.932594" lon="11.1268">
<ele>515.523</ele>
<time>2022-05-26T14:03:02Z</time>
</trkpt>
<trkpt lat="47.932613" lon="11.126719">
<ele>515.523</ele>
<time>2022-05-26T14:03:03Z</time>
</trkpt>
<trkpt lat="47.932636" lon="11.126638">
<ele>515.523</ele>
<time>2022-05-26T14:03:04Z</time>
</trkpt>
<trkpt lat="47.932659" lon="11.12656">
<ele>515.523</ele>
<time>2022-05-26T14:03:05Z</time>
</trkpt>
<trkpt lat="47.932678" lon="11.12648">
<ele>515.523</ele>
<time>2022-05-26T14:03:06Z</time>
</trkpt>
<trkpt lat="47.932701" lon="11.1264">
<ele>515.523</ele>
<time>2022-05-26T14:03:07Z</time>
</trkpt>
<trkpt lat="47.93272" lon="11.126322">
<ele>515.523</ele>
<time>2022-05-26T14:03:08Z</time>
</trkpt>
<trkpt lat="47.932743" lon="11.126244">
<ele>515.523</ele>
<time>2022-05-26T14:03:09Z</time>
</trkpt>
<trkpt lat="47.932766" lon="11.126164">
<ele>515.523</ele>
<time>2022-05-26T14:03:10Z</time>
</trkpt>
<trkpt lat="47.932785" lon="11.12609">
<ele>515.523</ele>
<time>2022-05-26T14:03:11Z</time>
</trkpt>
<trkpt lat="47.932808" lon="11.126012">
<ele>515.523</ele>
<time>2022-05-26T14:03:12Z</time>
</trkpt>
<trkpt lat="47.932835" lon="11.125934">
<ele>515.523</ele>
<time>2022-05-26T14:03:13Z</time>
</trkpt>
<trkpt lat="47.932858" lon="11.125852">
<ele>515.523</ele>
<time>2022-05-26T14:03:14Z</time>
</trkpt>
<trkpt lat="47.932877" lon="11.125769">
<ele>515.523</ele>
<time>2022-05-26T14:03:15Z</time>
</trkpt>
<trkpt lat="47.932903" lon="11.125685">
<ele>515.523</ele>
<time>2022-05-26T14:03:16Z</time>
</trkpt>
<trkpt lat="47.93293" lon="11.125603">
<ele>515.523</ele>
<time>2022-05-26T14:03:17Z</time>
</trkpt>
<trkpt lat="47.932953" lon="11.125522">
<ele>515.523</ele>
<time>2022-05-26T14:03:18Z</time>
</trkpt>
<trkpt lat="47.932976" lon="11.12544">
<ele>515.523</ele>
<time>2022-05-26T14:03:19Z</time>
</trkpt>
<trkpt lat="47.933002" lon="11.125361">
<ele>515.523</ele>
<time>2022-05-26T14:03:20Z</time>
</trkpt>
<trkpt lat="47.933033" lon="11.125287">
<ele>515.523</ele>
<time>2022-05-26T14:03:21Z</time>
</trkpt>
<trkpt lat="47.933052" lon="11.125212">
<ele>515.24</ele>
<time>2022-05-26T14:03:22Z</time>
</trkpt>
<trkpt lat="47.933075" lon="11.125134">
<ele>515.024</ele>
<time>2022-05-26T14:03:23Z</time>
</trkpt>
<trkpt lat="47.933098" lon="11.125056">
<ele>514.858</ele>
<time>2022-05-26T14:03:24Z</time>
</trkpt>
<trkpt lat="47.933121" lon="11.124981">
<ele>514.736</ele>
<time>2022-05-26T14:03:25Z</time>
</trkpt>
<trkpt lat="47.933144" lon="11.124907">
<ele>514.646</ele>
<time>2022-05-26T14:03:26Z</time>
</trkpt>
<trkpt lat="47.933167" lon="11.124834">
<ele>514.806</ele>
<time>2022-05-26T14:03:27Z</time>
</trkpt>
<trkpt lat="47.933193" lon="11.124761">
<ele>514.954</ele>
<time>2022-05-26T14:03:28Z</time>
</trkpt>
<trkpt lat="47.933212" lon="11.124685">
<ele>515.087</ele>
<time>2022-05-26T14:03:29Z</time>
</trkpt>
<trkpt lat="47.933235" lon="11.12461">
<ele>515.123</ele>
<time>2022-05-26T14:03:30Z</time>
</trkpt>
<trkpt lat="47.933258" lon="11.124533">
<ele>515.263</ele>
<time>2022-05-26T14:03:31Z</time>
</trkpt>
<trkpt lat="47.933277" lon="11.124458">
<ele>515.371</ele>
<time>2022-05-26T14:03:32Z</time>
</trkpt>
<trkpt lat="47.933296" lon="11.124384">
<ele>515.449</ele>
<time>2022-05-26T14:03:33Z</time>
</trkpt>
<trkpt lat="47.933315" lon="11.124305">
<ele>515.499</ele>
<time>2022-05-26T14:03:34Z</time>
</trkpt>
<trkpt lat="47.933331" lon="11.124225">
<ele>515.523</ele>
<time>2022-05-26T14:03:35Z</time>
</trkpt>
<trkpt lat="47.93335" lon="11.124145">
<ele>515.523</ele>
<time>2022-05-26T14:03:36Z</time>
</trkpt>
<trkpt lat="47.933365" lon="11.124065">
<ele>515.523</ele>
<time>2022-05-26T14:03:37Z</time>
</trkpt>
<trkpt lat="47.933384" lon="11.123987">
<ele>515.523</ele>
<time>2022-05-26T14:03:38Z</time>
</trkpt>
<trkpt lat="47.933395" lon="11.123908">
<ele>515.523</ele>
<time>2022-05-26T14:03:39Z</time>
</trkpt>
<trkpt lat="47.933411" lon="11.123833">
<ele>515.523</ele>
<time>2022-05-26T14:03:40Z</time>
</trkpt>
<trkpt lat="47.933426" lon="11.123759">
<ele>515.523</ele>
<time>2022-05-26T14:03:41Z</time>
</trkpt>
<trkpt lat="47.933437" lon="11.123684">
<ele>515.778</ele>
<time>2022-05-26T14:03:42Z</time>
</trkpt>
<trkpt lat="47.933449" lon="11.123605">
<ele>515.976</ele>
<time>2022-05-26T14:03:43Z</time>
</trkpt>
<trkpt lat="47.933456" lon="11.123523">
<ele>516.128</ele>
<time>2022-05-26T14:03:44Z</time>
</trkpt>
<trkpt lat="47.93346" lon="11.123445">
<ele>516.243</ele>
<time>2022-05-26T14:03:45Z</time>
</trkpt>
<trkpt lat="47.933472" lon="11.123367">
<ele>516.322</ele>
<time>2022-05-26T14:03:46Z</time>
</trkpt>
<trkpt lat="47.933479" lon="11.123288">
<ele>516.37</ele>
<time>2022-05-26T14:03:47Z</time>
</trkpt>
<trkpt lat="47.933483" lon="11.12321">
<ele>516.389</ele>
<time>2022-05-26T14:03:48Z</time>
</trkpt>
<trkpt lat="47.933487" lon="11.123131">
<ele>516.393</ele>
<time>2022-05-26T14:03:49Z</time>
</trkpt>
<trkpt lat="47.933487" lon="11.12305">
<ele>516.392</ele>
<time>2022-05-26T14:03:50Z</time>
</trkpt>
<trkpt lat="47.933487" lon="11.12297">
<ele>516.392</ele>
<time>2022-05-26T14:03:51Z</time>
</trkpt>
<trkpt lat="47.933487" lon="11.122884">
<ele>516.392</ele>
<time>2022-05-26T14:03:52Z</time>
</trkpt>
<trkpt lat="47.933483" lon="11.122795">
<ele>516.392</ele>
<time>2022-05-26T14:03:53Z</time>
</trkpt>
<trkpt lat="47.933483" lon="11.122704">
<ele>516.392</ele>
<time>2022-05-26T14:03:54Z</time>
</trkpt>
<trkpt lat="47.933479" lon="11.122611">
<ele>516.392</ele>
<time>2022-05-26T14:03:55Z</time>
</trkpt>
<trkpt lat="47.933483" lon="11.122521">
<ele>516.393</ele>
<time>2022-05-26T14:03:56Z</time>
</trkpt>
<trkpt lat="47.933483" lon="11.122432">
<ele>516.392</ele>
<time>2022-05-26T14:03:57Z</time>
</trkpt>
<trkpt lat="47.933479" lon="11.122338">
<ele>516.392</ele>
<time>2022-05-26T14:03:58Z</time>
</trkpt>
<trkpt lat="47.933479" lon="11.122249">
<ele>516.392</ele>
<time>2022-05-26T14:03:59Z</time>
</trkpt>
<trkpt lat="47.933475" lon="11.122156">
<ele>516.393</ele>
<time>2022-05-26T14:04:00Z</time>
</trkpt>
<trkpt lat="47.933472" lon="11.122064">
<ele>516.392</ele>
<time>2022-05-26T14:04:01Z</time>
</trkpt>
<trkpt lat="47.933468" lon="11.121972">
<ele>516.393</ele>
<time>2022-05-26T14:04:02Z</time>
</trkpt>
<trkpt lat="47.933464" lon="11.121878">
<ele>516.392</ele>
<time>2022-05-26T14:04:03Z</time>
</trkpt>
<trkpt lat="47.93346" lon="11.121788">
<ele>516.392</ele>
<time>2022-05-26T14:04:04Z</time>
</trkpt>
<trkpt lat="47.93346" lon="11.121698">
<ele>516.156</ele>
<time>2022-05-26T14:04:05Z</time>
</trkpt>
<trkpt lat="47.933456" lon="11.12161">
<ele>515.972</ele>
<time>2022-05-26T14:04:06Z</time>
</trkpt>
<trkpt lat="47.933456" lon="11.121526">
<ele>515.83</ele>
<time>2022-05-26T14:04:07Z</time>
</trkpt>
<trkpt lat="47.933453" lon="11.12144">
<ele>515.729</ele>
<time>2022-05-26T14:04:08Z</time>
</trkpt>
<trkpt lat="47.933456" lon="11.121356">
<ele>515.654</ele>
<time>2022-05-26T14:04:09Z</time>
</trkpt>
<trkpt lat="47.93346" lon="11.121281">
<ele>515.597</ele>
<time>2022-05-26T14:04:10Z</time>
</trkpt>
<trkpt lat="47.93346" lon="11.121199">
<ele>515.548</ele>
<time>2022-05-26T14:04:11Z</time>
</trkpt>
<trkpt lat="47.933464" lon="11.121113">
<ele>515.523</ele>
<time>2022-05-26T14:04:12Z</time>
</trkpt>
<trkpt lat="47.93346" lon="11.121028">
<ele>515.523</ele>
<time>2022-05-26T14:04:13Z</time>
</trkpt>
<trkpt lat="47.933464" lon="11.120945">
<ele>515.523</ele>
<time>2022-05-26T14:04:14Z</time>
</trkpt>
<trkpt lat="47.93346" lon="11.120857">
<ele>515.523</ele>
<time>2022-05-26T14:04:15Z</time>
</trkpt>
<trkpt lat="47.93346" lon="11.120767">
<ele>515.523</ele>
<time>2022-05-26T14:04:16Z</time>
</trkpt>
<trkpt lat="47.93346" lon="11.12068">
<ele>515.523</ele>
<time>2022-05-26T14:04:17Z</time>
</trkpt>
<trkpt lat="47.933464" lon="11.120593">
<ele>515.523</ele>
<time>2022-05-26T14:04:18Z</time>
</trkpt>
<trkpt lat="47.933468" lon="11.12051">
<ele>515.523</ele>
<time>2022-05-26T14:04:19Z</time>
</trkpt>
<trkpt lat="47.933468" lon="11.120421">
<ele>515.523</ele>
<time>2022-05-26T14:04:20Z</time>
</trkpt>
<trkpt lat="47.933472" lon="11.120336">
<ele>515.523</ele>
<time>2022-05-26T14:04:21Z</time>
</trkpt>
<trkpt lat="47.933475" lon="11.120246">
<ele>515.523</ele>
<time>2022-05-26T14:04:22Z</time>
</trkpt>
<trkpt lat="47.933479" lon="11.120158">
<ele>515.523</ele>
<time>2022-05-26T14:04:23Z</time>
</trkpt>
<trkpt lat="47.933487" lon="11.120076">
<ele>515.523</ele>
<time>2022-05-26T14:04:24Z</time>
</trkpt>
<trkpt lat="47.933491" lon="11.119992">
<ele>515.523</ele>
<time>2022-05-26T14:04:25Z</time>
</trkpt>
<trkpt lat="47.933495" lon="11.119905">
<ele>515.523</ele>
<time>2022-05-26T14:04:26Z</time>
</trkpt>
<trkpt lat="47.933502" lon="11.119821">
<ele>515.523</ele>
<time>2022-05-26T14:04:27Z</time>
</trkpt>
<trkpt lat="47.933506" lon="11.119735">
<ele>515.523</ele>
<time>2022-05-26T14:04:28Z</time>
</trkpt>
<trkpt lat="47.933514" lon="11.119651">
<ele>515.523</ele>
<time>2022-05-26T14:04:29Z</time>
</trkpt>
<trkpt lat="47.933521" lon="11.119563">
<ele>515.523</ele>
<time>2022-05-26T14:04:30Z</time>
</trkpt>
<trkpt lat="47.933529" lon="11.119475">
<ele>515.523</ele>
<time>2022-05-26T14:04:31Z</time>
</trkpt>
<trkpt lat="47.933533" lon="11.11939">
<ele>515.523</ele>
<time>2022-05-26T14:04:32Z</time>
</trkpt>
<trkpt lat="47.93354" lon="11.119302">
<ele>515.523</ele>
<time>2022-05-26T14:04:33Z</time>
</trkpt>
<trkpt lat="47.933552" lon="11.119215">
<ele>515.523</ele>
<time>2022-05-26T14:04:34Z</time>
</trkpt>
<trkpt lat="47.933556" lon="11.119131">
<ele>515.523</ele>
<time>2022-05-26T14:04:35Z</time>
</trkpt>
<trkpt lat="47.933563" lon="11.119048">
<ele>515.523</ele>
<time>2022-05-26T14:04:36Z</time>
</trkpt>
<trkpt lat="47.933571" lon="11.118966">
<ele>515.523</ele>
<time>2022-05-26T14:04:37Z</time>
</trkpt>
<trkpt lat="47.933578" lon="11.118885">
<ele>515.523</ele>
<time>2022-05-26T14:04:38Z</time>
</trkpt>
<trkpt lat="47.933586" lon="11.118809">
<ele>515.523</ele>
<time>2022-05-26T14:04:39Z</time>
</trkpt>
<trkpt lat="47.933601" lon="11.11873">
<ele>515.523</ele>
<time>2022-05-26T14:04:40Z</time>
</trkpt>
<trkpt lat="47.933613" lon="11.118649">
<ele>515.523</ele>
<time>2022-05-26T14:04:41Z</time>
</trkpt>
<trkpt lat="47.933624" lon="11.118571">
<ele>515.523</ele>
<time>2022-05-26T14:04:42Z</time>
</trkpt>
<trkpt lat="47.93364" lon="11.118492">
<ele>515.523</ele>
<time>2022-05-26T14:04:43Z</time>
</trkpt>
<trkpt lat="47.933655" lon="11.118413">
<ele>515.523</ele>
<time>2022-05-26T14:04:44Z</time>
</trkpt>
<trkpt lat="47.93367" lon="11.118335">
<ele>515.523</ele>
<time>2022-05-26T14:04:45Z</time>
</trkpt>
<trkpt lat="47.933681" lon="11.118256">
<ele>515.523</ele>
<time>2022-05-26T14:04:46Z</time>
</trkpt>
<trkpt lat="47.933693" lon="11.118176">
<ele>515.523</ele>
<time>2022-05-26T14:04:47Z</time>
</trkpt>
<trkpt lat="47.933704" lon="11.118094">
<ele>515.523</ele>
<time>2022-05-26T14:04:48Z</time>
</trkpt>
<trkpt lat="47.933716" lon="11.118014">
<ele>515.523</ele>
<time>2022-05-26T14:04:49Z</time>
</trkpt>
<trkpt lat="47.933723" lon="11.11793">
<ele>515.523</ele>
<time>2022-05-26T14:04:50Z</time>
</trkpt>
<trkpt lat="47.933735" lon="11.117848">
<ele>515.523</ele>
<time>2022-05-26T14:04:51Z</time>
</trkpt>
<trkpt lat="47.933743" lon="11.117764">
<ele>515.523</ele>
<time>2022-05-26T14:04:52Z</time>
</trkpt>
<trkpt lat="47.93375" lon="11.117679">
<ele>515.523</ele>
<time>2022-05-26T14:04:53Z</time>
</trkpt>
<trkpt lat="47.933754" lon="11.117599">
<ele>515.523</ele>
<time>2022-05-26T14:04:54Z</time>
</trkpt>
<trkpt lat="47.933765" lon="11.117524">
<ele>515.523</ele>
<time>2022-05-26T14:04:55Z</time>
</trkpt>
<trkpt lat="47.933777" lon="11.117447">
<ele>515.523</ele>
<time>2022-05-26T14:04:56Z</time>
</trkpt>
<trkpt lat="47.933784" lon="11.117367">
<ele>515.523</ele>
<time>2022-05-26T14:04:57Z</time>
</trkpt>
<trkpt lat="47.933792" lon="11.117282">
<ele>515.523</ele>
<time>2022-05-26T14:04:58Z</time>
</trkpt>
<trkpt lat="47.9338" lon="11.117197">
<ele>515.523</ele>
<time>2022-05-26T14:04:59Z</time>
</trkpt>
<trkpt lat="47.933804" lon="11.117113">
<ele>515.523</ele>
<time>2022-05-26T14:05:00Z</time>
</trkpt>
<trkpt lat="47.933811" lon="11.11703">
<ele>515.523</ele>
<time>2022-05-26T14:05:01Z</time>
</trkpt>
<trkpt lat="47.933815" lon="11.116946">
<ele>515.523</ele>
<time>2022-05-26T14:05:02Z</time>
</trkpt>
<trkpt lat="47.933819" lon="11.116863">
<ele>515.523</ele>
<time>2022-05-26T14:05:03Z</time>
</trkpt>
<trkpt lat="47.933823" lon="11.116778">
<ele>515.523</ele>
<time>2022-05-26T14:05:04Z</time>
</trkpt>
<trkpt lat="47.933834" lon="11.116693">
<ele>515.523</ele>
<time>2022-05-26T14:05:05Z</time>
</trkpt>
<trkpt lat="47.933842" lon="11.116609">
<ele>515.523</ele>
<time>2022-05-26T14:05:06Z</time>
</trkpt>
<trkpt lat="47.933849" lon="11.116523">
<ele>515.523</ele>
<time>2022-05-26T14:05:07Z</time>
</trkpt>
<trkpt lat="47.933861" lon="11.116442">
<ele>515.523</ele>
<time>2022-05-26T14:05:08Z</time>
</trkpt>
<trkpt lat="47.933868" lon="11.116358">
<ele>515.523</ele>
<time>2022-05-26T14:05:09Z</time>
</trkpt>
<trkpt lat="47.933876" lon="11.116274">
<ele>515.523</ele>
<time>2022-05-26T14:05:10Z</time>
</trkpt>
<trkpt lat="47.93388" lon="11.116192">
<ele>515.523</ele>
<time>2022-05-26T14:05:11Z</time>
</trkpt>
<trkpt lat="47.933887" lon="11.116108">
<ele>515.523</ele>
<time>2022-05-26T14:05:12Z</time>
</trkpt>
<trkpt lat="47.933895" lon="11.116025">
<ele>515.523</ele>
<time>2022-05-26T14:05:13Z</time>
</trkpt>
<trkpt lat="47.933907" lon="11.115943">
<ele>515.523</ele>
<time>2022-05-26T14:05:14Z</time>
</trkpt>
<trkpt lat="47.933914" lon="11.115863">
<ele>515.523</ele>
<time>2022-05-26T14:05:15Z</time>
</trkpt>
<trkpt lat="47.933918" lon="11.115777">
<ele>515.523</ele>
<time>2022-05-26T14:05:16Z</time>
</trkpt>
<trkpt lat="47.933926" lon="11.115693">
<ele>515.523</ele>
<time>2022-05-26T14:05:17Z</time>
</trkpt>
<trkpt lat="47.933933" lon="11.11561">
<ele>515.523</ele>
<time>2022-05-26T14:05:18Z</time>
</trkpt>
<trkpt lat="47.933941" lon="11.115528">
<ele>515.523</ele>
<time>2022-05-26T14:05:19Z</time>
</trkpt>
<trkpt lat="47.933949" lon="11.11545">
<ele>515.523</ele>
<time>2022-05-26T14:05:20Z</time>
</trkpt>
<trkpt lat="47.933956" lon="11.115373">
<ele>515.523</ele>
<time>2022-05-26T14:05:21Z</time>
</trkpt>
<trkpt lat="47.933968" lon="11.115297">
<ele>515.523</ele>
<time>2022-05-26T14:05:22Z</time>
</trkpt>
<trkpt lat="47.933975" lon="11.11522">
<ele>515.523</ele>
<time>2022-05-26T14:05:23Z</time>
</trkpt>
<trkpt lat="47.933979" lon="11.11514">
<ele>515.523</ele>
<time>2022-05-26T14:05:24Z</time>
</trkpt>
<trkpt lat="47.933987" lon="11.11506">
<ele>515.523</ele>
<time>2022-05-26T14:05:25Z</time>
</trkpt>
<trkpt lat="47.933994" lon="11.114979">
<ele>515.523</ele>
<time>2022-05-26T14:05:26Z</time>
</trkpt>
<trkpt lat="47.934002" lon="11.114895">
<ele>515.523</ele>
<time>2022-05-26T14:05:27Z</time>
</trkpt>
<trkpt lat="47.93401" lon="11.11481">
<ele>515.523</ele>
<time>2022-05-26T14:05:28Z</time>
</trkpt>
<trkpt lat="47.934017" lon="11.114727">
<ele>515.523</ele>
<time>2022-05-26T14:05:29Z</time>
</trkpt>
<trkpt lat="47.934021" lon="11.114643">
<ele>515.523</ele>
<time>2022-05-26T14:05:30Z</time>
</trkpt>
<trkpt lat="47.934029" lon="11.114558">
<ele>515.523</ele>
<time>2022-05-26T14:05:31Z</time>
</trkpt>
<trkpt lat="47.934036" lon="11.11448">
<ele>515.523</ele>
<time>2022-05-26T14:05:32Z</time>
</trkpt>
<trkpt lat="47.934044" lon="11.114398">
<ele>515.523</ele>
<time>2022-05-26T14:05:33Z</time>
</trkpt>
<trkpt lat="47.934052" lon="11.114321">
<ele>515.523</ele>
<time>2022-05-26T14:05:34Z</time>
</trkpt>
<trkpt lat="47.934059" lon="11.11424">
<ele>515.523</ele>
<time>2022-05-26T14:05:35Z</time>
</trkpt>
<trkpt lat="47.934063" lon="11.114155">
<ele>515.523</ele>
<time>2022-05-26T14:05:36Z</time>
</trkpt>
<trkpt lat="47.934067" lon="11.11407">
<ele>515.523</ele>
<time>2022-05-26T14:05:37Z</time>
</trkpt>
<trkpt lat="47.934074" lon="11.113986">
<ele>515.523</ele>
<time>2022-05-26T14:05:38Z</time>
</trkpt>
<trkpt lat="47.934078" lon="11.113904">
<ele>515.523</ele>
<time>2022-05-26T14:05:39Z</time>
</trkpt>
<trkpt lat="47.934082" lon="11.113825">
<ele>515.523</ele>
<time>2022-05-26T14:05:40Z</time>
</trkpt>
<trkpt lat="47.934086" lon="11.113745">
<ele>515.523</ele>
<time>2022-05-26T14:05:41Z</time>
</trkpt>
<trkpt lat="47.93409" lon="11.113665">
<ele>515.523</ele>
<time>2022-05-26T14:05:42Z</time>
</trkpt>
<trkpt lat="47.93409" lon="11.113587">
<ele>515.523</ele>
<time>2022-05-26T14:05:43Z</time>
</trkpt>
<trkpt lat="47.934086" lon="11.113508">
<ele>515.523</ele>
<time>2022-05-26T14:05:44Z</time>
</trkpt>
<trkpt lat="47.934082" lon="11.113437">
<ele>515.523</ele>
<time>2022-05-26T14:05:45Z</time>
</trkpt>
<trkpt lat="47.934078" lon="11.113365">
<ele>515.523</ele>
<time>2022-05-26T14:05:46Z</time>
</trkpt>
<trkpt lat="47.934078" lon="11.113286">
<ele>515.523</ele>
<time>2022-05-26T14:05:47Z</time>
</trkpt>
<trkpt lat="47.934078" lon="11.113211">
<ele>515.523</ele>
<time>2022-05-26T14:05:48Z</time>
</trkpt>
<trkpt lat="47.934078" lon="11.113131">
<ele>515.523</ele>
<time>2022-05-26T14:05:49Z</time>
</trkpt>
<trkpt lat="47.934074" lon="11.113049">
<ele>515.523</ele>
<time>2022-05-26T14:05:50Z</time>
</trkpt>
<trkpt lat="47.934067" lon="11.112964">
<ele>515.523</ele>
<time>2022-05-26T14:05:51Z</time>
</trkpt>
<trkpt lat="47.934059" lon="11.112875">
<ele>515.523</ele>
<time>2022-05-26T14:05:52Z</time>
</trkpt>
<trkpt lat="47.934052" lon="11.112785">
<ele>515.523</ele>
<time>2022-05-26T14:05:53Z</time>
</trkpt>
<trkpt lat="47.934044" lon="11.112693">
<ele>515.523</ele>
<time>2022-05-26T14:05:54Z</time>
</trkpt>
<trkpt lat="47.934032" lon="11.112603">
<ele>515.523</ele>
<time>2022-05-26T14:05:55Z</time>
</trkpt>
<trkpt lat="47.934021" lon="11.112514">
<ele>515.523</ele>
<time>2022-05-26T14:05:56Z</time>
</trkpt>
<trkpt lat="47.934017" lon="11.112423">
<ele>515.523</ele>
<time>2022-05-26T14:05:57Z</time>
</trkpt>
<trkpt lat="47.934013" lon="11.112335">
<ele>515.523</ele>
<time>2022-05-26T14:05:58Z</time>
</trkpt>
<trkpt lat="47.93401" lon="11.112251">
<ele>515.523</ele>
<time>2022-05-26T14:05:59Z</time>
</trkpt>
<trkpt lat="47.934006" lon="11.112161">
<ele>515.523</ele>
<time>2022-05-26T14:06:00Z</time>
</trkpt>
<trkpt lat="47.934006" lon="11.112075">
<ele>515.523</ele>
<time>2022-05-26T14:06:01Z</time>
</trkpt>
<trkpt lat="47.93401" lon="11.111993">
<ele>515.216</ele>
<time>2022-05-26T14:06:02Z</time>
</trkpt>
<trkpt lat="47.93401" lon="11.111908">
<ele>514.976</ele>
<time>2022-05-26T14:06:03Z</time>
</trkpt>
<trkpt lat="47.93401" lon="11.111821">
<ele>514.793</ele>
<time>2022-05-26T14:06:04Z</time>
</trkpt>
<trkpt lat="47.934013" lon="11.111733">
<ele>514.658</ele>
<time>2022-05-26T14:06:05Z</time>
</trkpt>
<trkpt lat="47.934013" lon="11.111648">
<ele>514.564</ele>
<time>2022-05-26T14:06:06Z</time>
</trkpt>
<trkpt lat="47.934017" lon="11.111566">
<ele>514.506</ele>
<time>2022-05-26T14:06:07Z</time>
</trkpt>
<trkpt lat="47.934021" lon="11.111485">
<ele>514.513</ele>
<time>2022-05-26T14:06:08Z</time>
</trkpt>
<trkpt lat="47.934025" lon="11.111404">
<ele>514.764</ele>
<time>2022-05-26T14:06:09Z</time>
</trkpt>
<trkpt lat="47.934032" lon="11.111319">
<ele>514.949</ele>
<time>2022-05-26T14:06:10Z</time>
</trkpt>
<trkpt lat="47.93404" lon="11.111232">
<ele>515.148</ele>
<time>2022-05-26T14:06:11Z</time>
</trkpt>
<trkpt lat="47.934044" lon="11.11115">
<ele>515.308</ele>
<time>2022-05-26T14:06:12Z</time>
</trkpt>
<trkpt lat="47.934052" lon="11.111069">
<ele>515.432</ele>
<time>2022-05-26T14:06:13Z</time>
</trkpt>
<trkpt lat="47.934063" lon="11.110983">
<ele>515.525</ele>
<time>2022-05-26T14:06:14Z</time>
</trkpt>
<trkpt lat="47.934074" lon="11.1109">
<ele>515.582</ele>
<time>2022-05-26T14:06:15Z</time>
</trkpt>
<trkpt lat="47.934082" lon="11.110816">
<ele>515.61</ele>
<time>2022-05-26T14:06:16Z</time>
</trkpt>
<trkpt lat="47.934097" lon="11.11073">
<ele>515.61</ele>
<time>2022-05-26T14:06:17Z</time>
</trkpt>
<trkpt lat="47.934113" lon="11.110648">
<ele>515.61</ele>
<time>2022-05-26T14:06:18Z</time>
</trkpt>
<trkpt lat="47.934132" lon="11.110566">
<ele>515.61</ele>
<time>2022-05-26T14:06:19Z</time>
</trkpt>
<trkpt lat="47.934151" lon="11.110483">
<ele>515.61</ele>
<time>2022-05-26T14:06:20Z</time>
</trkpt>
<trkpt lat="47.934174" lon="11.1104">
<ele>515.61</ele>
<time>2022-05-26T14:06:21Z</time>
</trkpt>
<trkpt lat="47.934204" lon="11.110322">
<ele>515.61</ele>
<time>2022-05-26T14:06:22Z</time>
</trkpt>
<trkpt lat="47.934231" lon="11.110244">
<ele>515.61</ele>
<time>2022-05-26T14:06:23Z</time>
</trkpt>
<trkpt lat="47.934258" lon="11.11017">
<ele>515.61</ele>
<time>2022-05-26T14:06:24Z</time>
</trkpt>
<trkpt lat="47.934288" lon="11.110099">
<ele>515.61</ele>
<time>2022-05-26T14:06:25Z</time>
</trkpt>
<trkpt lat="47.934319" lon="11.110025">
<ele>515.61</ele>
<time>2022-05-26T14:06:26Z</time>
</trkpt>
<trkpt lat="47.934353" lon="11.109957">
<ele>515.61</ele>
<time>2022-05-26T14:06:27Z</time>
</trkpt>
<trkpt lat="47.934387" lon="11.109888">
<ele>515.61</ele>
<time>2022-05-26T14:06:28Z</time>
</trkpt>
<trkpt lat="47.934422" lon="11.109823">
<ele>515.61</ele>
<time>2022-05-26T14:06:29Z</time>
</trkpt>
<trkpt lat="47.934456" lon="11.109756">
<ele>515.61</ele>
<time>2022-05-26T14:06:30Z</time>
</trkpt>
<trkpt lat="47.934494" lon="11.109694">
<ele>515.61</ele>
<time>2022-05-26T14:06:31Z</time>
</trkpt>
<trkpt lat="47.934532" lon="11.10963">
<ele>515.61</ele>
<time>2022-05-26T14:06:32Z</time>
</trkpt>
<trkpt lat="47.93457" lon="11.109565">
<ele>515.61</ele>
<time>2022-05-26T14:06:33Z</time>
</trkpt>
<trkpt lat="47.934612" lon="11.109507">
<ele>515.61</ele>
<time>2022-05-26T14:06:34Z</time>
</trkpt>
<trkpt lat="47.934658" lon="11.109448">
<ele>515.61</ele>
<time>2022-05-26T14:06:35Z</time>
</trkpt>
<trkpt lat="47.9347" lon="11.109393">
<ele>515.61</ele>
<time>2022-05-26T14:06:36Z</time>
</trkpt>
<trkpt lat="47.934746" lon="11.109342">
<ele>515.61</ele>
<time>2022-05-26T14:06:37Z</time>
</trkpt>
<trkpt lat="47.934792" lon="11.109292">
<ele>515.61</ele>
<time>2022-05-26T14:06:38Z</time>
</trkpt>
<trkpt lat="47.934834" lon="11.109241">
<ele>515.61</ele>
<time>2022-05-26T14:06:39Z</time>
</trkpt>
<trkpt lat="47.934879" lon="11.10919">
<ele>515.61</ele>
<time>2022-05-26T14:06:40Z</time>
</trkpt>
<trkpt lat="47.934925" lon="11.109139">
<ele>515.61</ele>
<time>2022-05-26T14:06:41Z</time>
</trkpt>
<trkpt lat="47.934975" lon="11.10909">
<ele>515.61</ele>
<time>2022-05-26T14:06:42Z</time>
</trkpt>
<trkpt lat="47.93502" lon="11.109041">
<ele>515.61</ele>
<time>2022-05-26T14:06:43Z</time>
</trkpt>
<trkpt lat="47.935062" lon="11.108991">
<ele>515.61</ele>
<time>2022-05-26T14:06:44Z</time>
</trkpt>
<trkpt lat="47.935112" lon="11.108941">
<ele>515.61</ele>
<time>2022-05-26T14:06:45Z</time>
</trkpt>
<trkpt lat="47.935154" lon="11.108893">
<ele>515.61</ele>
<time>2022-05-26T14:06:46Z</time>
</trkpt>
<trkpt lat="47.935204" lon="11.108847">
<ele>515.61</ele>
<time>2022-05-26T14:06:47Z</time>
</trkpt>
<trkpt lat="47.935249" lon="11.108803">
<ele>515.61</ele>
<time>2022-05-26T14:06:48Z</time>
</trkpt>
<trkpt lat="47.935295" lon="11.108762">
<ele>515.61</ele>
<time>2022-05-26T14:06:49Z</time>
</trkpt>
<trkpt lat="47.935345" lon="11.108722">
<ele>515.61</ele>
<time>2022-05-26T14:06:50Z</time>
</trkpt>
<trkpt lat="47.93539" lon="11.108681">
<ele>515.61</ele>
<time>2022-05-26T14:06:51Z</time>
</trkpt>
<trkpt lat="47.93544" lon="11.10864">
<ele>515.61</ele>
<time>2022-05-26T14:06:52Z</time>
</trkpt>
<trkpt lat="47.935486" lon="11.108605">
<ele>515.61</ele>
<time>2022-05-26T14:06:53Z</time>
</trkpt>
<trkpt lat="47.935543" lon="11.108572">
<ele>515.61</ele>
<time>2022-05-26T14:06:54Z</time>
</trkpt>
<trkpt lat="47.935593" lon="11.108542">
<ele>515.61</ele>
<time>2022-05-26T14:06:55Z</time>
</trkpt>
<trkpt lat="47.935642" lon="11.108515">
<ele>515.61</ele>
<time>2022-05-26T14:06:56Z</time>
</trkpt>
<trkpt lat="47.935696" lon="11.10849">
<ele>515.61</ele>
<time>2022-05-26T14:06:57Z</time>
</trkpt>
<trkpt lat="47.935753" lon="11.108467">
<ele>515.61</ele>
<time>2022-05-26T14:06:58Z</time>
</trkpt>
<trkpt lat="47.935806" lon="11.108444">
<ele>515.377</ele>
<time>2022-05-26T14:06:59Z</time>
</trkpt>
<trkpt lat="47.935856" lon="11.108421">
<ele>515.212</ele>
<time>2022-05-26T14:07:00Z</time>
</trkpt>
<trkpt lat="47.935902" lon="11.1084">
<ele>515.043</ele>
<time>2022-05-26T14:07:01Z</time>
</trkpt>
<trkpt lat="47.935955" lon="11.108378">
<ele>514.908</ele>
<time>2022-05-26T14:07:02Z</time>
</trkpt>
<trkpt lat="47.936001" lon="11.108355">
<ele>514.803</ele>
<time>2022-05-26T14:07:03Z</time>
</trkpt>
<trkpt lat="47.93605" lon="11.108335">
<ele>514.728</ele>
<time>2022-05-26T14:07:04Z</time>
</trkpt>
<trkpt lat="47.936096" lon="11.108316">
<ele>514.678</ele>
<time>2022-05-26T14:07:05Z</time>
</trkpt>
<trkpt lat="47.93615" lon="11.108295">
<ele>514.654</ele>
<time>2022-05-26T14:07:06Z</time>
</trkpt>
<trkpt lat="47.936195" lon="11.108274">
<ele>514.654</ele>
<time>2022-05-26T14:07:07Z</time>
</trkpt>
<trkpt lat="47.936253" lon="11.108253">
<ele>514.654</ele>
<time>2022-05-26T14:07:08Z</time>
</trkpt>
<trkpt lat="47.936306" lon="11.108231">
<ele>514.654</ele>
<time>2022-05-26T14:07:09Z</time>
</trkpt>
<trkpt lat="47.936359" lon="11.108208">
<ele>514.654</ele>
<time>2022-05-26T14:07:10Z</time>
</trkpt>
<trkpt lat="47.936413" lon="11.108185">
<ele>514.655</ele>
<time>2022-05-26T14:07:11Z</time>
</trkpt>
<trkpt lat="47.936462" lon="11.108164">
<ele>514.654</ele>
<time>2022-05-26T14:07:12Z</time>
</trkpt>
<trkpt lat="47.93652" lon="11.108142">
<ele>514.654</ele>
<time>2022-05-26T14:07:13Z</time>
</trkpt>
<trkpt lat="47.936569" lon="11.108122">
<ele>514.654</ele>
<time>2022-05-26T14:07:14Z</time>
</trkpt>
<trkpt lat="47.936619" lon="11.108102">
<ele>514.654</ele>
<time>2022-05-26T14:07:15Z</time>
</trkpt>
<trkpt lat="47.936672" lon="11.108084">
<ele>514.654</ele>
<time>2022-05-26T14:07:16Z</time>
</trkpt>
<trkpt lat="47.936722" lon="11.108063">
<ele>514.654</ele>
<time>2022-05-26T14:07:17Z</time>
</trkpt>
<trkpt lat="47.936775" lon="11.108045">
<ele>514.654</ele>
<time>2022-05-26T14:07:18Z</time>
</trkpt>
<trkpt lat="47.936825" lon="11.108025">
<ele>514.654</ele>
<time>2022-05-26T14:07:19Z</time>
</trkpt>
<trkpt lat="47.936882" lon="11.108005">
<ele>514.654</ele>
<time>2022-05-26T14:07:20Z</time>
</trkpt>
<trkpt lat="47.936935" lon="11.107987">
<ele>514.654</ele>
<time>2022-05-26T14:07:21Z</time>
</trkpt>
<trkpt lat="47.936989" lon="11.10797">
<ele>514.654</ele>
<time>2022-05-26T14:07:22Z</time>
</trkpt>
<trkpt lat="47.937042" lon="11.107955">
<ele>514.654</ele>
<time>2022-05-26T14:07:23Z</time>
</trkpt>
<trkpt lat="47.937092" lon="11.107939">
<ele>514.654</ele>
<time>2022-05-26T14:07:24Z</time>
</trkpt>
<trkpt lat="47.937141" lon="11.107922">
<ele>514.654</ele>
<time>2022-05-26T14:07:25Z</time>
</trkpt>
<trkpt lat="47.937191" lon="11.107912">
<ele>514.654</ele>
<time>2022-05-26T14:07:26Z</time>
</trkpt>
<trkpt lat="47.937241" lon="11.107903">
<ele>514.654</ele>
<time>2022-05-26T14:07:27Z</time>
</trkpt>
<trkpt lat="47.937286" lon="11.107888">
<ele>514.654</ele>
<time>2022-05-26T14:07:28Z</time>
</trkpt>
<trkpt lat="47.937336" lon="11.107874">
<ele>514.655</ele>
<time>2022-05-26T14:07:29Z</time>
</trkpt>
<trkpt lat="47.937389" lon="11.107855">
<ele>514.655</ele>
<time>2022-05-26T14:07:30Z</time>
</trkpt>
<trkpt lat="47.937439" lon="11.107839">
<ele>514.654</ele>
<time>2022-05-26T14:07:31Z</time>
</trkpt>
<trkpt lat="47.937496" lon="11.107821">
<ele>514.655</ele>
<time>2022-05-26T14:07:32Z</time>
</trkpt>
<trkpt lat="47.937546" lon="11.107807">
<ele>514.654</ele>
<time>2022-05-26T14:07:33Z</time>
</trkpt>
<trkpt lat="47.937599" lon="11.107795">
<ele>514.655</ele>
<time>2022-05-26T14:07:34Z</time>
</trkpt>
<trkpt lat="47.937656" lon="11.10778">
<ele>514.654</ele>
<time>2022-05-26T14:07:35Z</time>
</trkpt>
<trkpt lat="47.93771" lon="11.107765">
<ele>514.655</ele>
<time>2022-05-26T14:07:36Z</time>
</trkpt>
<trkpt lat="47.937767" lon="11.107748">
<ele>514.654</ele>
<time>2022-05-26T14:07:37Z</time>
</trkpt>
<trkpt lat="47.937824" lon="11.107735">
<ele>514.654</ele>
<time>2022-05-26T14:07:38Z</time>
</trkpt>
<trkpt lat="47.937881" lon="11.107718">
<ele>514.654</ele>
<time>2022-05-26T14:07:39Z</time>
</trkpt>
<trkpt lat="47.937931" lon="11.107703">
<ele>514.655</ele>
<time>2022-05-26T14:07:40Z</time>
</trkpt>
<trkpt lat="47.937988" lon="11.107686">
<ele>514.654</ele>
<time>2022-05-26T14:07:41Z</time>
</trkpt>
<trkpt lat="47.938026" lon="11.107674">
<ele>514.654</ele>
<time>2022-05-26T14:07:42Z</time>
</trkpt>
<trkpt lat="47.938068" lon="11.107658">
<ele>514.654</ele>
<time>2022-05-26T14:07:43Z</time>
</trkpt>
<trkpt lat="47.938118" lon="11.107641">
<ele>514.654</ele>
<time>2022-05-26T14:07:44Z</time>
</trkpt>
<trkpt lat="47.938168" lon="11.107625">
<ele>514.655</ele>
<time>2022-05-26T14:07:45Z</time>
</trkpt>
<trkpt lat="47.938221" lon="11.107608">
<ele>514.655</ele>
<time>2022-05-26T14:07:46Z</time>
</trkpt>
<trkpt lat="47.938274" lon="11.107594">
<ele>514.655</ele>
<time>2022-05-26T14:07:47Z</time>
</trkpt>
<trkpt lat="47.938328" lon="11.107574">
<ele>514.654</ele>
<time>2022-05-26T14:07:48Z</time>
</trkpt>
<trkpt lat="47.938381" lon="11.107558">
<ele>514.654</ele>
<time>2022-05-26T14:07:49Z</time>
</trkpt>
<trkpt lat="47.938431" lon="11.107539">
<ele>514.655</ele>
<time>2022-05-26T14:07:50Z</time>
</trkpt>
<trkpt lat="47.938477" lon="11.107527">
<ele>514.892</ele>
<time>2022-05-26T14:07:51Z</time>
</trkpt>
<trkpt lat="47.938534" lon="11.107513">
<ele>515.082</ele>
<time>2022-05-26T14:07:52Z</time>
</trkpt>
<trkpt lat="47.93858" lon="11.107499">
<ele>515.239</ele>
<time>2022-05-26T14:07:53Z</time>
</trkpt>
<trkpt lat="47.938633" lon="11.107482">
<ele>515.367</ele>
<time>2022-05-26T14:07:54Z</time>
</trkpt>
<trkpt lat="47.938679" lon="11.107466">
<ele>515.467</ele>
<time>2022-05-26T14:07:55Z</time>
</trkpt>
<trkpt lat="47.938728" lon="11.107445">
<ele>515.538</ele>
<time>2022-05-26T14:07:56Z</time>
</trkpt>
<trkpt lat="47.93877" lon="11.10743">
<ele>515.587</ele>
<time>2022-05-26T14:07:57Z</time>
</trkpt>
<trkpt lat="47.938812" lon="11.107417">
<ele>515.61</ele>
<time>2022-05-26T14:07:58Z</time>
</trkpt>
<trkpt lat="47.93885" lon="11.107401">
<ele>515.61</ele>
<time>2022-05-26T14:07:59Z</time>
</trkpt>
<trkpt lat="47.938892" lon="11.107392">
<ele>515.61</ele>
<time>2022-05-26T14:08:00Z</time>
</trkpt>
<trkpt lat="47.938927" lon="11.107393">
<ele>515.61</ele>
<time>2022-05-26T14:08:01Z</time>
</trkpt>
<trkpt lat="47.938965" lon="11.107405">
<ele>515.61</ele>
<time>2022-05-26T14:08:02Z</time>
</trkpt>
<trkpt lat="47.938999" lon="11.107409">
<ele>515.61</ele>
<time>2022-05-26T14:08:03Z</time>
</trkpt>
<trkpt lat="47.939037" lon="11.1074">
<ele>515.61</ele>
<time>2022-05-26T14:08:04Z</time>
</trkpt>
<trkpt lat="47.939075" lon="11.10739">
<ele>515.61</ele>
<time>2022-05-26T14:08:05Z</time>
</trkpt>
<trkpt lat="47.939114" lon="11.107378">
<ele>515.362</ele>
<time>2022-05-26T14:08:06Z</time>
</trkpt>
<trkpt lat="47.939148" lon="11.107369">
<ele>515.164</ele>
<time>2022-05-26T14:08:07Z</time>
</trkpt>
<trkpt lat="47.939175" lon="11.10736">
<ele>515.013</ele>
<time>2022-05-26T14:08:08Z</time>
</trkpt>
<trkpt lat="47.939209" lon="11.107352">
<ele>514.896</ele>
<time>2022-05-26T14:08:09Z</time>
</trkpt>
<trkpt lat="47.93924" lon="11.107344">
<ele>514.817</ele>
<time>2022-05-26T14:08:10Z</time>
</trkpt>
<trkpt lat="47.939274" lon="11.107333">
<ele>514.738</ele>
<time>2022-05-26T14:08:11Z</time>
</trkpt>
<trkpt lat="47.939316" lon="11.107319">
<ele>514.682</ele>
<time>2022-05-26T14:08:12Z</time>
</trkpt>
<trkpt lat="47.939358" lon="11.1073">
<ele>514.654</ele>
<time>2022-05-26T14:08:13Z</time>
</trkpt>
<trkpt lat="47.939392" lon="11.107286">
<ele>514.933</ele>
<time>2022-05-26T14:08:14Z</time>
</trkpt>
<trkpt lat="47.939434" lon="11.107277">
<ele>515.156</ele>
<time>2022-05-26T14:08:15Z</time>
</trkpt>
<trkpt lat="47.93948" lon="11.107268">
<ele>515.316</ele>
<time>2022-05-26T14:08:16Z</time>
</trkpt>
<trkpt lat="47.939522" lon="11.10726">
<ele>515.426</ele>
<time>2022-05-26T14:08:17Z</time>
</trkpt>
<trkpt lat="47.93956" lon="11.107246">
<ele>515.501</ele>
<time>2022-05-26T14:08:18Z</time>
</trkpt>
<trkpt lat="47.939594" lon="11.107235">
<ele>515.547</ele>
<time>2022-05-26T14:08:19Z</time>
</trkpt>
<trkpt lat="47.939636" lon="11.107224">
<ele>515.584</ele>
<time>2022-05-26T14:08:20Z</time>
</trkpt>
<trkpt lat="47.939678" lon="11.10721">
<ele>515.61</ele>
<time>2022-05-26T14:08:21Z</time>
</trkpt>
<trkpt lat="47.93972" lon="11.107195">
<ele>515.61</ele>
<time>2022-05-26T14:08:22Z</time>
</trkpt>
<trkpt lat="47.939762" lon="11.107181">
<ele>515.61</ele>
<time>2022-05-26T14:08:23Z</time>
</trkpt>
<trkpt lat="47.939808" lon="11.107164">
<ele>515.61</ele>
<time>2022-05-26T14:08:24Z</time>
</trkpt>
<trkpt lat="47.93985" lon="11.107148">
<ele>515.61</ele>
<time>2022-05-26T14:08:25Z</time>
</trkpt>
<trkpt lat="47.939888" lon="11.107132">
<ele>515.61</ele>
<time>2022-05-26T14:08:26Z</time>
</trkpt>
<trkpt lat="47.93993" lon="11.107117">
<ele>515.61</ele>
<time>2022-05-26T14:08:27Z</time>
</trkpt>
<trkpt lat="47.939964" lon="11.107103">
<ele>515.61</ele>
<time>2022-05-26T14:08:28Z</time>
</trkpt>
<trkpt lat="47.939999" lon="11.107091">
<ele>515.61</ele>
<time>2022-05-26T14:08:29Z</time>
</trkpt>
<trkpt lat="47.940029" lon="11.107082">
<ele>515.61</ele>
<time>2022-05-26T14:08:30Z</time>
</trkpt>
<trkpt lat="47.940063" lon="11.107072">
<ele>515.61</ele>
<time>2022-05-26T14:08:31Z</time>
</trkpt>
<trkpt lat="47.940094" lon="11.107065">
<ele>515.61</ele>
<time>2022-05-26T14:08:32Z</time>
</trkpt>
<trkpt lat="47.940121" lon="11.107063">
<ele>515.61</ele>
<time>2022-05-26T14:08:33Z</time>
</trkpt>
<trkpt lat="47.940147" lon="11.107061">
<ele>515.61</ele>
<time>2022-05-26T14:08:34Z</time>
</trkpt>
<trkpt lat="47.940174" lon="11.107057">
<ele>515.61</ele>
<time>2022-05-26T14:08:35Z</time>
</trkpt>
<trkpt lat="47.940205" lon="11.107051">
<ele>515.61</ele>
<time>2022-05-26T14:08:36Z</time>
</trkpt>
<trkpt lat="47.940224" lon="11.107042">
<ele>515.61</ele>
<time>2022-05-26T14:08:37Z</time>
</trkpt>
<trkpt lat="47.94025" lon="11.107035">
<ele>515.61</ele>
<time>2022-05-26T14:08:38Z</time>
</trkpt>
<trkpt lat="47.940281" lon="11.107028">
<ele>515.61</ele>
<time>2022-05-26T14:08:39Z</time>
</trkpt>
<trkpt lat="47.940304" lon="11.107028">
<ele>515.61</ele>
<time>2022-05-26T14:08:40Z</time>
</trkpt>
<trkpt lat="47.940327" lon="11.107026">
<ele>515.61</ele>
<time>2022-05-26T14:08:41Z</time>
</trkpt>
<trkpt lat="47.94035" lon="11.107021">
<ele>515.61</ele>
<time>2022-05-26T14:08:42Z</time>
</trkpt>
<trkpt lat="47.940365" lon="11.107017">
<ele>515.61</ele>
<time>2022-05-26T14:08:43Z</time>
</trkpt>
<trkpt lat="47.940384" lon="11.107005">
<ele>515.61</ele>
<time>2022-05-26T14:08:44Z</time>
</trkpt>
<trkpt lat="47.940399" lon="11.106994">
<ele>515.61</ele>
<time>2022-05-26T14:08:45Z</time>
</trkpt>
<trkpt lat="47.940411" lon="11.106983">
<ele>515.61</ele>
<time>2022-05-26T14:08:46Z</time>
</trkpt>
<trkpt lat="47.940418" lon="11.106972">
<ele>515.61</ele>
<time>2022-05-26T14:08:47Z</time>
</trkpt>
<trkpt lat="47.94043" lon="11.10696">
<ele>515.61</ele>
<time>2022-05-26T14:08:48Z</time>
</trkpt>
<trkpt lat="47.940445" lon="11.10695">
<ele>515.61</ele>
<time>2022-05-26T14:08:49Z</time>
</trkpt>
<trkpt lat="47.940468" lon="11.106942">
<ele>515.61</ele>
<time>2022-05-26T14:08:50Z</time>
</trkpt>
<trkpt lat="47.940495" lon="11.10693">
<ele>515.61</ele>
<time>2022-05-26T14:08:51Z</time>
</trkpt>
<trkpt lat="47.940514" lon="11.10692">
<ele>515.61</ele>
<time>2022-05-26T14:08:52Z</time>
</trkpt>
<trkpt lat="47.940536" lon="11.106911">
<ele>515.61</ele>
<time>2022-05-26T14:08:53Z</time>
</trkpt>
<trkpt lat="47.940563" lon="11.106898">
<ele>515.61</ele>
<time>2022-05-26T14:08:54Z</time>
</trkpt>
<trkpt lat="47.940586" lon="11.106881">
<ele>515.61</ele>
<time>2022-05-26T14:08:55Z</time>
</trkpt>
<trkpt lat="47.940617" lon="11.106863">
<ele>515.61</ele>
<time>2022-05-26T14:08:56Z</time>
</trkpt>
<trkpt lat="47.940636" lon="11.10685">
<ele>515.61</ele>
<time>2022-05-26T14:08:57Z</time>
</trkpt>
<trkpt lat="47.940662" lon="11.106835">
<ele>515.61</ele>
<time>2022-05-26T14:08:58Z</time>
</trkpt>
<trkpt lat="47.940689" lon="11.106822">
<ele>515.61</ele>
<time>2022-05-26T14:08:59Z</time>
</trkpt>
<trkpt lat="47.940723" lon="11.106808">
<ele>515.61</ele>
<time>2022-05-26T14:09:00Z</time>
</trkpt>
<trkpt lat="47.940754" lon="11.106798">
<ele>515.61</ele>
<time>2022-05-26T14:09:01Z</time>
</trkpt>
<trkpt lat="47.940773" lon="11.106787">
<ele>515.61</ele>
<time>2022-05-26T14:09:02Z</time>
</trkpt>
<trkpt lat="47.940815" lon="11.106776">
<ele>515.61</ele>
<time>2022-05-26T14:09:03Z</time>
</trkpt>
<trkpt lat="47.940849" lon="11.106773">
<ele>515.61</ele>
<time>2022-05-26T14:09:04Z</time>
</trkpt>
<trkpt lat="47.940891" lon="11.106771">
<ele>515.61</ele>
<time>2022-05-26T14:09:05Z</time>
</trkpt>
<trkpt lat="47.940929" lon="11.106765">
<ele>515.61</ele>
<time>2022-05-26T14:09:06Z</time>
</trkpt>
<trkpt lat="47.940971" lon="11.106762">
<ele>515.61</ele>
<time>2022-05-26T14:09:07Z</time>
</trkpt>
<trkpt lat="47.941013" lon="11.106758">
<ele>515.61</ele>
<time>2022-05-26T14:09:08Z</time>
</trkpt>
<trkpt lat="47.941051" lon="11.106755">
<ele>515.61</ele>
<time>2022-05-26T14:09:09Z</time>
</trkpt>
<trkpt lat="47.941086" lon="11.10675">
<ele>515.61</ele>
<time>2022-05-26T14:09:10Z</time>
</trkpt>
<trkpt lat="47.941124" lon="11.106747">
<ele>515.61</ele>
<time>2022-05-26T14:09:11Z</time>
</trkpt>
<trkpt lat="47.941162" lon="11.106745">
<ele>515.61</ele>
<time>2022-05-26T14:09:12Z</time>
</trkpt>
<trkpt lat="47.941193" lon="11.106745">
<ele>515.61</ele>
<time>2022-05-26T14:09:13Z</time>
</trkpt>
<trkpt lat="47.941235" lon="11.106747">
<ele>515.61</ele>
<time>2022-05-26T14:09:14Z</time>
</trkpt>
<trkpt lat="47.941277" lon="11.10675">
<ele>515.61</ele>
<time>2022-05-26T14:09:15Z</time>
</trkpt>
<trkpt lat="47.941315" lon="11.106755">
<ele>515.61</ele>
<time>2022-05-26T14:09:16Z</time>
</trkpt>
<trkpt lat="47.941357" lon="11.10676">
<ele>515.61</ele>
<time>2022-05-26T14:09:17Z</time>
</trkpt>
<trkpt lat="47.941399" lon="11.106765">
<ele>515.61</ele>
<time>2022-05-26T14:09:18Z</time>
</trkpt>
<trkpt lat="47.941448" lon="11.106771">
<ele>515.61</ele>
<time>2022-05-26T14:09:19Z</time>
</trkpt>
<trkpt lat="47.941486" lon="11.10678">
<ele>515.61</ele>
<time>2022-05-26T14:09:20Z</time>
</trkpt>
<trkpt lat="47.941532" lon="11.106791">
<ele>515.61</ele>
<time>2022-05-26T14:09:21Z</time>
</trkpt>
<trkpt lat="47.941574" lon="11.1068">
<ele>515.61</ele>
<time>2022-05-26T14:09:22Z</time>
</trkpt>
<trkpt lat="47.941608" lon="11.106804">
<ele>515.61</ele>
<time>2022-05-26T14:09:23Z</time>
</trkpt>
<trkpt lat="47.941647" lon="11.106806">
<ele>515.61</ele>
<time>2022-05-26T14:09:24Z</time>
</trkpt>
<trkpt lat="47.941681" lon="11.106804">
<ele>515.61</ele>
<time>2022-05-26T14:09:25Z</time>
</trkpt>
<trkpt lat="47.941719" lon="11.106804">
<ele>515.61</ele>
<time>2022-05-26T14:09:26Z</time>
</trkpt>
<trkpt lat="47.941753" lon="11.106806">
<ele>515.61</ele>
<time>2022-05-26T14:09:27Z</time>
</trkpt>
<trkpt lat="47.941792" lon="11.10681">
<ele>515.61</ele>
<time>2022-05-26T14:09:28Z</time>
</trkpt>
<trkpt lat="47.941826" lon="11.106818">
<ele>515.61</ele>
<time>2022-05-26T14:09:29Z</time>
</trkpt>
<trkpt lat="47.94186" lon="11.106823">
<ele>515.61</ele>
<time>2022-05-26T14:09:30Z</time>
</trkpt>
<trkpt lat="47.941895" lon="11.106829">
<ele>515.61</ele>
<time>2022-05-26T14:09:31Z</time>
</trkpt>
<trkpt lat="47.941929" lon="11.106832">
<ele>515.61</ele>
<time>2022-05-26T14:09:32Z</time>
</trkpt>
<trkpt lat="47.941959" lon="11.106835">
<ele>515.61</ele>
<time>2022-05-26T14:09:33Z</time>
</trkpt>
<trkpt lat="47.94199" lon="11.106841">
<ele>515.61</ele>
<time>2022-05-26T14:09:34Z</time>
</trkpt>
<trkpt lat="47.942017" lon="11.106848">
<ele>515.61</ele>
<time>2022-05-26T14:09:35Z</time>
</trkpt>
<trkpt lat="47.942043" lon="11.106856">
<ele>515.61</ele>
<time>2022-05-26T14:09:36Z</time>
</trkpt>
<trkpt lat="47.94207" lon="11.106856">
<ele>515.61</ele>
<time>2022-05-26T14:09:37Z</time>
</trkpt>
<trkpt lat="47.942097" lon="11.106858">
<ele>515.61</ele>
<time>2022-05-26T14:09:38Z</time>
</trkpt>
<trkpt lat="47.942123" lon="11.106855">
<ele>515.61</ele>
<time>2022-05-26T14:09:39Z</time>
</trkpt>
<trkpt lat="47.942142" lon="11.106853">
<ele>515.61</ele>
<time>2022-05-26T14:09:40Z</time>
</trkpt>
<trkpt lat="47.942169" lon="11.106855">
<ele>515.61</ele>
<time>2022-05-26T14:09:41Z</time>
</trkpt>
<trkpt lat="47.942207" lon="11.106856">
<ele>515.61</ele>
<time>2022-05-26T14:09:42Z</time>
</trkpt>
<trkpt lat="47.942242" lon="11.106862">
<ele>515.61</ele>
<time>2022-05-26T14:09:43Z</time>
</trkpt>
<trkpt lat="47.942268" lon="11.106869">
<ele>515.61</ele>
<time>2022-05-26T14:09:44Z</time>
</trkpt>
<trkpt lat="47.942299" lon="11.106876">
<ele>515.61</ele>
<time>2022-05-26T14:09:45Z</time>
</trkpt>
<trkpt lat="47.942326" lon="11.106879">
<ele>515.61</ele>
<time>2022-05-26T14:09:46Z</time>
</trkpt>
<trkpt lat="47.942356" lon="11.106881">
<ele>515.61</ele>
<time>2022-05-26T14:09:47Z</time>
</trkpt>
<trkpt lat="47.94239" lon="11.106883">
<ele>515.61</ele>
<time>2022-05-26T14:09:48Z</time>
</trkpt>
<trkpt lat="47.942421" lon="11.106887">
<ele>515.61</ele>
<time>2022-05-26T14:09:49Z</time>
</trkpt>
<trkpt lat="47.942459" lon="11.106895">
<ele>515.61</ele>
<time>2022-05-26T14:09:50Z</time>
</trkpt>
<trkpt lat="47.942497" lon="11.106905">
<ele>515.61</ele>
<time>2022-05-26T14:09:51Z</time>
</trkpt>
<trkpt lat="47.942535" lon="11.106915">
<ele>515.61</ele>
<time>2022-05-26T14:09:52Z</time>
</trkpt>
<trkpt lat="47.942574" lon="11.106921">
<ele>515.61</ele>
<time>2022-05-26T14:09:53Z</time>
</trkpt>
<trkpt lat="47.942616" lon="11.106925">
<ele>515.61</ele>
<time>2022-05-26T14:09:54Z</time>
</trkpt>
<trkpt lat="47.94265" lon="11.106934">
<ele>515.61</ele>
<time>2022-05-26T14:09:55Z</time>
</trkpt>
<trkpt lat="47.942684" lon="11.106945">
<ele>515.61</ele>
<time>2022-05-26T14:09:56Z</time>
</trkpt>
<trkpt lat="47.942719" lon="11.106963">
<ele>515.61</ele>
<time>2022-05-26T14:09:57Z</time>
</trkpt>
<trkpt lat="47.942753" lon="11.10698">
<ele>515.61</ele>
<time>2022-05-26T14:09:58Z</time>
</trkpt>
<trkpt lat="47.942783" lon="11.106997">
<ele>515.61</ele>
<time>2022-05-26T14:09:59Z</time>
</trkpt>
<trkpt lat="47.942814" lon="11.107012">
<ele>515.61</ele>
<time>2022-05-26T14:10:00Z</time>
</trkpt>
<trkpt lat="47.942844" lon="11.107026">
<ele>515.61</ele>
<time>2022-05-26T14:10:01Z</time>
</trkpt>
<trkpt lat="47.942879" lon="11.107037">
<ele>515.61</ele>
<time>2022-05-26T14:10:02Z</time>
</trkpt>
<trkpt lat="47.942917" lon="11.10705">
<ele>515.61</ele>
<time>2022-05-26T14:10:03Z</time>
</trkpt>
<trkpt lat="47.942955" lon="11.107061">
<ele>515.61</ele>
<time>2022-05-26T14:10:04Z</time>
</trkpt>
<trkpt lat="47.942993" lon="11.107075">
<ele>515.61</ele>
<time>2022-05-26T14:10:05Z</time>
</trkpt>
<trkpt lat="47.943024" lon="11.107091">
<ele>515.61</ele>
<time>2022-05-26T14:10:06Z</time>
</trkpt>
<trkpt lat="47.943058" lon="11.107112">
<ele>515.61</ele>
<time>2022-05-26T14:10:07Z</time>
</trkpt>
<trkpt lat="47.943089" lon="11.10713">
<ele>515.61</ele>
<time>2022-05-26T14:10:08Z</time>
</trkpt>
<trkpt lat="47.943123" lon="11.107148">
<ele>515.61</ele>
<time>2022-05-26T14:10:09Z</time>
</trkpt>
<trkpt lat="47.943146" lon="11.10717">
<ele>515.61</ele>
<time>2022-05-26T14:10:10Z</time>
</trkpt>
<trkpt lat="47.943172" lon="11.107195">
<ele>515.61</ele>
<time>2022-05-26T14:10:11Z</time>
</trkpt>
<trkpt lat="47.943207" lon="11.107215">
<ele>515.61</ele>
<time>2022-05-26T14:10:12Z</time>
</trkpt>
<trkpt lat="47.943233" lon="11.107238">
<ele>515.61</ele>
<time>2022-05-26T14:10:13Z</time>
</trkpt>
<trkpt lat="47.943268" lon="11.10726">
<ele>515.61</ele>
<time>2022-05-26T14:10:14Z</time>
</trkpt>
<trkpt lat="47.943295" lon="11.107284">
<ele>515.61</ele>
<time>2022-05-26T14:10:15Z</time>
</trkpt>
<trkpt lat="47.943325" lon="11.107306">
<ele>515.61</ele>
<time>2022-05-26T14:10:16Z</time>
</trkpt>
<trkpt lat="47.943352" lon="11.107331">
<ele>515.61</ele>
<time>2022-05-26T14:10:17Z</time>
</trkpt>
<trkpt lat="47.943386" lon="11.107359">
<ele>515.61</ele>
<time>2022-05-26T14:10:18Z</time>
</trkpt>
<trkpt lat="47.943424" lon="11.107385">
<ele>515.61</ele>
<time>2022-05-26T14:10:19Z</time>
</trkpt>
<trkpt lat="47.943459" lon="11.107409">
<ele>515.61</ele>
<time>2022-05-26T14:10:20Z</time>
</trkpt>
<trkpt lat="47.943481" lon="11.10743">
<ele>515.61</ele>
<time>2022-05-26T14:10:21Z</time>
</trkpt>
<trkpt lat="47.943504" lon="11.107458">
<ele>515.61</ele>
<time>2022-05-26T14:10:22Z</time>
</trkpt>
<trkpt lat="47.943535" lon="11.107487">
<ele>515.61</ele>
<time>2022-05-26T14:10:23Z</time>
</trkpt>
<trkpt lat="47.943565" lon="11.107515">
<ele>515.61</ele>
<time>2022-05-26T14:10:24Z</time>
</trkpt>
<trkpt lat="47.9436" lon="11.107547">
<ele>515.61</ele>
<time>2022-05-26T14:10:25Z</time>
</trkpt>
<trkpt lat="47.943642" lon="11.107578">
<ele>515.61</ele>
<time>2022-05-26T14:10:26Z</time>
</trkpt>
<trkpt lat="47.943676" lon="11.10761">
<ele>515.61</ele>
<time>2022-05-26T14:10:27Z</time>
</trkpt>
<trkpt lat="47.943718" lon="11.107641">
<ele>515.61</ele>
<time>2022-05-26T14:10:28Z</time>
</trkpt>
<trkpt lat="47.943764" lon="11.107677">
<ele>515.61</ele>
<time>2022-05-26T14:10:29Z</time>
</trkpt>
<trkpt lat="47.943825" lon="11.107715">
<ele>515.61</ele>
<time>2022-05-26T14:10:30Z</time>
</trkpt>
<trkpt lat="47.943882" lon="11.107753">
<ele>515.61</ele>
<time>2022-05-26T14:10:31Z</time>
</trkpt>
<trkpt lat="47.943932" lon="11.107801">
<ele>515.61</ele>
<time>2022-05-26T14:10:32Z</time>
</trkpt>
<trkpt lat="47.943974" lon="11.10785">
<ele>515.61</ele>
<time>2022-05-26T14:10:33Z</time>
</trkpt>
<trkpt lat="47.944019" lon="11.107898">
<ele>515.61</ele>
<time>2022-05-26T14:10:34Z</time>
</trkpt>
<trkpt lat="47.944054" lon="11.107944">
<ele>515.61</ele>
<time>2022-05-26T14:10:35Z</time>
</trkpt>
<trkpt lat="47.944096" lon="11.107987">
<ele>515.61</ele>
<time>2022-05-26T14:10:36Z</time>
</trkpt>
<trkpt lat="47.944134" lon="11.108021">
<ele>515.61</ele>
<time>2022-05-26T14:10:37Z</time>
</trkpt>
<trkpt lat="47.944168" lon="11.10805">
<ele>515.61</ele>
<time>2022-05-26T14:10:38Z</time>
</trkpt>
<trkpt lat="47.944202" lon="11.108082">
<ele>515.61</ele>
<time>2022-05-26T14:10:39Z</time>
</trkpt>
<trkpt lat="47.944237" lon="11.108111">
<ele>515.61</ele>
<time>2022-05-26T14:10:40Z</time>
</trkpt>
<trkpt lat="47.944271" lon="11.108145">
<ele>515.61</ele>
<time>2022-05-26T14:10:41Z</time>
</trkpt>
<trkpt lat="47.944305" lon="11.10818">
<ele>515.61</ele>
<time>2022-05-26T14:10:42Z</time>
</trkpt>
<trkpt lat="47.944332" lon="11.108215">
<ele>515.61</ele>
<time>2022-05-26T14:10:43Z</time>
</trkpt>
<trkpt lat="47.944363" lon="11.108249">
<ele>515.61</ele>
<time>2022-05-26T14:10:44Z</time>
</trkpt>
<trkpt lat="47.944393" lon="11.10828">
<ele>515.61</ele>
<time>2022-05-26T14:10:45Z</time>
</trkpt>
<trkpt lat="47.94442" lon="11.108306">
<ele>515.61</ele>
<time>2022-05-26T14:10:46Z</time>
</trkpt>
<trkpt lat="47.944443" lon="11.108334">
<ele>515.61</ele>
<time>2022-05-26T14:10:47Z</time>
</trkpt>
<trkpt lat="47.944473" lon="11.108358">
<ele>515.61</ele>
<time>2022-05-26T14:10:48Z</time>
</trkpt>
<trkpt lat="47.9445" lon="11.108383">
<ele>515.61</ele>
<time>2022-05-26T14:10:49Z</time>
</trkpt>
<trkpt lat="47.944527" lon="11.108408">
<ele>515.61</ele>
<time>2022-05-26T14:10:50Z</time>
</trkpt>
<trkpt lat="47.94455" lon="11.108434">
<ele>515.61</ele>
<time>2022-05-26T14:10:51Z</time>
</trkpt>
<trkpt lat="47.944572" lon="11.108459">
<ele>515.61</ele>
<time>2022-05-26T14:10:52Z</time>
</trkpt>
<trkpt lat="47.944599" lon="11.108483">
<ele>515.61</ele>
<time>2022-05-26T14:10:53Z</time>
</trkpt>
<trkpt lat="47.944622" lon="11.108507">
<ele>515.61</ele>
<time>2022-05-26T14:10:54Z</time>
</trkpt>
<trkpt lat="47.944641" lon="11.108532">
<ele>515.61</ele>
<time>2022-05-26T14:10:55Z</time>
</trkpt>
<trkpt lat="47.944668" lon="11.108565">
<ele>515.61</ele>
<time>2022-05-26T14:10:56Z</time>
</trkpt>
<trkpt lat="47.944698" lon="11.108602">
<ele>515.337</ele>
<time>2022-05-26T14:10:57Z</time>
</trkpt>
<trkpt lat="47.944736" lon="11.108645">
<ele>515.114</ele>
<time>2022-05-26T14:10:58Z</time>
</trkpt>
<trkpt lat="47.944771" lon="11.108686">
<ele>514.941</ele>
<time>2022-05-26T14:10:59Z</time>
</trkpt>
<trkpt lat="47.944801" lon="11.108719">
<ele>514.834</ele>
<time>2022-05-26T14:11:00Z</time>
</trkpt>
<trkpt lat="47.944832" lon="11.10875">
<ele>514.712</ele>
<time>2022-05-26T14:11:01Z</time>
</trkpt>
<trkpt lat="47.944866" lon="11.108787">
<ele>514.632</ele>
<time>2022-05-26T14:11:02Z</time>
</trkpt>
<trkpt lat="47.944897" lon="11.108817">
<ele>514.586</ele>
<time>2022-05-26T14:11:03Z</time>
</trkpt>
<trkpt lat="47.944927" lon="11.108845">
<ele>514.567</ele>
<time>2022-05-26T14:11:04Z</time>
</trkpt>
<trkpt lat="47.944958" lon="11.108871">
<ele>514.568</ele>
<time>2022-05-26T14:11:05Z</time>
</trkpt>
<trkpt lat="47.944981" lon="11.108898">
<ele>514.568</ele>
<time>2022-05-26T14:11:06Z</time>
</trkpt>
<trkpt lat="47.945007" lon="11.108929">
<ele>514.568</ele>
<time>2022-05-26T14:11:07Z</time>
</trkpt>
<trkpt lat="47.945038" lon="11.108958">
<ele>514.568</ele>
<time>2022-05-26T14:11:08Z</time>
</trkpt>
<trkpt lat="47.945072" lon="11.108994">
<ele>514.568</ele>
<time>2022-05-26T14:11:09Z</time>
</trkpt>
<trkpt lat="47.945103" lon="11.109025">
<ele>514.568</ele>
<time>2022-05-26T14:11:10Z</time>
</trkpt>
<trkpt lat="47.945137" lon="11.109056">
<ele>514.568</ele>
<time>2022-05-26T14:11:11Z</time>
</trkpt>
<trkpt lat="47.945164" lon="11.109083">
<ele>514.567</ele>
<time>2022-05-26T14:11:12Z</time>
</trkpt>
<trkpt lat="47.945194" lon="11.109108">
<ele>514.568</ele>
<time>2022-05-26T14:11:13Z</time>
</trkpt>
<trkpt lat="47.945225" lon="11.109136">
<ele>514.568</ele>
<time>2022-05-26T14:11:14Z</time>
</trkpt>
<trkpt lat="47.945248" lon="11.10916">
<ele>514.567</ele>
<time>2022-05-26T14:11:15Z</time>
</trkpt>
<trkpt lat="47.945274" lon="11.109186">
<ele>514.568</ele>
<time>2022-05-26T14:11:16Z</time>
</trkpt>
<trkpt lat="47.945305" lon="11.109217">
<ele>514.568</ele>
<time>2022-05-26T14:11:17Z</time>
</trkpt>
<trkpt lat="47.945339" lon="11.109244">
<ele>514.568</ele>
<time>2022-05-26T14:11:18Z</time>
</trkpt>
<trkpt lat="47.94537" lon="11.109277">
<ele>514.568</ele>
<time>2022-05-26T14:11:19Z</time>
</trkpt>
<trkpt lat="47.945404" lon="11.109307">
<ele>514.567</ele>
<time>2022-05-26T14:11:20Z</time>
</trkpt>
<trkpt lat="47.945438" lon="11.109333">
<ele>514.568</ele>
<time>2022-05-26T14:11:21Z</time>
</trkpt>
<trkpt lat="47.945473" lon="11.109358">
<ele>514.568</ele>
<time>2022-05-26T14:11:22Z</time>
</trkpt>
<trkpt lat="47.945507" lon="11.109383">
<ele>514.567</ele>
<time>2022-05-26T14:11:23Z</time>
</trkpt>
<trkpt lat="47.945541" lon="11.109412">
<ele>514.568</ele>
<time>2022-05-26T14:11:24Z</time>
</trkpt>
<trkpt lat="47.945576" lon="11.109433">
<ele>514.568</ele>
<time>2022-05-26T14:11:25Z</time>
</trkpt>
<trkpt lat="47.94561" lon="11.109451">
<ele>514.568</ele>
<time>2022-05-26T14:11:26Z</time>
</trkpt>
<trkpt lat="47.945648" lon="11.109468">
<ele>514.568</ele>
<time>2022-05-26T14:11:27Z</time>
</trkpt>
<trkpt lat="47.945679" lon="11.109486">
<ele>514.568</ele>
<time>2022-05-26T14:11:28Z</time>
</trkpt>
<trkpt lat="47.945713" lon="11.1095">
<ele>514.568</ele>
<time>2022-05-26T14:11:29Z</time>
</trkpt>
<trkpt lat="47.945747" lon="11.10952">
<ele>514.568</ele>
<time>2022-05-26T14:11:30Z</time>
</trkpt>
<trkpt lat="47.945778" lon="11.109538">
<ele>514.568</ele>
<time>2022-05-26T14:11:31Z</time>
</trkpt>
<trkpt lat="47.945801" lon="11.109552">
<ele>514.567</ele>
<time>2022-05-26T14:11:32Z</time>
</trkpt>
<trkpt lat="47.945827" lon="11.109571">
<ele>514.568</ele>
<time>2022-05-26T14:11:33Z</time>
</trkpt>
<trkpt lat="47.945858" lon="11.109593">
<ele>514.568</ele>
<time>2022-05-26T14:11:34Z</time>
</trkpt>
<trkpt lat="47.945889" lon="11.109613">
<ele>514.568</ele>
<time>2022-05-26T14:11:35Z</time>
</trkpt>
<trkpt lat="47.945923" lon="11.109634">
<ele>514.568</ele>
<time>2022-05-26T14:11:36Z</time>
</trkpt>
<trkpt lat="47.945961" lon="11.109658">
<ele>514.568</ele>
<time>2022-05-26T14:11:37Z</time>
</trkpt>
<trkpt lat="47.945999" lon="11.109683">
<ele>514.568</ele>
<time>2022-05-26T14:11:38Z</time>
</trkpt>
<trkpt lat="47.946041" lon="11.109705">
<ele>514.567</ele>
<time>2022-05-26T14:11:39Z</time>
</trkpt>
<trkpt lat="47.946075" lon="11.109731">
<ele>514.568</ele>
<time>2022-05-26T14:11:40Z</time>
</trkpt>
<trkpt lat="47.946121" lon="11.109756">
<ele>514.568</ele>
<time>2022-05-26T14:11:41Z</time>
</trkpt>
<trkpt lat="47.946159" lon="11.10978">
<ele>514.568</ele>
<time>2022-05-26T14:11:42Z</time>
</trkpt>
<trkpt lat="47.946205" lon="11.109796">
<ele>514.568</ele>
<time>2022-05-26T14:11:43Z</time>
</trkpt>
<trkpt lat="47.946243" lon="11.109805">
<ele>514.568</ele>
<time>2022-05-26T14:11:44Z</time>
</trkpt>
<trkpt lat="47.946281" lon="11.109808">
<ele>514.568</ele>
<time>2022-05-26T14:11:45Z</time>
</trkpt>
<trkpt lat="47.94632" lon="11.109808">
<ele>514.568</ele>
<time>2022-05-26T14:11:46Z</time>
</trkpt>
<trkpt lat="47.946358" lon="11.109812">
<ele>514.568</ele>
<time>2022-05-26T14:11:47Z</time>
</trkpt>
<trkpt lat="47.946396" lon="11.109821">
<ele>514.568</ele>
<time>2022-05-26T14:11:48Z</time>
</trkpt>
<trkpt lat="47.946434" lon="11.109834">
<ele>514.567</ele>
<time>2022-05-26T14:11:49Z</time>
</trkpt>
<trkpt lat="47.946472" lon="11.10985">
<ele>514.567</ele>
<time>2022-05-26T14:11:50Z</time>
</trkpt>
<trkpt lat="47.946518" lon="11.109867">
<ele>514.568</ele>
<time>2022-05-26T14:11:51Z</time>
</trkpt>
<trkpt lat="47.94656" lon="11.109879">
<ele>514.567</ele>
<time>2022-05-26T14:11:52Z</time>
</trkpt>
<trkpt lat="47.946598" lon="11.109888">
<ele>514.568</ele>
<time>2022-05-26T14:11:53Z</time>
</trkpt>
<trkpt lat="47.94664" lon="11.109899">
<ele>514.567</ele>
<time>2022-05-26T14:11:54Z</time>
</trkpt>
<trkpt lat="47.946682" lon="11.109913">
<ele>514.568</ele>
<time>2022-05-26T14:11:55Z</time>
</trkpt>
<trkpt lat="47.94672" lon="11.109927">
<ele>514.568</ele>
<time>2022-05-26T14:11:56Z</time>
</trkpt>
<trkpt lat="47.946758" lon="11.109934">
<ele>514.568</ele>
<time>2022-05-26T14:11:57Z</time>
</trkpt>
<trkpt lat="47.946793" lon="11.10994">
<ele>514.568</ele>
<time>2022-05-26T14:11:58Z</time>
</trkpt>
<trkpt lat="47.946827" lon="11.109946">
<ele>514.568</ele>
<time>2022-05-26T14:11:59Z</time>
</trkpt>
<trkpt lat="47.946869" lon="11.109952">
<ele>514.568</ele>
<time>2022-05-26T14:12:00Z</time>
</trkpt>
<trkpt lat="47.946907" lon="11.109955">
<ele>514.568</ele>
<time>2022-05-26T14:12:01Z</time>
</trkpt>
<trkpt lat="47.946945" lon="11.109957">
<ele>514.568</ele>
<time>2022-05-26T14:12:02Z</time>
</trkpt>
<trkpt lat="47.94698" lon="11.109962">
<ele>514.567</ele>
<time>2022-05-26T14:12:03Z</time>
</trkpt>
<trkpt lat="47.947014" lon="11.109967">
<ele>514.568</ele>
<time>2022-05-26T14:12:04Z</time>
</trkpt>
<trkpt lat="47.947052" lon="11.10997">
<ele>514.568</ele>
<time>2022-05-26T14:12:05Z</time>
</trkpt>
<trkpt lat="47.94709" lon="11.109974">
<ele>514.568</ele>
<time>2022-05-26T14:12:06Z</time>
</trkpt>
<trkpt lat="47.947124" lon="11.109978">
<ele>514.568</ele>
<time>2022-05-26T14:12:07Z</time>
</trkpt>
<trkpt lat="47.947159" lon="11.10998">
<ele>514.567</ele>
<time>2022-05-26T14:12:08Z</time>
</trkpt>
<trkpt lat="47.947189" lon="11.109983">
<ele>514.568</ele>
<time>2022-05-26T14:12:09Z</time>
</trkpt>
<trkpt lat="47.94722" lon="11.109984">
<ele>514.567</ele>
<time>2022-05-26T14:12:10Z</time>
</trkpt>
<trkpt lat="47.94725" lon="11.109983">
<ele>514.568</ele>
<time>2022-05-26T14:12:11Z</time>
</trkpt>
<trkpt lat="47.947285" lon="11.109978">
<ele>514.568</ele>
<time>2022-05-26T14:12:12Z</time>
</trkpt>
<trkpt lat="47.947323" lon="11.109977">
<ele>514.568</ele>
<time>2022-05-26T14:12:13Z</time>
</trkpt>
<trkpt lat="47.947361" lon="11.109975">
<ele>514.568</ele>
<time>2022-05-26T14:12:14Z</time>
</trkpt>
<trkpt lat="47.947395" lon="11.109975">
<ele>514.568</ele>
<time>2022-05-26T14:12:15Z</time>
</trkpt>
<trkpt lat="47.947426" lon="11.109974">
<ele>514.568</ele>
<time>2022-05-26T14:12:16Z</time>
</trkpt>
<trkpt lat="47.947456" lon="11.109977">
<ele>514.568</ele>
<time>2022-05-26T14:12:17Z</time>
</trkpt>
<trkpt lat="47.947487" lon="11.109978">
<ele>514.568</ele>
<time>2022-05-26T14:12:18Z</time>
</trkpt>
<trkpt lat="47.947514" lon="11.109978">
<ele>514.568</ele>
<time>2022-05-26T14:12:19Z</time>
</trkpt>
<trkpt lat="47.94754" lon="11.10998">
<ele>514.568</ele>
<time>2022-05-26T14:12:20Z</time>
</trkpt>
<trkpt lat="47.947567" lon="11.109982">
<ele>514.568</ele>
<time>2022-05-26T14:12:21Z</time>
</trkpt>
<trkpt lat="47.947594" lon="11.109984">
<ele>514.568</ele>
<time>2022-05-26T14:12:22Z</time>
</trkpt>
<trkpt lat="47.947628" lon="11.109992">
<ele>514.568</ele>
<time>2022-05-26T14:12:23Z</time>
</trkpt>
<trkpt lat="47.94767" lon="11.109993">
<ele>514.567</ele>
<time>2022-05-26T14:12:24Z</time>
</trkpt>
<trkpt lat="47.947712" lon="11.109992">
<ele>514.568</ele>
<time>2022-05-26T14:12:25Z</time>
</trkpt>
<trkpt lat="47.94775" lon="11.10999">
<ele>514.567</ele>
<time>2022-05-26T14:12:26Z</time>
</trkpt>
<trkpt lat="47.947792" lon="11.109992">
<ele>514.568</ele>
<time>2022-05-26T14:12:27Z</time>
</trkpt>
<trkpt lat="47.947826" lon="11.109992">
<ele>514.568</ele>
<time>2022-05-26T14:12:28Z</time>
</trkpt>
<trkpt lat="47.947861" lon="11.10999">
<ele>514.568</ele>
<time>2022-05-26T14:12:29Z</time>
</trkpt>
<trkpt lat="47.947891" lon="11.10999">
<ele>514.568</ele>
<time>2022-05-26T14:12:30Z</time>
</trkpt>
<trkpt lat="47.947914" lon="11.10999">
<ele>514.568</ele>
<time>2022-05-26T14:12:31Z</time>
</trkpt>
<trkpt lat="47.947941" lon="11.10999">
<ele>514.568</ele>
<time>2022-05-26T14:12:32Z</time>
</trkpt>
<trkpt lat="47.947964" lon="11.109986">
<ele>514.568</ele>
<time>2022-05-26T14:12:33Z</time>
</trkpt>
<trkpt lat="47.947994" lon="11.109983">
<ele>514.568</ele>
<time>2022-05-26T14:12:34Z</time>
</trkpt>
<trkpt lat="47.948021" lon="11.109983">
<ele>514.568</ele>
<time>2022-05-26T14:12:35Z</time>
</trkpt>
<trkpt lat="47.948048" lon="11.10998">
<ele>514.568</ele>
<time>2022-05-26T14:12:36Z</time>
</trkpt>
<trkpt lat="47.948074" lon="11.109972">
<ele>514.567</ele>
<time>2022-05-26T14:12:37Z</time>
</trkpt>
<trkpt lat="47.948093" lon="11.109962">
<ele>514.567</ele>
<time>2022-05-26T14:12:38Z</time>
</trkpt>
<trkpt lat="47.948116" lon="11.109953">
<ele>514.568</ele>
<time>2022-05-26T14:12:39Z</time>
</trkpt>
<trkpt lat="47.948135" lon="11.109955">
<ele>514.568</ele>
<time>2022-05-26T14:12:40Z</time>
</trkpt>
<trkpt lat="47.948154" lon="11.10997">
<ele>514.568</ele>
<time>2022-05-26T14:12:41Z</time>
</trkpt>
<trkpt lat="47.948162" lon="11.109992">
<ele>514.567</ele>
<time>2022-05-26T14:12:42Z</time>
</trkpt>
<trkpt lat="47.948166" lon="11.110009">
<ele>514.568</ele>
<time>2022-05-26T14:12:43Z</time>
</trkpt>
<trkpt lat="47.948177" lon="11.110034">
<ele>514.568</ele>
<time>2022-05-26T14:12:44Z</time>
</trkpt>
<trkpt lat="47.948189" lon="11.110057">
<ele>514.568</ele>
<time>2022-05-26T14:12:45Z</time>
</trkpt>
<trkpt lat="47.9482" lon="11.110083">
<ele>514.568</ele>
<time>2022-05-26T14:12:46Z</time>
</trkpt>
<trkpt lat="47.948208" lon="11.110106">
<ele>514.567</ele>
<time>2022-05-26T14:12:47Z</time>
</trkpt>
<trkpt lat="47.948215" lon="11.110131">
<ele>514.568</ele>
<time>2022-05-26T14:12:48Z</time>
</trkpt>
<trkpt lat="47.948223" lon="11.110165">
<ele>514.568</ele>
<time>2022-05-26T14:12:49Z</time>
</trkpt>
<trkpt lat="47.948231" lon="11.110202">
<ele>514.568</ele>
<time>2022-05-26T14:12:50Z</time>
</trkpt>
<trkpt lat="47.948242" lon="11.110231">
<ele>514.567</ele>
<time>2022-05-26T14:12:51Z</time>
</trkpt>
<trkpt lat="47.94825" lon="11.110267">
<ele>514.568</ele>
<time>2022-05-26T14:12:52Z</time>
</trkpt>
<trkpt lat="47.948257" lon="11.110293">
<ele>514.568</ele>
<time>2022-05-26T14:12:53Z</time>
</trkpt>
<trkpt lat="47.948269" lon="11.110305">
<ele>514.568</ele>
<time>2022-05-26T14:12:54Z</time>
</trkpt>
<trkpt lat="47.948277" lon="11.110305">
<ele>514.568</ele>
<time>2022-05-26T14:12:55Z</time>
</trkpt>
<trkpt lat="47.948284" lon="11.110307">
<ele>514.568</ele>
<time>2022-05-26T14:12:56Z</time>
</trkpt>
<trkpt lat="47.948292" lon="11.110336">
<ele>514.567</ele>
<time>2022-05-26T14:13:35Z</time>
</trkpt>
<trkpt lat="47.948292" lon="11.110335">
<ele>514.568</ele>
<time>2022-05-26T14:13:36Z</time>
</trkpt>
<trkpt lat="47.948292" lon="11.110336">
<ele>514.567</ele>
<time>2022-05-26T14:13:37Z</time>
</trkpt>
<trkpt lat="47.948292" lon="11.110335">
<ele>514.568</ele>
<time>2022-05-26T14:13:38Z</time>
</trkpt>
<trkpt lat="47.948292" lon="11.110365">
<ele>514.568</ele>
<time>2022-05-26T14:14:47Z</time>
</trkpt>
<trkpt lat="47.948292" lon="11.110382">
<ele>514.568</ele>
<time>2022-05-26T14:14:48Z</time>
</trkpt>
<trkpt lat="47.948299" lon="11.110405">
<ele>514.568</ele>
<time>2022-05-26T14:14:49Z</time>
</trkpt>
<trkpt lat="47.948307" lon="11.110435">
<ele>514.568</ele>
<time>2022-05-26T14:14:50Z</time>
</trkpt>
<trkpt lat="47.948318" lon="11.110468">
<ele>514.568</ele>
<time>2022-05-26T14:14:51Z</time>
</trkpt>
<trkpt lat="47.948322" lon="11.110499">
<ele>514.568</ele>
<time>2022-05-26T14:14:52Z</time>
</trkpt>
<trkpt lat="47.948326" lon="11.110537">
<ele>514.568</ele>
<time>2022-05-26T14:14:53Z</time>
</trkpt>
<trkpt lat="47.94833" lon="11.110572">
<ele>514.568</ele>
<time>2022-05-26T14:14:54Z</time>
</trkpt>
<trkpt lat="47.948334" lon="11.11061">
<ele>514.568</ele>
<time>2022-05-26T14:14:55Z</time>
</trkpt>
<trkpt lat="47.948338" lon="11.110646">
<ele>514.568</ele>
<time>2022-05-26T14:14:56Z</time>
</trkpt>
<trkpt lat="47.948338" lon="11.110686">
<ele>514.568</ele>
<time>2022-05-26T14:14:57Z</time>
</trkpt>
<trkpt lat="47.948341" lon="11.110732">
<ele>514.567</ele>
<time>2022-05-26T14:14:58Z</time>
</trkpt>
<trkpt lat="47.948353" lon="11.110765">
<ele>514.567</ele>
<time>2022-05-26T14:14:59Z</time>
</trkpt>
<trkpt lat="47.94836" lon="11.110799">
<ele>514.567</ele>
<time>2022-05-26T14:15:00Z</time>
</trkpt>
<trkpt lat="47.948368" lon="11.110828">
<ele>514.567</ele>
<time>2022-05-26T14:15:01Z</time>
</trkpt>
<trkpt lat="47.948376" lon="11.11086">
<ele>514.567</ele>
<time>2022-05-26T14:15:02Z</time>
</trkpt>
<trkpt lat="47.948383" lon="11.110888">
<ele>514.567</ele>
<time>2022-05-26T14:15:03Z</time>
</trkpt>
<trkpt lat="47.948387" lon="11.110916">
<ele>514.568</ele>
<time>2022-05-26T14:15:04Z</time>
</trkpt>
<trkpt lat="47.948387" lon="11.110942">
<ele>514.568</ele>
<time>2022-05-26T14:15:05Z</time>
</trkpt>
<trkpt lat="47.948387" lon="11.11097">
<ele>514.568</ele>
<time>2022-05-26T14:15:06Z</time>
</trkpt>
<trkpt lat="47.948387" lon="11.111">
<ele>514.568</ele>
<time>2022-05-26T14:15:07Z</time>
</trkpt>
<trkpt lat="47.948395" lon="11.111027">
<ele>514.568</ele>
<time>2022-05-26T14:15:08Z</time>
</trkpt>
<trkpt lat="47.948402" lon="11.111056">
<ele>514.567</ele>
<time>2022-05-26T14:15:09Z</time>
</trkpt>
<trkpt lat="47.948418" lon="11.111087">
<ele>514.568</ele>
<time>2022-05-26T14:15:10Z</time>
</trkpt>
<trkpt lat="47.948429" lon="11.111109">
<ele>514.568</ele>
<time>2022-05-26T14:15:11Z</time>
</trkpt>
<trkpt lat="47.948444" lon="11.111123">
<ele>514.568</ele>
<time>2022-05-26T14:15:12Z</time>
</trkpt>
<trkpt lat="47.94846" lon="11.111125">
<ele>514.568</ele>
<time>2022-05-26T14:15:13Z</time>
</trkpt>
<trkpt lat="47.948475" lon="11.111123">
<ele>514.568</ele>
<time>2022-05-26T14:15:14Z</time>
</trkpt>
<trkpt lat="47.948486" lon="11.111115">
<ele>514.568</ele>
<time>2022-05-26T14:15:15Z</time>
</trkpt>
<trkpt lat="47.948498" lon="11.111109">
<ele>514.567</ele>
<time>2022-05-26T14:15:16Z</time>
</trkpt>
<trkpt lat="47.948509" lon="11.111103">
<ele>514.568</ele>
<time>2022-05-26T14:15:17Z</time>
</trkpt>
<trkpt lat="47.948524" lon="11.1111">
<ele>514.568</ele>
<time>2022-05-26T14:15:18Z</time>
</trkpt>
<trkpt lat="47.94854" lon="11.111096">
<ele>514.568</ele>
<time>2022-05-26T14:15:19Z</time>
</trkpt>
<trkpt lat="47.948547" lon="11.111092">
<ele>514.568</ele>
<time>2022-05-26T14:15:20Z</time>
</trkpt>
<trkpt lat="47.948551" lon="11.111092">
<ele>514.567</ele>
<time>2022-05-26T14:15:22Z</time>
</trkpt>
<trkpt lat="47.948555" lon="11.111094">
<ele>514.568</ele>
<time>2022-05-26T14:15:23Z</time>
</trkpt>
<trkpt lat="47.948544" lon="11.111072">
<ele>514.568</ele>
<time>2022-05-26T14:15:52Z</time>
</trkpt>
<trkpt lat="47.948555" lon="11.111067">
<ele>514.567</ele>
<time>2022-05-26T14:15:53Z</time>
</trkpt>
<trkpt lat="47.94857" lon="11.111058">
<ele>514.568</ele>
<time>2022-05-26T14:15:54Z</time>
</trkpt>
<trkpt lat="47.948582" lon="11.111051">
<ele>514.568</ele>
<time>2022-05-26T14:15:55Z</time>
</trkpt>
<trkpt lat="47.948593" lon="11.111042">
<ele>514.567</ele>
<time>2022-05-26T14:15:56Z</time>
</trkpt>
<trkpt lat="47.948605" lon="11.111027">
<ele>514.568</ele>
<time>2022-05-26T14:15:57Z</time>
</trkpt>
<trkpt lat="47.948616" lon="11.111023">
<ele>514.568</ele>
<time>2022-05-26T14:15:58Z</time>
</trkpt>
<trkpt lat="47.948627" lon="11.111018">
<ele>514.568</ele>
<time>2022-05-26T14:15:59Z</time>
</trkpt>
<trkpt lat="47.948639" lon="11.111012">
<ele>514.568</ele>
<time>2022-05-26T14:16:00Z</time>
</trkpt>
<trkpt lat="47.94865" lon="11.111005">
<ele>514.568</ele>
<time>2022-05-26T14:16:01Z</time>
</trkpt>
<trkpt lat="47.948658" lon="11.110995">
<ele>514.568</ele>
<time>2022-05-26T14:16:02Z</time>
</trkpt>
<trkpt lat="47.948662" lon="11.11098">
<ele>514.568</ele>
<time>2022-05-26T14:16:03Z</time>
</trkpt>
<trkpt lat="47.948673" lon="11.11097">
<ele>514.568</ele>
<time>2022-05-26T14:16:04Z</time>
</trkpt>
<trkpt lat="47.948677" lon="11.110958">
<ele>514.568</ele>
<time>2022-05-26T14:16:05Z</time>
</trkpt>
<trkpt lat="47.948685" lon="11.110946">
<ele>514.568</ele>
<time>2022-05-26T14:16:06Z</time>
</trkpt>
<trkpt lat="47.948692" lon="11.110944">
<ele>514.568</ele>
<time>2022-05-26T14:16:07Z</time>
</trkpt>
<trkpt lat="47.948708" lon="11.110946">
<ele>514.568</ele>
<time>2022-05-26T14:16:08Z</time>
</trkpt>
<trkpt lat="47.948715" lon="11.11094">
<ele>514.568</ele>
<time>2022-05-26T14:16:09Z</time>
</trkpt>
<trkpt lat="47.94873" lon="11.110938">
<ele>514.568</ele>
<time>2022-05-26T14:16:10Z</time>
</trkpt>
<trkpt lat="47.948742" lon="11.110931">
<ele>514.568</ele>
<time>2022-05-26T14:16:11Z</time>
</trkpt>
<trkpt lat="47.948753" lon="11.110927">
<ele>514.568</ele>
<time>2022-05-26T14:16:12Z</time>
</trkpt>
<trkpt lat="47.948769" lon="11.110918">
<ele>514.568</ele>
<time>2022-05-26T14:16:13Z</time>
</trkpt>
<trkpt lat="47.94878" lon="11.110916">
<ele>514.568</ele>
<time>2022-05-26T14:16:14Z</time>
</trkpt>
<trkpt lat="47.948784" lon="11.110914">
<ele>514.567</ele>
<time>2022-05-26T14:16:15Z</time>
</trkpt>
<trkpt lat="47.948795" lon="11.110912">
<ele>514.567</ele>
<time>2022-05-26T14:16:16Z</time>
</trkpt>
<trkpt lat="47.948807" lon="11.110909">
<ele>514.568</ele>
<time>2022-05-26T14:16:17Z</time>
</trkpt>
<trkpt lat="47.948811" lon="11.110909">
<ele>514.567</ele>
<time>2022-05-26T14:16:18Z</time>
</trkpt>
<trkpt lat="47.948814" lon="11.110906">
<ele>514.567</ele>
<time>2022-05-26T14:16:19Z</time>
</trkpt>
<trkpt lat="47.948818" lon="11.110909">
<ele>514.568</ele>
<time>2022-05-26T14:16:20Z</time>
</trkpt>
<trkpt lat="47.948822" lon="11.110909">
<ele>514.568</ele>
<time>2022-05-26T14:16:21Z</time>
</trkpt>
<trkpt lat="47.948845" lon="11.1109">
<ele>514.568</ele>
<time>2022-05-26T14:16:31Z</time>
</trkpt>
<trkpt lat="47.948849" lon="11.110895">
<ele>514.568</ele>
<time>2022-05-26T14:16:32Z</time>
</trkpt>
<trkpt lat="47.948853" lon="11.110888">
<ele>514.568</ele>
<time>2022-05-26T14:16:33Z</time>
</trkpt>
<trkpt lat="47.94886" lon="11.110883">
<ele>514.567</ele>
<time>2022-05-26T14:16:34Z</time>
</trkpt>
<trkpt lat="47.948864" lon="11.110875">
<ele>514.568</ele>
<time>2022-05-26T14:16:35Z</time>
</trkpt>
<trkpt lat="47.948872" lon="11.110865">
<ele>514.568</ele>
<time>2022-05-26T14:16:36Z</time>
</trkpt>
<trkpt lat="47.948879" lon="11.110855">
<ele>514.568</ele>
<time>2022-05-26T14:16:37Z</time>
</trkpt>
<trkpt lat="47.948883" lon="11.110844">
<ele>514.568</ele>
<time>2022-05-26T14:16:38Z</time>
</trkpt>
<trkpt lat="47.948887" lon="11.110833">
<ele>514.567</ele>
<time>2022-05-26T14:16:39Z</time>
</trkpt>
<trkpt lat="47.948898" lon="11.11082">
<ele>514.568</ele>
<time>2022-05-26T14:16:40Z</time>
</trkpt>
<trkpt lat="47.948906" lon="11.110806">
<ele>514.567</ele>
<time>2022-05-26T14:16:41Z</time>
</trkpt>
<trkpt lat="47.94891" lon="11.110786">
<ele>514.568</ele>
<time>2022-05-26T14:16:42Z</time>
</trkpt>
<trkpt lat="47.948917" lon="11.110768">
<ele>514.568</ele>
<time>2022-05-26T14:16:43Z</time>
</trkpt>
<trkpt lat="47.948925" lon="11.110751">
<ele>514.567</ele>
<time>2022-05-26T14:16:44Z</time>
</trkpt>
<trkpt lat="47.948936" lon="11.110739">
<ele>514.567</ele>
<time>2022-05-26T14:16:45Z</time>
</trkpt>
<trkpt lat="47.948944" lon="11.110728">
<ele>514.567</ele>
<time>2022-05-26T14:16:46Z</time>
</trkpt>
<trkpt lat="47.948956" lon="11.11072">
<ele>514.568</ele>
<time>2022-05-26T14:16:47Z</time>
</trkpt>
<trkpt lat="47.948963" lon="11.110708">
<ele>514.568</ele>
<time>2022-05-26T14:16:48Z</time>
</trkpt>
<trkpt lat="47.948967" lon="11.110704">
<ele>514.568</ele>
<time>2022-05-26T14:16:49Z</time>
</trkpt>
<trkpt lat="47.948967" lon="11.110692">
<ele>514.568</ele>
<time>2022-05-26T14:16:50Z</time>
</trkpt>
<trkpt lat="47.948963" lon="11.110683">
<ele>514.567</ele>
<time>2022-05-26T14:16:51Z</time>
</trkpt>
<trkpt lat="47.948967" lon="11.110677">
<ele>514.568</ele>
<time>2022-05-26T14:16:52Z</time>
</trkpt>
<trkpt lat="47.948975" lon="11.110669">
<ele>514.568</ele>
<time>2022-05-26T14:16:53Z</time>
</trkpt>
<trkpt lat="47.948975" lon="11.110653">
<ele>514.568</ele>
<time>2022-05-26T14:16:54Z</time>
</trkpt>
<trkpt lat="47.948975" lon="11.11064">
<ele>514.568</ele>
<time>2022-05-26T14:16:55Z</time>
</trkpt>
<trkpt lat="47.948975" lon="11.110628">
<ele>514.567</ele>
<time>2022-05-26T14:16:56Z</time>
</trkpt>
<trkpt lat="47.948975" lon="11.110619">
<ele>514.568</ele>
<time>2022-05-26T14:16:57Z</time>
</trkpt>
<trkpt lat="47.948975" lon="11.110604">
<ele>514.568</ele>
<time>2022-05-26T14:16:58Z</time>
</trkpt>
<trkpt lat="47.948978" lon="11.110592">
<ele>514.568</ele>
<time>2022-05-26T14:16:59Z</time>
</trkpt>
<trkpt lat="47.948986" lon="11.110579">
<ele>514.567</ele>
<time>2022-05-26T14:17:00Z</time>
</trkpt>
<trkpt lat="47.94899" lon="11.110562">
<ele>514.568</ele>
<time>2022-05-26T14:17:01Z</time>
</trkpt>
<trkpt lat="47.949001" lon="11.110548">
<ele>514.567</ele>
<time>2022-05-26T14:17:02Z</time>
</trkpt>
<trkpt lat="47.949005" lon="11.110537">
<ele>514.568</ele>
<time>2022-05-26T14:17:03Z</time>
</trkpt>
<trkpt lat="47.949009" lon="11.110527">
<ele>514.568</ele>
<time>2022-05-26T14:17:04Z</time>
</trkpt>
<trkpt lat="47.949009" lon="11.110518">
<ele>514.567</ele>
<time>2022-05-26T14:17:05Z</time>
</trkpt>
<trkpt lat="47.949013" lon="11.110514">
<ele>514.568</ele>
<time>2022-05-26T14:17:06Z</time>
</trkpt>
<trkpt lat="47.949013" lon="11.110506">
<ele>514.567</ele>
<time>2022-05-26T14:17:07Z</time>
</trkpt>
<trkpt lat="47.949013" lon="11.110505">
<ele>514.568</ele>
<time>2022-05-26T14:17:08Z</time>
</trkpt>
<trkpt lat="47.949013" lon="11.110503">
<ele>514.568</ele>
<time>2022-05-26T14:17:09Z</time>
</trkpt>
<trkpt lat="47.949028" lon="11.110433">
<ele>514.567</ele>
<time>2022-05-26T14:17:20Z</time>
</trkpt>
<trkpt lat="47.949032" lon="11.110424">
<ele>514.568</ele>
<time>2022-05-26T14:17:21Z</time>
</trkpt>
<trkpt lat="47.949039" lon="11.110416">
<ele>514.568</ele>
<time>2022-05-26T14:17:22Z</time>
</trkpt>
<trkpt lat="47.949039" lon="11.110409">
<ele>514.568</ele>
<time>2022-05-26T14:17:23Z</time>
</trkpt>
<trkpt lat="47.949039" lon="11.110396">
<ele>514.568</ele>
<time>2022-05-26T14:17:24Z</time>
</trkpt>
<trkpt lat="47.949043" lon="11.110391">
<ele>514.567</ele>
<time>2022-05-26T14:17:25Z</time>
</trkpt>
<trkpt lat="47.949047" lon="11.110384">
<ele>514.568</ele>
<time>2022-05-26T14:17:26Z</time>
</trkpt>
<trkpt lat="47.949051" lon="11.110376">
<ele>514.567</ele>
<time>2022-05-26T14:17:27Z</time>
</trkpt>
<trkpt lat="47.949055" lon="11.110367">
<ele>514.568</ele>
<time>2022-05-26T14:17:28Z</time>
</trkpt>
<trkpt lat="47.949066" lon="11.110361">
<ele>514.568</ele>
<time>2022-05-26T14:17:29Z</time>
</trkpt>
<trkpt lat="47.94907" lon="11.110352">
<ele>514.568</ele>
<time>2022-05-26T14:17:30Z</time>
</trkpt>
<trkpt lat="47.949074" lon="11.110343">
<ele>514.568</ele>
<time>2022-05-26T14:17:31Z</time>
</trkpt>
<trkpt lat="47.949078" lon="11.110335">
<ele>514.568</ele>
<time>2022-05-26T14:17:32Z</time>
</trkpt>
<trkpt lat="47.949078" lon="11.110325">
<ele>514.568</ele>
<time>2022-05-26T14:17:33Z</time>
</trkpt>
<trkpt lat="47.949078" lon="11.110313">
<ele>514.567</ele>
<time>2022-05-26T14:17:34Z</time>
</trkpt>
<trkpt lat="47.949078" lon="11.1103">
<ele>514.567</ele>
<time>2022-05-26T14:17:35Z</time>
</trkpt>
<trkpt lat="47.949078" lon="11.110288">
<ele>514.568</ele>
<time>2022-05-26T14:17:36Z</time>
</trkpt>
<trkpt lat="47.949081" lon="11.110275">
<ele>514.567</ele>
<time>2022-05-26T14:17:37Z</time>
</trkpt>
<trkpt lat="47.949081" lon="11.110262">
<ele>514.568</ele>
<time>2022-05-26T14:17:38Z</time>
</trkpt>
<trkpt lat="47.949085" lon="11.110246">
<ele>514.568</ele>
<time>2022-05-26T14:17:39Z</time>
</trkpt>
<trkpt lat="47.949089" lon="11.110231">
<ele>514.568</ele>
<time>2022-05-26T14:17:40Z</time>
</trkpt>
<trkpt lat="47.949089" lon="11.110218">
<ele>514.568</ele>
<time>2022-05-26T14:17:41Z</time>
</trkpt>
<trkpt lat="47.949093" lon="11.1102">
<ele>514.567</ele>
<time>2022-05-26T14:17:42Z</time>
</trkpt>
<trkpt lat="47.949093" lon="11.11018">
<ele>514.568</ele>
<time>2022-05-26T14:17:43Z</time>
</trkpt>
<trkpt lat="47.949097" lon="11.110165">
<ele>514.568</ele>
<time>2022-05-26T14:17:44Z</time>
</trkpt>
<trkpt lat="47.949104" lon="11.110151">
<ele>514.567</ele>
<time>2022-05-26T14:17:45Z</time>
</trkpt>
<trkpt lat="47.949104" lon="11.110142">
<ele>514.568</ele>
<time>2022-05-26T14:17:46Z</time>
</trkpt>
<trkpt lat="47.949112" lon="11.110131">
<ele>514.567</ele>
<time>2022-05-26T14:17:47Z</time>
</trkpt>
<trkpt lat="47.949116" lon="11.110125">
<ele>514.568</ele>
<time>2022-05-26T14:17:48Z</time>
</trkpt>
<trkpt lat="47.94912" lon="11.110115">
<ele>514.568</ele>
<time>2022-05-26T14:17:49Z</time>
</trkpt>
<trkpt lat="47.949123" lon="11.1101">
<ele>514.568</ele>
<time>2022-05-26T14:17:50Z</time>
</trkpt>
<trkpt lat="47.949131" lon="11.110086">
<ele>514.568</ele>
<time>2022-05-26T14:17:51Z</time>
</trkpt>
<trkpt lat="47.949139" lon="11.110075">
<ele>514.568</ele>
<time>2022-05-26T14:17:52Z</time>
</trkpt>
<trkpt lat="47.949139" lon="11.110065">
<ele>514.568</ele>
<time>2022-05-26T14:17:53Z</time>
</trkpt>
<trkpt lat="47.949139" lon="11.110053">
<ele>514.567</ele>
<time>2022-05-26T14:17:54Z</time>
</trkpt>
<trkpt lat="47.949139" lon="11.110044">
<ele>514.568</ele>
<time>2022-05-26T14:17:55Z</time>
</trkpt>
<trkpt lat="47.949139" lon="11.11003">
<ele>514.568</ele>
<time>2022-05-26T14:17:56Z</time>
</trkpt>
<trkpt lat="47.949142" lon="11.110018">
<ele>514.567</ele>
<time>2022-05-26T14:17:57Z</time>
</trkpt>
<trkpt lat="47.949146" lon="11.110009">
<ele>514.567</ele>
<time>2022-05-26T14:17:58Z</time>
</trkpt>
<trkpt lat="47.94915" lon="11.109992">
<ele>514.568</ele>
<time>2022-05-26T14:17:59Z</time>
</trkpt>
<trkpt lat="47.949154" lon="11.10998">
<ele>514.567</ele>
<time>2022-05-26T14:18:00Z</time>
</trkpt>
<trkpt lat="47.949154" lon="11.109962">
<ele>514.568</ele>
<time>2022-05-26T14:18:01Z</time>
</trkpt>
<trkpt lat="47.949154" lon="11.109943">
<ele>514.568</ele>
<time>2022-05-26T14:18:02Z</time>
</trkpt>
<trkpt lat="47.949158" lon="11.109932">
<ele>514.568</ele>
<time>2022-05-26T14:18:03Z</time>
</trkpt>
<trkpt lat="47.949165" lon="11.10992">
<ele>514.567</ele>
<time>2022-05-26T14:18:04Z</time>
</trkpt>
<trkpt lat="47.949173" lon="11.109917">
<ele>514.568</ele>
<time>2022-05-26T14:18:05Z</time>
</trkpt>
<trkpt lat="47.949181" lon="11.109908">
<ele>514.568</ele>
<time>2022-05-26T14:18:06Z</time>
</trkpt>
<trkpt lat="47.949192" lon="11.1099">
<ele>514.568</ele>
<time>2022-05-26T14:18:07Z</time>
</trkpt>
<trkpt lat="47.949196" lon="11.109888">
<ele>514.567</ele>
<time>2022-05-26T14:18:08Z</time>
</trkpt>
<trkpt lat="47.949203" lon="11.109877">
<ele>514.568</ele>
<time>2022-05-26T14:18:09Z</time>
</trkpt>
<trkpt lat="47.949207" lon="11.109865">
<ele>514.568</ele>
<time>2022-05-26T14:18:10Z</time>
</trkpt>
<trkpt lat="47.949211" lon="11.109855">
<ele>514.567</ele>
<time>2022-05-26T14:18:11Z</time>
</trkpt>
<trkpt lat="47.949211" lon="11.109843">
<ele>514.568</ele>
<time>2022-05-26T14:18:12Z</time>
</trkpt>
<trkpt lat="47.949211" lon="11.109829">
<ele>514.568</ele>
<time>2022-05-26T14:18:13Z</time>
</trkpt>
<trkpt lat="47.949215" lon="11.109817">
<ele>514.568</ele>
<time>2022-05-26T14:18:14Z</time>
</trkpt>
<trkpt lat="47.949215" lon="11.109806">
<ele>514.568</ele>
<time>2022-05-26T14:18:15Z</time>
</trkpt>
<trkpt lat="47.949215" lon="11.109798">
<ele>514.568</ele>
<time>2022-05-26T14:18:16Z</time>
</trkpt>
<trkpt lat="47.949215" lon="11.109794">
<ele>514.568</ele>
<time>2022-05-26T14:18:17Z</time>
</trkpt>
<trkpt lat="47.949223" lon="11.109787">
<ele>514.568</ele>
<time>2022-05-26T14:18:18Z</time>
</trkpt>
<trkpt lat="47.949226" lon="11.109781">
<ele>514.568</ele>
<time>2022-05-26T14:18:19Z</time>
</trkpt>
<trkpt lat="47.949223" lon="11.109773">
<ele>514.568</ele>
<time>2022-05-26T14:18:20Z</time>
</trkpt>
<trkpt lat="47.949219" lon="11.109765">
<ele>514.568</ele>
<time>2022-05-26T14:18:21Z</time>
</trkpt>
<trkpt lat="47.949215" lon="11.109756">
<ele>514.568</ele>
<time>2022-05-26T14:18:22Z</time>
</trkpt>
<trkpt lat="47.949215" lon="11.109743">
<ele>514.568</ele>
<time>2022-05-26T14:18:23Z</time>
</trkpt>
<trkpt lat="47.949219" lon="11.109729">
<ele>514.568</ele>
<time>2022-05-26T14:18:24Z</time>
</trkpt>
<trkpt lat="47.949223" lon="11.109715">
<ele>514.567</ele>
<time>2022-05-26T14:18:25Z</time>
</trkpt>
<trkpt lat="47.94923" lon="11.10971">
<ele>514.568</ele>
<time>2022-05-26T14:18:26Z</time>
</trkpt>
<trkpt lat="47.949238" lon="11.109696">
<ele>514.568</ele>
<time>2022-05-26T14:18:27Z</time>
</trkpt>
<trkpt lat="47.949242" lon="11.109687">
<ele>514.568</ele>
<time>2022-05-26T14:18:28Z</time>
</trkpt>
<trkpt lat="47.949249" lon="11.109674">
<ele>514.568</ele>
<time>2022-05-26T14:18:29Z</time>
</trkpt>
<trkpt lat="47.949265" lon="11.10966">
<ele>514.567</ele>
<time>2022-05-26T14:18:30Z</time>
</trkpt>
<trkpt lat="47.949268" lon="11.109649">
<ele>514.568</ele>
<time>2022-05-26T14:18:31Z</time>
</trkpt>
<trkpt lat="47.94928" lon="11.10964">
<ele>514.568</ele>
<time>2022-05-26T14:18:32Z</time>
</trkpt>
<trkpt lat="47.949291" lon="11.109633">
<ele>514.568</ele>
<time>2022-05-26T14:18:33Z</time>
</trkpt>
<trkpt lat="47.949303" lon="11.10963">
<ele>514.568</ele>
<time>2022-05-26T14:18:34Z</time>
</trkpt>
<trkpt lat="47.949322" lon="11.109626">
<ele>514.568</ele>
<time>2022-05-26T14:18:35Z</time>
</trkpt>
<trkpt lat="47.949333" lon="11.109624">
<ele>514.568</ele>
<time>2022-05-26T14:18:36Z</time>
</trkpt>
<trkpt lat="47.949345" lon="11.109624">
<ele>514.567</ele>
<time>2022-05-26T14:18:37Z</time>
</trkpt>
<trkpt lat="47.949356" lon="11.109613">
<ele>514.568</ele>
<time>2022-05-26T14:18:38Z</time>
</trkpt>
<trkpt lat="47.949364" lon="11.109602">
<ele>514.568</ele>
<time>2022-05-26T14:18:39Z</time>
</trkpt>
<trkpt lat="47.949371" lon="11.109591">
<ele>514.567</ele>
<time>2022-05-26T14:18:40Z</time>
</trkpt>
<trkpt lat="47.949375" lon="11.109578">
<ele>514.568</ele>
<time>2022-05-26T14:18:41Z</time>
</trkpt>
<trkpt lat="47.949383" lon="11.109563">
<ele>514.568</ele>
<time>2022-05-26T14:18:42Z</time>
</trkpt>
<trkpt lat="47.94939" lon="11.109549">
<ele>514.567</ele>
<time>2022-05-26T14:18:43Z</time>
</trkpt>
<trkpt lat="47.949398" lon="11.109536">
<ele>514.568</ele>
<time>2022-05-26T14:18:44Z</time>
</trkpt>
<trkpt lat="47.949402" lon="11.109529">
<ele>514.568</ele>
<time>2022-05-26T14:18:45Z</time>
</trkpt>
<trkpt lat="47.949409" lon="11.109525">
<ele>514.567</ele>
<time>2022-05-26T14:18:46Z</time>
</trkpt>
<trkpt lat="47.949409" lon="11.109515">
<ele>514.568</ele>
<time>2022-05-26T14:18:47Z</time>
</trkpt>
<trkpt lat="47.949413" lon="11.109505">
<ele>514.568</ele>
<time>2022-05-26T14:18:48Z</time>
</trkpt>
<trkpt lat="47.949417" lon="11.109495">
<ele>514.568</ele>
<time>2022-05-26T14:18:49Z</time>
</trkpt>
<trkpt lat="47.949417" lon="11.10948">
<ele>514.568</ele>
<time>2022-05-26T14:18:50Z</time>
</trkpt>
<trkpt lat="47.949421" lon="11.10947">
<ele>514.567</ele>
<time>2022-05-26T14:18:51Z</time>
</trkpt>
<trkpt lat="47.949421" lon="11.109458">
<ele>514.568</ele>
<time>2022-05-26T14:18:52Z</time>
</trkpt>
<trkpt lat="47.949421" lon="11.109448">
<ele>514.568</ele>
<time>2022-05-26T14:18:53Z</time>
</trkpt>
<trkpt lat="47.949425" lon="11.109439">
<ele>514.567</ele>
<time>2022-05-26T14:18:54Z</time>
</trkpt>
<trkpt lat="47.949432" lon="11.109426">
<ele>514.568</ele>
<time>2022-05-26T14:18:55Z</time>
</trkpt>
<trkpt lat="47.949436" lon="11.109414">
<ele>514.568</ele>
<time>2022-05-26T14:18:56Z</time>
</trkpt>
<trkpt lat="47.94944" lon="11.1094">
<ele>514.568</ele>
<time>2022-05-26T14:18:57Z</time>
</trkpt>
<trkpt lat="47.949448" lon="11.109388">
<ele>514.568</ele>
<time>2022-05-26T14:18:58Z</time>
</trkpt>
<trkpt lat="47.949451" lon="11.109375">
<ele>514.568</ele>
<time>2022-05-26T14:18:59Z</time>
</trkpt>
<trkpt lat="47.949463" lon="11.109365">
<ele>514.568</ele>
<time>2022-05-26T14:19:00Z</time>
</trkpt>
<trkpt lat="47.949463" lon="11.109355">
<ele>514.568</ele>
<time>2022-05-26T14:19:01Z</time>
</trkpt>
<trkpt lat="47.949471" lon="11.109342">
<ele>514.568</ele>
<time>2022-05-26T14:19:02Z</time>
</trkpt>
<trkpt lat="47.949471" lon="11.109328">
<ele>514.568</ele>
<time>2022-05-26T14:19:03Z</time>
</trkpt>
<trkpt lat="47.949474" lon="11.109316">
<ele>514.568</ele>
<time>2022-05-26T14:19:04Z</time>
</trkpt>
<trkpt lat="47.949482" lon="11.1093">
<ele>514.568</ele>
<time>2022-05-26T14:19:05Z</time>
</trkpt>
<trkpt lat="47.94949" lon="11.109288">
<ele>514.568</ele>
<time>2022-05-26T14:19:06Z</time>
</trkpt>
<trkpt lat="47.949497" lon="11.109278">
<ele>514.568</ele>
<time>2022-05-26T14:19:07Z</time>
</trkpt>
<trkpt lat="47.949505" lon="11.10927">
<ele>514.568</ele>
<time>2022-05-26T14:19:08Z</time>
</trkpt>
<trkpt lat="47.949509" lon="11.10926">
<ele>514.568</ele>
<time>2022-05-26T14:19:09Z</time>
</trkpt>
<trkpt lat="47.949516" lon="11.10925">
<ele>514.568</ele>
<time>2022-05-26T14:19:10Z</time>
</trkpt>
<trkpt lat="47.94952" lon="11.109241">
<ele>514.568</ele>
<time>2022-05-26T14:19:11Z</time>
</trkpt>
<trkpt lat="47.949524" lon="11.109228">
<ele>514.567</ele>
<time>2022-05-26T14:19:12Z</time>
</trkpt>
<trkpt lat="47.949532" lon="11.10922">
<ele>514.568</ele>
<time>2022-05-26T14:19:13Z</time>
</trkpt>
<trkpt lat="47.949532" lon="11.109208">
<ele>514.568</ele>
<time>2022-05-26T14:19:14Z</time>
</trkpt>
<trkpt lat="47.949539" lon="11.109199">
<ele>514.568</ele>
<time>2022-05-26T14:19:15Z</time>
</trkpt>
<trkpt lat="47.949547" lon="11.109185">
<ele>514.568</ele>
<time>2022-05-26T14:19:16Z</time>
</trkpt>
<trkpt lat="47.949558" lon="11.109175">
<ele>514.568</ele>
<time>2022-05-26T14:19:17Z</time>
</trkpt>
<trkpt lat="47.949574" lon="11.109159">
<ele>514.568</ele>
<time>2022-05-26T14:19:18Z</time>
</trkpt>
<trkpt lat="47.949585" lon="11.109145">
<ele>514.568</ele>
<time>2022-05-26T14:19:19Z</time>
</trkpt>
<trkpt lat="47.9496" lon="11.109137">
<ele>514.568</ele>
<time>2022-05-26T14:19:20Z</time>
</trkpt>
<trkpt lat="47.949612" lon="11.109132">
<ele>514.567</ele>
<time>2022-05-26T14:19:21Z</time>
</trkpt>
<trkpt lat="47.949623" lon="11.109132">
<ele>514.567</ele>
<time>2022-05-26T14:19:22Z</time>
</trkpt>
<trkpt lat="47.949627" lon="11.109129">
<ele>514.567</ele>
<time>2022-05-26T14:19:23Z</time>
</trkpt>
<trkpt lat="47.949635" lon="11.109125">
<ele>514.568</ele>
<time>2022-05-26T14:19:24Z</time>
</trkpt>
<trkpt lat="47.949642" lon="11.109123">
<ele>514.568</ele>
<time>2022-05-26T14:19:25Z</time>
</trkpt>
<trkpt lat="47.94965" lon="11.109118">
<ele>514.567</ele>
<time>2022-05-26T14:19:26Z</time>
</trkpt>
<trkpt lat="47.949657" lon="11.109113">
<ele>514.568</ele>
<time>2022-05-26T14:19:27Z</time>
</trkpt>
<trkpt lat="47.949661" lon="11.109108">
<ele>514.568</ele>
<time>2022-05-26T14:19:28Z</time>
</trkpt>
<trkpt lat="47.949677" lon="11.1091">
<ele>514.568</ele>
<time>2022-05-26T14:19:29Z</time>
</trkpt>
<trkpt lat="47.949684" lon="11.109098">
<ele>514.568</ele>
<time>2022-05-26T14:19:30Z</time>
</trkpt>
<trkpt lat="47.949692" lon="11.109094">
<ele>514.567</ele>
<time>2022-05-26T14:19:31Z</time>
</trkpt>
<trkpt lat="47.949696" lon="11.109092">
<ele>514.568</ele>
<time>2022-05-26T14:19:32Z</time>
</trkpt>
<trkpt lat="47.949703" lon="11.109085">
<ele>514.568</ele>
<time>2022-05-26T14:19:33Z</time>
</trkpt>
<trkpt lat="47.949715" lon="11.109078">
<ele>514.568</ele>
<time>2022-05-26T14:19:34Z</time>
</trkpt>
<trkpt lat="47.949722" lon="11.109072">
<ele>514.568</ele>
<time>2022-05-26T14:19:35Z</time>
</trkpt>
<trkpt lat="47.94973" lon="11.109065">
<ele>514.568</ele>
<time>2022-05-26T14:19:36Z</time>
</trkpt>
<trkpt lat="47.949738" lon="11.109058">
<ele>514.568</ele>
<time>2022-05-26T14:19:37Z</time>
</trkpt>
<trkpt lat="47.949745" lon="11.109052">
<ele>514.567</ele>
<time>2022-05-26T14:19:38Z</time>
</trkpt>
<trkpt lat="47.949753" lon="11.109045">
<ele>514.568</ele>
<time>2022-05-26T14:19:39Z</time>
</trkpt>
<trkpt lat="47.949757" lon="11.109038">
<ele>514.567</ele>
<time>2022-05-26T14:19:40Z</time>
</trkpt>
<trkpt lat="47.949768" lon="11.109029">
<ele>514.568</ele>
<time>2022-05-26T14:19:41Z</time>
</trkpt>
<trkpt lat="47.949768" lon="11.109027">
<ele>514.568</ele>
<time>2022-05-26T14:19:42Z</time>
</trkpt>
<trkpt lat="47.949772" lon="11.10902">
<ele>514.568</ele>
<time>2022-05-26T14:19:43Z</time>
</trkpt>
<trkpt lat="47.949776" lon="11.109014">
<ele>514.568</ele>
<time>2022-05-26T14:19:44Z</time>
</trkpt>
<trkpt lat="47.94978" lon="11.109008">
<ele>514.567</ele>
<time>2022-05-26T14:19:45Z</time>
</trkpt>
<trkpt lat="47.949783" lon="11.109003">
<ele>514.568</ele>
<time>2022-05-26T14:19:46Z</time>
</trkpt>
<trkpt lat="47.949791" lon="11.109003">
<ele>514.567</ele>
<time>2022-05-26T14:19:47Z</time>
</trkpt>
<trkpt lat="47.949795" lon="11.109001">
<ele>514.567</ele>
<time>2022-05-26T14:19:48Z</time>
</trkpt>
<trkpt lat="47.949799" lon="11.108999">
<ele>514.567</ele>
<time>2022-05-26T14:19:49Z</time>
</trkpt>
<trkpt lat="47.949806" lon="11.108999">
<ele>514.568</ele>
<time>2022-05-26T14:19:50Z</time>
</trkpt>
<trkpt lat="47.94981" lon="11.109001">
<ele>514.568</ele>
<time>2022-05-26T14:19:51Z</time>
</trkpt>
<trkpt lat="47.949821" lon="11.109001">
<ele>514.568</ele>
<time>2022-05-26T14:19:52Z</time>
</trkpt>
<trkpt lat="47.949829" lon="11.109001">
<ele>514.568</ele>
<time>2022-05-26T14:19:53Z</time>
</trkpt>
<trkpt lat="47.949841" lon="11.108995">
<ele>514.568</ele>
<time>2022-05-26T14:19:54Z</time>
</trkpt>
<trkpt lat="47.949852" lon="11.108985">
<ele>514.568</ele>
<time>2022-05-26T14:19:55Z</time>
</trkpt>
<trkpt lat="47.949856" lon="11.108978">
<ele>514.567</ele>
<time>2022-05-26T14:19:56Z</time>
</trkpt>
<trkpt lat="47.949863" lon="11.108966">
<ele>514.568</ele>
<time>2022-05-26T14:19:57Z</time>
</trkpt>
<trkpt lat="47.949867" lon="11.108958">
<ele>514.568</ele>
<time>2022-05-26T14:19:58Z</time>
</trkpt>
<trkpt lat="47.949871" lon="11.108949">
<ele>514.567</ele>
<time>2022-05-26T14:19:59Z</time>
</trkpt>
<trkpt lat="47.949875" lon="11.108941">
<ele>514.568</ele>
<time>2022-05-26T14:20:00Z</time>
</trkpt>
<trkpt lat="47.949886" lon="11.10894">
<ele>514.568</ele>
<time>2022-05-26T14:20:01Z</time>
</trkpt>
<trkpt lat="47.94989" lon="11.108934">
<ele>514.567</ele>
<time>2022-05-26T14:20:02Z</time>
</trkpt>
<trkpt lat="47.949894" lon="11.108932">
<ele>514.568</ele>
<time>2022-05-26T14:20:03Z</time>
</trkpt>
<trkpt lat="47.949898" lon="11.108927">
<ele>514.568</ele>
<time>2022-05-26T14:20:04Z</time>
</trkpt>
<trkpt lat="47.949905" lon="11.10892">
<ele>514.568</ele>
<time>2022-05-26T14:20:05Z</time>
</trkpt>
<trkpt lat="47.949905" lon="11.108913">
<ele>514.568</ele>
<time>2022-05-26T14:20:06Z</time>
</trkpt>
<trkpt lat="47.949909" lon="11.108909">
<ele>514.567</ele>
<time>2022-05-26T14:20:07Z</time>
</trkpt>
<trkpt lat="47.949913" lon="11.108898">
<ele>514.567</ele>
<time>2022-05-26T14:20:08Z</time>
</trkpt>
<trkpt lat="47.949921" lon="11.108891">
<ele>514.568</ele>
<time>2022-05-26T14:20:09Z</time>
</trkpt>
<trkpt lat="47.949928" lon="11.10888">
<ele>514.567</ele>
<time>2022-05-26T14:20:10Z</time>
</trkpt>
<trkpt lat="47.94994" lon="11.10887">
<ele>514.567</ele>
<time>2022-05-26T14:20:11Z</time>
</trkpt>
<trkpt lat="47.949951" lon="11.108857">
<ele>514.567</ele>
<time>2022-05-26T14:20:12Z</time>
</trkpt>
<trkpt lat="47.949959" lon="11.108844">
<ele>514.568</ele>
<time>2022-05-26T14:20:13Z</time>
</trkpt>
<trkpt lat="47.949963" lon="11.108831">
<ele>514.568</ele>
<time>2022-05-26T14:20:14Z</time>
</trkpt>
<trkpt lat="47.94997" lon="11.108819">
<ele>514.567</ele>
<time>2022-05-26T14:20:15Z</time>
</trkpt>
<trkpt lat="47.949978" lon="11.108807">
<ele>514.568</ele>
<time>2022-05-26T14:20:16Z</time>
</trkpt>
<trkpt lat="47.949986" lon="11.108793">
<ele>514.568</ele>
<time>2022-05-26T14:20:17Z</time>
</trkpt>
<trkpt lat="47.949989" lon="11.108786">
<ele>514.568</ele>
<time>2022-05-26T14:20:18Z</time>
</trkpt>
<trkpt lat="47.949997" lon="11.108775">
<ele>514.568</ele>
<time>2022-05-26T14:20:19Z</time>
</trkpt>
<trkpt lat="47.949997" lon="11.108762">
<ele>514.568</ele>
<time>2022-05-26T14:20:20Z</time>
</trkpt>
<trkpt lat="47.949997" lon="11.108744">
<ele>514.568</ele>
<time>2022-05-26T14:20:21Z</time>
</trkpt>
<trkpt lat="47.949997" lon="11.108733">
<ele>514.568</ele>
<time>2022-05-26T14:20:22Z</time>
</trkpt>
<trkpt lat="47.949997" lon="11.108723">
<ele>514.568</ele>
<time>2022-05-26T14:20:23Z</time>
</trkpt>
<trkpt lat="47.950005" lon="11.108719">
<ele>514.568</ele>
<time>2022-05-26T14:20:24Z</time>
</trkpt>
<trkpt lat="47.950012" lon="11.108708">
<ele>514.568</ele>
<time>2022-05-26T14:20:25Z</time>
</trkpt>
<trkpt lat="47.95002" lon="11.1087">
<ele>514.568</ele>
<time>2022-05-26T14:20:26Z</time>
</trkpt>
<trkpt lat="47.950027" lon="11.108695">
<ele>514.568</ele>
<time>2022-05-26T14:20:27Z</time>
</trkpt>
<trkpt lat="47.950043" lon="11.108691">
<ele>514.568</ele>
<time>2022-05-26T14:20:28Z</time>
</trkpt>
<trkpt lat="47.95005" lon="11.108686">
<ele>514.567</ele>
<time>2022-05-26T14:20:29Z</time>
</trkpt>
<trkpt lat="47.950062" lon="11.108684">
<ele>514.568</ele>
<time>2022-05-26T14:20:30Z</time>
</trkpt>
<trkpt lat="47.950077" lon="11.108681">
<ele>514.567</ele>
<time>2022-05-26T14:20:31Z</time>
</trkpt>
<trkpt lat="47.950089" lon="11.108675">
<ele>514.567</ele>
<time>2022-05-26T14:20:32Z</time>
</trkpt>
<trkpt lat="47.9501" lon="11.108668">
<ele>514.568</ele>
<time>2022-05-26T14:20:33Z</time>
</trkpt>
<trkpt lat="47.950108" lon="11.10866">
<ele>514.568</ele>
<time>2022-05-26T14:20:34Z</time>
</trkpt>
<trkpt lat="47.950115" lon="11.108653">
<ele>514.567</ele>
<time>2022-05-26T14:20:35Z</time>
</trkpt>
<trkpt lat="47.950127" lon="11.108648">
<ele>514.568</ele>
<time>2022-05-26T14:20:36Z</time>
</trkpt>
<trkpt lat="47.950138" lon="11.108644">
<ele>514.567</ele>
<time>2022-05-26T14:20:37Z</time>
</trkpt>
<trkpt lat="47.95015" lon="11.108637">
<ele>514.567</ele>
<time>2022-05-26T14:20:38Z</time>
</trkpt>
<trkpt lat="47.950157" lon="11.10863">
<ele>514.568</ele>
<time>2022-05-26T14:20:39Z</time>
</trkpt>
<trkpt lat="47.950169" lon="11.108624">
<ele>514.567</ele>
<time>2022-05-26T14:20:40Z</time>
</trkpt>
<trkpt lat="47.95018" lon="11.108614">
<ele>514.567</ele>
<time>2022-05-26T14:20:41Z</time>
</trkpt>
<trkpt lat="47.950188" lon="11.108608">
<ele>514.567</ele>
<time>2022-05-26T14:20:42Z</time>
</trkpt>
<trkpt lat="47.950199" lon="11.108603">
<ele>514.568</ele>
<time>2022-05-26T14:20:43Z</time>
</trkpt>
<trkpt lat="47.950207" lon="11.108599">
<ele>514.568</ele>
<time>2022-05-26T14:20:44Z</time>
</trkpt>
<trkpt lat="47.950214" lon="11.108597">
<ele>514.568</ele>
<time>2022-05-26T14:20:45Z</time>
</trkpt>
<trkpt lat="47.950222" lon="11.108586">
<ele>514.568</ele>
<time>2022-05-26T14:20:46Z</time>
</trkpt>
<trkpt lat="47.95023" lon="11.108582">
<ele>514.568</ele>
<time>2022-05-26T14:20:47Z</time>
</trkpt>
<trkpt lat="47.950241" lon="11.108581">
<ele>514.568</ele>
<time>2022-05-26T14:20:48Z</time>
</trkpt>
<trkpt lat="47.950249" lon="11.108572">
<ele>514.568</ele>
<time>2022-05-26T14:20:49Z</time>
</trkpt>
<trkpt lat="47.950253" lon="11.108566">
<ele>514.568</ele>
<time>2022-05-26T14:20:50Z</time>
</trkpt>
<trkpt lat="47.950264" lon="11.108559">
<ele>514.568</ele>
<time>2022-05-26T14:20:51Z</time>
</trkpt>
<trkpt lat="47.950272" lon="11.108546">
<ele>514.568</ele>
<time>2022-05-26T14:20:52Z</time>
</trkpt>
<trkpt lat="47.950279" lon="11.108535">
<ele>514.567</ele>
<time>2022-05-26T14:20:53Z</time>
</trkpt>
<trkpt lat="47.950283" lon="11.108526">
<ele>514.568</ele>
<time>2022-05-26T14:20:54Z</time>
</trkpt>
<trkpt lat="47.950287" lon="11.108518">
<ele>514.568</ele>
<time>2022-05-26T14:20:55Z</time>
</trkpt>
<trkpt lat="47.950294" lon="11.108505">
<ele>514.568</ele>
<time>2022-05-26T14:20:56Z</time>
</trkpt>
<trkpt lat="47.950302" lon="11.108499">
<ele>514.568</ele>
<time>2022-05-26T14:20:57Z</time>
</trkpt>
<trkpt lat="47.950314" lon="11.108493">
<ele>514.567</ele>
<time>2022-05-26T14:20:58Z</time>
</trkpt>
<trkpt lat="47.950317" lon="11.10849">
<ele>514.568</ele>
<time>2022-05-26T14:20:59Z</time>
</trkpt>
<trkpt lat="47.950329" lon="11.10849">
<ele>514.568</ele>
<time>2022-05-26T14:21:00Z</time>
</trkpt>
<trkpt lat="47.950344" lon="11.108486">
<ele>514.568</ele>
<time>2022-05-26T14:21:01Z</time>
</trkpt>
<trkpt lat="47.950356" lon="11.108485">
<ele>514.567</ele>
<time>2022-05-26T14:21:02Z</time>
</trkpt>
<trkpt lat="47.950371" lon="11.108481">
<ele>514.568</ele>
<time>2022-05-26T14:21:03Z</time>
</trkpt>
<trkpt lat="47.950378" lon="11.108476">
<ele>514.568</ele>
<time>2022-05-26T14:21:04Z</time>
</trkpt>
<trkpt lat="47.950382" lon="11.108465">
<ele>514.568</ele>
<time>2022-05-26T14:21:05Z</time>
</trkpt>
<trkpt lat="47.95039" lon="11.108453">
<ele>514.568</ele>
<time>2022-05-26T14:21:06Z</time>
</trkpt>
<trkpt lat="47.950401" lon="11.108444">
<ele>514.568</ele>
<time>2022-05-26T14:21:07Z</time>
</trkpt>
<trkpt lat="47.950409" lon="11.108434">
<ele>514.568</ele>
<time>2022-05-26T14:21:08Z</time>
</trkpt>
<trkpt lat="47.950413" lon="11.108421">
<ele>514.568</ele>
<time>2022-05-26T14:21:09Z</time>
</trkpt>
<trkpt lat="47.95042" lon="11.108413">
<ele>514.568</ele>
<time>2022-05-26T14:21:10Z</time>
</trkpt>
<trkpt lat="47.950428" lon="11.108402">
<ele>514.568</ele>
<time>2022-05-26T14:21:11Z</time>
</trkpt>
<trkpt lat="47.950439" lon="11.10839">
<ele>514.567</ele>
<time>2022-05-26T14:21:12Z</time>
</trkpt>
<trkpt lat="47.950443" lon="11.108381">
<ele>514.568</ele>
<time>2022-05-26T14:21:13Z</time>
</trkpt>
<trkpt lat="47.950455" lon="11.108373">
<ele>514.567</ele>
<time>2022-05-26T14:21:14Z</time>
</trkpt>
<trkpt lat="47.950462" lon="11.108362">
<ele>514.568</ele>
<time>2022-05-26T14:21:15Z</time>
</trkpt>
<trkpt lat="47.950474" lon="11.108352">
<ele>514.568</ele>
<time>2022-05-26T14:21:16Z</time>
</trkpt>
<trkpt lat="47.950478" lon="11.108343">
<ele>514.568</ele>
<time>2022-05-26T14:21:17Z</time>
</trkpt>
<trkpt lat="47.950489" lon="11.108334">
<ele>514.568</ele>
<time>2022-05-26T14:21:18Z</time>
</trkpt>
<trkpt lat="47.950497" lon="11.108325">
<ele>514.568</ele>
<time>2022-05-26T14:21:19Z</time>
</trkpt>
<trkpt lat="47.950508" lon="11.108318">
<ele>514.568</ele>
<time>2022-05-26T14:21:20Z</time>
</trkpt>
<trkpt lat="47.950516" lon="11.108308">
<ele>514.567</ele>
<time>2022-05-26T14:21:21Z</time>
</trkpt>
<trkpt lat="47.950523" lon="11.108298">
<ele>514.568</ele>
<time>2022-05-26T14:21:22Z</time>
</trkpt>
<trkpt lat="47.950531" lon="11.108297">
<ele>514.567</ele>
<time>2022-05-26T14:21:23Z</time>
</trkpt>
<trkpt lat="47.950542" lon="11.108292">
<ele>514.568</ele>
<time>2022-05-26T14:21:24Z</time>
</trkpt>
<trkpt lat="47.950554" lon="11.108283">
<ele>514.568</ele>
<time>2022-05-26T14:21:25Z</time>
</trkpt>
<trkpt lat="47.950569" lon="11.10828">
<ele>514.568</ele>
<time>2022-05-26T14:21:26Z</time>
</trkpt>
<trkpt lat="47.950581" lon="11.108274">
<ele>514.568</ele>
<time>2022-05-26T14:21:27Z</time>
</trkpt>
<trkpt lat="47.950592" lon="11.108268">
<ele>514.567</ele>
<time>2022-05-26T14:21:28Z</time>
</trkpt>
<trkpt lat="47.9506" lon="11.108262">
<ele>514.568</ele>
<time>2022-05-26T14:21:29Z</time>
</trkpt>
<trkpt lat="47.950607" lon="11.108253">
<ele>514.568</ele>
<time>2022-05-26T14:21:30Z</time>
</trkpt>
<trkpt lat="47.950623" lon="11.108249">
<ele>514.567</ele>
<time>2022-05-26T14:21:31Z</time>
</trkpt>
<trkpt lat="47.95063" lon="11.108243">
<ele>514.568</ele>
<time>2022-05-26T14:21:32Z</time>
</trkpt>
<trkpt lat="47.950642" lon="11.108236">
<ele>514.568</ele>
<time>2022-05-26T14:21:33Z</time>
</trkpt>
<trkpt lat="47.950657" lon="11.108231">
<ele>514.568</ele>
<time>2022-05-26T14:21:34Z</time>
</trkpt>
<trkpt lat="47.950665" lon="11.108224">
<ele>514.567</ele>
<time>2022-05-26T14:21:35Z</time>
</trkpt>
<trkpt lat="47.950672" lon="11.108213">
<ele>514.567</ele>
<time>2022-05-26T14:21:36Z</time>
</trkpt>
<trkpt lat="47.95068" lon="11.1082">
<ele>514.568</ele>
<time>2022-05-26T14:21:37Z</time>
</trkpt>
<trkpt lat="47.950691" lon="11.108191">
<ele>514.567</ele>
<time>2022-05-26T14:21:38Z</time>
</trkpt>
<trkpt lat="47.950703" lon="11.108184">
<ele>514.568</ele>
<time>2022-05-26T14:21:39Z</time>
</trkpt>
<trkpt lat="47.95071" lon="11.108168">
<ele>514.568</ele>
<time>2022-05-26T14:21:40Z</time>
</trkpt>
<trkpt lat="47.950722" lon="11.108159">
<ele>514.568</ele>
<time>2022-05-26T14:21:41Z</time>
</trkpt>
<trkpt lat="47.950733" lon="11.10815">
<ele>514.568</ele>
<time>2022-05-26T14:21:42Z</time>
</trkpt>
<trkpt lat="47.950741" lon="11.108143">
<ele>514.568</ele>
<time>2022-05-26T14:21:43Z</time>
</trkpt>
<trkpt lat="47.950752" lon="11.108136">
<ele>514.568</ele>
<time>2022-05-26T14:21:44Z</time>
</trkpt>
<trkpt lat="47.950764" lon="11.108126">
<ele>514.567</ele>
<time>2022-05-26T14:21:45Z</time>
</trkpt>
<trkpt lat="47.950771" lon="11.108117">
<ele>514.567</ele>
<time>2022-05-26T14:21:46Z</time>
</trkpt>
<trkpt lat="47.950783" lon="11.108107">
<ele>514.568</ele>
<time>2022-05-26T14:21:47Z</time>
</trkpt>
<trkpt lat="47.950794" lon="11.108088">
<ele>514.568</ele>
<time>2022-05-26T14:21:48Z</time>
</trkpt>
<trkpt lat="47.950802" lon="11.108071">
<ele>514.568</ele>
<time>2022-05-26T14:21:49Z</time>
</trkpt>
<trkpt lat="47.950809" lon="11.108065">
<ele>514.568</ele>
<time>2022-05-26T14:21:50Z</time>
</trkpt>
<trkpt lat="47.950821" lon="11.108052">
<ele>514.568</ele>
<time>2022-05-26T14:21:51Z</time>
</trkpt>
<trkpt lat="47.950829" lon="11.108037">
<ele>514.568</ele>
<time>2022-05-26T14:21:52Z</time>
</trkpt>
<trkpt lat="47.950832" lon="11.108025">
<ele>514.568</ele>
<time>2022-05-26T14:21:53Z</time>
</trkpt>
<trkpt lat="47.950836" lon="11.108017">
<ele>514.568</ele>
<time>2022-05-26T14:21:54Z</time>
</trkpt>
<trkpt lat="47.950844" lon="11.108008">
<ele>514.568</ele>
<time>2022-05-26T14:21:55Z</time>
</trkpt>
<trkpt lat="47.950851" lon="11.108">
<ele>514.568</ele>
<time>2022-05-26T14:21:56Z</time>
</trkpt>
<trkpt lat="47.950855" lon="11.107993">
<ele>514.567</ele>
<time>2022-05-26T14:21:57Z</time>
</trkpt>
<trkpt lat="47.950867" lon="11.107987">
<ele>514.568</ele>
<time>2022-05-26T14:21:58Z</time>
</trkpt>
<trkpt lat="47.950874" lon="11.107973">
<ele>514.567</ele>
<time>2022-05-26T14:21:59Z</time>
</trkpt>
<trkpt lat="47.950886" lon="11.10796">
<ele>514.568</ele>
<time>2022-05-26T14:22:00Z</time>
</trkpt>
<trkpt lat="47.950893" lon="11.10795">
<ele>514.568</ele>
<time>2022-05-26T14:22:01Z</time>
</trkpt>
<trkpt lat="47.950897" lon="11.10794">
<ele>514.568</ele>
<time>2022-05-26T14:22:02Z</time>
</trkpt>
<trkpt lat="47.950909" lon="11.107933">
<ele>514.567</ele>
<time>2022-05-26T14:22:03Z</time>
</trkpt>
<trkpt lat="47.950916" lon="11.107926">
<ele>514.567</ele>
<time>2022-05-26T14:22:04Z</time>
</trkpt>
<trkpt lat="47.950928" lon="11.107919">
<ele>514.568</ele>
<time>2022-05-26T14:22:05Z</time>
</trkpt>
<trkpt lat="47.950932" lon="11.107908">
<ele>514.567</ele>
<time>2022-05-26T14:22:06Z</time>
</trkpt>
<trkpt lat="47.950935" lon="11.1079">
<ele>514.568</ele>
<time>2022-05-26T14:22:07Z</time>
</trkpt>
<trkpt lat="47.950939" lon="11.107893">
<ele>514.567</ele>
<time>2022-05-26T14:22:08Z</time>
</trkpt>
<trkpt lat="47.950943" lon="11.10789">
<ele>514.568</ele>
<time>2022-05-26T14:22:09Z</time>
</trkpt>
<trkpt lat="47.950951" lon="11.107872">
<ele>514.568</ele>
<time>2022-05-26T14:22:22Z</time>
</trkpt>
<trkpt lat="47.950958" lon="11.107862">
<ele>514.801</ele>
<time>2022-05-26T14:22:23Z</time>
</trkpt>
<trkpt lat="47.950966" lon="11.107853">
<ele>515.004</ele>
<time>2022-05-26T14:22:24Z</time>
</trkpt>
<trkpt lat="47.950966" lon="11.107847">
<ele>515.133</ele>
<time>2022-05-26T14:22:25Z</time>
</trkpt>
<trkpt lat="47.950966" lon="11.107843">
<ele>515.279</ele>
<time>2022-05-26T14:22:26Z</time>
</trkpt>
<trkpt lat="47.95097" lon="11.107839">
<ele>515.387</ele>
<time>2022-05-26T14:22:27Z</time>
</trkpt>
<trkpt lat="47.95097" lon="11.107841">
<ele>515.471</ele>
<time>2022-05-26T14:22:28Z</time>
</trkpt>
<trkpt lat="47.950993" lon="11.107828">
<ele>515.511</ele>
<time>2022-05-26T14:22:56Z</time>
</trkpt>
<trkpt lat="47.951" lon="11.107821">
<ele>515.523</ele>
<time>2022-05-26T14:22:57Z</time>
</trkpt>
<trkpt lat="47.951008" lon="11.107816">
<ele>515.523</ele>
<time>2022-05-26T14:22:58Z</time>
</trkpt>
<trkpt lat="47.951015" lon="11.107807">
<ele>515.523</ele>
<time>2022-05-26T14:22:59Z</time>
</trkpt>
<trkpt lat="47.951031" lon="11.107795">
<ele>515.523</ele>
<time>2022-05-26T14:23:00Z</time>
</trkpt>
<trkpt lat="47.95105" lon="11.107784">
<ele>515.523</ele>
<time>2022-05-26T14:23:01Z</time>
</trkpt>
<trkpt lat="47.951061" lon="11.10777">
<ele>515.523</ele>
<time>2022-05-26T14:23:02Z</time>
</trkpt>
<trkpt lat="47.951073" lon="11.107753">
<ele>515.523</ele>
<time>2022-05-26T14:23:03Z</time>
</trkpt>
<trkpt lat="47.951084" lon="11.10774">
<ele>515.523</ele>
<time>2022-05-26T14:23:04Z</time>
</trkpt>
<trkpt lat="47.951096" lon="11.107727">
<ele>515.523</ele>
<time>2022-05-26T14:23:05Z</time>
</trkpt>
<trkpt lat="47.951111" lon="11.107715">
<ele>515.523</ele>
<time>2022-05-26T14:23:06Z</time>
</trkpt>
<trkpt lat="47.951118" lon="11.107703">
<ele>515.523</ele>
<time>2022-05-26T14:23:07Z</time>
</trkpt>
<trkpt lat="47.951126" lon="11.107685">
<ele>515.523</ele>
<time>2022-05-26T14:23:08Z</time>
</trkpt>
<trkpt lat="47.951134" lon="11.107669">
<ele>515.523</ele>
<time>2022-05-26T14:23:09Z</time>
</trkpt>
<trkpt lat="47.951145" lon="11.107656">
<ele>515.523</ele>
<time>2022-05-26T14:23:10Z</time>
</trkpt>
<trkpt lat="47.951157" lon="11.107643">
<ele>515.523</ele>
<time>2022-05-26T14:23:11Z</time>
</trkpt>
<trkpt lat="47.951172" lon="11.107629">
<ele>515.523</ele>
<time>2022-05-26T14:23:12Z</time>
</trkpt>
<trkpt lat="47.951191" lon="11.107618">
<ele>515.523</ele>
<time>2022-05-26T14:23:13Z</time>
</trkpt>
<trkpt lat="47.951202" lon="11.107604">
<ele>515.523</ele>
<time>2022-05-26T14:23:14Z</time>
</trkpt>
<trkpt lat="47.951218" lon="11.107587">
<ele>515.22</ele>
<time>2022-05-26T14:23:15Z</time>
</trkpt>
<trkpt lat="47.951233" lon="11.107571">
<ele>515.013</ele>
<time>2022-05-26T14:23:16Z</time>
</trkpt>
<trkpt lat="47.951256" lon="11.107553">
<ele>514.848</ele>
<time>2022-05-26T14:23:17Z</time>
</trkpt>
<trkpt lat="47.951275" lon="11.107538">
<ele>514.735</ele>
<time>2022-05-26T14:23:18Z</time>
</trkpt>
<trkpt lat="47.95129" lon="11.107523">
<ele>514.666</ele>
<time>2022-05-26T14:23:19Z</time>
</trkpt>
<trkpt lat="47.951321" lon="11.1075">
<ele>514.623</ele>
<time>2022-05-26T14:23:20Z</time>
</trkpt>
<trkpt lat="47.951347" lon="11.107474">
<ele>514.587</ele>
<time>2022-05-26T14:23:21Z</time>
</trkpt>
<trkpt lat="47.951378" lon="11.107449">
<ele>514.567</ele>
<time>2022-05-26T14:23:22Z</time>
</trkpt>
<trkpt lat="47.951401" lon="11.107424">
<ele>514.567</ele>
<time>2022-05-26T14:23:23Z</time>
</trkpt>
<trkpt lat="47.951424" lon="11.107392">
<ele>514.568</ele>
<time>2022-05-26T14:23:24Z</time>
</trkpt>
<trkpt lat="47.95145" lon="11.107359">
<ele>514.568</ele>
<time>2022-05-26T14:23:25Z</time>
</trkpt>
<trkpt lat="47.951477" lon="11.107329">
<ele>514.568</ele>
<time>2022-05-26T14:23:26Z</time>
</trkpt>
<trkpt lat="47.951508" lon="11.107302">
<ele>514.567</ele>
<time>2022-05-26T14:23:27Z</time>
</trkpt>
<trkpt lat="47.951542" lon="11.107279">
<ele>514.568</ele>
<time>2022-05-26T14:23:28Z</time>
</trkpt>
<trkpt lat="47.951572" lon="11.107259">
<ele>514.568</ele>
<time>2022-05-26T14:23:29Z</time>
</trkpt>
<trkpt lat="47.951607" lon="11.107231">
<ele>514.568</ele>
<time>2022-05-26T14:23:30Z</time>
</trkpt>
<trkpt lat="47.951633" lon="11.107214">
<ele>514.568</ele>
<time>2022-05-26T14:23:31Z</time>
</trkpt>
<trkpt lat="47.951653" lon="11.107189">
<ele>514.568</ele>
<time>2022-05-26T14:23:32Z</time>
</trkpt>
<trkpt lat="47.951683" lon="11.10716">
<ele>514.568</ele>
<time>2022-05-26T14:23:33Z</time>
</trkpt>
<trkpt lat="47.951717" lon="11.107124">
<ele>514.567</ele>
<time>2022-05-26T14:23:34Z</time>
</trkpt>
<trkpt lat="47.951752" lon="11.107083">
<ele>514.568</ele>
<time>2022-05-26T14:23:35Z</time>
</trkpt>
<trkpt lat="47.951782" lon="11.10705">
<ele>514.568</ele>
<time>2022-05-26T14:23:36Z</time>
</trkpt>
<trkpt lat="47.951813" lon="11.107018">
<ele>514.567</ele>
<time>2022-05-26T14:23:37Z</time>
</trkpt>
<trkpt lat="47.951843" lon="11.106992">
<ele>514.568</ele>
<time>2022-05-26T14:23:38Z</time>
</trkpt>
<trkpt lat="47.951874" lon="11.10696">
<ele>514.567</ele>
<time>2022-05-26T14:23:39Z</time>
</trkpt>
<trkpt lat="47.951908" lon="11.106928">
<ele>514.568</ele>
<time>2022-05-26T14:23:40Z</time>
</trkpt>
<trkpt lat="47.951931" lon="11.106905">
<ele>514.568</ele>
<time>2022-05-26T14:23:41Z</time>
</trkpt>
<trkpt lat="47.951962" lon="11.106887">
<ele>514.567</ele>
<time>2022-05-26T14:23:42Z</time>
</trkpt>
<trkpt lat="47.952" lon="11.106863">
<ele>514.568</ele>
<time>2022-05-26T14:23:43Z</time>
</trkpt>
<trkpt lat="47.952034" lon="11.106843">
<ele>514.568</ele>
<time>2022-05-26T14:23:44Z</time>
</trkpt>
<trkpt lat="47.952061" lon="11.106813">
<ele>514.567</ele>
<time>2022-05-26T14:23:45Z</time>
</trkpt>
<trkpt lat="47.952091" lon="11.10678">
<ele>514.568</ele>
<time>2022-05-26T14:23:46Z</time>
</trkpt>
<trkpt lat="47.952129" lon="11.106747">
<ele>514.568</ele>
<time>2022-05-26T14:23:47Z</time>
</trkpt>
<trkpt lat="47.952171" lon="11.106713">
<ele>514.567</ele>
<time>2022-05-26T14:23:48Z</time>
</trkpt>
<trkpt lat="47.952198" lon="11.106685">
<ele>514.568</ele>
<time>2022-05-26T14:23:49Z</time>
</trkpt>
<trkpt lat="47.952229" lon="11.106659">
<ele>514.568</ele>
<time>2022-05-26T14:23:50Z</time>
</trkpt>
<trkpt lat="47.952259" lon="11.106635">
<ele>514.568</ele>
<time>2022-05-26T14:23:51Z</time>
</trkpt>
<trkpt lat="47.952282" lon="11.106615">
<ele>514.567</ele>
<time>2022-05-26T14:23:52Z</time>
</trkpt>
<trkpt lat="47.952305" lon="11.106598">
<ele>514.568</ele>
<time>2022-05-26T14:23:53Z</time>
</trkpt>
<trkpt lat="47.952332" lon="11.106577">
<ele>514.568</ele>
<time>2022-05-26T14:23:54Z</time>
</trkpt>
<trkpt lat="47.952354" lon="11.106553">
<ele>514.568</ele>
<time>2022-05-26T14:23:55Z</time>
</trkpt>
<trkpt lat="47.952381" lon="11.106525">
<ele>514.568</ele>
<time>2022-05-26T14:23:56Z</time>
</trkpt>
<trkpt lat="47.952412" lon="11.106496">
<ele>514.568</ele>
<time>2022-05-26T14:23:57Z</time>
</trkpt>
<trkpt lat="47.952438" lon="11.106475">
<ele>514.568</ele>
<time>2022-05-26T14:23:58Z</time>
</trkpt>
<trkpt lat="47.952465" lon="11.106448">
<ele>514.568</ele>
<time>2022-05-26T14:23:59Z</time>
</trkpt>
<trkpt lat="47.952488" lon="11.106423">
<ele>514.568</ele>
<time>2022-05-26T14:24:00Z</time>
</trkpt>
<trkpt lat="47.952518" lon="11.1064">
<ele>514.568</ele>
<time>2022-05-26T14:24:01Z</time>
</trkpt>
<trkpt lat="47.952553" lon="11.106368">
<ele>514.568</ele>
<time>2022-05-26T14:24:02Z</time>
</trkpt>
<trkpt lat="47.952591" lon="11.106332">
<ele>514.568</ele>
<time>2022-05-26T14:24:03Z</time>
</trkpt>
<trkpt lat="47.952625" lon="11.106295">
<ele>514.568</ele>
<time>2022-05-26T14:24:04Z</time>
</trkpt>
<trkpt lat="47.95266" lon="11.106261">
<ele>514.568</ele>
<time>2022-05-26T14:24:05Z</time>
</trkpt>
<trkpt lat="47.952682" lon="11.106232">
<ele>514.568</ele>
<time>2022-05-26T14:24:06Z</time>
</trkpt>
<trkpt lat="47.952702" lon="11.106203">
<ele>514.568</ele>
<time>2022-05-26T14:24:07Z</time>
</trkpt>
<trkpt lat="47.952724" lon="11.106177">
<ele>514.568</ele>
<time>2022-05-26T14:24:08Z</time>
</trkpt>
<trkpt lat="47.952744" lon="11.10615">
<ele>514.567</ele>
<time>2022-05-26T14:24:09Z</time>
</trkpt>
<trkpt lat="47.95277" lon="11.106127">
<ele>514.786</ele>
<time>2022-05-26T14:24:10Z</time>
</trkpt>
<trkpt lat="47.952805" lon="11.106093">
<ele>514.754</ele>
<time>2022-05-26T14:24:11Z</time>
</trkpt>
<trkpt lat="47.952839" lon="11.106056">
<ele>514.777</ele>
<time>2022-05-26T14:24:12Z</time>
</trkpt>
<trkpt lat="47.952881" lon="11.106013">
<ele>514.924</ele>
<time>2022-05-26T14:24:13Z</time>
</trkpt>
<trkpt lat="47.952919" lon="11.10597">
<ele>515.182</ele>
<time>2022-05-26T14:24:14Z</time>
</trkpt>
<trkpt lat="47.952953" lon="11.105918">
<ele>515.359</ele>
<time>2022-05-26T14:24:15Z</time>
</trkpt>
<trkpt lat="47.952995" lon="11.105877">
<ele>515.466</ele>
<time>2022-05-26T14:24:16Z</time>
</trkpt>
<trkpt lat="47.953033" lon="11.105844">
<ele>515.534</ele>
<time>2022-05-26T14:24:17Z</time>
</trkpt>
<trkpt lat="47.953068" lon="11.105808">
<ele>515.564</ele>
<time>2022-05-26T14:24:18Z</time>
</trkpt>
<trkpt lat="47.953106" lon="11.105766">
<ele>515.588</ele>
<time>2022-05-26T14:24:19Z</time>
</trkpt>
<trkpt lat="47.953144" lon="11.105733">
<ele>515.605</ele>
<time>2022-05-26T14:24:20Z</time>
</trkpt>
<trkpt lat="47.953178" lon="11.105693">
<ele>515.61</ele>
<time>2022-05-26T14:24:21Z</time>
</trkpt>
<trkpt lat="47.953209" lon="11.105654">
<ele>515.61</ele>
<time>2022-05-26T14:24:22Z</time>
</trkpt>
<trkpt lat="47.953247" lon="11.10562">
<ele>515.61</ele>
<time>2022-05-26T14:24:23Z</time>
</trkpt>
<trkpt lat="47.953274" lon="11.105583">
<ele>515.61</ele>
<time>2022-05-26T14:24:24Z</time>
</trkpt>
<trkpt lat="47.953304" lon="11.105555">
<ele>515.61</ele>
<time>2022-05-26T14:24:25Z</time>
</trkpt>
<trkpt lat="47.953327" lon="11.105525">
<ele>515.61</ele>
<time>2022-05-26T14:24:26Z</time>
</trkpt>
<trkpt lat="47.953354" lon="11.1055">
<ele>515.61</ele>
<time>2022-05-26T14:24:27Z</time>
</trkpt>
<trkpt lat="47.953396" lon="11.105467">
<ele>515.61</ele>
<time>2022-05-26T14:24:28Z</time>
</trkpt>
<trkpt lat="47.953442" lon="11.105436">
<ele>515.61</ele>
<time>2022-05-26T14:24:29Z</time>
</trkpt>
<trkpt lat="47.953476" lon="11.105413">
<ele>515.61</ele>
<time>2022-05-26T14:24:30Z</time>
</trkpt>
<trkpt lat="47.95351" lon="11.105385">
<ele>515.61</ele>
<time>2022-05-26T14:24:31Z</time>
</trkpt>
<trkpt lat="47.953545" lon="11.105364">
<ele>515.61</ele>
<time>2022-05-26T14:24:32Z</time>
</trkpt>
<trkpt lat="47.953583" lon="11.105335">
<ele>515.61</ele>
<time>2022-05-26T14:24:33Z</time>
</trkpt>
<trkpt lat="47.953617" lon="11.105307">
<ele>515.61</ele>
<time>2022-05-26T14:24:34Z</time>
</trkpt>
<trkpt lat="47.953651" lon="11.105282">
<ele>515.61</ele>
<time>2022-05-26T14:24:35Z</time>
</trkpt>
<trkpt lat="47.953682" lon="11.105255">
<ele>515.61</ele>
<time>2022-05-26T14:24:36Z</time>
</trkpt>
<trkpt lat="47.953705" lon="11.105218">
<ele>515.61</ele>
<time>2022-05-26T14:24:37Z</time>
</trkpt>
<trkpt lat="47.953735" lon="11.105192">
<ele>515.61</ele>
<time>2022-05-26T14:24:38Z</time>
</trkpt>
<trkpt lat="47.953766" lon="11.105167">
<ele>515.61</ele>
<time>2022-05-26T14:24:39Z</time>
</trkpt>
<trkpt lat="47.953796" lon="11.105138">
<ele>515.61</ele>
<time>2022-05-26T14:24:40Z</time>
</trkpt>
<trkpt lat="47.953835" lon="11.105119">
<ele>515.61</ele>
<time>2022-05-26T14:24:41Z</time>
</trkpt>
<trkpt lat="47.953861" lon="11.10508">
<ele>515.61</ele>
<time>2022-05-26T14:24:42Z</time>
</trkpt>
<trkpt lat="47.953892" lon="11.105042">
<ele>515.61</ele>
<time>2022-05-26T14:24:43Z</time>
</trkpt>
<trkpt lat="47.95393" lon="11.105023">
<ele>515.61</ele>
<time>2022-05-26T14:24:44Z</time>
</trkpt>
<trkpt lat="47.953964" lon="11.105001">
<ele>515.899</ele>
<time>2022-05-26T14:24:45Z</time>
</trkpt>
<trkpt lat="47.953995" lon="11.10497">
<ele>516.109</ele>
<time>2022-05-26T14:24:46Z</time>
</trkpt>
<trkpt lat="47.954029" lon="11.104939">
<ele>516.271</ele>
<time>2022-05-26T14:24:47Z</time>
</trkpt>
<trkpt lat="47.954063" lon="11.104907">
<ele>516.386</ele>
<time>2022-05-26T14:24:48Z</time>
</trkpt>
<trkpt lat="47.954098" lon="11.104877">
<ele>516.468</ele>
<time>2022-05-26T14:24:49Z</time>
</trkpt>
<trkpt lat="47.954136" lon="11.10485">
<ele>516.52</ele>
<time>2022-05-26T14:24:50Z</time>
</trkpt>
<trkpt lat="47.95417" lon="11.10483">
<ele>516.544</ele>
<time>2022-05-26T14:24:51Z</time>
</trkpt>
<trkpt lat="47.954205" lon="11.104814">
<ele>516.566</ele>
<time>2022-05-26T14:24:52Z</time>
</trkpt>
<trkpt lat="47.954239" lon="11.104798">
<ele>516.566</ele>
<time>2022-05-26T14:24:53Z</time>
</trkpt>
<trkpt lat="47.954277" lon="11.104775">
<ele>516.566</ele>
<time>2022-05-26T14:24:54Z</time>
</trkpt>
<trkpt lat="47.954319" lon="11.104754">
<ele>516.566</ele>
<time>2022-05-26T14:24:55Z</time>
</trkpt>
<trkpt lat="47.954369" lon="11.104736">
<ele>516.566</ele>
<time>2022-05-26T14:24:56Z</time>
</trkpt>
<trkpt lat="47.954414" lon="11.104717">
<ele>516.566</ele>
<time>2022-05-26T14:24:57Z</time>
</trkpt>
<trkpt lat="47.954453" lon="11.104695">
<ele>516.566</ele>
<time>2022-05-26T14:24:58Z</time>
</trkpt>
<trkpt lat="47.954491" lon="11.104682">
<ele>516.566</ele>
<time>2022-05-26T14:24:59Z</time>
</trkpt>
<trkpt lat="47.954544" lon="11.10466">
<ele>516.566</ele>
<time>2022-05-26T14:25:00Z</time>
</trkpt>
<trkpt lat="47.954582" lon="11.104638">
<ele>516.566</ele>
<time>2022-05-26T14:25:01Z</time>
</trkpt>
<trkpt lat="47.95462" lon="11.104613">
<ele>516.566</ele>
<time>2022-05-26T14:25:02Z</time>
</trkpt>
<trkpt lat="47.954659" lon="11.104585">
<ele>516.566</ele>
<time>2022-05-26T14:25:03Z</time>
</trkpt>
<trkpt lat="47.954708" lon="11.104568">
<ele>516.566</ele>
<time>2022-05-26T14:25:04Z</time>
</trkpt>
<trkpt lat="47.954758" lon="11.104562">
<ele>516.566</ele>
<time>2022-05-26T14:25:05Z</time>
</trkpt>
<trkpt lat="47.954807" lon="11.104558">
<ele>516.816</ele>
<time>2022-05-26T14:25:06Z</time>
</trkpt>
<trkpt lat="47.954857" lon="11.104556">
<ele>517.007</ele>
<time>2022-05-26T14:25:07Z</time>
</trkpt>
<trkpt lat="47.954906" lon="11.104556">
<ele>517.119</ele>
<time>2022-05-26T14:25:08Z</time>
</trkpt>
<trkpt lat="47.954945" lon="11.104558">
<ele>517.493</ele>
<time>2022-05-26T14:25:09Z</time>
</trkpt>
<trkpt lat="47.954983" lon="11.104556">
<ele>517.766</ele>
<time>2022-05-26T14:25:10Z</time>
</trkpt>
<trkpt lat="47.955025" lon="11.104553">
<ele>517.954</ele>
<time>2022-05-26T14:25:11Z</time>
</trkpt>
<trkpt lat="47.955059" lon="11.104545">
<ele>518.092</ele>
<time>2022-05-26T14:25:12Z</time>
</trkpt>
<trkpt lat="47.955097" lon="11.10454">
<ele>518.224</ele>
<time>2022-05-26T14:25:13Z</time>
</trkpt>
<trkpt lat="47.955135" lon="11.104535">
<ele>518.307</ele>
<time>2022-05-26T14:25:14Z</time>
</trkpt>
<trkpt lat="47.955173" lon="11.104527">
<ele>518.362</ele>
<time>2022-05-26T14:25:15Z</time>
</trkpt>
<trkpt lat="47.955212" lon="11.104518">
<ele>518.391</ele>
<time>2022-05-26T14:25:16Z</time>
</trkpt>
<trkpt lat="47.955246" lon="11.104513">
<ele>518.391</ele>
<time>2022-05-26T14:25:17Z</time>
</trkpt>
<trkpt lat="47.955276" lon="11.104508">
<ele>518.391</ele>
<time>2022-05-26T14:25:18Z</time>
</trkpt>
<trkpt lat="47.955315" lon="11.104502">
<ele>518.391</ele>
<time>2022-05-26T14:25:19Z</time>
</trkpt>
<trkpt lat="47.955345" lon="11.104499">
<ele>518.391</ele>
<time>2022-05-26T14:25:20Z</time>
</trkpt>
<trkpt lat="47.955376" lon="11.1045">
<ele>518.391</ele>
<time>2022-05-26T14:25:21Z</time>
</trkpt>
<trkpt lat="47.955406" lon="11.1045">
<ele>518.391</ele>
<time>2022-05-26T14:25:22Z</time>
</trkpt>
<trkpt lat="47.955444" lon="11.104499">
<ele>518.391</ele>
<time>2022-05-26T14:25:23Z</time>
</trkpt>
<trkpt lat="47.955479" lon="11.104506">
<ele>518.391</ele>
<time>2022-05-26T14:25:24Z</time>
</trkpt>
<trkpt lat="47.955517" lon="11.104516">
<ele>518.391</ele>
<time>2022-05-26T14:25:25Z</time>
</trkpt>
<trkpt lat="47.955551" lon="11.104535">
<ele>518.391</ele>
<time>2022-05-26T14:25:26Z</time>
</trkpt>
<trkpt lat="47.955582" lon="11.104556">
<ele>518.391</ele>
<time>2022-05-26T14:25:27Z</time>
</trkpt>
<trkpt lat="47.955608" lon="11.10458">
<ele>518.158</ele>
<time>2022-05-26T14:25:28Z</time>
</trkpt>
<trkpt lat="47.955643" lon="11.104604">
<ele>517.979</ele>
<time>2022-05-26T14:25:29Z</time>
</trkpt>
<trkpt lat="47.955673" lon="11.104625">
<ele>517.846</ele>
<time>2022-05-26T14:25:30Z</time>
</trkpt>
<trkpt lat="47.955704" lon="11.104648">
<ele>517.744</ele>
<time>2022-05-26T14:25:31Z</time>
</trkpt>
<trkpt lat="47.955742" lon="11.104677">
<ele>517.672</ele>
<time>2022-05-26T14:25:32Z</time>
</trkpt>
<trkpt lat="47.955776" lon="11.104702">
<ele>517.598</ele>
<time>2022-05-26T14:25:33Z</time>
</trkpt>
<trkpt lat="47.955818" lon="11.104728">
<ele>517.303</ele>
<time>2022-05-26T14:25:34Z</time>
</trkpt>
<trkpt lat="47.955864" lon="11.104747">
<ele>517.071</ele>
<time>2022-05-26T14:25:35Z</time>
</trkpt>
<trkpt lat="47.955914" lon="11.104763">
<ele>516.828</ele>
<time>2022-05-26T14:25:36Z</time>
</trkpt>
<trkpt lat="47.955952" lon="11.10478">
<ele>516.713</ele>
<time>2022-05-26T14:25:37Z</time>
</trkpt>
<trkpt lat="47.955986" lon="11.104805">
<ele>516.634</ele>
<time>2022-05-26T14:25:38Z</time>
</trkpt>
<trkpt lat="47.956032" lon="11.104835">
<ele>516.589</ele>
<time>2022-05-26T14:25:39Z</time>
</trkpt>
<trkpt lat="47.956078" lon="11.104872">
<ele>516.307</ele>
<time>2022-05-26T14:25:40Z</time>
</trkpt>
<trkpt lat="47.956116" lon="11.10491">
<ele>516.091</ele>
<time>2022-05-26T14:25:41Z</time>
</trkpt>
<trkpt lat="47.956158" lon="11.104954">
<ele>515.958</ele>
<time>2022-05-26T14:25:42Z</time>
</trkpt>
<trkpt lat="47.956203" lon="11.104998">
<ele>515.803</ele>
<time>2022-05-26T14:25:43Z</time>
</trkpt>
<trkpt lat="47.956245" lon="11.105043">
<ele>515.681</ele>
<time>2022-05-26T14:25:44Z</time>
</trkpt>
<trkpt lat="47.956295" lon="11.105078">
<ele>515.594</ele>
<time>2022-05-26T14:25:45Z</time>
</trkpt>
<trkpt lat="47.956337" lon="11.105122">
<ele>515.545</ele>
<time>2022-05-26T14:25:46Z</time>
</trkpt>
<trkpt lat="47.956383" lon="11.105171">
<ele>515.523</ele>
<time>2022-05-26T14:25:47Z</time>
</trkpt>
<trkpt lat="47.956436" lon="11.105227">
<ele>515.523</ele>
<time>2022-05-26T14:25:48Z</time>
</trkpt>
<trkpt lat="47.956474" lon="11.105274">
<ele>515.523</ele>
<time>2022-05-26T14:25:49Z</time>
</trkpt>
<trkpt lat="47.956524" lon="11.105318">
<ele>515.523</ele>
<time>2022-05-26T14:25:50Z</time>
</trkpt>
<trkpt lat="47.95657" lon="11.105365">
<ele>515.523</ele>
<time>2022-05-26T14:25:51Z</time>
</trkpt>
<trkpt lat="47.956612" lon="11.105409">
<ele>515.523</ele>
<time>2022-05-26T14:25:52Z</time>
</trkpt>
<trkpt lat="47.95665" lon="11.105452">
<ele>515.523</ele>
<time>2022-05-26T14:25:53Z</time>
</trkpt>
<trkpt lat="47.956692" lon="11.1055">
<ele>515.523</ele>
<time>2022-05-26T14:25:54Z</time>
</trkpt>
<trkpt lat="47.956734" lon="11.105549">
<ele>515.523</ele>
<time>2022-05-26T14:25:55Z</time>
</trkpt>
<trkpt lat="47.956772" lon="11.105592">
<ele>515.523</ele>
<time>2022-05-26T14:25:56Z</time>
</trkpt>
<trkpt lat="47.956814" lon="11.105639">
<ele>515.523</ele>
<time>2022-05-26T14:25:57Z</time>
</trkpt>
<trkpt lat="47.95686" lon="11.105683">
<ele>515.523</ele>
<time>2022-05-26T14:25:58Z</time>
</trkpt>
<trkpt lat="47.956913" lon="11.105735">
<ele>515.523</ele>
<time>2022-05-26T14:25:59Z</time>
</trkpt>
<trkpt lat="47.956963" lon="11.10579">
<ele>515.523</ele>
<time>2022-05-26T14:26:00Z</time>
</trkpt>
<trkpt lat="47.957005" lon="11.105844">
<ele>515.523</ele>
<time>2022-05-26T14:26:01Z</time>
</trkpt>
<trkpt lat="47.957054" lon="11.105893">
<ele>515.523</ele>
<time>2022-05-26T14:26:02Z</time>
</trkpt>
<trkpt lat="47.9571" lon="11.105948">
<ele>515.523</ele>
<time>2022-05-26T14:26:03Z</time>
</trkpt>
<trkpt lat="47.957153" lon="11.106004">
<ele>515.523</ele>
<time>2022-05-26T14:26:04Z</time>
</trkpt>
<trkpt lat="47.957203" lon="11.106056">
<ele>515.523</ele>
<time>2022-05-26T14:26:05Z</time>
</trkpt>
<trkpt lat="47.957249" lon="11.106111">
<ele>515.523</ele>
<time>2022-05-26T14:26:06Z</time>
</trkpt>
<trkpt lat="47.957294" lon="11.106158">
<ele>515.523</ele>
<time>2022-05-26T14:26:07Z</time>
</trkpt>
<trkpt lat="47.957344" lon="11.106205">
<ele>515.523</ele>
<time>2022-05-26T14:26:08Z</time>
</trkpt>
<trkpt lat="47.957386" lon="11.106249">
<ele>515.523</ele>
<time>2022-05-26T14:26:09Z</time>
</trkpt>
<trkpt lat="47.957428" lon="11.106295">
<ele>515.523</ele>
<time>2022-05-26T14:26:10Z</time>
</trkpt>
<trkpt lat="47.95747" lon="11.106341">
<ele>515.523</ele>
<time>2022-05-26T14:26:11Z</time>
</trkpt>
<trkpt lat="47.957508" lon="11.106389">
<ele>515.523</ele>
<time>2022-05-26T14:26:12Z</time>
</trkpt>
<trkpt lat="47.957546" lon="11.106431">
<ele>515.523</ele>
<time>2022-05-26T14:26:13Z</time>
</trkpt>
<trkpt lat="47.957581" lon="11.106477">
<ele>515.523</ele>
<time>2022-05-26T14:26:14Z</time>
</trkpt>
<trkpt lat="47.957619" lon="11.106521">
<ele>515.523</ele>
<time>2022-05-26T14:26:15Z</time>
</trkpt>
<trkpt lat="47.957657" lon="11.106559">
<ele>515.523</ele>
<time>2022-05-26T14:26:16Z</time>
</trkpt>
<trkpt lat="47.957691" lon="11.1066">
<ele>515.523</ele>
<time>2022-05-26T14:26:17Z</time>
</trkpt>
<trkpt lat="47.957718" lon="11.106638">
<ele>515.523</ele>
<time>2022-05-26T14:26:18Z</time>
</trkpt>
<trkpt lat="47.957745" lon="11.106673">
<ele>515.523</ele>
<time>2022-05-26T14:26:19Z</time>
</trkpt>
<trkpt lat="47.957775" lon="11.106707">
<ele>515.523</ele>
<time>2022-05-26T14:26:20Z</time>
</trkpt>
<trkpt lat="47.957798" lon="11.10673">
<ele>515.523</ele>
<time>2022-05-26T14:26:21Z</time>
</trkpt>
<trkpt lat="47.957809" lon="11.106745">
<ele>515.523</ele>
<time>2022-05-26T14:26:22Z</time>
</trkpt>
<trkpt lat="47.957825" lon="11.10676">
<ele>515.523</ele>
<time>2022-05-26T14:26:23Z</time>
</trkpt>
<trkpt lat="47.957836" lon="11.106771">
<ele>515.523</ele>
<time>2022-05-26T14:26:24Z</time>
</trkpt>
<trkpt lat="47.957848" lon="11.106785">
<ele>515.523</ele>
<time>2022-05-26T14:26:25Z</time>
</trkpt>
<trkpt lat="47.957863" lon="11.106798">
<ele>515.523</ele>
<time>2022-05-26T14:26:26Z</time>
</trkpt>
<trkpt lat="47.957878" lon="11.10681">
<ele>515.523</ele>
<time>2022-05-26T14:26:27Z</time>
</trkpt>
<trkpt lat="47.957897" lon="11.106816">
<ele>515.523</ele>
<time>2022-05-26T14:26:28Z</time>
</trkpt>
<trkpt lat="47.957924" lon="11.106833">
<ele>515.523</ele>
<time>2022-05-26T14:26:29Z</time>
</trkpt>
<trkpt lat="47.957951" lon="11.106856">
<ele>515.523</ele>
<time>2022-05-26T14:26:30Z</time>
</trkpt>
<trkpt lat="47.957981" lon="11.10689">
<ele>515.523</ele>
<time>2022-05-26T14:26:31Z</time>
</trkpt>
<trkpt lat="47.958012" lon="11.106925">
<ele>515.523</ele>
<time>2022-05-26T14:26:32Z</time>
</trkpt>
<trkpt lat="47.958038" lon="11.106963">
<ele>515.523</ele>
<time>2022-05-26T14:26:33Z</time>
</trkpt>
<trkpt lat="47.958073" lon="11.106998">
<ele>515.523</ele>
<time>2022-05-26T14:26:34Z</time>
</trkpt>
<trkpt lat="47.958107" lon="11.107032">
<ele>515.523</ele>
<time>2022-05-26T14:26:35Z</time>
</trkpt>
<trkpt lat="47.958138" lon="11.107067">
<ele>515.523</ele>
<time>2022-05-26T14:26:36Z</time>
</trkpt>
<trkpt lat="47.958176" lon="11.1071">
<ele>515.523</ele>
<time>2022-05-26T14:26:37Z</time>
</trkpt>
<trkpt lat="47.95821" lon="11.107133">
<ele>515.523</ele>
<time>2022-05-26T14:26:38Z</time>
</trkpt>
<trkpt lat="47.958244" lon="11.107162">
<ele>515.523</ele>
<time>2022-05-26T14:26:39Z</time>
</trkpt>
<trkpt lat="47.958275" lon="11.107189">
<ele>515.523</ele>
<time>2022-05-26T14:26:40Z</time>
</trkpt>
<trkpt lat="47.958309" lon="11.107215">
<ele>515.523</ele>
<time>2022-05-26T14:26:41Z</time>
</trkpt>
<trkpt lat="47.958336" lon="11.10724">
<ele>515.523</ele>
<time>2022-05-26T14:26:42Z</time>
</trkpt>
<trkpt lat="47.958366" lon="11.107268">
<ele>515.523</ele>
<time>2022-05-26T14:26:43Z</time>
</trkpt>
<trkpt lat="47.958389" lon="11.1073">
<ele>515.523</ele>
<time>2022-05-26T14:26:44Z</time>
</trkpt>
<trkpt lat="47.958408" lon="11.107335">
<ele>515.523</ele>
<time>2022-05-26T14:26:45Z</time>
</trkpt>
<trkpt lat="47.95842" lon="11.107368">
<ele>515.523</ele>
<time>2022-05-26T14:26:46Z</time>
</trkpt>
<trkpt lat="47.958431" lon="11.107405">
<ele>515.523</ele>
<time>2022-05-26T14:26:47Z</time>
</trkpt>
<trkpt lat="47.958447" lon="11.107443">
<ele>515.523</ele>
<time>2022-05-26T14:26:48Z</time>
</trkpt>
<trkpt lat="47.958458" lon="11.107474">
<ele>515.523</ele>
<time>2022-05-26T14:26:49Z</time>
</trkpt>
<trkpt lat="47.958469" lon="11.107508">
<ele>515.523</ele>
<time>2022-05-26T14:26:50Z</time>
</trkpt>
<trkpt lat="47.958481" lon="11.107541">
<ele>515.523</ele>
<time>2022-05-26T14:26:51Z</time>
</trkpt>
<trkpt lat="47.958496" lon="11.107573">
<ele>515.523</ele>
<time>2022-05-26T14:26:52Z</time>
</trkpt>
<trkpt lat="47.958504" lon="11.1076">
<ele>515.523</ele>
<time>2022-05-26T14:26:53Z</time>
</trkpt>
<trkpt lat="47.958519" lon="11.107629">
<ele>515.523</ele>
<time>2022-05-26T14:26:54Z</time>
</trkpt>
<trkpt lat="47.958527" lon="11.107655">
<ele>515.523</ele>
<time>2022-05-26T14:26:55Z</time>
</trkpt>
<trkpt lat="47.958542" lon="11.107679">
<ele>515.523</ele>
<time>2022-05-26T14:26:56Z</time>
</trkpt>
<trkpt lat="47.958557" lon="11.107707">
<ele>515.523</ele>
<time>2022-05-26T14:26:57Z</time>
</trkpt>
<trkpt lat="47.958572" lon="11.10773">
<ele>515.523</ele>
<time>2022-05-26T14:26:58Z</time>
</trkpt>
<trkpt lat="47.958584" lon="11.107752">
<ele>515.523</ele>
<time>2022-05-26T14:26:59Z</time>
</trkpt>
<trkpt lat="47.958591" lon="11.107768">
<ele>515.523</ele>
<time>2022-05-26T14:27:00Z</time>
</trkpt>
<trkpt lat="47.958607" lon="11.107783">
<ele>515.523</ele>
<time>2022-05-26T14:27:01Z</time>
</trkpt>
<trkpt lat="47.958622" lon="11.107797">
<ele>515.523</ele>
<time>2022-05-26T14:27:02Z</time>
</trkpt>
<trkpt lat="47.95863" lon="11.107814">
<ele>515.523</ele>
<time>2022-05-26T14:27:03Z</time>
</trkpt>
<trkpt lat="47.958649" lon="11.107832">
<ele>515.523</ele>
<time>2022-05-26T14:27:04Z</time>
</trkpt>
<trkpt lat="47.958668" lon="11.107845">
<ele>515.523</ele>
<time>2022-05-26T14:27:05Z</time>
</trkpt>
<trkpt lat="47.958687" lon="11.107853">
<ele>515.523</ele>
<time>2022-05-26T14:27:06Z</time>
</trkpt>
<trkpt lat="47.958714" lon="11.107868">
<ele>515.523</ele>
<time>2022-05-26T14:27:07Z</time>
</trkpt>
<trkpt lat="47.958755" lon="11.10789">
<ele>515.523</ele>
<time>2022-05-26T14:27:08Z</time>
</trkpt>
<trkpt lat="47.958797" lon="11.107917">
<ele>515.523</ele>
<time>2022-05-26T14:27:09Z</time>
</trkpt>
<trkpt lat="47.958847" lon="11.107942">
<ele>515.523</ele>
<time>2022-05-26T14:27:10Z</time>
</trkpt>
<trkpt lat="47.958893" lon="11.107966">
<ele>515.523</ele>
<time>2022-05-26T14:27:11Z</time>
</trkpt>
<trkpt lat="47.958954" lon="11.107998">
<ele>515.523</ele>
<time>2022-05-26T14:27:12Z</time>
</trkpt>
<trkpt lat="47.959019" lon="11.10804">
<ele>515.523</ele>
<time>2022-05-26T14:27:13Z</time>
</trkpt>
<trkpt lat="47.959084" lon="11.108088">
<ele>515.523</ele>
<time>2022-05-26T14:27:14Z</time>
</trkpt>
<trkpt lat="47.959145" lon="11.108131">
<ele>515.523</ele>
<time>2022-05-26T14:27:15Z</time>
</trkpt>
<trkpt lat="47.959202" lon="11.108173">
<ele>515.523</ele>
<time>2022-05-26T14:27:16Z</time>
</trkpt>
<trkpt lat="47.959251" lon="11.108208">
<ele>515.523</ele>
<time>2022-05-26T14:27:17Z</time>
</trkpt>
<trkpt lat="47.959305" lon="11.10824">
<ele>515.523</ele>
<time>2022-05-26T14:27:18Z</time>
</trkpt>
<trkpt lat="47.959358" lon="11.108268">
<ele>515.523</ele>
<time>2022-05-26T14:27:19Z</time>
</trkpt>
<trkpt lat="47.959408" lon="11.108297">
<ele>515.523</ele>
<time>2022-05-26T14:27:20Z</time>
</trkpt>
<trkpt lat="47.959465" lon="11.108325">
<ele>515.523</ele>
<time>2022-05-26T14:27:21Z</time>
</trkpt>
<trkpt lat="47.959518" lon="11.108352">
<ele>515.523</ele>
<time>2022-05-26T14:27:22Z</time>
</trkpt>
<trkpt lat="47.959572" lon="11.108377">
<ele>515.523</ele>
<time>2022-05-26T14:27:23Z</time>
</trkpt>
<trkpt lat="47.959621" lon="11.108407">
<ele>515.523</ele>
<time>2022-05-26T14:27:24Z</time>
</trkpt>
<trkpt lat="47.959667" lon="11.10844">
<ele>515.523</ele>
<time>2022-05-26T14:27:25Z</time>
</trkpt>
<trkpt lat="47.959717" lon="11.108474">
<ele>515.523</ele>
<time>2022-05-26T14:27:26Z</time>
</trkpt>
<trkpt lat="47.959763" lon="11.108505">
<ele>515.523</ele>
<time>2022-05-26T14:27:27Z</time>
</trkpt>
<trkpt lat="47.959805" lon="11.108539">
<ele>515.523</ele>
<time>2022-05-26T14:27:28Z</time>
</trkpt>
<trkpt lat="47.959846" lon="11.108575">
<ele>515.523</ele>
<time>2022-05-26T14:27:29Z</time>
</trkpt>
<trkpt lat="47.959885" lon="11.108615">
<ele>515.523</ele>
<time>2022-05-26T14:27:30Z</time>
</trkpt>
<trkpt lat="47.959927" lon="11.108653">
<ele>515.256</ele>
<time>2022-05-26T14:27:31Z</time>
</trkpt>
<trkpt lat="47.959972" lon="11.108686">
<ele>515.063</ele>
<time>2022-05-26T14:27:32Z</time>
</trkpt>
<trkpt lat="47.960026" lon="11.108717">
<ele>515.112</ele>
<time>2022-05-26T14:27:33Z</time>
</trkpt>
<trkpt lat="47.960072" lon="11.108742">
<ele>515.162</ele>
<time>2022-05-26T14:27:34Z</time>
</trkpt>
<trkpt lat="47.960125" lon="11.108763">
<ele>515.214</ele>
<time>2022-05-26T14:27:35Z</time>
</trkpt>
<trkpt lat="47.960178" lon="11.108787">
<ele>515.266</ele>
<time>2022-05-26T14:27:36Z</time>
</trkpt>
<trkpt lat="47.960236" lon="11.108805">
<ele>515.318</ele>
<time>2022-05-26T14:27:37Z</time>
</trkpt>
<trkpt lat="47.960289" lon="11.108817">
<ele>515.367</ele>
<time>2022-05-26T14:27:38Z</time>
</trkpt>
<trkpt lat="47.96035" lon="11.108831">
<ele>515.408</ele>
<time>2022-05-26T14:27:39Z</time>
</trkpt>
<trkpt lat="47.960407" lon="11.108845">
<ele>515.432</ele>
<time>2022-05-26T14:27:40Z</time>
</trkpt>
<trkpt lat="47.960464" lon="11.10885">
<ele>515.436</ele>
<time>2022-05-26T14:27:41Z</time>
</trkpt>
<trkpt lat="47.960518" lon="11.108853">
<ele>515.436</ele>
<time>2022-05-26T14:27:42Z</time>
</trkpt>
<trkpt lat="47.960567" lon="11.108861">
<ele>515.436</ele>
<time>2022-05-26T14:27:43Z</time>
</trkpt>
<trkpt lat="47.960613" lon="11.108873">
<ele>515.436</ele>
<time>2022-05-26T14:27:44Z</time>
</trkpt>
<trkpt lat="47.960651" lon="11.108893">
<ele>515.436</ele>
<time>2022-05-26T14:27:45Z</time>
</trkpt>
<trkpt lat="47.960693" lon="11.108912">
<ele>515.436</ele>
<time>2022-05-26T14:27:46Z</time>
</trkpt>
<trkpt lat="47.960739" lon="11.108927">
<ele>515.436</ele>
<time>2022-05-26T14:27:47Z</time>
</trkpt>
<trkpt lat="47.960777" lon="11.108933">
<ele>515.436</ele>
<time>2022-05-26T14:27:48Z</time>
</trkpt>
<trkpt lat="47.960819" lon="11.10893">
<ele>515.436</ele>
<time>2022-05-26T14:27:49Z</time>
</trkpt>
<trkpt lat="47.960857" lon="11.108929">
<ele>515.436</ele>
<time>2022-05-26T14:27:50Z</time>
</trkpt>
<trkpt lat="47.960892" lon="11.108932">
<ele>515.436</ele>
<time>2022-05-26T14:27:51Z</time>
</trkpt>
<trkpt lat="47.960934" lon="11.108934">
<ele>515.436</ele>
<time>2022-05-26T14:27:52Z</time>
</trkpt>
<trkpt lat="47.960968" lon="11.108936">
<ele>515.436</ele>
<time>2022-05-26T14:27:53Z</time>
</trkpt>
<trkpt lat="47.961006" lon="11.108936">
<ele>515.436</ele>
<time>2022-05-26T14:27:54Z</time>
</trkpt>
<trkpt lat="47.96104" lon="11.108932">
<ele>515.436</ele>
<time>2022-05-26T14:27:55Z</time>
</trkpt>
<trkpt lat="47.961075" lon="11.108927">
<ele>515.436</ele>
<time>2022-05-26T14:27:56Z</time>
</trkpt>
<trkpt lat="47.961109" lon="11.108918">
<ele>515.436</ele>
<time>2022-05-26T14:27:57Z</time>
</trkpt>
<trkpt lat="47.96114" lon="11.108913">
<ele>515.436</ele>
<time>2022-05-26T14:27:58Z</time>
</trkpt>
<trkpt lat="47.96117" lon="11.108912">
<ele>515.436</ele>
<time>2022-05-26T14:27:59Z</time>
</trkpt>
<trkpt lat="47.961201" lon="11.10891">
<ele>515.436</ele>
<time>2022-05-26T14:28:00Z</time>
</trkpt>
<trkpt lat="47.961231" lon="11.108909">
<ele>515.436</ele>
<time>2022-05-26T14:28:01Z</time>
</trkpt>
<trkpt lat="47.961254" lon="11.108912">
<ele>515.436</ele>
<time>2022-05-26T14:28:02Z</time>
</trkpt>
<trkpt lat="47.961273" lon="11.108918">
<ele>515.436</ele>
<time>2022-05-26T14:28:03Z</time>
</trkpt>
<trkpt lat="47.961292" lon="11.108922">
<ele>515.436</ele>
<time>2022-05-26T14:28:04Z</time>
</trkpt>
<trkpt lat="47.961304" lon="11.108924">
<ele>515.194</ele>
<time>2022-05-26T14:28:05Z</time>
</trkpt>
<trkpt lat="47.961311" lon="11.108922">
<ele>514.996</ele>
<time>2022-05-26T14:28:06Z</time>
</trkpt>
<trkpt lat="47.961315" lon="11.108924">
<ele>514.843</ele>
<time>2022-05-26T14:28:07Z</time>
</trkpt>
<trkpt lat="47.961315" lon="11.108927">
<ele>514.726</ele>
<time>2022-05-26T14:28:08Z</time>
</trkpt>
<trkpt lat="47.961319" lon="11.108927">
<ele>514.626</ele>
<time>2022-05-26T14:28:09Z</time>
</trkpt>
<trkpt lat="47.96133" lon="11.108927">
<ele>514.555</ele>
<time>2022-05-26T14:28:11Z</time>
</trkpt>
<trkpt lat="47.961334" lon="11.108917">
<ele>514.52</ele>
<time>2022-05-26T14:28:12Z</time>
</trkpt>
<trkpt lat="47.961346" lon="11.108909">
<ele>514.481</ele>
<time>2022-05-26T14:28:13Z</time>
</trkpt>
<trkpt lat="47.961357" lon="11.108894">
<ele>514.481</ele>
<time>2022-05-26T14:28:14Z</time>
</trkpt>
<trkpt lat="47.961369" lon="11.108868">
<ele>514.481</ele>
<time>2022-05-26T14:28:15Z</time>
</trkpt>
<trkpt lat="47.96138" lon="11.108835">
<ele>514.481</ele>
<time>2022-05-26T14:28:16Z</time>
</trkpt>
<trkpt lat="47.96138" lon="11.10878">
<ele>514.907</ele>
<time>2022-05-26T14:28:17Z</time>
</trkpt>
<trkpt lat="47.961376" lon="11.108713">
<ele>515.12</ele>
<time>2022-05-26T14:28:18Z</time>
</trkpt>
<trkpt lat="47.961372" lon="11.108653">
<ele>515.229</ele>
<time>2022-05-26T14:28:19Z</time>
</trkpt>
<trkpt lat="47.96138" lon="11.1086">
<ele>515.317</ele>
<time>2022-05-26T14:28:20Z</time>
</trkpt>
<trkpt lat="47.961388" lon="11.108548">
<ele>515.369</ele>
<time>2022-05-26T14:28:21Z</time>
</trkpt>
<trkpt lat="47.961391" lon="11.108483">
<ele>515.39</ele>
<time>2022-05-26T14:28:22Z</time>
</trkpt>
<trkpt lat="47.961395" lon="11.108423">
<ele>515.627</ele>
<time>2022-05-26T14:28:23Z</time>
</trkpt>
<trkpt lat="47.961391" lon="11.108363">
<ele>515.826</ele>
<time>2022-05-26T14:28:24Z</time>
</trkpt>
<trkpt lat="47.96138" lon="11.108294">
<ele>515.965</ele>
<time>2022-05-26T14:28:25Z</time>
</trkpt>
<trkpt lat="47.961376" lon="11.108225">
<ele>516.082</ele>
<time>2022-05-26T14:28:26Z</time>
</trkpt>
<trkpt lat="47.961369" lon="11.108157">
<ele>516.182</ele>
<time>2022-05-26T14:28:27Z</time>
</trkpt>
<trkpt lat="47.961365" lon="11.108094">
<ele>516.249</ele>
<time>2022-05-26T14:28:28Z</time>
</trkpt>
<trkpt lat="47.961349" lon="11.108027">
<ele>516.288</ele>
<time>2022-05-26T14:28:29Z</time>
</trkpt>
<trkpt lat="47.961346" lon="11.107965">
<ele>516.305</ele>
<time>2022-05-26T14:28:30Z</time>
</trkpt>
<trkpt lat="47.961338" lon="11.1079">
<ele>516.546</ele>
<time>2022-05-26T14:28:31Z</time>
</trkpt>
<trkpt lat="47.96133" lon="11.107837">
<ele>516.732</ele>
<time>2022-05-26T14:28:32Z</time>
</trkpt>
<trkpt lat="47.961315" lon="11.107765">
<ele>516.856</ele>
<time>2022-05-26T14:28:33Z</time>
</trkpt>
<trkpt lat="47.961304" lon="11.1077">
<ele>516.999</ele>
<time>2022-05-26T14:28:34Z</time>
</trkpt>
<trkpt lat="47.961296" lon="11.107635">
<ele>517.109</ele>
<time>2022-05-26T14:28:35Z</time>
</trkpt>
<trkpt lat="47.961285" lon="11.107571">
<ele>517.188</ele>
<time>2022-05-26T14:28:36Z</time>
</trkpt>
<trkpt lat="47.961277" lon="11.10751">
<ele>517.237</ele>
<time>2022-05-26T14:28:37Z</time>
</trkpt>
<trkpt lat="47.961269" lon="11.10745">
<ele>517.261</ele>
<time>2022-05-26T14:28:38Z</time>
</trkpt>
<trkpt lat="47.961266" lon="11.107392">
<ele>517.261</ele>
<time>2022-05-26T14:28:39Z</time>
</trkpt>
<trkpt lat="47.961269" lon="11.107335">
<ele>517.261</ele>
<time>2022-05-26T14:28:40Z</time>
</trkpt>
<trkpt lat="47.961285" lon="11.107288">
<ele>517.261</ele>
<time>2022-05-26T14:28:41Z</time>
</trkpt>
<trkpt lat="47.9613" lon="11.107248">
<ele>517.261</ele>
<time>2022-05-26T14:28:42Z</time>
</trkpt>
<trkpt lat="47.961319" lon="11.107214">
<ele>517.261</ele>
<time>2022-05-26T14:28:43Z</time>
</trkpt>
<trkpt lat="47.961349" lon="11.107189">
<ele>517.261</ele>
<time>2022-05-26T14:28:44Z</time>
</trkpt>
<trkpt lat="47.96138" lon="11.107168">
<ele>517.261</ele>
<time>2022-05-26T14:28:45Z</time>
</trkpt>
<trkpt lat="47.961414" lon="11.107148">
<ele>517.261</ele>
<time>2022-05-26T14:28:46Z</time>
</trkpt>
<trkpt lat="47.961449" lon="11.10713">
<ele>517.261</ele>
<time>2022-05-26T14:28:47Z</time>
</trkpt>
<trkpt lat="47.961487" lon="11.107114">
<ele>517.261</ele>
<time>2022-05-26T14:28:48Z</time>
</trkpt>
<trkpt lat="47.961521" lon="11.107097">
<ele>517.261</ele>
<time>2022-05-26T14:28:49Z</time>
</trkpt>
<trkpt lat="47.961559" lon="11.107082">
<ele>517.261</ele>
<time>2022-05-26T14:28:50Z</time>
</trkpt>
<trkpt lat="47.961594" lon="11.107068">
<ele>517.261</ele>
<time>2022-05-26T14:28:51Z</time>
</trkpt>
<trkpt lat="47.961632" lon="11.107055">
<ele>517.261</ele>
<time>2022-05-26T14:28:52Z</time>
</trkpt>
<trkpt lat="47.96167" lon="11.107043">
<ele>517.261</ele>
<time>2022-05-26T14:28:53Z</time>
</trkpt>
<trkpt lat="47.961708" lon="11.107028">
<ele>517.261</ele>
<time>2022-05-26T14:28:54Z</time>
</trkpt>
<trkpt lat="47.96175" lon="11.10701">
<ele>517.261</ele>
<time>2022-05-26T14:28:55Z</time>
</trkpt>
<trkpt lat="47.961788" lon="11.106985">
<ele>517.261</ele>
<time>2022-05-26T14:28:56Z</time>
</trkpt>
<trkpt lat="47.96183" lon="11.106961">
<ele>517.261</ele>
<time>2022-05-26T14:28:57Z</time>
</trkpt>
<trkpt lat="47.961868" lon="11.10694">
<ele>517.261</ele>
<time>2022-05-26T14:28:58Z</time>
</trkpt>
<trkpt lat="47.961914" lon="11.106921">
<ele>517.261</ele>
<time>2022-05-26T14:28:59Z</time>
</trkpt>
<trkpt lat="47.961952" lon="11.106902">
<ele>517.261</ele>
<time>2022-05-26T14:29:00Z</time>
</trkpt>
<trkpt lat="47.961994" lon="11.106881">
<ele>517.261</ele>
<time>2022-05-26T14:29:01Z</time>
</trkpt>
<trkpt lat="47.962032" lon="11.106863">
<ele>517.261</ele>
<time>2022-05-26T14:29:02Z</time>
</trkpt>
<trkpt lat="47.962074" lon="11.106845">
<ele>517.261</ele>
<time>2022-05-26T14:29:03Z</time>
</trkpt>
<trkpt lat="47.962112" lon="11.106827">
<ele>517.261</ele>
<time>2022-05-26T14:29:04Z</time>
</trkpt>
<trkpt lat="47.962147" lon="11.106806">
<ele>517.261</ele>
<time>2022-05-26T14:29:05Z</time>
</trkpt>
<trkpt lat="47.962193" lon="11.106782">
<ele>517.261</ele>
<time>2022-05-26T14:29:06Z</time>
</trkpt>
<trkpt lat="47.962231" lon="11.106757">
<ele>517.528</ele>
<time>2022-05-26T14:29:07Z</time>
</trkpt>
<trkpt lat="47.962273" lon="11.106735">
<ele>517.737</ele>
<time>2022-05-26T14:29:08Z</time>
</trkpt>
<trkpt lat="47.962315" lon="11.106718">
<ele>517.898</ele>
<time>2022-05-26T14:29:09Z</time>
</trkpt>
<trkpt lat="47.962353" lon="11.106703">
<ele>518.016</ele>
<time>2022-05-26T14:29:10Z</time>
</trkpt>
<trkpt lat="47.962395" lon="11.106692">
<ele>518.097</ele>
<time>2022-05-26T14:29:11Z</time>
</trkpt>
<trkpt lat="47.962433" lon="11.106676">
<ele>518.151</ele>
<time>2022-05-26T14:29:12Z</time>
</trkpt>
<trkpt lat="47.962471" lon="11.10666">
<ele>518.191</ele>
<time>2022-05-26T14:29:13Z</time>
</trkpt>
<trkpt lat="47.962505" lon="11.106645">
<ele>518.217</ele>
<time>2022-05-26T14:29:14Z</time>
</trkpt>
<trkpt lat="47.96254" lon="11.10663">
<ele>518.217</ele>
<time>2022-05-26T14:29:15Z</time>
</trkpt>
<trkpt lat="47.962574" lon="11.106615">
<ele>518.217</ele>
<time>2022-05-26T14:29:16Z</time>
</trkpt>
<trkpt lat="47.962612" lon="11.106603">
<ele>518.217</ele>
<time>2022-05-26T14:29:17Z</time>
</trkpt>
<trkpt lat="47.96265" lon="11.10659">
<ele>518.217</ele>
<time>2022-05-26T14:29:18Z</time>
</trkpt>
<trkpt lat="47.962692" lon="11.106575">
<ele>518.217</ele>
<time>2022-05-26T14:29:19Z</time>
</trkpt>
<trkpt lat="47.962727" lon="11.106563">
<ele>517.949</ele>
<time>2022-05-26T14:29:20Z</time>
</trkpt>
<trkpt lat="47.962761" lon="11.106557">
<ele>517.742</ele>
<time>2022-05-26T14:29:21Z</time>
</trkpt>
<trkpt lat="47.962799" lon="11.106559">
<ele>517.573</ele>
<time>2022-05-26T14:29:22Z</time>
</trkpt>
<trkpt lat="47.96283" lon="11.106559">
<ele>517.462</ele>
<time>2022-05-26T14:29:23Z</time>
</trkpt>
<trkpt lat="47.962872" lon="11.106565">
<ele>517.344</ele>
<time>2022-05-26T14:29:24Z</time>
</trkpt>
<trkpt lat="47.962906" lon="11.106568">
<ele>517.257</ele>
<time>2022-05-26T14:29:25Z</time>
</trkpt>
<trkpt lat="47.962948" lon="11.106573">
<ele>517.202</ele>
<time>2022-05-26T14:29:26Z</time>
</trkpt>
<trkpt lat="47.962994" lon="11.106578">
<ele>517.174</ele>
<time>2022-05-26T14:29:27Z</time>
</trkpt>
<trkpt lat="47.963047" lon="11.106582">
<ele>517.174</ele>
<time>2022-05-26T14:29:28Z</time>
</trkpt>
<trkpt lat="47.963104" lon="11.106582">
<ele>517.174</ele>
<time>2022-05-26T14:29:29Z</time>
</trkpt>
<trkpt lat="47.963161" lon="11.106584">
<ele>517.174</ele>
<time>2022-05-26T14:29:30Z</time>
</trkpt>
<trkpt lat="47.963215" lon="11.106586">
<ele>517.174</ele>
<time>2022-05-26T14:29:31Z</time>
</trkpt>
<trkpt lat="47.963261" lon="11.10659">
<ele>517.174</ele>
<time>2022-05-26T14:29:32Z</time>
</trkpt>
<trkpt lat="47.96331" lon="11.106588">
<ele>517.174</ele>
<time>2022-05-26T14:29:33Z</time>
</trkpt>
<trkpt lat="47.963352" lon="11.106578">
<ele>517.174</ele>
<time>2022-05-26T14:29:34Z</time>
</trkpt>
<trkpt lat="47.96339" lon="11.106563">
<ele>517.174</ele>
<time>2022-05-26T14:29:35Z</time>
</trkpt>
<trkpt lat="47.963428" lon="11.106545">
<ele>517.174</ele>
<time>2022-05-26T14:29:36Z</time>
</trkpt>
<trkpt lat="47.96347" lon="11.106521">
<ele>517.174</ele>
<time>2022-05-26T14:29:37Z</time>
</trkpt>
<trkpt lat="47.963516" lon="11.10649">
<ele>517.174</ele>
<time>2022-05-26T14:29:38Z</time>
</trkpt>
<trkpt lat="47.963551" lon="11.106456">
<ele>517.174</ele>
<time>2022-05-26T14:29:39Z</time>
</trkpt>
<trkpt lat="47.963593" lon="11.106419">
<ele>517.174</ele>
<time>2022-05-26T14:29:40Z</time>
</trkpt>
<trkpt lat="47.963634" lon="11.106374">
<ele>517.174</ele>
<time>2022-05-26T14:29:41Z</time>
</trkpt>
<trkpt lat="47.963673" lon="11.106326">
<ele>517.174</ele>
<time>2022-05-26T14:29:42Z</time>
</trkpt>
<trkpt lat="47.963703" lon="11.106278">
<ele>517.174</ele>
<time>2022-05-26T14:29:43Z</time>
</trkpt>
<trkpt lat="47.963741" lon="11.106228">
<ele>517.174</ele>
<time>2022-05-26T14:29:44Z</time>
</trkpt>
<trkpt lat="47.963772" lon="11.106177">
<ele>517.174</ele>
<time>2022-05-26T14:29:45Z</time>
</trkpt>
<trkpt lat="47.96381" lon="11.106129">
<ele>517.174</ele>
<time>2022-05-26T14:29:46Z</time>
</trkpt>
<trkpt lat="47.963844" lon="11.10608">
<ele>517.174</ele>
<time>2022-05-26T14:29:47Z</time>
</trkpt>
<trkpt lat="47.963879" lon="11.106029">
<ele>517.174</ele>
<time>2022-05-26T14:29:48Z</time>
</trkpt>
<trkpt lat="47.963905" lon="11.105971">
<ele>517.174</ele>
<time>2022-05-26T14:29:49Z</time>
</trkpt>
<trkpt lat="47.96394" lon="11.105915">
<ele>517.174</ele>
<time>2022-05-26T14:29:50Z</time>
</trkpt>
<trkpt lat="47.96397" lon="11.105857">
<ele>517.174</ele>
<time>2022-05-26T14:29:51Z</time>
</trkpt>
<trkpt lat="47.964008" lon="11.105797">
<ele>517.174</ele>
<time>2022-05-26T14:29:52Z</time>
</trkpt>
<trkpt lat="47.964046" lon="11.105739">
<ele>517.174</ele>
<time>2022-05-26T14:29:53Z</time>
</trkpt>
<trkpt lat="47.964081" lon="11.105679">
<ele>517.174</ele>
<time>2022-05-26T14:29:54Z</time>
</trkpt>
<trkpt lat="47.964115" lon="11.105618">
<ele>517.174</ele>
<time>2022-05-26T14:29:55Z</time>
</trkpt>
<trkpt lat="47.964149" lon="11.105565">
<ele>517.174</ele>
<time>2022-05-26T14:29:56Z</time>
</trkpt>
<trkpt lat="47.964184" lon="11.105519">
<ele>517.174</ele>
<time>2022-05-26T14:29:57Z</time>
</trkpt>
<trkpt lat="47.96423" lon="11.105484">
<ele>517.174</ele>
<time>2022-05-26T14:29:58Z</time>
</trkpt>
<trkpt lat="47.964275" lon="11.105454">
<ele>517.174</ele>
<time>2022-05-26T14:29:59Z</time>
</trkpt>
<trkpt lat="47.964325" lon="11.105425">
<ele>517.174</ele>
<time>2022-05-26T14:30:00Z</time>
</trkpt>
<trkpt lat="47.964375" lon="11.105395">
<ele>517.174</ele>
<time>2022-05-26T14:30:01Z</time>
</trkpt>
<trkpt lat="47.96442" lon="11.105364">
<ele>517.174</ele>
<time>2022-05-26T14:30:02Z</time>
</trkpt>
<trkpt lat="47.96447" lon="11.105325">
<ele>517.174</ele>
<time>2022-05-26T14:30:03Z</time>
</trkpt>
<trkpt lat="47.96452" lon="11.10529">
<ele>517.174</ele>
<time>2022-05-26T14:30:04Z</time>
</trkpt>
<trkpt lat="47.964561" lon="11.105262">
<ele>517.174</ele>
<time>2022-05-26T14:30:05Z</time>
</trkpt>
<trkpt lat="47.964611" lon="11.105235">
<ele>517.174</ele>
<time>2022-05-26T14:30:06Z</time>
</trkpt>
<trkpt lat="47.964653" lon="11.105204">
<ele>517.174</ele>
<time>2022-05-26T14:30:07Z</time>
</trkpt>
<trkpt lat="47.964695" lon="11.105173">
<ele>517.174</ele>
<time>2022-05-26T14:30:08Z</time>
</trkpt>
<trkpt lat="47.964737" lon="11.105142">
<ele>517.174</ele>
<time>2022-05-26T14:30:09Z</time>
</trkpt>
<trkpt lat="47.964787" lon="11.105106">
<ele>517.174</ele>
<time>2022-05-26T14:30:10Z</time>
</trkpt>
<trkpt lat="47.964832" lon="11.105075">
<ele>517.174</ele>
<time>2022-05-26T14:30:11Z</time>
</trkpt>
<trkpt lat="47.964874" lon="11.105043">
<ele>517.174</ele>
<time>2022-05-26T14:30:12Z</time>
</trkpt>
<trkpt lat="47.964916" lon="11.105006">
<ele>517.174</ele>
<time>2022-05-26T14:30:13Z</time>
</trkpt>
<trkpt lat="47.964958" lon="11.104972">
<ele>517.174</ele>
<time>2022-05-26T14:30:14Z</time>
</trkpt>
<trkpt lat="47.965008" lon="11.104939">
<ele>517.174</ele>
<time>2022-05-26T14:30:15Z</time>
</trkpt>
<trkpt lat="47.96505" lon="11.104901">
<ele>517.174</ele>
<time>2022-05-26T14:30:16Z</time>
</trkpt>
<trkpt lat="47.965099" lon="11.104865">
<ele>517.174</ele>
<time>2022-05-26T14:30:17Z</time>
</trkpt>
<trkpt lat="47.965149" lon="11.104826">
<ele>517.174</ele>
<time>2022-05-26T14:30:18Z</time>
</trkpt>
<trkpt lat="47.965187" lon="11.104788">
<ele>517.174</ele>
<time>2022-05-26T14:30:19Z</time>
</trkpt>
<trkpt lat="47.965225" lon="11.104753">
<ele>517.174</ele>
<time>2022-05-26T14:30:20Z</time>
</trkpt>
<trkpt lat="47.965279" lon="11.104707">
<ele>517.174</ele>
<time>2022-05-26T14:30:21Z</time>
</trkpt>
<trkpt lat="47.96534" lon="11.104658">
<ele>517.174</ele>
<time>2022-05-26T14:30:22Z</time>
</trkpt>
<trkpt lat="47.965405" lon="11.104614">
<ele>517.174</ele>
<time>2022-05-26T14:30:23Z</time>
</trkpt>
<trkpt lat="47.965466" lon="11.104577">
<ele>517.174</ele>
<time>2022-05-26T14:30:24Z</time>
</trkpt>
<trkpt lat="47.965527" lon="11.104537">
<ele>517.174</ele>
<time>2022-05-26T14:30:25Z</time>
</trkpt>
<trkpt lat="47.96558" lon="11.104504">
<ele>517.174</ele>
<time>2022-05-26T14:30:26Z</time>
</trkpt>
<trkpt lat="47.965633" lon="11.104475">
<ele>517.174</ele>
<time>2022-05-26T14:30:27Z</time>
</trkpt>
<trkpt lat="47.965691" lon="11.104446">
<ele>517.174</ele>
<time>2022-05-26T14:30:28Z</time>
</trkpt>
<trkpt lat="47.96574" lon="11.10442">
<ele>517.174</ele>
<time>2022-05-26T14:30:29Z</time>
</trkpt>
<trkpt lat="47.965786" lon="11.104388">
<ele>517.174</ele>
<time>2022-05-26T14:30:30Z</time>
</trkpt>
<trkpt lat="47.965832" lon="11.104352">
<ele>517.174</ele>
<time>2022-05-26T14:30:31Z</time>
</trkpt>
<trkpt lat="47.965874" lon="11.104325">
<ele>517.174</ele>
<time>2022-05-26T14:30:32Z</time>
</trkpt>
<trkpt lat="47.965927" lon="11.104303">
<ele>517.174</ele>
<time>2022-05-26T14:30:33Z</time>
</trkpt>
<trkpt lat="47.965977" lon="11.104279">
<ele>517.174</ele>
<time>2022-05-26T14:30:34Z</time>
</trkpt>
<trkpt lat="47.966026" lon="11.104254">
<ele>517.174</ele>
<time>2022-05-26T14:30:35Z</time>
</trkpt>
<trkpt lat="47.966068" lon="11.104233">
<ele>517.174</ele>
<time>2022-05-26T14:30:36Z</time>
</trkpt>
<trkpt lat="47.966099" lon="11.104217">
<ele>517.174</ele>
<time>2022-05-26T14:30:37Z</time>
</trkpt>
<trkpt lat="47.966148" lon="11.104187">
<ele>517.174</ele>
<time>2022-05-26T14:30:38Z</time>
</trkpt>
<trkpt lat="47.966198" lon="11.104147">
<ele>517.174</ele>
<time>2022-05-26T14:30:39Z</time>
</trkpt>
<trkpt lat="47.966255" lon="11.104108">
<ele>517.174</ele>
<time>2022-05-26T14:30:40Z</time>
</trkpt>
<trkpt lat="47.966312" lon="11.104072">
<ele>517.174</ele>
<time>2022-05-26T14:30:41Z</time>
</trkpt>
<trkpt lat="47.966358" lon="11.10404">
<ele>517.174</ele>
<time>2022-05-26T14:30:42Z</time>
</trkpt>
<trkpt lat="47.966408" lon="11.104011">
<ele>517.174</ele>
<time>2022-05-26T14:30:43Z</time>
</trkpt>
<trkpt lat="47.966457" lon="11.103977">
<ele>517.174</ele>
<time>2022-05-26T14:30:44Z</time>
</trkpt>
<trkpt lat="47.966515" lon="11.103946">
<ele>517.174</ele>
<time>2022-05-26T14:30:45Z</time>
</trkpt>
<trkpt lat="47.966557" lon="11.103913">
<ele>517.174</ele>
<time>2022-05-26T14:30:46Z</time>
</trkpt>
<trkpt lat="47.966614" lon="11.103882">
<ele>517.174</ele>
<time>2022-05-26T14:30:47Z</time>
</trkpt>
<trkpt lat="47.966663" lon="11.103853">
<ele>517.174</ele>
<time>2022-05-26T14:30:48Z</time>
</trkpt>
<trkpt lat="47.966705" lon="11.103823">
<ele>517.174</ele>
<time>2022-05-26T14:30:49Z</time>
</trkpt>
<trkpt lat="47.966755" lon="11.103797">
<ele>517.174</ele>
<time>2022-05-26T14:30:50Z</time>
</trkpt>
<trkpt lat="47.966801" lon="11.103762">
<ele>517.174</ele>
<time>2022-05-26T14:30:51Z</time>
</trkpt>
<trkpt lat="47.966846" lon="11.10373">
<ele>517.174</ele>
<time>2022-05-26T14:30:52Z</time>
</trkpt>
<trkpt lat="47.9669" lon="11.103697">
<ele>517.174</ele>
<time>2022-05-26T14:30:53Z</time>
</trkpt>
<trkpt lat="47.966953" lon="11.103665">
<ele>517.174</ele>
<time>2022-05-26T14:30:54Z</time>
</trkpt>
<trkpt lat="47.96701" lon="11.103628">
<ele>517.174</ele>
<time>2022-05-26T14:30:55Z</time>
</trkpt>
<trkpt lat="47.96706" lon="11.103597">
<ele>517.174</ele>
<time>2022-05-26T14:30:56Z</time>
</trkpt>
<trkpt lat="47.967113" lon="11.103567">
<ele>517.174</ele>
<time>2022-05-26T14:30:57Z</time>
</trkpt>
<trkpt lat="47.967163" lon="11.103535">
<ele>517.174</ele>
<time>2022-05-26T14:30:58Z</time>
</trkpt>
<trkpt lat="47.967205" lon="11.103506">
<ele>517.174</ele>
<time>2022-05-26T14:30:59Z</time>
</trkpt>
<trkpt lat="47.967243" lon="11.10348">
<ele>517.174</ele>
<time>2022-05-26T14:31:00Z</time>
</trkpt>
<trkpt lat="47.967289" lon="11.103452">
<ele>517.174</ele>
<time>2022-05-26T14:31:01Z</time>
</trkpt>
<trkpt lat="47.967335" lon="11.103425">
<ele>517.174</ele>
<time>2022-05-26T14:31:02Z</time>
</trkpt>
<trkpt lat="47.967377" lon="11.103395">
<ele>517.174</ele>
<time>2022-05-26T14:31:03Z</time>
</trkpt>
<trkpt lat="47.967411" lon="11.103365">
<ele>517.174</ele>
<time>2022-05-26T14:31:04Z</time>
</trkpt>
<trkpt lat="47.967453" lon="11.103336">
<ele>517.174</ele>
<time>2022-05-26T14:31:05Z</time>
</trkpt>
<trkpt lat="47.967503" lon="11.103309">
<ele>517.174</ele>
<time>2022-05-26T14:31:06Z</time>
</trkpt>
<trkpt lat="47.967552" lon="11.103282">
<ele>517.174</ele>
<time>2022-05-26T14:31:07Z</time>
</trkpt>
<trkpt lat="47.967598" lon="11.103251">
<ele>517.174</ele>
<time>2022-05-26T14:31:08Z</time>
</trkpt>
<trkpt lat="47.967655" lon="11.103213">
<ele>517.174</ele>
<time>2022-05-26T14:31:09Z</time>
</trkpt>
<trkpt lat="47.967712" lon="11.103184">
<ele>517.174</ele>
<time>2022-05-26T14:31:10Z</time>
</trkpt>
<trkpt lat="47.96777" lon="11.103151">
<ele>517.174</ele>
<time>2022-05-26T14:31:11Z</time>
</trkpt>
<trkpt lat="47.967819" lon="11.103116">
<ele>517.174</ele>
<time>2022-05-26T14:31:12Z</time>
</trkpt>
<trkpt lat="47.967869" lon="11.103088">
<ele>517.174</ele>
<time>2022-05-26T14:31:13Z</time>
</trkpt>
<trkpt lat="47.967922" lon="11.103062">
<ele>517.174</ele>
<time>2022-05-26T14:31:14Z</time>
</trkpt>
<trkpt lat="47.967979" lon="11.103042">
<ele>517.174</ele>
<time>2022-05-26T14:31:15Z</time>
</trkpt>
<trkpt lat="47.968044" lon="11.103005">
<ele>517.174</ele>
<time>2022-05-26T14:31:16Z</time>
</trkpt>
<trkpt lat="47.968109" lon="11.102968">
<ele>517.174</ele>
<time>2022-05-26T14:31:17Z</time>
</trkpt>
<trkpt lat="47.96817" lon="11.102937">
<ele>517.174</ele>
<time>2022-05-26T14:31:18Z</time>
</trkpt>
<trkpt lat="47.968227" lon="11.102911">
<ele>517.174</ele>
<time>2022-05-26T14:31:19Z</time>
</trkpt>
<trkpt lat="47.968285" lon="11.102886">
<ele>517.174</ele>
<time>2022-05-26T14:31:20Z</time>
</trkpt>
<trkpt lat="47.968342" lon="11.102865">
<ele>517.174</ele>
<time>2022-05-26T14:31:21Z</time>
</trkpt>
<trkpt lat="47.968403" lon="11.102845">
<ele>517.174</ele>
<time>2022-05-26T14:31:22Z</time>
</trkpt>
<trkpt lat="47.968445" lon="11.102813">
<ele>517.174</ele>
<time>2022-05-26T14:31:23Z</time>
</trkpt>
<trkpt lat="47.968491" lon="11.102783">
<ele>517.174</ele>
<time>2022-05-26T14:31:24Z</time>
</trkpt>
<trkpt lat="47.968536" lon="11.102763">
<ele>517.174</ele>
<time>2022-05-26T14:31:25Z</time>
</trkpt>
<trkpt lat="47.968586" lon="11.102745">
<ele>517.174</ele>
<time>2022-05-26T14:31:26Z</time>
</trkpt>
<trkpt lat="47.968636" lon="11.102725">
<ele>517.174</ele>
<time>2022-05-26T14:31:27Z</time>
</trkpt>
<trkpt lat="47.968689" lon="11.102705">
<ele>517.174</ele>
<time>2022-05-26T14:31:28Z</time>
</trkpt>
<trkpt lat="47.968739" lon="11.102687">
<ele>517.174</ele>
<time>2022-05-26T14:31:29Z</time>
</trkpt>
<trkpt lat="47.968792" lon="11.102665">
<ele>517.174</ele>
<time>2022-05-26T14:31:30Z</time>
</trkpt>
<trkpt lat="47.968834" lon="11.102654">
<ele>517.174</ele>
<time>2022-05-26T14:31:31Z</time>
</trkpt>
<trkpt lat="47.968895" lon="11.102633">
<ele>517.174</ele>
<time>2022-05-26T14:31:32Z</time>
</trkpt>
<trkpt lat="47.968952" lon="11.102615">
<ele>517.174</ele>
<time>2022-05-26T14:31:33Z</time>
</trkpt>
<trkpt lat="47.968998" lon="11.102592">
<ele>517.174</ele>
<time>2022-05-26T14:31:34Z</time>
</trkpt>
<trkpt lat="47.969055" lon="11.102563">
<ele>517.174</ele>
<time>2022-05-26T14:31:35Z</time>
</trkpt>
<trkpt lat="47.969109" lon="11.102535">
<ele>517.174</ele>
<time>2022-05-26T14:31:36Z</time>
</trkpt>
<trkpt lat="47.969154" lon="11.102515">
<ele>517.174</ele>
<time>2022-05-26T14:31:37Z</time>
</trkpt>
<trkpt lat="47.9692" lon="11.102496">
<ele>517.174</ele>
<time>2022-05-26T14:31:38Z</time>
</trkpt>
<trkpt lat="47.969246" lon="11.102478">
<ele>517.174</ele>
<time>2022-05-26T14:31:39Z</time>
</trkpt>
<trkpt lat="47.969288" lon="11.102462">
<ele>517.174</ele>
<time>2022-05-26T14:31:40Z</time>
</trkpt>
<trkpt lat="47.969345" lon="11.102446">
<ele>517.174</ele>
<time>2022-05-26T14:31:41Z</time>
</trkpt>
<trkpt lat="47.96941" lon="11.102427">
<ele>517.174</ele>
<time>2022-05-26T14:31:42Z</time>
</trkpt>
<trkpt lat="47.969482" lon="11.102405">
<ele>516.959</ele>
<time>2022-05-26T14:31:43Z</time>
</trkpt>
<trkpt lat="47.969547" lon="11.102389">
<ele>516.741</ele>
<time>2022-05-26T14:31:44Z</time>
</trkpt>
<trkpt lat="47.969616" lon="11.10237">
<ele>516.56</ele>
<time>2022-05-26T14:31:45Z</time>
</trkpt>
<trkpt lat="47.969677" lon="11.102355">
<ele>516.432</ele>
<time>2022-05-26T14:31:46Z</time>
</trkpt>
<trkpt lat="47.969742" lon="11.102339">
<ele>516.334</ele>
<time>2022-05-26T14:31:47Z</time>
</trkpt>
<trkpt lat="47.969803" lon="11.102324">
<ele>516.274</ele>
<time>2022-05-26T14:31:48Z</time>
</trkpt>
<trkpt lat="47.96986" lon="11.102307">
<ele>516.238</ele>
<time>2022-05-26T14:31:49Z</time>
</trkpt>
<trkpt lat="47.969917" lon="11.102283">
<ele>516.218</ele>
<time>2022-05-26T14:31:50Z</time>
</trkpt>
<trkpt lat="47.969978" lon="11.102257">
<ele>516.219</ele>
<time>2022-05-26T14:31:51Z</time>
</trkpt>
<trkpt lat="47.970036" lon="11.102239">
<ele>516.218</ele>
<time>2022-05-26T14:31:52Z</time>
</trkpt>
<trkpt lat="47.970093" lon="11.102226">
<ele>516.218</ele>
<time>2022-05-26T14:31:53Z</time>
</trkpt>
<trkpt lat="47.970146" lon="11.102213">
<ele>516.219</ele>
<time>2022-05-26T14:31:54Z</time>
</trkpt>
<trkpt lat="47.9702" lon="11.102199">
<ele>516.218</ele>
<time>2022-05-26T14:31:55Z</time>
</trkpt>
<trkpt lat="47.970245" lon="11.102183">
<ele>516.218</ele>
<time>2022-05-26T14:31:56Z</time>
</trkpt>
<trkpt lat="47.970299" lon="11.102167">
<ele>516.218</ele>
<time>2022-05-26T14:31:57Z</time>
</trkpt>
<trkpt lat="47.970348" lon="11.102153">
<ele>516.218</ele>
<time>2022-05-26T14:31:58Z</time>
</trkpt>
<trkpt lat="47.970394" lon="11.10214">
<ele>516.219</ele>
<time>2022-05-26T14:31:59Z</time>
</trkpt>
<trkpt lat="47.970444" lon="11.102127">
<ele>516.218</ele>
<time>2022-05-26T14:32:00Z</time>
</trkpt>
<trkpt lat="47.970493" lon="11.10211">
<ele>516.218</ele>
<time>2022-05-26T14:32:01Z</time>
</trkpt>
<trkpt lat="47.970547" lon="11.102096">
<ele>516.219</ele>
<time>2022-05-26T14:32:02Z</time>
</trkpt>
<trkpt lat="47.970596" lon="11.102078">
<ele>516.218</ele>
<time>2022-05-26T14:32:03Z</time>
</trkpt>
<trkpt lat="47.970654" lon="11.10206">
<ele>516.218</ele>
<time>2022-05-26T14:32:04Z</time>
</trkpt>
<trkpt lat="47.970711" lon="11.102039">
<ele>516.218</ele>
<time>2022-05-26T14:32:05Z</time>
</trkpt>
<trkpt lat="47.970768" lon="11.102016">
<ele>516.218</ele>
<time>2022-05-26T14:32:06Z</time>
</trkpt>
<trkpt lat="47.970818" lon="11.101995">
<ele>516.219</ele>
<time>2022-05-26T14:32:07Z</time>
</trkpt>
<trkpt lat="47.970875" lon="11.10197">
<ele>516.218</ele>
<time>2022-05-26T14:32:08Z</time>
</trkpt>
<trkpt lat="47.970932" lon="11.10195">
<ele>516.218</ele>
<time>2022-05-26T14:32:09Z</time>
</trkpt>
<trkpt lat="47.970985" lon="11.101931">
<ele>516.218</ele>
<time>2022-05-26T14:32:10Z</time>
</trkpt>
<trkpt lat="47.971035" lon="11.101908">
<ele>516.497</ele>
<time>2022-05-26T14:32:11Z</time>
</trkpt>
<trkpt lat="47.971085" lon="11.101887">
<ele>516.718</ele>
<time>2022-05-26T14:32:12Z</time>
</trkpt>
<trkpt lat="47.971138" lon="11.101865">
<ele>516.871</ele>
<time>2022-05-26T14:32:13Z</time>
</trkpt>
<trkpt lat="47.971199" lon="11.10184">
<ele>517.038</ele>
<time>2022-05-26T14:32:14Z</time>
</trkpt>
<trkpt lat="47.971256" lon="11.101815">
<ele>517.168</ele>
<time>2022-05-26T14:32:15Z</time>
</trkpt>
<trkpt lat="47.971313" lon="11.101796">
<ele>517.257</ele>
<time>2022-05-26T14:32:16Z</time>
</trkpt>
<trkpt lat="47.971371" lon="11.101787">
<ele>517.318</ele>
<time>2022-05-26T14:32:17Z</time>
</trkpt>
<trkpt lat="47.971428" lon="11.10178">
<ele>517.348</ele>
<time>2022-05-26T14:32:18Z</time>
</trkpt>
<trkpt lat="47.971481" lon="11.101773">
<ele>517.604</ele>
<time>2022-05-26T14:32:19Z</time>
</trkpt>
<trkpt lat="47.971531" lon="11.101765">
<ele>517.796</ele>
<time>2022-05-26T14:32:20Z</time>
</trkpt>
<trkpt lat="47.971573" lon="11.101759">
<ele>517.94</ele>
<time>2022-05-26T14:32:21Z</time>
</trkpt>
<trkpt lat="47.971619" lon="11.10175">
<ele>518.051</ele>
<time>2022-05-26T14:32:22Z</time>
</trkpt>
<trkpt lat="47.971661" lon="11.101738">
<ele>518.136</ele>
<time>2022-05-26T14:32:23Z</time>
</trkpt>
<trkpt lat="47.971703" lon="11.101728">
<ele>518.219</ele>
<time>2022-05-26T14:32:24Z</time>
</trkpt>
<trkpt lat="47.971748" lon="11.101712">
<ele>518.276</ele>
<time>2022-05-26T14:32:25Z</time>
</trkpt>
<trkpt lat="47.971794" lon="11.101688">
<ele>518.304</ele>
<time>2022-05-26T14:32:26Z</time>
</trkpt>
<trkpt lat="47.971836" lon="11.101668">
<ele>518.304</ele>
<time>2022-05-26T14:32:27Z</time>
</trkpt>
<trkpt lat="47.971886" lon="11.101655">
<ele>518.304</ele>
<time>2022-05-26T14:32:28Z</time>
</trkpt>
<trkpt lat="47.971928" lon="11.101637">
<ele>518.304</ele>
<time>2022-05-26T14:32:29Z</time>
</trkpt>
<trkpt lat="47.971973" lon="11.101624">
<ele>518.304</ele>
<time>2022-05-26T14:32:30Z</time>
</trkpt>
<trkpt lat="47.972023" lon="11.101605">
<ele>518.304</ele>
<time>2022-05-26T14:32:31Z</time>
</trkpt>
<trkpt lat="47.972073" lon="11.101585">
<ele>518.304</ele>
<time>2022-05-26T14:32:32Z</time>
</trkpt>
<trkpt lat="47.972122" lon="11.101565">
<ele>518.304</ele>
<time>2022-05-26T14:32:33Z</time>
</trkpt>
<trkpt lat="47.972168" lon="11.101542">
<ele>518.304</ele>
<time>2022-05-26T14:32:34Z</time>
</trkpt>
<trkpt lat="47.972218" lon="11.101526">
<ele>518.304</ele>
<time>2022-05-26T14:32:35Z</time>
</trkpt>
<trkpt lat="47.97226" lon="11.101517">
<ele>518.304</ele>
<time>2022-05-26T14:32:36Z</time>
</trkpt>
<trkpt lat="47.972313" lon="11.101517">
<ele>518.304</ele>
<time>2022-05-26T14:32:37Z</time>
</trkpt>
<trkpt lat="47.972363" lon="11.101521">
<ele>518.304</ele>
<time>2022-05-26T14:32:38Z</time>
</trkpt>
<trkpt lat="47.972412" lon="11.101523">
<ele>518.304</ele>
<time>2022-05-26T14:32:39Z</time>
</trkpt>
<trkpt lat="47.972462" lon="11.101523">
<ele>518.304</ele>
<time>2022-05-26T14:32:40Z</time>
</trkpt>
<trkpt lat="47.972511" lon="11.10152">
<ele>518.304</ele>
<time>2022-05-26T14:32:41Z</time>
</trkpt>
<trkpt lat="47.972561" lon="11.101516">
<ele>518.304</ele>
<time>2022-05-26T14:32:42Z</time>
</trkpt>
<trkpt lat="47.97261" lon="11.101503">
<ele>518.304</ele>
<time>2022-05-26T14:32:43Z</time>
</trkpt>
<trkpt lat="47.97266" lon="11.101484">
<ele>518.304</ele>
<time>2022-05-26T14:32:44Z</time>
</trkpt>
<trkpt lat="47.97271" lon="11.101459">
<ele>518.304</ele>
<time>2022-05-26T14:32:45Z</time>
</trkpt>
<trkpt lat="47.972748" lon="11.10143">
<ele>518.304</ele>
<time>2022-05-26T14:32:46Z</time>
</trkpt>
<trkpt lat="47.97279" lon="11.1014">
<ele>518.304</ele>
<time>2022-05-26T14:32:47Z</time>
</trkpt>
<trkpt lat="47.972824" lon="11.101367">
<ele>518.304</ele>
<time>2022-05-26T14:32:48Z</time>
</trkpt>
<trkpt lat="47.972855" lon="11.10134">
<ele>518.304</ele>
<time>2022-05-26T14:32:49Z</time>
</trkpt>
<trkpt lat="47.972893" lon="11.10132">
<ele>518.304</ele>
<time>2022-05-26T14:32:50Z</time>
</trkpt>
<trkpt lat="47.972927" lon="11.101304">
<ele>518.304</ele>
<time>2022-05-26T14:32:51Z</time>
</trkpt>
<trkpt lat="47.972961" lon="11.10129">
<ele>518.304</ele>
<time>2022-05-26T14:32:52Z</time>
</trkpt>
<trkpt lat="47.973" lon="11.101283">
<ele>518.304</ele>
<time>2022-05-26T14:32:53Z</time>
</trkpt>
<trkpt lat="47.973034" lon="11.101278">
<ele>518.304</ele>
<time>2022-05-26T14:32:54Z</time>
</trkpt>
<trkpt lat="47.973068" lon="11.101273">
<ele>518.304</ele>
<time>2022-05-26T14:32:55Z</time>
</trkpt>
<trkpt lat="47.973099" lon="11.101262">
<ele>518.304</ele>
<time>2022-05-26T14:32:56Z</time>
</trkpt>
<trkpt lat="47.973145" lon="11.101243">
<ele>518.034</ele>
<time>2022-05-26T14:32:57Z</time>
</trkpt>
<trkpt lat="47.97319" lon="11.101225">
<ele>517.822</ele>
<time>2022-05-26T14:32:58Z</time>
</trkpt>
<trkpt lat="47.973232" lon="11.101213">
<ele>517.657</ele>
<time>2022-05-26T14:32:59Z</time>
</trkpt>
<trkpt lat="47.97327" lon="11.101198">
<ele>517.544</ele>
<time>2022-05-26T14:33:00Z</time>
</trkpt>
<trkpt lat="47.973312" lon="11.101178">
<ele>517.463</ele>
<time>2022-05-26T14:33:01Z</time>
</trkpt>
<trkpt lat="47.973354" lon="11.101155">
<ele>517.41</ele>
<time>2022-05-26T14:33:02Z</time>
</trkpt>
<trkpt lat="47.973392" lon="11.101145">
<ele>517.371</ele>
<time>2022-05-26T14:33:03Z</time>
</trkpt>
<trkpt lat="47.973438" lon="11.10112">
<ele>517.348</ele>
<time>2022-05-26T14:33:04Z</time>
</trkpt>
<trkpt lat="47.973484" lon="11.101098">
<ele>517.348</ele>
<time>2022-05-26T14:33:05Z</time>
</trkpt>
<trkpt lat="47.973526" lon="11.101075">
<ele>517.348</ele>
<time>2022-05-26T14:33:06Z</time>
</trkpt>
<trkpt lat="47.973576" lon="11.101052">
<ele>517.348</ele>
<time>2022-05-26T14:33:07Z</time>
</trkpt>
<trkpt lat="47.973621" lon="11.101022">
<ele>517.348</ele>
<time>2022-05-26T14:33:08Z</time>
</trkpt>
<trkpt lat="47.973671" lon="11.100992">
<ele>517.348</ele>
<time>2022-05-26T14:33:09Z</time>
</trkpt>
<trkpt lat="47.973721" lon="11.100963">
<ele>517.348</ele>
<time>2022-05-26T14:33:10Z</time>
</trkpt>
<trkpt lat="47.97377" lon="11.100933">
<ele>517.348</ele>
<time>2022-05-26T14:33:11Z</time>
</trkpt>
<trkpt lat="47.973824" lon="11.100898">
<ele>517.348</ele>
<time>2022-05-26T14:33:12Z</time>
</trkpt>
<trkpt lat="47.973877" lon="11.100866">
<ele>517.348</ele>
<time>2022-05-26T14:33:13Z</time>
</trkpt>
<trkpt lat="47.97393" lon="11.100837">
<ele>517.348</ele>
<time>2022-05-26T14:33:14Z</time>
</trkpt>
<trkpt lat="47.97398" lon="11.10081">
<ele>517.348</ele>
<time>2022-05-26T14:33:15Z</time>
</trkpt>
<trkpt lat="47.974041" lon="11.100783">
<ele>517.348</ele>
<time>2022-05-26T14:33:16Z</time>
</trkpt>
<trkpt lat="47.974098" lon="11.100757">
<ele>517.348</ele>
<time>2022-05-26T14:33:17Z</time>
</trkpt>
<trkpt lat="47.974155" lon="11.100732">
<ele>517.348</ele>
<time>2022-05-26T14:33:18Z</time>
</trkpt>
<trkpt lat="47.974209" lon="11.10071">
<ele>517.348</ele>
<time>2022-05-26T14:33:19Z</time>
</trkpt>
<trkpt lat="47.974262" lon="11.10069">
<ele>517.348</ele>
<time>2022-05-26T14:33:20Z</time>
</trkpt>
<trkpt lat="47.974316" lon="11.10067">
<ele>517.348</ele>
<time>2022-05-26T14:33:21Z</time>
</trkpt>
<trkpt lat="47.974373" lon="11.100646">
<ele>517.348</ele>
<time>2022-05-26T14:33:22Z</time>
</trkpt>
<trkpt lat="47.974419" lon="11.100621">
<ele>517.348</ele>
<time>2022-05-26T14:33:23Z</time>
</trkpt>
<trkpt lat="47.974472" lon="11.10059">
<ele>517.348</ele>
<time>2022-05-26T14:33:24Z</time>
</trkpt>
<trkpt lat="47.974529" lon="11.100558">
<ele>517.348</ele>
<time>2022-05-26T14:33:25Z</time>
</trkpt>
<trkpt lat="47.974579" lon="11.100531">
<ele>517.348</ele>
<time>2022-05-26T14:33:26Z</time>
</trkpt>
<trkpt lat="47.974632" lon="11.100502">
<ele>517.348</ele>
<time>2022-05-26T14:33:27Z</time>
</trkpt>
<trkpt lat="47.974682" lon="11.100473">
<ele>517.348</ele>
<time>2022-05-26T14:33:28Z</time>
</trkpt>
<trkpt lat="47.974735" lon="11.100449">
<ele>517.348</ele>
<time>2022-05-26T14:33:29Z</time>
</trkpt>
<trkpt lat="47.974792" lon="11.100422">
<ele>517.348</ele>
<time>2022-05-26T14:33:30Z</time>
</trkpt>
<trkpt lat="47.974846" lon="11.100395">
<ele>517.348</ele>
<time>2022-05-26T14:33:31Z</time>
</trkpt>
<trkpt lat="47.974895" lon="11.100368">
<ele>517.348</ele>
<time>2022-05-26T14:33:32Z</time>
</trkpt>
<trkpt lat="47.974957" lon="11.100345">
<ele>517.348</ele>
<time>2022-05-26T14:33:33Z</time>
</trkpt>
<trkpt lat="47.97501" lon="11.100328">
<ele>517.348</ele>
<time>2022-05-26T14:33:34Z</time>
</trkpt>
<trkpt lat="47.97506" lon="11.100313">
<ele>517.348</ele>
<time>2022-05-26T14:33:35Z</time>
</trkpt>
<trkpt lat="47.975109" lon="11.100292">
<ele>517.348</ele>
<time>2022-05-26T14:33:36Z</time>
</trkpt>
<trkpt lat="47.975159" lon="11.100268">
<ele>517.348</ele>
<time>2022-05-26T14:33:37Z</time>
</trkpt>
<trkpt lat="47.975208" lon="11.100244">
<ele>517.348</ele>
<time>2022-05-26T14:33:38Z</time>
</trkpt>
<trkpt lat="47.975254" lon="11.100213">
<ele>517.348</ele>
<time>2022-05-26T14:33:39Z</time>
</trkpt>
<trkpt lat="47.975307" lon="11.100187">
<ele>517.348</ele>
<time>2022-05-26T14:33:40Z</time>
</trkpt>
<trkpt lat="47.975365" lon="11.100163">
<ele>517.348</ele>
<time>2022-05-26T14:33:41Z</time>
</trkpt>
<trkpt lat="47.975414" lon="11.100139">
<ele>517.348</ele>
<time>2022-05-26T14:33:42Z</time>
</trkpt>
<trkpt lat="47.975468" lon="11.100112">
<ele>517.348</ele>
<time>2022-05-26T14:33:43Z</time>
</trkpt>
<trkpt lat="47.975521" lon="11.100083">
<ele>517.348</ele>
<time>2022-05-26T14:33:44Z</time>
</trkpt>
<trkpt lat="47.975574" lon="11.100047">
<ele>517.348</ele>
<time>2022-05-26T14:33:45Z</time>
</trkpt>
<trkpt lat="47.975632" lon="11.100019">
<ele>517.064</ele>
<time>2022-05-26T14:33:46Z</time>
</trkpt>
<trkpt lat="47.975689" lon="11.099993">
<ele>516.852</ele>
<time>2022-05-26T14:33:47Z</time>
</trkpt>
<trkpt lat="47.975739" lon="11.099955">
<ele>516.692</ele>
<time>2022-05-26T14:33:48Z</time>
</trkpt>
<trkpt lat="47.975792" lon="11.099927">
<ele>516.574</ele>
<time>2022-05-26T14:33:49Z</time>
</trkpt>
<trkpt lat="47.975849" lon="11.0999">
<ele>516.487</ele>
<time>2022-05-26T14:33:50Z</time>
</trkpt>
<trkpt lat="47.975903" lon="11.099878">
<ele>516.441</ele>
<time>2022-05-26T14:33:51Z</time>
</trkpt>
<trkpt lat="47.975956" lon="11.099852">
<ele>516.414</ele>
<time>2022-05-26T14:33:52Z</time>
</trkpt>
<trkpt lat="47.976006" lon="11.099829">
<ele>516.392</ele>
<time>2022-05-26T14:33:53Z</time>
</trkpt>
<trkpt lat="47.976059" lon="11.099796">
<ele>516.392</ele>
<time>2022-05-26T14:33:54Z</time>
</trkpt>
<trkpt lat="47.976105" lon="11.099765">
<ele>516.392</ele>
<time>2022-05-26T14:33:55Z</time>
</trkpt>
<trkpt lat="47.976158" lon="11.099741">
<ele>516.392</ele>
<time>2022-05-26T14:33:56Z</time>
</trkpt>
<trkpt lat="47.976212" lon="11.099715">
<ele>516.392</ele>
<time>2022-05-26T14:33:57Z</time>
</trkpt>
<trkpt lat="47.976261" lon="11.09969">
<ele>516.392</ele>
<time>2022-05-26T14:33:58Z</time>
</trkpt>
<trkpt lat="47.976303" lon="11.099651">
<ele>516.392</ele>
<time>2022-05-26T14:33:59Z</time>
</trkpt>
<trkpt lat="47.976349" lon="11.09962">
<ele>516.392</ele>
<time>2022-05-26T14:34:00Z</time>
</trkpt>
<trkpt lat="47.976398" lon="11.099593">
<ele>516.393</ele>
<time>2022-05-26T14:34:01Z</time>
</trkpt>
<trkpt lat="47.976463" lon="11.099568">
<ele>516.392</ele>
<time>2022-05-26T14:34:02Z</time>
</trkpt>
<trkpt lat="47.976521" lon="11.099545">
<ele>516.392</ele>
<time>2022-05-26T14:34:03Z</time>
</trkpt>
<trkpt lat="47.976578" lon="11.099517">
<ele>516.392</ele>
<time>2022-05-26T14:34:04Z</time>
</trkpt>
<trkpt lat="47.976639" lon="11.099488">
<ele>516.392</ele>
<time>2022-05-26T14:34:05Z</time>
</trkpt>
<trkpt lat="47.976692" lon="11.099461">
<ele>516.392</ele>
<time>2022-05-26T14:34:06Z</time>
</trkpt>
<trkpt lat="47.976749" lon="11.099431">
<ele>516.392</ele>
<time>2022-05-26T14:34:07Z</time>
</trkpt>
<trkpt lat="47.976803" lon="11.0994">
<ele>516.392</ele>
<time>2022-05-26T14:34:08Z</time>
</trkpt>
<trkpt lat="47.976856" lon="11.099368">
<ele>516.644</ele>
<time>2022-05-26T14:34:09Z</time>
</trkpt>
<trkpt lat="47.976913" lon="11.099339">
<ele>516.835</ele>
<time>2022-05-26T14:34:10Z</time>
</trkpt>
<trkpt lat="47.976963" lon="11.099308">
<ele>516.99</ele>
<time>2022-05-26T14:34:11Z</time>
</trkpt>
<trkpt lat="47.977013" lon="11.099283">
<ele>517.103</ele>
<time>2022-05-26T14:34:12Z</time>
</trkpt>
<trkpt lat="47.977066" lon="11.099259">
<ele>517.185</ele>
<time>2022-05-26T14:34:13Z</time>
</trkpt>
<trkpt lat="47.977116" lon="11.099242">
<ele>517.27</ele>
<time>2022-05-26T14:34:14Z</time>
</trkpt>
<trkpt lat="47.977169" lon="11.099218">
<ele>517.323</ele>
<time>2022-05-26T14:34:15Z</time>
</trkpt>
<trkpt lat="47.977215" lon="11.099195">
<ele>517.348</ele>
<time>2022-05-26T14:34:16Z</time>
</trkpt>
<trkpt lat="47.977264" lon="11.099167">
<ele>517.348</ele>
<time>2022-05-26T14:34:17Z</time>
</trkpt>
<trkpt lat="47.977318" lon="11.099142">
<ele>517.348</ele>
<time>2022-05-26T14:34:18Z</time>
</trkpt>
<trkpt lat="47.977367" lon="11.099121">
<ele>517.348</ele>
<time>2022-05-26T14:34:19Z</time>
</trkpt>
<trkpt lat="47.977413" lon="11.099104">
<ele>517.348</ele>
<time>2022-05-26T14:34:20Z</time>
</trkpt>
<trkpt lat="47.977463" lon="11.099079">
<ele>517.348</ele>
<time>2022-05-26T14:34:21Z</time>
</trkpt>
<trkpt lat="47.977505" lon="11.099053">
<ele>517.348</ele>
<time>2022-05-26T14:34:22Z</time>
</trkpt>
<trkpt lat="47.977551" lon="11.099035">
<ele>517.348</ele>
<time>2022-05-26T14:34:23Z</time>
</trkpt>
<trkpt lat="47.977592" lon="11.09902">
<ele>517.348</ele>
<time>2022-05-26T14:34:24Z</time>
</trkpt>
<trkpt lat="47.977631" lon="11.099013">
<ele>517.348</ele>
<time>2022-05-26T14:34:25Z</time>
</trkpt>
<trkpt lat="47.977673" lon="11.099004">
<ele>517.348</ele>
<time>2022-05-26T14:34:26Z</time>
</trkpt>
<trkpt lat="47.977722" lon="11.098995">
<ele>517.348</ele>
<time>2022-05-26T14:34:27Z</time>
</trkpt>
<trkpt lat="47.977764" lon="11.098987">
<ele>517.348</ele>
<time>2022-05-26T14:34:28Z</time>
</trkpt>
<trkpt lat="47.977806" lon="11.098973">
<ele>517.348</ele>
<time>2022-05-26T14:34:29Z</time>
</trkpt>
<trkpt lat="47.977848" lon="11.098966">
<ele>517.348</ele>
<time>2022-05-26T14:34:30Z</time>
</trkpt>
<trkpt lat="47.977886" lon="11.098957">
<ele>517.348</ele>
<time>2022-05-26T14:34:31Z</time>
</trkpt>
<trkpt lat="47.977924" lon="11.098939">
<ele>517.348</ele>
<time>2022-05-26T14:34:32Z</time>
</trkpt>
<trkpt lat="47.977959" lon="11.098924">
<ele>517.348</ele>
<time>2022-05-26T14:34:33Z</time>
</trkpt>
<trkpt lat="47.977989" lon="11.098911">
<ele>517.348</ele>
<time>2022-05-26T14:34:34Z</time>
</trkpt>
<trkpt lat="47.978024" lon="11.098907">
<ele>517.348</ele>
<time>2022-05-26T14:34:35Z</time>
</trkpt>
<trkpt lat="47.978058" lon="11.098904">
<ele>517.348</ele>
<time>2022-05-26T14:34:36Z</time>
</trkpt>
<trkpt lat="47.978092" lon="11.098904">
<ele>517.348</ele>
<time>2022-05-26T14:34:37Z</time>
</trkpt>
<trkpt lat="47.978134" lon="11.098904">
<ele>517.348</ele>
<time>2022-05-26T14:34:38Z</time>
</trkpt>
<trkpt lat="47.978184" lon="11.098904">
<ele>517.348</ele>
<time>2022-05-26T14:34:39Z</time>
</trkpt>
<trkpt lat="47.978237" lon="11.098904">
<ele>517.348</ele>
<time>2022-05-26T14:34:40Z</time>
</trkpt>
<trkpt lat="47.978291" lon="11.098905">
<ele>517.085</ele>
<time>2022-05-26T14:34:41Z</time>
</trkpt>
<trkpt lat="47.978348" lon="11.098911">
<ele>516.878</ele>
<time>2022-05-26T14:34:42Z</time>
</trkpt>
<trkpt lat="47.978405" lon="11.098916">
<ele>516.754</ele>
<time>2022-05-26T14:34:43Z</time>
</trkpt>
<trkpt lat="47.97847" lon="11.098928">
<ele>516.612</ele>
<time>2022-05-26T14:34:44Z</time>
</trkpt>
<trkpt lat="47.978535" lon="11.098947">
<ele>516.523</ele>
<time>2022-05-26T14:34:45Z</time>
</trkpt>
<trkpt lat="47.978596" lon="11.098969">
<ele>516.225</ele>
<time>2022-05-26T14:34:46Z</time>
</trkpt>
<trkpt lat="47.978653" lon="11.098989">
<ele>516.008</ele>
<time>2022-05-26T14:34:47Z</time>
</trkpt>
<trkpt lat="47.978714" lon="11.099004">
<ele>515.844</ele>
<time>2022-05-26T14:34:48Z</time>
</trkpt>
<trkpt lat="47.978771" lon="11.099013">
<ele>515.681</ele>
<time>2022-05-26T14:34:49Z</time>
</trkpt>
<trkpt lat="47.978828" lon="11.09901">
<ele>515.612</ele>
<time>2022-05-26T14:34:50Z</time>
</trkpt>
<trkpt lat="47.978882" lon="11.098998">
<ele>515.568</ele>
<time>2022-05-26T14:34:51Z</time>
</trkpt>
<trkpt lat="47.978935" lon="11.098985">
<ele>515.544</ele>
<time>2022-05-26T14:34:52Z</time>
</trkpt>
<trkpt lat="47.978989" lon="11.098966">
<ele>515.523</ele>
<time>2022-05-26T14:34:53Z</time>
</trkpt>
<trkpt lat="47.979042" lon="11.098935">
<ele>515.523</ele>
<time>2022-05-26T14:34:54Z</time>
</trkpt>
<trkpt lat="47.979084" lon="11.098907">
<ele>515.523</ele>
<time>2022-05-26T14:34:55Z</time>
</trkpt>
<trkpt lat="47.97913" lon="11.098878">
<ele>515.523</ele>
<time>2022-05-26T14:34:56Z</time>
</trkpt>
<trkpt lat="47.979176" lon="11.098848">
<ele>515.523</ele>
<time>2022-05-26T14:34:57Z</time>
</trkpt>
<trkpt lat="47.979229" lon="11.098817">
<ele>515.523</ele>
<time>2022-05-26T14:34:58Z</time>
</trkpt>
<trkpt lat="47.979279" lon="11.098782">
<ele>515.523</ele>
<time>2022-05-26T14:34:59Z</time>
</trkpt>
<trkpt lat="47.979328" lon="11.098746">
<ele>515.523</ele>
<time>2022-05-26T14:35:00Z</time>
</trkpt>
<trkpt lat="47.979374" lon="11.098715">
<ele>515.523</ele>
<time>2022-05-26T14:35:01Z</time>
</trkpt>
<trkpt lat="47.97942" lon="11.098683">
<ele>515.523</ele>
<time>2022-05-26T14:35:02Z</time>
</trkpt>
<trkpt lat="47.979465" lon="11.098661">
<ele>515.523</ele>
<time>2022-05-26T14:35:03Z</time>
</trkpt>
<trkpt lat="47.979507" lon="11.098643">
<ele>515.523</ele>
<time>2022-05-26T14:35:04Z</time>
</trkpt>
<trkpt lat="47.979546" lon="11.09862">
<ele>515.523</ele>
<time>2022-05-26T14:35:05Z</time>
</trkpt>
<trkpt lat="47.97958" lon="11.098607">
<ele>515.523</ele>
<time>2022-05-26T14:35:06Z</time>
</trkpt>
<trkpt lat="47.979622" lon="11.098601">
<ele>515.523</ele>
<time>2022-05-26T14:35:07Z</time>
</trkpt>
<trkpt lat="47.979668" lon="11.098595">
<ele>515.523</ele>
<time>2022-05-26T14:35:08Z</time>
</trkpt>
<trkpt lat="47.979717" lon="11.098593">
<ele>515.748</ele>
<time>2022-05-26T14:35:09Z</time>
</trkpt>
<trkpt lat="47.979767" lon="11.098591">
<ele>515.931</ele>
<time>2022-05-26T14:35:10Z</time>
</trkpt>
<trkpt lat="47.979816" lon="11.098591">
<ele>516.074</ele>
<time>2022-05-26T14:35:11Z</time>
</trkpt>
<trkpt lat="47.979858" lon="11.098593">
<ele>516.185</ele>
<time>2022-05-26T14:35:12Z</time>
</trkpt>
<trkpt lat="47.979908" lon="11.098591">
<ele>516.26</ele>
<time>2022-05-26T14:35:13Z</time>
</trkpt>
<trkpt lat="47.97995" lon="11.098591">
<ele>516.33</ele>
<time>2022-05-26T14:35:14Z</time>
</trkpt>
<trkpt lat="47.980003" lon="11.098589">
<ele>516.371</ele>
<time>2022-05-26T14:35:15Z</time>
</trkpt>
<trkpt lat="47.980045" lon="11.098577">
<ele>516.393</ele>
<time>2022-05-26T14:35:16Z</time>
</trkpt>
<trkpt lat="47.980091" lon="11.098557">
<ele>516.392</ele>
<time>2022-05-26T14:35:17Z</time>
</trkpt>
<trkpt lat="47.980129" lon="11.098536">
<ele>516.392</ele>
<time>2022-05-26T14:35:18Z</time>
</trkpt>
<trkpt lat="47.980171" lon="11.098516">
<ele>516.393</ele>
<time>2022-05-26T14:35:19Z</time>
</trkpt>
<trkpt lat="47.980209" lon="11.098482">
<ele>516.393</ele>
<time>2022-05-26T14:35:20Z</time>
</trkpt>
<trkpt lat="47.980255" lon="11.098447">
<ele>516.392</ele>
<time>2022-05-26T14:35:21Z</time>
</trkpt>
<trkpt lat="47.980305" lon="11.098412">
<ele>516.392</ele>
<time>2022-05-26T14:35:22Z</time>
</trkpt>
<trkpt lat="47.980358" lon="11.098373">
<ele>516.392</ele>
<time>2022-05-26T14:35:23Z</time>
</trkpt>
<trkpt lat="47.980404" lon="11.098333">
<ele>516.392</ele>
<time>2022-05-26T14:35:24Z</time>
</trkpt>
<trkpt lat="47.980453" lon="11.098293">
<ele>516.392</ele>
<time>2022-05-26T14:35:25Z</time>
</trkpt>
<trkpt lat="47.980495" lon="11.098253">
<ele>516.392</ele>
<time>2022-05-26T14:35:26Z</time>
</trkpt>
<trkpt lat="47.980534" lon="11.098209">
<ele>516.392</ele>
<time>2022-05-26T14:35:27Z</time>
</trkpt>
<trkpt lat="47.980576" lon="11.09817">
<ele>516.392</ele>
<time>2022-05-26T14:35:28Z</time>
</trkpt>
<trkpt lat="47.980614" lon="11.098135">
<ele>516.392</ele>
<time>2022-05-26T14:35:29Z</time>
</trkpt>
<trkpt lat="47.980663" lon="11.098109">
<ele>516.629</ele>
<time>2022-05-26T14:35:30Z</time>
</trkpt>
<trkpt lat="47.980705" lon="11.098086">
<ele>516.816</ele>
<time>2022-05-26T14:35:31Z</time>
</trkpt>
<trkpt lat="47.980751" lon="11.098065">
<ele>516.968</ele>
<time>2022-05-26T14:35:32Z</time>
</trkpt>
<trkpt lat="47.980793" lon="11.098048">
<ele>517.076</ele>
<time>2022-05-26T14:35:33Z</time>
</trkpt>
<trkpt lat="47.980827" lon="11.098032">
<ele>517.188</ele>
<time>2022-05-26T14:35:34Z</time>
</trkpt>
<trkpt lat="47.980858" lon="11.098017">
<ele>517.269</ele>
<time>2022-05-26T14:35:35Z</time>
</trkpt>
<trkpt lat="47.980892" lon="11.097999">
<ele>517.322</ele>
<time>2022-05-26T14:35:36Z</time>
</trkpt>
<trkpt lat="47.980927" lon="11.097981">
<ele>517.348</ele>
<time>2022-05-26T14:35:37Z</time>
</trkpt>
<trkpt lat="47.980961" lon="11.097965">
<ele>517.348</ele>
<time>2022-05-26T14:35:38Z</time>
</trkpt>
<trkpt lat="47.980995" lon="11.09795">
<ele>517.348</ele>
<time>2022-05-26T14:35:39Z</time>
</trkpt>
<trkpt lat="47.981026" lon="11.097939">
<ele>517.348</ele>
<time>2022-05-26T14:35:40Z</time>
</trkpt>
<trkpt lat="47.981064" lon="11.097925">
<ele>517.348</ele>
<time>2022-05-26T14:35:41Z</time>
</trkpt>
<trkpt lat="47.981106" lon="11.097906">
<ele>517.348</ele>
<time>2022-05-26T14:35:42Z</time>
</trkpt>
<trkpt lat="47.981148" lon="11.09789">
<ele>517.348</ele>
<time>2022-05-26T14:35:43Z</time>
</trkpt>
<trkpt lat="47.981186" lon="11.097881">
<ele>517.348</ele>
<time>2022-05-26T14:35:44Z</time>
</trkpt>
<trkpt lat="47.981216" lon="11.097868">
<ele>517.646</ele>
<time>2022-05-26T14:35:45Z</time>
</trkpt>
<trkpt lat="47.981251" lon="11.09785">
<ele>517.866</ele>
<time>2022-05-26T14:35:46Z</time>
</trkpt>
<trkpt lat="47.981293" lon="11.09783">
<ele>518.036</ele>
<time>2022-05-26T14:35:47Z</time>
</trkpt>
<trkpt lat="47.981331" lon="11.09781">
<ele>518.153</ele>
<time>2022-05-26T14:35:48Z</time>
</trkpt>
<trkpt lat="47.981369" lon="11.097789">
<ele>518.228</ele>
<time>2022-05-26T14:35:49Z</time>
</trkpt>
<trkpt lat="47.981407" lon="11.097768">
<ele>518.273</ele>
<time>2022-05-26T14:35:50Z</time>
</trkpt>
<trkpt lat="47.981438" lon="11.097754">
<ele>518.299</ele>
<time>2022-05-26T14:35:51Z</time>
</trkpt>
<trkpt lat="47.981472" lon="11.097738">
<ele>518.304</ele>
<time>2022-05-26T14:35:52Z</time>
</trkpt>
<trkpt lat="47.981506" lon="11.097718">
<ele>518.304</ele>
<time>2022-05-26T14:35:53Z</time>
</trkpt>
<trkpt lat="47.981544" lon="11.097696">
<ele>518.304</ele>
<time>2022-05-26T14:35:54Z</time>
</trkpt>
<trkpt lat="47.981575" lon="11.09768">
<ele>518.304</ele>
<time>2022-05-26T14:35:55Z</time>
</trkpt>
<trkpt lat="47.981602" lon="11.097669">
<ele>518.304</ele>
<time>2022-05-26T14:35:56Z</time>
</trkpt>
<trkpt lat="47.981625" lon="11.097654">
<ele>518.304</ele>
<time>2022-05-26T14:35:57Z</time>
</trkpt>
<trkpt lat="47.981647" lon="11.097649">
<ele>518.304</ele>
<time>2022-05-26T14:35:58Z</time>
</trkpt>
<trkpt lat="47.98167" lon="11.097652">
<ele>518.304</ele>
<time>2022-05-26T14:35:59Z</time>
</trkpt>
<trkpt lat="47.981682" lon="11.097672">
<ele>518.304</ele>
<time>2022-05-26T14:36:00Z</time>
</trkpt>
<trkpt lat="47.981697" lon="11.097707">
<ele>518.304</ele>
<time>2022-05-26T14:36:01Z</time>
</trkpt>
<trkpt lat="47.981701" lon="11.097743">
<ele>518.304</ele>
<time>2022-05-26T14:36:02Z</time>
</trkpt>
<trkpt lat="47.981705" lon="11.097784">
<ele>518.102</ele>
<time>2022-05-26T14:36:03Z</time>
</trkpt>
<trkpt lat="47.981705" lon="11.09782">
<ele>517.896</ele>
<time>2022-05-26T14:36:04Z</time>
</trkpt>
<trkpt lat="47.981705" lon="11.097856">
<ele>517.72</ele>
<time>2022-05-26T14:36:05Z</time>
</trkpt>
<trkpt lat="47.981705" lon="11.097883">
<ele>517.604</ele>
<time>2022-05-26T14:36:06Z</time>
</trkpt>
<trkpt lat="47.981701" lon="11.097915">
<ele>517.283</ele>
<time>2022-05-26T14:36:07Z</time>
</trkpt>
<trkpt lat="47.981701" lon="11.097946">
<ele>517.035</ele>
<time>2022-05-26T14:36:08Z</time>
</trkpt>
<trkpt lat="47.981693" lon="11.097981">
<ele>516.859</ele>
<time>2022-05-26T14:36:09Z</time>
</trkpt>
<trkpt lat="47.981686" lon="11.098017">
<ele>516.71</ele>
<time>2022-05-26T14:36:10Z</time>
</trkpt>
<trkpt lat="47.981674" lon="11.098043">
<ele>516.604</ele>
<time>2022-05-26T14:36:11Z</time>
</trkpt>
<trkpt lat="47.981663" lon="11.098069">
<ele>516.546</ele>
<time>2022-05-26T14:36:12Z</time>
</trkpt>
<trkpt lat="47.981651" lon="11.098086">
<ele>516.505</ele>
<time>2022-05-26T14:36:13Z</time>
</trkpt>
<trkpt lat="47.981644" lon="11.098097">
<ele>516.262</ele>
<time>2022-05-26T14:36:14Z</time>
</trkpt>
<trkpt lat="47.981644" lon="11.098102">
<ele>516.092</ele>
<time>2022-05-26T14:36:15Z</time>
</trkpt>
<trkpt lat="47.981647" lon="11.098104">
<ele>515.953</ele>
<time>2022-05-26T14:36:16Z</time>
</trkpt>
<trkpt lat="47.981651" lon="11.098108">
<ele>515.837</ele>
<time>2022-05-26T14:36:17Z</time>
</trkpt>
<trkpt lat="47.981636" lon="11.098122">
<ele>515.729</ele>
<time>2022-05-26T14:36:48Z</time>
</trkpt>
<trkpt lat="47.981628" lon="11.098124">
<ele>515.634</ele>
<time>2022-05-26T14:36:49Z</time>
</trkpt>
<trkpt lat="47.981621" lon="11.098124">
<ele>515.567</ele>
<time>2022-05-26T14:36:50Z</time>
</trkpt>
<trkpt lat="47.981609" lon="11.098124">
<ele>515.523</ele>
<time>2022-05-26T14:36:51Z</time>
</trkpt>
<trkpt lat="47.981606" lon="11.098125">
<ele>515.523</ele>
<time>2022-05-26T14:36:52Z</time>
</trkpt>
<trkpt lat="47.981598" lon="11.098128">
<ele>515.523</ele>
<time>2022-05-26T14:36:53Z</time>
</trkpt>
<trkpt lat="47.98159" lon="11.098135">
<ele>515.523</ele>
<time>2022-05-26T14:36:54Z</time>
</trkpt>
<trkpt lat="47.981579" lon="11.098142">
<ele>515.523</ele>
<time>2022-05-26T14:36:55Z</time>
</trkpt>
<trkpt lat="47.981575" lon="11.098146">
<ele>515.523</ele>
<time>2022-05-26T14:36:56Z</time>
</trkpt>
<trkpt lat="47.981571" lon="11.09814">
<ele>515.523</ele>
<time>2022-05-26T14:36:57Z</time>
</trkpt>
<trkpt lat="47.981567" lon="11.098135">
<ele>515.523</ele>
<time>2022-05-26T14:36:58Z</time>
</trkpt>
<trkpt lat="47.981567" lon="11.098132">
<ele>515.523</ele>
<time>2022-05-26T14:36:59Z</time>
</trkpt>
<trkpt lat="47.981495" lon="11.098191">
<ele>514.915</ele>
<time>2022-05-26T14:37:54Z</time>
</trkpt>
<trkpt lat="47.981491" lon="11.098148">
<ele>514.915</ele>
<time>2022-05-26T14:38:00Z</time>
</trkpt>
<trkpt lat="47.981499" lon="11.098146">
<ele>514.915</ele>
<time>2022-05-26T14:38:01Z</time>
</trkpt>
<trkpt lat="47.981499" lon="11.09815">
<ele>514.915</ele>
<time>2022-05-26T14:38:02Z</time>
</trkpt>
<trkpt lat="47.981503" lon="11.098145">
<ele>514.915</ele>
<time>2022-05-26T14:38:03Z</time>
</trkpt>
<trkpt lat="47.981503" lon="11.098148">
<ele>514.915</ele>
<time>2022-05-26T14:38:05Z</time>
</trkpt>
<trkpt lat="47.981556" lon="11.098164">
<ele>514.915</ele>
<time>2022-05-26T14:41:39Z</time>
</trkpt>
<trkpt lat="47.98156" lon="11.098166">
<ele>514.915</ele>
<time>2022-05-26T14:41:40Z</time>
</trkpt>
<trkpt lat="47.981564" lon="11.098162">
<ele>514.915</ele>
<time>2022-05-26T14:41:41Z</time>
</trkpt>
<trkpt lat="47.981567" lon="11.098159">
<ele>514.915</ele>
<time>2022-05-26T14:41:42Z</time>
</trkpt>
<trkpt lat="47.981567" lon="11.098151">
<ele>514.915</ele>
<time>2022-05-26T14:41:43Z</time>
</trkpt>
<trkpt lat="47.981575" lon="11.098148">
<ele>514.915</ele>
<time>2022-05-26T14:41:44Z</time>
</trkpt>
<trkpt lat="47.981602" lon="11.098139">
<ele>514.915</ele>
<time>2022-05-26T14:41:46Z</time>
</trkpt>
<trkpt lat="47.981617" lon="11.098134">
<ele>514.915</ele>
<time>2022-05-26T14:41:47Z</time>
</trkpt>
<trkpt lat="47.98164" lon="11.098126">
<ele>514.915</ele>
<time>2022-05-26T14:41:48Z</time>
</trkpt>
<trkpt lat="47.981655" lon="11.098113">
<ele>514.915</ele>
<time>2022-05-26T14:41:49Z</time>
</trkpt>
<trkpt lat="47.981674" lon="11.098086">
<ele>514.915</ele>
<time>2022-05-26T14:41:50Z</time>
</trkpt>
<trkpt lat="47.981701" lon="11.098048">
<ele>514.915</ele>
<time>2022-05-26T14:41:51Z</time>
</trkpt>
<trkpt lat="47.981712" lon="11.098008">
<ele>514.915</ele>
<time>2022-05-26T14:41:52Z</time>
</trkpt>
<trkpt lat="47.981728" lon="11.097965">
<ele>514.915</ele>
<time>2022-05-26T14:41:53Z</time>
</trkpt>
<trkpt lat="47.981739" lon="11.097922">
<ele>514.915</ele>
<time>2022-05-26T14:41:54Z</time>
</trkpt>
<trkpt lat="47.98175" lon="11.097872">
<ele>514.915</ele>
<time>2022-05-26T14:41:55Z</time>
</trkpt>
<trkpt lat="47.981762" lon="11.09782">
<ele>514.915</ele>
<time>2022-05-26T14:41:56Z</time>
</trkpt>
<trkpt lat="47.98177" lon="11.09777">
<ele>514.915</ele>
<time>2022-05-26T14:41:57Z</time>
</trkpt>
<trkpt lat="47.981773" lon="11.097728">
<ele>514.915</ele>
<time>2022-05-26T14:41:58Z</time>
</trkpt>
<trkpt lat="47.981773" lon="11.097696">
<ele>514.915</ele>
<time>2022-05-26T14:41:59Z</time>
</trkpt>
<trkpt lat="47.981762" lon="11.097663">
<ele>514.915</ele>
<time>2022-05-26T14:42:00Z</time>
</trkpt>
<trkpt lat="47.981747" lon="11.097647">
<ele>514.915</ele>
<time>2022-05-26T14:42:01Z</time>
</trkpt>
<trkpt lat="47.981743" lon="11.097627">
<ele>514.915</ele>
<time>2022-05-26T14:42:02Z</time>
</trkpt>
<trkpt lat="47.981747" lon="11.097605">
<ele>514.915</ele>
<time>2022-05-26T14:42:03Z</time>
</trkpt>
<trkpt lat="47.981758" lon="11.09758">
<ele>514.915</ele>
<time>2022-05-26T14:42:04Z</time>
</trkpt>
<trkpt lat="47.981773" lon="11.097565">
<ele>514.915</ele>
<time>2022-05-26T14:42:05Z</time>
</trkpt>
<trkpt lat="47.981796" lon="11.097548">
<ele>514.915</ele>
<time>2022-05-26T14:42:06Z</time>
</trkpt>
<trkpt lat="47.981827" lon="11.097527">
<ele>514.915</ele>
<time>2022-05-26T14:42:07Z</time>
</trkpt>
<trkpt lat="47.981853" lon="11.097508">
<ele>514.915</ele>
<time>2022-05-26T14:42:08Z</time>
</trkpt>
<trkpt lat="47.981884" lon="11.097488">
<ele>514.915</ele>
<time>2022-05-26T14:42:09Z</time>
</trkpt>
<trkpt lat="47.981911" lon="11.097466">
<ele>514.915</ele>
<time>2022-05-26T14:42:10Z</time>
</trkpt>
<trkpt lat="47.981937" lon="11.097446">
<ele>514.915</ele>
<time>2022-05-26T14:42:11Z</time>
</trkpt>
<trkpt lat="47.981964" lon="11.097433">
<ele>514.915</ele>
<time>2022-05-26T14:42:12Z</time>
</trkpt>
<trkpt lat="47.981987" lon="11.097422">
<ele>514.915</ele>
<time>2022-05-26T14:42:13Z</time>
</trkpt>
<trkpt lat="47.982014" lon="11.097411">
<ele>514.915</ele>
<time>2022-05-26T14:42:14Z</time>
</trkpt>
<trkpt lat="47.982044" lon="11.097386">
<ele>514.915</ele>
<time>2022-05-26T14:42:15Z</time>
</trkpt>
<trkpt lat="47.982067" lon="11.097355">
<ele>514.915</ele>
<time>2022-05-26T14:42:16Z</time>
</trkpt>
<trkpt lat="47.98209" lon="11.097322">
<ele>514.915</ele>
<time>2022-05-26T14:42:17Z</time>
</trkpt>
<trkpt lat="47.982105" lon="11.09728">
<ele>514.915</ele>
<time>2022-05-26T14:42:18Z</time>
</trkpt>
<trkpt lat="47.982121" lon="11.097243">
<ele>514.915</ele>
<time>2022-05-26T14:42:19Z</time>
</trkpt>
<trkpt lat="47.982124" lon="11.097219">
<ele>514.915</ele>
<time>2022-05-26T14:42:20Z</time>
</trkpt>
<trkpt lat="47.982128" lon="11.09718">
<ele>514.915</ele>
<time>2022-05-26T14:42:21Z</time>
</trkpt>
<trkpt lat="47.982132" lon="11.097141">
<ele>514.915</ele>
<time>2022-05-26T14:42:22Z</time>
</trkpt>
<trkpt lat="47.982143" lon="11.097094">
<ele>515.159</ele>
<time>2022-05-26T14:42:23Z</time>
</trkpt>
<trkpt lat="47.982162" lon="11.097042">
<ele>515.368</ele>
<time>2022-05-26T14:42:24Z</time>
</trkpt>
<trkpt lat="47.982178" lon="11.09698">
<ele>515.526</ele>
<time>2022-05-26T14:42:25Z</time>
</trkpt>
<trkpt lat="47.982201" lon="11.096917">
<ele>515.642</ele>
<time>2022-05-26T14:42:26Z</time>
</trkpt>
<trkpt lat="47.982227" lon="11.09685">
<ele>515.73</ele>
<time>2022-05-26T14:42:27Z</time>
</trkpt>
<trkpt lat="47.982246" lon="11.096783">
<ele>515.772</ele>
<time>2022-05-26T14:42:28Z</time>
</trkpt>
<trkpt lat="47.982262" lon="11.096713">
<ele>515.784</ele>
<time>2022-05-26T14:42:29Z</time>
</trkpt>
<trkpt lat="47.982292" lon="11.096637">
<ele>516.047</ele>
<time>2022-05-26T14:42:30Z</time>
</trkpt>
<trkpt lat="47.982323" lon="11.096561">
<ele>516.207</ele>
<time>2022-05-26T14:42:31Z</time>
</trkpt>
<trkpt lat="47.982346" lon="11.096494">
<ele>516.374</ele>
<time>2022-05-26T14:42:32Z</time>
</trkpt>
<trkpt lat="47.982365" lon="11.096425">
<ele>516.5</ele>
<time>2022-05-26T14:42:33Z</time>
</trkpt>
<trkpt lat="47.982384" lon="11.09636">
<ele>516.598</ele>
<time>2022-05-26T14:42:34Z</time>
</trkpt>
<trkpt lat="47.982395" lon="11.096301">
<ele>516.663</ele>
<time>2022-05-26T14:42:35Z</time>
</trkpt>
<trkpt lat="47.982426" lon="11.096196">
<ele>517.095</ele>
<time>2022-05-26T14:42:36Z</time>
</trkpt>
<trkpt lat="47.98243" lon="11.096146">
<ele>517.453</ele>
<time>2022-05-26T14:42:37Z</time>
</trkpt>
<trkpt lat="47.982433" lon="11.096087">
<ele>517.591</ele>
<time>2022-05-26T14:42:38Z</time>
</trkpt>
<trkpt lat="47.982441" lon="11.096039">
<ele>517.689</ele>
<time>2022-05-26T14:42:39Z</time>
</trkpt>
<trkpt lat="47.982449" lon="11.09599">
<ele>517.75</ele>
<time>2022-05-26T14:42:40Z</time>
</trkpt>
<trkpt lat="47.982464" lon="11.095942">
<ele>517.772</ele>
<time>2022-05-26T14:42:41Z</time>
</trkpt>
<trkpt lat="47.982479" lon="11.095884">
<ele>517.769</ele>
<time>2022-05-26T14:42:42Z</time>
</trkpt>
<trkpt lat="47.982502" lon="11.095827">
<ele>517.746</ele>
<time>2022-05-26T14:42:43Z</time>
</trkpt>
<trkpt lat="47.982525" lon="11.095762">
<ele>517.697</ele>
<time>2022-05-26T14:42:44Z</time>
</trkpt>
<trkpt lat="47.982552" lon="11.095692">
<ele>517.697</ele>
<time>2022-05-26T14:42:45Z</time>
</trkpt>
<trkpt lat="47.982574" lon="11.095631">
<ele>517.697</ele>
<time>2022-05-26T14:42:46Z</time>
</trkpt>
<trkpt lat="47.982601" lon="11.09557">
<ele>517.939</ele>
<time>2022-05-26T14:42:47Z</time>
</trkpt>
<trkpt lat="47.982624" lon="11.095507">
<ele>518.119</ele>
<time>2022-05-26T14:42:48Z</time>
</trkpt>
<trkpt lat="47.982655" lon="11.09544">
<ele>518.251</ele>
<time>2022-05-26T14:42:49Z</time>
</trkpt>
<trkpt lat="47.982685" lon="11.095375">
<ele>518.333</ele>
<time>2022-05-26T14:42:50Z</time>
</trkpt>
<trkpt lat="47.982716" lon="11.095298">
<ele>518.429</ele>
<time>2022-05-26T14:42:51Z</time>
</trkpt>
<trkpt lat="47.982742" lon="11.095222">
<ele>518.498</ele>
<time>2022-05-26T14:42:52Z</time>
</trkpt>
<trkpt lat="47.982769" lon="11.095148">
<ele>518.543</ele>
<time>2022-05-26T14:42:53Z</time>
</trkpt>
<trkpt lat="47.982796" lon="11.095077">
<ele>518.566</ele>
<time>2022-05-26T14:42:54Z</time>
</trkpt>
<trkpt lat="47.982819" lon="11.095008">
<ele>518.832</ele>
<time>2022-05-26T14:42:55Z</time>
</trkpt>
<trkpt lat="47.982849" lon="11.094943">
<ele>519.031</ele>
<time>2022-05-26T14:42:56Z</time>
</trkpt>
<trkpt lat="47.982872" lon="11.094882">
<ele>519.183</ele>
<time>2022-05-26T14:42:57Z</time>
</trkpt>
<trkpt lat="47.982895" lon="11.094817">
<ele>519.296</ele>
<time>2022-05-26T14:42:58Z</time>
</trkpt>
<trkpt lat="47.982914" lon="11.094751">
<ele>519.355</ele>
<time>2022-05-26T14:42:59Z</time>
</trkpt>
<trkpt lat="47.982937" lon="11.094678">
<ele>519.661</ele>
<time>2022-05-26T14:43:00Z</time>
</trkpt>
<trkpt lat="47.982952" lon="11.094593">
<ele>519.94</ele>
<time>2022-05-26T14:43:01Z</time>
</trkpt>
<trkpt lat="47.982967" lon="11.094505">
<ele>520.154</ele>
<time>2022-05-26T14:43:02Z</time>
</trkpt>
<trkpt lat="47.982983" lon="11.094418">
<ele>520.305</ele>
<time>2022-05-26T14:43:03Z</time>
</trkpt>
<trkpt lat="47.983002" lon="11.094332">
<ele>520.418</ele>
<time>2022-05-26T14:43:04Z</time>
</trkpt>
<trkpt lat="47.983017" lon="11.094246">
<ele>520.496</ele>
<time>2022-05-26T14:43:05Z</time>
</trkpt>
<trkpt lat="47.983032" lon="11.094164">
<ele>520.544</ele>
<time>2022-05-26T14:43:06Z</time>
</trkpt>
<trkpt lat="47.983044" lon="11.094084">
<ele>520.566</ele>
<time>2022-05-26T14:43:07Z</time>
</trkpt>
<trkpt lat="47.983063" lon="11.09401">
<ele>520.566</ele>
<time>2022-05-26T14:43:08Z</time>
</trkpt>
<trkpt lat="47.983078" lon="11.093938">
<ele>520.791</ele>
<time>2022-05-26T14:43:09Z</time>
</trkpt>
<trkpt lat="47.983089" lon="11.093863">
<ele>520.955</ele>
<time>2022-05-26T14:43:10Z</time>
</trkpt>
<trkpt lat="47.983109" lon="11.093795">
<ele>521.122</ele>
<time>2022-05-26T14:43:11Z</time>
</trkpt>
<trkpt lat="47.983128" lon="11.093733">
<ele>521.257</ele>
<time>2022-05-26T14:43:12Z</time>
</trkpt>
<trkpt lat="47.98315" lon="11.093674">
<ele>521.365</ele>
<time>2022-05-26T14:43:13Z</time>
</trkpt>
<trkpt lat="47.983177" lon="11.093618">
<ele>521.437</ele>
<time>2022-05-26T14:43:14Z</time>
</trkpt>
<trkpt lat="47.983208" lon="11.093569">
<ele>521.738</ele>
<time>2022-05-26T14:43:15Z</time>
</trkpt>
<trkpt lat="47.983238" lon="11.09352">
<ele>521.977</ele>
<time>2022-05-26T14:43:16Z</time>
</trkpt>
<trkpt lat="47.983261" lon="11.093472">
<ele>522.188</ele>
<time>2022-05-26T14:43:17Z</time>
</trkpt>
<trkpt lat="47.983288" lon="11.093425">
<ele>522.314</ele>
<time>2022-05-26T14:43:18Z</time>
</trkpt>
<trkpt lat="47.983322" lon="11.09338">
<ele>522.407</ele>
<time>2022-05-26T14:43:19Z</time>
</trkpt>
<trkpt lat="47.98336" lon="11.093332">
<ele>522.477</ele>
<time>2022-05-26T14:43:20Z</time>
</trkpt>
<trkpt lat="47.983398" lon="11.09328">
<ele>522.536</ele>
<time>2022-05-26T14:43:21Z</time>
</trkpt>
<trkpt lat="47.983437" lon="11.093219">
<ele>522.566</ele>
<time>2022-05-26T14:43:22Z</time>
</trkpt>
<trkpt lat="47.983475" lon="11.093157">
<ele>522.566</ele>
<time>2022-05-26T14:43:23Z</time>
</trkpt>
<trkpt lat="47.983513" lon="11.093095">
<ele>522.566</ele>
<time>2022-05-26T14:43:24Z</time>
</trkpt>
<trkpt lat="47.983536" lon="11.093032">
<ele>522.566</ele>
<time>2022-05-26T14:43:25Z</time>
</trkpt>
<trkpt lat="47.983543" lon="11.092974">
<ele>522.566</ele>
<time>2022-05-26T14:43:26Z</time>
</trkpt>
<trkpt lat="47.983547" lon="11.09291">
<ele>522.784</ele>
<time>2022-05-26T14:43:27Z</time>
</trkpt>
<trkpt lat="47.983536" lon="11.092858">
<ele>522.949</ele>
<time>2022-05-26T14:43:28Z</time>
</trkpt>
<trkpt lat="47.983517" lon="11.092821">
<ele>523.076</ele>
<time>2022-05-26T14:43:29Z</time>
</trkpt>
<trkpt lat="47.983501" lon="11.092785">
<ele>523.169</ele>
<time>2022-05-26T14:43:30Z</time>
</trkpt>
<trkpt lat="47.983482" lon="11.09274">
<ele>523.272</ele>
<time>2022-05-26T14:43:31Z</time>
</trkpt>
<trkpt lat="47.983475" lon="11.092695">
<ele>523.352</ele>
<time>2022-05-26T14:43:32Z</time>
</trkpt>
<trkpt lat="47.983475" lon="11.092653">
<ele>523.408</ele>
<time>2022-05-26T14:43:33Z</time>
</trkpt>
<trkpt lat="47.983482" lon="11.092616">
<ele>523.436</ele>
<time>2022-05-26T14:43:34Z</time>
</trkpt>
<trkpt lat="47.98349" lon="11.092585">
<ele>523.436</ele>
<time>2022-05-26T14:43:35Z</time>
</trkpt>
<trkpt lat="47.983494" lon="11.092553">
<ele>523.67</ele>
<time>2022-05-26T14:43:36Z</time>
</trkpt>
<trkpt lat="47.983501" lon="11.092532">
<ele>523.859</ele>
<time>2022-05-26T14:43:37Z</time>
</trkpt>
<trkpt lat="47.983509" lon="11.092506">
<ele>523.998</ele>
<time>2022-05-26T14:43:38Z</time>
</trkpt>
<trkpt lat="47.983509" lon="11.092473">
<ele>524.116</ele>
<time>2022-05-26T14:43:39Z</time>
</trkpt>
<trkpt lat="47.983513" lon="11.092448">
<ele>524.208</ele>
<time>2022-05-26T14:43:40Z</time>
</trkpt>
<trkpt lat="47.983513" lon="11.092422">
<ele>524.301</ele>
<time>2022-05-26T14:43:41Z</time>
</trkpt>
<trkpt lat="47.983517" lon="11.092403">
<ele>524.363</ele>
<time>2022-05-26T14:43:42Z</time>
</trkpt>
<trkpt lat="47.983524" lon="11.092387">
<ele>524.393</ele>
<time>2022-05-26T14:43:43Z</time>
</trkpt>
<trkpt lat="47.983532" lon="11.092361">
<ele>524.646</ele>
<time>2022-05-26T14:43:44Z</time>
</trkpt>
<trkpt lat="47.983543" lon="11.092339">
<ele>524.856</ele>
<time>2022-05-26T14:43:45Z</time>
</trkpt>
<trkpt lat="47.983551" lon="11.092314">
<ele>525.01</ele>
<time>2022-05-26T14:43:46Z</time>
</trkpt>
<trkpt lat="47.983555" lon="11.092299">
<ele>525.013</ele>
<time>2022-05-26T14:43:47Z</time>
</trkpt>
<trkpt lat="47.983566" lon="11.092277">
<ele>524.885</ele>
<time>2022-05-26T14:43:48Z</time>
</trkpt>
<trkpt lat="47.983582" lon="11.092257">
<ele>524.756</ele>
<time>2022-05-26T14:43:49Z</time>
</trkpt>
<trkpt lat="47.983593" lon="11.092237">
<ele>524.675</ele>
<time>2022-05-26T14:43:50Z</time>
</trkpt>
<trkpt lat="47.983593" lon="11.092226">
<ele>524.575</ele>
<time>2022-05-26T14:43:51Z</time>
</trkpt>
<trkpt lat="47.983593" lon="11.092218">
<ele>524.492</ele>
<time>2022-05-26T14:43:52Z</time>
</trkpt>
<trkpt lat="47.983597" lon="11.092207">
<ele>524.401</ele>
<time>2022-05-26T14:43:53Z</time>
</trkpt>
<trkpt lat="47.983597" lon="11.092207">
<ele>524.401</ele>
</trkpt>
</trkseg>
</trk>
</gpx>